<?xml version="1.0" encoding="UTF-8" standalone="no" ?>
<gpx xmlns="http://www.topografix.com/GPX/1/1" xmlns:xsi="http://www.w3.org/2001/XMLSchema-instance" xsi:schemaLocation="http://www.topografix.com/GPX/1/1 http://www.topografix.com/GPX/1/1/gpx.xsd" version="1.1" creator="VisuGPX - https://www.visugpx.com">
  <metadata>
    <name>Sortie VTT Granon depuis Briancon</name>
  </metadata>
  <trk>
    <name><![CDATA[Sortie VTT Granon depuis Briancon_1]]></name>
    <trkseg>
      <trkpt lat="44.91587" lon="6.62454">
        <ele>1311.763775</ele>
        <time>2022-09-04T14:17:03+0200</time>
      </trkpt>
      <trkpt lat="44.91562" lon="6.62439">
        <ele>1310.378231</ele>
        <time>2022-09-04T14:17:26+0200</time>
      </trkpt>
      <trkpt lat="44.9157" lon="6.62444">
        <ele>1310.378178</ele>
        <time>2022-09-04T14:17:28+0200</time>
      </trkpt>
      <trkpt lat="44.91584" lon="6.62453">
        <ele>1310.123146</ele>
        <time>2022-09-04T14:17:34+0200</time>
      </trkpt>
      <trkpt lat="44.9159" lon="6.62457">
        <ele>1309.831642</ele>
        <time>2022-09-04T14:17:42+0200</time>
      </trkpt>
      <trkpt lat="44.91586" lon="6.62444">
        <ele>1350.300987</ele>
        <time>2022-09-04T14:17:49+0200</time>
      </trkpt>
      <trkpt lat="44.91585" lon="6.62451">
        <ele>1349.090038</ele>
        <time>2022-09-04T14:18:00+0200</time>
      </trkpt>
      <trkpt lat="44.9158" lon="6.62455">
        <ele>1349.440167</ele>
        <time>2022-09-04T14:18:03+0200</time>
      </trkpt>
      <trkpt lat="44.91577" lon="6.62462">
        <ele>1349.826384</ele>
        <time>2022-09-04T14:18:05+0200</time>
      </trkpt>
      <trkpt lat="44.91571" lon="6.62469">
        <ele>1350.194204</ele>
        <time>2022-09-04T14:18:07+0200</time>
      </trkpt>
      <trkpt lat="44.91566" lon="6.62469">
        <ele>1350.329641</ele>
        <time>2022-09-04T14:18:08+0200</time>
      </trkpt>
      <trkpt lat="44.91559" lon="6.62471">
        <ele>1350.408374</ele>
        <time>2022-09-04T14:18:10+0200</time>
      </trkpt>
      <trkpt lat="44.91554" lon="6.6247">
        <ele>1350.278768</ele>
        <time>2022-09-04T14:18:11+0200</time>
      </trkpt>
      <trkpt lat="44.91549" lon="6.62467">
        <ele>1349.901035</ele>
        <time>2022-09-04T14:18:12+0200</time>
      </trkpt>
      <trkpt lat="44.91543" lon="6.62459">
        <ele>1349.655838</ele>
        <time>2022-09-04T14:18:13+0200</time>
      </trkpt>
      <trkpt lat="44.9154" lon="6.6245">
        <ele>1349.265337</ele>
        <time>2022-09-04T14:18:14+0200</time>
      </trkpt>
      <trkpt lat="44.91537" lon="6.62441">
        <ele>1348.769487</ele>
        <time>2022-09-04T14:18:15+0200</time>
      </trkpt>
      <trkpt lat="44.91533" lon="6.62435">
        <ele>1348.092026</ele>
        <time>2022-09-04T14:18:16+0200</time>
      </trkpt>
      <trkpt lat="44.91529" lon="6.62429">
        <ele>1347.211537</ele>
        <time>2022-09-04T14:18:17+0200</time>
      </trkpt>
      <trkpt lat="44.91525" lon="6.62423">
        <ele>1345.080073</ele>
        <time>2022-09-04T14:18:19+0200</time>
      </trkpt>
      <trkpt lat="44.9152" lon="6.62429">
        <ele>1341.241351</ele>
        <time>2022-09-04T14:18:27+0200</time>
      </trkpt>
      <trkpt lat="44.91517" lon="6.62437">
        <ele>1341.819026</ele>
        <time>2022-09-04T14:18:29+0200</time>
      </trkpt>
      <trkpt lat="44.91514" lon="6.62447">
        <ele>1341.717715</ele>
        <time>2022-09-04T14:18:31+0200</time>
      </trkpt>
      <trkpt lat="44.91511" lon="6.62457">
        <ele>1342.14916</ele>
        <time>2022-09-04T14:18:33+0200</time>
      </trkpt>
      <trkpt lat="44.91509" lon="6.62467">
        <ele>1343.240307</ele>
        <time>2022-09-04T14:18:35+0200</time>
      </trkpt>
      <trkpt lat="44.91506" lon="6.62476">
        <ele>1344.206</ele>
        <time>2022-09-04T14:18:37+0200</time>
      </trkpt>
      <trkpt lat="44.91503" lon="6.62486">
        <ele>1344.419349</ele>
        <time>2022-09-04T14:18:39+0200</time>
      </trkpt>
      <trkpt lat="44.91499" lon="6.62495">
        <ele>1344.969076</ele>
        <time>2022-09-04T14:18:41+0200</time>
      </trkpt>
      <trkpt lat="44.91494" lon="6.62503">
        <ele>1344.568459</ele>
        <time>2022-09-04T14:18:43+0200</time>
      </trkpt>
      <trkpt lat="44.91489" lon="6.62512">
        <ele>1344.182635</ele>
        <time>2022-09-04T14:18:45+0200</time>
      </trkpt>
      <trkpt lat="44.91484" lon="6.62521">
        <ele>1345.285691</ele>
        <time>2022-09-04T14:18:47+0200</time>
      </trkpt>
      <trkpt lat="44.91479" lon="6.62531">
        <ele>1346.085742</ele>
        <time>2022-09-04T14:18:49+0200</time>
      </trkpt>
      <trkpt lat="44.91475" lon="6.62535">
        <ele>1345.397525</ele>
        <time>2022-09-04T14:18:50+0200</time>
      </trkpt>
      <trkpt lat="44.9147" lon="6.62539">
        <ele>1344.849413</ele>
        <time>2022-09-04T14:18:52+0200</time>
      </trkpt>
      <trkpt lat="44.91474" lon="6.62544">
        <ele>1342.741744</ele>
        <time>2022-09-04T14:19:13+0200</time>
      </trkpt>
      <trkpt lat="44.9148" lon="6.62542">
        <ele>1342.425573</ele>
        <time>2022-09-04T14:19:15+0200</time>
      </trkpt>
      <trkpt lat="44.91485" lon="6.62535">
        <ele>1342.357367</ele>
        <time>2022-09-04T14:19:17+0200</time>
      </trkpt>
      <trkpt lat="44.91492" lon="6.62529">
        <ele>1343.008292</ele>
        <time>2022-09-04T14:19:19+0200</time>
      </trkpt>
      <trkpt lat="44.91498" lon="6.62522">
        <ele>1343.892354</ele>
        <time>2022-09-04T14:19:21+0200</time>
      </trkpt>
      <trkpt lat="44.91504" lon="6.62515">
        <ele>1344.782514</ele>
        <time>2022-09-04T14:19:23+0200</time>
      </trkpt>
      <trkpt lat="44.91509" lon="6.62511">
        <ele>1345.406852</ele>
        <time>2022-09-04T14:19:25+0200</time>
      </trkpt>
      <trkpt lat="44.91514" lon="6.62512">
        <ele>1346.221906</ele>
        <time>2022-09-04T14:19:28+0200</time>
      </trkpt>
      <trkpt lat="44.91519" lon="6.62516">
        <ele>1346.973204</ele>
        <time>2022-09-04T14:19:30+0200</time>
      </trkpt>
      <trkpt lat="44.91522" lon="6.62522">
        <ele>1347.95756</ele>
        <time>2022-09-04T14:19:32+0200</time>
      </trkpt>
      <trkpt lat="44.91522" lon="6.62529">
        <ele>1348.870151</ele>
        <time>2022-09-04T14:19:34+0200</time>
      </trkpt>
      <trkpt lat="44.91524" lon="6.62538">
        <ele>1349.698784</ele>
        <time>2022-09-04T14:19:37+0200</time>
      </trkpt>
      <trkpt lat="44.91527" lon="6.62546">
        <ele>1350.821732</ele>
        <time>2022-09-04T14:19:40+0200</time>
      </trkpt>
      <trkpt lat="44.91533" lon="6.62547">
        <ele>1351.805031</ele>
        <time>2022-09-04T14:19:43+0200</time>
      </trkpt>
      <trkpt lat="44.9154" lon="6.62544">
        <ele>1353.296277</ele>
        <time>2022-09-04T14:19:46+0200</time>
      </trkpt>
      <trkpt lat="44.91544" lon="6.62541">
        <ele>1354.027463</ele>
        <time>2022-09-04T14:19:48+0200</time>
      </trkpt>
      <trkpt lat="44.91547" lon="6.62536">
        <ele>1354.158549</ele>
        <time>2022-09-04T14:19:50+0200</time>
      </trkpt>
      <trkpt lat="44.91551" lon="6.62529">
        <ele>1355.100221</ele>
        <time>2022-09-04T14:19:53+0200</time>
      </trkpt>
      <trkpt lat="44.91557" lon="6.62526">
        <ele>1355.376974</ele>
        <time>2022-09-04T14:19:56+0200</time>
      </trkpt>
      <trkpt lat="44.91561" lon="6.6253">
        <ele>1355.116649</ele>
        <time>2022-09-04T14:19:59+0200</time>
      </trkpt>
      <trkpt lat="44.91566" lon="6.62531">
        <ele>1355.606054</ele>
        <time>2022-09-04T14:20:01+0200</time>
      </trkpt>
      <trkpt lat="44.91571" lon="6.62532">
        <ele>1357.101768</ele>
        <time>2022-09-04T14:20:04+0200</time>
      </trkpt>
      <trkpt lat="44.91576" lon="6.62536">
        <ele>1358.25625</ele>
        <time>2022-09-04T14:20:06+0200</time>
      </trkpt>
      <trkpt lat="44.91581" lon="6.62538">
        <ele>1359.320867</ele>
        <time>2022-09-04T14:20:09+0200</time>
      </trkpt>
      <trkpt lat="44.91587" lon="6.62541">
        <ele>1360.17152</ele>
        <time>2022-09-04T14:20:12+0200</time>
      </trkpt>
      <trkpt lat="44.91592" lon="6.62546">
        <ele>1360.964307</ele>
        <time>2022-09-04T14:20:15+0200</time>
      </trkpt>
      <trkpt lat="44.91594" lon="6.62555">
        <ele>1362.543764</ele>
        <time>2022-09-04T14:20:17+0200</time>
      </trkpt>
      <trkpt lat="44.91594" lon="6.62562">
        <ele>1363.068316</ele>
        <time>2022-09-04T14:20:19+0200</time>
      </trkpt>
      <trkpt lat="44.91592" lon="6.62569">
        <ele>1364.439837</ele>
        <time>2022-09-04T14:20:22+0200</time>
      </trkpt>
      <trkpt lat="44.91591" lon="6.62576">
        <ele>1364.808548</ele>
        <time>2022-09-04T14:20:24+0200</time>
      </trkpt>
      <trkpt lat="44.91591" lon="6.62583">
        <ele>1365.222093</ele>
        <time>2022-09-04T14:20:26+0200</time>
      </trkpt>
      <trkpt lat="44.91589" lon="6.62591">
        <ele>1365.203092</ele>
        <time>2022-09-04T14:20:29+0200</time>
      </trkpt>
      <trkpt lat="44.91587" lon="6.62597">
        <ele>1364.988658</ele>
        <time>2022-09-04T14:20:31+0200</time>
      </trkpt>
      <trkpt lat="44.91587" lon="6.62604">
        <ele>1363.973155</ele>
        <time>2022-09-04T14:20:33+0200</time>
      </trkpt>
      <trkpt lat="44.9159" lon="6.62611">
        <ele>1363.90366</ele>
        <time>2022-09-04T14:20:36+0200</time>
      </trkpt>
      <trkpt lat="44.91595" lon="6.62612">
        <ele>1365.051177</ele>
        <time>2022-09-04T14:20:39+0200</time>
      </trkpt>
      <trkpt lat="44.91601" lon="6.6261">
        <ele>1365.351811</ele>
        <time>2022-09-04T14:20:42+0200</time>
      </trkpt>
      <trkpt lat="44.91607" lon="6.62606">
        <ele>1365.788588</ele>
        <time>2022-09-04T14:20:45+0200</time>
      </trkpt>
      <trkpt lat="44.91613" lon="6.62603">
        <ele>1366.731562</ele>
        <time>2022-09-04T14:20:48+0200</time>
      </trkpt>
      <trkpt lat="44.9162" lon="6.62602">
        <ele>1368.651793</ele>
        <time>2022-09-04T14:20:51+0200</time>
      </trkpt>
      <trkpt lat="44.91626" lon="6.62599">
        <ele>1369.442957</ele>
        <time>2022-09-04T14:20:54+0200</time>
      </trkpt>
      <trkpt lat="44.9163" lon="6.62595">
        <ele>1370.764711</ele>
        <time>2022-09-04T14:20:56+0200</time>
      </trkpt>
      <trkpt lat="44.91634" lon="6.62592">
        <ele>1370.75527</ele>
        <time>2022-09-04T14:20:58+0200</time>
      </trkpt>
      <trkpt lat="44.9164" lon="6.6259">
        <ele>1372.703372</ele>
        <time>2022-09-04T14:21:01+0200</time>
      </trkpt>
      <trkpt lat="44.91645" lon="6.62586">
        <ele>1373.461129</ele>
        <time>2022-09-04T14:21:04+0200</time>
      </trkpt>
      <trkpt lat="44.9165" lon="6.62585">
        <ele>1374.181003</ele>
        <time>2022-09-04T14:21:06+0200</time>
      </trkpt>
      <trkpt lat="44.91654" lon="6.62587">
        <ele>1374.396879</ele>
        <time>2022-09-04T14:21:08+0200</time>
      </trkpt>
      <trkpt lat="44.91657" lon="6.62595">
        <ele>1375.242953</ele>
        <time>2022-09-04T14:21:11+0200</time>
      </trkpt>
      <trkpt lat="44.91657" lon="6.62601">
        <ele>1375.885226</ele>
        <time>2022-09-04T14:21:13+0200</time>
      </trkpt>
      <trkpt lat="44.91656" lon="6.62609">
        <ele>1376.316482</ele>
        <time>2022-09-04T14:21:15+0200</time>
      </trkpt>
      <trkpt lat="44.91653" lon="6.62617">
        <ele>1376.534052</ele>
        <time>2022-09-04T14:21:18+0200</time>
      </trkpt>
      <trkpt lat="44.91652" lon="6.62625">
        <ele>1376.798554</ele>
        <time>2022-09-04T14:21:21+0200</time>
      </trkpt>
      <trkpt lat="44.91651" lon="6.62632">
        <ele>1376.581656</ele>
        <time>2022-09-04T14:21:23+0200</time>
      </trkpt>
      <trkpt lat="44.9165" lon="6.62641">
        <ele>1376.789765</ele>
        <time>2022-09-04T14:21:26+0200</time>
      </trkpt>
      <trkpt lat="44.9165" lon="6.62647">
        <ele>1376.499656</ele>
        <time>2022-09-04T14:21:28+0200</time>
      </trkpt>
      <trkpt lat="44.9165" lon="6.62654">
        <ele>1377.096373</ele>
        <time>2022-09-04T14:21:30+0200</time>
      </trkpt>
      <trkpt lat="44.9165" lon="6.62661">
        <ele>1379.3681</ele>
        <time>2022-09-04T14:21:33+0200</time>
      </trkpt>
      <trkpt lat="44.91652" lon="6.62667">
        <ele>1380.260249</ele>
        <time>2022-09-04T14:21:35+0200</time>
      </trkpt>
      <trkpt lat="44.91655" lon="6.62671">
        <ele>1381.246966</ele>
        <time>2022-09-04T14:21:38+0200</time>
      </trkpt>
      <trkpt lat="44.91661" lon="6.62668">
        <ele>1382.389641</ele>
        <time>2022-09-04T14:21:41+0200</time>
      </trkpt>
      <trkpt lat="44.91667" lon="6.62664">
        <ele>1384.018218</ele>
        <time>2022-09-04T14:21:44+0200</time>
      </trkpt>
      <trkpt lat="44.91673" lon="6.6266">
        <ele>1384.495822</ele>
        <time>2022-09-04T14:21:47+0200</time>
      </trkpt>
      <trkpt lat="44.91676" lon="6.62655">
        <ele>1384.768202</ele>
        <time>2022-09-04T14:21:49+0200</time>
      </trkpt>
      <trkpt lat="44.9168" lon="6.62651">
        <ele>1384.871257</ele>
        <time>2022-09-04T14:21:51+0200</time>
      </trkpt>
      <trkpt lat="44.91686" lon="6.62652">
        <ele>1385.005849</ele>
        <time>2022-09-04T14:21:53+0200</time>
      </trkpt>
      <trkpt lat="44.9169" lon="6.62655">
        <ele>1386.043097</ele>
        <time>2022-09-04T14:21:55+0200</time>
      </trkpt>
      <trkpt lat="44.9169" lon="6.62663">
        <ele>1387.581696</ele>
        <time>2022-09-04T14:21:57+0200</time>
      </trkpt>
      <trkpt lat="44.91691" lon="6.6267">
        <ele>1389.455271</ele>
        <time>2022-09-04T14:21:59+0200</time>
      </trkpt>
      <trkpt lat="44.91689" lon="6.62677">
        <ele>1390.040314</ele>
        <time>2022-09-04T14:22:01+0200</time>
      </trkpt>
      <trkpt lat="44.91688" lon="6.62685">
        <ele>1390.831688</ele>
        <time>2022-09-04T14:22:04+0200</time>
      </trkpt>
      <trkpt lat="44.91687" lon="6.62693">
        <ele>1391.233114</ele>
        <time>2022-09-04T14:22:07+0200</time>
      </trkpt>
      <trkpt lat="44.91687" lon="6.627">
        <ele>1391.570068</ele>
        <time>2022-09-04T14:22:09+0200</time>
      </trkpt>
      <trkpt lat="44.91689" lon="6.62706">
        <ele>1391.883194</ele>
        <time>2022-09-04T14:22:11+0200</time>
      </trkpt>
      <trkpt lat="44.91694" lon="6.62711">
        <ele>1392.490829</ele>
        <time>2022-09-04T14:22:14+0200</time>
      </trkpt>
      <trkpt lat="44.917" lon="6.62707">
        <ele>1393.362024</ele>
        <time>2022-09-04T14:22:17+0200</time>
      </trkpt>
      <trkpt lat="44.91704" lon="6.62701">
        <ele>1394.123834</ele>
        <time>2022-09-04T14:22:20+0200</time>
      </trkpt>
      <trkpt lat="44.91708" lon="6.62694">
        <ele>1394.161744</ele>
        <time>2022-09-04T14:22:23+0200</time>
      </trkpt>
      <trkpt lat="44.91712" lon="6.62691">
        <ele>1393.976693</ele>
        <time>2022-09-04T14:22:25+0200</time>
      </trkpt>
      <trkpt lat="44.91717" lon="6.62686">
        <ele>1394.581357</ele>
        <time>2022-09-04T14:22:28+0200</time>
      </trkpt>
      <trkpt lat="44.91723" lon="6.62684">
        <ele>1396.192875</ele>
        <time>2022-09-04T14:22:31+0200</time>
      </trkpt>
      <trkpt lat="44.91726" lon="6.62689">
        <ele>1397.011212</ele>
        <time>2022-09-04T14:22:33+0200</time>
      </trkpt>
      <trkpt lat="44.91727" lon="6.62697">
        <ele>1397.48487</ele>
        <time>2022-09-04T14:22:35+0200</time>
      </trkpt>
      <trkpt lat="44.91726" lon="6.62704">
        <ele>1398.268013</ele>
        <time>2022-09-04T14:22:37+0200</time>
      </trkpt>
      <trkpt lat="44.91726" lon="6.62712">
        <ele>1400.305481</ele>
        <time>2022-09-04T14:22:40+0200</time>
      </trkpt>
      <trkpt lat="44.91728" lon="6.62718">
        <ele>1402.01862</ele>
        <time>2022-09-04T14:22:42+0200</time>
      </trkpt>
      <trkpt lat="44.91728" lon="6.62727">
        <ele>1403.570735</ele>
        <time>2022-09-04T14:22:45+0200</time>
      </trkpt>
      <trkpt lat="44.91727" lon="6.62733">
        <ele>1404.967888</ele>
        <time>2022-09-04T14:22:47+0200</time>
      </trkpt>
      <trkpt lat="44.91727" lon="6.62742">
        <ele>1406.855499</ele>
        <time>2022-09-04T14:22:50+0200</time>
      </trkpt>
      <trkpt lat="44.91722" lon="6.62745">
        <ele>1408.062246</ele>
        <time>2022-09-04T14:22:53+0200</time>
      </trkpt>
      <trkpt lat="44.91718" lon="6.6275">
        <ele>1408.559097</ele>
        <time>2022-09-04T14:22:56+0200</time>
      </trkpt>
      <trkpt lat="44.91717" lon="6.62758">
        <ele>1409.284628</ele>
        <time>2022-09-04T14:22:59+0200</time>
      </trkpt>
      <trkpt lat="44.91722" lon="6.62761">
        <ele>1410.767855</ele>
        <time>2022-09-04T14:23:02+0200</time>
      </trkpt>
      <trkpt lat="44.91728" lon="6.62762">
        <ele>1412.192483</ele>
        <time>2022-09-04T14:23:06+0200</time>
      </trkpt>
      <trkpt lat="44.91734" lon="6.62761">
        <ele>1413.017519</ele>
        <time>2022-09-04T14:23:10+0200</time>
      </trkpt>
      <trkpt lat="44.91741" lon="6.6276">
        <ele>1412.582984</ele>
        <time>2022-09-04T14:23:13+0200</time>
      </trkpt>
      <trkpt lat="44.91747" lon="6.62756">
        <ele>1413.208176</ele>
        <time>2022-09-04T14:23:16+0200</time>
      </trkpt>
      <trkpt lat="44.91753" lon="6.62755">
        <ele>1413.546038</ele>
        <time>2022-09-04T14:23:18+0200</time>
      </trkpt>
      <trkpt lat="44.91757" lon="6.62745">
        <ele>1415.27802</ele>
        <time>2022-09-04T14:23:21+0200</time>
      </trkpt>
      <trkpt lat="44.91759" lon="6.62739">
        <ele>1416.324607</ele>
        <time>2022-09-04T14:23:23+0200</time>
      </trkpt>
      <trkpt lat="44.91765" lon="6.62737">
        <ele>1416.930072</ele>
        <time>2022-09-04T14:23:26+0200</time>
      </trkpt>
      <trkpt lat="44.91769" lon="6.62741">
        <ele>1416.513322</ele>
        <time>2022-09-04T14:23:28+0200</time>
      </trkpt>
      <trkpt lat="44.91767" lon="6.62751">
        <ele>1418.123626</ele>
        <time>2022-09-04T14:23:31+0200</time>
      </trkpt>
      <trkpt lat="44.91767" lon="6.62757">
        <ele>1418.602815</ele>
        <time>2022-09-04T14:23:33+0200</time>
      </trkpt>
      <trkpt lat="44.91767" lon="6.62767">
        <ele>1419.855144</ele>
        <time>2022-09-04T14:23:36+0200</time>
      </trkpt>
      <trkpt lat="44.91767" lon="6.62776">
        <ele>1419.482706</ele>
        <time>2022-09-04T14:23:39+0200</time>
      </trkpt>
      <trkpt lat="44.91766" lon="6.62782">
        <ele>1419.170379</ele>
        <time>2022-09-04T14:23:41+0200</time>
      </trkpt>
      <trkpt lat="44.91764" lon="6.62789">
        <ele>1419.41166</ele>
        <time>2022-09-04T14:23:44+0200</time>
      </trkpt>
      <trkpt lat="44.9176" lon="6.62793">
        <ele>1419.671986</ele>
        <time>2022-09-04T14:23:46+0200</time>
      </trkpt>
      <trkpt lat="44.91756" lon="6.62795">
        <ele>1419.979566</ele>
        <time>2022-09-04T14:23:48+0200</time>
      </trkpt>
      <trkpt lat="44.9175" lon="6.62799">
        <ele>1419.281058</ele>
        <time>2022-09-04T14:23:51+0200</time>
      </trkpt>
      <trkpt lat="44.91746" lon="6.62802">
        <ele>1419.264371</ele>
        <time>2022-09-04T14:23:54+0200</time>
      </trkpt>
      <trkpt lat="44.91745" lon="6.62812">
        <ele>1418.898316</ele>
        <time>2022-09-04T14:23:56+0200</time>
      </trkpt>
      <trkpt lat="44.91748" lon="6.62817">
        <ele>1420.230708</ele>
        <time>2022-09-04T14:23:59+0200</time>
      </trkpt>
      <trkpt lat="44.91754" lon="6.62815">
        <ele>1423.670007</ele>
        <time>2022-09-04T14:24:02+0200</time>
      </trkpt>
      <trkpt lat="44.91761" lon="6.62816">
        <ele>1424.48879</ele>
        <time>2022-09-04T14:24:05+0200</time>
      </trkpt>
      <trkpt lat="44.91768" lon="6.62816">
        <ele>1426.464398</ele>
        <time>2022-09-04T14:24:08+0200</time>
      </trkpt>
      <trkpt lat="44.91774" lon="6.62814">
        <ele>1427.937795</ele>
        <time>2022-09-04T14:24:11+0200</time>
      </trkpt>
      <trkpt lat="44.91778" lon="6.62808">
        <ele>1429.439525</ele>
        <time>2022-09-04T14:24:14+0200</time>
      </trkpt>
      <trkpt lat="44.91783" lon="6.62809">
        <ele>1429.709393</ele>
        <time>2022-09-04T14:24:16+0200</time>
      </trkpt>
      <trkpt lat="44.91789" lon="6.62805">
        <ele>1429.208285</ele>
        <time>2022-09-04T14:24:18+0200</time>
      </trkpt>
      <trkpt lat="44.91794" lon="6.62803">
        <ele>1428.191096</ele>
        <time>2022-09-04T14:24:20+0200</time>
      </trkpt>
      <trkpt lat="44.91799" lon="6.62799">
        <ele>1428.082222</ele>
        <time>2022-09-04T14:24:22+0200</time>
      </trkpt>
      <trkpt lat="44.91805" lon="6.62798">
        <ele>1427.685294</ele>
        <time>2022-09-04T14:24:24+0200</time>
      </trkpt>
      <trkpt lat="44.91809" lon="6.62794">
        <ele>1427.106432</ele>
        <time>2022-09-04T14:24:26+0200</time>
      </trkpt>
      <trkpt lat="44.91813" lon="6.62796">
        <ele>1427.820894</ele>
        <time>2022-09-04T14:24:28+0200</time>
      </trkpt>
      <trkpt lat="44.91814" lon="6.62804">
        <ele>1428.805913</ele>
        <time>2022-09-04T14:24:30+0200</time>
      </trkpt>
      <trkpt lat="44.91811" lon="6.62811">
        <ele>1429.2836</ele>
        <time>2022-09-04T14:24:32+0200</time>
      </trkpt>
      <trkpt lat="44.91809" lon="6.62817">
        <ele>1429.595319</ele>
        <time>2022-09-04T14:24:34+0200</time>
      </trkpt>
      <trkpt lat="44.91807" lon="6.62824">
        <ele>1430.001373</ele>
        <time>2022-09-04T14:24:36+0200</time>
      </trkpt>
      <trkpt lat="44.91805" lon="6.6283">
        <ele>1430.469071</ele>
        <time>2022-09-04T14:24:38+0200</time>
      </trkpt>
      <trkpt lat="44.91801" lon="6.62836">
        <ele>1431.792137</ele>
        <time>2022-09-04T14:24:40+0200</time>
      </trkpt>
      <trkpt lat="44.91795" lon="6.62837">
        <ele>1433.993082</ele>
        <time>2022-09-04T14:24:43+0200</time>
      </trkpt>
      <trkpt lat="44.9179" lon="6.62837">
        <ele>1435.234978</ele>
        <time>2022-09-04T14:24:46+0200</time>
      </trkpt>
      <trkpt lat="44.91785" lon="6.6284">
        <ele>1435.936414</ele>
        <time>2022-09-04T14:24:48+0200</time>
      </trkpt>
      <trkpt lat="44.91781" lon="6.62842">
        <ele>1435.852236</ele>
        <time>2022-09-04T14:24:50+0200</time>
      </trkpt>
      <trkpt lat="44.91776" lon="6.62843">
        <ele>1436.185069</ele>
        <time>2022-09-04T14:24:52+0200</time>
      </trkpt>
      <trkpt lat="44.91771" lon="6.62847">
        <ele>1436.162106</ele>
        <time>2022-09-04T14:24:54+0200</time>
      </trkpt>
      <trkpt lat="44.91767" lon="6.62848">
        <ele>1435.945796</ele>
        <time>2022-09-04T14:24:56+0200</time>
      </trkpt>
      <trkpt lat="44.9176" lon="6.62847">
        <ele>1435.370092</ele>
        <time>2022-09-04T14:24:58+0200</time>
      </trkpt>
      <trkpt lat="44.91753" lon="6.62847">
        <ele>1435.939023</ele>
        <time>2022-09-04T14:25:01+0200</time>
      </trkpt>
      <trkpt lat="44.91748" lon="6.62847">
        <ele>1436.395377</ele>
        <time>2022-09-04T14:25:03+0200</time>
      </trkpt>
      <trkpt lat="44.91743" lon="6.62847">
        <ele>1435.922847</ele>
        <time>2022-09-04T14:25:05+0200</time>
      </trkpt>
      <trkpt lat="44.91738" lon="6.62846">
        <ele>1436.34071</ele>
        <time>2022-09-04T14:25:07+0200</time>
      </trkpt>
      <trkpt lat="44.91732" lon="6.62844">
        <ele>1436.05165</ele>
        <time>2022-09-04T14:25:09+0200</time>
      </trkpt>
      <trkpt lat="44.91725" lon="6.62843">
        <ele>1436.755893</ele>
        <time>2022-09-04T14:25:12+0200</time>
      </trkpt>
      <trkpt lat="44.9172" lon="6.62841">
        <ele>1436.7387</ele>
        <time>2022-09-04T14:25:14+0200</time>
      </trkpt>
      <trkpt lat="44.91714" lon="6.62838">
        <ele>1436.099598</ele>
        <time>2022-09-04T14:25:16+0200</time>
      </trkpt>
      <trkpt lat="44.91709" lon="6.62838">
        <ele>1435.198943</ele>
        <time>2022-09-04T14:25:18+0200</time>
      </trkpt>
      <trkpt lat="44.91703" lon="6.62838">
        <ele>1433.833019</ele>
        <time>2022-09-04T14:25:20+0200</time>
      </trkpt>
      <trkpt lat="44.91697" lon="6.62839">
        <ele>1432.870923</ele>
        <time>2022-09-04T14:25:22+0200</time>
      </trkpt>
      <trkpt lat="44.91692" lon="6.62842">
        <ele>1431.899817</ele>
        <time>2022-09-04T14:25:24+0200</time>
      </trkpt>
      <trkpt lat="44.91686" lon="6.62843">
        <ele>1431.227731</ele>
        <time>2022-09-04T14:25:26+0200</time>
      </trkpt>
      <trkpt lat="44.91683" lon="6.62849">
        <ele>1431.507538</ele>
        <time>2022-09-04T14:25:28+0200</time>
      </trkpt>
      <trkpt lat="44.91678" lon="6.62855">
        <ele>1433.215285</ele>
        <time>2022-09-04T14:25:31+0200</time>
      </trkpt>
      <trkpt lat="44.91675" lon="6.62861">
        <ele>1433.997355</ele>
        <time>2022-09-04T14:25:33+0200</time>
      </trkpt>
      <trkpt lat="44.9167" lon="6.62868">
        <ele>1435.484348</ele>
        <time>2022-09-04T14:25:36+0200</time>
      </trkpt>
      <trkpt lat="44.91666" lon="6.62873">
        <ele>1436.589277</ele>
        <time>2022-09-04T14:25:38+0200</time>
      </trkpt>
      <trkpt lat="44.91662" lon="6.6288">
        <ele>1438.117061</ele>
        <time>2022-09-04T14:25:40+0200</time>
      </trkpt>
      <trkpt lat="44.91659" lon="6.62885">
        <ele>1440.256112</ele>
        <time>2022-09-04T14:25:42+0200</time>
      </trkpt>
      <trkpt lat="44.91654" lon="6.62889">
        <ele>1443.620115</ele>
        <time>2022-09-04T14:25:45+0200</time>
      </trkpt>
      <trkpt lat="44.91651" lon="6.62896">
        <ele>1445.861776</ele>
        <time>2022-09-04T14:25:48+0200</time>
      </trkpt>
      <trkpt lat="44.91648" lon="6.62902">
        <ele>1447.789968</ele>
        <time>2022-09-04T14:25:50+0200</time>
      </trkpt>
      <trkpt lat="44.91647" lon="6.6291">
        <ele>1449.305642</ele>
        <time>2022-09-04T14:25:52+0200</time>
      </trkpt>
      <trkpt lat="44.91646" lon="6.62921">
        <ele>1451.40971</ele>
        <time>2022-09-04T14:25:55+0200</time>
      </trkpt>
      <trkpt lat="44.91645" lon="6.62928">
        <ele>1452.828266</ele>
        <time>2022-09-04T14:25:57+0200</time>
      </trkpt>
      <trkpt lat="44.91644" lon="6.62936">
        <ele>1454.167805</ele>
        <time>2022-09-04T14:25:59+0200</time>
      </trkpt>
      <trkpt lat="44.91642" lon="6.62943">
        <ele>1455.366757</ele>
        <time>2022-09-04T14:26:01+0200</time>
      </trkpt>
      <trkpt lat="44.91639" lon="6.62952">
        <ele>1458.065412</ele>
        <time>2022-09-04T14:26:04+0200</time>
      </trkpt>
      <trkpt lat="44.91636" lon="6.62957">
        <ele>1459.13406</ele>
        <time>2022-09-04T14:26:06+0200</time>
      </trkpt>
      <trkpt lat="44.91632" lon="6.62962">
        <ele>1460.159232</ele>
        <time>2022-09-04T14:26:08+0200</time>
      </trkpt>
      <trkpt lat="44.91627" lon="6.62964">
        <ele>1460.204693</ele>
        <time>2022-09-04T14:26:10+0200</time>
      </trkpt>
      <trkpt lat="44.91623" lon="6.6297">
        <ele>1460.298465</ele>
        <time>2022-09-04T14:26:12+0200</time>
      </trkpt>
      <trkpt lat="44.91619" lon="6.62973">
        <ele>1460.575676</ele>
        <time>2022-09-04T14:26:15+0200</time>
      </trkpt>
      <trkpt lat="44.91614" lon="6.62979">
        <ele>1460.384282</ele>
        <time>2022-09-04T14:26:17+0200</time>
      </trkpt>
      <trkpt lat="44.91609" lon="6.62981">
        <ele>1459.954706</ele>
        <time>2022-09-04T14:26:18+0200</time>
      </trkpt>
      <trkpt lat="44.91601" lon="6.62987">
        <ele>1459.330189</ele>
        <time>2022-09-04T14:26:20+0200</time>
      </trkpt>
      <trkpt lat="44.91596" lon="6.62989">
        <ele>1459.055628</ele>
        <time>2022-09-04T14:26:21+0200</time>
      </trkpt>
      <trkpt lat="44.91587" lon="6.62993">
        <ele>1458.063066</ele>
        <time>2022-09-04T14:26:23+0200</time>
      </trkpt>
      <trkpt lat="44.9158" lon="6.62994">
        <ele>1456.738753</ele>
        <time>2022-09-04T14:26:24+0200</time>
      </trkpt>
      <trkpt lat="44.91574" lon="6.62992">
        <ele>1455.919247</ele>
        <time>2022-09-04T14:26:25+0200</time>
      </trkpt>
      <trkpt lat="44.91568" lon="6.62987">
        <ele>1454.759474</ele>
        <time>2022-09-04T14:26:26+0200</time>
      </trkpt>
      <trkpt lat="44.91563" lon="6.62981">
        <ele>1453.348716</ele>
        <time>2022-09-04T14:26:27+0200</time>
      </trkpt>
      <trkpt lat="44.91557" lon="6.6298">
        <ele>1451.164258</ele>
        <time>2022-09-04T14:26:28+0200</time>
      </trkpt>
      <trkpt lat="44.91551" lon="6.62981">
        <ele>1449.401309</ele>
        <time>2022-09-04T14:26:29+0200</time>
      </trkpt>
      <trkpt lat="44.91547" lon="6.62986">
        <ele>1447.658275</ele>
        <time>2022-09-04T14:26:30+0200</time>
      </trkpt>
      <trkpt lat="44.91543" lon="6.62993">
        <ele>1446.244611</ele>
        <time>2022-09-04T14:26:31+0200</time>
      </trkpt>
      <trkpt lat="44.9154" lon="6.63001">
        <ele>1445.793079</ele>
        <time>2022-09-04T14:26:32+0200</time>
      </trkpt>
      <trkpt lat="44.91536" lon="6.63007">
        <ele>1445.747486</ele>
        <time>2022-09-04T14:26:33+0200</time>
      </trkpt>
      <trkpt lat="44.91533" lon="6.63013">
        <ele>1445.953349</ele>
        <time>2022-09-04T14:26:34+0200</time>
      </trkpt>
      <trkpt lat="44.91529" lon="6.63019">
        <ele>1446.724517</ele>
        <time>2022-09-04T14:26:35+0200</time>
      </trkpt>
      <trkpt lat="44.91523" lon="6.63024">
        <ele>1447.729704</ele>
        <time>2022-09-04T14:26:36+0200</time>
      </trkpt>
      <trkpt lat="44.91517" lon="6.63029">
        <ele>1448.989796</ele>
        <time>2022-09-04T14:26:37+0200</time>
      </trkpt>
      <trkpt lat="44.91511" lon="6.63033">
        <ele>1450.007942</ele>
        <time>2022-09-04T14:26:38+0200</time>
      </trkpt>
      <trkpt lat="44.91505" lon="6.63035">
        <ele>1450.874759</ele>
        <time>2022-09-04T14:26:39+0200</time>
      </trkpt>
      <trkpt lat="44.91498" lon="6.63034">
        <ele>1451.803009</ele>
        <time>2022-09-04T14:26:40+0200</time>
      </trkpt>
      <trkpt lat="44.91489" lon="6.63028">
        <ele>1452.448412</ele>
        <time>2022-09-04T14:26:41+0200</time>
      </trkpt>
      <trkpt lat="44.91483" lon="6.63022">
        <ele>1452.916668</ele>
        <time>2022-09-04T14:26:42+0200</time>
      </trkpt>
      <trkpt lat="44.91477" lon="6.63016">
        <ele>1453.107651</ele>
        <time>2022-09-04T14:26:43+0200</time>
      </trkpt>
      <trkpt lat="44.91471" lon="6.63011">
        <ele>1452.881031</ele>
        <time>2022-09-04T14:26:44+0200</time>
      </trkpt>
      <trkpt lat="44.91463" lon="6.63006">
        <ele>1452.044384</ele>
        <time>2022-09-04T14:26:45+0200</time>
      </trkpt>
      <trkpt lat="44.91457" lon="6.63003">
        <ele>1451.006534</ele>
        <time>2022-09-04T14:26:46+0200</time>
      </trkpt>
      <trkpt lat="44.91448" lon="6.63">
        <ele>1449.836124</ele>
        <time>2022-09-04T14:26:47+0200</time>
      </trkpt>
      <trkpt lat="44.91441" lon="6.63">
        <ele>1448.349819</ele>
        <time>2022-09-04T14:26:48+0200</time>
      </trkpt>
      <trkpt lat="44.91433" lon="6.63003">
        <ele>1447.220591</ele>
        <time>2022-09-04T14:26:49+0200</time>
      </trkpt>
      <trkpt lat="44.91426" lon="6.63007">
        <ele>1446.194402</ele>
        <time>2022-09-04T14:26:50+0200</time>
      </trkpt>
      <trkpt lat="44.91419" lon="6.63013">
        <ele>1445.735236</ele>
        <time>2022-09-04T14:26:51+0200</time>
      </trkpt>
      <trkpt lat="44.91413" lon="6.63018">
        <ele>1444.936306</ele>
        <time>2022-09-04T14:26:52+0200</time>
      </trkpt>
      <trkpt lat="44.91406" lon="6.63021">
        <ele>1444.831125</ele>
        <time>2022-09-04T14:26:53+0200</time>
      </trkpt>
      <trkpt lat="44.91401" lon="6.63025">
        <ele>1444.84064</ele>
        <time>2022-09-04T14:26:54+0200</time>
      </trkpt>
      <trkpt lat="44.91395" lon="6.6303">
        <ele>1445.066417</ele>
        <time>2022-09-04T14:26:55+0200</time>
      </trkpt>
      <trkpt lat="44.91389" lon="6.63034">
        <ele>1445.04867</ele>
        <time>2022-09-04T14:26:56+0200</time>
      </trkpt>
      <trkpt lat="44.91386" lon="6.63042">
        <ele>1444.654254</ele>
        <time>2022-09-04T14:26:57+0200</time>
      </trkpt>
      <trkpt lat="44.91386" lon="6.6305">
        <ele>1444.106102</ele>
        <time>2022-09-04T14:26:58+0200</time>
      </trkpt>
      <trkpt lat="44.91387" lon="6.63058">
        <ele>1443.77251</ele>
        <time>2022-09-04T14:26:59+0200</time>
      </trkpt>
      <trkpt lat="44.9139" lon="6.63067">
        <ele>1443.413531</ele>
        <time>2022-09-04T14:27:00+0200</time>
      </trkpt>
      <trkpt lat="44.91392" lon="6.63077">
        <ele>1443.829069</ele>
        <time>2022-09-04T14:27:01+0200</time>
      </trkpt>
      <trkpt lat="44.91394" lon="6.63087">
        <ele>1445.05162</ele>
        <time>2022-09-04T14:27:02+0200</time>
      </trkpt>
      <trkpt lat="44.91391" lon="6.63097">
        <ele>1446.655573</ele>
        <time>2022-09-04T14:27:03+0200</time>
      </trkpt>
      <trkpt lat="44.91387" lon="6.63105">
        <ele>1447.574884</ele>
        <time>2022-09-04T14:27:04+0200</time>
      </trkpt>
      <trkpt lat="44.91382" lon="6.63112">
        <ele>1448.110937</ele>
        <time>2022-09-04T14:27:05+0200</time>
      </trkpt>
      <trkpt lat="44.91374" lon="6.63115">
        <ele>1448.199818</ele>
        <time>2022-09-04T14:27:06+0200</time>
      </trkpt>
      <trkpt lat="44.91367" lon="6.63118">
        <ele>1447.546484</ele>
        <time>2022-09-04T14:27:07+0200</time>
      </trkpt>
      <trkpt lat="44.9136" lon="6.63123">
        <ele>1446.433751</ele>
        <time>2022-09-04T14:27:08+0200</time>
      </trkpt>
      <trkpt lat="44.91354" lon="6.6313">
        <ele>1445.203777</ele>
        <time>2022-09-04T14:27:09+0200</time>
      </trkpt>
      <trkpt lat="44.91349" lon="6.63138">
        <ele>1444.339919</ele>
        <time>2022-09-04T14:27:10+0200</time>
      </trkpt>
      <trkpt lat="44.91343" lon="6.63146">
        <ele>1443.390889</ele>
        <time>2022-09-04T14:27:11+0200</time>
      </trkpt>
      <trkpt lat="44.91337" lon="6.63154">
        <ele>1442.795103</ele>
        <time>2022-09-04T14:27:12+0200</time>
      </trkpt>
      <trkpt lat="44.91332" lon="6.63161">
        <ele>1442.325276</ele>
        <time>2022-09-04T14:27:13+0200</time>
      </trkpt>
      <trkpt lat="44.91326" lon="6.63168">
        <ele>1442.640109</ele>
        <time>2022-09-04T14:27:14+0200</time>
      </trkpt>
      <trkpt lat="44.91319" lon="6.63175">
        <ele>1441.891892</ele>
        <time>2022-09-04T14:27:15+0200</time>
      </trkpt>
      <trkpt lat="44.91313" lon="6.63183">
        <ele>1441.237004</ele>
        <time>2022-09-04T14:27:16+0200</time>
      </trkpt>
      <trkpt lat="44.91306" lon="6.6319">
        <ele>1441.203996</ele>
        <time>2022-09-04T14:27:17+0200</time>
      </trkpt>
      <trkpt lat="44.91299" lon="6.63196">
        <ele>1441.088408</ele>
        <time>2022-09-04T14:27:18+0200</time>
      </trkpt>
      <trkpt lat="44.91292" lon="6.63198">
        <ele>1441.288269</ele>
        <time>2022-09-04T14:27:19+0200</time>
      </trkpt>
      <trkpt lat="44.91283" lon="6.63199">
        <ele>1441.252404</ele>
        <time>2022-09-04T14:27:20+0200</time>
      </trkpt>
      <trkpt lat="44.91276" lon="6.63198">
        <ele>1440.748472</ele>
        <time>2022-09-04T14:27:21+0200</time>
      </trkpt>
      <trkpt lat="44.91269" lon="6.63197">
        <ele>1440.062924</ele>
        <time>2022-09-04T14:27:22+0200</time>
      </trkpt>
      <trkpt lat="44.91261" lon="6.63198">
        <ele>1439.146914</ele>
        <time>2022-09-04T14:27:23+0200</time>
      </trkpt>
      <trkpt lat="44.91252" lon="6.63197">
        <ele>1437.883633</ele>
        <time>2022-09-04T14:27:24+0200</time>
      </trkpt>
      <trkpt lat="44.91243" lon="6.63199">
        <ele>1436.235427</ele>
        <time>2022-09-04T14:27:25+0200</time>
      </trkpt>
      <trkpt lat="44.91236" lon="6.63202">
        <ele>1434.9075</ele>
        <time>2022-09-04T14:27:26+0200</time>
      </trkpt>
      <trkpt lat="44.91231" lon="6.6321">
        <ele>1433.6384</ele>
        <time>2022-09-04T14:27:27+0200</time>
      </trkpt>
      <trkpt lat="44.91227" lon="6.63221">
        <ele>1432.611601</ele>
        <time>2022-09-04T14:27:28+0200</time>
      </trkpt>
      <trkpt lat="44.91224" lon="6.6323">
        <ele>1432.417107</ele>
        <time>2022-09-04T14:27:29+0200</time>
      </trkpt>
      <trkpt lat="44.91221" lon="6.6324">
        <ele>1432.616339</ele>
        <time>2022-09-04T14:27:30+0200</time>
      </trkpt>
      <trkpt lat="44.91215" lon="6.63247">
        <ele>1433.110666</ele>
        <time>2022-09-04T14:27:31+0200</time>
      </trkpt>
      <trkpt lat="44.91209" lon="6.63254">
        <ele>1433.514808</ele>
        <time>2022-09-04T14:27:32+0200</time>
      </trkpt>
      <trkpt lat="44.91203" lon="6.6326">
        <ele>1434.420412</ele>
        <time>2022-09-04T14:27:33+0200</time>
      </trkpt>
      <trkpt lat="44.91196" lon="6.63262">
        <ele>1435.007642</ele>
        <time>2022-09-04T14:27:34+0200</time>
      </trkpt>
      <trkpt lat="44.91188" lon="6.63261">
        <ele>1435.545935</ele>
        <time>2022-09-04T14:27:35+0200</time>
      </trkpt>
      <trkpt lat="44.9118" lon="6.63258">
        <ele>1435.383694</ele>
        <time>2022-09-04T14:27:36+0200</time>
      </trkpt>
      <trkpt lat="44.91172" lon="6.63257">
        <ele>1434.934977</ele>
        <time>2022-09-04T14:27:37+0200</time>
      </trkpt>
      <trkpt lat="44.91164" lon="6.6326">
        <ele>1433.836671</ele>
        <time>2022-09-04T14:27:38+0200</time>
      </trkpt>
      <trkpt lat="44.91157" lon="6.63265">
        <ele>1433.256303</ele>
        <time>2022-09-04T14:27:39+0200</time>
      </trkpt>
      <trkpt lat="44.9115" lon="6.63275">
        <ele>1432.174977</ele>
        <time>2022-09-04T14:27:40+0200</time>
      </trkpt>
      <trkpt lat="44.91143" lon="6.63282">
        <ele>1431.357111</ele>
        <time>2022-09-04T14:27:41+0200</time>
      </trkpt>
      <trkpt lat="44.91135" lon="6.63287">
        <ele>1430.766809</ele>
        <time>2022-09-04T14:27:42+0200</time>
      </trkpt>
      <trkpt lat="44.91128" lon="6.63291">
        <ele>1430.63472</ele>
        <time>2022-09-04T14:27:43+0200</time>
      </trkpt>
      <trkpt lat="44.91121" lon="6.63296">
        <ele>1430.164963</ele>
        <time>2022-09-04T14:27:44+0200</time>
      </trkpt>
      <trkpt lat="44.91113" lon="6.63301">
        <ele>1429.818262</ele>
        <time>2022-09-04T14:27:45+0200</time>
      </trkpt>
      <trkpt lat="44.91105" lon="6.63303">
        <ele>1429.589988</ele>
        <time>2022-09-04T14:27:46+0200</time>
      </trkpt>
      <trkpt lat="44.91096" lon="6.63305">
        <ele>1429.450019</ele>
        <time>2022-09-04T14:27:47+0200</time>
      </trkpt>
      <trkpt lat="44.91088" lon="6.6331">
        <ele>1428.965109</ele>
        <time>2022-09-04T14:27:48+0200</time>
      </trkpt>
      <trkpt lat="44.9108" lon="6.63316">
        <ele>1428.152516</ele>
        <time>2022-09-04T14:27:49+0200</time>
      </trkpt>
      <trkpt lat="44.91073" lon="6.63321">
        <ele>1427.840679</ele>
        <time>2022-09-04T14:27:50+0200</time>
      </trkpt>
      <trkpt lat="44.91066" lon="6.63327">
        <ele>1427.379737</ele>
        <time>2022-09-04T14:27:51+0200</time>
      </trkpt>
      <trkpt lat="44.91057" lon="6.63332">
        <ele>1427.098035</ele>
        <time>2022-09-04T14:27:52+0200</time>
      </trkpt>
      <trkpt lat="44.91048" lon="6.63337">
        <ele>1426.798555</ele>
        <time>2022-09-04T14:27:53+0200</time>
      </trkpt>
      <trkpt lat="44.9104" lon="6.63341">
        <ele>1426.428199</ele>
        <time>2022-09-04T14:27:54+0200</time>
      </trkpt>
      <trkpt lat="44.91033" lon="6.63348">
        <ele>1426.128526</ele>
        <time>2022-09-04T14:27:55+0200</time>
      </trkpt>
      <trkpt lat="44.91026" lon="6.63356">
        <ele>1425.563965</ele>
        <time>2022-09-04T14:27:56+0200</time>
      </trkpt>
      <trkpt lat="44.9102" lon="6.63364">
        <ele>1425.059134</ele>
        <time>2022-09-04T14:27:57+0200</time>
      </trkpt>
      <trkpt lat="44.91012" lon="6.63371">
        <ele>1424.448597</ele>
        <time>2022-09-04T14:27:58+0200</time>
      </trkpt>
      <trkpt lat="44.91004" lon="6.63377">
        <ele>1424.135513</ele>
        <time>2022-09-04T14:27:59+0200</time>
      </trkpt>
      <trkpt lat="44.90996" lon="6.63384">
        <ele>1423.737877</ele>
        <time>2022-09-04T14:28:00+0200</time>
      </trkpt>
      <trkpt lat="44.9099" lon="6.63391">
        <ele>1423.993722</ele>
        <time>2022-09-04T14:28:01+0200</time>
      </trkpt>
      <trkpt lat="44.90982" lon="6.63398">
        <ele>1423.354368</ele>
        <time>2022-09-04T14:28:02+0200</time>
      </trkpt>
      <trkpt lat="44.90974" lon="6.63405">
        <ele>1422.918612</ele>
        <time>2022-09-04T14:28:03+0200</time>
      </trkpt>
      <trkpt lat="44.90966" lon="6.63411">
        <ele>1423.187972</ele>
        <time>2022-09-04T14:28:04+0200</time>
      </trkpt>
      <trkpt lat="44.90959" lon="6.63418">
        <ele>1423.221747</ele>
        <time>2022-09-04T14:28:05+0200</time>
      </trkpt>
      <trkpt lat="44.90952" lon="6.63426">
        <ele>1423.042196</ele>
        <time>2022-09-04T14:28:06+0200</time>
      </trkpt>
      <trkpt lat="44.90945" lon="6.63432">
        <ele>1422.917326</ele>
        <time>2022-09-04T14:28:07+0200</time>
      </trkpt>
      <trkpt lat="44.90938" lon="6.63439">
        <ele>1422.216687</ele>
        <time>2022-09-04T14:28:08+0200</time>
      </trkpt>
      <trkpt lat="44.90933" lon="6.63449">
        <ele>1421.094695</ele>
        <time>2022-09-04T14:28:09+0200</time>
      </trkpt>
      <trkpt lat="44.90929" lon="6.6346">
        <ele>1420.124189</ele>
        <time>2022-09-04T14:28:10+0200</time>
      </trkpt>
      <trkpt lat="44.90927" lon="6.63472">
        <ele>1419.500199</ele>
        <time>2022-09-04T14:28:11+0200</time>
      </trkpt>
      <trkpt lat="44.90925" lon="6.63484">
        <ele>1418.996342</ele>
        <time>2022-09-04T14:28:12+0200</time>
      </trkpt>
      <trkpt lat="44.90922" lon="6.63496">
        <ele>1419.161281</ele>
        <time>2022-09-04T14:28:13+0200</time>
      </trkpt>
      <trkpt lat="44.90918" lon="6.63507">
        <ele>1419.86626</ele>
        <time>2022-09-04T14:28:14+0200</time>
      </trkpt>
      <trkpt lat="44.90914" lon="6.63517">
        <ele>1420.070375</ele>
        <time>2022-09-04T14:28:15+0200</time>
      </trkpt>
      <trkpt lat="44.90908" lon="6.63525">
        <ele>1419.74826</ele>
        <time>2022-09-04T14:28:16+0200</time>
      </trkpt>
      <trkpt lat="44.90899" lon="6.63531">
        <ele>1419.408718</ele>
        <time>2022-09-04T14:28:17+0200</time>
      </trkpt>
      <trkpt lat="44.90891" lon="6.63535">
        <ele>1419.041962</ele>
        <time>2022-09-04T14:28:18+0200</time>
      </trkpt>
      <trkpt lat="44.90883" lon="6.63539">
        <ele>1418.776409</ele>
        <time>2022-09-04T14:28:19+0200</time>
      </trkpt>
      <trkpt lat="44.90876" lon="6.63545">
        <ele>1417.901849</ele>
        <time>2022-09-04T14:28:20+0200</time>
      </trkpt>
      <trkpt lat="44.90868" lon="6.63552">
        <ele>1417.206512</ele>
        <time>2022-09-04T14:28:21+0200</time>
      </trkpt>
      <trkpt lat="44.90861" lon="6.63557">
        <ele>1416.843944</ele>
        <time>2022-09-04T14:28:22+0200</time>
      </trkpt>
      <trkpt lat="44.90853" lon="6.63562">
        <ele>1416.411879</ele>
        <time>2022-09-04T14:28:23+0200</time>
      </trkpt>
      <trkpt lat="44.90845" lon="6.63565">
        <ele>1415.772074</ele>
        <time>2022-09-04T14:28:24+0200</time>
      </trkpt>
      <trkpt lat="44.90836" lon="6.63568">
        <ele>1414.679233</ele>
        <time>2022-09-04T14:28:25+0200</time>
      </trkpt>
      <trkpt lat="44.90827" lon="6.6357">
        <ele>1413.819844</ele>
        <time>2022-09-04T14:28:26+0200</time>
      </trkpt>
      <trkpt lat="44.90818" lon="6.63572">
        <ele>1412.481117</ele>
        <time>2022-09-04T14:28:27+0200</time>
      </trkpt>
      <trkpt lat="44.9081" lon="6.63576">
        <ele>1411.903902</ele>
        <time>2022-09-04T14:28:28+0200</time>
      </trkpt>
      <trkpt lat="44.90803" lon="6.63582">
        <ele>1411.457911</ele>
        <time>2022-09-04T14:28:29+0200</time>
      </trkpt>
      <trkpt lat="44.90797" lon="6.6359">
        <ele>1411.992813</ele>
        <time>2022-09-04T14:28:30+0200</time>
      </trkpt>
      <trkpt lat="44.90791" lon="6.63597">
        <ele>1412.337684</ele>
        <time>2022-09-04T14:28:31+0200</time>
      </trkpt>
      <trkpt lat="44.90784" lon="6.63604">
        <ele>1412.471951</ele>
        <time>2022-09-04T14:28:32+0200</time>
      </trkpt>
      <trkpt lat="44.90774" lon="6.63605">
        <ele>1412.52697</ele>
        <time>2022-09-04T14:28:33+0200</time>
      </trkpt>
      <trkpt lat="44.90766" lon="6.63608">
        <ele>1412.514352</ele>
        <time>2022-09-04T14:28:34+0200</time>
      </trkpt>
      <trkpt lat="44.90758" lon="6.63613">
        <ele>1412.025772</ele>
        <time>2022-09-04T14:28:35+0200</time>
      </trkpt>
      <trkpt lat="44.90751" lon="6.6362">
        <ele>1411.763479</ele>
        <time>2022-09-04T14:28:36+0200</time>
      </trkpt>
      <trkpt lat="44.90745" lon="6.63628">
        <ele>1411.330375</ele>
        <time>2022-09-04T14:28:37+0200</time>
      </trkpt>
      <trkpt lat="44.90738" lon="6.63633">
        <ele>1410.883159</ele>
        <time>2022-09-04T14:28:38+0200</time>
      </trkpt>
      <trkpt lat="44.90732" lon="6.63636">
        <ele>1410.868143</ele>
        <time>2022-09-04T14:28:39+0200</time>
      </trkpt>
      <trkpt lat="44.90724" lon="6.63638">
        <ele>1410.877012</ele>
        <time>2022-09-04T14:28:40+0200</time>
      </trkpt>
      <trkpt lat="44.90718" lon="6.63638">
        <ele>1410.433576</ele>
        <time>2022-09-04T14:28:41+0200</time>
      </trkpt>
      <trkpt lat="44.9071" lon="6.63643">
        <ele>1408.532682</ele>
        <time>2022-09-04T14:28:42+0200</time>
      </trkpt>
      <trkpt lat="44.90704" lon="6.63651">
        <ele>1407.180021</ele>
        <time>2022-09-04T14:28:43+0200</time>
      </trkpt>
      <trkpt lat="44.90699" lon="6.63659">
        <ele>1406.789373</ele>
        <time>2022-09-04T14:28:44+0200</time>
      </trkpt>
      <trkpt lat="44.90694" lon="6.63668">
        <ele>1405.601169</ele>
        <time>2022-09-04T14:28:45+0200</time>
      </trkpt>
      <trkpt lat="44.9069" lon="6.63678">
        <ele>1405.011443</ele>
        <time>2022-09-04T14:28:46+0200</time>
      </trkpt>
      <trkpt lat="44.90684" lon="6.63686">
        <ele>1404.517898</ele>
        <time>2022-09-04T14:28:47+0200</time>
      </trkpt>
      <trkpt lat="44.90678" lon="6.63694">
        <ele>1404.303444</ele>
        <time>2022-09-04T14:28:48+0200</time>
      </trkpt>
      <trkpt lat="44.90671" lon="6.63701">
        <ele>1404.05072</ele>
        <time>2022-09-04T14:28:49+0200</time>
      </trkpt>
      <trkpt lat="44.90663" lon="6.63708">
        <ele>1403.640514</ele>
        <time>2022-09-04T14:28:50+0200</time>
      </trkpt>
      <trkpt lat="44.90657" lon="6.63716">
        <ele>1403.222689</ele>
        <time>2022-09-04T14:28:51+0200</time>
      </trkpt>
      <trkpt lat="44.90651" lon="6.63726">
        <ele>1402.626201</ele>
        <time>2022-09-04T14:28:52+0200</time>
      </trkpt>
      <trkpt lat="44.90646" lon="6.63734">
        <ele>1402.077575</ele>
        <time>2022-09-04T14:28:53+0200</time>
      </trkpt>
      <trkpt lat="44.9064" lon="6.63742">
        <ele>1401.880597</ele>
        <time>2022-09-04T14:28:54+0200</time>
      </trkpt>
      <trkpt lat="44.90634" lon="6.63751">
        <ele>1401.438227</ele>
        <time>2022-09-04T14:28:55+0200</time>
      </trkpt>
      <trkpt lat="44.90627" lon="6.63757">
        <ele>1401.289636</ele>
        <time>2022-09-04T14:28:56+0200</time>
      </trkpt>
      <trkpt lat="44.9062" lon="6.63765">
        <ele>1401.201032</ele>
        <time>2022-09-04T14:28:57+0200</time>
      </trkpt>
      <trkpt lat="44.90614" lon="6.63773">
        <ele>1400.671816</ele>
        <time>2022-09-04T14:28:58+0200</time>
      </trkpt>
      <trkpt lat="44.90609" lon="6.63782">
        <ele>1400.771279</ele>
        <time>2022-09-04T14:28:59+0200</time>
      </trkpt>
      <trkpt lat="44.90604" lon="6.6379">
        <ele>1401.03828</ele>
        <time>2022-09-04T14:29:00+0200</time>
      </trkpt>
      <trkpt lat="44.90599" lon="6.63799">
        <ele>1401.752933</ele>
        <time>2022-09-04T14:29:01+0200</time>
      </trkpt>
      <trkpt lat="44.90593" lon="6.63805">
        <ele>1402.675967</ele>
        <time>2022-09-04T14:29:02+0200</time>
      </trkpt>
      <trkpt lat="44.90586" lon="6.63809">
        <ele>1403.456548</ele>
        <time>2022-09-04T14:29:03+0200</time>
      </trkpt>
      <trkpt lat="44.90579" lon="6.6381">
        <ele>1403.51797</ele>
        <time>2022-09-04T14:29:04+0200</time>
      </trkpt>
      <trkpt lat="44.90571" lon="6.63807">
        <ele>1403.441473</ele>
        <time>2022-09-04T14:29:05+0200</time>
      </trkpt>
      <trkpt lat="44.90565" lon="6.63806">
        <ele>1402.839135</ele>
        <time>2022-09-04T14:29:06+0200</time>
      </trkpt>
      <trkpt lat="44.90557" lon="6.63803">
        <ele>1401.914893</ele>
        <time>2022-09-04T14:29:07+0200</time>
      </trkpt>
      <trkpt lat="44.9055" lon="6.63801">
        <ele>1400.378996</ele>
        <time>2022-09-04T14:29:08+0200</time>
      </trkpt>
      <trkpt lat="44.90543" lon="6.63799">
        <ele>1398.945799</ele>
        <time>2022-09-04T14:29:09+0200</time>
      </trkpt>
      <trkpt lat="44.90537" lon="6.638">
        <ele>1396.708832</ele>
        <time>2022-09-04T14:29:10+0200</time>
      </trkpt>
      <trkpt lat="44.90531" lon="6.63802">
        <ele>1394.883884</ele>
        <time>2022-09-04T14:29:11+0200</time>
      </trkpt>
      <trkpt lat="44.90527" lon="6.63815">
        <ele>1392.383676</ele>
        <time>2022-09-04T14:29:13+0200</time>
      </trkpt>
      <trkpt lat="44.90528" lon="6.63824">
        <ele>1391.642482</ele>
        <time>2022-09-04T14:29:14+0200</time>
      </trkpt>
      <trkpt lat="44.9053" lon="6.63832">
        <ele>1391.723761</ele>
        <time>2022-09-04T14:29:15+0200</time>
      </trkpt>
      <trkpt lat="44.90531" lon="6.63841">
        <ele>1392.380136</ele>
        <time>2022-09-04T14:29:16+0200</time>
      </trkpt>
      <trkpt lat="44.9053" lon="6.63849">
        <ele>1392.9736</ele>
        <time>2022-09-04T14:29:17+0200</time>
      </trkpt>
      <trkpt lat="44.90527" lon="6.63858">
        <ele>1393.587887</ele>
        <time>2022-09-04T14:29:18+0200</time>
      </trkpt>
      <trkpt lat="44.90526" lon="6.63866">
        <ele>1393.890854</ele>
        <time>2022-09-04T14:29:19+0200</time>
      </trkpt>
      <trkpt lat="44.90523" lon="6.63874">
        <ele>1394.431966</ele>
        <time>2022-09-04T14:29:20+0200</time>
      </trkpt>
      <trkpt lat="44.90519" lon="6.63882">
        <ele>1395.131657</ele>
        <time>2022-09-04T14:29:21+0200</time>
      </trkpt>
      <trkpt lat="44.90517" lon="6.63891">
        <ele>1395.753398</ele>
        <time>2022-09-04T14:29:22+0200</time>
      </trkpt>
      <trkpt lat="44.90515" lon="6.63898">
        <ele>1396.287176</ele>
        <time>2022-09-04T14:29:23+0200</time>
      </trkpt>
      <trkpt lat="44.90512" lon="6.63906">
        <ele>1396.469894</ele>
        <time>2022-09-04T14:29:24+0200</time>
      </trkpt>
      <trkpt lat="44.90508" lon="6.63913">
        <ele>1396.38526</ele>
        <time>2022-09-04T14:29:25+0200</time>
      </trkpt>
      <trkpt lat="44.90505" lon="6.63922">
        <ele>1396.807476</ele>
        <time>2022-09-04T14:29:26+0200</time>
      </trkpt>
      <trkpt lat="44.90504" lon="6.63929">
        <ele>1397.453637</ele>
        <time>2022-09-04T14:29:27+0200</time>
      </trkpt>
      <trkpt lat="44.90501" lon="6.63938">
        <ele>1397.761526</ele>
        <time>2022-09-04T14:29:28+0200</time>
      </trkpt>
      <trkpt lat="44.90499" lon="6.63947">
        <ele>1397.74119</ele>
        <time>2022-09-04T14:29:29+0200</time>
      </trkpt>
      <trkpt lat="44.90497" lon="6.63956">
        <ele>1397.908355</ele>
        <time>2022-09-04T14:29:30+0200</time>
      </trkpt>
      <trkpt lat="44.90495" lon="6.63965">
        <ele>1398.232075</ele>
        <time>2022-09-04T14:29:31+0200</time>
      </trkpt>
      <trkpt lat="44.90492" lon="6.63973">
        <ele>1398.701902</ele>
        <time>2022-09-04T14:29:32+0200</time>
      </trkpt>
      <trkpt lat="44.90489" lon="6.63981">
        <ele>1398.969177</ele>
        <time>2022-09-04T14:29:33+0200</time>
      </trkpt>
      <trkpt lat="44.90486" lon="6.63987">
        <ele>1399.122804</ele>
        <time>2022-09-04T14:29:34+0200</time>
      </trkpt>
      <trkpt lat="44.90478" lon="6.63993">
        <ele>1399.644547</ele>
        <time>2022-09-04T14:29:36+0200</time>
      </trkpt>
      <trkpt lat="44.90471" lon="6.63994">
        <ele>1399.462311</ele>
        <time>2022-09-04T14:29:37+0200</time>
      </trkpt>
      <trkpt lat="44.90466" lon="6.63992">
        <ele>1398.782278</ele>
        <time>2022-09-04T14:29:38+0200</time>
      </trkpt>
      <trkpt lat="44.9046" lon="6.63989">
        <ele>1397.808083</ele>
        <time>2022-09-04T14:29:39+0200</time>
      </trkpt>
      <trkpt lat="44.90453" lon="6.63988">
        <ele>1396.425532</ele>
        <time>2022-09-04T14:29:40+0200</time>
      </trkpt>
      <trkpt lat="44.90447" lon="6.63993">
        <ele>1395.142131</ele>
        <time>2022-09-04T14:29:41+0200</time>
      </trkpt>
      <trkpt lat="44.90443" lon="6.63999">
        <ele>1393.847073</ele>
        <time>2022-09-04T14:29:42+0200</time>
      </trkpt>
      <trkpt lat="44.9044" lon="6.64006">
        <ele>1393.170088</ele>
        <time>2022-09-04T14:29:43+0200</time>
      </trkpt>
      <trkpt lat="44.90437" lon="6.64014">
        <ele>1392.273768</ele>
        <time>2022-09-04T14:29:44+0200</time>
      </trkpt>
      <trkpt lat="44.90434" lon="6.6402">
        <ele>1392.014151</ele>
        <time>2022-09-04T14:29:45+0200</time>
      </trkpt>
      <trkpt lat="44.90432" lon="6.64028">
        <ele>1392.110724</ele>
        <time>2022-09-04T14:29:46+0200</time>
      </trkpt>
      <trkpt lat="44.90431" lon="6.64037">
        <ele>1392.505239</ele>
        <time>2022-09-04T14:29:47+0200</time>
      </trkpt>
      <trkpt lat="44.90431" lon="6.64045">
        <ele>1392.687042</ele>
        <time>2022-09-04T14:29:48+0200</time>
      </trkpt>
      <trkpt lat="44.90433" lon="6.64052">
        <ele>1392.873668</ele>
        <time>2022-09-04T14:29:49+0200</time>
      </trkpt>
      <trkpt lat="44.90436" lon="6.6406">
        <ele>1393.517679</ele>
        <time>2022-09-04T14:29:50+0200</time>
      </trkpt>
      <trkpt lat="44.90437" lon="6.64069">
        <ele>1394.383161</ele>
        <time>2022-09-04T14:29:51+0200</time>
      </trkpt>
      <trkpt lat="44.90436" lon="6.64078">
        <ele>1395.602445</ele>
        <time>2022-09-04T14:29:52+0200</time>
      </trkpt>
      <trkpt lat="44.90434" lon="6.64085">
        <ele>1396.912663</ele>
        <time>2022-09-04T14:29:53+0200</time>
      </trkpt>
      <trkpt lat="44.90431" lon="6.64094">
        <ele>1397.915411</ele>
        <time>2022-09-04T14:29:54+0200</time>
      </trkpt>
      <trkpt lat="44.90428" lon="6.64102">
        <ele>1398.945043</ele>
        <time>2022-09-04T14:29:55+0200</time>
      </trkpt>
      <trkpt lat="44.90424" lon="6.64109">
        <ele>1399.887718</ele>
        <time>2022-09-04T14:29:56+0200</time>
      </trkpt>
      <trkpt lat="44.90419" lon="6.64116">
        <ele>1400.416606</ele>
        <time>2022-09-04T14:29:57+0200</time>
      </trkpt>
      <trkpt lat="44.90413" lon="6.64122">
        <ele>1400.481819</ele>
        <time>2022-09-04T14:29:58+0200</time>
      </trkpt>
      <trkpt lat="44.90407" lon="6.64126">
        <ele>1400.373539</ele>
        <time>2022-09-04T14:29:59+0200</time>
      </trkpt>
      <trkpt lat="44.904" lon="6.64131">
        <ele>1399.886673</ele>
        <time>2022-09-04T14:30:00+0200</time>
      </trkpt>
      <trkpt lat="44.90396" lon="6.6414">
        <ele>1398.459315</ele>
        <time>2022-09-04T14:30:01+0200</time>
      </trkpt>
      <trkpt lat="44.90395" lon="6.64149">
        <ele>1397.244361</ele>
        <time>2022-09-04T14:30:02+0200</time>
      </trkpt>
      <trkpt lat="44.90396" lon="6.64158">
        <ele>1396.017594</ele>
        <time>2022-09-04T14:30:03+0200</time>
      </trkpt>
      <trkpt lat="44.90399" lon="6.64166">
        <ele>1394.827506</ele>
        <time>2022-09-04T14:30:04+0200</time>
      </trkpt>
      <trkpt lat="44.90404" lon="6.64173">
        <ele>1393.90667</ele>
        <time>2022-09-04T14:30:05+0200</time>
      </trkpt>
      <trkpt lat="44.90408" lon="6.64181">
        <ele>1393.228572</ele>
        <time>2022-09-04T14:30:06+0200</time>
      </trkpt>
      <trkpt lat="44.90411" lon="6.6419">
        <ele>1392.876292</ele>
        <time>2022-09-04T14:30:07+0200</time>
      </trkpt>
      <trkpt lat="44.90413" lon="6.642">
        <ele>1392.866184</ele>
        <time>2022-09-04T14:30:08+0200</time>
      </trkpt>
      <trkpt lat="44.90414" lon="6.64211">
        <ele>1392.400941</ele>
        <time>2022-09-04T14:30:09+0200</time>
      </trkpt>
      <trkpt lat="44.90414" lon="6.64223">
        <ele>1391.798654</ele>
        <time>2022-09-04T14:30:10+0200</time>
      </trkpt>
      <trkpt lat="44.90413" lon="6.64233">
        <ele>1390.792084</ele>
        <time>2022-09-04T14:30:11+0200</time>
      </trkpt>
      <trkpt lat="44.9041" lon="6.64243">
        <ele>1390.073332</ele>
        <time>2022-09-04T14:30:12+0200</time>
      </trkpt>
      <trkpt lat="44.90407" lon="6.64255">
        <ele>1389.402703</ele>
        <time>2022-09-04T14:30:13+0200</time>
      </trkpt>
      <trkpt lat="44.90404" lon="6.64266">
        <ele>1388.896216</ele>
        <time>2022-09-04T14:30:14+0200</time>
      </trkpt>
      <trkpt lat="44.90401" lon="6.64278">
        <ele>1388.443387</ele>
        <time>2022-09-04T14:30:15+0200</time>
      </trkpt>
      <trkpt lat="44.90398" lon="6.64291">
        <ele>1388.145343</ele>
        <time>2022-09-04T14:30:16+0200</time>
      </trkpt>
      <trkpt lat="44.90393" lon="6.64301">
        <ele>1387.824504</ele>
        <time>2022-09-04T14:30:17+0200</time>
      </trkpt>
      <trkpt lat="44.90389" lon="6.64312">
        <ele>1387.48717</ele>
        <time>2022-09-04T14:30:18+0200</time>
      </trkpt>
      <trkpt lat="44.90386" lon="6.64323">
        <ele>1387.118601</ele>
        <time>2022-09-04T14:30:19+0200</time>
      </trkpt>
      <trkpt lat="44.90382" lon="6.64334">
        <ele>1387.048571</ele>
        <time>2022-09-04T14:30:20+0200</time>
      </trkpt>
      <trkpt lat="44.90376" lon="6.64343">
        <ele>1386.740168</ele>
        <time>2022-09-04T14:30:21+0200</time>
      </trkpt>
      <trkpt lat="44.9037" lon="6.64352">
        <ele>1386.515091</ele>
        <time>2022-09-04T14:30:22+0200</time>
      </trkpt>
      <trkpt lat="44.90364" lon="6.64363">
        <ele>1385.359151</ele>
        <time>2022-09-04T14:30:23+0200</time>
      </trkpt>
      <trkpt lat="44.90359" lon="6.64374">
        <ele>1384.207749</ele>
        <time>2022-09-04T14:30:24+0200</time>
      </trkpt>
      <trkpt lat="44.90357" lon="6.64385">
        <ele>1383.39152</ele>
        <time>2022-09-04T14:30:25+0200</time>
      </trkpt>
      <trkpt lat="44.90356" lon="6.64398">
        <ele>1382.515414</ele>
        <time>2022-09-04T14:30:26+0200</time>
      </trkpt>
      <trkpt lat="44.90355" lon="6.64411">
        <ele>1382.090619</ele>
        <time>2022-09-04T14:30:27+0200</time>
      </trkpt>
      <trkpt lat="44.90353" lon="6.64423">
        <ele>1381.484506</ele>
        <time>2022-09-04T14:30:28+0200</time>
      </trkpt>
      <trkpt lat="44.90351" lon="6.64436">
        <ele>1380.834703</ele>
        <time>2022-09-04T14:30:29+0200</time>
      </trkpt>
      <trkpt lat="44.90349" lon="6.64448">
        <ele>1380.252553</ele>
        <time>2022-09-04T14:30:30+0200</time>
      </trkpt>
      <trkpt lat="44.90347" lon="6.64462">
        <ele>1379.428612</ele>
        <time>2022-09-04T14:30:31+0200</time>
      </trkpt>
      <trkpt lat="44.90346" lon="6.64475">
        <ele>1378.564862</ele>
        <time>2022-09-04T14:30:32+0200</time>
      </trkpt>
      <trkpt lat="44.90344" lon="6.64488">
        <ele>1377.495162</ele>
        <time>2022-09-04T14:30:33+0200</time>
      </trkpt>
      <trkpt lat="44.90343" lon="6.64501">
        <ele>1376.556348</ele>
        <time>2022-09-04T14:30:34+0200</time>
      </trkpt>
      <trkpt lat="44.90343" lon="6.64514">
        <ele>1375.749329</ele>
        <time>2022-09-04T14:30:35+0200</time>
      </trkpt>
      <trkpt lat="44.90345" lon="6.64526">
        <ele>1374.784221</ele>
        <time>2022-09-04T14:30:36+0200</time>
      </trkpt>
      <trkpt lat="44.90347" lon="6.64538">
        <ele>1373.892613</ele>
        <time>2022-09-04T14:30:37+0200</time>
      </trkpt>
      <trkpt lat="44.90351" lon="6.64551">
        <ele>1373.46094</ele>
        <time>2022-09-04T14:30:38+0200</time>
      </trkpt>
      <trkpt lat="44.90354" lon="6.64563">
        <ele>1373.121931</ele>
        <time>2022-09-04T14:30:39+0200</time>
      </trkpt>
      <trkpt lat="44.90357" lon="6.64576">
        <ele>1372.79311</ele>
        <time>2022-09-04T14:30:40+0200</time>
      </trkpt>
      <trkpt lat="44.90361" lon="6.64587">
        <ele>1372.083175</ele>
        <time>2022-09-04T14:30:41+0200</time>
      </trkpt>
      <trkpt lat="44.90365" lon="6.64599">
        <ele>1372.057104</ele>
        <time>2022-09-04T14:30:42+0200</time>
      </trkpt>
      <trkpt lat="44.90367" lon="6.64608">
        <ele>1371.702252</ele>
        <time>2022-09-04T14:30:43+0200</time>
      </trkpt>
      <trkpt lat="44.9037" lon="6.64617">
        <ele>1371.997542</ele>
        <time>2022-09-04T14:30:44+0200</time>
      </trkpt>
      <trkpt lat="44.90371" lon="6.64626">
        <ele>1371.585704</ele>
        <time>2022-09-04T14:30:45+0200</time>
      </trkpt>
      <trkpt lat="44.90373" lon="6.64634">
        <ele>1371.399436</ele>
        <time>2022-09-04T14:30:46+0200</time>
      </trkpt>
      <trkpt lat="44.90378" lon="6.6464">
        <ele>1371.651678</ele>
        <time>2022-09-04T14:30:47+0200</time>
      </trkpt>
      <trkpt lat="44.90381" lon="6.64645">
        <ele>1371.758954</ele>
        <time>2022-09-04T14:30:48+0200</time>
      </trkpt>
      <trkpt lat="44.90378" lon="6.64656">
        <ele>1371.864912</ele>
        <time>2022-09-04T14:30:50+0200</time>
      </trkpt>
      <trkpt lat="44.90371" lon="6.64658">
        <ele>1370.461804</ele>
        <time>2022-09-04T14:30:51+0200</time>
      </trkpt>
      <trkpt lat="44.90363" lon="6.64652">
        <ele>1368.883846</ele>
        <time>2022-09-04T14:30:52+0200</time>
      </trkpt>
      <trkpt lat="44.90357" lon="6.64647">
        <ele>1367.73133</ele>
        <time>2022-09-04T14:30:53+0200</time>
      </trkpt>
      <trkpt lat="44.90349" lon="6.64642">
        <ele>1366.658289</ele>
        <time>2022-09-04T14:30:54+0200</time>
      </trkpt>
      <trkpt lat="44.9034" lon="6.64636">
        <ele>1365.504333</ele>
        <time>2022-09-04T14:30:55+0200</time>
      </trkpt>
      <trkpt lat="44.9033" lon="6.64629">
        <ele>1364.093723</ele>
        <time>2022-09-04T14:30:56+0200</time>
      </trkpt>
      <trkpt lat="44.90318" lon="6.64621">
        <ele>1362.617341</ele>
        <time>2022-09-04T14:30:57+0200</time>
      </trkpt>
      <trkpt lat="44.90307" lon="6.64614">
        <ele>1360.488503</ele>
        <time>2022-09-04T14:30:58+0200</time>
      </trkpt>
      <trkpt lat="44.90295" lon="6.64604">
        <ele>1357.778069</ele>
        <time>2022-09-04T14:30:59+0200</time>
      </trkpt>
      <trkpt lat="44.90284" lon="6.64595">
        <ele>1355.300685</ele>
        <time>2022-09-04T14:31:00+0200</time>
      </trkpt>
      <trkpt lat="44.90272" lon="6.64587">
        <ele>1352.555565</ele>
        <time>2022-09-04T14:31:01+0200</time>
      </trkpt>
      <trkpt lat="44.9026" lon="6.64578">
        <ele>1349.841668</ele>
        <time>2022-09-04T14:31:02+0200</time>
      </trkpt>
      <trkpt lat="44.90247" lon="6.64567">
        <ele>1347.384944</ele>
        <time>2022-09-04T14:31:03+0200</time>
      </trkpt>
      <trkpt lat="44.90236" lon="6.64559">
        <ele>1344.949667</ele>
        <time>2022-09-04T14:31:04+0200</time>
      </trkpt>
      <trkpt lat="44.90223" lon="6.64551">
        <ele>1343.174189</ele>
        <time>2022-09-04T14:31:05+0200</time>
      </trkpt>
      <trkpt lat="44.90211" lon="6.64541">
        <ele>1340.976021</ele>
        <time>2022-09-04T14:31:06+0200</time>
      </trkpt>
      <trkpt lat="44.90199" lon="6.64533">
        <ele>1338.365192</ele>
        <time>2022-09-04T14:31:07+0200</time>
      </trkpt>
      <trkpt lat="44.90189" lon="6.64525">
        <ele>1336.31491</ele>
        <time>2022-09-04T14:31:08+0200</time>
      </trkpt>
      <trkpt lat="44.90181" lon="6.64513">
        <ele>1334.552865</ele>
        <time>2022-09-04T14:31:09+0200</time>
      </trkpt>
      <trkpt lat="44.90174" lon="6.645">
        <ele>1333.622842</ele>
        <time>2022-09-04T14:31:10+0200</time>
      </trkpt>
      <trkpt lat="44.90168" lon="6.64492">
        <ele>1332.095696</ele>
        <time>2022-09-04T14:31:11+0200</time>
      </trkpt>
      <trkpt lat="44.90163" lon="6.64488">
        <ele>1331.287763</ele>
        <time>2022-09-04T14:31:12+0200</time>
      </trkpt>
      <trkpt lat="44.90158" lon="6.6449">
        <ele>1330.998713</ele>
        <time>2022-09-04T14:31:13+0200</time>
      </trkpt>
      <trkpt lat="44.90155" lon="6.64496">
        <ele>1331.461051</ele>
        <time>2022-09-04T14:31:22+0200</time>
      </trkpt>
      <trkpt lat="44.90149" lon="6.64503">
        <ele>1330.951898</ele>
        <time>2022-09-04T14:31:24+0200</time>
      </trkpt>
      <trkpt lat="44.90149" lon="6.6451">
        <ele>1331.158305</ele>
        <time>2022-09-04T14:31:25+0200</time>
      </trkpt>
      <trkpt lat="44.90151" lon="6.64517">
        <ele>1330.869195</ele>
        <time>2022-09-04T14:31:26+0200</time>
      </trkpt>
      <trkpt lat="44.90152" lon="6.64524">
        <ele>1330.76398</ele>
        <time>2022-09-04T14:31:27+0200</time>
      </trkpt>
      <trkpt lat="44.90154" lon="6.64532">
        <ele>1330.871075</ele>
        <time>2022-09-04T14:31:28+0200</time>
      </trkpt>
      <trkpt lat="44.90156" lon="6.64539">
        <ele>1331.077994</ele>
        <time>2022-09-04T14:31:29+0200</time>
      </trkpt>
      <trkpt lat="44.90158" lon="6.64547">
        <ele>1331.586462</ele>
        <time>2022-09-04T14:31:30+0200</time>
      </trkpt>
      <trkpt lat="44.9016" lon="6.64553">
        <ele>1332.103626</ele>
        <time>2022-09-04T14:31:31+0200</time>
      </trkpt>
      <trkpt lat="44.90162" lon="6.64561">
        <ele>1332.587148</ele>
        <time>2022-09-04T14:31:32+0200</time>
      </trkpt>
      <trkpt lat="44.90164" lon="6.64568">
        <ele>1332.992359</ele>
        <time>2022-09-04T14:31:33+0200</time>
      </trkpt>
      <trkpt lat="44.90167" lon="6.64575">
        <ele>1333.379038</ele>
        <time>2022-09-04T14:31:34+0200</time>
      </trkpt>
      <trkpt lat="44.90169" lon="6.64582">
        <ele>1333.680586</ele>
        <time>2022-09-04T14:31:35+0200</time>
      </trkpt>
      <trkpt lat="44.90173" lon="6.64588">
        <ele>1333.695837</ele>
        <time>2022-09-04T14:31:36+0200</time>
      </trkpt>
      <trkpt lat="44.90176" lon="6.64595">
        <ele>1333.737575</ele>
        <time>2022-09-04T14:31:37+0200</time>
      </trkpt>
      <trkpt lat="44.9018" lon="6.64601">
        <ele>1333.735788</ele>
        <time>2022-09-04T14:31:38+0200</time>
      </trkpt>
      <trkpt lat="44.90182" lon="6.64608">
        <ele>1334.013166</ele>
        <time>2022-09-04T14:31:39+0200</time>
      </trkpt>
      <trkpt lat="44.90183" lon="6.64616">
        <ele>1334.348068</ele>
        <time>2022-09-04T14:31:40+0200</time>
      </trkpt>
      <trkpt lat="44.90179" lon="6.64623">
        <ele>1333.212546</ele>
        <time>2022-09-04T14:31:41+0200</time>
      </trkpt>
      <trkpt lat="44.90173" lon="6.64628">
        <ele>1332.677061</ele>
        <time>2022-09-04T14:31:42+0200</time>
      </trkpt>
      <trkpt lat="44.90168" lon="6.64632">
        <ele>1332.525507</ele>
        <time>2022-09-04T14:31:43+0200</time>
      </trkpt>
      <trkpt lat="44.90162" lon="6.6464">
        <ele>1331.613234</ele>
        <time>2022-09-04T14:31:44+0200</time>
      </trkpt>
      <trkpt lat="44.90161" lon="6.6465">
        <ele>1330.895762</ele>
        <time>2022-09-04T14:31:45+0200</time>
      </trkpt>
      <trkpt lat="44.90164" lon="6.64661">
        <ele>1330.48635</ele>
        <time>2022-09-04T14:31:46+0200</time>
      </trkpt>
      <trkpt lat="44.90168" lon="6.64671">
        <ele>1330.521365</ele>
        <time>2022-09-04T14:31:47+0200</time>
      </trkpt>
      <trkpt lat="44.90171" lon="6.6468">
        <ele>1330.290767</ele>
        <time>2022-09-04T14:31:48+0200</time>
      </trkpt>
      <trkpt lat="44.90174" lon="6.6469">
        <ele>1329.910041</ele>
        <time>2022-09-04T14:31:49+0200</time>
      </trkpt>
      <trkpt lat="44.90177" lon="6.64701">
        <ele>1329.553332</ele>
        <time>2022-09-04T14:31:50+0200</time>
      </trkpt>
      <trkpt lat="44.9018" lon="6.64712">
        <ele>1329.378325</ele>
        <time>2022-09-04T14:31:51+0200</time>
      </trkpt>
      <trkpt lat="44.90184" lon="6.64724">
        <ele>1329.493147</ele>
        <time>2022-09-04T14:31:52+0200</time>
      </trkpt>
      <trkpt lat="44.90187" lon="6.64737">
        <ele>1329.237975</ele>
        <time>2022-09-04T14:31:53+0200</time>
      </trkpt>
      <trkpt lat="44.90189" lon="6.64751">
        <ele>1329.009628</ele>
        <time>2022-09-04T14:31:54+0200</time>
      </trkpt>
      <trkpt lat="44.90192" lon="6.64765">
        <ele>1328.841555</ele>
        <time>2022-09-04T14:31:55+0200</time>
      </trkpt>
      <trkpt lat="44.90196" lon="6.64778">
        <ele>1328.264329</ele>
        <time>2022-09-04T14:31:56+0200</time>
      </trkpt>
      <trkpt lat="44.90203" lon="6.64789">
        <ele>1327.265581</ele>
        <time>2022-09-04T14:31:57+0200</time>
      </trkpt>
      <trkpt lat="44.9021" lon="6.64799">
        <ele>1326.019822</ele>
        <time>2022-09-04T14:31:58+0200</time>
      </trkpt>
      <trkpt lat="44.90218" lon="6.64809">
        <ele>1325.095752</ele>
        <time>2022-09-04T14:31:59+0200</time>
      </trkpt>
      <trkpt lat="44.90226" lon="6.64819">
        <ele>1324.207171</ele>
        <time>2022-09-04T14:32:00+0200</time>
      </trkpt>
      <trkpt lat="44.90234" lon="6.64832">
        <ele>1323.393066</ele>
        <time>2022-09-04T14:32:01+0200</time>
      </trkpt>
      <trkpt lat="44.90242" lon="6.64841">
        <ele>1322.838824</ele>
        <time>2022-09-04T14:32:02+0200</time>
      </trkpt>
      <trkpt lat="44.9025" lon="6.64851">
        <ele>1322.355076</ele>
        <time>2022-09-04T14:32:03+0200</time>
      </trkpt>
      <trkpt lat="44.90259" lon="6.64863">
        <ele>1321.564264</ele>
        <time>2022-09-04T14:32:04+0200</time>
      </trkpt>
      <trkpt lat="44.90264" lon="6.64878">
        <ele>1320.631921</ele>
        <time>2022-09-04T14:32:05+0200</time>
      </trkpt>
      <trkpt lat="44.90266" lon="6.64897">
        <ele>1319.689438</ele>
        <time>2022-09-04T14:32:06+0200</time>
      </trkpt>
      <trkpt lat="44.90267" lon="6.64913">
        <ele>1319.331166</ele>
        <time>2022-09-04T14:32:07+0200</time>
      </trkpt>
      <trkpt lat="44.90269" lon="6.64929">
        <ele>1318.869916</ele>
        <time>2022-09-04T14:32:08+0200</time>
      </trkpt>
      <trkpt lat="44.9027" lon="6.64945">
        <ele>1318.598277</ele>
        <time>2022-09-04T14:32:09+0200</time>
      </trkpt>
      <trkpt lat="44.90265" lon="6.64961">
        <ele>1317.645106</ele>
        <time>2022-09-04T14:32:10+0200</time>
      </trkpt>
      <trkpt lat="44.90255" lon="6.64972">
        <ele>1317.207977</ele>
        <time>2022-09-04T14:32:11+0200</time>
      </trkpt>
      <trkpt lat="44.90245" lon="6.64985">
        <ele>1315.837168</ele>
        <time>2022-09-04T14:32:12+0200</time>
      </trkpt>
      <trkpt lat="44.90241" lon="6.65003">
        <ele>1314.60401</ele>
        <time>2022-09-04T14:32:13+0200</time>
      </trkpt>
      <trkpt lat="44.90243" lon="6.65021">
        <ele>1311.924787</ele>
        <time>2022-09-04T14:32:14+0200</time>
      </trkpt>
      <trkpt lat="44.90247" lon="6.65037">
        <ele>1310.160681</ele>
        <time>2022-09-04T14:32:15+0200</time>
      </trkpt>
      <trkpt lat="44.90249" lon="6.65054">
        <ele>1308.761609</ele>
        <time>2022-09-04T14:32:16+0200</time>
      </trkpt>
      <trkpt lat="44.90253" lon="6.65069">
        <ele>1307.868318</ele>
        <time>2022-09-04T14:32:17+0200</time>
      </trkpt>
      <trkpt lat="44.9026" lon="6.65082">
        <ele>1307.409101</ele>
        <time>2022-09-04T14:32:18+0200</time>
      </trkpt>
      <trkpt lat="44.90265" lon="6.65094">
        <ele>1307.863168</ele>
        <time>2022-09-04T14:32:19+0200</time>
      </trkpt>
      <trkpt lat="44.9027" lon="6.65107">
        <ele>1307.944478</ele>
        <time>2022-09-04T14:32:20+0200</time>
      </trkpt>
      <trkpt lat="44.90273" lon="6.65121">
        <ele>1307.554757</ele>
        <time>2022-09-04T14:32:21+0200</time>
      </trkpt>
      <trkpt lat="44.90275" lon="6.65136">
        <ele>1306.376665</ele>
        <time>2022-09-04T14:32:22+0200</time>
      </trkpt>
      <trkpt lat="44.90278" lon="6.65151">
        <ele>1305.009146</ele>
        <time>2022-09-04T14:32:23+0200</time>
      </trkpt>
      <trkpt lat="44.9028" lon="6.65166">
        <ele>1303.948782</ele>
        <time>2022-09-04T14:32:24+0200</time>
      </trkpt>
      <trkpt lat="44.90282" lon="6.65181">
        <ele>1302.824802</ele>
        <time>2022-09-04T14:32:25+0200</time>
      </trkpt>
      <trkpt lat="44.90284" lon="6.65196">
        <ele>1302.286049</ele>
        <time>2022-09-04T14:32:26+0200</time>
      </trkpt>
      <trkpt lat="44.90286" lon="6.65212">
        <ele>1301.401907</ele>
        <time>2022-09-04T14:32:27+0200</time>
      </trkpt>
      <trkpt lat="44.90288" lon="6.65228">
        <ele>1300.296036</ele>
        <time>2022-09-04T14:32:28+0200</time>
      </trkpt>
      <trkpt lat="44.90292" lon="6.65244">
        <ele>1299.264603</ele>
        <time>2022-09-04T14:32:29+0200</time>
      </trkpt>
      <trkpt lat="44.90296" lon="6.6526">
        <ele>1298.137623</ele>
        <time>2022-09-04T14:32:30+0200</time>
      </trkpt>
      <trkpt lat="44.903" lon="6.65277">
        <ele>1296.77807</ele>
        <time>2022-09-04T14:32:31+0200</time>
      </trkpt>
      <trkpt lat="44.90304" lon="6.65295">
        <ele>1295.403301</ele>
        <time>2022-09-04T14:32:32+0200</time>
      </trkpt>
      <trkpt lat="44.90308" lon="6.65313">
        <ele>1293.818913</ele>
        <time>2022-09-04T14:32:33+0200</time>
      </trkpt>
      <trkpt lat="44.90312" lon="6.65333">
        <ele>1291.986157</ele>
        <time>2022-09-04T14:32:34+0200</time>
      </trkpt>
      <trkpt lat="44.90313" lon="6.65353">
        <ele>1290.344714</ele>
        <time>2022-09-04T14:32:35+0200</time>
      </trkpt>
      <trkpt lat="44.90312" lon="6.65373">
        <ele>1288.891919</ele>
        <time>2022-09-04T14:32:36+0200</time>
      </trkpt>
      <trkpt lat="44.90312" lon="6.65393">
        <ele>1287.501086</ele>
        <time>2022-09-04T14:32:37+0200</time>
      </trkpt>
      <trkpt lat="44.90313" lon="6.65414">
        <ele>1285.922738</ele>
        <time>2022-09-04T14:32:38+0200</time>
      </trkpt>
      <trkpt lat="44.90317" lon="6.65433">
        <ele>1284.183553</ele>
        <time>2022-09-04T14:32:39+0200</time>
      </trkpt>
      <trkpt lat="44.9032" lon="6.65453">
        <ele>1282.840387</ele>
        <time>2022-09-04T14:32:40+0200</time>
      </trkpt>
      <trkpt lat="44.90321" lon="6.65474">
        <ele>1282.296634</ele>
        <time>2022-09-04T14:32:41+0200</time>
      </trkpt>
      <trkpt lat="44.90319" lon="6.65494">
        <ele>1281.146136</ele>
        <time>2022-09-04T14:32:42+0200</time>
      </trkpt>
      <trkpt lat="44.90315" lon="6.65513">
        <ele>1280.160341</ele>
        <time>2022-09-04T14:32:43+0200</time>
      </trkpt>
      <trkpt lat="44.90309" lon="6.6553">
        <ele>1278.657996</ele>
        <time>2022-09-04T14:32:44+0200</time>
      </trkpt>
      <trkpt lat="44.90308" lon="6.6555">
        <ele>1277.261465</ele>
        <time>2022-09-04T14:32:45+0200</time>
      </trkpt>
      <trkpt lat="44.90308" lon="6.6557">
        <ele>1276.27107</ele>
        <time>2022-09-04T14:32:46+0200</time>
      </trkpt>
      <trkpt lat="44.9031" lon="6.65589">
        <ele>1274.962423</ele>
        <time>2022-09-04T14:32:47+0200</time>
      </trkpt>
      <trkpt lat="44.90311" lon="6.65607">
        <ele>1273.691918</ele>
        <time>2022-09-04T14:32:48+0200</time>
      </trkpt>
      <trkpt lat="44.90311" lon="6.65627">
        <ele>1271.885869</ele>
        <time>2022-09-04T14:32:49+0200</time>
      </trkpt>
      <trkpt lat="44.90314" lon="6.65647">
        <ele>1269.801201</ele>
        <time>2022-09-04T14:32:50+0200</time>
      </trkpt>
      <trkpt lat="44.90317" lon="6.65668">
        <ele>1267.412152</ele>
        <time>2022-09-04T14:32:51+0200</time>
      </trkpt>
      <trkpt lat="44.9032" lon="6.65689">
        <ele>1266.025252</ele>
        <time>2022-09-04T14:32:52+0200</time>
      </trkpt>
      <trkpt lat="44.90323" lon="6.65706">
        <ele>1264.90795</ele>
        <time>2022-09-04T14:32:53+0200</time>
      </trkpt>
      <trkpt lat="44.90326" lon="6.65718">
        <ele>1264.556144</ele>
        <time>2022-09-04T14:32:54+0200</time>
      </trkpt>
      <trkpt lat="44.90328" lon="6.65731">
        <ele>1264.766812</ele>
        <time>2022-09-04T14:32:55+0200</time>
      </trkpt>
      <trkpt lat="44.90329" lon="6.65744">
        <ele>1265.305799</ele>
        <time>2022-09-04T14:32:56+0200</time>
      </trkpt>
      <trkpt lat="44.90329" lon="6.65755">
        <ele>1265.332943</ele>
        <time>2022-09-04T14:32:57+0200</time>
      </trkpt>
      <trkpt lat="44.90329" lon="6.65766">
        <ele>1265.422207</ele>
        <time>2022-09-04T14:32:58+0200</time>
      </trkpt>
      <trkpt lat="44.90324" lon="6.65774">
        <ele>1265.563661</ele>
        <time>2022-09-04T14:32:59+0200</time>
      </trkpt>
      <trkpt lat="44.90317" lon="6.65777">
        <ele>1265.721804</ele>
        <time>2022-09-04T14:33:00+0200</time>
      </trkpt>
      <trkpt lat="44.90311" lon="6.65778">
        <ele>1265.739066</ele>
        <time>2022-09-04T14:33:01+0200</time>
      </trkpt>
      <trkpt lat="44.90305" lon="6.65781">
        <ele>1265.233066</ele>
        <time>2022-09-04T14:33:02+0200</time>
      </trkpt>
      <trkpt lat="44.90299" lon="6.65784">
        <ele>1264.153254</ele>
        <time>2022-09-04T14:33:03+0200</time>
      </trkpt>
      <trkpt lat="44.90293" lon="6.65786">
        <ele>1263.605455</ele>
        <time>2022-09-04T14:33:04+0200</time>
      </trkpt>
      <trkpt lat="44.90287" lon="6.65788">
        <ele>1263.354918</ele>
        <time>2022-09-04T14:33:05+0200</time>
      </trkpt>
      <trkpt lat="44.90282" lon="6.6579">
        <ele>1263.280922</ele>
        <time>2022-09-04T14:33:06+0200</time>
      </trkpt>
      <trkpt lat="44.90277" lon="6.65792">
        <ele>1263.216207</ele>
        <time>2022-09-04T14:33:07+0200</time>
      </trkpt>
      <trkpt lat="44.90268" lon="6.65792">
        <ele>1264.078061</ele>
        <time>2022-09-04T14:33:09+0200</time>
      </trkpt>
      <trkpt lat="44.90264" lon="6.65792">
        <ele>1265.063862</ele>
        <time>2022-09-04T14:33:10+0200</time>
      </trkpt>
      <trkpt lat="44.90256" lon="6.65789">
        <ele>1266.791655</ele>
        <time>2022-09-04T14:33:12+0200</time>
      </trkpt>
      <trkpt lat="44.90252" lon="6.65787">
        <ele>1267.74919</ele>
        <time>2022-09-04T14:33:13+0200</time>
      </trkpt>
      <trkpt lat="44.90248" lon="6.65785">
        <ele>1268.672293</ele>
        <time>2022-09-04T14:33:14+0200</time>
      </trkpt>
      <trkpt lat="44.9024" lon="6.65779">
        <ele>1270.274443</ele>
        <time>2022-09-04T14:33:16+0200</time>
      </trkpt>
      <trkpt lat="44.90234" lon="6.65773">
        <ele>1271.650983</ele>
        <time>2022-09-04T14:33:18+0200</time>
      </trkpt>
      <trkpt lat="44.90226" lon="6.65773">
        <ele>1272.139919</ele>
        <time>2022-09-04T14:33:20+0200</time>
      </trkpt>
      <trkpt lat="44.90219" lon="6.65778">
        <ele>1272.608029</ele>
        <time>2022-09-04T14:33:22+0200</time>
      </trkpt>
      <trkpt lat="44.90213" lon="6.65783">
        <ele>1272.821097</ele>
        <time>2022-09-04T14:33:24+0200</time>
      </trkpt>
      <trkpt lat="44.90206" lon="6.65784">
        <ele>1274.792795</ele>
        <time>2022-09-04T14:33:26+0200</time>
      </trkpt>
      <trkpt lat="44.902" lon="6.6578">
        <ele>1277.726838</ele>
        <time>2022-09-04T14:33:28+0200</time>
      </trkpt>
      <trkpt lat="44.90194" lon="6.65775">
        <ele>1280.113916</ele>
        <time>2022-09-04T14:33:30+0200</time>
      </trkpt>
      <trkpt lat="44.90187" lon="6.65769">
        <ele>1281.097526</ele>
        <time>2022-09-04T14:33:32+0200</time>
      </trkpt>
      <trkpt lat="44.90182" lon="6.65765">
        <ele>1281.980916</ele>
        <time>2022-09-04T14:33:34+0200</time>
      </trkpt>
      <trkpt lat="44.90181" lon="6.65775">
        <ele>1283.079485</ele>
        <time>2022-09-04T14:33:37+0200</time>
      </trkpt>
      <trkpt lat="44.90183" lon="6.65784">
        <ele>1283.83684</ele>
        <time>2022-09-04T14:33:39+0200</time>
      </trkpt>
      <trkpt lat="44.90188" lon="6.65789">
        <ele>1284.704877</ele>
        <time>2022-09-04T14:33:41+0200</time>
      </trkpt>
      <trkpt lat="44.9019" lon="6.65796">
        <ele>1284.721639</ele>
        <time>2022-09-04T14:33:43+0200</time>
      </trkpt>
      <trkpt lat="44.90195" lon="6.65801">
        <ele>1285.585138</ele>
        <time>2022-09-04T14:33:45+0200</time>
      </trkpt>
      <trkpt lat="44.90199" lon="6.65806">
        <ele>1286.377828</ele>
        <time>2022-09-04T14:33:47+0200</time>
      </trkpt>
      <trkpt lat="44.90204" lon="6.65813">
        <ele>1285.891291</ele>
        <time>2022-09-04T14:33:49+0200</time>
      </trkpt>
      <trkpt lat="44.90208" lon="6.65821">
        <ele>1287.039579</ele>
        <time>2022-09-04T14:33:51+0200</time>
      </trkpt>
      <trkpt lat="44.90212" lon="6.65824">
        <ele>1288.368131</ele>
        <time>2022-09-04T14:33:53+0200</time>
      </trkpt>
      <trkpt lat="44.90217" lon="6.65829">
        <ele>1289.008447</ele>
        <time>2022-09-04T14:33:55+0200</time>
      </trkpt>
      <trkpt lat="44.90221" lon="6.65835">
        <ele>1289.567504</ele>
        <time>2022-09-04T14:33:57+0200</time>
      </trkpt>
      <trkpt lat="44.90226" lon="6.65841">
        <ele>1289.860696</ele>
        <time>2022-09-04T14:34:00+0200</time>
      </trkpt>
      <trkpt lat="44.9023" lon="6.65846">
        <ele>1289.540679</ele>
        <time>2022-09-04T14:34:02+0200</time>
      </trkpt>
      <trkpt lat="44.90235" lon="6.6585">
        <ele>1288.911692</ele>
        <time>2022-09-04T14:34:04+0200</time>
      </trkpt>
      <trkpt lat="44.90241" lon="6.65853">
        <ele>1288.655211</ele>
        <time>2022-09-04T14:34:06+0200</time>
      </trkpt>
      <trkpt lat="44.90247" lon="6.65855">
        <ele>1287.926221</ele>
        <time>2022-09-04T14:34:08+0200</time>
      </trkpt>
      <trkpt lat="44.90253" lon="6.65857">
        <ele>1288.041487</ele>
        <time>2022-09-04T14:34:10+0200</time>
      </trkpt>
      <trkpt lat="44.90258" lon="6.65862">
        <ele>1287.671642</ele>
        <time>2022-09-04T14:34:12+0200</time>
      </trkpt>
      <trkpt lat="44.90258" lon="6.65873">
        <ele>1286.894687</ele>
        <time>2022-09-04T14:34:14+0200</time>
      </trkpt>
      <trkpt lat="44.90255" lon="6.65878">
        <ele>1287.423613</ele>
        <time>2022-09-04T14:34:16+0200</time>
      </trkpt>
      <trkpt lat="44.90247" lon="6.65879">
        <ele>1288.468947</ele>
        <time>2022-09-04T14:34:18+0200</time>
      </trkpt>
      <trkpt lat="44.90243" lon="6.65874">
        <ele>1289.924169</ele>
        <time>2022-09-04T14:34:21+0200</time>
      </trkpt>
      <trkpt lat="44.90237" lon="6.65879">
        <ele>1291.142511</ele>
        <time>2022-09-04T14:34:25+0200</time>
      </trkpt>
      <trkpt lat="44.90232" lon="6.65883">
        <ele>1293.797878</ele>
        <time>2022-09-04T14:34:29+0200</time>
      </trkpt>
      <trkpt lat="44.90227" lon="6.65883">
        <ele>1294.343258</ele>
        <time>2022-09-04T14:34:32+0200</time>
      </trkpt>
      <trkpt lat="44.90219" lon="6.65887">
        <ele>1293.69512</ele>
        <time>2022-09-04T14:34:35+0200</time>
      </trkpt>
      <trkpt lat="44.90217" lon="6.65892">
        <ele>1291.572651</ele>
        <time>2022-09-04T14:34:38+0200</time>
      </trkpt>
      <trkpt lat="44.90214" lon="6.65899">
        <ele>1293.209798</ele>
        <time>2022-09-04T14:34:40+0200</time>
      </trkpt>
      <trkpt lat="44.90211" lon="6.65906">
        <ele>1295.839177</ele>
        <time>2022-09-04T14:34:43+0200</time>
      </trkpt>
      <trkpt lat="44.9021" lon="6.65913">
        <ele>1297.97299</ele>
        <time>2022-09-04T14:34:45+0200</time>
      </trkpt>
      <trkpt lat="44.90209" lon="6.65921">
        <ele>1301.133398</ele>
        <time>2022-09-04T14:34:48+0200</time>
      </trkpt>
      <trkpt lat="44.90213" lon="6.65925">
        <ele>1302.661137</ele>
        <time>2022-09-04T14:34:51+0200</time>
      </trkpt>
      <trkpt lat="44.90218" lon="6.65928">
        <ele>1303.915543</ele>
        <time>2022-09-04T14:34:56+0200</time>
      </trkpt>
      <trkpt lat="44.90222" lon="6.6593">
        <ele>1303.807893</ele>
        <time>2022-09-04T14:34:59+0200</time>
      </trkpt>
      <trkpt lat="44.90225" lon="6.65936">
        <ele>1303.732122</ele>
        <time>2022-09-04T14:35:02+0200</time>
      </trkpt>
      <trkpt lat="44.90227" lon="6.65944">
        <ele>1303.796238</ele>
        <time>2022-09-04T14:35:04+0200</time>
      </trkpt>
      <trkpt lat="44.90227" lon="6.6595">
        <ele>1304.278609</ele>
        <time>2022-09-04T14:35:06+0200</time>
      </trkpt>
      <trkpt lat="44.90228" lon="6.65958">
        <ele>1305.515327</ele>
        <time>2022-09-04T14:35:09+0200</time>
      </trkpt>
      <trkpt lat="44.90229" lon="6.65965">
        <ele>1306.414786</ele>
        <time>2022-09-04T14:35:12+0200</time>
      </trkpt>
      <trkpt lat="44.90231" lon="6.65971">
        <ele>1309.135368</ele>
        <time>2022-09-04T14:35:16+0200</time>
      </trkpt>
      <trkpt lat="44.90234" lon="6.65976">
        <ele>1309.17352</ele>
        <time>2022-09-04T14:35:19+0200</time>
      </trkpt>
      <trkpt lat="44.90237" lon="6.65984">
        <ele>1309.369813</ele>
        <time>2022-09-04T14:35:22+0200</time>
      </trkpt>
      <trkpt lat="44.90238" lon="6.65992">
        <ele>1309.883764</ele>
        <time>2022-09-04T14:35:25+0200</time>
      </trkpt>
      <trkpt lat="44.90241" lon="6.65998">
        <ele>1310.549005</ele>
        <time>2022-09-04T14:35:27+0200</time>
      </trkpt>
      <trkpt lat="44.90244" lon="6.66002">
        <ele>1311.163616</ele>
        <time>2022-09-04T14:35:29+0200</time>
      </trkpt>
      <trkpt lat="44.90247" lon="6.66007">
        <ele>1311.287159</ele>
        <time>2022-09-04T14:35:31+0200</time>
      </trkpt>
      <trkpt lat="44.90249" lon="6.66015">
        <ele>1311.111127</ele>
        <time>2022-09-04T14:35:33+0200</time>
      </trkpt>
      <trkpt lat="44.9025" lon="6.66021">
        <ele>1311.513319</ele>
        <time>2022-09-04T14:35:35+0200</time>
      </trkpt>
      <trkpt lat="44.9025" lon="6.6603">
        <ele>1312.290051</ele>
        <time>2022-09-04T14:35:38+0200</time>
      </trkpt>
      <trkpt lat="44.9025" lon="6.66037">
        <ele>1313.239375</ele>
        <time>2022-09-04T14:35:40+0200</time>
      </trkpt>
      <trkpt lat="44.90253" lon="6.66046">
        <ele>1314.391164</ele>
        <time>2022-09-04T14:35:43+0200</time>
      </trkpt>
      <trkpt lat="44.90253" lon="6.66053">
        <ele>1315.48875</ele>
        <time>2022-09-04T14:35:45+0200</time>
      </trkpt>
      <trkpt lat="44.90254" lon="6.66061">
        <ele>1317.591127</ele>
        <time>2022-09-04T14:35:48+0200</time>
      </trkpt>
      <trkpt lat="44.90254" lon="6.6607">
        <ele>1318.069669</ele>
        <time>2022-09-04T14:35:51+0200</time>
      </trkpt>
      <trkpt lat="44.90254" lon="6.66078">
        <ele>1319.23978</ele>
        <time>2022-09-04T14:35:54+0200</time>
      </trkpt>
      <trkpt lat="44.90257" lon="6.66085">
        <ele>1319.551017</ele>
        <time>2022-09-04T14:35:57+0200</time>
      </trkpt>
      <trkpt lat="44.9026" lon="6.66093">
        <ele>1319.916515</ele>
        <time>2022-09-04T14:36:01+0200</time>
      </trkpt>
      <trkpt lat="44.90262" lon="6.661">
        <ele>1319.711837</ele>
        <time>2022-09-04T14:36:04+0200</time>
      </trkpt>
      <trkpt lat="44.90264" lon="6.66108">
        <ele>1320.106214</ele>
        <time>2022-09-04T14:36:07+0200</time>
      </trkpt>
      <trkpt lat="44.90265" lon="6.66115">
        <ele>1320.472895</ele>
        <time>2022-09-04T14:36:10+0200</time>
      </trkpt>
      <trkpt lat="44.90266" lon="6.66123">
        <ele>1321.565991</ele>
        <time>2022-09-04T14:36:13+0200</time>
      </trkpt>
      <trkpt lat="44.90266" lon="6.66132">
        <ele>1322.283313</ele>
        <time>2022-09-04T14:36:16+0200</time>
      </trkpt>
      <trkpt lat="44.90268" lon="6.66139">
        <ele>1323.187888</ele>
        <time>2022-09-04T14:36:19+0200</time>
      </trkpt>
      <trkpt lat="44.90268" lon="6.66147">
        <ele>1324.213047</ele>
        <time>2022-09-04T14:36:22+0200</time>
      </trkpt>
      <trkpt lat="44.90269" lon="6.66153">
        <ele>1325.814949</ele>
        <time>2022-09-04T14:36:25+0200</time>
      </trkpt>
      <trkpt lat="44.9027" lon="6.6616">
        <ele>1325.660213</ele>
        <time>2022-09-04T14:36:28+0200</time>
      </trkpt>
      <trkpt lat="44.90273" lon="6.66168">
        <ele>1326.070462</ele>
        <time>2022-09-04T14:36:32+0200</time>
      </trkpt>
      <trkpt lat="44.90274" lon="6.66175">
        <ele>1326.949249</ele>
        <time>2022-09-04T14:36:35+0200</time>
      </trkpt>
      <trkpt lat="44.90276" lon="6.66184">
        <ele>1326.82698</ele>
        <time>2022-09-04T14:36:38+0200</time>
      </trkpt>
      <trkpt lat="44.90276" lon="6.66191">
        <ele>1327.378095</ele>
        <time>2022-09-04T14:36:41+0200</time>
      </trkpt>
      <trkpt lat="44.90277" lon="6.66198">
        <ele>1329.598078</ele>
        <time>2022-09-04T14:36:44+0200</time>
      </trkpt>
      <trkpt lat="44.90279" lon="6.66204">
        <ele>1331.118437</ele>
        <time>2022-09-04T14:36:47+0200</time>
      </trkpt>
      <trkpt lat="44.90282" lon="6.66212">
        <ele>1331.744289</ele>
        <time>2022-09-04T14:36:50+0200</time>
      </trkpt>
      <trkpt lat="44.90284" lon="6.6622">
        <ele>1330.301747</ele>
        <time>2022-09-04T14:36:53+0200</time>
      </trkpt>
      <trkpt lat="44.90286" lon="6.66228">
        <ele>1330.589634</ele>
        <time>2022-09-04T14:36:56+0200</time>
      </trkpt>
      <trkpt lat="44.90287" lon="6.66237">
        <ele>1331.531862</ele>
        <time>2022-09-04T14:36:59+0200</time>
      </trkpt>
      <trkpt lat="44.90287" lon="6.66244">
        <ele>1332.331138</ele>
        <time>2022-09-04T14:37:02+0200</time>
      </trkpt>
      <trkpt lat="44.90286" lon="6.66253">
        <ele>1333.036398</ele>
        <time>2022-09-04T14:37:05+0200</time>
      </trkpt>
      <trkpt lat="44.90287" lon="6.66261">
        <ele>1334.420953</ele>
        <time>2022-09-04T14:37:08+0200</time>
      </trkpt>
      <trkpt lat="44.90287" lon="6.66268">
        <ele>1335.861078</ele>
        <time>2022-09-04T14:37:11+0200</time>
      </trkpt>
      <trkpt lat="44.90286" lon="6.66275">
        <ele>1336.781264</ele>
        <time>2022-09-04T14:37:14+0200</time>
      </trkpt>
      <trkpt lat="44.90286" lon="6.66284">
        <ele>1339.183275</ele>
        <time>2022-09-04T14:37:17+0200</time>
      </trkpt>
      <trkpt lat="44.90285" lon="6.66292">
        <ele>1339.937515</ele>
        <time>2022-09-04T14:37:20+0200</time>
      </trkpt>
      <trkpt lat="44.90285" lon="6.66301">
        <ele>1340.62156</ele>
        <time>2022-09-04T14:37:23+0200</time>
      </trkpt>
      <trkpt lat="44.90287" lon="6.66309">
        <ele>1340.571681</ele>
        <time>2022-09-04T14:37:26+0200</time>
      </trkpt>
      <trkpt lat="44.90289" lon="6.66315">
        <ele>1340.499123</ele>
        <time>2022-09-04T14:37:28+0200</time>
      </trkpt>
      <trkpt lat="44.90291" lon="6.66324">
        <ele>1339.53694</ele>
        <time>2022-09-04T14:37:31+0200</time>
      </trkpt>
      <trkpt lat="44.90293" lon="6.66332">
        <ele>1339.133316</ele>
        <time>2022-09-04T14:37:33+0200</time>
      </trkpt>
      <trkpt lat="44.90294" lon="6.6634">
        <ele>1338.899831</ele>
        <time>2022-09-04T14:37:35+0200</time>
      </trkpt>
      <trkpt lat="44.90296" lon="6.66347">
        <ele>1338.840312</ele>
        <time>2022-09-04T14:37:37+0200</time>
      </trkpt>
      <trkpt lat="44.90298" lon="6.66356">
        <ele>1339.210508</ele>
        <time>2022-09-04T14:37:39+0200</time>
      </trkpt>
      <trkpt lat="44.903" lon="6.66364">
        <ele>1340.102517</ele>
        <time>2022-09-04T14:37:41+0200</time>
      </trkpt>
      <trkpt lat="44.90301" lon="6.66373">
        <ele>1341.48429</ele>
        <time>2022-09-04T14:37:43+0200</time>
      </trkpt>
      <trkpt lat="44.90302" lon="6.6638">
        <ele>1342.374443</ele>
        <time>2022-09-04T14:37:45+0200</time>
      </trkpt>
      <trkpt lat="44.90303" lon="6.66388">
        <ele>1343.603116</ele>
        <time>2022-09-04T14:37:47+0200</time>
      </trkpt>
      <trkpt lat="44.90305" lon="6.66397">
        <ele>1343.568187</ele>
        <time>2022-09-04T14:37:49+0200</time>
      </trkpt>
      <trkpt lat="44.90307" lon="6.66404">
        <ele>1343.282533</ele>
        <time>2022-09-04T14:37:51+0200</time>
      </trkpt>
      <trkpt lat="44.90309" lon="6.66411">
        <ele>1343.121702</ele>
        <time>2022-09-04T14:37:53+0200</time>
      </trkpt>
      <trkpt lat="44.9031" lon="6.66419">
        <ele>1342.856351</ele>
        <time>2022-09-04T14:37:55+0200</time>
      </trkpt>
      <trkpt lat="44.90313" lon="6.66426">
        <ele>1343.10986</ele>
        <time>2022-09-04T14:37:57+0200</time>
      </trkpt>
      <trkpt lat="44.90316" lon="6.66434">
        <ele>1343.839858</ele>
        <time>2022-09-04T14:37:59+0200</time>
      </trkpt>
      <trkpt lat="44.90319" lon="6.6644">
        <ele>1345.231239</ele>
        <time>2022-09-04T14:38:01+0200</time>
      </trkpt>
      <trkpt lat="44.90322" lon="6.66445">
        <ele>1346.344991</ele>
        <time>2022-09-04T14:38:03+0200</time>
      </trkpt>
      <trkpt lat="44.90329" lon="6.66446">
        <ele>1347.767965</ele>
        <time>2022-09-04T14:38:06+0200</time>
      </trkpt>
      <trkpt lat="44.90334" lon="6.66443">
        <ele>1348.361167</ele>
        <time>2022-09-04T14:38:08+0200</time>
      </trkpt>
      <trkpt lat="44.90338" lon="6.6644">
        <ele>1348.530863</ele>
        <time>2022-09-04T14:38:10+0200</time>
      </trkpt>
      <trkpt lat="44.90343" lon="6.6644">
        <ele>1347.710441</ele>
        <time>2022-09-04T14:38:13+0200</time>
      </trkpt>
      <trkpt lat="44.90348" lon="6.66436">
        <ele>1347.523068</ele>
        <time>2022-09-04T14:38:16+0200</time>
      </trkpt>
      <trkpt lat="44.90351" lon="6.66429">
        <ele>1346.144332</ele>
        <time>2022-09-04T14:38:19+0200</time>
      </trkpt>
      <trkpt lat="44.90355" lon="6.66426">
        <ele>1345.231506</ele>
        <time>2022-09-04T14:38:21+0200</time>
      </trkpt>
      <trkpt lat="44.90356" lon="6.66418">
        <ele>1345.939344</ele>
        <time>2022-09-04T14:38:23+0200</time>
      </trkpt>
      <trkpt lat="44.90361" lon="6.66413">
        <ele>1345.244412</ele>
        <time>2022-09-04T14:38:25+0200</time>
      </trkpt>
      <trkpt lat="44.90368" lon="6.66411">
        <ele>1344.294797</ele>
        <time>2022-09-04T14:38:27+0200</time>
      </trkpt>
      <trkpt lat="44.90375" lon="6.66411">
        <ele>1343.721986</ele>
        <time>2022-09-04T14:38:29+0200</time>
      </trkpt>
      <trkpt lat="44.90384" lon="6.66414">
        <ele>1343.14219</ele>
        <time>2022-09-04T14:38:31+0200</time>
      </trkpt>
      <trkpt lat="44.9039" lon="6.66415">
        <ele>1342.696596</ele>
        <time>2022-09-04T14:38:33+0200</time>
      </trkpt>
      <trkpt lat="44.90398" lon="6.66417">
        <ele>1342.804159</ele>
        <time>2022-09-04T14:38:35+0200</time>
      </trkpt>
      <trkpt lat="44.90405" lon="6.66423">
        <ele>1342.755374</ele>
        <time>2022-09-04T14:38:37+0200</time>
      </trkpt>
      <trkpt lat="44.90412" lon="6.66421">
        <ele>1343.373007</ele>
        <time>2022-09-04T14:38:39+0200</time>
      </trkpt>
      <trkpt lat="44.90421" lon="6.66419">
        <ele>1344.652651</ele>
        <time>2022-09-04T14:38:41+0200</time>
      </trkpt>
      <trkpt lat="44.90428" lon="6.66415">
        <ele>1344.943852</ele>
        <time>2022-09-04T14:38:43+0200</time>
      </trkpt>
      <trkpt lat="44.90431" lon="6.66411">
        <ele>1344.652198</ele>
        <time>2022-09-04T14:38:44+0200</time>
      </trkpt>
      <trkpt lat="44.90438" lon="6.66404">
        <ele>1343.492531</ele>
        <time>2022-09-04T14:38:46+0200</time>
      </trkpt>
      <trkpt lat="44.90445" lon="6.664">
        <ele>1342.26055</ele>
        <time>2022-09-04T14:38:48+0200</time>
      </trkpt>
      <trkpt lat="44.90452" lon="6.66396">
        <ele>1341.844627</ele>
        <time>2022-09-04T14:38:50+0200</time>
      </trkpt>
      <trkpt lat="44.90457" lon="6.66394">
        <ele>1341.079765</ele>
        <time>2022-09-04T14:38:51+0200</time>
      </trkpt>
      <trkpt lat="44.90462" lon="6.66393">
        <ele>1340.402331</ele>
        <time>2022-09-04T14:38:52+0200</time>
      </trkpt>
      <trkpt lat="44.90467" lon="6.66392">
        <ele>1339.844992</ele>
        <time>2022-09-04T14:38:53+0200</time>
      </trkpt>
      <trkpt lat="44.90475" lon="6.6639">
        <ele>1339.445936</ele>
        <time>2022-09-04T14:38:55+0200</time>
      </trkpt>
      <trkpt lat="44.90479" lon="6.66387">
        <ele>1338.844096</ele>
        <time>2022-09-04T14:38:56+0200</time>
      </trkpt>
      <trkpt lat="44.90484" lon="6.66385">
        <ele>1338.422235</ele>
        <time>2022-09-04T14:38:57+0200</time>
      </trkpt>
      <trkpt lat="44.90491" lon="6.66384">
        <ele>1337.423006</ele>
        <time>2022-09-04T14:38:59+0200</time>
      </trkpt>
      <trkpt lat="44.905" lon="6.6638">
        <ele>1336.236363</ele>
        <time>2022-09-04T14:39:01+0200</time>
      </trkpt>
      <trkpt lat="44.90507" lon="6.66383">
        <ele>1335.116127</ele>
        <time>2022-09-04T14:39:03+0200</time>
      </trkpt>
      <trkpt lat="44.90513" lon="6.66385">
        <ele>1335.061319</ele>
        <time>2022-09-04T14:39:05+0200</time>
      </trkpt>
      <trkpt lat="44.90521" lon="6.66388">
        <ele>1334.599964</ele>
        <time>2022-09-04T14:39:07+0200</time>
      </trkpt>
      <trkpt lat="44.90527" lon="6.66391">
        <ele>1334.539986</ele>
        <time>2022-09-04T14:39:08+0200</time>
      </trkpt>
      <trkpt lat="44.9053" lon="6.66398">
        <ele>1335.179223</ele>
        <time>2022-09-04T14:39:09+0200</time>
      </trkpt>
      <trkpt lat="44.90533" lon="6.66403">
        <ele>1337.451629</ele>
        <time>2022-09-04T14:39:11+0200</time>
      </trkpt>
      <trkpt lat="44.90539" lon="6.6641">
        <ele>1339.27513</ele>
        <time>2022-09-04T14:39:14+0200</time>
      </trkpt>
      <trkpt lat="44.90545" lon="6.66414">
        <ele>1340.047673</ele>
        <time>2022-09-04T14:39:16+0200</time>
      </trkpt>
      <trkpt lat="44.90552" lon="6.66423">
        <ele>1340.065196</ele>
        <time>2022-09-04T14:39:18+0200</time>
      </trkpt>
      <trkpt lat="44.90557" lon="6.66432">
        <ele>1340.986421</ele>
        <time>2022-09-04T14:39:20+0200</time>
      </trkpt>
      <trkpt lat="44.90564" lon="6.66438">
        <ele>1342.720348</ele>
        <time>2022-09-04T14:39:22+0200</time>
      </trkpt>
      <trkpt lat="44.90571" lon="6.66439">
        <ele>1343.905412</ele>
        <time>2022-09-04T14:39:24+0200</time>
      </trkpt>
      <trkpt lat="44.90575" lon="6.66442">
        <ele>1344.21298</ele>
        <time>2022-09-04T14:39:25+0200</time>
      </trkpt>
      <trkpt lat="44.90583" lon="6.66445">
        <ele>1344.958935</ele>
        <time>2022-09-04T14:39:27+0200</time>
      </trkpt>
      <trkpt lat="44.90587" lon="6.66448">
        <ele>1345.467868</ele>
        <time>2022-09-04T14:39:28+0200</time>
      </trkpt>
      <trkpt lat="44.90594" lon="6.66455">
        <ele>1345.776302</ele>
        <time>2022-09-04T14:39:30+0200</time>
      </trkpt>
      <trkpt lat="44.90601" lon="6.66458">
        <ele>1345.220934</ele>
        <time>2022-09-04T14:39:32+0200</time>
      </trkpt>
      <trkpt lat="44.90607" lon="6.6646">
        <ele>1344.733969</ele>
        <time>2022-09-04T14:39:33+0200</time>
      </trkpt>
      <trkpt lat="44.90612" lon="6.66464">
        <ele>1343.940304</ele>
        <time>2022-09-04T14:39:34+0200</time>
      </trkpt>
      <trkpt lat="44.90618" lon="6.6647">
        <ele>1343.161104</ele>
        <time>2022-09-04T14:39:36+0200</time>
      </trkpt>
      <trkpt lat="44.90624" lon="6.66474">
        <ele>1343.270726</ele>
        <time>2022-09-04T14:39:38+0200</time>
      </trkpt>
      <trkpt lat="44.9063" lon="6.66474">
        <ele>1343.141278</ele>
        <time>2022-09-04T14:39:39+0200</time>
      </trkpt>
      <trkpt lat="44.90636" lon="6.66475">
        <ele>1343.337624</ele>
        <time>2022-09-04T14:39:40+0200</time>
      </trkpt>
      <trkpt lat="44.90645" lon="6.66482">
        <ele>1343.564678</ele>
        <time>2022-09-04T14:39:42+0200</time>
      </trkpt>
      <trkpt lat="44.90649" lon="6.66484">
        <ele>1342.783972</ele>
        <time>2022-09-04T14:39:43+0200</time>
      </trkpt>
      <trkpt lat="44.90654" lon="6.66488">
        <ele>1341.871907</ele>
        <time>2022-09-04T14:39:44+0200</time>
      </trkpt>
      <trkpt lat="44.90661" lon="6.66496">
        <ele>1340.360453</ele>
        <time>2022-09-04T14:39:46+0200</time>
      </trkpt>
      <trkpt lat="44.90666" lon="6.66502">
        <ele>1339.544249</ele>
        <time>2022-09-04T14:39:47+0200</time>
      </trkpt>
      <trkpt lat="44.9067" lon="6.66506">
        <ele>1338.834714</ele>
        <time>2022-09-04T14:39:48+0200</time>
      </trkpt>
      <trkpt lat="44.90674" lon="6.66511">
        <ele>1338.105701</ele>
        <time>2022-09-04T14:39:49+0200</time>
      </trkpt>
      <trkpt lat="44.90676" lon="6.66518">
        <ele>1337.468923</ele>
        <time>2022-09-04T14:39:50+0200</time>
      </trkpt>
      <trkpt lat="44.90677" lon="6.66526">
        <ele>1337.67588</ele>
        <time>2022-09-04T14:39:51+0200</time>
      </trkpt>
      <trkpt lat="44.90679" lon="6.66534">
        <ele>1338.012477</ele>
        <time>2022-09-04T14:39:52+0200</time>
      </trkpt>
      <trkpt lat="44.90679" lon="6.66542">
        <ele>1338.372156</ele>
        <time>2022-09-04T14:39:53+0200</time>
      </trkpt>
      <trkpt lat="44.90682" lon="6.66549">
        <ele>1338.776206</ele>
        <time>2022-09-04T14:39:54+0200</time>
      </trkpt>
      <trkpt lat="44.90685" lon="6.66555">
        <ele>1339.088517</ele>
        <time>2022-09-04T14:39:55+0200</time>
      </trkpt>
      <trkpt lat="44.90688" lon="6.66562">
        <ele>1339.338602</ele>
        <time>2022-09-04T14:39:56+0200</time>
      </trkpt>
      <trkpt lat="44.90691" lon="6.66567">
        <ele>1339.829186</ele>
        <time>2022-09-04T14:39:57+0200</time>
      </trkpt>
      <trkpt lat="44.90695" lon="6.66579">
        <ele>1340.757008</ele>
        <time>2022-09-04T14:39:59+0200</time>
      </trkpt>
      <trkpt lat="44.90698" lon="6.66587">
        <ele>1341.089156</ele>
        <time>2022-09-04T14:40:00+0200</time>
      </trkpt>
      <trkpt lat="44.90705" lon="6.66596">
        <ele>1342.679311</ele>
        <time>2022-09-04T14:40:02+0200</time>
      </trkpt>
      <trkpt lat="44.9071" lon="6.66601">
        <ele>1343.738442</ele>
        <time>2022-09-04T14:40:03+0200</time>
      </trkpt>
      <trkpt lat="44.90715" lon="6.66605">
        <ele>1344.330214</ele>
        <time>2022-09-04T14:40:04+0200</time>
      </trkpt>
      <trkpt lat="44.9072" lon="6.66611">
        <ele>1344.593183</ele>
        <time>2022-09-04T14:40:05+0200</time>
      </trkpt>
      <trkpt lat="44.90725" lon="6.66619">
        <ele>1345.41952</ele>
        <time>2022-09-04T14:40:07+0200</time>
      </trkpt>
      <trkpt lat="44.90729" lon="6.66622">
        <ele>1345.643469</ele>
        <time>2022-09-04T14:40:08+0200</time>
      </trkpt>
      <trkpt lat="44.90733" lon="6.66624">
        <ele>1345.776381</ele>
        <time>2022-09-04T14:40:09+0200</time>
      </trkpt>
      <trkpt lat="44.90738" lon="6.66628">
        <ele>1344.951606</ele>
        <time>2022-09-04T14:40:10+0200</time>
      </trkpt>
      <trkpt lat="44.90743" lon="6.66631">
        <ele>1344.282168</ele>
        <time>2022-09-04T14:40:11+0200</time>
      </trkpt>
      <trkpt lat="44.90749" lon="6.66635">
        <ele>1343.501271</ele>
        <time>2022-09-04T14:40:12+0200</time>
      </trkpt>
      <trkpt lat="44.90753" lon="6.66641">
        <ele>1342.531372</ele>
        <time>2022-09-04T14:40:13+0200</time>
      </trkpt>
      <trkpt lat="44.90758" lon="6.66646">
        <ele>1341.643109</ele>
        <time>2022-09-04T14:40:14+0200</time>
      </trkpt>
      <trkpt lat="44.90762" lon="6.66652">
        <ele>1340.838306</ele>
        <time>2022-09-04T14:40:15+0200</time>
      </trkpt>
      <trkpt lat="44.90766" lon="6.66657">
        <ele>1340.877567</ele>
        <time>2022-09-04T14:40:16+0200</time>
      </trkpt>
      <trkpt lat="44.90771" lon="6.66661">
        <ele>1340.857055</ele>
        <time>2022-09-04T14:40:17+0200</time>
      </trkpt>
      <trkpt lat="44.90777" lon="6.66663">
        <ele>1340.273703</ele>
        <time>2022-09-04T14:40:18+0200</time>
      </trkpt>
      <trkpt lat="44.90783" lon="6.66667">
        <ele>1338.636819</ele>
        <time>2022-09-04T14:40:20+0200</time>
      </trkpt>
      <trkpt lat="44.90788" lon="6.66672">
        <ele>1338.126054</ele>
        <time>2022-09-04T14:40:21+0200</time>
      </trkpt>
      <trkpt lat="44.90791" lon="6.66678">
        <ele>1337.673746</ele>
        <time>2022-09-04T14:40:22+0200</time>
      </trkpt>
      <trkpt lat="44.90796" lon="6.66687">
        <ele>1337.655116</ele>
        <time>2022-09-04T14:40:23+0200</time>
      </trkpt>
      <trkpt lat="44.90799" lon="6.66697">
        <ele>1337.812318</ele>
        <time>2022-09-04T14:40:24+0200</time>
      </trkpt>
      <trkpt lat="44.90802" lon="6.66704">
        <ele>1338.165695</ele>
        <time>2022-09-04T14:40:25+0200</time>
      </trkpt>
      <trkpt lat="44.90806" lon="6.66712">
        <ele>1338.985223</ele>
        <time>2022-09-04T14:40:26+0200</time>
      </trkpt>
      <trkpt lat="44.90811" lon="6.66716">
        <ele>1340.068377</ele>
        <time>2022-09-04T14:40:27+0200</time>
      </trkpt>
      <trkpt lat="44.90816" lon="6.66717">
        <ele>1341.335876</ele>
        <time>2022-09-04T14:40:28+0200</time>
      </trkpt>
      <trkpt lat="44.90823" lon="6.6672">
        <ele>1342.848415</ele>
        <time>2022-09-04T14:40:30+0200</time>
      </trkpt>
      <trkpt lat="44.90828" lon="6.66726">
        <ele>1343.093171</ele>
        <time>2022-09-04T14:40:32+0200</time>
      </trkpt>
      <trkpt lat="44.90833" lon="6.66728">
        <ele>1342.871292</ele>
        <time>2022-09-04T14:40:33+0200</time>
      </trkpt>
      <trkpt lat="44.90839" lon="6.66728">
        <ele>1342.609602</ele>
        <time>2022-09-04T14:40:34+0200</time>
      </trkpt>
      <trkpt lat="44.90847" lon="6.66731">
        <ele>1339.977205</ele>
        <time>2022-09-04T14:40:36+0200</time>
      </trkpt>
      <trkpt lat="44.90853" lon="6.66732">
        <ele>1338.44688</ele>
        <time>2022-09-04T14:40:37+0200</time>
      </trkpt>
      <trkpt lat="44.90858" lon="6.66738">
        <ele>1337.455719</ele>
        <time>2022-09-04T14:40:38+0200</time>
      </trkpt>
      <trkpt lat="44.90862" lon="6.66743">
        <ele>1337.108303</ele>
        <time>2022-09-04T14:40:39+0200</time>
      </trkpt>
      <trkpt lat="44.90865" lon="6.6675">
        <ele>1337.820488</ele>
        <time>2022-09-04T14:40:41+0200</time>
      </trkpt>
      <trkpt lat="44.90871" lon="6.66751">
        <ele>1338.648484</ele>
        <time>2022-09-04T14:40:43+0200</time>
      </trkpt>
      <trkpt lat="44.90878" lon="6.66756">
        <ele>1340.330342</ele>
        <time>2022-09-04T14:40:46+0200</time>
      </trkpt>
      <trkpt lat="44.90884" lon="6.6676">
        <ele>1341.619257</ele>
        <time>2022-09-04T14:40:48+0200</time>
      </trkpt>
      <trkpt lat="44.90891" lon="6.66761">
        <ele>1342.470924</ele>
        <time>2022-09-04T14:40:50+0200</time>
      </trkpt>
      <trkpt lat="44.909" lon="6.66765">
        <ele>1342.795201</ele>
        <time>2022-09-04T14:40:52+0200</time>
      </trkpt>
      <trkpt lat="44.90904" lon="6.66768">
        <ele>1343.034015</ele>
        <time>2022-09-04T14:40:53+0200</time>
      </trkpt>
      <trkpt lat="44.90908" lon="6.66772">
        <ele>1343.600304</ele>
        <time>2022-09-04T14:40:54+0200</time>
      </trkpt>
      <trkpt lat="44.90911" lon="6.66778">
        <ele>1344.046708</ele>
        <time>2022-09-04T14:40:55+0200</time>
      </trkpt>
      <trkpt lat="44.90914" lon="6.66784">
        <ele>1345.065591</ele>
        <time>2022-09-04T14:40:56+0200</time>
      </trkpt>
      <trkpt lat="44.90917" lon="6.6679">
        <ele>1345.417968</ele>
        <time>2022-09-04T14:40:57+0200</time>
      </trkpt>
      <trkpt lat="44.90918" lon="6.66801">
        <ele>1345.195642</ele>
        <time>2022-09-04T14:40:58+0200</time>
      </trkpt>
      <trkpt lat="44.90919" lon="6.66809">
        <ele>1345.176748</ele>
        <time>2022-09-04T14:40:59+0200</time>
      </trkpt>
      <trkpt lat="44.9092" lon="6.66817">
        <ele>1344.566918</ele>
        <time>2022-09-04T14:41:00+0200</time>
      </trkpt>
      <trkpt lat="44.90923" lon="6.66822">
        <ele>1345.133062</ele>
        <time>2022-09-04T14:41:01+0200</time>
      </trkpt>
      <trkpt lat="44.90925" lon="6.66829">
        <ele>1345.689917</ele>
        <time>2022-09-04T14:41:02+0200</time>
      </trkpt>
      <trkpt lat="44.90928" lon="6.6684">
        <ele>1346.502422</ele>
        <time>2022-09-04T14:41:04+0200</time>
      </trkpt>
      <trkpt lat="44.90934" lon="6.66849">
        <ele>1347.61071</ele>
        <time>2022-09-04T14:41:06+0200</time>
      </trkpt>
      <trkpt lat="44.90937" lon="6.66855">
        <ele>1347.788142</ele>
        <time>2022-09-04T14:41:07+0200</time>
      </trkpt>
      <trkpt lat="44.90939" lon="6.66862">
        <ele>1348.769097</ele>
        <time>2022-09-04T14:41:09+0200</time>
      </trkpt>
      <trkpt lat="44.9094" lon="6.66871">
        <ele>1349.054713</ele>
        <time>2022-09-04T14:41:11+0200</time>
      </trkpt>
      <trkpt lat="44.90941" lon="6.6688">
        <ele>1349.864475</ele>
        <time>2022-09-04T14:41:13+0200</time>
      </trkpt>
      <trkpt lat="44.90947" lon="6.66888">
        <ele>1350.923367</ele>
        <time>2022-09-04T14:41:15+0200</time>
      </trkpt>
      <trkpt lat="44.90952" lon="6.66894">
        <ele>1351.410031</ele>
        <time>2022-09-04T14:41:17+0200</time>
      </trkpt>
      <trkpt lat="44.90958" lon="6.66902">
        <ele>1351.514134</ele>
        <time>2022-09-04T14:41:19+0200</time>
      </trkpt>
      <trkpt lat="44.90964" lon="6.66909">
        <ele>1351.223135</ele>
        <time>2022-09-04T14:41:21+0200</time>
      </trkpt>
      <trkpt lat="44.90967" lon="6.66916">
        <ele>1350.473373</ele>
        <time>2022-09-04T14:41:22+0200</time>
      </trkpt>
      <trkpt lat="44.9097" lon="6.66921">
        <ele>1350.577426</ele>
        <time>2022-09-04T14:41:23+0200</time>
      </trkpt>
      <trkpt lat="44.90976" lon="6.6693">
        <ele>1350.30103</ele>
        <time>2022-09-04T14:41:25+0200</time>
      </trkpt>
      <trkpt lat="44.9098" lon="6.66935">
        <ele>1349.521067</ele>
        <time>2022-09-04T14:41:26+0200</time>
      </trkpt>
      <trkpt lat="44.90986" lon="6.66944">
        <ele>1348.344283</ele>
        <time>2022-09-04T14:41:28+0200</time>
      </trkpt>
      <trkpt lat="44.90991" lon="6.66955">
        <ele>1347.696204</ele>
        <time>2022-09-04T14:41:30+0200</time>
      </trkpt>
      <trkpt lat="44.90993" lon="6.66961">
        <ele>1347.841577</ele>
        <time>2022-09-04T14:41:31+0200</time>
      </trkpt>
      <trkpt lat="44.90995" lon="6.66968">
        <ele>1347.638847</ele>
        <time>2022-09-04T14:41:32+0200</time>
      </trkpt>
      <trkpt lat="44.90995" lon="6.66977">
        <ele>1347.820305</ele>
        <time>2022-09-04T14:41:33+0200</time>
      </trkpt>
      <trkpt lat="44.90995" lon="6.66984">
        <ele>1348.572324</ele>
        <time>2022-09-04T14:41:34+0200</time>
      </trkpt>
      <trkpt lat="44.90997" lon="6.66992">
        <ele>1349.125823</ele>
        <time>2022-09-04T14:41:35+0200</time>
      </trkpt>
      <trkpt lat="44.90999" lon="6.66998">
        <ele>1349.241569</ele>
        <time>2022-09-04T14:41:36+0200</time>
      </trkpt>
      <trkpt lat="44.90999" lon="6.67007">
        <ele>1348.911652</ele>
        <time>2022-09-04T14:41:37+0200</time>
      </trkpt>
      <trkpt lat="44.91" lon="6.67016">
        <ele>1348.414968</ele>
        <time>2022-09-04T14:41:38+0200</time>
      </trkpt>
      <trkpt lat="44.91" lon="6.67026">
        <ele>1348.093491</ele>
        <time>2022-09-04T14:41:39+0200</time>
      </trkpt>
      <trkpt lat="44.91" lon="6.67035">
        <ele>1347.996483</ele>
        <time>2022-09-04T14:41:40+0200</time>
      </trkpt>
      <trkpt lat="44.91" lon="6.67043">
        <ele>1347.730736</ele>
        <time>2022-09-04T14:41:41+0200</time>
      </trkpt>
      <trkpt lat="44.91" lon="6.6705">
        <ele>1348.299991</ele>
        <time>2022-09-04T14:41:42+0200</time>
      </trkpt>
      <trkpt lat="44.91" lon="6.67058">
        <ele>1348.799522</ele>
        <time>2022-09-04T14:41:43+0200</time>
      </trkpt>
      <trkpt lat="44.91001" lon="6.67065">
        <ele>1348.735649</ele>
        <time>2022-09-04T14:41:44+0200</time>
      </trkpt>
      <trkpt lat="44.91001" lon="6.67072">
        <ele>1348.410952</ele>
        <time>2022-09-04T14:41:45+0200</time>
      </trkpt>
      <trkpt lat="44.90998" lon="6.67079">
        <ele>1348.119548</ele>
        <time>2022-09-04T14:41:46+0200</time>
      </trkpt>
      <trkpt lat="44.90999" lon="6.67089">
        <ele>1348.108661</ele>
        <time>2022-09-04T14:41:48+0200</time>
      </trkpt>
      <trkpt lat="44.91002" lon="6.67096">
        <ele>1348.939393</ele>
        <time>2022-09-04T14:41:49+0200</time>
      </trkpt>
      <trkpt lat="44.91004" lon="6.67103">
        <ele>1349.300329</ele>
        <time>2022-09-04T14:41:50+0200</time>
      </trkpt>
      <trkpt lat="44.91005" lon="6.67109">
        <ele>1349.756374</ele>
        <time>2022-09-04T14:41:51+0200</time>
      </trkpt>
      <trkpt lat="44.91004" lon="6.67125">
        <ele>1349.07745</ele>
        <time>2022-09-04T14:41:53+0200</time>
      </trkpt>
      <trkpt lat="44.91004" lon="6.67134">
        <ele>1349.380408</ele>
        <time>2022-09-04T14:41:54+0200</time>
      </trkpt>
      <trkpt lat="44.91005" lon="6.67141">
        <ele>1350.027565</ele>
        <time>2022-09-04T14:41:55+0200</time>
      </trkpt>
      <trkpt lat="44.91006" lon="6.67147">
        <ele>1350.840886</ele>
        <time>2022-09-04T14:41:56+0200</time>
      </trkpt>
      <trkpt lat="44.91008" lon="6.67154">
        <ele>1351.670847</ele>
        <time>2022-09-04T14:41:57+0200</time>
      </trkpt>
      <trkpt lat="44.91009" lon="6.67161">
        <ele>1352.483976</ele>
        <time>2022-09-04T14:41:58+0200</time>
      </trkpt>
      <trkpt lat="44.91008" lon="6.67168">
        <ele>1353.000681</ele>
        <time>2022-09-04T14:41:59+0200</time>
      </trkpt>
      <trkpt lat="44.91006" lon="6.67179">
        <ele>1352.664224</ele>
        <time>2022-09-04T14:42:01+0200</time>
      </trkpt>
      <trkpt lat="44.91005" lon="6.67192">
        <ele>1354.107767</ele>
        <time>2022-09-04T14:42:03+0200</time>
      </trkpt>
      <trkpt lat="44.91004" lon="6.67207">
        <ele>1355.077582</ele>
        <time>2022-09-04T14:42:05+0200</time>
      </trkpt>
      <trkpt lat="44.91005" lon="6.67214">
        <ele>1356.242305</ele>
        <time>2022-09-04T14:42:06+0200</time>
      </trkpt>
      <trkpt lat="44.91008" lon="6.6722">
        <ele>1357.853795</ele>
        <time>2022-09-04T14:42:07+0200</time>
      </trkpt>
      <trkpt lat="44.91013" lon="6.67223">
        <ele>1359.321119</ele>
        <time>2022-09-04T14:42:08+0200</time>
      </trkpt>
      <trkpt lat="44.91023" lon="6.67227">
        <ele>1360.705544</ele>
        <time>2022-09-04T14:42:10+0200</time>
      </trkpt>
      <trkpt lat="44.9103" lon="6.67234">
        <ele>1361.087391</ele>
        <time>2022-09-04T14:42:12+0200</time>
      </trkpt>
      <trkpt lat="44.91036" lon="6.67237">
        <ele>1361.248134</ele>
        <time>2022-09-04T14:42:13+0200</time>
      </trkpt>
      <trkpt lat="44.91042" lon="6.6724">
        <ele>1361.311567</ele>
        <time>2022-09-04T14:42:14+0200</time>
      </trkpt>
      <trkpt lat="44.91048" lon="6.67242">
        <ele>1360.797163</ele>
        <time>2022-09-04T14:42:15+0200</time>
      </trkpt>
      <trkpt lat="44.91054" lon="6.67244">
        <ele>1359.949803</ele>
        <time>2022-09-04T14:42:16+0200</time>
      </trkpt>
      <trkpt lat="44.9106" lon="6.67245">
        <ele>1358.791873</ele>
        <time>2022-09-04T14:42:17+0200</time>
      </trkpt>
      <trkpt lat="44.91066" lon="6.6725">
        <ele>1357.553747</ele>
        <time>2022-09-04T14:42:18+0200</time>
      </trkpt>
      <trkpt lat="44.91071" lon="6.67254">
        <ele>1356.81341</ele>
        <time>2022-09-04T14:42:19+0200</time>
      </trkpt>
      <trkpt lat="44.91078" lon="6.67258">
        <ele>1355.959715</ele>
        <time>2022-09-04T14:42:20+0200</time>
      </trkpt>
      <trkpt lat="44.91083" lon="6.67262">
        <ele>1355.220134</ele>
        <time>2022-09-04T14:42:21+0200</time>
      </trkpt>
      <trkpt lat="44.91087" lon="6.67267">
        <ele>1354.156202</ele>
        <time>2022-09-04T14:42:22+0200</time>
      </trkpt>
      <trkpt lat="44.91092" lon="6.67272">
        <ele>1353.657023</ele>
        <time>2022-09-04T14:42:23+0200</time>
      </trkpt>
      <trkpt lat="44.91096" lon="6.67279">
        <ele>1353.205761</ele>
        <time>2022-09-04T14:42:24+0200</time>
      </trkpt>
      <trkpt lat="44.91099" lon="6.67285">
        <ele>1352.601761</ele>
        <time>2022-09-04T14:42:25+0200</time>
      </trkpt>
      <trkpt lat="44.91104" lon="6.67298">
        <ele>1351.705368</ele>
        <time>2022-09-04T14:42:27+0200</time>
      </trkpt>
      <trkpt lat="44.91108" lon="6.67306">
        <ele>1352.209558</ele>
        <time>2022-09-04T14:42:28+0200</time>
      </trkpt>
      <trkpt lat="44.91113" lon="6.6731">
        <ele>1352.716045</ele>
        <time>2022-09-04T14:42:29+0200</time>
      </trkpt>
      <trkpt lat="44.91117" lon="6.67316">
        <ele>1353.18792</ele>
        <time>2022-09-04T14:42:30+0200</time>
      </trkpt>
      <trkpt lat="44.91122" lon="6.6732">
        <ele>1354.013173</ele>
        <time>2022-09-04T14:42:31+0200</time>
      </trkpt>
      <trkpt lat="44.91129" lon="6.67328">
        <ele>1356.367245</ele>
        <time>2022-09-04T14:42:33+0200</time>
      </trkpt>
      <trkpt lat="44.91135" lon="6.67332">
        <ele>1357.508755</ele>
        <time>2022-09-04T14:42:34+0200</time>
      </trkpt>
      <trkpt lat="44.9114" lon="6.67337">
        <ele>1357.818251</ele>
        <time>2022-09-04T14:42:35+0200</time>
      </trkpt>
      <trkpt lat="44.91144" lon="6.67343">
        <ele>1357.060974</ele>
        <time>2022-09-04T14:42:36+0200</time>
      </trkpt>
      <trkpt lat="44.91147" lon="6.67349">
        <ele>1356.792026</ele>
        <time>2022-09-04T14:42:37+0200</time>
      </trkpt>
      <trkpt lat="44.91153" lon="6.67355">
        <ele>1356.81448</ele>
        <time>2022-09-04T14:42:38+0200</time>
      </trkpt>
      <trkpt lat="44.91158" lon="6.6736">
        <ele>1356.736618</ele>
        <time>2022-09-04T14:42:39+0200</time>
      </trkpt>
      <trkpt lat="44.91162" lon="6.67364">
        <ele>1356.325883</ele>
        <time>2022-09-04T14:42:40+0200</time>
      </trkpt>
      <trkpt lat="44.91167" lon="6.67371">
        <ele>1356.647804</ele>
        <time>2022-09-04T14:42:41+0200</time>
      </trkpt>
      <trkpt lat="44.91171" lon="6.67377">
        <ele>1356.877381</ele>
        <time>2022-09-04T14:42:42+0200</time>
      </trkpt>
      <trkpt lat="44.91176" lon="6.67381">
        <ele>1356.384984</ele>
        <time>2022-09-04T14:42:43+0200</time>
      </trkpt>
      <trkpt lat="44.91181" lon="6.67385">
        <ele>1356.126162</ele>
        <time>2022-09-04T14:42:44+0200</time>
      </trkpt>
      <trkpt lat="44.91184" lon="6.67391">
        <ele>1355.564288</ele>
        <time>2022-09-04T14:42:45+0200</time>
      </trkpt>
      <trkpt lat="44.91187" lon="6.67399">
        <ele>1354.928199</ele>
        <time>2022-09-04T14:42:46+0200</time>
      </trkpt>
      <trkpt lat="44.91189" lon="6.6741">
        <ele>1354.423049</ele>
        <time>2022-09-04T14:42:47+0200</time>
      </trkpt>
      <trkpt lat="44.91191" lon="6.67419">
        <ele>1354.50937</ele>
        <time>2022-09-04T14:42:48+0200</time>
      </trkpt>
      <trkpt lat="44.9119" lon="6.67432">
        <ele>1354.888792</ele>
        <time>2022-09-04T14:42:50+0200</time>
      </trkpt>
      <trkpt lat="44.91191" lon="6.67439">
        <ele>1355.085763</ele>
        <time>2022-09-04T14:42:51+0200</time>
      </trkpt>
      <trkpt lat="44.91193" lon="6.67446">
        <ele>1355.810757</ele>
        <time>2022-09-04T14:42:52+0200</time>
      </trkpt>
      <trkpt lat="44.91198" lon="6.6745">
        <ele>1356.371196</ele>
        <time>2022-09-04T14:42:53+0200</time>
      </trkpt>
      <trkpt lat="44.91203" lon="6.67454">
        <ele>1356.950191</ele>
        <time>2022-09-04T14:42:54+0200</time>
      </trkpt>
      <trkpt lat="44.91207" lon="6.67458">
        <ele>1357.511849</ele>
        <time>2022-09-04T14:42:55+0200</time>
      </trkpt>
      <trkpt lat="44.9121" lon="6.67465">
        <ele>1357.632084</ele>
        <time>2022-09-04T14:42:56+0200</time>
      </trkpt>
      <trkpt lat="44.91212" lon="6.67476">
        <ele>1357.206065</ele>
        <time>2022-09-04T14:42:58+0200</time>
      </trkpt>
      <trkpt lat="44.91219" lon="6.67484">
        <ele>1357.412071</ele>
        <time>2022-09-04T14:43:00+0200</time>
      </trkpt>
      <trkpt lat="44.91223" lon="6.67488">
        <ele>1357.704557</ele>
        <time>2022-09-04T14:43:01+0200</time>
      </trkpt>
      <trkpt lat="44.91226" lon="6.67495">
        <ele>1357.73586</ele>
        <time>2022-09-04T14:43:02+0200</time>
      </trkpt>
      <trkpt lat="44.91228" lon="6.67501">
        <ele>1357.773804</ele>
        <time>2022-09-04T14:43:03+0200</time>
      </trkpt>
      <trkpt lat="44.91232" lon="6.67506">
        <ele>1358.211657</ele>
        <time>2022-09-04T14:43:04+0200</time>
      </trkpt>
      <trkpt lat="44.91236" lon="6.67511">
        <ele>1358.180694</ele>
        <time>2022-09-04T14:43:05+0200</time>
      </trkpt>
      <trkpt lat="44.91241" lon="6.67514">
        <ele>1358.083272</ele>
        <time>2022-09-04T14:43:06+0200</time>
      </trkpt>
      <trkpt lat="44.91251" lon="6.67518">
        <ele>1357.846038</ele>
        <time>2022-09-04T14:43:08+0200</time>
      </trkpt>
      <trkpt lat="44.91255" lon="6.67523">
        <ele>1357.741152</ele>
        <time>2022-09-04T14:43:09+0200</time>
      </trkpt>
      <trkpt lat="44.9126" lon="6.67527">
        <ele>1357.472279</ele>
        <time>2022-09-04T14:43:10+0200</time>
      </trkpt>
      <trkpt lat="44.91265" lon="6.6753">
        <ele>1357.203069</ele>
        <time>2022-09-04T14:43:11+0200</time>
      </trkpt>
      <trkpt lat="44.91275" lon="6.67533">
        <ele>1356.262911</ele>
        <time>2022-09-04T14:43:13+0200</time>
      </trkpt>
      <trkpt lat="44.9128" lon="6.67535">
        <ele>1356.061924</ele>
        <time>2022-09-04T14:43:14+0200</time>
      </trkpt>
      <trkpt lat="44.91287" lon="6.67534">
        <ele>1355.657657</ele>
        <time>2022-09-04T14:43:15+0200</time>
      </trkpt>
      <trkpt lat="44.91294" lon="6.67531">
        <ele>1355.577512</ele>
        <time>2022-09-04T14:43:16+0200</time>
      </trkpt>
      <trkpt lat="44.91299" lon="6.67528">
        <ele>1355.525594</ele>
        <time>2022-09-04T14:43:17+0200</time>
      </trkpt>
      <trkpt lat="44.91303" lon="6.67525">
        <ele>1354.864653</ele>
        <time>2022-09-04T14:43:18+0200</time>
      </trkpt>
      <trkpt lat="44.91311" lon="6.67517">
        <ele>1354.503774</ele>
        <time>2022-09-04T14:43:20+0200</time>
      </trkpt>
      <trkpt lat="44.91315" lon="6.67513">
        <ele>1354.676547</ele>
        <time>2022-09-04T14:43:21+0200</time>
      </trkpt>
      <trkpt lat="44.9132" lon="6.67509">
        <ele>1354.829362</ele>
        <time>2022-09-04T14:43:22+0200</time>
      </trkpt>
      <trkpt lat="44.91326" lon="6.67507">
        <ele>1354.744247</ele>
        <time>2022-09-04T14:43:23+0200</time>
      </trkpt>
      <trkpt lat="44.91332" lon="6.67504">
        <ele>1354.833463</ele>
        <time>2022-09-04T14:43:24+0200</time>
      </trkpt>
      <trkpt lat="44.91337" lon="6.675">
        <ele>1355.077796</ele>
        <time>2022-09-04T14:43:25+0200</time>
      </trkpt>
      <trkpt lat="44.91346" lon="6.67495">
        <ele>1355.036588</ele>
        <time>2022-09-04T14:43:27+0200</time>
      </trkpt>
      <trkpt lat="44.91352" lon="6.67492">
        <ele>1354.5108</ele>
        <time>2022-09-04T14:43:28+0200</time>
      </trkpt>
      <trkpt lat="44.9136" lon="6.67488">
        <ele>1353.817795</ele>
        <time>2022-09-04T14:43:30+0200</time>
      </trkpt>
      <trkpt lat="44.91366" lon="6.67487">
        <ele>1353.596795</ele>
        <time>2022-09-04T14:43:31+0200</time>
      </trkpt>
      <trkpt lat="44.91372" lon="6.67485">
        <ele>1353.740742</ele>
        <time>2022-09-04T14:43:32+0200</time>
      </trkpt>
      <trkpt lat="44.91377" lon="6.67483">
        <ele>1353.478222</ele>
        <time>2022-09-04T14:43:33+0200</time>
      </trkpt>
      <trkpt lat="44.91382" lon="6.6748">
        <ele>1353.847615</ele>
        <time>2022-09-04T14:43:34+0200</time>
      </trkpt>
      <trkpt lat="44.91388" lon="6.6748">
        <ele>1354.088638</ele>
        <time>2022-09-04T14:43:35+0200</time>
      </trkpt>
      <trkpt lat="44.91395" lon="6.67476">
        <ele>1354.210487</ele>
        <time>2022-09-04T14:43:36+0200</time>
      </trkpt>
      <trkpt lat="44.91402" lon="6.67474">
        <ele>1353.717976</ele>
        <time>2022-09-04T14:43:37+0200</time>
      </trkpt>
      <trkpt lat="44.91409" lon="6.67473">
        <ele>1353.549414</ele>
        <time>2022-09-04T14:43:38+0200</time>
      </trkpt>
      <trkpt lat="44.91415" lon="6.67473">
        <ele>1353.602472</ele>
        <time>2022-09-04T14:43:39+0200</time>
      </trkpt>
      <trkpt lat="44.91421" lon="6.67473">
        <ele>1353.400167</ele>
        <time>2022-09-04T14:43:40+0200</time>
      </trkpt>
      <trkpt lat="44.91426" lon="6.67473">
        <ele>1353.949186</ele>
        <time>2022-09-04T14:43:41+0200</time>
      </trkpt>
      <trkpt lat="44.91431" lon="6.67472">
        <ele>1354.193061</ele>
        <time>2022-09-04T14:43:42+0200</time>
      </trkpt>
      <trkpt lat="44.91438" lon="6.67472">
        <ele>1353.923767</ele>
        <time>2022-09-04T14:43:43+0200</time>
      </trkpt>
      <trkpt lat="44.91444" lon="6.6747">
        <ele>1353.796204</ele>
        <time>2022-09-04T14:43:44+0200</time>
      </trkpt>
      <trkpt lat="44.9145" lon="6.67469">
        <ele>1354.053555</ele>
        <time>2022-09-04T14:43:45+0200</time>
      </trkpt>
      <trkpt lat="44.91456" lon="6.67471">
        <ele>1354.202524</ele>
        <time>2022-09-04T14:43:46+0200</time>
      </trkpt>
      <trkpt lat="44.91461" lon="6.67475">
        <ele>1354.569513</ele>
        <time>2022-09-04T14:43:47+0200</time>
      </trkpt>
      <trkpt lat="44.91465" lon="6.67478">
        <ele>1355.036382</ele>
        <time>2022-09-04T14:43:48+0200</time>
      </trkpt>
      <trkpt lat="44.91469" lon="6.67483">
        <ele>1354.029331</ele>
        <time>2022-09-04T14:43:50+0200</time>
      </trkpt>
      <trkpt lat="44.91475" lon="6.67483">
        <ele>1353.844674</ele>
        <time>2022-09-04T14:43:52+0200</time>
      </trkpt>
      <trkpt lat="44.91481" lon="6.67481">
        <ele>1353.614504</ele>
        <time>2022-09-04T14:43:54+0200</time>
      </trkpt>
      <trkpt lat="44.91487" lon="6.67484">
        <ele>1353.244917</ele>
        <time>2022-09-04T14:43:56+0200</time>
      </trkpt>
      <trkpt lat="44.91493" lon="6.67485">
        <ele>1353.126342</ele>
        <time>2022-09-04T14:43:58+0200</time>
      </trkpt>
      <trkpt lat="44.91498" lon="6.67486">
        <ele>1353.380615</ele>
        <time>2022-09-04T14:44:00+0200</time>
      </trkpt>
      <trkpt lat="44.91504" lon="6.67491">
        <ele>1353.703888</ele>
        <time>2022-09-04T14:44:02+0200</time>
      </trkpt>
      <trkpt lat="44.9151" lon="6.67495">
        <ele>1353.920436</ele>
        <time>2022-09-04T14:44:04+0200</time>
      </trkpt>
      <trkpt lat="44.91514" lon="6.67499">
        <ele>1354.012148</ele>
        <time>2022-09-04T14:44:05+0200</time>
      </trkpt>
      <trkpt lat="44.91518" lon="6.67502">
        <ele>1354.261078</ele>
        <time>2022-09-04T14:44:06+0200</time>
      </trkpt>
      <trkpt lat="44.91522" lon="6.67505">
        <ele>1354.764623</ele>
        <time>2022-09-04T14:44:07+0200</time>
      </trkpt>
      <trkpt lat="44.9153" lon="6.67511">
        <ele>1356.62112</ele>
        <time>2022-09-04T14:44:09+0200</time>
      </trkpt>
      <trkpt lat="44.91534" lon="6.67515">
        <ele>1357.290185</ele>
        <time>2022-09-04T14:44:10+0200</time>
      </trkpt>
      <trkpt lat="44.91542" lon="6.67521">
        <ele>1358.58694</ele>
        <time>2022-09-04T14:44:12+0200</time>
      </trkpt>
      <trkpt lat="44.9155" lon="6.67526">
        <ele>1359.792392</ele>
        <time>2022-09-04T14:44:14+0200</time>
      </trkpt>
      <trkpt lat="44.91556" lon="6.67534">
        <ele>1360.106404</ele>
        <time>2022-09-04T14:44:16+0200</time>
      </trkpt>
      <trkpt lat="44.91564" lon="6.67543">
        <ele>1360.406976</ele>
        <time>2022-09-04T14:44:18+0200</time>
      </trkpt>
      <trkpt lat="44.91569" lon="6.67544">
        <ele>1360.568475</ele>
        <time>2022-09-04T14:44:19+0200</time>
      </trkpt>
      <trkpt lat="44.91573" lon="6.67547">
        <ele>1360.722718</ele>
        <time>2022-09-04T14:44:20+0200</time>
      </trkpt>
      <trkpt lat="44.91577" lon="6.67551">
        <ele>1361.261548</ele>
        <time>2022-09-04T14:44:21+0200</time>
      </trkpt>
      <trkpt lat="44.91582" lon="6.67555">
        <ele>1361.048586</ele>
        <time>2022-09-04T14:44:22+0200</time>
      </trkpt>
      <trkpt lat="44.91586" lon="6.67558">
        <ele>1360.687618</ele>
        <time>2022-09-04T14:44:23+0200</time>
      </trkpt>
      <trkpt lat="44.9159" lon="6.67562">
        <ele>1360.697975</ele>
        <time>2022-09-04T14:44:24+0200</time>
      </trkpt>
      <trkpt lat="44.91595" lon="6.67565">
        <ele>1361.036717</ele>
        <time>2022-09-04T14:44:25+0200</time>
      </trkpt>
      <trkpt lat="44.91599" lon="6.67568">
        <ele>1361.576808</ele>
        <time>2022-09-04T14:44:26+0200</time>
      </trkpt>
      <trkpt lat="44.91603" lon="6.67572">
        <ele>1362.368347</ele>
        <time>2022-09-04T14:44:27+0200</time>
      </trkpt>
      <trkpt lat="44.91608" lon="6.67576">
        <ele>1363.135166</ele>
        <time>2022-09-04T14:44:28+0200</time>
      </trkpt>
      <trkpt lat="44.91612" lon="6.6758">
        <ele>1364.097765</ele>
        <time>2022-09-04T14:44:29+0200</time>
      </trkpt>
      <trkpt lat="44.91615" lon="6.67585">
        <ele>1364.556722</ele>
        <time>2022-09-04T14:44:30+0200</time>
      </trkpt>
      <trkpt lat="44.9162" lon="6.67588">
        <ele>1365.283595</ele>
        <time>2022-09-04T14:44:31+0200</time>
      </trkpt>
      <trkpt lat="44.91624" lon="6.67592">
        <ele>1366.054591</ele>
        <time>2022-09-04T14:44:32+0200</time>
      </trkpt>
      <trkpt lat="44.91627" lon="6.67596">
        <ele>1366.326117</ele>
        <time>2022-09-04T14:44:33+0200</time>
      </trkpt>
      <trkpt lat="44.91631" lon="6.67601">
        <ele>1366.454258</ele>
        <time>2022-09-04T14:44:34+0200</time>
      </trkpt>
      <trkpt lat="44.91636" lon="6.67603">
        <ele>1366.796498</ele>
        <time>2022-09-04T14:44:35+0200</time>
      </trkpt>
      <trkpt lat="44.91644" lon="6.67608">
        <ele>1367.385257</ele>
        <time>2022-09-04T14:44:37+0200</time>
      </trkpt>
      <trkpt lat="44.91652" lon="6.67613">
        <ele>1367.216712</ele>
        <time>2022-09-04T14:44:39+0200</time>
      </trkpt>
      <trkpt lat="44.91656" lon="6.67616">
        <ele>1367.170521</ele>
        <time>2022-09-04T14:44:40+0200</time>
      </trkpt>
      <trkpt lat="44.9166" lon="6.67619">
        <ele>1367.212154</ele>
        <time>2022-09-04T14:44:41+0200</time>
      </trkpt>
      <trkpt lat="44.91666" lon="6.67623">
        <ele>1367.024137</ele>
        <time>2022-09-04T14:44:42+0200</time>
      </trkpt>
      <trkpt lat="44.9167" lon="6.67625">
        <ele>1367.239455</ele>
        <time>2022-09-04T14:44:43+0200</time>
      </trkpt>
      <trkpt lat="44.91678" lon="6.6763">
        <ele>1366.857927</ele>
        <time>2022-09-04T14:44:45+0200</time>
      </trkpt>
      <trkpt lat="44.91685" lon="6.67636">
        <ele>1367.042283</ele>
        <time>2022-09-04T14:44:47+0200</time>
      </trkpt>
      <trkpt lat="44.91689" lon="6.6764">
        <ele>1366.927273</ele>
        <time>2022-09-04T14:44:48+0200</time>
      </trkpt>
      <trkpt lat="44.91694" lon="6.67644">
        <ele>1367.214925</ele>
        <time>2022-09-04T14:44:49+0200</time>
      </trkpt>
      <trkpt lat="44.91699" lon="6.67647">
        <ele>1367.506864</ele>
        <time>2022-09-04T14:44:50+0200</time>
      </trkpt>
      <trkpt lat="44.91708" lon="6.67649">
        <ele>1368.481891</ele>
        <time>2022-09-04T14:44:52+0200</time>
      </trkpt>
      <trkpt lat="44.91712" lon="6.67649">
        <ele>1368.908063</ele>
        <time>2022-09-04T14:44:53+0200</time>
      </trkpt>
      <trkpt lat="44.9172" lon="6.67646">
        <ele>1368.671095</ele>
        <time>2022-09-04T14:44:55+0200</time>
      </trkpt>
      <trkpt lat="44.91722" lon="6.6764">
        <ele>1368.231939</ele>
        <time>2022-09-04T14:44:56+0200</time>
      </trkpt>
      <trkpt lat="44.91726" lon="6.67633">
        <ele>1367.657055</ele>
        <time>2022-09-04T14:44:57+0200</time>
      </trkpt>
      <trkpt lat="44.9173" lon="6.67624">
        <ele>1367.193288</ele>
        <time>2022-09-04T14:44:58+0200</time>
      </trkpt>
      <trkpt lat="44.91731" lon="6.67612">
        <ele>1366.418281</ele>
        <time>2022-09-04T14:44:59+0200</time>
      </trkpt>
      <trkpt lat="44.91731" lon="6.67599">
        <ele>1365.70725</ele>
        <time>2022-09-04T14:45:00+0200</time>
      </trkpt>
      <trkpt lat="44.9173" lon="6.67585">
        <ele>1364.581158</ele>
        <time>2022-09-04T14:45:01+0200</time>
      </trkpt>
      <trkpt lat="44.9173" lon="6.67572">
        <ele>1363.523249</ele>
        <time>2022-09-04T14:45:02+0200</time>
      </trkpt>
      <trkpt lat="44.91729" lon="6.67561">
        <ele>1362.468216</ele>
        <time>2022-09-04T14:45:03+0200</time>
      </trkpt>
      <trkpt lat="44.91727" lon="6.67551">
        <ele>1361.547633</ele>
        <time>2022-09-04T14:45:04+0200</time>
      </trkpt>
      <trkpt lat="44.91726" lon="6.67544">
        <ele>1360.652712</ele>
        <time>2022-09-04T14:45:05+0200</time>
      </trkpt>
      <trkpt lat="44.91723" lon="6.67539">
        <ele>1359.668787</ele>
        <time>2022-09-04T14:45:06+0200</time>
      </trkpt>
      <trkpt lat="44.91724" lon="6.67532">
        <ele>1359.256958</ele>
        <time>2022-09-04T14:45:07+0200</time>
      </trkpt>
      <trkpt lat="44.91728" lon="6.67525">
        <ele>1359.387838</ele>
        <time>2022-09-04T14:45:08+0200</time>
      </trkpt>
      <trkpt lat="44.91735" lon="6.67521">
        <ele>1359.118871</ele>
        <time>2022-09-04T14:45:09+0200</time>
      </trkpt>
      <trkpt lat="44.91741" lon="6.67519">
        <ele>1359.055332</ele>
        <time>2022-09-04T14:45:10+0200</time>
      </trkpt>
      <trkpt lat="44.91748" lon="6.67518">
        <ele>1358.881306</ele>
        <time>2022-09-04T14:45:11+0200</time>
      </trkpt>
      <trkpt lat="44.91754" lon="6.67517">
        <ele>1358.903419</ele>
        <time>2022-09-04T14:45:12+0200</time>
      </trkpt>
      <trkpt lat="44.9176" lon="6.67516">
        <ele>1358.754459</ele>
        <time>2022-09-04T14:45:13+0200</time>
      </trkpt>
      <trkpt lat="44.91767" lon="6.67516">
        <ele>1358.533545</ele>
        <time>2022-09-04T14:45:14+0200</time>
      </trkpt>
      <trkpt lat="44.91773" lon="6.67517">
        <ele>1358.348652</ele>
        <time>2022-09-04T14:45:15+0200</time>
      </trkpt>
      <trkpt lat="44.91778" lon="6.67519">
        <ele>1358.1079</ele>
        <time>2022-09-04T14:45:16+0200</time>
      </trkpt>
      <trkpt lat="44.91785" lon="6.67522">
        <ele>1357.966959</ele>
        <time>2022-09-04T14:45:17+0200</time>
      </trkpt>
      <trkpt lat="44.9179" lon="6.67525">
        <ele>1357.845494</ele>
        <time>2022-09-04T14:45:18+0200</time>
      </trkpt>
      <trkpt lat="44.91795" lon="6.67528">
        <ele>1358.368552</ele>
        <time>2022-09-04T14:45:19+0200</time>
      </trkpt>
      <trkpt lat="44.91801" lon="6.67532">
        <ele>1358.725546</ele>
        <time>2022-09-04T14:45:20+0200</time>
      </trkpt>
      <trkpt lat="44.91808" lon="6.67536">
        <ele>1358.860902</ele>
        <time>2022-09-04T14:45:21+0200</time>
      </trkpt>
      <trkpt lat="44.91813" lon="6.67538">
        <ele>1359.168605</ele>
        <time>2022-09-04T14:45:22+0200</time>
      </trkpt>
      <trkpt lat="44.91818" lon="6.67541">
        <ele>1359.618556</ele>
        <time>2022-09-04T14:45:23+0200</time>
      </trkpt>
      <trkpt lat="44.91824" lon="6.67543">
        <ele>1360.020929</ele>
        <time>2022-09-04T14:45:24+0200</time>
      </trkpt>
      <trkpt lat="44.91829" lon="6.67548">
        <ele>1360.460256</ele>
        <time>2022-09-04T14:45:25+0200</time>
      </trkpt>
      <trkpt lat="44.91833" lon="6.6755">
        <ele>1360.658317</ele>
        <time>2022-09-04T14:45:26+0200</time>
      </trkpt>
      <trkpt lat="44.91839" lon="6.67554">
        <ele>1360.457847</ele>
        <time>2022-09-04T14:45:27+0200</time>
      </trkpt>
      <trkpt lat="44.91841" lon="6.67559">
        <ele>1360.890364</ele>
        <time>2022-09-04T14:45:28+0200</time>
      </trkpt>
      <trkpt lat="44.91847" lon="6.67562">
        <ele>1361.491195</ele>
        <time>2022-09-04T14:45:29+0200</time>
      </trkpt>
      <trkpt lat="44.91853" lon="6.67564">
        <ele>1361.725377</ele>
        <time>2022-09-04T14:45:30+0200</time>
      </trkpt>
      <trkpt lat="44.91858" lon="6.67567">
        <ele>1361.616551</ele>
        <time>2022-09-04T14:45:31+0200</time>
      </trkpt>
      <trkpt lat="44.91864" lon="6.67569">
        <ele>1361.740928</ele>
        <time>2022-09-04T14:45:32+0200</time>
      </trkpt>
      <trkpt lat="44.9187" lon="6.67571">
        <ele>1361.711891</ele>
        <time>2022-09-04T14:45:33+0200</time>
      </trkpt>
      <trkpt lat="44.91876" lon="6.67574">
        <ele>1361.733116</ele>
        <time>2022-09-04T14:45:34+0200</time>
      </trkpt>
      <trkpt lat="44.91881" lon="6.67577">
        <ele>1362.18354</ele>
        <time>2022-09-04T14:45:35+0200</time>
      </trkpt>
      <trkpt lat="44.91885" lon="6.67581">
        <ele>1362.281281</ele>
        <time>2022-09-04T14:45:36+0200</time>
      </trkpt>
      <trkpt lat="44.91889" lon="6.67584">
        <ele>1362.253876</ele>
        <time>2022-09-04T14:45:37+0200</time>
      </trkpt>
      <trkpt lat="44.91893" lon="6.67588">
        <ele>1362.135645</ele>
        <time>2022-09-04T14:45:38+0200</time>
      </trkpt>
      <trkpt lat="44.91896" lon="6.67593">
        <ele>1361.829127</ele>
        <time>2022-09-04T14:45:39+0200</time>
      </trkpt>
      <trkpt lat="44.91901" lon="6.67598">
        <ele>1361.529268</ele>
        <time>2022-09-04T14:45:40+0200</time>
      </trkpt>
      <trkpt lat="44.91906" lon="6.67601">
        <ele>1361.415881</ele>
        <time>2022-09-04T14:45:41+0200</time>
      </trkpt>
      <trkpt lat="44.91911" lon="6.67605">
        <ele>1360.932155</ele>
        <time>2022-09-04T14:45:42+0200</time>
      </trkpt>
      <trkpt lat="44.91918" lon="6.67609">
        <ele>1360.943932</ele>
        <time>2022-09-04T14:45:43+0200</time>
      </trkpt>
      <trkpt lat="44.91923" lon="6.67612">
        <ele>1360.630453</ele>
        <time>2022-09-04T14:45:44+0200</time>
      </trkpt>
      <trkpt lat="44.91928" lon="6.67614">
        <ele>1360.618842</ele>
        <time>2022-09-04T14:45:45+0200</time>
      </trkpt>
      <trkpt lat="44.91934" lon="6.67615">
        <ele>1360.520561</ele>
        <time>2022-09-04T14:45:46+0200</time>
      </trkpt>
      <trkpt lat="44.91941" lon="6.67616">
        <ele>1360.608608</ele>
        <time>2022-09-04T14:45:47+0200</time>
      </trkpt>
      <trkpt lat="44.91947" lon="6.67619">
        <ele>1360.670044</ele>
        <time>2022-09-04T14:45:48+0200</time>
      </trkpt>
      <trkpt lat="44.91952" lon="6.67623">
        <ele>1360.627868</ele>
        <time>2022-09-04T14:45:49+0200</time>
      </trkpt>
      <trkpt lat="44.91958" lon="6.67625">
        <ele>1360.727942</ele>
        <time>2022-09-04T14:45:50+0200</time>
      </trkpt>
      <trkpt lat="44.91963" lon="6.67629">
        <ele>1360.341828</ele>
        <time>2022-09-04T14:45:51+0200</time>
      </trkpt>
      <trkpt lat="44.91968" lon="6.67634">
        <ele>1360.123947</ele>
        <time>2022-09-04T14:45:52+0200</time>
      </trkpt>
      <trkpt lat="44.91973" lon="6.67637">
        <ele>1360.26171</ele>
        <time>2022-09-04T14:45:53+0200</time>
      </trkpt>
      <trkpt lat="44.9198" lon="6.67642">
        <ele>1360.535613</ele>
        <time>2022-09-04T14:45:55+0200</time>
      </trkpt>
      <trkpt lat="44.91984" lon="6.67646">
        <ele>1361.35951</ele>
        <time>2022-09-04T14:45:56+0200</time>
      </trkpt>
      <trkpt lat="44.91989" lon="6.67651">
        <ele>1361.664735</ele>
        <time>2022-09-04T14:45:57+0200</time>
      </trkpt>
      <trkpt lat="44.91994" lon="6.67656">
        <ele>1361.992799</ele>
        <time>2022-09-04T14:45:58+0200</time>
      </trkpt>
      <trkpt lat="44.91997" lon="6.6766">
        <ele>1362.051524</ele>
        <time>2022-09-04T14:45:59+0200</time>
      </trkpt>
      <trkpt lat="44.92001" lon="6.67664">
        <ele>1362.255215</ele>
        <time>2022-09-04T14:46:00+0200</time>
      </trkpt>
      <trkpt lat="44.92004" lon="6.67671">
        <ele>1362.272086</ele>
        <time>2022-09-04T14:46:01+0200</time>
      </trkpt>
      <trkpt lat="44.92007" lon="6.67676">
        <ele>1362.498011</ele>
        <time>2022-09-04T14:46:02+0200</time>
      </trkpt>
      <trkpt lat="44.92013" lon="6.67685">
        <ele>1363.156833</ele>
        <time>2022-09-04T14:46:04+0200</time>
      </trkpt>
      <trkpt lat="44.92015" lon="6.67691">
        <ele>1363.447911</ele>
        <time>2022-09-04T14:46:05+0200</time>
      </trkpt>
      <trkpt lat="44.92019" lon="6.67696">
        <ele>1363.531627</ele>
        <time>2022-09-04T14:46:06+0200</time>
      </trkpt>
      <trkpt lat="44.92025" lon="6.67707">
        <ele>1364.090157</ele>
        <time>2022-09-04T14:46:08+0200</time>
      </trkpt>
      <trkpt lat="44.92029" lon="6.67714">
        <ele>1364.074635</ele>
        <time>2022-09-04T14:46:09+0200</time>
      </trkpt>
      <trkpt lat="44.92032" lon="6.67721">
        <ele>1363.767216</ele>
        <time>2022-09-04T14:46:10+0200</time>
      </trkpt>
      <trkpt lat="44.92035" lon="6.67727">
        <ele>1363.727515</ele>
        <time>2022-09-04T14:46:11+0200</time>
      </trkpt>
      <trkpt lat="44.92039" lon="6.67733">
        <ele>1363.805105</ele>
        <time>2022-09-04T14:46:12+0200</time>
      </trkpt>
      <trkpt lat="44.92045" lon="6.6774">
        <ele>1364.423796</ele>
        <time>2022-09-04T14:46:13+0200</time>
      </trkpt>
      <trkpt lat="44.92049" lon="6.67746">
        <ele>1365.173545</ele>
        <time>2022-09-04T14:46:14+0200</time>
      </trkpt>
      <trkpt lat="44.92052" lon="6.67752">
        <ele>1365.719854</ele>
        <time>2022-09-04T14:46:15+0200</time>
      </trkpt>
      <trkpt lat="44.92056" lon="6.67756">
        <ele>1365.893938</ele>
        <time>2022-09-04T14:46:16+0200</time>
      </trkpt>
      <trkpt lat="44.92063" lon="6.6776">
        <ele>1365.824392</ele>
        <time>2022-09-04T14:46:17+0200</time>
      </trkpt>
      <trkpt lat="44.92069" lon="6.67764">
        <ele>1365.914958</ele>
        <time>2022-09-04T14:46:18+0200</time>
      </trkpt>
      <trkpt lat="44.92075" lon="6.67768">
        <ele>1365.971061</ele>
        <time>2022-09-04T14:46:19+0200</time>
      </trkpt>
      <trkpt lat="44.9208" lon="6.67771">
        <ele>1365.868682</ele>
        <time>2022-09-04T14:46:20+0200</time>
      </trkpt>
      <trkpt lat="44.92087" lon="6.67775">
        <ele>1365.809364</ele>
        <time>2022-09-04T14:46:21+0200</time>
      </trkpt>
      <trkpt lat="44.92093" lon="6.67778">
        <ele>1365.686108</ele>
        <time>2022-09-04T14:46:22+0200</time>
      </trkpt>
      <trkpt lat="44.92098" lon="6.67782">
        <ele>1365.490823</ele>
        <time>2022-09-04T14:46:23+0200</time>
      </trkpt>
      <trkpt lat="44.92104" lon="6.67785">
        <ele>1364.768399</ele>
        <time>2022-09-04T14:46:24+0200</time>
      </trkpt>
      <trkpt lat="44.92109" lon="6.67788">
        <ele>1364.467569</ele>
        <time>2022-09-04T14:46:25+0200</time>
      </trkpt>
      <trkpt lat="44.92115" lon="6.67789">
        <ele>1364.302847</ele>
        <time>2022-09-04T14:46:26+0200</time>
      </trkpt>
      <trkpt lat="44.92121" lon="6.67789">
        <ele>1364.078323</ele>
        <time>2022-09-04T14:46:27+0200</time>
      </trkpt>
      <trkpt lat="44.92129" lon="6.6779">
        <ele>1363.928</ele>
        <time>2022-09-04T14:46:28+0200</time>
      </trkpt>
      <trkpt lat="44.92136" lon="6.67792">
        <ele>1364.01384</ele>
        <time>2022-09-04T14:46:29+0200</time>
      </trkpt>
      <trkpt lat="44.92141" lon="6.67794">
        <ele>1363.929062</ele>
        <time>2022-09-04T14:46:30+0200</time>
      </trkpt>
      <trkpt lat="44.92149" lon="6.67797">
        <ele>1364.009673</ele>
        <time>2022-09-04T14:46:31+0200</time>
      </trkpt>
      <trkpt lat="44.92156" lon="6.67799">
        <ele>1363.791062</ele>
        <time>2022-09-04T14:46:32+0200</time>
      </trkpt>
      <trkpt lat="44.92163" lon="6.67802">
        <ele>1363.505285</ele>
        <time>2022-09-04T14:46:33+0200</time>
      </trkpt>
      <trkpt lat="44.92169" lon="6.67807">
        <ele>1363.401571</ele>
        <time>2022-09-04T14:46:34+0200</time>
      </trkpt>
      <trkpt lat="44.92176" lon="6.67812">
        <ele>1363.204779</ele>
        <time>2022-09-04T14:46:35+0200</time>
      </trkpt>
      <trkpt lat="44.9218" lon="6.67817">
        <ele>1363.511021</ele>
        <time>2022-09-04T14:46:36+0200</time>
      </trkpt>
      <trkpt lat="44.92184" lon="6.67822">
        <ele>1363.61769</ele>
        <time>2022-09-04T14:46:37+0200</time>
      </trkpt>
      <trkpt lat="44.92187" lon="6.67828">
        <ele>1363.647757</ele>
        <time>2022-09-04T14:46:38+0200</time>
      </trkpt>
      <trkpt lat="44.92192" lon="6.67832">
        <ele>1363.833658</ele>
        <time>2022-09-04T14:46:39+0200</time>
      </trkpt>
      <trkpt lat="44.92197" lon="6.67837">
        <ele>1363.356504</ele>
        <time>2022-09-04T14:46:40+0200</time>
      </trkpt>
      <trkpt lat="44.92201" lon="6.67841">
        <ele>1362.832211</ele>
        <time>2022-09-04T14:46:41+0200</time>
      </trkpt>
      <trkpt lat="44.92207" lon="6.67848">
        <ele>1363.201102</ele>
        <time>2022-09-04T14:46:42+0200</time>
      </trkpt>
      <trkpt lat="44.92213" lon="6.67857">
        <ele>1363.663479</ele>
        <time>2022-09-04T14:46:43+0200</time>
      </trkpt>
      <trkpt lat="44.92218" lon="6.67863">
        <ele>1364.123183</ele>
        <time>2022-09-04T14:46:44+0200</time>
      </trkpt>
      <trkpt lat="44.92223" lon="6.6787">
        <ele>1364.63208</ele>
        <time>2022-09-04T14:46:45+0200</time>
      </trkpt>
      <trkpt lat="44.92227" lon="6.67878">
        <ele>1364.507697</ele>
        <time>2022-09-04T14:46:46+0200</time>
      </trkpt>
      <trkpt lat="44.92232" lon="6.67885">
        <ele>1364.655867</ele>
        <time>2022-09-04T14:46:47+0200</time>
      </trkpt>
      <trkpt lat="44.92237" lon="6.67892">
        <ele>1364.771212</ele>
        <time>2022-09-04T14:46:48+0200</time>
      </trkpt>
      <trkpt lat="44.92242" lon="6.67899">
        <ele>1365.112241</ele>
        <time>2022-09-04T14:46:49+0200</time>
      </trkpt>
      <trkpt lat="44.92246" lon="6.67905">
        <ele>1365.320294</ele>
        <time>2022-09-04T14:46:50+0200</time>
      </trkpt>
      <trkpt lat="44.9225" lon="6.6791">
        <ele>1365.841297</ele>
        <time>2022-09-04T14:46:51+0200</time>
      </trkpt>
      <trkpt lat="44.92255" lon="6.67916">
        <ele>1366.562146</ele>
        <time>2022-09-04T14:46:52+0200</time>
      </trkpt>
      <trkpt lat="44.92261" lon="6.67924">
        <ele>1367.807767</ele>
        <time>2022-09-04T14:46:53+0200</time>
      </trkpt>
      <trkpt lat="44.92267" lon="6.6793">
        <ele>1368.881857</ele>
        <time>2022-09-04T14:46:54+0200</time>
      </trkpt>
      <trkpt lat="44.92273" lon="6.67935">
        <ele>1369.407192</ele>
        <time>2022-09-04T14:46:55+0200</time>
      </trkpt>
      <trkpt lat="44.9228" lon="6.67943">
        <ele>1369.411491</ele>
        <time>2022-09-04T14:46:56+0200</time>
      </trkpt>
      <trkpt lat="44.92286" lon="6.67948">
        <ele>1369.492878</ele>
        <time>2022-09-04T14:46:57+0200</time>
      </trkpt>
      <trkpt lat="44.92293" lon="6.67954">
        <ele>1369.777974</ele>
        <time>2022-09-04T14:46:58+0200</time>
      </trkpt>
      <trkpt lat="44.92299" lon="6.67959">
        <ele>1369.434451</ele>
        <time>2022-09-04T14:46:59+0200</time>
      </trkpt>
      <trkpt lat="44.92306" lon="6.67965">
        <ele>1368.958807</ele>
        <time>2022-09-04T14:47:00+0200</time>
      </trkpt>
      <trkpt lat="44.92313" lon="6.67972">
        <ele>1368.537393</ele>
        <time>2022-09-04T14:47:01+0200</time>
      </trkpt>
      <trkpt lat="44.92319" lon="6.67978">
        <ele>1367.931332</ele>
        <time>2022-09-04T14:47:02+0200</time>
      </trkpt>
      <trkpt lat="44.92325" lon="6.67984">
        <ele>1368.079106</ele>
        <time>2022-09-04T14:47:03+0200</time>
      </trkpt>
      <trkpt lat="44.9233" lon="6.67991">
        <ele>1368.232653</ele>
        <time>2022-09-04T14:47:04+0200</time>
      </trkpt>
      <trkpt lat="44.92335" lon="6.68">
        <ele>1368.350434</ele>
        <time>2022-09-04T14:47:05+0200</time>
      </trkpt>
      <trkpt lat="44.92338" lon="6.68012">
        <ele>1367.893064</ele>
        <time>2022-09-04T14:47:06+0200</time>
      </trkpt>
      <trkpt lat="44.92342" lon="6.68023">
        <ele>1367.5234</ele>
        <time>2022-09-04T14:47:07+0200</time>
      </trkpt>
      <trkpt lat="44.92346" lon="6.68034">
        <ele>1367.326752</ele>
        <time>2022-09-04T14:47:08+0200</time>
      </trkpt>
      <trkpt lat="44.92349" lon="6.68043">
        <ele>1367.289269</ele>
        <time>2022-09-04T14:47:09+0200</time>
      </trkpt>
      <trkpt lat="44.92352" lon="6.68052">
        <ele>1366.755619</ele>
        <time>2022-09-04T14:47:10+0200</time>
      </trkpt>
      <trkpt lat="44.92355" lon="6.68062">
        <ele>1366.561587</ele>
        <time>2022-09-04T14:47:11+0200</time>
      </trkpt>
      <trkpt lat="44.92358" lon="6.68072">
        <ele>1366.121606</ele>
        <time>2022-09-04T14:47:12+0200</time>
      </trkpt>
      <trkpt lat="44.92361" lon="6.68082">
        <ele>1366.359543</ele>
        <time>2022-09-04T14:47:13+0200</time>
      </trkpt>
      <trkpt lat="44.92364" lon="6.68092">
        <ele>1366.397152</ele>
        <time>2022-09-04T14:47:14+0200</time>
      </trkpt>
      <trkpt lat="44.92366" lon="6.68101">
        <ele>1366.331146</ele>
        <time>2022-09-04T14:47:15+0200</time>
      </trkpt>
      <trkpt lat="44.92369" lon="6.68109">
        <ele>1366.663363</ele>
        <time>2022-09-04T14:47:16+0200</time>
      </trkpt>
      <trkpt lat="44.92372" lon="6.68117">
        <ele>1366.8475</ele>
        <time>2022-09-04T14:47:17+0200</time>
      </trkpt>
      <trkpt lat="44.92377" lon="6.68126">
        <ele>1366.486184</ele>
        <time>2022-09-04T14:47:18+0200</time>
      </trkpt>
      <trkpt lat="44.92381" lon="6.68134">
        <ele>1366.305899</ele>
        <time>2022-09-04T14:47:19+0200</time>
      </trkpt>
      <trkpt lat="44.92384" lon="6.68143">
        <ele>1366.711217</ele>
        <time>2022-09-04T14:47:20+0200</time>
      </trkpt>
      <trkpt lat="44.92388" lon="6.68151">
        <ele>1366.818858</ele>
        <time>2022-09-04T14:47:21+0200</time>
      </trkpt>
      <trkpt lat="44.92391" lon="6.68156">
        <ele>1367.356789</ele>
        <time>2022-09-04T14:47:22+0200</time>
      </trkpt>
      <trkpt lat="44.92395" lon="6.68163">
        <ele>1367.643327</ele>
        <time>2022-09-04T14:47:23+0200</time>
      </trkpt>
      <trkpt lat="44.92402" lon="6.68169">
        <ele>1367.869096</ele>
        <time>2022-09-04T14:47:24+0200</time>
      </trkpt>
      <trkpt lat="44.92406" lon="6.68176">
        <ele>1367.828022</ele>
        <time>2022-09-04T14:47:25+0200</time>
      </trkpt>
      <trkpt lat="44.9241" lon="6.68183">
        <ele>1367.692648</ele>
        <time>2022-09-04T14:47:26+0200</time>
      </trkpt>
      <trkpt lat="44.92414" lon="6.68189">
        <ele>1367.956134</ele>
        <time>2022-09-04T14:47:27+0200</time>
      </trkpt>
      <trkpt lat="44.92419" lon="6.68198">
        <ele>1367.432311</ele>
        <time>2022-09-04T14:47:29+0200</time>
      </trkpt>
      <trkpt lat="44.92427" lon="6.68203">
        <ele>1369.248648</ele>
        <time>2022-09-04T14:47:31+0200</time>
      </trkpt>
      <trkpt lat="44.92436" lon="6.68209">
        <ele>1370.068663</ele>
        <time>2022-09-04T14:47:33+0200</time>
      </trkpt>
      <trkpt lat="44.92441" lon="6.68209">
        <ele>1369.974932</ele>
        <time>2022-09-04T14:47:34+0200</time>
      </trkpt>
      <trkpt lat="44.92449" lon="6.6821">
        <ele>1369.864778</ele>
        <time>2022-09-04T14:47:36+0200</time>
      </trkpt>
      <trkpt lat="44.92459" lon="6.68212">
        <ele>1368.84252</ele>
        <time>2022-09-04T14:47:38+0200</time>
      </trkpt>
      <trkpt lat="44.92464" lon="6.68215">
        <ele>1368.304976</ele>
        <time>2022-09-04T14:47:39+0200</time>
      </trkpt>
      <trkpt lat="44.92471" lon="6.68219">
        <ele>1368.03597</ele>
        <time>2022-09-04T14:47:40+0200</time>
      </trkpt>
      <trkpt lat="44.92478" lon="6.68225">
        <ele>1367.810437</ele>
        <time>2022-09-04T14:47:41+0200</time>
      </trkpt>
      <trkpt lat="44.92484" lon="6.68232">
        <ele>1367.477293</ele>
        <time>2022-09-04T14:47:42+0200</time>
      </trkpt>
      <trkpt lat="44.92491" lon="6.68239">
        <ele>1366.978799</ele>
        <time>2022-09-04T14:47:43+0200</time>
      </trkpt>
      <trkpt lat="44.92496" lon="6.68245">
        <ele>1366.684054</ele>
        <time>2022-09-04T14:47:44+0200</time>
      </trkpt>
      <trkpt lat="44.92502" lon="6.68252">
        <ele>1366.308955</ele>
        <time>2022-09-04T14:47:45+0200</time>
      </trkpt>
      <trkpt lat="44.92508" lon="6.68259">
        <ele>1365.835129</ele>
        <time>2022-09-04T14:47:46+0200</time>
      </trkpt>
      <trkpt lat="44.92514" lon="6.68267">
        <ele>1365.41446</ele>
        <time>2022-09-04T14:47:47+0200</time>
      </trkpt>
      <trkpt lat="44.9252" lon="6.68275">
        <ele>1365.307201</ele>
        <time>2022-09-04T14:47:48+0200</time>
      </trkpt>
      <trkpt lat="44.92526" lon="6.68284">
        <ele>1365.27962</ele>
        <time>2022-09-04T14:47:49+0200</time>
      </trkpt>
      <trkpt lat="44.92532" lon="6.68291">
        <ele>1365.23377</ele>
        <time>2022-09-04T14:47:50+0200</time>
      </trkpt>
      <trkpt lat="44.92538" lon="6.68298">
        <ele>1364.959644</ele>
        <time>2022-09-04T14:47:51+0200</time>
      </trkpt>
      <trkpt lat="44.92544" lon="6.68304">
        <ele>1365.21282</ele>
        <time>2022-09-04T14:47:52+0200</time>
      </trkpt>
      <trkpt lat="44.9255" lon="6.68311">
        <ele>1365.372519</ele>
        <time>2022-09-04T14:47:53+0200</time>
      </trkpt>
      <trkpt lat="44.92556" lon="6.68319">
        <ele>1365.157034</ele>
        <time>2022-09-04T14:47:54+0200</time>
      </trkpt>
      <trkpt lat="44.92562" lon="6.68327">
        <ele>1365.079571</ele>
        <time>2022-09-04T14:47:55+0200</time>
      </trkpt>
      <trkpt lat="44.92567" lon="6.68334">
        <ele>1364.87465</ele>
        <time>2022-09-04T14:47:56+0200</time>
      </trkpt>
      <trkpt lat="44.92572" lon="6.68343">
        <ele>1364.769576</ele>
        <time>2022-09-04T14:47:57+0200</time>
      </trkpt>
      <trkpt lat="44.92578" lon="6.68351">
        <ele>1364.53985</ele>
        <time>2022-09-04T14:47:58+0200</time>
      </trkpt>
      <trkpt lat="44.92584" lon="6.68359">
        <ele>1364.862976</ele>
        <time>2022-09-04T14:47:59+0200</time>
      </trkpt>
      <trkpt lat="44.92589" lon="6.68366">
        <ele>1364.828349</ele>
        <time>2022-09-04T14:48:00+0200</time>
      </trkpt>
      <trkpt lat="44.92595" lon="6.68374">
        <ele>1364.792937</ele>
        <time>2022-09-04T14:48:01+0200</time>
      </trkpt>
      <trkpt lat="44.92601" lon="6.68383">
        <ele>1364.676315</ele>
        <time>2022-09-04T14:48:02+0200</time>
      </trkpt>
      <trkpt lat="44.92606" lon="6.6839">
        <ele>1364.913708</ele>
        <time>2022-09-04T14:48:03+0200</time>
      </trkpt>
      <trkpt lat="44.92612" lon="6.68397">
        <ele>1364.863281</ele>
        <time>2022-09-04T14:48:04+0200</time>
      </trkpt>
      <trkpt lat="44.92617" lon="6.68405">
        <ele>1364.933703</ele>
        <time>2022-09-04T14:48:05+0200</time>
      </trkpt>
      <trkpt lat="44.92623" lon="6.68413">
        <ele>1365.053087</ele>
        <time>2022-09-04T14:48:06+0200</time>
      </trkpt>
      <trkpt lat="44.92627" lon="6.6842">
        <ele>1365.148318</ele>
        <time>2022-09-04T14:48:07+0200</time>
      </trkpt>
      <trkpt lat="44.92632" lon="6.68428">
        <ele>1365.02299</ele>
        <time>2022-09-04T14:48:08+0200</time>
      </trkpt>
      <trkpt lat="44.92638" lon="6.68436">
        <ele>1365.086691</ele>
        <time>2022-09-04T14:48:09+0200</time>
      </trkpt>
      <trkpt lat="44.92643" lon="6.68443">
        <ele>1364.938222</ele>
        <time>2022-09-04T14:48:10+0200</time>
      </trkpt>
      <trkpt lat="44.92648" lon="6.68448">
        <ele>1364.689222</ele>
        <time>2022-09-04T14:48:11+0200</time>
      </trkpt>
      <trkpt lat="44.92654" lon="6.68454">
        <ele>1364.539285</ele>
        <time>2022-09-04T14:48:12+0200</time>
      </trkpt>
      <trkpt lat="44.92659" lon="6.6846">
        <ele>1364.305975</ele>
        <time>2022-09-04T14:48:13+0200</time>
      </trkpt>
      <trkpt lat="44.92665" lon="6.68466">
        <ele>1364.386225</ele>
        <time>2022-09-04T14:48:14+0200</time>
      </trkpt>
      <trkpt lat="44.9267" lon="6.68472">
        <ele>1364.517807</ele>
        <time>2022-09-04T14:48:15+0200</time>
      </trkpt>
      <trkpt lat="44.92675" lon="6.68479">
        <ele>1364.499131</ele>
        <time>2022-09-04T14:48:16+0200</time>
      </trkpt>
      <trkpt lat="44.92679" lon="6.68486">
        <ele>1364.432414</ele>
        <time>2022-09-04T14:48:17+0200</time>
      </trkpt>
      <trkpt lat="44.92684" lon="6.68492">
        <ele>1364.245151</ele>
        <time>2022-09-04T14:48:18+0200</time>
      </trkpt>
      <trkpt lat="44.9269" lon="6.68497">
        <ele>1364.063705</ele>
        <time>2022-09-04T14:48:19+0200</time>
      </trkpt>
      <trkpt lat="44.92697" lon="6.68498">
        <ele>1363.710413</ele>
        <time>2022-09-04T14:48:20+0200</time>
      </trkpt>
      <trkpt lat="44.92704" lon="6.68495">
        <ele>1364.091952</ele>
        <time>2022-09-04T14:48:21+0200</time>
      </trkpt>
      <trkpt lat="44.9271" lon="6.68493">
        <ele>1364.057682</ele>
        <time>2022-09-04T14:48:22+0200</time>
      </trkpt>
      <trkpt lat="44.92717" lon="6.68492">
        <ele>1364.095934</ele>
        <time>2022-09-04T14:48:23+0200</time>
      </trkpt>
      <trkpt lat="44.92724" lon="6.6849">
        <ele>1363.87209</ele>
        <time>2022-09-04T14:48:24+0200</time>
      </trkpt>
      <trkpt lat="44.92731" lon="6.68488">
        <ele>1363.945027</ele>
        <time>2022-09-04T14:48:25+0200</time>
      </trkpt>
      <trkpt lat="44.92739" lon="6.68487">
        <ele>1363.90623</ele>
        <time>2022-09-04T14:48:26+0200</time>
      </trkpt>
      <trkpt lat="44.92746" lon="6.68485">
        <ele>1364.022531</ele>
        <time>2022-09-04T14:48:27+0200</time>
      </trkpt>
      <trkpt lat="44.92753" lon="6.68484">
        <ele>1364.117929</ele>
        <time>2022-09-04T14:48:28+0200</time>
      </trkpt>
      <trkpt lat="44.9276" lon="6.68482">
        <ele>1363.827745</ele>
        <time>2022-09-04T14:48:29+0200</time>
      </trkpt>
      <trkpt lat="44.92766" lon="6.68478">
        <ele>1364.208216</ele>
        <time>2022-09-04T14:48:30+0200</time>
      </trkpt>
      <trkpt lat="44.92772" lon="6.68473">
        <ele>1364.261031</ele>
        <time>2022-09-04T14:48:31+0200</time>
      </trkpt>
      <trkpt lat="44.92776" lon="6.68465">
        <ele>1364.240333</ele>
        <time>2022-09-04T14:48:32+0200</time>
      </trkpt>
      <trkpt lat="44.9278" lon="6.68455">
        <ele>1364.282081</ele>
        <time>2022-09-04T14:48:33+0200</time>
      </trkpt>
      <trkpt lat="44.92782" lon="6.68445">
        <ele>1364.762302</ele>
        <time>2022-09-04T14:48:34+0200</time>
      </trkpt>
      <trkpt lat="44.92784" lon="6.68435">
        <ele>1365.294661</ele>
        <time>2022-09-04T14:48:35+0200</time>
      </trkpt>
      <trkpt lat="44.92786" lon="6.68425">
        <ele>1365.772619</ele>
        <time>2022-09-04T14:48:36+0200</time>
      </trkpt>
      <trkpt lat="44.92788" lon="6.68416">
        <ele>1365.721414</ele>
        <time>2022-09-04T14:48:37+0200</time>
      </trkpt>
      <trkpt lat="44.92791" lon="6.68408">
        <ele>1365.973559</ele>
        <time>2022-09-04T14:48:38+0200</time>
      </trkpt>
      <trkpt lat="44.92796" lon="6.68401">
        <ele>1366.215866</ele>
        <time>2022-09-04T14:48:39+0200</time>
      </trkpt>
      <trkpt lat="44.92803" lon="6.68397">
        <ele>1366.160087</ele>
        <time>2022-09-04T14:48:40+0200</time>
      </trkpt>
      <trkpt lat="44.9281" lon="6.68394">
        <ele>1366.303301</ele>
        <time>2022-09-04T14:48:41+0200</time>
      </trkpt>
      <trkpt lat="44.92817" lon="6.68392">
        <ele>1366.199202</ele>
        <time>2022-09-04T14:48:42+0200</time>
      </trkpt>
      <trkpt lat="44.92824" lon="6.6839">
        <ele>1366.234236</ele>
        <time>2022-09-04T14:48:43+0200</time>
      </trkpt>
      <trkpt lat="44.92831" lon="6.68388">
        <ele>1366.245657</ele>
        <time>2022-09-04T14:48:44+0200</time>
      </trkpt>
      <trkpt lat="44.92838" lon="6.68385">
        <ele>1366.141042</ele>
        <time>2022-09-04T14:48:45+0200</time>
      </trkpt>
      <trkpt lat="44.92844" lon="6.68382">
        <ele>1366.177966</ele>
        <time>2022-09-04T14:48:46+0200</time>
      </trkpt>
      <trkpt lat="44.92851" lon="6.6838">
        <ele>1366.145039</ele>
        <time>2022-09-04T14:48:47+0200</time>
      </trkpt>
      <trkpt lat="44.92858" lon="6.68377">
        <ele>1366.167065</ele>
        <time>2022-09-04T14:48:48+0200</time>
      </trkpt>
      <trkpt lat="44.92864" lon="6.68373">
        <ele>1366.180349</ele>
        <time>2022-09-04T14:48:49+0200</time>
      </trkpt>
      <trkpt lat="44.92871" lon="6.68369">
        <ele>1366.228212</ele>
        <time>2022-09-04T14:48:50+0200</time>
      </trkpt>
      <trkpt lat="44.92877" lon="6.68366">
        <ele>1366.114392</ele>
        <time>2022-09-04T14:48:51+0200</time>
      </trkpt>
      <trkpt lat="44.92884" lon="6.68362">
        <ele>1366.076557</ele>
        <time>2022-09-04T14:48:52+0200</time>
      </trkpt>
      <trkpt lat="44.92891" lon="6.68359">
        <ele>1366.060698</ele>
        <time>2022-09-04T14:48:53+0200</time>
      </trkpt>
      <trkpt lat="44.92897" lon="6.68355">
        <ele>1366.226015</ele>
        <time>2022-09-04T14:48:54+0200</time>
      </trkpt>
      <trkpt lat="44.92905" lon="6.68354">
        <ele>1366.258201</ele>
        <time>2022-09-04T14:48:55+0200</time>
      </trkpt>
      <trkpt lat="44.92912" lon="6.68353">
        <ele>1366.38244</ele>
        <time>2022-09-04T14:48:56+0200</time>
      </trkpt>
      <trkpt lat="44.92919" lon="6.68353">
        <ele>1366.250414</ele>
        <time>2022-09-04T14:48:57+0200</time>
      </trkpt>
      <trkpt lat="44.92926" lon="6.68353">
        <ele>1366.167621</ele>
        <time>2022-09-04T14:48:58+0200</time>
      </trkpt>
      <trkpt lat="44.92933" lon="6.68351">
        <ele>1366.03368</ele>
        <time>2022-09-04T14:48:59+0200</time>
      </trkpt>
      <trkpt lat="44.9294" lon="6.68349">
        <ele>1365.958797</ele>
        <time>2022-09-04T14:49:00+0200</time>
      </trkpt>
      <trkpt lat="44.92946" lon="6.68346">
        <ele>1365.797004</ele>
        <time>2022-09-04T14:49:01+0200</time>
      </trkpt>
      <trkpt lat="44.92953" lon="6.68343">
        <ele>1365.735063</ele>
        <time>2022-09-04T14:49:02+0200</time>
      </trkpt>
      <trkpt lat="44.92959" lon="6.6834">
        <ele>1365.622221</ele>
        <time>2022-09-04T14:49:03+0200</time>
      </trkpt>
      <trkpt lat="44.92966" lon="6.68335">
        <ele>1365.591349</ele>
        <time>2022-09-04T14:49:04+0200</time>
      </trkpt>
      <trkpt lat="44.92972" lon="6.6833">
        <ele>1365.740446</ele>
        <time>2022-09-04T14:49:05+0200</time>
      </trkpt>
      <trkpt lat="44.92978" lon="6.68325">
        <ele>1365.695895</ele>
        <time>2022-09-04T14:49:06+0200</time>
      </trkpt>
      <trkpt lat="44.92984" lon="6.6832">
        <ele>1365.364268</ele>
        <time>2022-09-04T14:49:07+0200</time>
      </trkpt>
      <trkpt lat="44.9299" lon="6.68315">
        <ele>1365.502326</ele>
        <time>2022-09-04T14:49:08+0200</time>
      </trkpt>
      <trkpt lat="44.92996" lon="6.68309">
        <ele>1365.662522</ele>
        <time>2022-09-04T14:49:09+0200</time>
      </trkpt>
      <trkpt lat="44.93002" lon="6.68303">
        <ele>1365.619543</ele>
        <time>2022-09-04T14:49:10+0200</time>
      </trkpt>
      <trkpt lat="44.93008" lon="6.68297">
        <ele>1366.23475</ele>
        <time>2022-09-04T14:49:11+0200</time>
      </trkpt>
      <trkpt lat="44.93015" lon="6.68292">
        <ele>1365.954237</ele>
        <time>2022-09-04T14:49:12+0200</time>
      </trkpt>
      <trkpt lat="44.93022" lon="6.68288">
        <ele>1366.100706</ele>
        <time>2022-09-04T14:49:13+0200</time>
      </trkpt>
      <trkpt lat="44.9303" lon="6.68286">
        <ele>1366.102043</ele>
        <time>2022-09-04T14:49:14+0200</time>
      </trkpt>
      <trkpt lat="44.93037" lon="6.68285">
        <ele>1366.043206</ele>
        <time>2022-09-04T14:49:15+0200</time>
      </trkpt>
      <trkpt lat="44.93045" lon="6.68286">
        <ele>1365.863122</ele>
        <time>2022-09-04T14:49:16+0200</time>
      </trkpt>
      <trkpt lat="44.93053" lon="6.68288">
        <ele>1365.552226</ele>
        <time>2022-09-04T14:49:17+0200</time>
      </trkpt>
      <trkpt lat="44.9306" lon="6.68291">
        <ele>1365.524892</ele>
        <time>2022-09-04T14:49:18+0200</time>
      </trkpt>
      <trkpt lat="44.93067" lon="6.68295">
        <ele>1365.735477</ele>
        <time>2022-09-04T14:49:19+0200</time>
      </trkpt>
      <trkpt lat="44.93073" lon="6.68298">
        <ele>1365.268499</ele>
        <time>2022-09-04T14:49:20+0200</time>
      </trkpt>
      <trkpt lat="44.9308" lon="6.68301">
        <ele>1365.462117</ele>
        <time>2022-09-04T14:49:21+0200</time>
      </trkpt>
      <trkpt lat="44.93087" lon="6.68303">
        <ele>1365.666784</ele>
        <time>2022-09-04T14:49:22+0200</time>
      </trkpt>
      <trkpt lat="44.93094" lon="6.68307">
        <ele>1365.900073</ele>
        <time>2022-09-04T14:49:23+0200</time>
      </trkpt>
      <trkpt lat="44.931" lon="6.6831">
        <ele>1366.214922</ele>
        <time>2022-09-04T14:49:24+0200</time>
      </trkpt>
      <trkpt lat="44.93106" lon="6.68314">
        <ele>1366.422163</ele>
        <time>2022-09-04T14:49:25+0200</time>
      </trkpt>
      <trkpt lat="44.93114" lon="6.68319">
        <ele>1366.664254</ele>
        <time>2022-09-04T14:49:26+0200</time>
      </trkpt>
      <trkpt lat="44.93121" lon="6.68323">
        <ele>1366.529289</ele>
        <time>2022-09-04T14:49:27+0200</time>
      </trkpt>
      <trkpt lat="44.93128" lon="6.68328">
        <ele>1366.41356</ele>
        <time>2022-09-04T14:49:28+0200</time>
      </trkpt>
      <trkpt lat="44.93135" lon="6.68332">
        <ele>1366.639638</ele>
        <time>2022-09-04T14:49:29+0200</time>
      </trkpt>
      <trkpt lat="44.93141" lon="6.68336">
        <ele>1367.101563</ele>
        <time>2022-09-04T14:49:30+0200</time>
      </trkpt>
      <trkpt lat="44.93148" lon="6.6834">
        <ele>1367.104271</ele>
        <time>2022-09-04T14:49:31+0200</time>
      </trkpt>
      <trkpt lat="44.93155" lon="6.68344">
        <ele>1367.026627</ele>
        <time>2022-09-04T14:49:32+0200</time>
      </trkpt>
      <trkpt lat="44.93161" lon="6.68347">
        <ele>1366.957546</ele>
        <time>2022-09-04T14:49:33+0200</time>
      </trkpt>
      <trkpt lat="44.93167" lon="6.68349">
        <ele>1366.671216</ele>
        <time>2022-09-04T14:49:34+0200</time>
      </trkpt>
      <trkpt lat="44.93174" lon="6.68352">
        <ele>1366.827673</ele>
        <time>2022-09-04T14:49:35+0200</time>
      </trkpt>
      <trkpt lat="44.9318" lon="6.68355">
        <ele>1366.63835</ele>
        <time>2022-09-04T14:49:36+0200</time>
      </trkpt>
      <trkpt lat="44.93188" lon="6.68357">
        <ele>1366.055741</ele>
        <time>2022-09-04T14:49:37+0200</time>
      </trkpt>
      <trkpt lat="44.93195" lon="6.68359">
        <ele>1366.101888</ele>
        <time>2022-09-04T14:49:38+0200</time>
      </trkpt>
      <trkpt lat="44.93202" lon="6.68359">
        <ele>1366.392617</ele>
        <time>2022-09-04T14:49:38+0200</time>
      </trkpt>
      <trkpt lat="44.93209" lon="6.6836">
        <ele>1366.353308</ele>
        <time>2022-09-04T14:49:40+0200</time>
      </trkpt>
      <trkpt lat="44.93216" lon="6.6836">
        <ele>1366.325169</ele>
        <time>2022-09-04T14:49:41+0200</time>
      </trkpt>
      <trkpt lat="44.93224" lon="6.6836">
        <ele>1366.677723</ele>
        <time>2022-09-04T14:49:42+0200</time>
      </trkpt>
      <trkpt lat="44.93231" lon="6.6836">
        <ele>1366.568911</ele>
        <time>2022-09-04T14:49:43+0200</time>
      </trkpt>
      <trkpt lat="44.93238" lon="6.6836">
        <ele>1366.408524</ele>
        <time>2022-09-04T14:49:44+0200</time>
      </trkpt>
      <trkpt lat="44.93245" lon="6.68361">
        <ele>1366.518513</ele>
        <time>2022-09-04T14:49:45+0200</time>
      </trkpt>
      <trkpt lat="44.93252" lon="6.68363">
        <ele>1366.758234</ele>
        <time>2022-09-04T14:49:46+0200</time>
      </trkpt>
      <trkpt lat="44.93258" lon="6.68367">
        <ele>1367.01661</ele>
        <time>2022-09-04T14:49:47+0200</time>
      </trkpt>
      <trkpt lat="44.93265" lon="6.68371">
        <ele>1367.6271</ele>
        <time>2022-09-04T14:49:48+0200</time>
      </trkpt>
      <trkpt lat="44.93271" lon="6.68375">
        <ele>1368.095212</ele>
        <time>2022-09-04T14:49:49+0200</time>
      </trkpt>
      <trkpt lat="44.93277" lon="6.68379">
        <ele>1368.718448</ele>
        <time>2022-09-04T14:49:50+0200</time>
      </trkpt>
      <trkpt lat="44.93283" lon="6.68384">
        <ele>1369.346401</ele>
        <time>2022-09-04T14:49:51+0200</time>
      </trkpt>
      <trkpt lat="44.93289" lon="6.68387">
        <ele>1369.854294</ele>
        <time>2022-09-04T14:49:52+0200</time>
      </trkpt>
      <trkpt lat="44.93295" lon="6.68392">
        <ele>1370.694572</ele>
        <time>2022-09-04T14:49:53+0200</time>
      </trkpt>
      <trkpt lat="44.93301" lon="6.68393">
        <ele>1371.555155</ele>
        <time>2022-09-04T14:49:54+0200</time>
      </trkpt>
      <trkpt lat="44.93307" lon="6.68397">
        <ele>1371.975389</ele>
        <time>2022-09-04T14:49:55+0200</time>
      </trkpt>
      <trkpt lat="44.93313" lon="6.68402">
        <ele>1372.104335</ele>
        <time>2022-09-04T14:49:56+0200</time>
      </trkpt>
      <trkpt lat="44.93319" lon="6.68406">
        <ele>1372.532513</ele>
        <time>2022-09-04T14:49:57+0200</time>
      </trkpt>
      <trkpt lat="44.93325" lon="6.68411">
        <ele>1372.852031</ele>
        <time>2022-09-04T14:49:58+0200</time>
      </trkpt>
      <trkpt lat="44.93331" lon="6.68415">
        <ele>1373.246789</ele>
        <time>2022-09-04T14:49:59+0200</time>
      </trkpt>
      <trkpt lat="44.93336" lon="6.6842">
        <ele>1373.622455</ele>
        <time>2022-09-04T14:50:00+0200</time>
      </trkpt>
      <trkpt lat="44.93341" lon="6.68426">
        <ele>1374.000695</ele>
        <time>2022-09-04T14:50:01+0200</time>
      </trkpt>
      <trkpt lat="44.93346" lon="6.68431">
        <ele>1374.066412</ele>
        <time>2022-09-04T14:50:02+0200</time>
      </trkpt>
      <trkpt lat="44.93351" lon="6.68437">
        <ele>1374.228776</ele>
        <time>2022-09-04T14:50:03+0200</time>
      </trkpt>
      <trkpt lat="44.93356" lon="6.68444">
        <ele>1374.450509</ele>
        <time>2022-09-04T14:50:04+0200</time>
      </trkpt>
      <trkpt lat="44.9336" lon="6.68451">
        <ele>1374.638809</ele>
        <time>2022-09-04T14:50:05+0200</time>
      </trkpt>
      <trkpt lat="44.93364" lon="6.68457">
        <ele>1374.825901</ele>
        <time>2022-09-04T14:50:06+0200</time>
      </trkpt>
      <trkpt lat="44.93369" lon="6.68463">
        <ele>1375.042461</ele>
        <time>2022-09-04T14:50:07+0200</time>
      </trkpt>
      <trkpt lat="44.93373" lon="6.6847">
        <ele>1375.064996</ele>
        <time>2022-09-04T14:50:08+0200</time>
      </trkpt>
      <trkpt lat="44.93376" lon="6.68479">
        <ele>1375.12675</ele>
        <time>2022-09-04T14:50:09+0200</time>
      </trkpt>
      <trkpt lat="44.93377" lon="6.68487">
        <ele>1375.194088</ele>
        <time>2022-09-04T14:50:10+0200</time>
      </trkpt>
      <trkpt lat="44.9338" lon="6.68494">
        <ele>1375.214636</ele>
        <time>2022-09-04T14:50:11+0200</time>
      </trkpt>
      <trkpt lat="44.93384" lon="6.68502">
        <ele>1374.586494</ele>
        <time>2022-09-04T14:50:12+0200</time>
      </trkpt>
      <trkpt lat="44.93387" lon="6.68512">
        <ele>1374.061437</ele>
        <time>2022-09-04T14:50:13+0200</time>
      </trkpt>
      <trkpt lat="44.9339" lon="6.6852">
        <ele>1373.765895</ele>
        <time>2022-09-04T14:50:14+0200</time>
      </trkpt>
      <trkpt lat="44.93392" lon="6.6853">
        <ele>1373.486893</ele>
        <time>2022-09-04T14:50:15+0200</time>
      </trkpt>
      <trkpt lat="44.93395" lon="6.68539">
        <ele>1373.297394</ele>
        <time>2022-09-04T14:50:16+0200</time>
      </trkpt>
      <trkpt lat="44.93399" lon="6.68548">
        <ele>1373.107772</ele>
        <time>2022-09-04T14:50:17+0200</time>
      </trkpt>
      <trkpt lat="44.93402" lon="6.68556">
        <ele>1373.172598</ele>
        <time>2022-09-04T14:50:18+0200</time>
      </trkpt>
      <trkpt lat="44.93407" lon="6.68565">
        <ele>1373.56446</ele>
        <time>2022-09-04T14:50:19+0200</time>
      </trkpt>
      <trkpt lat="44.93411" lon="6.68572">
        <ele>1373.946353</ele>
        <time>2022-09-04T14:50:20+0200</time>
      </trkpt>
      <trkpt lat="44.93416" lon="6.68579">
        <ele>1373.740127</ele>
        <time>2022-09-04T14:50:21+0200</time>
      </trkpt>
      <trkpt lat="44.93421" lon="6.68585">
        <ele>1373.653282</ele>
        <time>2022-09-04T14:50:22+0200</time>
      </trkpt>
      <trkpt lat="44.93426" lon="6.68591">
        <ele>1373.580633</ele>
        <time>2022-09-04T14:50:23+0200</time>
      </trkpt>
      <trkpt lat="44.9343" lon="6.68596">
        <ele>1373.511673</ele>
        <time>2022-09-04T14:50:24+0200</time>
      </trkpt>
      <trkpt lat="44.93436" lon="6.68601">
        <ele>1373.346563</ele>
        <time>2022-09-04T14:50:25+0200</time>
      </trkpt>
      <trkpt lat="44.93443" lon="6.68605">
        <ele>1373.013295</ele>
        <time>2022-09-04T14:50:26+0200</time>
      </trkpt>
      <trkpt lat="44.93449" lon="6.68609">
        <ele>1373.040068</ele>
        <time>2022-09-04T14:50:27+0200</time>
      </trkpt>
      <trkpt lat="44.93455" lon="6.68613">
        <ele>1372.849184</ele>
        <time>2022-09-04T14:50:28+0200</time>
      </trkpt>
      <trkpt lat="44.93462" lon="6.68617">
        <ele>1372.149802</ele>
        <time>2022-09-04T14:50:29+0200</time>
      </trkpt>
      <trkpt lat="44.93469" lon="6.6862">
        <ele>1372.112704</ele>
        <time>2022-09-04T14:50:30+0200</time>
      </trkpt>
      <trkpt lat="44.93476" lon="6.68622">
        <ele>1372.171966</ele>
        <time>2022-09-04T14:50:31+0200</time>
      </trkpt>
      <trkpt lat="44.93483" lon="6.68621">
        <ele>1372.231004</ele>
        <time>2022-09-04T14:50:32+0200</time>
      </trkpt>
      <trkpt lat="44.9349" lon="6.68621">
        <ele>1372.268703</ele>
        <time>2022-09-04T14:50:33+0200</time>
      </trkpt>
      <trkpt lat="44.93497" lon="6.6862">
        <ele>1372.134923</ele>
        <time>2022-09-04T14:50:34+0200</time>
      </trkpt>
      <trkpt lat="44.93503" lon="6.68619">
        <ele>1372.039007</ele>
        <time>2022-09-04T14:50:35+0200</time>
      </trkpt>
      <trkpt lat="44.93509" lon="6.68619">
        <ele>1371.921029</ele>
        <time>2022-09-04T14:50:36+0200</time>
      </trkpt>
      <trkpt lat="44.93516" lon="6.68618">
        <ele>1371.954521</ele>
        <time>2022-09-04T14:50:37+0200</time>
      </trkpt>
      <trkpt lat="44.93523" lon="6.68617">
        <ele>1371.923832</ele>
        <time>2022-09-04T14:50:38+0200</time>
      </trkpt>
      <trkpt lat="44.93529" lon="6.68614">
        <ele>1371.878634</ele>
        <time>2022-09-04T14:50:39+0200</time>
      </trkpt>
      <trkpt lat="44.93536" lon="6.68612">
        <ele>1371.937833</ele>
        <time>2022-09-04T14:50:40+0200</time>
      </trkpt>
      <trkpt lat="44.93541" lon="6.68609">
        <ele>1372.520781</ele>
        <time>2022-09-04T14:50:41+0200</time>
      </trkpt>
      <trkpt lat="44.93548" lon="6.68606">
        <ele>1372.420203</ele>
        <time>2022-09-04T14:50:42+0200</time>
      </trkpt>
      <trkpt lat="44.93554" lon="6.68602">
        <ele>1372.500601</ele>
        <time>2022-09-04T14:50:43+0200</time>
      </trkpt>
      <trkpt lat="44.9356" lon="6.68599">
        <ele>1372.935111</ele>
        <time>2022-09-04T14:50:44+0200</time>
      </trkpt>
      <trkpt lat="44.93567" lon="6.68595">
        <ele>1373.042993</ele>
        <time>2022-09-04T14:50:45+0200</time>
      </trkpt>
      <trkpt lat="44.93573" lon="6.68592">
        <ele>1373.148207</ele>
        <time>2022-09-04T14:50:46+0200</time>
      </trkpt>
      <trkpt lat="44.93579" lon="6.68588">
        <ele>1373.251466</ele>
        <time>2022-09-04T14:50:47+0200</time>
      </trkpt>
      <trkpt lat="44.93585" lon="6.68586">
        <ele>1373.189627</ele>
        <time>2022-09-04T14:50:48+0200</time>
      </trkpt>
      <trkpt lat="44.93592" lon="6.68583">
        <ele>1373.191839</ele>
        <time>2022-09-04T14:50:49+0200</time>
      </trkpt>
      <trkpt lat="44.93598" lon="6.68581">
        <ele>1373.090706</ele>
        <time>2022-09-04T14:50:50+0200</time>
      </trkpt>
      <trkpt lat="44.93604" lon="6.68578">
        <ele>1373.26824</ele>
        <time>2022-09-04T14:50:51+0200</time>
      </trkpt>
      <trkpt lat="44.9361" lon="6.68574">
        <ele>1373.393662</ele>
        <time>2022-09-04T14:50:52+0200</time>
      </trkpt>
      <trkpt lat="44.93616" lon="6.6857">
        <ele>1373.458137</ele>
        <time>2022-09-04T14:50:53+0200</time>
      </trkpt>
      <trkpt lat="44.93622" lon="6.68565">
        <ele>1373.398726</ele>
        <time>2022-09-04T14:50:54+0200</time>
      </trkpt>
      <trkpt lat="44.93628" lon="6.68561">
        <ele>1373.222436</ele>
        <time>2022-09-04T14:50:55+0200</time>
      </trkpt>
      <trkpt lat="44.93633" lon="6.68556">
        <ele>1373.063262</ele>
        <time>2022-09-04T14:50:56+0200</time>
      </trkpt>
      <trkpt lat="44.93639" lon="6.68551">
        <ele>1372.853018</ele>
        <time>2022-09-04T14:50:57+0200</time>
      </trkpt>
      <trkpt lat="44.93644" lon="6.68546">
        <ele>1372.824524</ele>
        <time>2022-09-04T14:50:58+0200</time>
      </trkpt>
      <trkpt lat="44.93649" lon="6.6854">
        <ele>1372.767455</ele>
        <time>2022-09-04T14:50:59+0200</time>
      </trkpt>
      <trkpt lat="44.93655" lon="6.68535">
        <ele>1372.835353</ele>
        <time>2022-09-04T14:51:00+0200</time>
      </trkpt>
      <trkpt lat="44.93661" lon="6.6853">
        <ele>1372.874046</ele>
        <time>2022-09-04T14:51:01+0200</time>
      </trkpt>
      <trkpt lat="44.93667" lon="6.68525">
        <ele>1372.773324</ele>
        <time>2022-09-04T14:51:02+0200</time>
      </trkpt>
      <trkpt lat="44.93672" lon="6.68519">
        <ele>1372.460581</ele>
        <time>2022-09-04T14:51:03+0200</time>
      </trkpt>
      <trkpt lat="44.93678" lon="6.68514">
        <ele>1372.24227</ele>
        <time>2022-09-04T14:51:04+0200</time>
      </trkpt>
      <trkpt lat="44.93684" lon="6.68509">
        <ele>1372.211402</ele>
        <time>2022-09-04T14:51:05+0200</time>
      </trkpt>
      <trkpt lat="44.9369" lon="6.68505">
        <ele>1372.230594</ele>
        <time>2022-09-04T14:51:06+0200</time>
      </trkpt>
      <trkpt lat="44.93696" lon="6.68499">
        <ele>1372.247305</ele>
        <time>2022-09-04T14:51:07+0200</time>
      </trkpt>
      <trkpt lat="44.93701" lon="6.68495">
        <ele>1372.480357</ele>
        <time>2022-09-04T14:51:08+0200</time>
      </trkpt>
      <trkpt lat="44.93706" lon="6.6849">
        <ele>1372.722563</ele>
        <time>2022-09-04T14:51:09+0200</time>
      </trkpt>
      <trkpt lat="44.93711" lon="6.68485">
        <ele>1373.057195</ele>
        <time>2022-09-04T14:51:10+0200</time>
      </trkpt>
      <trkpt lat="44.93716" lon="6.6848">
        <ele>1373.426271</ele>
        <time>2022-09-04T14:51:11+0200</time>
      </trkpt>
      <trkpt lat="44.93721" lon="6.68475">
        <ele>1374.019102</ele>
        <time>2022-09-04T14:51:12+0200</time>
      </trkpt>
      <trkpt lat="44.93726" lon="6.68471">
        <ele>1374.783997</ele>
        <time>2022-09-04T14:51:13+0200</time>
      </trkpt>
      <trkpt lat="44.93732" lon="6.68468">
        <ele>1375.344471</ele>
        <time>2022-09-04T14:51:14+0200</time>
      </trkpt>
      <trkpt lat="44.93737" lon="6.68464">
        <ele>1375.6843</ele>
        <time>2022-09-04T14:51:15+0200</time>
      </trkpt>
      <trkpt lat="44.93742" lon="6.6846">
        <ele>1375.974716</ele>
        <time>2022-09-04T14:51:16+0200</time>
      </trkpt>
      <trkpt lat="44.93748" lon="6.68457">
        <ele>1376.118312</ele>
        <time>2022-09-04T14:51:17+0200</time>
      </trkpt>
      <trkpt lat="44.93753" lon="6.68454">
        <ele>1376.177</ele>
        <time>2022-09-04T14:51:18+0200</time>
      </trkpt>
      <trkpt lat="44.93759" lon="6.68451">
        <ele>1376.129469</ele>
        <time>2022-09-04T14:51:19+0200</time>
      </trkpt>
      <trkpt lat="44.93764" lon="6.68448">
        <ele>1376.036604</ele>
        <time>2022-09-04T14:51:20+0200</time>
      </trkpt>
      <trkpt lat="44.93769" lon="6.68444">
        <ele>1376.388243</ele>
        <time>2022-09-04T14:51:21+0200</time>
      </trkpt>
      <trkpt lat="44.93775" lon="6.68442">
        <ele>1376.258764</ele>
        <time>2022-09-04T14:51:22+0200</time>
      </trkpt>
      <trkpt lat="44.93781" lon="6.6844">
        <ele>1376.317971</ele>
        <time>2022-09-04T14:51:23+0200</time>
      </trkpt>
      <trkpt lat="44.93787" lon="6.68436">
        <ele>1376.023635</ele>
        <time>2022-09-04T14:51:24+0200</time>
      </trkpt>
      <trkpt lat="44.93792" lon="6.68433">
        <ele>1375.681753</ele>
        <time>2022-09-04T14:51:25+0200</time>
      </trkpt>
      <trkpt lat="44.93797" lon="6.6843">
        <ele>1375.558283</ele>
        <time>2022-09-04T14:51:26+0200</time>
      </trkpt>
      <trkpt lat="44.93803" lon="6.68428">
        <ele>1375.227654</ele>
        <time>2022-09-04T14:51:27+0200</time>
      </trkpt>
      <trkpt lat="44.93809" lon="6.68425">
        <ele>1375.045937</ele>
        <time>2022-09-04T14:51:28+0200</time>
      </trkpt>
      <trkpt lat="44.93814" lon="6.68424">
        <ele>1374.917382</ele>
        <time>2022-09-04T14:51:29+0200</time>
      </trkpt>
      <trkpt lat="44.9382" lon="6.68421">
        <ele>1374.599049</ele>
        <time>2022-09-04T14:51:30+0200</time>
      </trkpt>
      <trkpt lat="44.93825" lon="6.68419">
        <ele>1374.132612</ele>
        <time>2022-09-04T14:51:31+0200</time>
      </trkpt>
      <trkpt lat="44.93831" lon="6.68418">
        <ele>1374.057605</ele>
        <time>2022-09-04T14:51:32+0200</time>
      </trkpt>
      <trkpt lat="44.93836" lon="6.68413">
        <ele>1373.530558</ele>
        <time>2022-09-04T14:51:33+0200</time>
      </trkpt>
      <trkpt lat="44.93842" lon="6.68409">
        <ele>1373.26963</ele>
        <time>2022-09-04T14:51:34+0200</time>
      </trkpt>
      <trkpt lat="44.93847" lon="6.68406">
        <ele>1373.384294</ele>
        <time>2022-09-04T14:51:35+0200</time>
      </trkpt>
      <trkpt lat="44.93853" lon="6.68403">
        <ele>1373.342136</ele>
        <time>2022-09-04T14:51:36+0200</time>
      </trkpt>
      <trkpt lat="44.9386" lon="6.684">
        <ele>1373.487501</ele>
        <time>2022-09-04T14:51:37+0200</time>
      </trkpt>
      <trkpt lat="44.93866" lon="6.68397">
        <ele>1373.728412</ele>
        <time>2022-09-04T14:51:38+0200</time>
      </trkpt>
      <trkpt lat="44.93872" lon="6.68395">
        <ele>1373.771344</ele>
        <time>2022-09-04T14:51:39+0200</time>
      </trkpt>
      <trkpt lat="44.93879" lon="6.68392">
        <ele>1374.089852</ele>
        <time>2022-09-04T14:51:40+0200</time>
      </trkpt>
      <trkpt lat="44.93884" lon="6.68389">
        <ele>1374.891923</ele>
        <time>2022-09-04T14:51:40+0200</time>
      </trkpt>
      <trkpt lat="44.93891" lon="6.68388">
        <ele>1375.7578</ele>
        <time>2022-09-04T14:51:41+0200</time>
      </trkpt>
      <trkpt lat="44.93896" lon="6.68385">
        <ele>1376.237474</ele>
        <time>2022-09-04T14:51:42+0200</time>
      </trkpt>
      <trkpt lat="44.93903" lon="6.68383">
        <ele>1375.876877</ele>
        <time>2022-09-04T14:51:43+0200</time>
      </trkpt>
      <trkpt lat="44.9391" lon="6.6838">
        <ele>1375.708262</ele>
        <time>2022-09-04T14:51:44+0200</time>
      </trkpt>
      <trkpt lat="44.93917" lon="6.68377">
        <ele>1375.687873</ele>
        <time>2022-09-04T14:51:45+0200</time>
      </trkpt>
      <trkpt lat="44.93923" lon="6.68373">
        <ele>1375.794772</ele>
        <time>2022-09-04T14:51:46+0200</time>
      </trkpt>
      <trkpt lat="44.9393" lon="6.68369">
        <ele>1375.736215</ele>
        <time>2022-09-04T14:51:47+0200</time>
      </trkpt>
      <trkpt lat="44.93937" lon="6.68365">
        <ele>1375.679711</ele>
        <time>2022-09-04T14:51:48+0200</time>
      </trkpt>
      <trkpt lat="44.93944" lon="6.68362">
        <ele>1375.833289</ele>
        <time>2022-09-04T14:51:49+0200</time>
      </trkpt>
      <trkpt lat="44.9395" lon="6.68357">
        <ele>1376.173019</ele>
        <time>2022-09-04T14:51:50+0200</time>
      </trkpt>
      <trkpt lat="44.93957" lon="6.68352">
        <ele>1376.428394</ele>
        <time>2022-09-04T14:51:51+0200</time>
      </trkpt>
      <trkpt lat="44.93963" lon="6.68346">
        <ele>1376.569797</ele>
        <time>2022-09-04T14:51:52+0200</time>
      </trkpt>
      <trkpt lat="44.93969" lon="6.68341">
        <ele>1376.534744</ele>
        <time>2022-09-04T14:51:53+0200</time>
      </trkpt>
      <trkpt lat="44.93976" lon="6.68336">
        <ele>1376.805708</ele>
        <time>2022-09-04T14:51:54+0200</time>
      </trkpt>
      <trkpt lat="44.93982" lon="6.68331">
        <ele>1377.068783</ele>
        <time>2022-09-04T14:51:55+0200</time>
      </trkpt>
      <trkpt lat="44.93989" lon="6.68326">
        <ele>1377.207929</ele>
        <time>2022-09-04T14:51:56+0200</time>
      </trkpt>
      <trkpt lat="44.93995" lon="6.6832">
        <ele>1377.544665</ele>
        <time>2022-09-04T14:51:57+0200</time>
      </trkpt>
      <trkpt lat="44.94001" lon="6.68315">
        <ele>1377.511931</ele>
        <time>2022-09-04T14:51:58+0200</time>
      </trkpt>
      <trkpt lat="44.94007" lon="6.68311">
        <ele>1377.779536</ele>
        <time>2022-09-04T14:51:59+0200</time>
      </trkpt>
      <trkpt lat="44.94013" lon="6.68307">
        <ele>1377.932841</ele>
        <time>2022-09-04T14:52:00+0200</time>
      </trkpt>
      <trkpt lat="44.94019" lon="6.68303">
        <ele>1378.075753</ele>
        <time>2022-09-04T14:52:02+0200</time>
      </trkpt>
      <trkpt lat="44.94023" lon="6.68296">
        <ele>1378.699673</ele>
        <time>2022-09-04T14:52:03+0200</time>
      </trkpt>
      <trkpt lat="44.94028" lon="6.68291">
        <ele>1378.865852</ele>
        <time>2022-09-04T14:52:04+0200</time>
      </trkpt>
      <trkpt lat="44.94032" lon="6.68286">
        <ele>1379.19628</ele>
        <time>2022-09-04T14:52:05+0200</time>
      </trkpt>
      <trkpt lat="44.94036" lon="6.68281">
        <ele>1379.413886</ele>
        <time>2022-09-04T14:52:06+0200</time>
      </trkpt>
      <trkpt lat="44.94041" lon="6.68276">
        <ele>1379.831068</ele>
        <time>2022-09-04T14:52:07+0200</time>
      </trkpt>
      <trkpt lat="44.94046" lon="6.68272">
        <ele>1379.875679</ele>
        <time>2022-09-04T14:52:08+0200</time>
      </trkpt>
      <trkpt lat="44.94051" lon="6.68269">
        <ele>1379.858954</ele>
        <time>2022-09-04T14:52:09+0200</time>
      </trkpt>
      <trkpt lat="44.94057" lon="6.68263">
        <ele>1379.541694</ele>
        <time>2022-09-04T14:52:10+0200</time>
      </trkpt>
      <trkpt lat="44.94062" lon="6.68258">
        <ele>1380.060458</ele>
        <time>2022-09-04T14:52:11+0200</time>
      </trkpt>
      <trkpt lat="44.94067" lon="6.68251">
        <ele>1379.430426</ele>
        <time>2022-09-04T14:52:12+0200</time>
      </trkpt>
      <trkpt lat="44.94074" lon="6.68248">
        <ele>1379.658238</ele>
        <time>2022-09-04T14:52:13+0200</time>
      </trkpt>
      <trkpt lat="44.9408" lon="6.68246">
        <ele>1379.182409</ele>
        <time>2022-09-04T14:52:14+0200</time>
      </trkpt>
      <trkpt lat="44.94087" lon="6.68245">
        <ele>1378.594941</ele>
        <time>2022-09-04T14:52:15+0200</time>
      </trkpt>
      <trkpt lat="44.94093" lon="6.68245">
        <ele>1378.414549</ele>
        <time>2022-09-04T14:52:16+0200</time>
      </trkpt>
      <trkpt lat="44.94099" lon="6.68245">
        <ele>1378.794824</ele>
        <time>2022-09-04T14:52:17+0200</time>
      </trkpt>
      <trkpt lat="44.94105" lon="6.68243">
        <ele>1379.155733</ele>
        <time>2022-09-04T14:52:18+0200</time>
      </trkpt>
      <trkpt lat="44.9411" lon="6.68241">
        <ele>1379.216356</ele>
        <time>2022-09-04T14:52:19+0200</time>
      </trkpt>
      <trkpt lat="44.94116" lon="6.68239">
        <ele>1379.445285</ele>
        <time>2022-09-04T14:52:20+0200</time>
      </trkpt>
      <trkpt lat="44.94121" lon="6.68238">
        <ele>1379.95561</ele>
        <time>2022-09-04T14:52:21+0200</time>
      </trkpt>
      <trkpt lat="44.94127" lon="6.68235">
        <ele>1380.214142</ele>
        <time>2022-09-04T14:52:22+0200</time>
      </trkpt>
      <trkpt lat="44.94132" lon="6.68234">
        <ele>1380.234884</ele>
        <time>2022-09-04T14:52:23+0200</time>
      </trkpt>
      <trkpt lat="44.94138" lon="6.68232">
        <ele>1380.065573</ele>
        <time>2022-09-04T14:52:24+0200</time>
      </trkpt>
      <trkpt lat="44.94145" lon="6.68229">
        <ele>1379.882724</ele>
        <time>2022-09-04T14:52:25+0200</time>
      </trkpt>
      <trkpt lat="44.9415" lon="6.68226">
        <ele>1379.768649</ele>
        <time>2022-09-04T14:52:26+0200</time>
      </trkpt>
      <trkpt lat="44.94157" lon="6.68225">
        <ele>1379.563824</ele>
        <time>2022-09-04T14:52:27+0200</time>
      </trkpt>
      <trkpt lat="44.94163" lon="6.68223">
        <ele>1379.426851</ele>
        <time>2022-09-04T14:52:28+0200</time>
      </trkpt>
      <trkpt lat="44.94169" lon="6.68221">
        <ele>1379.211475</ele>
        <time>2022-09-04T14:52:29+0200</time>
      </trkpt>
      <trkpt lat="44.94176" lon="6.68219">
        <ele>1379.210062</ele>
        <time>2022-09-04T14:52:30+0200</time>
      </trkpt>
      <trkpt lat="44.94182" lon="6.68217">
        <ele>1379.158204</ele>
        <time>2022-09-04T14:52:31+0200</time>
      </trkpt>
      <trkpt lat="44.94188" lon="6.68216">
        <ele>1378.997484</ele>
        <time>2022-09-04T14:52:32+0200</time>
      </trkpt>
      <trkpt lat="44.94194" lon="6.68214">
        <ele>1379.330076</ele>
        <time>2022-09-04T14:52:33+0200</time>
      </trkpt>
      <trkpt lat="44.942" lon="6.68213">
        <ele>1379.101059</ele>
        <time>2022-09-04T14:52:34+0200</time>
      </trkpt>
      <trkpt lat="44.94206" lon="6.68212">
        <ele>1378.689128</ele>
        <time>2022-09-04T14:52:35+0200</time>
      </trkpt>
      <trkpt lat="44.94212" lon="6.68213">
        <ele>1378.247983</ele>
        <time>2022-09-04T14:52:36+0200</time>
      </trkpt>
      <trkpt lat="44.94219" lon="6.68213">
        <ele>1378.274975</ele>
        <time>2022-09-04T14:52:37+0200</time>
      </trkpt>
      <trkpt lat="44.94224" lon="6.68214">
        <ele>1378.229012</ele>
        <time>2022-09-04T14:52:38+0200</time>
      </trkpt>
      <trkpt lat="44.94231" lon="6.68214">
        <ele>1378.18811</ele>
        <time>2022-09-04T14:52:39+0200</time>
      </trkpt>
      <trkpt lat="44.94237" lon="6.68214">
        <ele>1378.302492</ele>
        <time>2022-09-04T14:52:40+0200</time>
      </trkpt>
      <trkpt lat="44.94243" lon="6.68216">
        <ele>1378.5219</ele>
        <time>2022-09-04T14:52:41+0200</time>
      </trkpt>
      <trkpt lat="44.94248" lon="6.68221">
        <ele>1378.42744</ele>
        <time>2022-09-04T14:52:42+0200</time>
      </trkpt>
      <trkpt lat="44.94252" lon="6.68226">
        <ele>1378.350287</ele>
        <time>2022-09-04T14:52:43+0200</time>
      </trkpt>
      <trkpt lat="44.94258" lon="6.68233">
        <ele>1378.737603</ele>
        <time>2022-09-04T14:52:45+0200</time>
      </trkpt>
      <trkpt lat="44.94262" lon="6.6824">
        <ele>1379.59041</ele>
        <time>2022-09-04T14:52:47+0200</time>
      </trkpt>
      <trkpt lat="44.94266" lon="6.68248">
        <ele>1380.220535</ele>
        <time>2022-09-04T14:52:49+0200</time>
      </trkpt>
      <trkpt lat="44.9427" lon="6.68254">
        <ele>1380.357517</ele>
        <time>2022-09-04T14:52:50+0200</time>
      </trkpt>
      <trkpt lat="44.94273" lon="6.68261">
        <ele>1380.923115</ele>
        <time>2022-09-04T14:52:51+0200</time>
      </trkpt>
      <trkpt lat="44.94277" lon="6.68266">
        <ele>1381.522494</ele>
        <time>2022-09-04T14:52:52+0200</time>
      </trkpt>
      <trkpt lat="44.94281" lon="6.6827">
        <ele>1382.103585</ele>
        <time>2022-09-04T14:52:53+0200</time>
      </trkpt>
      <trkpt lat="44.94285" lon="6.68273">
        <ele>1382.828423</ele>
        <time>2022-09-04T14:52:54+0200</time>
      </trkpt>
      <trkpt lat="44.94291" lon="6.6828">
        <ele>1383.268737</ele>
        <time>2022-09-04T14:52:56+0200</time>
      </trkpt>
      <trkpt lat="44.94296" lon="6.68282">
        <ele>1383.514304</ele>
        <time>2022-09-04T14:52:57+0200</time>
      </trkpt>
      <trkpt lat="44.94304" lon="6.68284">
        <ele>1383.599966</ele>
        <time>2022-09-04T14:52:59+0200</time>
      </trkpt>
      <trkpt lat="44.94312" lon="6.68287">
        <ele>1384.53024</ele>
        <time>2022-09-04T14:53:01+0200</time>
      </trkpt>
      <trkpt lat="44.94319" lon="6.68291">
        <ele>1384.748078</ele>
        <time>2022-09-04T14:53:03+0200</time>
      </trkpt>
      <trkpt lat="44.94328" lon="6.68293">
        <ele>1384.915092</ele>
        <time>2022-09-04T14:53:05+0200</time>
      </trkpt>
      <trkpt lat="44.94332" lon="6.68293">
        <ele>1384.801717</ele>
        <time>2022-09-04T14:53:06+0200</time>
      </trkpt>
      <trkpt lat="44.9434" lon="6.68294">
        <ele>1384.299411</ele>
        <time>2022-09-04T14:53:08+0200</time>
      </trkpt>
      <trkpt lat="44.94347" lon="6.68296">
        <ele>1384.845411</ele>
        <time>2022-09-04T14:53:10+0200</time>
      </trkpt>
      <trkpt lat="44.94351" lon="6.683">
        <ele>1384.42665</ele>
        <time>2022-09-04T14:53:12+0200</time>
      </trkpt>
      <trkpt lat="44.94357" lon="6.68305">
        <ele>1384.527405</ele>
        <time>2022-09-04T14:53:14+0200</time>
      </trkpt>
      <trkpt lat="44.94363" lon="6.68309">
        <ele>1384.926127</ele>
        <time>2022-09-04T14:53:16+0200</time>
      </trkpt>
      <trkpt lat="44.94371" lon="6.68311">
        <ele>1385.83171</ele>
        <time>2022-09-04T14:53:18+0200</time>
      </trkpt>
      <trkpt lat="44.94376" lon="6.6831">
        <ele>1385.86226</ele>
        <time>2022-09-04T14:53:19+0200</time>
      </trkpt>
      <trkpt lat="44.94381" lon="6.68311">
        <ele>1385.910714</ele>
        <time>2022-09-04T14:53:20+0200</time>
      </trkpt>
      <trkpt lat="44.94386" lon="6.6831">
        <ele>1385.919317</ele>
        <time>2022-09-04T14:53:21+0200</time>
      </trkpt>
      <trkpt lat="44.94391" lon="6.68308">
        <ele>1386.022642</ele>
        <time>2022-09-04T14:53:22+0200</time>
      </trkpt>
      <trkpt lat="44.94396" lon="6.68307">
        <ele>1386.529886</ele>
        <time>2022-09-04T14:53:23+0200</time>
      </trkpt>
      <trkpt lat="44.94401" lon="6.68309">
        <ele>1386.352904</ele>
        <time>2022-09-04T14:53:24+0200</time>
      </trkpt>
      <trkpt lat="44.94406" lon="6.6831">
        <ele>1386.324729</ele>
        <time>2022-09-04T14:53:25+0200</time>
      </trkpt>
      <trkpt lat="44.94415" lon="6.68312">
        <ele>1386.579389</ele>
        <time>2022-09-04T14:53:27+0200</time>
      </trkpt>
      <trkpt lat="44.94419" lon="6.68312">
        <ele>1386.434583</ele>
        <time>2022-09-04T14:53:28+0200</time>
      </trkpt>
      <trkpt lat="44.94424" lon="6.68312">
        <ele>1386.680763</ele>
        <time>2022-09-04T14:53:29+0200</time>
      </trkpt>
      <trkpt lat="44.9443" lon="6.68311">
        <ele>1386.62224</ele>
        <time>2022-09-04T14:53:30+0200</time>
      </trkpt>
      <trkpt lat="44.94437" lon="6.68312">
        <ele>1386.094798</ele>
        <time>2022-09-04T14:53:31+0200</time>
      </trkpt>
      <trkpt lat="44.94444" lon="6.68312">
        <ele>1385.344651</ele>
        <time>2022-09-04T14:53:32+0200</time>
      </trkpt>
      <trkpt lat="44.94452" lon="6.68311">
        <ele>1384.760513</ele>
        <time>2022-09-04T14:53:33+0200</time>
      </trkpt>
      <trkpt lat="44.94458" lon="6.68306">
        <ele>1384.626876</ele>
        <time>2022-09-04T14:53:34+0200</time>
      </trkpt>
      <trkpt lat="44.94464" lon="6.68297">
        <ele>1384.067825</ele>
        <time>2022-09-04T14:53:35+0200</time>
      </trkpt>
      <trkpt lat="44.94468" lon="6.68287">
        <ele>1384.187888</ele>
        <time>2022-09-04T14:53:36+0200</time>
      </trkpt>
      <trkpt lat="44.94473" lon="6.68279">
        <ele>1384.480092</ele>
        <time>2022-09-04T14:53:37+0200</time>
      </trkpt>
      <trkpt lat="44.94478" lon="6.68271">
        <ele>1384.309011</ele>
        <time>2022-09-04T14:53:38+0200</time>
      </trkpt>
      <trkpt lat="44.94484" lon="6.68264">
        <ele>1383.631433</ele>
        <time>2022-09-04T14:53:39+0200</time>
      </trkpt>
      <trkpt lat="44.94491" lon="6.68258">
        <ele>1383.111914</ele>
        <time>2022-09-04T14:53:40+0200</time>
      </trkpt>
      <trkpt lat="44.94497" lon="6.68252">
        <ele>1382.643355</ele>
        <time>2022-09-04T14:53:40+0200</time>
      </trkpt>
      <trkpt lat="44.94506" lon="6.68248">
        <ele>1381.91216</ele>
        <time>2022-09-04T14:53:42+0200</time>
      </trkpt>
      <trkpt lat="44.94516" lon="6.68247">
        <ele>1381.24866</ele>
        <time>2022-09-04T14:53:42+0200</time>
      </trkpt>
      <trkpt lat="44.94525" lon="6.6825">
        <ele>1380.782829</ele>
        <time>2022-09-04T14:53:44+0200</time>
      </trkpt>
      <trkpt lat="44.94532" lon="6.68252">
        <ele>1380.257146</ele>
        <time>2022-09-04T14:53:45+0200</time>
      </trkpt>
      <trkpt lat="44.9454" lon="6.68253">
        <ele>1379.500941</ele>
        <time>2022-09-04T14:53:46+0200</time>
      </trkpt>
      <trkpt lat="44.94547" lon="6.68255">
        <ele>1379.381935</ele>
        <time>2022-09-04T14:53:46+0200</time>
      </trkpt>
      <trkpt lat="44.94553" lon="6.68255">
        <ele>1379.608172</ele>
        <time>2022-09-04T14:53:47+0200</time>
      </trkpt>
      <trkpt lat="44.9456" lon="6.68255">
        <ele>1379.235833</ele>
        <time>2022-09-04T14:53:48+0200</time>
      </trkpt>
      <trkpt lat="44.94568" lon="6.68253">
        <ele>1379.022849</ele>
        <time>2022-09-04T14:53:49+0200</time>
      </trkpt>
      <trkpt lat="44.94574" lon="6.68249">
        <ele>1379.008655</ele>
        <time>2022-09-04T14:53:50+0200</time>
      </trkpt>
      <trkpt lat="44.9458" lon="6.68242">
        <ele>1379.461437</ele>
        <time>2022-09-04T14:53:51+0200</time>
      </trkpt>
      <trkpt lat="44.94586" lon="6.68235">
        <ele>1379.777272</ele>
        <time>2022-09-04T14:53:52+0200</time>
      </trkpt>
      <trkpt lat="44.94592" lon="6.6823">
        <ele>1379.597449</ele>
        <time>2022-09-04T14:53:53+0200</time>
      </trkpt>
      <trkpt lat="44.94599" lon="6.68225">
        <ele>1379.426259</ele>
        <time>2022-09-04T14:53:54+0200</time>
      </trkpt>
      <trkpt lat="44.94605" lon="6.68222">
        <ele>1379.583315</ele>
        <time>2022-09-04T14:53:55+0200</time>
      </trkpt>
      <trkpt lat="44.94612" lon="6.68219">
        <ele>1379.447427</ele>
        <time>2022-09-04T14:53:56+0200</time>
      </trkpt>
      <trkpt lat="44.94618" lon="6.68215">
        <ele>1379.529736</ele>
        <time>2022-09-04T14:53:57+0200</time>
      </trkpt>
      <trkpt lat="44.94625" lon="6.68212">
        <ele>1379.332093</ele>
        <time>2022-09-04T14:53:58+0200</time>
      </trkpt>
      <trkpt lat="44.94631" lon="6.68208">
        <ele>1379.230823</ele>
        <time>2022-09-04T14:53:59+0200</time>
      </trkpt>
      <trkpt lat="44.94636" lon="6.68203">
        <ele>1379.356282</ele>
        <time>2022-09-04T14:54:00+0200</time>
      </trkpt>
      <trkpt lat="44.94642" lon="6.68199">
        <ele>1379.264013</ele>
        <time>2022-09-04T14:54:01+0200</time>
      </trkpt>
      <trkpt lat="44.94649" lon="6.68198">
        <ele>1379.524627</ele>
        <time>2022-09-04T14:54:02+0200</time>
      </trkpt>
      <trkpt lat="44.94656" lon="6.68199">
        <ele>1379.573566</ele>
        <time>2022-09-04T14:54:03+0200</time>
      </trkpt>
      <trkpt lat="44.94662" lon="6.68197">
        <ele>1379.349571</ele>
        <time>2022-09-04T14:54:04+0200</time>
      </trkpt>
      <trkpt lat="44.94668" lon="6.68197">
        <ele>1379.037063</ele>
        <time>2022-09-04T14:54:05+0200</time>
      </trkpt>
      <trkpt lat="44.94675" lon="6.68196">
        <ele>1378.899268</ele>
        <time>2022-09-04T14:54:06+0200</time>
      </trkpt>
      <trkpt lat="44.94681" lon="6.68195">
        <ele>1379.197988</ele>
        <time>2022-09-04T14:54:07+0200</time>
      </trkpt>
      <trkpt lat="44.94687" lon="6.68195">
        <ele>1379.732994</ele>
        <time>2022-09-04T14:54:08+0200</time>
      </trkpt>
      <trkpt lat="44.94693" lon="6.68194">
        <ele>1380.495633</ele>
        <time>2022-09-04T14:54:09+0200</time>
      </trkpt>
      <trkpt lat="44.94698" lon="6.68191">
        <ele>1380.75027</ele>
        <time>2022-09-04T14:54:10+0200</time>
      </trkpt>
      <trkpt lat="44.94703" lon="6.68187">
        <ele>1381.154181</ele>
        <time>2022-09-04T14:54:12+0200</time>
      </trkpt>
      <trkpt lat="44.94709" lon="6.68183">
        <ele>1381.677968</ele>
        <time>2022-09-04T14:54:13+0200</time>
      </trkpt>
      <trkpt lat="44.94714" lon="6.68179">
        <ele>1381.99147</ele>
        <time>2022-09-04T14:54:14+0200</time>
      </trkpt>
      <trkpt lat="44.9472" lon="6.68174">
        <ele>1382.319642</ele>
        <time>2022-09-04T14:54:15+0200</time>
      </trkpt>
      <trkpt lat="44.94725" lon="6.68171">
        <ele>1382.477699</ele>
        <time>2022-09-04T14:54:16+0200</time>
      </trkpt>
      <trkpt lat="44.94731" lon="6.68167">
        <ele>1382.533472</ele>
        <time>2022-09-04T14:54:17+0200</time>
      </trkpt>
      <trkpt lat="44.94736" lon="6.68162">
        <ele>1382.727048</ele>
        <time>2022-09-04T14:54:18+0200</time>
      </trkpt>
      <trkpt lat="44.94741" lon="6.68156">
        <ele>1383.362461</ele>
        <time>2022-09-04T14:54:19+0200</time>
      </trkpt>
      <trkpt lat="44.94745" lon="6.6815">
        <ele>1384.083498</ele>
        <time>2022-09-04T14:54:20+0200</time>
      </trkpt>
      <trkpt lat="44.94749" lon="6.68145">
        <ele>1384.262179</ele>
        <time>2022-09-04T14:54:21+0200</time>
      </trkpt>
      <trkpt lat="44.94753" lon="6.68138">
        <ele>1384.416214</ele>
        <time>2022-09-04T14:54:22+0200</time>
      </trkpt>
      <trkpt lat="44.94757" lon="6.68133">
        <ele>1384.722335</ele>
        <time>2022-09-04T14:54:23+0200</time>
      </trkpt>
      <trkpt lat="44.94762" lon="6.68128">
        <ele>1384.832051</ele>
        <time>2022-09-04T14:54:24+0200</time>
      </trkpt>
      <trkpt lat="44.94767" lon="6.68123">
        <ele>1385.002127</ele>
        <time>2022-09-04T14:54:25+0200</time>
      </trkpt>
      <trkpt lat="44.9477" lon="6.68114">
        <ele>1384.988804</ele>
        <time>2022-09-04T14:54:26+0200</time>
      </trkpt>
      <trkpt lat="44.94773" lon="6.68106">
        <ele>1384.977334</ele>
        <time>2022-09-04T14:54:27+0200</time>
      </trkpt>
      <trkpt lat="44.94774" lon="6.68098">
        <ele>1384.812102</ele>
        <time>2022-09-04T14:54:28+0200</time>
      </trkpt>
      <trkpt lat="44.94777" lon="6.6809">
        <ele>1384.830651</ele>
        <time>2022-09-04T14:54:29+0200</time>
      </trkpt>
      <trkpt lat="44.94779" lon="6.68082">
        <ele>1384.526575</ele>
        <time>2022-09-04T14:54:30+0200</time>
      </trkpt>
      <trkpt lat="44.94781" lon="6.68072">
        <ele>1384.796103</ele>
        <time>2022-09-04T14:54:31+0200</time>
      </trkpt>
      <trkpt lat="44.94784" lon="6.68065">
        <ele>1385.105049</ele>
        <time>2022-09-04T14:54:32+0200</time>
      </trkpt>
      <trkpt lat="44.94788" lon="6.6806">
        <ele>1384.982793</ele>
        <time>2022-09-04T14:54:33+0200</time>
      </trkpt>
      <trkpt lat="44.94792" lon="6.68054">
        <ele>1384.886308</ele>
        <time>2022-09-04T14:54:34+0200</time>
      </trkpt>
      <trkpt lat="44.94797" lon="6.68049">
        <ele>1385.200519</ele>
        <time>2022-09-04T14:54:35+0200</time>
      </trkpt>
      <trkpt lat="44.94801" lon="6.68042">
        <ele>1384.974203</ele>
        <time>2022-09-04T14:54:36+0200</time>
      </trkpt>
      <trkpt lat="44.94805" lon="6.68037">
        <ele>1385.096488</ele>
        <time>2022-09-04T14:54:37+0200</time>
      </trkpt>
      <trkpt lat="44.94809" lon="6.68032">
        <ele>1385.144561</ele>
        <time>2022-09-04T14:54:38+0200</time>
      </trkpt>
      <trkpt lat="44.94813" lon="6.68029">
        <ele>1385.059991</ele>
        <time>2022-09-04T14:54:39+0200</time>
      </trkpt>
      <trkpt lat="44.94818" lon="6.68024">
        <ele>1384.955662</ele>
        <time>2022-09-04T14:54:40+0200</time>
      </trkpt>
      <trkpt lat="44.94822" lon="6.68021">
        <ele>1384.595395</ele>
        <time>2022-09-04T14:54:41+0200</time>
      </trkpt>
      <trkpt lat="44.94827" lon="6.68018">
        <ele>1384.635876</ele>
        <time>2022-09-04T14:54:42+0200</time>
      </trkpt>
      <trkpt lat="44.94832" lon="6.68014">
        <ele>1384.639771</ele>
        <time>2022-09-04T14:54:43+0200</time>
      </trkpt>
      <trkpt lat="44.94835" lon="6.68008">
        <ele>1384.867494</ele>
        <time>2022-09-04T14:54:44+0200</time>
      </trkpt>
      <trkpt lat="44.9484" lon="6.68003">
        <ele>1385.125826</ele>
        <time>2022-09-04T14:54:45+0200</time>
      </trkpt>
      <trkpt lat="44.94844" lon="6.67999">
        <ele>1385.024968</ele>
        <time>2022-09-04T14:54:46+0200</time>
      </trkpt>
      <trkpt lat="44.9485" lon="6.67997">
        <ele>1384.647823</ele>
        <time>2022-09-04T14:54:47+0200</time>
      </trkpt>
      <trkpt lat="44.94856" lon="6.67996">
        <ele>1384.293652</ele>
        <time>2022-09-04T14:54:48+0200</time>
      </trkpt>
      <trkpt lat="44.94862" lon="6.67998">
        <ele>1384.039822</ele>
        <time>2022-09-04T14:54:49+0200</time>
      </trkpt>
      <trkpt lat="44.94868" lon="6.68">
        <ele>1383.896211</ele>
        <time>2022-09-04T14:54:50+0200</time>
      </trkpt>
      <trkpt lat="44.94874" lon="6.68002">
        <ele>1383.823334</ele>
        <time>2022-09-04T14:54:51+0200</time>
      </trkpt>
      <trkpt lat="44.9488" lon="6.68003">
        <ele>1383.578314</ele>
        <time>2022-09-04T14:54:52+0200</time>
      </trkpt>
      <trkpt lat="44.94886" lon="6.68003">
        <ele>1383.077711</ele>
        <time>2022-09-04T14:54:53+0200</time>
      </trkpt>
      <trkpt lat="44.94891" lon="6.67999">
        <ele>1383.285035</ele>
        <time>2022-09-04T14:54:54+0200</time>
      </trkpt>
      <trkpt lat="44.94896" lon="6.67993">
        <ele>1383.427357</ele>
        <time>2022-09-04T14:54:55+0200</time>
      </trkpt>
      <trkpt lat="44.949" lon="6.67987">
        <ele>1383.333909</ele>
        <time>2022-09-04T14:54:56+0200</time>
      </trkpt>
      <trkpt lat="44.94904" lon="6.67981">
        <ele>1383.534977</ele>
        <time>2022-09-04T14:54:57+0200</time>
      </trkpt>
      <trkpt lat="44.94909" lon="6.67977">
        <ele>1383.546604</ele>
        <time>2022-09-04T14:54:58+0200</time>
      </trkpt>
      <trkpt lat="44.94913" lon="6.67972">
        <ele>1383.548581</ele>
        <time>2022-09-04T14:54:59+0200</time>
      </trkpt>
      <trkpt lat="44.94919" lon="6.67968">
        <ele>1383.534469</ele>
        <time>2022-09-04T14:55:00+0200</time>
      </trkpt>
      <trkpt lat="44.94924" lon="6.67965">
        <ele>1383.892364</ele>
        <time>2022-09-04T14:55:01+0200</time>
      </trkpt>
      <trkpt lat="44.94929" lon="6.67961">
        <ele>1384.098295</ele>
        <time>2022-09-04T14:55:02+0200</time>
      </trkpt>
      <trkpt lat="44.94934" lon="6.67957">
        <ele>1384.115151</ele>
        <time>2022-09-04T14:55:03+0200</time>
      </trkpt>
      <trkpt lat="44.94939" lon="6.67954">
        <ele>1384.124085</ele>
        <time>2022-09-04T14:55:04+0200</time>
      </trkpt>
      <trkpt lat="44.94944" lon="6.67949">
        <ele>1384.158549</ele>
        <time>2022-09-04T14:55:05+0200</time>
      </trkpt>
      <trkpt lat="44.94946" lon="6.67942">
        <ele>1384.270163</ele>
        <time>2022-09-04T14:55:06+0200</time>
      </trkpt>
      <trkpt lat="44.94948" lon="6.67935">
        <ele>1384.339369</ele>
        <time>2022-09-04T14:55:07+0200</time>
      </trkpt>
      <trkpt lat="44.94946" lon="6.67926">
        <ele>1384.466525</ele>
        <time>2022-09-04T14:55:08+0200</time>
      </trkpt>
      <trkpt lat="44.94945" lon="6.67919">
        <ele>1384.537784</ele>
        <time>2022-09-04T14:55:09+0200</time>
      </trkpt>
      <trkpt lat="44.94944" lon="6.67912">
        <ele>1384.729675</ele>
        <time>2022-09-04T14:55:10+0200</time>
      </trkpt>
      <trkpt lat="44.94944" lon="6.67906">
        <ele>1384.433149</ele>
        <time>2022-09-04T14:55:11+0200</time>
      </trkpt>
      <trkpt lat="44.9495" lon="6.67899">
        <ele>1385.228882</ele>
        <time>2022-09-04T14:55:13+0200</time>
      </trkpt>
      <trkpt lat="44.94956" lon="6.67901">
        <ele>1385.530078</ele>
        <time>2022-09-04T14:55:15+0200</time>
      </trkpt>
      <trkpt lat="44.9496" lon="6.67904">
        <ele>1385.55374</ele>
        <time>2022-09-04T14:55:16+0200</time>
      </trkpt>
      <trkpt lat="44.94968" lon="6.67906">
        <ele>1386.591763</ele>
        <time>2022-09-04T14:55:18+0200</time>
      </trkpt>
      <trkpt lat="44.94973" lon="6.67907">
        <ele>1386.888154</ele>
        <time>2022-09-04T14:55:19+0200</time>
      </trkpt>
      <trkpt lat="44.94979" lon="6.67909">
        <ele>1387.411721</ele>
        <time>2022-09-04T14:55:20+0200</time>
      </trkpt>
      <trkpt lat="44.94984" lon="6.6791">
        <ele>1387.901342</ele>
        <time>2022-09-04T14:55:21+0200</time>
      </trkpt>
      <trkpt lat="44.94993" lon="6.67912">
        <ele>1389.062477</ele>
        <time>2022-09-04T14:55:23+0200</time>
      </trkpt>
      <trkpt lat="44.94998" lon="6.67912">
        <ele>1389.699577</ele>
        <time>2022-09-04T14:55:24+0200</time>
      </trkpt>
      <trkpt lat="44.95003" lon="6.67914">
        <ele>1390.16346</ele>
        <time>2022-09-04T14:55:25+0200</time>
      </trkpt>
      <trkpt lat="44.95008" lon="6.67914">
        <ele>1390.433402</ele>
        <time>2022-09-04T14:55:26+0200</time>
      </trkpt>
      <trkpt lat="44.95013" lon="6.67913">
        <ele>1390.880623</ele>
        <time>2022-09-04T14:55:27+0200</time>
      </trkpt>
      <trkpt lat="44.95017" lon="6.67911">
        <ele>1390.812146</ele>
        <time>2022-09-04T14:55:28+0200</time>
      </trkpt>
      <trkpt lat="44.95022" lon="6.67909">
        <ele>1390.665483</ele>
        <time>2022-09-04T14:55:29+0200</time>
      </trkpt>
      <trkpt lat="44.9503" lon="6.67912">
        <ele>1390.148041</ele>
        <time>2022-09-04T14:55:31+0200</time>
      </trkpt>
      <trkpt lat="44.95034" lon="6.67917">
        <ele>1389.84395</ele>
        <time>2022-09-04T14:55:32+0200</time>
      </trkpt>
      <trkpt lat="44.95037" lon="6.67922">
        <ele>1389.806768</ele>
        <time>2022-09-04T14:55:34+0200</time>
      </trkpt>
      <trkpt lat="44.95044" lon="6.67925">
        <ele>1390.441958</ele>
        <time>2022-09-04T14:55:36+0200</time>
      </trkpt>
      <trkpt lat="44.95046" lon="6.67931">
        <ele>1390.894741</ele>
        <time>2022-09-04T14:55:38+0200</time>
      </trkpt>
      <trkpt lat="44.95046" lon="6.67938">
        <ele>1391.482261</ele>
        <time>2022-09-04T14:55:40+0200</time>
      </trkpt>
      <trkpt lat="44.95045" lon="6.67944">
        <ele>1392.378478</ele>
        <time>2022-09-04T14:55:42+0200</time>
      </trkpt>
      <trkpt lat="44.95041" lon="6.67952">
        <ele>1393.924541</ele>
        <time>2022-09-04T14:55:45+0200</time>
      </trkpt>
      <trkpt lat="44.95043" lon="6.6796">
        <ele>1395.239714</ele>
        <time>2022-09-04T14:55:48+0200</time>
      </trkpt>
      <trkpt lat="44.95048" lon="6.6796">
        <ele>1395.90116</ele>
        <time>2022-09-04T14:55:50+0200</time>
      </trkpt>
      <trkpt lat="44.95052" lon="6.67954">
        <ele>1396.109433</ele>
        <time>2022-09-04T14:55:53+0200</time>
      </trkpt>
      <trkpt lat="44.95057" lon="6.67953">
        <ele>1396.256667</ele>
        <time>2022-09-04T14:55:55+0200</time>
      </trkpt>
      <trkpt lat="44.95063" lon="6.67949">
        <ele>1396.38574</ele>
        <time>2022-09-04T14:55:57+0200</time>
      </trkpt>
      <trkpt lat="44.9507" lon="6.67941">
        <ele>1397.065343</ele>
        <time>2022-09-04T14:55:59+0200</time>
      </trkpt>
      <trkpt lat="44.95072" lon="6.67936">
        <ele>1396.989801</ele>
        <time>2022-09-04T14:56:00+0200</time>
      </trkpt>
      <trkpt lat="44.95075" lon="6.6793">
        <ele>1396.350922</ele>
        <time>2022-09-04T14:56:01+0200</time>
      </trkpt>
      <trkpt lat="44.95077" lon="6.67923">
        <ele>1396.325025</ele>
        <time>2022-09-04T14:56:02+0200</time>
      </trkpt>
      <trkpt lat="44.95081" lon="6.67919">
        <ele>1396.393596</ele>
        <time>2022-09-04T14:56:03+0200</time>
      </trkpt>
      <trkpt lat="44.95085" lon="6.67914">
        <ele>1396.412435</ele>
        <time>2022-09-04T14:56:04+0200</time>
      </trkpt>
      <trkpt lat="44.95089" lon="6.6791">
        <ele>1396.366921</ele>
        <time>2022-09-04T14:56:05+0200</time>
      </trkpt>
      <trkpt lat="44.95094" lon="6.67907">
        <ele>1396.224418</ele>
        <time>2022-09-04T14:56:06+0200</time>
      </trkpt>
      <trkpt lat="44.95099" lon="6.67906">
        <ele>1396.380388</ele>
        <time>2022-09-04T14:56:07+0200</time>
      </trkpt>
      <trkpt lat="44.95104" lon="6.67904">
        <ele>1396.12639</ele>
        <time>2022-09-04T14:56:08+0200</time>
      </trkpt>
      <trkpt lat="44.95108" lon="6.67899">
        <ele>1396.02186</ele>
        <time>2022-09-04T14:56:09+0200</time>
      </trkpt>
      <trkpt lat="44.95113" lon="6.67889">
        <ele>1396.152087</ele>
        <time>2022-09-04T14:56:12+0200</time>
      </trkpt>
      <trkpt lat="44.95118" lon="6.67883">
        <ele>1395.982864</ele>
        <time>2022-09-04T14:56:14+0200</time>
      </trkpt>
      <trkpt lat="44.95122" lon="6.67877">
        <ele>1395.525496</ele>
        <time>2022-09-04T14:56:17+0200</time>
      </trkpt>
      <trkpt lat="44.95127" lon="6.67871">
        <ele>1395.411559</ele>
        <time>2022-09-04T14:56:19+0200</time>
      </trkpt>
      <trkpt lat="44.95135" lon="6.67865">
        <ele>1395.975716</ele>
        <time>2022-09-04T14:56:21+0200</time>
      </trkpt>
      <trkpt lat="44.95138" lon="6.67861">
        <ele>1396.351652</ele>
        <time>2022-09-04T14:56:22+0200</time>
      </trkpt>
      <trkpt lat="44.95142" lon="6.67858">
        <ele>1396.710228</ele>
        <time>2022-09-04T14:56:23+0200</time>
      </trkpt>
      <trkpt lat="44.95147" lon="6.67854">
        <ele>1396.89301</ele>
        <time>2022-09-04T14:56:24+0200</time>
      </trkpt>
      <trkpt lat="44.95151" lon="6.6785">
        <ele>1397.040932</ele>
        <time>2022-09-04T14:56:25+0200</time>
      </trkpt>
      <trkpt lat="44.95156" lon="6.67847">
        <ele>1397.389658</ele>
        <time>2022-09-04T14:56:26+0200</time>
      </trkpt>
      <trkpt lat="44.95161" lon="6.67845">
        <ele>1397.146203</ele>
        <time>2022-09-04T14:56:27+0200</time>
      </trkpt>
      <trkpt lat="44.95166" lon="6.67843">
        <ele>1396.804259</ele>
        <time>2022-09-04T14:56:28+0200</time>
      </trkpt>
      <trkpt lat="44.95171" lon="6.67841">
        <ele>1396.114595</ele>
        <time>2022-09-04T14:56:29+0200</time>
      </trkpt>
      <trkpt lat="44.95175" lon="6.67839">
        <ele>1396.061681</ele>
        <time>2022-09-04T14:56:30+0200</time>
      </trkpt>
      <trkpt lat="44.9518" lon="6.67837">
        <ele>1395.868595</ele>
        <time>2022-09-04T14:56:31+0200</time>
      </trkpt>
      <trkpt lat="44.95184" lon="6.67833">
        <ele>1396.002572</ele>
        <time>2022-09-04T14:56:32+0200</time>
      </trkpt>
      <trkpt lat="44.9519" lon="6.67831">
        <ele>1396.114963</ele>
        <time>2022-09-04T14:56:33+0200</time>
      </trkpt>
      <trkpt lat="44.95195" lon="6.67829">
        <ele>1396.362546</ele>
        <time>2022-09-04T14:56:34+0200</time>
      </trkpt>
      <trkpt lat="44.952" lon="6.67828">
        <ele>1396.260162</ele>
        <time>2022-09-04T14:56:35+0200</time>
      </trkpt>
      <trkpt lat="44.95205" lon="6.67828">
        <ele>1396.079727</ele>
        <time>2022-09-04T14:56:36+0200</time>
      </trkpt>
      <trkpt lat="44.95211" lon="6.67828">
        <ele>1395.664326</ele>
        <time>2022-09-04T14:56:37+0200</time>
      </trkpt>
      <trkpt lat="44.95216" lon="6.67829">
        <ele>1395.680251</ele>
        <time>2022-09-04T14:56:38+0200</time>
      </trkpt>
      <trkpt lat="44.95221" lon="6.67828">
        <ele>1395.654117</ele>
        <time>2022-09-04T14:56:39+0200</time>
      </trkpt>
      <trkpt lat="44.95227" lon="6.67827">
        <ele>1395.476006</ele>
        <time>2022-09-04T14:56:40+0200</time>
      </trkpt>
      <trkpt lat="44.95231" lon="6.67826">
        <ele>1395.474917</ele>
        <time>2022-09-04T14:56:41+0200</time>
      </trkpt>
      <trkpt lat="44.95241" lon="6.67822">
        <ele>1395.344656</ele>
        <time>2022-09-04T14:56:43+0200</time>
      </trkpt>
      <trkpt lat="44.95247" lon="6.67821">
        <ele>1395.409392</ele>
        <time>2022-09-04T14:56:44+0200</time>
      </trkpt>
      <trkpt lat="44.95256" lon="6.67822">
        <ele>1395.298962</ele>
        <time>2022-09-04T14:56:46+0200</time>
      </trkpt>
      <trkpt lat="44.95263" lon="6.67821">
        <ele>1394.793728</ele>
        <time>2022-09-04T14:56:47+0200</time>
      </trkpt>
      <trkpt lat="44.95268" lon="6.67821">
        <ele>1394.470244</ele>
        <time>2022-09-04T14:56:48+0200</time>
      </trkpt>
      <trkpt lat="44.95273" lon="6.67819">
        <ele>1394.137466</ele>
        <time>2022-09-04T14:56:49+0200</time>
      </trkpt>
      <trkpt lat="44.95278" lon="6.67818">
        <ele>1393.654408</ele>
        <time>2022-09-04T14:56:50+0200</time>
      </trkpt>
      <trkpt lat="44.95284" lon="6.67817">
        <ele>1393.148923</ele>
        <time>2022-09-04T14:56:51+0200</time>
      </trkpt>
      <trkpt lat="44.9529" lon="6.67817">
        <ele>1393.120782</ele>
        <time>2022-09-04T14:56:52+0200</time>
      </trkpt>
      <trkpt lat="44.95295" lon="6.67817">
        <ele>1392.890298</ele>
        <time>2022-09-04T14:56:53+0200</time>
      </trkpt>
      <trkpt lat="44.95304" lon="6.6782">
        <ele>1393.540212</ele>
        <time>2022-09-04T14:56:55+0200</time>
      </trkpt>
      <trkpt lat="44.95309" lon="6.67821">
        <ele>1393.602301</ele>
        <time>2022-09-04T14:56:56+0200</time>
      </trkpt>
      <trkpt lat="44.95316" lon="6.67824">
        <ele>1394.414626</ele>
        <time>2022-09-04T14:56:58+0200</time>
      </trkpt>
      <trkpt lat="44.95324" lon="6.67831">
        <ele>1394.994578</ele>
        <time>2022-09-04T14:57:00+0200</time>
      </trkpt>
      <trkpt lat="44.95328" lon="6.67833">
        <ele>1395.477919</ele>
        <time>2022-09-04T14:57:01+0200</time>
      </trkpt>
      <trkpt lat="44.95332" lon="6.67835">
        <ele>1395.603424</ele>
        <time>2022-09-04T14:57:02+0200</time>
      </trkpt>
      <trkpt lat="44.95337" lon="6.67837">
        <ele>1395.912732</ele>
        <time>2022-09-04T14:57:03+0200</time>
      </trkpt>
      <trkpt lat="44.95341" lon="6.67839">
        <ele>1396.206802</ele>
        <time>2022-09-04T14:57:04+0200</time>
      </trkpt>
      <trkpt lat="44.95347" lon="6.6784">
        <ele>1396.354003</ele>
        <time>2022-09-04T14:57:05+0200</time>
      </trkpt>
      <trkpt lat="44.95353" lon="6.6784">
        <ele>1396.421778</ele>
        <time>2022-09-04T14:57:06+0200</time>
      </trkpt>
      <trkpt lat="44.9536" lon="6.67841">
        <ele>1396.564402</ele>
        <time>2022-09-04T14:57:07+0200</time>
      </trkpt>
      <trkpt lat="44.95365" lon="6.6784">
        <ele>1396.338724</ele>
        <time>2022-09-04T14:57:08+0200</time>
      </trkpt>
      <trkpt lat="44.95369" lon="6.67837">
        <ele>1396.511031</ele>
        <time>2022-09-04T14:57:09+0200</time>
      </trkpt>
      <trkpt lat="44.95373" lon="6.67832">
        <ele>1396.602486</ele>
        <time>2022-09-04T14:57:10+0200</time>
      </trkpt>
      <trkpt lat="44.9538" lon="6.67824">
        <ele>1397.181169</ele>
        <time>2022-09-04T14:57:12+0200</time>
      </trkpt>
      <trkpt lat="44.95382" lon="6.67818">
        <ele>1397.789064</ele>
        <time>2022-09-04T14:57:13+0200</time>
      </trkpt>
      <trkpt lat="44.95385" lon="6.67812">
        <ele>1398.40833</ele>
        <time>2022-09-04T14:57:14+0200</time>
      </trkpt>
      <trkpt lat="44.9539" lon="6.67808">
        <ele>1398.628871</ele>
        <time>2022-09-04T14:57:15+0200</time>
      </trkpt>
      <trkpt lat="44.95394" lon="6.67804">
        <ele>1399.171306</ele>
        <time>2022-09-04T14:57:16+0200</time>
      </trkpt>
      <trkpt lat="44.95402" lon="6.67796">
        <ele>1399.8679</ele>
        <time>2022-09-04T14:57:18+0200</time>
      </trkpt>
      <trkpt lat="44.95406" lon="6.67792">
        <ele>1399.526437</ele>
        <time>2022-09-04T14:57:19+0200</time>
      </trkpt>
      <trkpt lat="44.95411" lon="6.6779">
        <ele>1399.220035</ele>
        <time>2022-09-04T14:57:20+0200</time>
      </trkpt>
      <trkpt lat="44.95416" lon="6.67791">
        <ele>1398.707868</ele>
        <time>2022-09-04T14:57:21+0200</time>
      </trkpt>
      <trkpt lat="44.9542" lon="6.67794">
        <ele>1398.016559</ele>
        <time>2022-09-04T14:57:22+0200</time>
      </trkpt>
      <trkpt lat="44.95427" lon="6.67796">
        <ele>1397.647135</ele>
        <time>2022-09-04T14:57:24+0200</time>
      </trkpt>
      <trkpt lat="44.95435" lon="6.67799">
        <ele>1396.479361</ele>
        <time>2022-09-04T14:57:26+0200</time>
      </trkpt>
      <trkpt lat="44.95442" lon="6.67796">
        <ele>1396.180421</ele>
        <time>2022-09-04T14:57:28+0200</time>
      </trkpt>
      <trkpt lat="44.95447" lon="6.67796">
        <ele>1395.699978</ele>
        <time>2022-09-04T14:57:29+0200</time>
      </trkpt>
      <trkpt lat="44.95453" lon="6.67798">
        <ele>1395.356136</ele>
        <time>2022-09-04T14:57:30+0200</time>
      </trkpt>
      <trkpt lat="44.95458" lon="6.67799">
        <ele>1395.234081</ele>
        <time>2022-09-04T14:57:31+0200</time>
      </trkpt>
      <trkpt lat="44.95468" lon="6.67797">
        <ele>1394.644498</ele>
        <time>2022-09-04T14:57:33+0200</time>
      </trkpt>
      <trkpt lat="44.95473" lon="6.67796">
        <ele>1394.566609</ele>
        <time>2022-09-04T14:57:34+0200</time>
      </trkpt>
      <trkpt lat="44.95479" lon="6.67795">
        <ele>1394.839074</ele>
        <time>2022-09-04T14:57:35+0200</time>
      </trkpt>
      <trkpt lat="44.95485" lon="6.67794">
        <ele>1394.847216</ele>
        <time>2022-09-04T14:57:36+0200</time>
      </trkpt>
      <trkpt lat="44.9549" lon="6.67795">
        <ele>1395.121861</ele>
        <time>2022-09-04T14:57:37+0200</time>
      </trkpt>
      <trkpt lat="44.95495" lon="6.67796">
        <ele>1395.324389</ele>
        <time>2022-09-04T14:57:38+0200</time>
      </trkpt>
      <trkpt lat="44.955" lon="6.67795">
        <ele>1396.086262</ele>
        <time>2022-09-04T14:57:39+0200</time>
      </trkpt>
      <trkpt lat="44.95505" lon="6.67796">
        <ele>1396.263595</ele>
        <time>2022-09-04T14:57:40+0200</time>
      </trkpt>
      <trkpt lat="44.9551" lon="6.67796">
        <ele>1396.818442</ele>
        <time>2022-09-04T14:57:41+0200</time>
      </trkpt>
      <trkpt lat="44.95515" lon="6.67799">
        <ele>1396.362823</ele>
        <time>2022-09-04T14:57:42+0200</time>
      </trkpt>
      <trkpt lat="44.95522" lon="6.67803">
        <ele>1396.466174</ele>
        <time>2022-09-04T14:57:44+0200</time>
      </trkpt>
      <trkpt lat="44.95526" lon="6.67807">
        <ele>1396.527743</ele>
        <time>2022-09-04T14:57:46+0200</time>
      </trkpt>
      <trkpt lat="44.95531" lon="6.67815">
        <ele>1396.088384</ele>
        <time>2022-09-04T14:57:48+0200</time>
      </trkpt>
      <trkpt lat="44.95533" lon="6.67826">
        <ele>1397.001738</ele>
        <time>2022-09-04T14:57:50+0200</time>
      </trkpt>
      <trkpt lat="44.9554" lon="6.67829">
        <ele>1398.665712</ele>
        <time>2022-09-04T14:57:52+0200</time>
      </trkpt>
      <trkpt lat="44.95548" lon="6.67826">
        <ele>1399.273687</ele>
        <time>2022-09-04T14:57:54+0200</time>
      </trkpt>
      <trkpt lat="44.95555" lon="6.67823">
        <ele>1399.811355</ele>
        <time>2022-09-04T14:57:56+0200</time>
      </trkpt>
      <trkpt lat="44.95564" lon="6.67822">
        <ele>1399.749708</ele>
        <time>2022-09-04T14:57:58+0200</time>
      </trkpt>
      <trkpt lat="44.95572" lon="6.67819">
        <ele>1399.580693</ele>
        <time>2022-09-04T14:58:00+0200</time>
      </trkpt>
      <trkpt lat="44.95573" lon="6.6781">
        <ele>1399.676066</ele>
        <time>2022-09-04T14:58:02+0200</time>
      </trkpt>
      <trkpt lat="44.95571" lon="6.67804">
        <ele>1399.441055</ele>
        <time>2022-09-04T14:58:03+0200</time>
      </trkpt>
      <trkpt lat="44.95566" lon="6.67793">
        <ele>1399.163447</ele>
        <time>2022-09-04T14:58:05+0200</time>
      </trkpt>
      <trkpt lat="44.95563" lon="6.67789">
        <ele>1399.288254</ele>
        <time>2022-09-04T14:58:06+0200</time>
      </trkpt>
      <trkpt lat="44.9556" lon="6.67784">
        <ele>1399.501759</ele>
        <time>2022-09-04T14:58:07+0200</time>
      </trkpt>
      <trkpt lat="44.95553" lon="6.67776">
        <ele>1399.52915</ele>
        <time>2022-09-04T14:58:09+0200</time>
      </trkpt>
      <trkpt lat="44.95552" lon="6.67768">
        <ele>1399.957703</ele>
        <time>2022-09-04T14:58:10+0200</time>
      </trkpt>
      <trkpt lat="44.95554" lon="6.67761">
        <ele>1400.29508</ele>
        <time>2022-09-04T14:58:11+0200</time>
      </trkpt>
      <trkpt lat="44.95561" lon="6.67761">
        <ele>1400.729126</ele>
        <time>2022-09-04T14:58:13+0200</time>
      </trkpt>
      <trkpt lat="44.95568" lon="6.67763">
        <ele>1400.827709</ele>
        <time>2022-09-04T14:58:15+0200</time>
      </trkpt>
      <trkpt lat="44.95575" lon="6.67764">
        <ele>1400.940635</ele>
        <time>2022-09-04T14:58:17+0200</time>
      </trkpt>
      <trkpt lat="44.95583" lon="6.67765">
        <ele>1400.579056</ele>
        <time>2022-09-04T14:58:19+0200</time>
      </trkpt>
      <trkpt lat="44.9559" lon="6.67767">
        <ele>1400.633828</ele>
        <time>2022-09-04T14:58:21+0200</time>
      </trkpt>
      <trkpt lat="44.95597" lon="6.67764">
        <ele>1400.557636</ele>
        <time>2022-09-04T14:58:23+0200</time>
      </trkpt>
      <trkpt lat="44.95604" lon="6.67763">
        <ele>1400.462185</ele>
        <time>2022-09-04T14:58:25+0200</time>
      </trkpt>
      <trkpt lat="44.95609" lon="6.67763">
        <ele>1400.175514</ele>
        <time>2022-09-04T14:58:26+0200</time>
      </trkpt>
      <trkpt lat="44.95613" lon="6.67762">
        <ele>1400.166238</ele>
        <time>2022-09-04T14:58:27+0200</time>
      </trkpt>
      <trkpt lat="44.95621" lon="6.67761">
        <ele>1399.733363</ele>
        <time>2022-09-04T14:58:29+0200</time>
      </trkpt>
      <trkpt lat="44.9563" lon="6.67761">
        <ele>1400.343008</ele>
        <time>2022-09-04T14:58:31+0200</time>
      </trkpt>
      <trkpt lat="44.95639" lon="6.67759">
        <ele>1401.152965</ele>
        <time>2022-09-04T14:58:33+0200</time>
      </trkpt>
      <trkpt lat="44.95646" lon="6.67756">
        <ele>1402.593869</ele>
        <time>2022-09-04T14:58:35+0200</time>
      </trkpt>
      <trkpt lat="44.95653" lon="6.67753">
        <ele>1404.038091</ele>
        <time>2022-09-04T14:58:37+0200</time>
      </trkpt>
      <trkpt lat="44.95659" lon="6.67751">
        <ele>1405.517916</ele>
        <time>2022-09-04T14:58:39+0200</time>
      </trkpt>
      <trkpt lat="44.95665" lon="6.67748">
        <ele>1406.288942</ele>
        <time>2022-09-04T14:58:41+0200</time>
      </trkpt>
      <trkpt lat="44.95672" lon="6.67743">
        <ele>1406.99913</ele>
        <time>2022-09-04T14:58:43+0200</time>
      </trkpt>
      <trkpt lat="44.95678" lon="6.67741">
        <ele>1407.405616</ele>
        <time>2022-09-04T14:58:45+0200</time>
      </trkpt>
      <trkpt lat="44.95685" lon="6.67738">
        <ele>1407.755136</ele>
        <time>2022-09-04T14:58:47+0200</time>
      </trkpt>
      <trkpt lat="44.95693" lon="6.67734">
        <ele>1408.035998</ele>
        <time>2022-09-04T14:58:49+0200</time>
      </trkpt>
      <trkpt lat="44.957" lon="6.67732">
        <ele>1408.11315</ele>
        <time>2022-09-04T14:58:51+0200</time>
      </trkpt>
      <trkpt lat="44.95707" lon="6.67728">
        <ele>1408.387733</ele>
        <time>2022-09-04T14:58:53+0200</time>
      </trkpt>
      <trkpt lat="44.95715" lon="6.67725">
        <ele>1408.620634</ele>
        <time>2022-09-04T14:58:55+0200</time>
      </trkpt>
      <trkpt lat="44.95723" lon="6.67722">
        <ele>1408.734633</ele>
        <time>2022-09-04T14:58:57+0200</time>
      </trkpt>
      <trkpt lat="44.95731" lon="6.67719">
        <ele>1408.920644</ele>
        <time>2022-09-04T14:58:59+0200</time>
      </trkpt>
      <trkpt lat="44.95738" lon="6.67716">
        <ele>1409.278616</ele>
        <time>2022-09-04T14:59:01+0200</time>
      </trkpt>
      <trkpt lat="44.95746" lon="6.67712">
        <ele>1409.828413</ele>
        <time>2022-09-04T14:59:03+0200</time>
      </trkpt>
      <trkpt lat="44.95753" lon="6.67708">
        <ele>1410.707381</ele>
        <time>2022-09-04T14:59:05+0200</time>
      </trkpt>
      <trkpt lat="44.9576" lon="6.67705">
        <ele>1411.455712</ele>
        <time>2022-09-04T14:59:07+0200</time>
      </trkpt>
      <trkpt lat="44.95768" lon="6.67701">
        <ele>1411.888772</ele>
        <time>2022-09-04T14:59:09+0200</time>
      </trkpt>
      <trkpt lat="44.95777" lon="6.67699">
        <ele>1412.939234</ele>
        <time>2022-09-04T14:59:11+0200</time>
      </trkpt>
      <trkpt lat="44.95784" lon="6.67693">
        <ele>1413.510008</ele>
        <time>2022-09-04T14:59:13+0200</time>
      </trkpt>
      <trkpt lat="44.95791" lon="6.67687">
        <ele>1414.295187</ele>
        <time>2022-09-04T14:59:15+0200</time>
      </trkpt>
      <trkpt lat="44.95797" lon="6.67682">
        <ele>1414.822054</ele>
        <time>2022-09-04T14:59:17+0200</time>
      </trkpt>
      <trkpt lat="44.95804" lon="6.67677">
        <ele>1415.138884</ele>
        <time>2022-09-04T14:59:19+0200</time>
      </trkpt>
      <trkpt lat="44.9581" lon="6.67671">
        <ele>1415.435808</ele>
        <time>2022-09-04T14:59:21+0200</time>
      </trkpt>
      <trkpt lat="44.95816" lon="6.67665">
        <ele>1415.705159</ele>
        <time>2022-09-04T14:59:23+0200</time>
      </trkpt>
      <trkpt lat="44.95822" lon="6.67658">
        <ele>1416.448195</ele>
        <time>2022-09-04T14:59:25+0200</time>
      </trkpt>
      <trkpt lat="44.95826" lon="6.67651">
        <ele>1417.261752</ele>
        <time>2022-09-04T14:59:27+0200</time>
      </trkpt>
      <trkpt lat="44.95829" lon="6.67644">
        <ele>1417.91687</ele>
        <time>2022-09-04T14:59:29+0200</time>
      </trkpt>
      <trkpt lat="44.95833" lon="6.67638">
        <ele>1418.771327</ele>
        <time>2022-09-04T14:59:31+0200</time>
      </trkpt>
      <trkpt lat="44.95836" lon="6.67631">
        <ele>1420.040758</ele>
        <time>2022-09-04T14:59:33+0200</time>
      </trkpt>
      <trkpt lat="44.95838" lon="6.67625">
        <ele>1420.758056</ele>
        <time>2022-09-04T14:59:35+0200</time>
      </trkpt>
      <trkpt lat="44.95842" lon="6.6762">
        <ele>1421.286958</ele>
        <time>2022-09-04T14:59:37+0200</time>
      </trkpt>
      <trkpt lat="44.95845" lon="6.67614">
        <ele>1421.535046</ele>
        <time>2022-09-04T14:59:39+0200</time>
      </trkpt>
      <trkpt lat="44.9585" lon="6.67607">
        <ele>1422.415595</ele>
        <time>2022-09-04T14:59:41+0200</time>
      </trkpt>
      <trkpt lat="44.95858" lon="6.67601">
        <ele>1421.874969</ele>
        <time>2022-09-04T14:59:43+0200</time>
      </trkpt>
      <trkpt lat="44.95861" lon="6.67597">
        <ele>1421.589364</ele>
        <time>2022-09-04T14:59:44+0200</time>
      </trkpt>
      <trkpt lat="44.95865" lon="6.67593">
        <ele>1421.358474</ele>
        <time>2022-09-04T14:59:45+0200</time>
      </trkpt>
      <trkpt lat="44.95869" lon="6.67589">
        <ele>1421.003582</ele>
        <time>2022-09-04T14:59:46+0200</time>
      </trkpt>
      <trkpt lat="44.95873" lon="6.67585">
        <ele>1420.8733</ele>
        <time>2022-09-04T14:59:47+0200</time>
      </trkpt>
      <trkpt lat="44.95878" lon="6.67581">
        <ele>1420.68076</ele>
        <time>2022-09-04T14:59:48+0200</time>
      </trkpt>
      <trkpt lat="44.95882" lon="6.67577">
        <ele>1420.6534</ele>
        <time>2022-09-04T14:59:49+0200</time>
      </trkpt>
      <trkpt lat="44.95886" lon="6.67573">
        <ele>1420.564206</ele>
        <time>2022-09-04T14:59:50+0200</time>
      </trkpt>
      <trkpt lat="44.9589" lon="6.6757">
        <ele>1420.599521</ele>
        <time>2022-09-04T14:59:51+0200</time>
      </trkpt>
      <trkpt lat="44.95895" lon="6.67566">
        <ele>1420.501653</ele>
        <time>2022-09-04T14:59:52+0200</time>
      </trkpt>
      <trkpt lat="44.959" lon="6.67563">
        <ele>1420.379562</ele>
        <time>2022-09-04T14:59:53+0200</time>
      </trkpt>
      <trkpt lat="44.95904" lon="6.67559">
        <ele>1420.236671</ele>
        <time>2022-09-04T14:59:54+0200</time>
      </trkpt>
      <trkpt lat="44.95909" lon="6.67556">
        <ele>1420.042857</ele>
        <time>2022-09-04T14:59:55+0200</time>
      </trkpt>
      <trkpt lat="44.95913" lon="6.67552">
        <ele>1419.721006</ele>
        <time>2022-09-04T14:59:56+0200</time>
      </trkpt>
      <trkpt lat="44.95918" lon="6.67548">
        <ele>1420.050945</ele>
        <time>2022-09-04T14:59:57+0200</time>
      </trkpt>
      <trkpt lat="44.95922" lon="6.67544">
        <ele>1420.1038</ele>
        <time>2022-09-04T14:59:58+0200</time>
      </trkpt>
      <trkpt lat="44.95927" lon="6.6754">
        <ele>1420.146559</ele>
        <time>2022-09-04T14:59:59+0200</time>
      </trkpt>
      <trkpt lat="44.95932" lon="6.67537">
        <ele>1420.074692</ele>
        <time>2022-09-04T15:00:00+0200</time>
      </trkpt>
      <trkpt lat="44.95936" lon="6.67533">
        <ele>1419.998524</ele>
        <time>2022-09-04T15:00:01+0200</time>
      </trkpt>
      <trkpt lat="44.95941" lon="6.67528">
        <ele>1420.161456</ele>
        <time>2022-09-04T15:00:02+0200</time>
      </trkpt>
      <trkpt lat="44.95945" lon="6.67524">
        <ele>1420.135462</ele>
        <time>2022-09-04T15:00:03+0200</time>
      </trkpt>
      <trkpt lat="44.95949" lon="6.67519">
        <ele>1420.082077</ele>
        <time>2022-09-04T15:00:04+0200</time>
      </trkpt>
      <trkpt lat="44.95953" lon="6.67514">
        <ele>1420.13049</ele>
        <time>2022-09-04T15:00:05+0200</time>
      </trkpt>
      <trkpt lat="44.95958" lon="6.6751">
        <ele>1420.113197</ele>
        <time>2022-09-04T15:00:06+0200</time>
      </trkpt>
      <trkpt lat="44.95962" lon="6.67505">
        <ele>1420.056934</ele>
        <time>2022-09-04T15:00:07+0200</time>
      </trkpt>
      <trkpt lat="44.95966" lon="6.67501">
        <ele>1420.074737</ele>
        <time>2022-09-04T15:00:08+0200</time>
      </trkpt>
      <trkpt lat="44.9597" lon="6.67497">
        <ele>1419.713724</ele>
        <time>2022-09-04T15:00:09+0200</time>
      </trkpt>
      <trkpt lat="44.95975" lon="6.67491">
        <ele>1420.093113</ele>
        <time>2022-09-04T15:00:10+0200</time>
      </trkpt>
      <trkpt lat="44.95979" lon="6.67488">
        <ele>1420.413357</ele>
        <time>2022-09-04T15:00:11+0200</time>
      </trkpt>
      <trkpt lat="44.95983" lon="6.67484">
        <ele>1420.183729</ele>
        <time>2022-09-04T15:00:12+0200</time>
      </trkpt>
      <trkpt lat="44.95987" lon="6.6748">
        <ele>1420.331683</ele>
        <time>2022-09-04T15:00:13+0200</time>
      </trkpt>
      <trkpt lat="44.95991" lon="6.67475">
        <ele>1420.402826</ele>
        <time>2022-09-04T15:00:14+0200</time>
      </trkpt>
      <trkpt lat="44.95993" lon="6.67469">
        <ele>1420.567759</ele>
        <time>2022-09-04T15:00:15+0200</time>
      </trkpt>
      <trkpt lat="44.95993" lon="6.67457">
        <ele>1420.98566</ele>
        <time>2022-09-04T15:00:17+0200</time>
      </trkpt>
      <trkpt lat="44.95991" lon="6.67447">
        <ele>1421.586793</ele>
        <time>2022-09-04T15:00:19+0200</time>
      </trkpt>
      <trkpt lat="44.95989" lon="6.67439">
        <ele>1422.177398</ele>
        <time>2022-09-04T15:00:21+0200</time>
      </trkpt>
      <trkpt lat="44.95988" lon="6.67432">
        <ele>1423.075159</ele>
        <time>2022-09-04T15:00:23+0200</time>
      </trkpt>
      <trkpt lat="44.95987" lon="6.67425">
        <ele>1424.503384</ele>
        <time>2022-09-04T15:00:25+0200</time>
      </trkpt>
      <trkpt lat="44.95988" lon="6.67416">
        <ele>1425.683684</ele>
        <time>2022-09-04T15:00:27+0200</time>
      </trkpt>
      <trkpt lat="44.9599" lon="6.67409">
        <ele>1425.876913</ele>
        <time>2022-09-04T15:00:29+0200</time>
      </trkpt>
      <trkpt lat="44.95993" lon="6.67402">
        <ele>1426.11516</ele>
        <time>2022-09-04T15:00:31+0200</time>
      </trkpt>
      <trkpt lat="44.95996" lon="6.67394">
        <ele>1426.82906</ele>
        <time>2022-09-04T15:00:33+0200</time>
      </trkpt>
      <trkpt lat="44.96" lon="6.67387">
        <ele>1427.141596</ele>
        <time>2022-09-04T15:00:35+0200</time>
      </trkpt>
      <trkpt lat="44.96002" lon="6.6738">
        <ele>1427.415449</ele>
        <time>2022-09-04T15:00:37+0200</time>
      </trkpt>
      <trkpt lat="44.96006" lon="6.67371">
        <ele>1428.190533</ele>
        <time>2022-09-04T15:00:39+0200</time>
      </trkpt>
      <trkpt lat="44.96009" lon="6.67363">
        <ele>1428.324671</ele>
        <time>2022-09-04T15:00:41+0200</time>
      </trkpt>
      <trkpt lat="44.96012" lon="6.67354">
        <ele>1428.449271</ele>
        <time>2022-09-04T15:00:43+0200</time>
      </trkpt>
      <trkpt lat="44.96016" lon="6.67345">
        <ele>1428.616285</ele>
        <time>2022-09-04T15:00:45+0200</time>
      </trkpt>
      <trkpt lat="44.9602" lon="6.67336">
        <ele>1429.087538</ele>
        <time>2022-09-04T15:00:47+0200</time>
      </trkpt>
      <trkpt lat="44.96023" lon="6.67328">
        <ele>1429.737097</ele>
        <time>2022-09-04T15:00:49+0200</time>
      </trkpt>
      <trkpt lat="44.96026" lon="6.67319">
        <ele>1430.127097</ele>
        <time>2022-09-04T15:00:51+0200</time>
      </trkpt>
      <trkpt lat="44.9603" lon="6.67311">
        <ele>1431.329553</ele>
        <time>2022-09-04T15:00:53+0200</time>
      </trkpt>
      <trkpt lat="44.96034" lon="6.67303">
        <ele>1431.512337</ele>
        <time>2022-09-04T15:00:55+0200</time>
      </trkpt>
      <trkpt lat="44.96037" lon="6.67293">
        <ele>1432.067105</ele>
        <time>2022-09-04T15:00:57+0200</time>
      </trkpt>
      <trkpt lat="44.96041" lon="6.67284">
        <ele>1431.675785</ele>
        <time>2022-09-04T15:00:59+0200</time>
      </trkpt>
      <trkpt lat="44.96045" lon="6.67275">
        <ele>1431.304278</ele>
        <time>2022-09-04T15:01:01+0200</time>
      </trkpt>
      <trkpt lat="44.96049" lon="6.67267">
        <ele>1431.346886</ele>
        <time>2022-09-04T15:01:03+0200</time>
      </trkpt>
      <trkpt lat="44.96054" lon="6.67259">
        <ele>1431.711722</ele>
        <time>2022-09-04T15:01:05+0200</time>
      </trkpt>
      <trkpt lat="44.96058" lon="6.67249">
        <ele>1431.086353</ele>
        <time>2022-09-04T15:01:07+0200</time>
      </trkpt>
      <trkpt lat="44.96063" lon="6.67241">
        <ele>1431.505232</ele>
        <time>2022-09-04T15:01:09+0200</time>
      </trkpt>
      <trkpt lat="44.96066" lon="6.67232">
        <ele>1432.100311</ele>
        <time>2022-09-04T15:01:11+0200</time>
      </trkpt>
      <trkpt lat="44.9607" lon="6.67223">
        <ele>1432.653482</ele>
        <time>2022-09-04T15:01:13+0200</time>
      </trkpt>
      <trkpt lat="44.96074" lon="6.67214">
        <ele>1432.85285</ele>
        <time>2022-09-04T15:01:15+0200</time>
      </trkpt>
      <trkpt lat="44.96079" lon="6.67204">
        <ele>1432.593517</ele>
        <time>2022-09-04T15:01:17+0200</time>
      </trkpt>
      <trkpt lat="44.96084" lon="6.67194">
        <ele>1432.805779</ele>
        <time>2022-09-04T15:01:19+0200</time>
      </trkpt>
      <trkpt lat="44.96088" lon="6.67184">
        <ele>1432.629852</ele>
        <time>2022-09-04T15:01:21+0200</time>
      </trkpt>
      <trkpt lat="44.96091" lon="6.67173">
        <ele>1433.284063</ele>
        <time>2022-09-04T15:01:23+0200</time>
      </trkpt>
      <trkpt lat="44.96093" lon="6.67167">
        <ele>1433.336448</ele>
        <time>2022-09-04T15:01:24+0200</time>
      </trkpt>
      <trkpt lat="44.96095" lon="6.67155">
        <ele>1433.609293</ele>
        <time>2022-09-04T15:01:26+0200</time>
      </trkpt>
      <trkpt lat="44.96097" lon="6.67145">
        <ele>1433.948028</ele>
        <time>2022-09-04T15:01:28+0200</time>
      </trkpt>
      <trkpt lat="44.961" lon="6.67135">
        <ele>1434.23103</ele>
        <time>2022-09-04T15:01:30+0200</time>
      </trkpt>
      <trkpt lat="44.96104" lon="6.67125">
        <ele>1434.571059</ele>
        <time>2022-09-04T15:01:32+0200</time>
      </trkpt>
      <trkpt lat="44.96109" lon="6.67116">
        <ele>1434.915624</ele>
        <time>2022-09-04T15:01:34+0200</time>
      </trkpt>
      <trkpt lat="44.96112" lon="6.67106">
        <ele>1435.043635</ele>
        <time>2022-09-04T15:01:36+0200</time>
      </trkpt>
      <trkpt lat="44.96113" lon="6.67096">
        <ele>1435.472116</ele>
        <time>2022-09-04T15:01:38+0200</time>
      </trkpt>
      <trkpt lat="44.96115" lon="6.67086">
        <ele>1435.553175</ele>
        <time>2022-09-04T15:01:40+0200</time>
      </trkpt>
      <trkpt lat="44.96115" lon="6.67076">
        <ele>1435.469935</ele>
        <time>2022-09-04T15:01:42+0200</time>
      </trkpt>
      <trkpt lat="44.96115" lon="6.67064">
        <ele>1435.319784</ele>
        <time>2022-09-04T15:01:44+0200</time>
      </trkpt>
      <trkpt lat="44.96115" lon="6.67054">
        <ele>1435.316236</ele>
        <time>2022-09-04T15:01:46+0200</time>
      </trkpt>
      <trkpt lat="44.96115" lon="6.67044">
        <ele>1435.913915</ele>
        <time>2022-09-04T15:01:48+0200</time>
      </trkpt>
      <trkpt lat="44.96115" lon="6.67035">
        <ele>1436.498005</ele>
        <time>2022-09-04T15:01:50+0200</time>
      </trkpt>
      <trkpt lat="44.96115" lon="6.67026">
        <ele>1437.833415</ele>
        <time>2022-09-04T15:01:52+0200</time>
      </trkpt>
      <trkpt lat="44.96117" lon="6.67019">
        <ele>1438.994598</ele>
        <time>2022-09-04T15:01:54+0200</time>
      </trkpt>
      <trkpt lat="44.96118" lon="6.67011">
        <ele>1439.746284</ele>
        <time>2022-09-04T15:01:56+0200</time>
      </trkpt>
      <trkpt lat="44.96121" lon="6.67004">
        <ele>1440.373545</ele>
        <time>2022-09-04T15:01:58+0200</time>
      </trkpt>
      <trkpt lat="44.96124" lon="6.66997">
        <ele>1441.156377</ele>
        <time>2022-09-04T15:02:00+0200</time>
      </trkpt>
      <trkpt lat="44.96127" lon="6.66992">
        <ele>1441.232058</ele>
        <time>2022-09-04T15:02:02+0200</time>
      </trkpt>
      <trkpt lat="44.9613" lon="6.66987">
        <ele>1441.292876</ele>
        <time>2022-09-04T15:02:04+0200</time>
      </trkpt>
      <trkpt lat="44.96135" lon="6.66981">
        <ele>1441.315656</ele>
        <time>2022-09-04T15:02:07+0200</time>
      </trkpt>
      <trkpt lat="44.96139" lon="6.66974">
        <ele>1441.293824</ele>
        <time>2022-09-04T15:02:10+0200</time>
      </trkpt>
      <trkpt lat="44.96145" lon="6.66969">
        <ele>1441.118137</ele>
        <time>2022-09-04T15:02:13+0200</time>
      </trkpt>
      <trkpt lat="44.96149" lon="6.66963">
        <ele>1441.045487</ele>
        <time>2022-09-04T15:02:16+0200</time>
      </trkpt>
      <trkpt lat="44.96151" lon="6.66957">
        <ele>1441.262322</ele>
        <time>2022-09-04T15:02:18+0200</time>
      </trkpt>
      <trkpt lat="44.9615" lon="6.6695">
        <ele>1442.497383</ele>
        <time>2022-09-04T15:02:20+0200</time>
      </trkpt>
      <trkpt lat="44.96146" lon="6.66943">
        <ele>1445.482632</ele>
        <time>2022-09-04T15:02:23+0200</time>
      </trkpt>
      <trkpt lat="44.96141" lon="6.66939">
        <ele>1446.845547</ele>
        <time>2022-09-04T15:02:25+0200</time>
      </trkpt>
      <trkpt lat="44.96136" lon="6.66937">
        <ele>1447.441048</ele>
        <time>2022-09-04T15:02:27+0200</time>
      </trkpt>
      <trkpt lat="44.96131" lon="6.66936">
        <ele>1447.821379</ele>
        <time>2022-09-04T15:02:29+0200</time>
      </trkpt>
      <trkpt lat="44.96125" lon="6.66934">
        <ele>1448.062891</ele>
        <time>2022-09-04T15:02:31+0200</time>
      </trkpt>
      <trkpt lat="44.9612" lon="6.66932">
        <ele>1447.629551</ele>
        <time>2022-09-04T15:02:33+0200</time>
      </trkpt>
      <trkpt lat="44.96114" lon="6.6693">
        <ele>1447.611947</ele>
        <time>2022-09-04T15:02:35+0200</time>
      </trkpt>
      <trkpt lat="44.96109" lon="6.66927">
        <ele>1447.500328</ele>
        <time>2022-09-04T15:02:37+0200</time>
      </trkpt>
      <trkpt lat="44.96103" lon="6.66924">
        <ele>1447.394856</ele>
        <time>2022-09-04T15:02:39+0200</time>
      </trkpt>
      <trkpt lat="44.96096" lon="6.66923">
        <ele>1448.138535</ele>
        <time>2022-09-04T15:02:41+0200</time>
      </trkpt>
      <trkpt lat="44.96088" lon="6.66921">
        <ele>1449.187386</ele>
        <time>2022-09-04T15:02:43+0200</time>
      </trkpt>
      <trkpt lat="44.96081" lon="6.66919">
        <ele>1450.267049</ele>
        <time>2022-09-04T15:02:45+0200</time>
      </trkpt>
      <trkpt lat="44.96075" lon="6.66916">
        <ele>1450.438874</ele>
        <time>2022-09-04T15:02:47+0200</time>
      </trkpt>
      <trkpt lat="44.96069" lon="6.66914">
        <ele>1450.9753</ele>
        <time>2022-09-04T15:02:49+0200</time>
      </trkpt>
      <trkpt lat="44.96062" lon="6.66909">
        <ele>1451.361215</ele>
        <time>2022-09-04T15:02:51+0200</time>
      </trkpt>
      <trkpt lat="44.96056" lon="6.66905">
        <ele>1452.223388</ele>
        <time>2022-09-04T15:02:53+0200</time>
      </trkpt>
      <trkpt lat="44.9605" lon="6.66903">
        <ele>1453.156346</ele>
        <time>2022-09-04T15:02:55+0200</time>
      </trkpt>
      <trkpt lat="44.96044" lon="6.66903">
        <ele>1453.787614</ele>
        <time>2022-09-04T15:02:57+0200</time>
      </trkpt>
      <trkpt lat="44.96037" lon="6.66907">
        <ele>1454.636368</ele>
        <time>2022-09-04T15:03:00+0200</time>
      </trkpt>
      <trkpt lat="44.96033" lon="6.66913">
        <ele>1453.679517</ele>
        <time>2022-09-04T15:03:03+0200</time>
      </trkpt>
      <trkpt lat="44.96028" lon="6.66916">
        <ele>1453.120036</ele>
        <time>2022-09-04T15:03:05+0200</time>
      </trkpt>
      <trkpt lat="44.96023" lon="6.66919">
        <ele>1452.340658</ele>
        <time>2022-09-04T15:03:07+0200</time>
      </trkpt>
      <trkpt lat="44.96017" lon="6.66919">
        <ele>1452.320091</ele>
        <time>2022-09-04T15:03:09+0200</time>
      </trkpt>
      <trkpt lat="44.96012" lon="6.66917">
        <ele>1452.545706</ele>
        <time>2022-09-04T15:03:11+0200</time>
      </trkpt>
      <trkpt lat="44.96007" lon="6.6691">
        <ele>1453.080515</ele>
        <time>2022-09-04T15:03:13+0200</time>
      </trkpt>
      <trkpt lat="44.96006" lon="6.66903">
        <ele>1453.968176</ele>
        <time>2022-09-04T15:03:15+0200</time>
      </trkpt>
      <trkpt lat="44.96008" lon="6.66896">
        <ele>1454.99962</ele>
        <time>2022-09-04T15:03:17+0200</time>
      </trkpt>
      <trkpt lat="44.96012" lon="6.66891">
        <ele>1455.457467</ele>
        <time>2022-09-04T15:03:19+0200</time>
      </trkpt>
      <trkpt lat="44.96017" lon="6.66888">
        <ele>1455.851301</ele>
        <time>2022-09-04T15:03:21+0200</time>
      </trkpt>
      <trkpt lat="44.96024" lon="6.66886">
        <ele>1455.996264</ele>
        <time>2022-09-04T15:03:23+0200</time>
      </trkpt>
      <trkpt lat="44.96029" lon="6.66883">
        <ele>1456.905489</ele>
        <time>2022-09-04T15:03:25+0200</time>
      </trkpt>
      <trkpt lat="44.96033" lon="6.66881">
        <ele>1457.864344</ele>
        <time>2022-09-04T15:03:27+0200</time>
      </trkpt>
      <trkpt lat="44.96038" lon="6.66878">
        <ele>1458.238061</ele>
        <time>2022-09-04T15:03:29+0200</time>
      </trkpt>
      <trkpt lat="44.96044" lon="6.66875">
        <ele>1459.218713</ele>
        <time>2022-09-04T15:03:32+0200</time>
      </trkpt>
      <trkpt lat="44.96049" lon="6.6687">
        <ele>1460.12117</ele>
        <time>2022-09-04T15:03:35+0200</time>
      </trkpt>
      <trkpt lat="44.96055" lon="6.66869">
        <ele>1461.319379</ele>
        <time>2022-09-04T15:03:38+0200</time>
      </trkpt>
      <trkpt lat="44.96059" lon="6.66866">
        <ele>1461.775876</ele>
        <time>2022-09-04T15:03:40+0200</time>
      </trkpt>
      <trkpt lat="44.96066" lon="6.66863">
        <ele>1461.893686</ele>
        <time>2022-09-04T15:03:43+0200</time>
      </trkpt>
      <trkpt lat="44.96072" lon="6.6686">
        <ele>1462.225132</ele>
        <time>2022-09-04T15:03:46+0200</time>
      </trkpt>
      <trkpt lat="44.96076" lon="6.66857">
        <ele>1462.313605</ele>
        <time>2022-09-04T15:03:49+0200</time>
      </trkpt>
      <trkpt lat="44.9608" lon="6.66853">
        <ele>1463.495139</ele>
        <time>2022-09-04T15:03:52+0200</time>
      </trkpt>
      <trkpt lat="44.96086" lon="6.66851">
        <ele>1465.586206</ele>
        <time>2022-09-04T15:03:55+0200</time>
      </trkpt>
      <trkpt lat="44.96091" lon="6.66848">
        <ele>1466.931721</ele>
        <time>2022-09-04T15:03:58+0200</time>
      </trkpt>
      <trkpt lat="44.96095" lon="6.66845">
        <ele>1467.506991</ele>
        <time>2022-09-04T15:04:01+0200</time>
      </trkpt>
      <trkpt lat="44.96101" lon="6.66844">
        <ele>1468.659153</ele>
        <time>2022-09-04T15:04:04+0200</time>
      </trkpt>
      <trkpt lat="44.96106" lon="6.66842">
        <ele>1469.656122</ele>
        <time>2022-09-04T15:04:08+0200</time>
      </trkpt>
      <trkpt lat="44.96111" lon="6.6684">
        <ele>1469.668433</ele>
        <time>2022-09-04T15:04:12+0200</time>
      </trkpt>
      <trkpt lat="44.96116" lon="6.66839">
        <ele>1469.671721</ele>
        <time>2022-09-04T15:04:15+0200</time>
      </trkpt>
      <trkpt lat="44.9612" lon="6.66839">
        <ele>1469.572973</ele>
        <time>2022-09-04T15:04:17+0200</time>
      </trkpt>
      <trkpt lat="44.96127" lon="6.66839">
        <ele>1469.67674</ele>
        <time>2022-09-04T15:04:20+0200</time>
      </trkpt>
      <trkpt lat="44.96133" lon="6.66837">
        <ele>1469.489798</ele>
        <time>2022-09-04T15:04:23+0200</time>
      </trkpt>
      <trkpt lat="44.96139" lon="6.66837">
        <ele>1469.338853</ele>
        <time>2022-09-04T15:04:25+0200</time>
      </trkpt>
      <trkpt lat="44.96145" lon="6.66836">
        <ele>1469.319634</ele>
        <time>2022-09-04T15:04:28+0200</time>
      </trkpt>
      <trkpt lat="44.96149" lon="6.66831">
        <ele>1469.207981</ele>
        <time>2022-09-04T15:04:31+0200</time>
      </trkpt>
      <trkpt lat="44.96155" lon="6.66827">
        <ele>1469.832445</ele>
        <time>2022-09-04T15:04:34+0200</time>
      </trkpt>
      <trkpt lat="44.9616" lon="6.66822">
        <ele>1471.155712</ele>
        <time>2022-09-04T15:04:38+0200</time>
      </trkpt>
      <trkpt lat="44.96166" lon="6.66819">
        <ele>1472.436003</ele>
        <time>2022-09-04T15:04:41+0200</time>
      </trkpt>
      <trkpt lat="44.96171" lon="6.66816">
        <ele>1473.176388</ele>
        <time>2022-09-04T15:04:43+0200</time>
      </trkpt>
      <trkpt lat="44.96176" lon="6.66813">
        <ele>1474.624026</ele>
        <time>2022-09-04T15:04:46+0200</time>
      </trkpt>
      <trkpt lat="44.96181" lon="6.66809">
        <ele>1475.551941</ele>
        <time>2022-09-04T15:04:49+0200</time>
      </trkpt>
      <trkpt lat="44.96185" lon="6.66805">
        <ele>1475.684477</ele>
        <time>2022-09-04T15:04:52+0200</time>
      </trkpt>
      <trkpt lat="44.96191" lon="6.668">
        <ele>1476.136443</ele>
        <time>2022-09-04T15:04:55+0200</time>
      </trkpt>
      <trkpt lat="44.96195" lon="6.66795">
        <ele>1477.401912</ele>
        <time>2022-09-04T15:04:58+0200</time>
      </trkpt>
      <trkpt lat="44.96201" lon="6.66791">
        <ele>1478.884893</ele>
        <time>2022-09-04T15:05:01+0200</time>
      </trkpt>
      <trkpt lat="44.96205" lon="6.66785">
        <ele>1480.014489</ele>
        <time>2022-09-04T15:05:04+0200</time>
      </trkpt>
      <trkpt lat="44.96209" lon="6.66782">
        <ele>1481.144701</ele>
        <time>2022-09-04T15:05:07+0200</time>
      </trkpt>
      <trkpt lat="44.96214" lon="6.66778">
        <ele>1481.875097</ele>
        <time>2022-09-04T15:05:10+0200</time>
      </trkpt>
      <trkpt lat="44.96222" lon="6.66773">
        <ele>1481.805908</ele>
        <time>2022-09-04T15:05:12+0200</time>
      </trkpt>
      <trkpt lat="44.96227" lon="6.66771">
        <ele>1482.723621</ele>
        <time>2022-09-04T15:05:14+0200</time>
      </trkpt>
      <trkpt lat="44.96233" lon="6.66769">
        <ele>1483.346146</ele>
        <time>2022-09-04T15:05:16+0200</time>
      </trkpt>
      <trkpt lat="44.96238" lon="6.66767">
        <ele>1483.560541</ele>
        <time>2022-09-04T15:05:18+0200</time>
      </trkpt>
      <trkpt lat="44.96245" lon="6.66764">
        <ele>1485.282661</ele>
        <time>2022-09-04T15:05:21+0200</time>
      </trkpt>
      <trkpt lat="44.9625" lon="6.66764">
        <ele>1485.615197</ele>
        <time>2022-09-04T15:05:23+0200</time>
      </trkpt>
      <trkpt lat="44.96256" lon="6.66764">
        <ele>1486.060962</ele>
        <time>2022-09-04T15:05:26+0200</time>
      </trkpt>
      <trkpt lat="44.96262" lon="6.66762">
        <ele>1485.839091</ele>
        <time>2022-09-04T15:05:29+0200</time>
      </trkpt>
      <trkpt lat="44.96268" lon="6.66759">
        <ele>1486.199244</ele>
        <time>2022-09-04T15:05:32+0200</time>
      </trkpt>
      <trkpt lat="44.96277" lon="6.66758">
        <ele>1485.777187</ele>
        <time>2022-09-04T15:05:34+0200</time>
      </trkpt>
      <trkpt lat="44.96281" lon="6.66754">
        <ele>1485.13695</ele>
        <time>2022-09-04T15:05:36+0200</time>
      </trkpt>
      <trkpt lat="44.96288" lon="6.6675">
        <ele>1484.42113</ele>
        <time>2022-09-04T15:05:39+0200</time>
      </trkpt>
      <trkpt lat="44.96294" lon="6.66747">
        <ele>1484.520142</ele>
        <time>2022-09-04T15:05:41+0200</time>
      </trkpt>
      <trkpt lat="44.96298" lon="6.66742">
        <ele>1485.47809</ele>
        <time>2022-09-04T15:05:43+0200</time>
      </trkpt>
      <trkpt lat="44.96302" lon="6.66741">
        <ele>1486.177248</ele>
        <time>2022-09-04T15:05:45+0200</time>
      </trkpt>
      <trkpt lat="44.96307" lon="6.66738">
        <ele>1487.518172</ele>
        <time>2022-09-04T15:05:47+0200</time>
      </trkpt>
      <trkpt lat="44.96311" lon="6.66735">
        <ele>1488.018567</ele>
        <time>2022-09-04T15:05:49+0200</time>
      </trkpt>
      <trkpt lat="44.96315" lon="6.66732">
        <ele>1488.743983</ele>
        <time>2022-09-04T15:05:51+0200</time>
      </trkpt>
      <trkpt lat="44.96319" lon="6.6673">
        <ele>1489.327685</ele>
        <time>2022-09-04T15:05:53+0200</time>
      </trkpt>
      <trkpt lat="44.96324" lon="6.66728">
        <ele>1489.8458</ele>
        <time>2022-09-04T15:05:55+0200</time>
      </trkpt>
      <trkpt lat="44.96329" lon="6.66724">
        <ele>1490.921203</ele>
        <time>2022-09-04T15:05:58+0200</time>
      </trkpt>
      <trkpt lat="44.96336" lon="6.66723">
        <ele>1491.975472</ele>
        <time>2022-09-04T15:06:01+0200</time>
      </trkpt>
      <trkpt lat="44.96341" lon="6.6672">
        <ele>1492.930534</ele>
        <time>2022-09-04T15:06:04+0200</time>
      </trkpt>
      <trkpt lat="44.96347" lon="6.66717">
        <ele>1493.977883</ele>
        <time>2022-09-04T15:06:07+0200</time>
      </trkpt>
      <trkpt lat="44.96352" lon="6.66713">
        <ele>1493.625167</ele>
        <time>2022-09-04T15:06:10+0200</time>
      </trkpt>
      <trkpt lat="44.96358" lon="6.6671">
        <ele>1493.381204</ele>
        <time>2022-09-04T15:06:13+0200</time>
      </trkpt>
      <trkpt lat="44.96363" lon="6.66707">
        <ele>1493.405723</ele>
        <time>2022-09-04T15:06:16+0200</time>
      </trkpt>
      <trkpt lat="44.96368" lon="6.66701">
        <ele>1494.327587</ele>
        <time>2022-09-04T15:06:19+0200</time>
      </trkpt>
      <trkpt lat="44.96371" lon="6.66695">
        <ele>1497.487798</ele>
        <time>2022-09-04T15:06:23+0200</time>
      </trkpt>
      <trkpt lat="44.96375" lon="6.66688">
        <ele>1499.66652</ele>
        <time>2022-09-04T15:06:26+0200</time>
      </trkpt>
      <trkpt lat="44.9638" lon="6.66683">
        <ele>1501.774337</ele>
        <time>2022-09-04T15:06:30+0200</time>
      </trkpt>
      <trkpt lat="44.96385" lon="6.66679">
        <ele>1502.701071</ele>
        <time>2022-09-04T15:06:33+0200</time>
      </trkpt>
      <trkpt lat="44.96389" lon="6.66675">
        <ele>1504.642281</ele>
        <time>2022-09-04T15:06:36+0200</time>
      </trkpt>
      <trkpt lat="44.96394" lon="6.66672">
        <ele>1506.322592</ele>
        <time>2022-09-04T15:06:39+0200</time>
      </trkpt>
      <trkpt lat="44.96399" lon="6.6667">
        <ele>1507.472713</ele>
        <time>2022-09-04T15:06:42+0200</time>
      </trkpt>
      <trkpt lat="44.96405" lon="6.66667">
        <ele>1508.303049</ele>
        <time>2022-09-04T15:06:46+0200</time>
      </trkpt>
      <trkpt lat="44.96409" lon="6.66663">
        <ele>1508.366376</ele>
        <time>2022-09-04T15:06:49+0200</time>
      </trkpt>
      <trkpt lat="44.96414" lon="6.6666">
        <ele>1508.787479</ele>
        <time>2022-09-04T15:06:52+0200</time>
      </trkpt>
      <trkpt lat="44.96419" lon="6.66656">
        <ele>1508.575526</ele>
        <time>2022-09-04T15:06:55+0200</time>
      </trkpt>
      <trkpt lat="44.96424" lon="6.66652">
        <ele>1509.126098</ele>
        <time>2022-09-04T15:06:58+0200</time>
      </trkpt>
      <trkpt lat="44.96429" lon="6.66649">
        <ele>1509.822903</ele>
        <time>2022-09-04T15:07:01+0200</time>
      </trkpt>
      <trkpt lat="44.96434" lon="6.66644">
        <ele>1509.873954</ele>
        <time>2022-09-04T15:07:04+0200</time>
      </trkpt>
      <trkpt lat="44.96439" lon="6.66639">
        <ele>1510.25202</ele>
        <time>2022-09-04T15:07:07+0200</time>
      </trkpt>
      <trkpt lat="44.96443" lon="6.66636">
        <ele>1511.378086</ele>
        <time>2022-09-04T15:07:10+0200</time>
      </trkpt>
      <trkpt lat="44.96448" lon="6.66634">
        <ele>1513.060489</ele>
        <time>2022-09-04T15:07:13+0200</time>
      </trkpt>
      <trkpt lat="44.96453" lon="6.6663">
        <ele>1513.598589</ele>
        <time>2022-09-04T15:07:16+0200</time>
      </trkpt>
      <trkpt lat="44.96458" lon="6.66626">
        <ele>1514.220071</ele>
        <time>2022-09-04T15:07:19+0200</time>
      </trkpt>
      <trkpt lat="44.96461" lon="6.6662">
        <ele>1515.038675</ele>
        <time>2022-09-04T15:07:22+0200</time>
      </trkpt>
      <trkpt lat="44.96464" lon="6.66614">
        <ele>1517.061601</ele>
        <time>2022-09-04T15:07:26+0200</time>
      </trkpt>
      <trkpt lat="44.96469" lon="6.66609">
        <ele>1517.581288</ele>
        <time>2022-09-04T15:07:29+0200</time>
      </trkpt>
      <trkpt lat="44.96473" lon="6.66604">
        <ele>1518.113302</ele>
        <time>2022-09-04T15:07:31+0200</time>
      </trkpt>
      <trkpt lat="44.96477" lon="6.666">
        <ele>1519.786389</ele>
        <time>2022-09-04T15:07:34+0200</time>
      </trkpt>
      <trkpt lat="44.96483" lon="6.66597">
        <ele>1520.66474</ele>
        <time>2022-09-04T15:07:36+0200</time>
      </trkpt>
      <trkpt lat="44.96489" lon="6.66595">
        <ele>1521.14833</ele>
        <time>2022-09-04T15:07:39+0200</time>
      </trkpt>
      <trkpt lat="44.96495" lon="6.66591">
        <ele>1521.651696</ele>
        <time>2022-09-04T15:07:42+0200</time>
      </trkpt>
      <trkpt lat="44.96499" lon="6.66588">
        <ele>1522.030919</ele>
        <time>2022-09-04T15:07:45+0200</time>
      </trkpt>
      <trkpt lat="44.96505" lon="6.66586">
        <ele>1521.965723</ele>
        <time>2022-09-04T15:07:48+0200</time>
      </trkpt>
      <trkpt lat="44.9651" lon="6.66585">
        <ele>1521.327045</ele>
        <time>2022-09-04T15:07:50+0200</time>
      </trkpt>
      <trkpt lat="44.96516" lon="6.66582">
        <ele>1519.748046</ele>
        <time>2022-09-04T15:07:53+0200</time>
      </trkpt>
      <trkpt lat="44.96521" lon="6.66577">
        <ele>1518.920068</ele>
        <time>2022-09-04T15:07:56+0200</time>
      </trkpt>
      <trkpt lat="44.96525" lon="6.66574">
        <ele>1519.194924</ele>
        <time>2022-09-04T15:07:58+0200</time>
      </trkpt>
      <trkpt lat="44.9653" lon="6.66568">
        <ele>1518.609509</ele>
        <time>2022-09-04T15:08:01+0200</time>
      </trkpt>
      <trkpt lat="44.96532" lon="6.66562">
        <ele>1518.855078</ele>
        <time>2022-09-04T15:08:04+0200</time>
      </trkpt>
      <trkpt lat="44.96535" lon="6.66555">
        <ele>1519.411561</ele>
        <time>2022-09-04T15:08:07+0200</time>
      </trkpt>
      <trkpt lat="44.96538" lon="6.66547">
        <ele>1521.41742</ele>
        <time>2022-09-04T15:08:10+0200</time>
      </trkpt>
      <trkpt lat="44.96538" lon="6.6654">
        <ele>1525.056829</ele>
        <time>2022-09-04T15:08:13+0200</time>
      </trkpt>
      <trkpt lat="44.96539" lon="6.66532">
        <ele>1527.780173</ele>
        <time>2022-09-04T15:08:16+0200</time>
      </trkpt>
      <trkpt lat="44.96542" lon="6.66527">
        <ele>1530.029148</ele>
        <time>2022-09-04T15:08:19+0200</time>
      </trkpt>
      <trkpt lat="44.96544" lon="6.66521">
        <ele>1531.332803</ele>
        <time>2022-09-04T15:08:22+0200</time>
      </trkpt>
      <trkpt lat="44.96548" lon="6.66516">
        <ele>1531.179119</ele>
        <time>2022-09-04T15:08:24+0200</time>
      </trkpt>
      <trkpt lat="44.9655" lon="6.66509">
        <ele>1530.641148</ele>
        <time>2022-09-04T15:08:27+0200</time>
      </trkpt>
      <trkpt lat="44.96554" lon="6.66503">
        <ele>1530.24312</ele>
        <time>2022-09-04T15:08:30+0200</time>
      </trkpt>
      <trkpt lat="44.96559" lon="6.66498">
        <ele>1530.187497</ele>
        <time>2022-09-04T15:08:33+0200</time>
      </trkpt>
      <trkpt lat="44.96564" lon="6.66494">
        <ele>1530.690489</ele>
        <time>2022-09-04T15:08:36+0200</time>
      </trkpt>
      <trkpt lat="44.96569" lon="6.66491">
        <ele>1531.064514</ele>
        <time>2022-09-04T15:08:39+0200</time>
      </trkpt>
      <trkpt lat="44.96574" lon="6.66489">
        <ele>1531.676142</ele>
        <time>2022-09-04T15:08:41+0200</time>
      </trkpt>
      <trkpt lat="44.96578" lon="6.66487">
        <ele>1531.484797</ele>
        <time>2022-09-04T15:08:43+0200</time>
      </trkpt>
      <trkpt lat="44.96583" lon="6.66484">
        <ele>1531.007082</ele>
        <time>2022-09-04T15:08:46+0200</time>
      </trkpt>
      <trkpt lat="44.96589" lon="6.6648">
        <ele>1530.488443</ele>
        <time>2022-09-04T15:08:49+0200</time>
      </trkpt>
      <trkpt lat="44.96593" lon="6.66475">
        <ele>1531.100829</ele>
        <time>2022-09-04T15:08:52+0200</time>
      </trkpt>
      <trkpt lat="44.96599" lon="6.6647">
        <ele>1531.910217</ele>
        <time>2022-09-04T15:08:55+0200</time>
      </trkpt>
      <trkpt lat="44.96603" lon="6.66466">
        <ele>1532.710546</ele>
        <time>2022-09-04T15:08:57+0200</time>
      </trkpt>
      <trkpt lat="44.96607" lon="6.66461">
        <ele>1533.819239</ele>
        <time>2022-09-04T15:09:00+0200</time>
      </trkpt>
      <trkpt lat="44.96611" lon="6.66456">
        <ele>1535.318593</ele>
        <time>2022-09-04T15:09:04+0200</time>
      </trkpt>
      <trkpt lat="44.96614" lon="6.6645">
        <ele>1536.806834</ele>
        <time>2022-09-04T15:09:07+0200</time>
      </trkpt>
      <trkpt lat="44.96618" lon="6.66444">
        <ele>1538.626126</ele>
        <time>2022-09-04T15:09:11+0200</time>
      </trkpt>
      <trkpt lat="44.96621" lon="6.6644">
        <ele>1540.589896</ele>
        <time>2022-09-04T15:09:14+0200</time>
      </trkpt>
      <trkpt lat="44.96626" lon="6.66435">
        <ele>1541.634079</ele>
        <time>2022-09-04T15:09:17+0200</time>
      </trkpt>
      <trkpt lat="44.96631" lon="6.66432">
        <ele>1543.273491</ele>
        <time>2022-09-04T15:09:21+0200</time>
      </trkpt>
      <trkpt lat="44.96637" lon="6.66428">
        <ele>1543.145388</ele>
        <time>2022-09-04T15:09:25+0200</time>
      </trkpt>
      <trkpt lat="44.96642" lon="6.66425">
        <ele>1544.043732</ele>
        <time>2022-09-04T15:09:28+0200</time>
      </trkpt>
      <trkpt lat="44.96648" lon="6.6642">
        <ele>1543.429866</ele>
        <time>2022-09-04T15:09:32+0200</time>
      </trkpt>
      <trkpt lat="44.96654" lon="6.66417">
        <ele>1543.007175</ele>
        <time>2022-09-04T15:09:35+0200</time>
      </trkpt>
      <trkpt lat="44.96658" lon="6.66412">
        <ele>1541.8405</ele>
        <time>2022-09-04T15:09:38+0200</time>
      </trkpt>
      <trkpt lat="44.96661" lon="6.66407">
        <ele>1541.552839</ele>
        <time>2022-09-04T15:09:41+0200</time>
      </trkpt>
      <trkpt lat="44.96666" lon="6.66403">
        <ele>1541.767666</ele>
        <time>2022-09-04T15:09:44+0200</time>
      </trkpt>
      <trkpt lat="44.96669" lon="6.66398">
        <ele>1542.213045</ele>
        <time>2022-09-04T15:09:47+0200</time>
      </trkpt>
      <trkpt lat="44.96671" lon="6.66391">
        <ele>1543.540026</ele>
        <time>2022-09-04T15:09:51+0200</time>
      </trkpt>
      <trkpt lat="44.96674" lon="6.66384">
        <ele>1546.06854</ele>
        <time>2022-09-04T15:09:55+0200</time>
      </trkpt>
      <trkpt lat="44.96676" lon="6.66378">
        <ele>1547.511256</ele>
        <time>2022-09-04T15:09:59+0200</time>
      </trkpt>
      <trkpt lat="44.96679" lon="6.66373">
        <ele>1549.09406</ele>
        <time>2022-09-04T15:10:01+0200</time>
      </trkpt>
      <trkpt lat="44.96683" lon="6.66368">
        <ele>1550.251768</ele>
        <time>2022-09-04T15:10:04+0200</time>
      </trkpt>
      <trkpt lat="44.96687" lon="6.66363">
        <ele>1551.429174</ele>
        <time>2022-09-04T15:10:07+0200</time>
      </trkpt>
      <trkpt lat="44.96691" lon="6.66357">
        <ele>1551.771015</ele>
        <time>2022-09-04T15:10:10+0200</time>
      </trkpt>
      <trkpt lat="44.96696" lon="6.66352">
        <ele>1552.037471</ele>
        <time>2022-09-04T15:10:13+0200</time>
      </trkpt>
      <trkpt lat="44.96701" lon="6.66347">
        <ele>1551.392058</ele>
        <time>2022-09-04T15:10:16+0200</time>
      </trkpt>
      <trkpt lat="44.96704" lon="6.66342">
        <ele>1552.134343</ele>
        <time>2022-09-04T15:10:19+0200</time>
      </trkpt>
      <trkpt lat="44.96709" lon="6.66337">
        <ele>1552.778777</ele>
        <time>2022-09-04T15:10:22+0200</time>
      </trkpt>
      <trkpt lat="44.96712" lon="6.66332">
        <ele>1553.389862</ele>
        <time>2022-09-04T15:10:25+0200</time>
      </trkpt>
      <trkpt lat="44.96715" lon="6.66328">
        <ele>1553.658211</ele>
        <time>2022-09-04T15:10:28+0200</time>
      </trkpt>
      <trkpt lat="44.96719" lon="6.66322">
        <ele>1554.037427</ele>
        <time>2022-09-04T15:10:31+0200</time>
      </trkpt>
      <trkpt lat="44.96724" lon="6.66318">
        <ele>1554.167071</ele>
        <time>2022-09-04T15:10:34+0200</time>
      </trkpt>
      <trkpt lat="44.96729" lon="6.66315">
        <ele>1553.90492</ele>
        <time>2022-09-04T15:10:37+0200</time>
      </trkpt>
      <trkpt lat="44.96733" lon="6.6631">
        <ele>1553.853642</ele>
        <time>2022-09-04T15:10:40+0200</time>
      </trkpt>
      <trkpt lat="44.96736" lon="6.66304">
        <ele>1554.038221</ele>
        <time>2022-09-04T15:10:43+0200</time>
      </trkpt>
      <trkpt lat="44.96738" lon="6.66298">
        <ele>1554.51519</ele>
        <time>2022-09-04T15:10:46+0200</time>
      </trkpt>
      <trkpt lat="44.96742" lon="6.66292">
        <ele>1555.967243</ele>
        <time>2022-09-04T15:10:49+0200</time>
      </trkpt>
      <trkpt lat="44.96747" lon="6.66287">
        <ele>1557.601626</ele>
        <time>2022-09-04T15:10:52+0200</time>
      </trkpt>
      <trkpt lat="44.96749" lon="6.66282">
        <ele>1557.882238</ele>
        <time>2022-09-04T15:10:55+0200</time>
      </trkpt>
      <trkpt lat="44.96752" lon="6.66276">
        <ele>1558.722746</ele>
        <time>2022-09-04T15:10:58+0200</time>
      </trkpt>
      <trkpt lat="44.96755" lon="6.66271">
        <ele>1559.246248</ele>
        <time>2022-09-04T15:11:01+0200</time>
      </trkpt>
      <trkpt lat="44.96759" lon="6.66265">
        <ele>1561.253448</ele>
        <time>2022-09-04T15:11:05+0200</time>
      </trkpt>
      <trkpt lat="44.96763" lon="6.6626">
        <ele>1561.811476</ele>
        <time>2022-09-04T15:11:08+0200</time>
      </trkpt>
      <trkpt lat="44.96764" lon="6.66253">
        <ele>1563.120888</ele>
        <time>2022-09-04T15:11:12+0200</time>
      </trkpt>
      <trkpt lat="44.96765" lon="6.66246">
        <ele>1565.251148</ele>
        <time>2022-09-04T15:11:15+0200</time>
      </trkpt>
      <trkpt lat="44.96769" lon="6.6624">
        <ele>1566.79026</ele>
        <time>2022-09-04T15:11:19+0200</time>
      </trkpt>
      <trkpt lat="44.96773" lon="6.66235">
        <ele>1567.886001</ele>
        <time>2022-09-04T15:11:22+0200</time>
      </trkpt>
      <trkpt lat="44.96775" lon="6.66228">
        <ele>1570.518847</ele>
        <time>2022-09-04T15:11:27+0200</time>
      </trkpt>
      <trkpt lat="44.9678" lon="6.66223">
        <ele>1571.582257</ele>
        <time>2022-09-04T15:11:31+0200</time>
      </trkpt>
      <trkpt lat="44.96783" lon="6.66216">
        <ele>1572.376746</ele>
        <time>2022-09-04T15:11:35+0200</time>
      </trkpt>
      <trkpt lat="44.96787" lon="6.66211">
        <ele>1572.14078</ele>
        <time>2022-09-04T15:11:39+0200</time>
      </trkpt>
      <trkpt lat="44.96792" lon="6.66206">
        <ele>1571.567038</ele>
        <time>2022-09-04T15:11:42+0200</time>
      </trkpt>
      <trkpt lat="44.96797" lon="6.66202">
        <ele>1570.566361</ele>
        <time>2022-09-04T15:11:45+0200</time>
      </trkpt>
      <trkpt lat="44.96801" lon="6.66199">
        <ele>1570.358544</ele>
        <time>2022-09-04T15:11:48+0200</time>
      </trkpt>
      <trkpt lat="44.96806" lon="6.66196">
        <ele>1569.305309</ele>
        <time>2022-09-04T15:11:51+0200</time>
      </trkpt>
      <trkpt lat="44.96811" lon="6.66191">
        <ele>1568.386362</ele>
        <time>2022-09-04T15:11:55+0200</time>
      </trkpt>
      <trkpt lat="44.96815" lon="6.66188">
        <ele>1567.262581</ele>
        <time>2022-09-04T15:11:58+0200</time>
      </trkpt>
      <trkpt lat="44.96818" lon="6.66182">
        <ele>1567.065759</ele>
        <time>2022-09-04T15:12:02+0200</time>
      </trkpt>
      <trkpt lat="44.9682" lon="6.66174">
        <ele>1568.64723</ele>
        <time>2022-09-04T15:12:06+0200</time>
      </trkpt>
      <trkpt lat="44.96816" lon="6.66168">
        <ele>1572.067667</ele>
        <time>2022-09-04T15:12:10+0200</time>
      </trkpt>
      <trkpt lat="44.96811" lon="6.66167">
        <ele>1575.644436</ele>
        <time>2022-09-04T15:12:14+0200</time>
      </trkpt>
      <trkpt lat="44.96807" lon="6.6617">
        <ele>1576.65531</ele>
        <time>2022-09-04T15:12:19+0200</time>
      </trkpt>
      <trkpt lat="44.9681" lon="6.66175">
        <ele>1576.318217</ele>
        <time>2022-09-04T15:12:29+0200</time>
      </trkpt>
      <trkpt lat="44.96804" lon="6.66176">
        <ele>1574.000872</ele>
        <time>2022-09-04T15:13:01+0200</time>
      </trkpt>
      <trkpt lat="44.96798" lon="6.66179">
        <ele>1575.089266</ele>
        <time>2022-09-04T15:13:04+0200</time>
      </trkpt>
      <trkpt lat="44.96792" lon="6.66182">
        <ele>1576.779652</ele>
        <time>2022-09-04T15:13:07+0200</time>
      </trkpt>
      <trkpt lat="44.96787" lon="6.66185">
        <ele>1577.908458</ele>
        <time>2022-09-04T15:13:10+0200</time>
      </trkpt>
      <trkpt lat="44.96783" lon="6.66189">
        <ele>1578.609464</ele>
        <time>2022-09-04T15:13:13+0200</time>
      </trkpt>
      <trkpt lat="44.96778" lon="6.66191">
        <ele>1579.309644</ele>
        <time>2022-09-04T15:13:15+0200</time>
      </trkpt>
      <trkpt lat="44.96773" lon="6.66193">
        <ele>1579.822596</ele>
        <time>2022-09-04T15:13:18+0200</time>
      </trkpt>
      <trkpt lat="44.96768" lon="6.66196">
        <ele>1581.619411</ele>
        <time>2022-09-04T15:13:21+0200</time>
      </trkpt>
      <trkpt lat="44.96763" lon="6.66198">
        <ele>1582.703186</ele>
        <time>2022-09-04T15:13:25+0200</time>
      </trkpt>
      <trkpt lat="44.96759" lon="6.66201">
        <ele>1583.768226</ele>
        <time>2022-09-04T15:13:28+0200</time>
      </trkpt>
      <trkpt lat="44.96754" lon="6.66203">
        <ele>1584.309259</ele>
        <time>2022-09-04T15:13:31+0200</time>
      </trkpt>
      <trkpt lat="44.96749" lon="6.66207">
        <ele>1584.934597</ele>
        <time>2022-09-04T15:13:34+0200</time>
      </trkpt>
      <trkpt lat="44.96743" lon="6.6621">
        <ele>1585.78618</ele>
        <time>2022-09-04T15:13:37+0200</time>
      </trkpt>
      <trkpt lat="44.96738" lon="6.66212">
        <ele>1586.916229</ele>
        <time>2022-09-04T15:13:40+0200</time>
      </trkpt>
      <trkpt lat="44.96733" lon="6.66214">
        <ele>1588.198086</ele>
        <time>2022-09-04T15:13:43+0200</time>
      </trkpt>
      <trkpt lat="44.96728" lon="6.66217">
        <ele>1588.998599</ele>
        <time>2022-09-04T15:13:46+0200</time>
      </trkpt>
      <trkpt lat="44.96724" lon="6.6622">
        <ele>1589.466272</ele>
        <time>2022-09-04T15:13:48+0200</time>
      </trkpt>
      <trkpt lat="44.9672" lon="6.66225">
        <ele>1590.275812</ele>
        <time>2022-09-04T15:13:51+0200</time>
      </trkpt>
      <trkpt lat="44.96716" lon="6.66229">
        <ele>1591.212778</ele>
        <time>2022-09-04T15:13:54+0200</time>
      </trkpt>
      <trkpt lat="44.96712" lon="6.66232">
        <ele>1591.738644</ele>
        <time>2022-09-04T15:13:56+0200</time>
      </trkpt>
      <trkpt lat="44.96709" lon="6.66235">
        <ele>1592.707293</ele>
        <time>2022-09-04T15:13:59+0200</time>
      </trkpt>
      <trkpt lat="44.96704" lon="6.66239">
        <ele>1594.213566</ele>
        <time>2022-09-04T15:14:02+0200</time>
      </trkpt>
      <trkpt lat="44.96699" lon="6.66241">
        <ele>1595.315059</ele>
        <time>2022-09-04T15:14:05+0200</time>
      </trkpt>
      <trkpt lat="44.96696" lon="6.66247">
        <ele>1596.517979</ele>
        <time>2022-09-04T15:14:09+0200</time>
      </trkpt>
      <trkpt lat="44.96691" lon="6.66248">
        <ele>1597.308988</ele>
        <time>2022-09-04T15:14:12+0200</time>
      </trkpt>
      <trkpt lat="44.96685" lon="6.66243">
        <ele>1599.536085</ele>
        <time>2022-09-04T15:14:15+0200</time>
      </trkpt>
      <trkpt lat="44.96684" lon="6.66235">
        <ele>1602.112494</ele>
        <time>2022-09-04T15:14:18+0200</time>
      </trkpt>
      <trkpt lat="44.96686" lon="6.66229">
        <ele>1606.974583</ele>
        <time>2022-09-04T15:14:21+0200</time>
      </trkpt>
      <trkpt lat="44.96689" lon="6.66225">
        <ele>1608.324466</ele>
        <time>2022-09-04T15:14:23+0200</time>
      </trkpt>
      <trkpt lat="44.96694" lon="6.66219">
        <ele>1609.107267</ele>
        <time>2022-09-04T15:14:26+0200</time>
      </trkpt>
      <trkpt lat="44.96699" lon="6.66215">
        <ele>1609.36593</ele>
        <time>2022-09-04T15:14:28+0200</time>
      </trkpt>
      <trkpt lat="44.96704" lon="6.66211">
        <ele>1608.324926</ele>
        <time>2022-09-04T15:14:31+0200</time>
      </trkpt>
      <trkpt lat="44.96709" lon="6.66205">
        <ele>1606.371351</ele>
        <time>2022-09-04T15:14:34+0200</time>
      </trkpt>
      <trkpt lat="44.96712" lon="6.66197">
        <ele>1605.939531</ele>
        <time>2022-09-04T15:14:37+0200</time>
      </trkpt>
      <trkpt lat="44.96714" lon="6.66191">
        <ele>1605.668332</ele>
        <time>2022-09-04T15:14:40+0200</time>
      </trkpt>
      <trkpt lat="44.96718" lon="6.66185">
        <ele>1606.068792</ele>
        <time>2022-09-04T15:14:43+0200</time>
      </trkpt>
      <trkpt lat="44.96722" lon="6.66179">
        <ele>1607.032929</ele>
        <time>2022-09-04T15:14:46+0200</time>
      </trkpt>
      <trkpt lat="44.96726" lon="6.66173">
        <ele>1608.531921</ele>
        <time>2022-09-04T15:14:49+0200</time>
      </trkpt>
      <trkpt lat="44.9673" lon="6.6617">
        <ele>1609.675596</ele>
        <time>2022-09-04T15:14:52+0200</time>
      </trkpt>
      <trkpt lat="44.96736" lon="6.66166">
        <ele>1610.358114</ele>
        <time>2022-09-04T15:14:55+0200</time>
      </trkpt>
      <trkpt lat="44.9674" lon="6.66163">
        <ele>1609.577865</ele>
        <time>2022-09-04T15:14:57+0200</time>
      </trkpt>
      <trkpt lat="44.96745" lon="6.66156">
        <ele>1608.164117</ele>
        <time>2022-09-04T15:15:00+0200</time>
      </trkpt>
      <trkpt lat="44.96748" lon="6.66152">
        <ele>1607.382177</ele>
        <time>2022-09-04T15:15:03+0200</time>
      </trkpt>
      <trkpt lat="44.9675" lon="6.66145">
        <ele>1607.237811</ele>
        <time>2022-09-04T15:15:06+0200</time>
      </trkpt>
      <trkpt lat="44.96751" lon="6.66139">
        <ele>1608.114339</ele>
        <time>2022-09-04T15:15:09+0200</time>
      </trkpt>
      <trkpt lat="44.96751" lon="6.66131">
        <ele>1609.381653</ele>
        <time>2022-09-04T15:15:12+0200</time>
      </trkpt>
      <trkpt lat="44.9675" lon="6.66124">
        <ele>1610.51296</ele>
        <time>2022-09-04T15:15:15+0200</time>
      </trkpt>
      <trkpt lat="44.96752" lon="6.66118">
        <ele>1611.690996</ele>
        <time>2022-09-04T15:15:18+0200</time>
      </trkpt>
      <trkpt lat="44.96753" lon="6.66111">
        <ele>1612.647948</ele>
        <time>2022-09-04T15:15:21+0200</time>
      </trkpt>
      <trkpt lat="44.96755" lon="6.66103">
        <ele>1612.754485</ele>
        <time>2022-09-04T15:15:24+0200</time>
      </trkpt>
      <trkpt lat="44.96757" lon="6.66096">
        <ele>1614.189559</ele>
        <time>2022-09-04T15:15:27+0200</time>
      </trkpt>
      <trkpt lat="44.96761" lon="6.6609">
        <ele>1614.436415</ele>
        <time>2022-09-04T15:15:30+0200</time>
      </trkpt>
      <trkpt lat="44.96765" lon="6.66083">
        <ele>1614.796922</ele>
        <time>2022-09-04T15:15:33+0200</time>
      </trkpt>
      <trkpt lat="44.96763" lon="6.66075">
        <ele>1615.615787</ele>
        <time>2022-09-04T15:15:36+0200</time>
      </trkpt>
      <trkpt lat="44.9676" lon="6.66068">
        <ele>1617.590801</ele>
        <time>2022-09-04T15:15:39+0200</time>
      </trkpt>
      <trkpt lat="44.96755" lon="6.66066">
        <ele>1620.41343</ele>
        <time>2022-09-04T15:15:42+0200</time>
      </trkpt>
      <trkpt lat="44.96749" lon="6.6607">
        <ele>1622.408219</ele>
        <time>2022-09-04T15:15:45+0200</time>
      </trkpt>
      <trkpt lat="44.96744" lon="6.66075">
        <ele>1623.647086</ele>
        <time>2022-09-04T15:15:48+0200</time>
      </trkpt>
      <trkpt lat="44.96739" lon="6.66079">
        <ele>1623.774319</ele>
        <time>2022-09-04T15:15:51+0200</time>
      </trkpt>
      <trkpt lat="44.96733" lon="6.6608">
        <ele>1624.380643</ele>
        <time>2022-09-04T15:15:54+0200</time>
      </trkpt>
      <trkpt lat="44.96728" lon="6.66082">
        <ele>1624.888349</ele>
        <time>2022-09-04T15:15:56+0200</time>
      </trkpt>
      <trkpt lat="44.96722" lon="6.66084">
        <ele>1625.571482</ele>
        <time>2022-09-04T15:16:00+0200</time>
      </trkpt>
      <trkpt lat="44.96716" lon="6.66085">
        <ele>1626.738268</ele>
        <time>2022-09-04T15:16:03+0200</time>
      </trkpt>
      <trkpt lat="44.96712" lon="6.66088">
        <ele>1628.214888</ele>
        <time>2022-09-04T15:16:07+0200</time>
      </trkpt>
      <trkpt lat="44.96707" lon="6.66092">
        <ele>1629.748743</ele>
        <time>2022-09-04T15:16:10+0200</time>
      </trkpt>
      <trkpt lat="44.96704" lon="6.66098">
        <ele>1630.732652</ele>
        <time>2022-09-04T15:16:12+0200</time>
      </trkpt>
      <trkpt lat="44.96701" lon="6.66104">
        <ele>1631.130424</ele>
        <time>2022-09-04T15:16:15+0200</time>
      </trkpt>
      <trkpt lat="44.96699" lon="6.66111">
        <ele>1631.163087</ele>
        <time>2022-09-04T15:16:18+0200</time>
      </trkpt>
      <trkpt lat="44.96697" lon="6.66119">
        <ele>1630.517294</ele>
        <time>2022-09-04T15:16:21+0200</time>
      </trkpt>
      <trkpt lat="44.96697" lon="6.66125">
        <ele>1631.560167</ele>
        <time>2022-09-04T15:16:24+0200</time>
      </trkpt>
      <trkpt lat="44.96697" lon="6.66134">
        <ele>1632.012721</ele>
        <time>2022-09-04T15:16:27+0200</time>
      </trkpt>
      <trkpt lat="44.96696" lon="6.66142">
        <ele>1631.559499</ele>
        <time>2022-09-04T15:16:30+0200</time>
      </trkpt>
      <trkpt lat="44.9669" lon="6.66149">
        <ele>1630.570665</ele>
        <time>2022-09-04T15:16:33+0200</time>
      </trkpt>
      <trkpt lat="44.96685" lon="6.66151">
        <ele>1630.803362</ele>
        <time>2022-09-04T15:16:35+0200</time>
      </trkpt>
      <trkpt lat="44.96681" lon="6.66156">
        <ele>1631.230954</ele>
        <time>2022-09-04T15:16:37+0200</time>
      </trkpt>
      <trkpt lat="44.96677" lon="6.66158">
        <ele>1632.404414</ele>
        <time>2022-09-04T15:16:39+0200</time>
      </trkpt>
      <trkpt lat="44.96672" lon="6.6616">
        <ele>1633.68137</ele>
        <time>2022-09-04T15:16:41+0200</time>
      </trkpt>
      <trkpt lat="44.96666" lon="6.66157">
        <ele>1635.682378</ele>
        <time>2022-09-04T15:16:43+0200</time>
      </trkpt>
      <trkpt lat="44.96663" lon="6.66149">
        <ele>1638.630057</ele>
        <time>2022-09-04T15:16:46+0200</time>
      </trkpt>
      <trkpt lat="44.96662" lon="6.66142">
        <ele>1641.877509</ele>
        <time>2022-09-04T15:16:48+0200</time>
      </trkpt>
      <trkpt lat="44.96664" lon="6.66134">
        <ele>1644.238146</ele>
        <time>2022-09-04T15:16:51+0200</time>
      </trkpt>
      <trkpt lat="44.96666" lon="6.66124">
        <ele>1646.324656</ele>
        <time>2022-09-04T15:16:54+0200</time>
      </trkpt>
      <trkpt lat="44.96667" lon="6.66118">
        <ele>1646.716526</ele>
        <time>2022-09-04T15:16:56+0200</time>
      </trkpt>
      <trkpt lat="44.96669" lon="6.6611">
        <ele>1648.340742</ele>
        <time>2022-09-04T15:16:58+0200</time>
      </trkpt>
      <trkpt lat="44.96671" lon="6.66104">
        <ele>1649.243113</ele>
        <time>2022-09-04T15:17:00+0200</time>
      </trkpt>
      <trkpt lat="44.9667" lon="6.66098">
        <ele>1649.171268</ele>
        <time>2022-09-04T15:17:02+0200</time>
      </trkpt>
      <trkpt lat="44.96671" lon="6.6609">
        <ele>1649.546618</ele>
        <time>2022-09-04T15:17:04+0200</time>
      </trkpt>
      <trkpt lat="44.96674" lon="6.66082">
        <ele>1648.896963</ele>
        <time>2022-09-04T15:17:06+0200</time>
      </trkpt>
      <trkpt lat="44.96676" lon="6.66074">
        <ele>1648.494851</ele>
        <time>2022-09-04T15:17:08+0200</time>
      </trkpt>
      <trkpt lat="44.96678" lon="6.66068">
        <ele>1648.432233</ele>
        <time>2022-09-04T15:17:10+0200</time>
      </trkpt>
      <trkpt lat="44.96681" lon="6.66061">
        <ele>1648.576549</ele>
        <time>2022-09-04T15:17:12+0200</time>
      </trkpt>
      <trkpt lat="44.96686" lon="6.66054">
        <ele>1648.226038</ele>
        <time>2022-09-04T15:17:15+0200</time>
      </trkpt>
      <trkpt lat="44.9669" lon="6.66048">
        <ele>1647.549033</ele>
        <time>2022-09-04T15:17:17+0200</time>
      </trkpt>
      <trkpt lat="44.96694" lon="6.66044">
        <ele>1646.708907</ele>
        <time>2022-09-04T15:17:19+0200</time>
      </trkpt>
      <trkpt lat="44.96698" lon="6.66039">
        <ele>1645.967143</ele>
        <time>2022-09-04T15:17:21+0200</time>
      </trkpt>
      <trkpt lat="44.96701" lon="6.66033">
        <ele>1645.782321</ele>
        <time>2022-09-04T15:17:23+0200</time>
      </trkpt>
      <trkpt lat="44.96705" lon="6.6603">
        <ele>1645.750676</ele>
        <time>2022-09-04T15:17:25+0200</time>
      </trkpt>
      <trkpt lat="44.96708" lon="6.66024">
        <ele>1645.894957</ele>
        <time>2022-09-04T15:17:27+0200</time>
      </trkpt>
      <trkpt lat="44.96713" lon="6.66018">
        <ele>1646.886774</ele>
        <time>2022-09-04T15:17:30+0200</time>
      </trkpt>
      <trkpt lat="44.96716" lon="6.66013">
        <ele>1647.946286</ele>
        <time>2022-09-04T15:17:32+0200</time>
      </trkpt>
      <trkpt lat="44.96721" lon="6.66011">
        <ele>1648.740799</ele>
        <time>2022-09-04T15:17:34+0200</time>
      </trkpt>
      <trkpt lat="44.96726" lon="6.66005">
        <ele>1649.167021</ele>
        <time>2022-09-04T15:17:37+0200</time>
      </trkpt>
      <trkpt lat="44.96732" lon="6.66">
        <ele>1648.655374</ele>
        <time>2022-09-04T15:17:40+0200</time>
      </trkpt>
      <trkpt lat="44.96738" lon="6.65995">
        <ele>1648.126161</ele>
        <time>2022-09-04T15:17:43+0200</time>
      </trkpt>
      <trkpt lat="44.96743" lon="6.65992">
        <ele>1648.491408</ele>
        <time>2022-09-04T15:17:46+0200</time>
      </trkpt>
      <trkpt lat="44.9675" lon="6.65989">
        <ele>1647.703273</ele>
        <time>2022-09-04T15:17:49+0200</time>
      </trkpt>
      <trkpt lat="44.96753" lon="6.65983">
        <ele>1647.430906</ele>
        <time>2022-09-04T15:17:52+0200</time>
      </trkpt>
      <trkpt lat="44.96758" lon="6.65977">
        <ele>1647.513307</ele>
        <time>2022-09-04T15:17:55+0200</time>
      </trkpt>
      <trkpt lat="44.96762" lon="6.65973">
        <ele>1646.997067</ele>
        <time>2022-09-04T15:17:57+0200</time>
      </trkpt>
      <trkpt lat="44.96765" lon="6.65969">
        <ele>1646.551489</ele>
        <time>2022-09-04T15:17:59+0200</time>
      </trkpt>
      <trkpt lat="44.9677" lon="6.65963">
        <ele>1645.876081</ele>
        <time>2022-09-04T15:18:01+0200</time>
      </trkpt>
      <trkpt lat="44.96772" lon="6.65958">
        <ele>1644.796236</ele>
        <time>2022-09-04T15:18:03+0200</time>
      </trkpt>
      <trkpt lat="44.96776" lon="6.65951">
        <ele>1644.113063</ele>
        <time>2022-09-04T15:18:05+0200</time>
      </trkpt>
      <trkpt lat="44.9678" lon="6.65944">
        <ele>1643.947031</ele>
        <time>2022-09-04T15:18:08+0200</time>
      </trkpt>
      <trkpt lat="44.96782" lon="6.65938">
        <ele>1643.942001</ele>
        <time>2022-09-04T15:18:10+0200</time>
      </trkpt>
      <trkpt lat="44.96785" lon="6.65931">
        <ele>1644.00367</ele>
        <time>2022-09-04T15:18:12+0200</time>
      </trkpt>
      <trkpt lat="44.96788" lon="6.65925">
        <ele>1644.548086</ele>
        <time>2022-09-04T15:18:14+0200</time>
      </trkpt>
      <trkpt lat="44.9679" lon="6.65918">
        <ele>1645.130283</ele>
        <time>2022-09-04T15:18:16+0200</time>
      </trkpt>
      <trkpt lat="44.96791" lon="6.65911">
        <ele>1646.587131</ele>
        <time>2022-09-04T15:18:18+0200</time>
      </trkpt>
      <trkpt lat="44.96792" lon="6.65901">
        <ele>1647.910458</ele>
        <time>2022-09-04T15:18:21+0200</time>
      </trkpt>
      <trkpt lat="44.96791" lon="6.65894">
        <ele>1649.223736</ele>
        <time>2022-09-04T15:18:23+0200</time>
      </trkpt>
      <trkpt lat="44.96789" lon="6.65888">
        <ele>1650.753077</ele>
        <time>2022-09-04T15:18:25+0200</time>
      </trkpt>
      <trkpt lat="44.96788" lon="6.6588">
        <ele>1652.252437</ele>
        <time>2022-09-04T15:18:27+0200</time>
      </trkpt>
      <trkpt lat="44.96786" lon="6.65874">
        <ele>1653.361098</ele>
        <time>2022-09-04T15:18:29+0200</time>
      </trkpt>
      <trkpt lat="44.96783" lon="6.65866">
        <ele>1655.411566</ele>
        <time>2022-09-04T15:18:32+0200</time>
      </trkpt>
      <trkpt lat="44.96781" lon="6.65861">
        <ele>1656.902955</ele>
        <time>2022-09-04T15:18:34+0200</time>
      </trkpt>
      <trkpt lat="44.9678" lon="6.65853">
        <ele>1658.119851</ele>
        <time>2022-09-04T15:18:37+0200</time>
      </trkpt>
      <trkpt lat="44.96778" lon="6.65844">
        <ele>1659.96242</ele>
        <time>2022-09-04T15:18:40+0200</time>
      </trkpt>
      <trkpt lat="44.96778" lon="6.65838">
        <ele>1661.250056</ele>
        <time>2022-09-04T15:18:42+0200</time>
      </trkpt>
      <trkpt lat="44.96776" lon="6.65829">
        <ele>1663.661676</ele>
        <time>2022-09-04T15:18:45+0200</time>
      </trkpt>
      <trkpt lat="44.96773" lon="6.65822">
        <ele>1665.481934</ele>
        <time>2022-09-04T15:18:48+0200</time>
      </trkpt>
      <trkpt lat="44.96771" lon="6.65814">
        <ele>1666.599695</ele>
        <time>2022-09-04T15:18:51+0200</time>
      </trkpt>
      <trkpt lat="44.96769" lon="6.65806">
        <ele>1667.615661</ele>
        <time>2022-09-04T15:18:54+0200</time>
      </trkpt>
      <trkpt lat="44.96765" lon="6.65802">
        <ele>1668.514563</ele>
        <time>2022-09-04T15:18:57+0200</time>
      </trkpt>
      <trkpt lat="44.96759" lon="6.65804">
        <ele>1670.22379</ele>
        <time>2022-09-04T15:19:00+0200</time>
      </trkpt>
      <trkpt lat="44.96757" lon="6.65812">
        <ele>1670.380092</ele>
        <time>2022-09-04T15:19:04+0200</time>
      </trkpt>
      <trkpt lat="44.96756" lon="6.6582">
        <ele>1670.166636</ele>
        <time>2022-09-04T15:19:07+0200</time>
      </trkpt>
      <trkpt lat="44.96758" lon="6.65827">
        <ele>1671.043445</ele>
        <time>2022-09-04T15:19:10+0200</time>
      </trkpt>
      <trkpt lat="44.9676" lon="6.65835">
        <ele>1670.398323</ele>
        <time>2022-09-04T15:19:13+0200</time>
      </trkpt>
      <trkpt lat="44.9676" lon="6.65843">
        <ele>1669.371777</ele>
        <time>2022-09-04T15:19:16+0200</time>
      </trkpt>
      <trkpt lat="44.96759" lon="6.6585">
        <ele>1668.487928</ele>
        <time>2022-09-04T15:19:19+0200</time>
      </trkpt>
      <trkpt lat="44.96758" lon="6.65858">
        <ele>1668.00036</ele>
        <time>2022-09-04T15:19:22+0200</time>
      </trkpt>
      <trkpt lat="44.96757" lon="6.65865">
        <ele>1667.365813</ele>
        <time>2022-09-04T15:19:25+0200</time>
      </trkpt>
      <trkpt lat="44.96754" lon="6.65871">
        <ele>1666.383824</ele>
        <time>2022-09-04T15:19:28+0200</time>
      </trkpt>
      <trkpt lat="44.96751" lon="6.65878">
        <ele>1666.58727</ele>
        <time>2022-09-04T15:19:31+0200</time>
      </trkpt>
      <trkpt lat="44.96749" lon="6.65884">
        <ele>1667.805663</ele>
        <time>2022-09-04T15:19:34+0200</time>
      </trkpt>
      <trkpt lat="44.96744" lon="6.6589">
        <ele>1669.622905</ele>
        <time>2022-09-04T15:19:37+0200</time>
      </trkpt>
      <trkpt lat="44.96739" lon="6.65894">
        <ele>1671.063132</ele>
        <time>2022-09-04T15:19:40+0200</time>
      </trkpt>
      <trkpt lat="44.96735" lon="6.65898">
        <ele>1671.224718</ele>
        <time>2022-09-04T15:19:42+0200</time>
      </trkpt>
      <trkpt lat="44.9673" lon="6.65899">
        <ele>1672.507289</ele>
        <time>2022-09-04T15:19:45+0200</time>
      </trkpt>
      <trkpt lat="44.96724" lon="6.65901">
        <ele>1673.651774</ele>
        <time>2022-09-04T15:19:47+0200</time>
      </trkpt>
      <trkpt lat="44.9672" lon="6.65905">
        <ele>1675.730426</ele>
        <time>2022-09-04T15:19:49+0200</time>
      </trkpt>
      <trkpt lat="44.96715" lon="6.65907">
        <ele>1677.992383</ele>
        <time>2022-09-04T15:19:51+0200</time>
      </trkpt>
      <trkpt lat="44.9671" lon="6.65911">
        <ele>1678.964292</ele>
        <time>2022-09-04T15:19:54+0200</time>
      </trkpt>
      <trkpt lat="44.96706" lon="6.65916">
        <ele>1679.275832</ele>
        <time>2022-09-04T15:19:57+0200</time>
      </trkpt>
      <trkpt lat="44.96702" lon="6.65921">
        <ele>1678.33242</ele>
        <time>2022-09-04T15:20:01+0200</time>
      </trkpt>
      <trkpt lat="44.96696" lon="6.65928">
        <ele>1678.395457</ele>
        <time>2022-09-04T15:20:04+0200</time>
      </trkpt>
      <trkpt lat="44.96692" lon="6.65932">
        <ele>1677.959263</ele>
        <time>2022-09-04T15:20:06+0200</time>
      </trkpt>
      <trkpt lat="44.96688" lon="6.65937">
        <ele>1677.494969</ele>
        <time>2022-09-04T15:20:08+0200</time>
      </trkpt>
      <trkpt lat="44.96685" lon="6.65943">
        <ele>1677.466395</ele>
        <time>2022-09-04T15:20:10+0200</time>
      </trkpt>
      <trkpt lat="44.96679" lon="6.65948">
        <ele>1677.612586</ele>
        <time>2022-09-04T15:20:12+0200</time>
      </trkpt>
      <trkpt lat="44.96675" lon="6.65953">
        <ele>1678.669212</ele>
        <time>2022-09-04T15:20:14+0200</time>
      </trkpt>
      <trkpt lat="44.96669" lon="6.65955">
        <ele>1680.119092</ele>
        <time>2022-09-04T15:20:16+0200</time>
      </trkpt>
      <trkpt lat="44.96664" lon="6.65957">
        <ele>1681.869022</ele>
        <time>2022-09-04T15:20:18+0200</time>
      </trkpt>
      <trkpt lat="44.96659" lon="6.65954">
        <ele>1684.430512</ele>
        <time>2022-09-04T15:20:20+0200</time>
      </trkpt>
      <trkpt lat="44.96654" lon="6.65951">
        <ele>1686.788788</ele>
        <time>2022-09-04T15:20:22+0200</time>
      </trkpt>
      <trkpt lat="44.9665" lon="6.65946">
        <ele>1688.557133</ele>
        <time>2022-09-04T15:20:24+0200</time>
      </trkpt>
      <trkpt lat="44.96647" lon="6.65941">
        <ele>1689.323207</ele>
        <time>2022-09-04T15:20:26+0200</time>
      </trkpt>
      <trkpt lat="44.96643" lon="6.65935">
        <ele>1691.436776</ele>
        <time>2022-09-04T15:20:29+0200</time>
      </trkpt>
      <trkpt lat="44.9664" lon="6.65929">
        <ele>1692.81434</ele>
        <time>2022-09-04T15:20:31+0200</time>
      </trkpt>
      <trkpt lat="44.96637" lon="6.65925">
        <ele>1696.219062</ele>
        <time>2022-09-04T15:20:34+0200</time>
      </trkpt>
      <trkpt lat="44.96631" lon="6.65927">
        <ele>1697.984776</ele>
        <time>2022-09-04T15:20:37+0200</time>
      </trkpt>
      <trkpt lat="44.96628" lon="6.65933">
        <ele>1698.351333</ele>
        <time>2022-09-04T15:20:40+0200</time>
      </trkpt>
      <trkpt lat="44.96631" lon="6.6594">
        <ele>1698.552248</ele>
        <time>2022-09-04T15:20:43+0200</time>
      </trkpt>
      <trkpt lat="44.96634" lon="6.65947">
        <ele>1697.574433</ele>
        <time>2022-09-04T15:20:46+0200</time>
      </trkpt>
      <trkpt lat="44.96639" lon="6.65951">
        <ele>1696.705365</ele>
        <time>2022-09-04T15:20:49+0200</time>
      </trkpt>
      <trkpt lat="44.96639" lon="6.6596">
        <ele>1694.117929</ele>
        <time>2022-09-04T15:20:51+0200</time>
      </trkpt>
      <trkpt lat="44.96639" lon="6.65968">
        <ele>1691.946746</ele>
        <time>2022-09-04T15:20:53+0200</time>
      </trkpt>
      <trkpt lat="44.96637" lon="6.65974">
        <ele>1690.19718</ele>
        <time>2022-09-04T15:20:55+0200</time>
      </trkpt>
      <trkpt lat="44.96632" lon="6.65979">
        <ele>1689.244147</ele>
        <time>2022-09-04T15:20:57+0200</time>
      </trkpt>
      <trkpt lat="44.96625" lon="6.65979">
        <ele>1689.148316</ele>
        <time>2022-09-04T15:21:00+0200</time>
      </trkpt>
      <trkpt lat="44.96618" lon="6.65976">
        <ele>1690.257798</ele>
        <time>2022-09-04T15:21:02+0200</time>
      </trkpt>
      <trkpt lat="44.96614" lon="6.6597">
        <ele>1693.472308</ele>
        <time>2022-09-04T15:21:05+0200</time>
      </trkpt>
      <trkpt lat="44.96612" lon="6.65964">
        <ele>1695.862468</ele>
        <time>2022-09-04T15:21:07+0200</time>
      </trkpt>
      <trkpt lat="44.96609" lon="6.65958">
        <ele>1698.087173</ele>
        <time>2022-09-04T15:21:09+0200</time>
      </trkpt>
      <trkpt lat="44.96607" lon="6.6595">
        <ele>1699.958157</ele>
        <time>2022-09-04T15:21:11+0200</time>
      </trkpt>
      <trkpt lat="44.96606" lon="6.65943">
        <ele>1703.248696</ele>
        <time>2022-09-04T15:21:13+0200</time>
      </trkpt>
      <trkpt lat="44.96605" lon="6.65934">
        <ele>1706.011299</ele>
        <time>2022-09-04T15:21:15+0200</time>
      </trkpt>
      <trkpt lat="44.96604" lon="6.65927">
        <ele>1707.766909</ele>
        <time>2022-09-04T15:21:17+0200</time>
      </trkpt>
      <trkpt lat="44.96602" lon="6.6592">
        <ele>1709.663999</ele>
        <time>2022-09-04T15:21:20+0200</time>
      </trkpt>
      <trkpt lat="44.96601" lon="6.65913">
        <ele>1711.085578</ele>
        <time>2022-09-04T15:21:22+0200</time>
      </trkpt>
      <trkpt lat="44.96599" lon="6.65902">
        <ele>1710.568949</ele>
        <time>2022-09-04T15:21:25+0200</time>
      </trkpt>
      <trkpt lat="44.966" lon="6.65896">
        <ele>1710.493644</ele>
        <time>2022-09-04T15:21:27+0200</time>
      </trkpt>
      <trkpt lat="44.96602" lon="6.65889">
        <ele>1709.752503</ele>
        <time>2022-09-04T15:21:29+0200</time>
      </trkpt>
      <trkpt lat="44.96605" lon="6.65882">
        <ele>1708.745646</ele>
        <time>2022-09-04T15:21:31+0200</time>
      </trkpt>
      <trkpt lat="44.96609" lon="6.65875">
        <ele>1707.371575</ele>
        <time>2022-09-04T15:21:33+0200</time>
      </trkpt>
      <trkpt lat="44.9661" lon="6.65868">
        <ele>1706.115621</ele>
        <time>2022-09-04T15:21:35+0200</time>
      </trkpt>
      <trkpt lat="44.96612" lon="6.6586">
        <ele>1704.630971</ele>
        <time>2022-09-04T15:21:38+0200</time>
      </trkpt>
      <trkpt lat="44.96611" lon="6.6585">
        <ele>1704.546066</ele>
        <time>2022-09-04T15:21:41+0200</time>
      </trkpt>
      <trkpt lat="44.96613" lon="6.65844">
        <ele>1703.85952</ele>
        <time>2022-09-04T15:21:43+0200</time>
      </trkpt>
      <trkpt lat="44.96614" lon="6.65837">
        <ele>1703.688424</ele>
        <time>2022-09-04T15:21:45+0200</time>
      </trkpt>
      <trkpt lat="44.96613" lon="6.65829">
        <ele>1703.326822</ele>
        <time>2022-09-04T15:21:48+0200</time>
      </trkpt>
      <trkpt lat="44.96611" lon="6.65823">
        <ele>1703.125619</ele>
        <time>2022-09-04T15:21:51+0200</time>
      </trkpt>
      <trkpt lat="44.9661" lon="6.65816">
        <ele>1704.25862</ele>
        <time>2022-09-04T15:21:54+0200</time>
      </trkpt>
      <trkpt lat="44.96606" lon="6.6581">
        <ele>1705.929525</ele>
        <time>2022-09-04T15:22:01+0200</time>
      </trkpt>
      <trkpt lat="44.96602" lon="6.65805">
        <ele>1707.676861</ele>
        <time>2022-09-04T15:22:05+0200</time>
      </trkpt>
      <trkpt lat="44.96597" lon="6.65802">
        <ele>1709.425809</ele>
        <time>2022-09-04T15:22:08+0200</time>
      </trkpt>
      <trkpt lat="44.96593" lon="6.65797">
        <ele>1711.793607</ele>
        <time>2022-09-04T15:22:11+0200</time>
      </trkpt>
      <trkpt lat="44.96589" lon="6.65791">
        <ele>1714.294213</ele>
        <time>2022-09-04T15:22:15+0200</time>
      </trkpt>
      <trkpt lat="44.96588" lon="6.65781">
        <ele>1716.017623</ele>
        <time>2022-09-04T15:22:18+0200</time>
      </trkpt>
      <trkpt lat="44.96587" lon="6.65774">
        <ele>1716.661378</ele>
        <time>2022-09-04T15:22:20+0200</time>
      </trkpt>
      <trkpt lat="44.9659" lon="6.65766">
        <ele>1717.025201</ele>
        <time>2022-09-04T15:22:22+0200</time>
      </trkpt>
      <trkpt lat="44.96592" lon="6.65759">
        <ele>1717.719532</ele>
        <time>2022-09-04T15:22:24+0200</time>
      </trkpt>
      <trkpt lat="44.96595" lon="6.65752">
        <ele>1718.330392</ele>
        <time>2022-09-04T15:22:26+0200</time>
      </trkpt>
      <trkpt lat="44.966" lon="6.65747">
        <ele>1718.748321</ele>
        <time>2022-09-04T15:22:28+0200</time>
      </trkpt>
      <trkpt lat="44.96606" lon="6.65743">
        <ele>1719.556458</ele>
        <time>2022-09-04T15:22:31+0200</time>
      </trkpt>
      <trkpt lat="44.96611" lon="6.6574">
        <ele>1719.965948</ele>
        <time>2022-09-04T15:22:34+0200</time>
      </trkpt>
      <trkpt lat="44.96615" lon="6.65737">
        <ele>1719.894765</ele>
        <time>2022-09-04T15:22:37+0200</time>
      </trkpt>
      <trkpt lat="44.96621" lon="6.65734">
        <ele>1719.199046</ele>
        <time>2022-09-04T15:22:40+0200</time>
      </trkpt>
      <trkpt lat="44.96626" lon="6.65729">
        <ele>1718.314229</ele>
        <time>2022-09-04T15:22:43+0200</time>
      </trkpt>
      <trkpt lat="44.96633" lon="6.65728">
        <ele>1717.560892</ele>
        <time>2022-09-04T15:22:48+0200</time>
      </trkpt>
      <trkpt lat="44.96638" lon="6.65726">
        <ele>1716.621814</ele>
        <time>2022-09-04T15:22:51+0200</time>
      </trkpt>
      <trkpt lat="44.96643" lon="6.65724">
        <ele>1716.031496</ele>
        <time>2022-09-04T15:22:53+0200</time>
      </trkpt>
      <trkpt lat="44.96648" lon="6.6572">
        <ele>1716.222155</ele>
        <time>2022-09-04T15:22:56+0200</time>
      </trkpt>
      <trkpt lat="44.96654" lon="6.65719">
        <ele>1717.394977</ele>
        <time>2022-09-04T15:22:59+0200</time>
      </trkpt>
      <trkpt lat="44.96661" lon="6.65718">
        <ele>1718.507224</ele>
        <time>2022-09-04T15:23:01+0200</time>
      </trkpt>
      <trkpt lat="44.96666" lon="6.65716">
        <ele>1718.744494</ele>
        <time>2022-09-04T15:23:03+0200</time>
      </trkpt>
      <trkpt lat="44.9667" lon="6.65714">
        <ele>1719.410598</ele>
        <time>2022-09-04T15:23:05+0200</time>
      </trkpt>
      <trkpt lat="44.96674" lon="6.6571">
        <ele>1719.43395</ele>
        <time>2022-09-04T15:23:07+0200</time>
      </trkpt>
      <trkpt lat="44.96678" lon="6.65704">
        <ele>1719.226161</ele>
        <time>2022-09-04T15:23:10+0200</time>
      </trkpt>
      <trkpt lat="44.96682" lon="6.65699">
        <ele>1719.853283</ele>
        <time>2022-09-04T15:23:13+0200</time>
      </trkpt>
      <trkpt lat="44.96684" lon="6.65691">
        <ele>1721.253761</ele>
        <time>2022-09-04T15:23:16+0200</time>
      </trkpt>
      <trkpt lat="44.96688" lon="6.65686">
        <ele>1722.068427</ele>
        <time>2022-09-04T15:23:19+0200</time>
      </trkpt>
      <trkpt lat="44.96694" lon="6.65681">
        <ele>1722.287912</ele>
        <time>2022-09-04T15:23:22+0200</time>
      </trkpt>
      <trkpt lat="44.96699" lon="6.65678">
        <ele>1722.126396</ele>
        <time>2022-09-04T15:23:24+0200</time>
      </trkpt>
      <trkpt lat="44.96703" lon="6.65673">
        <ele>1722.465507</ele>
        <time>2022-09-04T15:23:27+0200</time>
      </trkpt>
      <trkpt lat="44.96707" lon="6.65668">
        <ele>1722.635593</ele>
        <time>2022-09-04T15:23:29+0200</time>
      </trkpt>
      <trkpt lat="44.96711" lon="6.65663">
        <ele>1722.190758</ele>
        <time>2022-09-04T15:23:31+0200</time>
      </trkpt>
      <trkpt lat="44.96713" lon="6.65656">
        <ele>1721.741155</ele>
        <time>2022-09-04T15:23:34+0200</time>
      </trkpt>
      <trkpt lat="44.96716" lon="6.65648">
        <ele>1722.315502</ele>
        <time>2022-09-04T15:23:37+0200</time>
      </trkpt>
      <trkpt lat="44.96717" lon="6.65641">
        <ele>1722.998971</ele>
        <time>2022-09-04T15:23:40+0200</time>
      </trkpt>
      <trkpt lat="44.96718" lon="6.65634">
        <ele>1724.347415</ele>
        <time>2022-09-04T15:23:43+0200</time>
      </trkpt>
      <trkpt lat="44.96718" lon="6.65627">
        <ele>1725.786155</ele>
        <time>2022-09-04T15:23:46+0200</time>
      </trkpt>
      <trkpt lat="44.96717" lon="6.6562">
        <ele>1728.532832</ele>
        <time>2022-09-04T15:23:50+0200</time>
      </trkpt>
      <trkpt lat="44.96716" lon="6.65611">
        <ele>1730.599588</ele>
        <time>2022-09-04T15:23:54+0200</time>
      </trkpt>
      <trkpt lat="44.96714" lon="6.65605">
        <ele>1733.256774</ele>
        <time>2022-09-04T15:23:58+0200</time>
      </trkpt>
      <trkpt lat="44.96711" lon="6.65599">
        <ele>1736.324551</ele>
        <time>2022-09-04T15:24:02+0200</time>
      </trkpt>
      <trkpt lat="44.96712" lon="6.65592">
        <ele>1737.788074</ele>
        <time>2022-09-04T15:24:06+0200</time>
      </trkpt>
      <trkpt lat="44.96713" lon="6.65583">
        <ele>1738.117641</ele>
        <time>2022-09-04T15:24:10+0200</time>
      </trkpt>
      <trkpt lat="44.96713" lon="6.65576">
        <ele>1739.209789</ele>
        <time>2022-09-04T15:24:14+0200</time>
      </trkpt>
      <trkpt lat="44.96715" lon="6.6557">
        <ele>1740.104301</ele>
        <time>2022-09-04T15:24:17+0200</time>
      </trkpt>
      <trkpt lat="44.96715" lon="6.65563">
        <ele>1740.844667</ele>
        <time>2022-09-04T15:24:20+0200</time>
      </trkpt>
      <trkpt lat="44.96714" lon="6.65556">
        <ele>1740.790145</ele>
        <time>2022-09-04T15:24:24+0200</time>
      </trkpt>
      <trkpt lat="44.96713" lon="6.65547">
        <ele>1741.756937</ele>
        <time>2022-09-04T15:24:28+0200</time>
      </trkpt>
      <trkpt lat="44.96711" lon="6.6554">
        <ele>1742.612769</ele>
        <time>2022-09-04T15:24:32+0200</time>
      </trkpt>
      <trkpt lat="44.96712" lon="6.65532">
        <ele>1743.850384</ele>
        <time>2022-09-04T15:24:35+0200</time>
      </trkpt>
      <trkpt lat="44.96713" lon="6.65523">
        <ele>1744.498781</ele>
        <time>2022-09-04T15:24:38+0200</time>
      </trkpt>
      <trkpt lat="44.96714" lon="6.65516">
        <ele>1744.561331</ele>
        <time>2022-09-04T15:24:41+0200</time>
      </trkpt>
      <trkpt lat="44.96716" lon="6.6551">
        <ele>1744.215985</ele>
        <time>2022-09-04T15:24:43+0200</time>
      </trkpt>
      <trkpt lat="44.96715" lon="6.65501">
        <ele>1744.124266</ele>
        <time>2022-09-04T15:24:46+0200</time>
      </trkpt>
      <trkpt lat="44.96709" lon="6.65497">
        <ele>1745.257622</ele>
        <time>2022-09-04T15:24:49+0200</time>
      </trkpt>
      <trkpt lat="44.96707" lon="6.65502">
        <ele>1746.333484</ele>
        <time>2022-09-04T15:24:51+0200</time>
      </trkpt>
      <trkpt lat="44.96705" lon="6.6551">
        <ele>1746.936177</ele>
        <time>2022-09-04T15:24:54+0200</time>
      </trkpt>
      <trkpt lat="44.96705" lon="6.6552">
        <ele>1747.230436</ele>
        <time>2022-09-04T15:24:57+0200</time>
      </trkpt>
      <trkpt lat="44.96706" lon="6.65528">
        <ele>1748.093961</ele>
        <time>2022-09-04T15:25:00+0200</time>
      </trkpt>
      <trkpt lat="44.96705" lon="6.65535">
        <ele>1748.01886</ele>
        <time>2022-09-04T15:25:03+0200</time>
      </trkpt>
      <trkpt lat="44.96704" lon="6.65544">
        <ele>1748.156985</ele>
        <time>2022-09-04T15:25:06+0200</time>
      </trkpt>
      <trkpt lat="44.96704" lon="6.65554">
        <ele>1747.95089</ele>
        <time>2022-09-04T15:25:09+0200</time>
      </trkpt>
      <trkpt lat="44.96702" lon="6.65563">
        <ele>1747.516929</ele>
        <time>2022-09-04T15:25:12+0200</time>
      </trkpt>
      <trkpt lat="44.967" lon="6.6557">
        <ele>1746.951146</ele>
        <time>2022-09-04T15:25:14+0200</time>
      </trkpt>
      <trkpt lat="44.96697" lon="6.65575">
        <ele>1746.776948</ele>
        <time>2022-09-04T15:25:16+0200</time>
      </trkpt>
      <trkpt lat="44.96694" lon="6.65582">
        <ele>1746.835585</ele>
        <time>2022-09-04T15:25:19+0200</time>
      </trkpt>
      <trkpt lat="44.96692" lon="6.65589">
        <ele>1746.738322</ele>
        <time>2022-09-04T15:25:22+0200</time>
      </trkpt>
      <trkpt lat="44.96689" lon="6.65594">
        <ele>1746.26722</ele>
        <time>2022-09-04T15:25:24+0200</time>
      </trkpt>
      <trkpt lat="44.96683" lon="6.65598">
        <ele>1746.561623</ele>
        <time>2022-09-04T15:25:27+0200</time>
      </trkpt>
      <trkpt lat="44.96677" lon="6.65601">
        <ele>1747.840581</ele>
        <time>2022-09-04T15:25:30+0200</time>
      </trkpt>
      <trkpt lat="44.96672" lon="6.65603">
        <ele>1749.34589</ele>
        <time>2022-09-04T15:25:32+0200</time>
      </trkpt>
      <trkpt lat="44.96666" lon="6.65604">
        <ele>1751.574064</ele>
        <time>2022-09-04T15:25:35+0200</time>
      </trkpt>
      <trkpt lat="44.96662" lon="6.65607">
        <ele>1753.733811</ele>
        <time>2022-09-04T15:25:38+0200</time>
      </trkpt>
      <trkpt lat="44.9666" lon="6.65614">
        <ele>1753.459539</ele>
        <time>2022-09-04T15:25:42+0200</time>
      </trkpt>
      <trkpt lat="44.96656" lon="6.6562">
        <ele>1752.884292</ele>
        <time>2022-09-04T15:25:45+0200</time>
      </trkpt>
      <trkpt lat="44.96653" lon="6.65624">
        <ele>1752.673838</ele>
        <time>2022-09-04T15:25:48+0200</time>
      </trkpt>
      <trkpt lat="44.96649" lon="6.65628">
        <ele>1752.314096</ele>
        <time>2022-09-04T15:25:50+0200</time>
      </trkpt>
      <trkpt lat="44.96643" lon="6.65633">
        <ele>1752.428933</ele>
        <time>2022-09-04T15:25:52+0200</time>
      </trkpt>
      <trkpt lat="44.96639" lon="6.65635">
        <ele>1752.676316</ele>
        <time>2022-09-04T15:25:54+0200</time>
      </trkpt>
      <trkpt lat="44.96633" lon="6.65637">
        <ele>1752.271219</ele>
        <time>2022-09-04T15:25:56+0200</time>
      </trkpt>
      <trkpt lat="44.96626" lon="6.65637">
        <ele>1752.384208</ele>
        <time>2022-09-04T15:25:58+0200</time>
      </trkpt>
      <trkpt lat="44.96621" lon="6.65633">
        <ele>1754.242608</ele>
        <time>2022-09-04T15:26:00+0200</time>
      </trkpt>
      <trkpt lat="44.96618" lon="6.65627">
        <ele>1755.426319</ele>
        <time>2022-09-04T15:26:02+0200</time>
      </trkpt>
      <trkpt lat="44.9662" lon="6.6562">
        <ele>1756.614481</ele>
        <time>2022-09-04T15:26:04+0200</time>
      </trkpt>
      <trkpt lat="44.96624" lon="6.65616">
        <ele>1759.80861</ele>
        <time>2022-09-04T15:26:06+0200</time>
      </trkpt>
      <trkpt lat="44.9663" lon="6.65613">
        <ele>1761.268915</ele>
        <time>2022-09-04T15:26:08+0200</time>
      </trkpt>
      <trkpt lat="44.96634" lon="6.6561">
        <ele>1761.88494</ele>
        <time>2022-09-04T15:26:10+0200</time>
      </trkpt>
      <trkpt lat="44.96642" lon="6.65609">
        <ele>1761.942005</ele>
        <time>2022-09-04T15:26:12+0200</time>
      </trkpt>
      <trkpt lat="44.96646" lon="6.65602">
        <ele>1760.630683</ele>
        <time>2022-09-04T15:26:14+0200</time>
      </trkpt>
      <trkpt lat="44.96649" lon="6.65596">
        <ele>1760.11948</ele>
        <time>2022-09-04T15:26:16+0200</time>
      </trkpt>
      <trkpt lat="44.96652" lon="6.6559">
        <ele>1759.291169</ele>
        <time>2022-09-04T15:26:18+0200</time>
      </trkpt>
      <trkpt lat="44.96654" lon="6.65582">
        <ele>1759.557019</ele>
        <time>2022-09-04T15:26:20+0200</time>
      </trkpt>
      <trkpt lat="44.96657" lon="6.65576">
        <ele>1760.08206</ele>
        <time>2022-09-04T15:26:22+0200</time>
      </trkpt>
      <trkpt lat="44.96659" lon="6.65568">
        <ele>1761.483531</ele>
        <time>2022-09-04T15:26:25+0200</time>
      </trkpt>
      <trkpt lat="44.96661" lon="6.65562">
        <ele>1762.799208</ele>
        <time>2022-09-04T15:26:27+0200</time>
      </trkpt>
      <trkpt lat="44.96664" lon="6.65554">
        <ele>1763.723177</ele>
        <time>2022-09-04T15:26:30+0200</time>
      </trkpt>
      <trkpt lat="44.96668" lon="6.65546">
        <ele>1764.192853</ele>
        <time>2022-09-04T15:26:33+0200</time>
      </trkpt>
      <trkpt lat="44.9667" lon="6.65541">
        <ele>1764.754083</ele>
        <time>2022-09-04T15:26:35+0200</time>
      </trkpt>
      <trkpt lat="44.96669" lon="6.65532">
        <ele>1764.894724</ele>
        <time>2022-09-04T15:26:38+0200</time>
      </trkpt>
      <trkpt lat="44.96667" lon="6.65525">
        <ele>1765.872978</ele>
        <time>2022-09-04T15:26:41+0200</time>
      </trkpt>
      <trkpt lat="44.96666" lon="6.65517">
        <ele>1765.87002</ele>
        <time>2022-09-04T15:26:44+0200</time>
      </trkpt>
      <trkpt lat="44.96665" lon="6.65511">
        <ele>1766.162225</ele>
        <time>2022-09-04T15:26:47+0200</time>
      </trkpt>
      <trkpt lat="44.96663" lon="6.65504">
        <ele>1765.723131</ele>
        <time>2022-09-04T15:26:50+0200</time>
      </trkpt>
      <trkpt lat="44.96664" lon="6.65495">
        <ele>1766.549139</ele>
        <time>2022-09-04T15:26:53+0200</time>
      </trkpt>
      <trkpt lat="44.96662" lon="6.65488">
        <ele>1767.432458</ele>
        <time>2022-09-04T15:26:56+0200</time>
      </trkpt>
      <trkpt lat="44.96659" lon="6.65482">
        <ele>1769.463263</ele>
        <time>2022-09-04T15:26:59+0200</time>
      </trkpt>
      <trkpt lat="44.96655" lon="6.65485">
        <ele>1771.303806</ele>
        <time>2022-09-04T15:27:02+0200</time>
      </trkpt>
      <trkpt lat="44.9665" lon="6.65489">
        <ele>1772.375649</ele>
        <time>2022-09-04T15:27:05+0200</time>
      </trkpt>
      <trkpt lat="44.96646" lon="6.65493">
        <ele>1772.594477</ele>
        <time>2022-09-04T15:27:07+0200</time>
      </trkpt>
      <trkpt lat="44.96646" lon="6.65501">
        <ele>1772.951584</ele>
        <time>2022-09-04T15:27:10+0200</time>
      </trkpt>
      <trkpt lat="44.96646" lon="6.65508">
        <ele>1773.117623</ele>
        <time>2022-09-04T15:27:13+0200</time>
      </trkpt>
      <trkpt lat="44.96644" lon="6.65515">
        <ele>1773.330851</ele>
        <time>2022-09-04T15:27:16+0200</time>
      </trkpt>
      <trkpt lat="44.96641" lon="6.65522">
        <ele>1772.793624</ele>
        <time>2022-09-04T15:27:19+0200</time>
      </trkpt>
      <trkpt lat="44.96636" lon="6.65528">
        <ele>1771.70608</ele>
        <time>2022-09-04T15:27:22+0200</time>
      </trkpt>
      <trkpt lat="44.96631" lon="6.65532">
        <ele>1771.81003</ele>
        <time>2022-09-04T15:27:24+0200</time>
      </trkpt>
      <trkpt lat="44.96626" lon="6.65535">
        <ele>1772.468042</ele>
        <time>2022-09-04T15:27:27+0200</time>
      </trkpt>
      <trkpt lat="44.9662" lon="6.65541">
        <ele>1773.963011</ele>
        <time>2022-09-04T15:27:30+0200</time>
      </trkpt>
      <trkpt lat="44.96615" lon="6.65544">
        <ele>1774.847353</ele>
        <time>2022-09-04T15:27:33+0200</time>
      </trkpt>
      <trkpt lat="44.96612" lon="6.65551">
        <ele>1776.360842</ele>
        <time>2022-09-04T15:27:36+0200</time>
      </trkpt>
      <trkpt lat="44.96606" lon="6.65556">
        <ele>1776.694385</ele>
        <time>2022-09-04T15:27:39+0200</time>
      </trkpt>
      <trkpt lat="44.96602" lon="6.65559">
        <ele>1777.659599</ele>
        <time>2022-09-04T15:27:41+0200</time>
      </trkpt>
      <trkpt lat="44.96597" lon="6.6556">
        <ele>1778.994237</ele>
        <time>2022-09-04T15:27:43+0200</time>
      </trkpt>
      <trkpt lat="44.96591" lon="6.65556">
        <ele>1780.615194</ele>
        <time>2022-09-04T15:27:45+0200</time>
      </trkpt>
      <trkpt lat="44.96589" lon="6.65549">
        <ele>1783.41281</ele>
        <time>2022-09-04T15:27:47+0200</time>
      </trkpt>
      <trkpt lat="44.96591" lon="6.6554">
        <ele>1785.169632</ele>
        <time>2022-09-04T15:27:50+0200</time>
      </trkpt>
      <trkpt lat="44.96594" lon="6.65534">
        <ele>1785.796861</ele>
        <time>2022-09-04T15:27:52+0200</time>
      </trkpt>
      <trkpt lat="44.96596" lon="6.65526">
        <ele>1785.728281</ele>
        <time>2022-09-04T15:27:54+0200</time>
      </trkpt>
      <trkpt lat="44.96599" lon="6.65518">
        <ele>1786.287913</ele>
        <time>2022-09-04T15:27:56+0200</time>
      </trkpt>
      <trkpt lat="44.96601" lon="6.6551">
        <ele>1785.576327</ele>
        <time>2022-09-04T15:27:58+0200</time>
      </trkpt>
      <trkpt lat="44.96604" lon="6.65503">
        <ele>1786.014062</ele>
        <time>2022-09-04T15:28:00+0200</time>
      </trkpt>
      <trkpt lat="44.96607" lon="6.65496">
        <ele>1786.474462</ele>
        <time>2022-09-04T15:28:02+0200</time>
      </trkpt>
      <trkpt lat="44.96609" lon="6.6549">
        <ele>1786.217648</ele>
        <time>2022-09-04T15:28:04+0200</time>
      </trkpt>
      <trkpt lat="44.9661" lon="6.65482">
        <ele>1786.120848</ele>
        <time>2022-09-04T15:28:07+0200</time>
      </trkpt>
      <trkpt lat="44.96612" lon="6.65476">
        <ele>1786.794878</ele>
        <time>2022-09-04T15:28:09+0200</time>
      </trkpt>
      <trkpt lat="44.96613" lon="6.65468">
        <ele>1788.036161</ele>
        <time>2022-09-04T15:28:12+0200</time>
      </trkpt>
      <trkpt lat="44.96614" lon="6.65461">
        <ele>1789.403183</ele>
        <time>2022-09-04T15:28:15+0200</time>
      </trkpt>
      <trkpt lat="44.96616" lon="6.65455">
        <ele>1790.695327</ele>
        <time>2022-09-04T15:28:18+0200</time>
      </trkpt>
      <trkpt lat="44.96618" lon="6.65448">
        <ele>1790.53032</ele>
        <time>2022-09-04T15:28:21+0200</time>
      </trkpt>
      <trkpt lat="44.96622" lon="6.6544">
        <ele>1790.688932</ele>
        <time>2022-09-04T15:28:24+0200</time>
      </trkpt>
      <trkpt lat="44.96626" lon="6.65436">
        <ele>1790.57854</ele>
        <time>2022-09-04T15:28:26+0200</time>
      </trkpt>
      <trkpt lat="44.9663" lon="6.65431">
        <ele>1790.801096</ele>
        <time>2022-09-04T15:28:29+0200</time>
      </trkpt>
      <trkpt lat="44.96635" lon="6.65426">
        <ele>1791.310861</ele>
        <time>2022-09-04T15:28:32+0200</time>
      </trkpt>
      <trkpt lat="44.9664" lon="6.65425">
        <ele>1791.591465</ele>
        <time>2022-09-04T15:28:34+0200</time>
      </trkpt>
      <trkpt lat="44.96646" lon="6.65424">
        <ele>1790.86606</ele>
        <time>2022-09-04T15:28:36+0200</time>
      </trkpt>
      <trkpt lat="44.96652" lon="6.65421">
        <ele>1790.039854</ele>
        <time>2022-09-04T15:28:38+0200</time>
      </trkpt>
      <trkpt lat="44.96657" lon="6.65419">
        <ele>1788.886954</ele>
        <time>2022-09-04T15:28:41+0200</time>
      </trkpt>
      <trkpt lat="44.96662" lon="6.65418">
        <ele>1788.054959</ele>
        <time>2022-09-04T15:28:43+0200</time>
      </trkpt>
      <trkpt lat="44.96666" lon="6.65415">
        <ele>1786.892428</ele>
        <time>2022-09-04T15:28:45+0200</time>
      </trkpt>
      <trkpt lat="44.96671" lon="6.65409">
        <ele>1785.920994</ele>
        <time>2022-09-04T15:28:48+0200</time>
      </trkpt>
      <trkpt lat="44.96673" lon="6.65401">
        <ele>1785.423842</ele>
        <time>2022-09-04T15:28:51+0200</time>
      </trkpt>
      <trkpt lat="44.96675" lon="6.65394">
        <ele>1787.034717</ele>
        <time>2022-09-04T15:28:53+0200</time>
      </trkpt>
      <trkpt lat="44.96671" lon="6.65388">
        <ele>1789.104938</ele>
        <time>2022-09-04T15:28:56+0200</time>
      </trkpt>
      <trkpt lat="44.96665" lon="6.6539">
        <ele>1791.996659</ele>
        <time>2022-09-04T15:28:59+0200</time>
      </trkpt>
      <trkpt lat="44.9666" lon="6.65397">
        <ele>1793.679401</ele>
        <time>2022-09-04T15:29:02+0200</time>
      </trkpt>
      <trkpt lat="44.96657" lon="6.65402">
        <ele>1793.644725</ele>
        <time>2022-09-04T15:29:04+0200</time>
      </trkpt>
      <trkpt lat="44.96653" lon="6.65407">
        <ele>1793.201257</ele>
        <time>2022-09-04T15:29:06+0200</time>
      </trkpt>
      <trkpt lat="44.96646" lon="6.65407">
        <ele>1792.176523</ele>
        <time>2022-09-04T15:29:09+0200</time>
      </trkpt>
      <trkpt lat="44.96642" lon="6.65408">
        <ele>1791.671501</ele>
        <time>2022-09-04T15:29:11+0200</time>
      </trkpt>
      <trkpt lat="44.96635" lon="6.65407">
        <ele>1791.568223</ele>
        <time>2022-09-04T15:29:14+0200</time>
      </trkpt>
      <trkpt lat="44.96629" lon="6.65407">
        <ele>1792.690445</ele>
        <time>2022-09-04T15:29:16+0200</time>
      </trkpt>
      <trkpt lat="44.96624" lon="6.65408">
        <ele>1794.05953</ele>
        <time>2022-09-04T15:29:18+0200</time>
      </trkpt>
      <trkpt lat="44.96618" lon="6.65408">
        <ele>1795.549398</ele>
        <time>2022-09-04T15:29:20+0200</time>
      </trkpt>
      <trkpt lat="44.96612" lon="6.65407">
        <ele>1797.924677</ele>
        <time>2022-09-04T15:29:22+0200</time>
      </trkpt>
      <trkpt lat="44.96606" lon="6.65408">
        <ele>1799.633188</ele>
        <time>2022-09-04T15:29:24+0200</time>
      </trkpt>
      <trkpt lat="44.96601" lon="6.65411">
        <ele>1801.543005</ele>
        <time>2022-09-04T15:29:26+0200</time>
      </trkpt>
      <trkpt lat="44.96596" lon="6.65415">
        <ele>1802.860233</ele>
        <time>2022-09-04T15:29:28+0200</time>
      </trkpt>
      <trkpt lat="44.96593" lon="6.6542">
        <ele>1803.536323</ele>
        <time>2022-09-04T15:29:30+0200</time>
      </trkpt>
      <trkpt lat="44.9659" lon="6.65426">
        <ele>1803.664581</ele>
        <time>2022-09-04T15:29:32+0200</time>
      </trkpt>
      <trkpt lat="44.96591" lon="6.65434">
        <ele>1804.42687</ele>
        <time>2022-09-04T15:29:34+0200</time>
      </trkpt>
      <trkpt lat="44.96588" lon="6.65441">
        <ele>1803.456637</ele>
        <time>2022-09-04T15:29:37+0200</time>
      </trkpt>
      <trkpt lat="44.96582" lon="6.65444">
        <ele>1802.71007</ele>
        <time>2022-09-04T15:29:39+0200</time>
      </trkpt>
      <trkpt lat="44.96575" lon="6.65441">
        <ele>1802.55578</ele>
        <time>2022-09-04T15:29:41+0200</time>
      </trkpt>
      <trkpt lat="44.9657" lon="6.65435">
        <ele>1804.04516</ele>
        <time>2022-09-04T15:29:43+0200</time>
      </trkpt>
      <trkpt lat="44.96568" lon="6.65428">
        <ele>1806.172476</ele>
        <time>2022-09-04T15:29:45+0200</time>
      </trkpt>
      <trkpt lat="44.96567" lon="6.6542">
        <ele>1808.487316</ele>
        <time>2022-09-04T15:29:47+0200</time>
      </trkpt>
      <trkpt lat="44.96571" lon="6.65413">
        <ele>1809.613275</ele>
        <time>2022-09-04T15:29:49+0200</time>
      </trkpt>
      <trkpt lat="44.96574" lon="6.65404">
        <ele>1810.51595</ele>
        <time>2022-09-04T15:29:51+0200</time>
      </trkpt>
      <trkpt lat="44.96578" lon="6.65397">
        <ele>1811.525866</ele>
        <time>2022-09-04T15:29:53+0200</time>
      </trkpt>
      <trkpt lat="44.96582" lon="6.65393">
        <ele>1812.286299</ele>
        <time>2022-09-04T15:29:55+0200</time>
      </trkpt>
      <trkpt lat="44.96587" lon="6.65389">
        <ele>1813.300279</ele>
        <time>2022-09-04T15:29:57+0200</time>
      </trkpt>
      <trkpt lat="44.96593" lon="6.65389">
        <ele>1813.620674</ele>
        <time>2022-09-04T15:30:00+0200</time>
      </trkpt>
      <trkpt lat="44.96598" lon="6.65385">
        <ele>1813.406534</ele>
        <time>2022-09-04T15:30:02+0200</time>
      </trkpt>
      <trkpt lat="44.96602" lon="6.6538">
        <ele>1814.351943</ele>
        <time>2022-09-04T15:30:05+0200</time>
      </trkpt>
      <trkpt lat="44.96607" lon="6.65376">
        <ele>1814.516206</ele>
        <time>2022-09-04T15:30:08+0200</time>
      </trkpt>
      <trkpt lat="44.96612" lon="6.65373">
        <ele>1813.991614</ele>
        <time>2022-09-04T15:30:10+0200</time>
      </trkpt>
      <trkpt lat="44.96618" lon="6.6537">
        <ele>1814.099102</ele>
        <time>2022-09-04T15:30:13+0200</time>
      </trkpt>
      <trkpt lat="44.96624" lon="6.65365">
        <ele>1813.570499</ele>
        <time>2022-09-04T15:30:16+0200</time>
      </trkpt>
      <trkpt lat="44.96628" lon="6.65361">
        <ele>1813.156985</ele>
        <time>2022-09-04T15:30:18+0200</time>
      </trkpt>
      <trkpt lat="44.96632" lon="6.65355">
        <ele>1812.561751</ele>
        <time>2022-09-04T15:30:21+0200</time>
      </trkpt>
      <trkpt lat="44.96639" lon="6.65351">
        <ele>1812.150293</ele>
        <time>2022-09-04T15:30:24+0200</time>
      </trkpt>
      <trkpt lat="44.96644" lon="6.65347">
        <ele>1812.23109</ele>
        <time>2022-09-04T15:30:26+0200</time>
      </trkpt>
      <trkpt lat="44.96651" lon="6.65344">
        <ele>1811.550042</ele>
        <time>2022-09-04T15:30:28+0200</time>
      </trkpt>
      <trkpt lat="44.96656" lon="6.6534">
        <ele>1811.793343</ele>
        <time>2022-09-04T15:30:30+0200</time>
      </trkpt>
      <trkpt lat="44.9666" lon="6.65336">
        <ele>1813.232256</ele>
        <time>2022-09-04T15:30:32+0200</time>
      </trkpt>
      <trkpt lat="44.96662" lon="6.65331">
        <ele>1813.592088</ele>
        <time>2022-09-04T15:30:34+0200</time>
      </trkpt>
      <trkpt lat="44.96665" lon="6.65325">
        <ele>1813.951562</ele>
        <time>2022-09-04T15:30:36+0200</time>
      </trkpt>
      <trkpt lat="44.96668" lon="6.65318">
        <ele>1815.30368</ele>
        <time>2022-09-04T15:30:39+0200</time>
      </trkpt>
      <trkpt lat="44.9667" lon="6.65312">
        <ele>1815.257947</ele>
        <time>2022-09-04T15:30:42+0200</time>
      </trkpt>
      <trkpt lat="44.96673" lon="6.65304">
        <ele>1816.050233</ele>
        <time>2022-09-04T15:30:45+0200</time>
      </trkpt>
      <trkpt lat="44.96673" lon="6.65296">
        <ele>1816.253075</ele>
        <time>2022-09-04T15:30:48+0200</time>
      </trkpt>
      <trkpt lat="44.96674" lon="6.65287">
        <ele>1817.579603</ele>
        <time>2022-09-04T15:30:51+0200</time>
      </trkpt>
      <trkpt lat="44.96675" lon="6.65281">
        <ele>1817.695554</ele>
        <time>2022-09-04T15:30:53+0200</time>
      </trkpt>
      <trkpt lat="44.96675" lon="6.65274">
        <ele>1818.868974</ele>
        <time>2022-09-04T15:30:55+0200</time>
      </trkpt>
      <trkpt lat="44.96673" lon="6.65268">
        <ele>1819.882134</ele>
        <time>2022-09-04T15:30:57+0200</time>
      </trkpt>
      <trkpt lat="44.96672" lon="6.65259">
        <ele>1822.203333</ele>
        <time>2022-09-04T15:31:00+0200</time>
      </trkpt>
      <trkpt lat="44.96669" lon="6.65253">
        <ele>1824.196596</ele>
        <time>2022-09-04T15:31:03+0200</time>
      </trkpt>
      <trkpt lat="44.96666" lon="6.65245">
        <ele>1825.640452</ele>
        <time>2022-09-04T15:31:06+0200</time>
      </trkpt>
      <trkpt lat="44.96668" lon="6.65237">
        <ele>1826.052357</ele>
        <time>2022-09-04T15:31:08+0200</time>
      </trkpt>
      <trkpt lat="44.96669" lon="6.65229">
        <ele>1826.806486</ele>
        <time>2022-09-04T15:31:10+0200</time>
      </trkpt>
      <trkpt lat="44.9667" lon="6.65222">
        <ele>1828.043771</ele>
        <time>2022-09-04T15:31:12+0200</time>
      </trkpt>
      <trkpt lat="44.96669" lon="6.65216">
        <ele>1829.470401</ele>
        <time>2022-09-04T15:31:14+0200</time>
      </trkpt>
      <trkpt lat="44.96663" lon="6.65216">
        <ele>1830.414876</ele>
        <time>2022-09-04T15:31:18+0200</time>
      </trkpt>
      <trkpt lat="44.96659" lon="6.6522">
        <ele>1831.579158</ele>
        <time>2022-09-04T15:31:20+0200</time>
      </trkpt>
      <trkpt lat="44.96658" lon="6.65226">
        <ele>1832.684405</ele>
        <time>2022-09-04T15:31:23+0200</time>
      </trkpt>
      <trkpt lat="44.96662" lon="6.65227">
        <ele>1833.358262</ele>
        <time>2022-09-04T15:31:39+0200</time>
      </trkpt>
      <trkpt lat="44.96662" lon="6.65234">
        <ele>1833.107603</ele>
        <time>2022-09-04T15:31:56+0200</time>
      </trkpt>
      <trkpt lat="44.9666" lon="6.65225">
        <ele>1830.701317</ele>
        <time>2022-09-04T15:32:14+0200</time>
      </trkpt>
      <trkpt lat="44.96659" lon="6.65218">
        <ele>1830.992748</ele>
        <time>2022-09-04T15:32:20+0200</time>
      </trkpt>
      <trkpt lat="44.96663" lon="6.65223">
        <ele>1831.797383</ele>
        <time>2022-09-04T15:32:33+0200</time>
      </trkpt>
      <trkpt lat="44.96665" lon="6.6523">
        <ele>1831.44392</ele>
        <time>2022-09-04T15:32:35+0200</time>
      </trkpt>
      <trkpt lat="44.96666" lon="6.65237">
        <ele>1830.881472</ele>
        <time>2022-09-04T15:32:37+0200</time>
      </trkpt>
      <trkpt lat="44.96666" lon="6.65245">
        <ele>1829.88431</ele>
        <time>2022-09-04T15:32:39+0200</time>
      </trkpt>
      <trkpt lat="44.96666" lon="6.65252">
        <ele>1828.469566</ele>
        <time>2022-09-04T15:32:41+0200</time>
      </trkpt>
      <trkpt lat="44.96665" lon="6.65259">
        <ele>1827.220514</ele>
        <time>2022-09-04T15:32:43+0200</time>
      </trkpt>
      <trkpt lat="44.96664" lon="6.65266">
        <ele>1826.51463</ele>
        <time>2022-09-04T15:32:45+0200</time>
      </trkpt>
      <trkpt lat="44.96662" lon="6.65273">
        <ele>1826.484571</ele>
        <time>2022-09-04T15:32:47+0200</time>
      </trkpt>
      <trkpt lat="44.96659" lon="6.65281">
        <ele>1827.132605</ele>
        <time>2022-09-04T15:32:49+0200</time>
      </trkpt>
      <trkpt lat="44.96656" lon="6.65288">
        <ele>1827.26969</ele>
        <time>2022-09-04T15:32:51+0200</time>
      </trkpt>
      <trkpt lat="44.96653" lon="6.65295">
        <ele>1827.070422</ele>
        <time>2022-09-04T15:32:53+0200</time>
      </trkpt>
      <trkpt lat="44.96647" lon="6.65299">
        <ele>1826.767951</ele>
        <time>2022-09-04T15:32:55+0200</time>
      </trkpt>
      <trkpt lat="44.96642" lon="6.65302">
        <ele>1826.590822</ele>
        <time>2022-09-04T15:32:57+0200</time>
      </trkpt>
      <trkpt lat="44.96637" lon="6.65306">
        <ele>1827.947144</ele>
        <time>2022-09-04T15:33:00+0200</time>
      </trkpt>
      <trkpt lat="44.96632" lon="6.6531">
        <ele>1828.720224</ele>
        <time>2022-09-04T15:33:02+0200</time>
      </trkpt>
      <trkpt lat="44.96628" lon="6.65312">
        <ele>1829.569718</ele>
        <time>2022-09-04T15:33:04+0200</time>
      </trkpt>
      <trkpt lat="44.96624" lon="6.65315">
        <ele>1830.129293</ele>
        <time>2022-09-04T15:33:06+0200</time>
      </trkpt>
      <trkpt lat="44.96618" lon="6.65315">
        <ele>1830.849507</ele>
        <time>2022-09-04T15:33:09+0200</time>
      </trkpt>
      <trkpt lat="44.96612" lon="6.65315">
        <ele>1831.369142</ele>
        <time>2022-09-04T15:33:11+0200</time>
      </trkpt>
      <trkpt lat="44.96607" lon="6.65317">
        <ele>1831.774726</ele>
        <time>2022-09-04T15:33:13+0200</time>
      </trkpt>
      <trkpt lat="44.96601" lon="6.65319">
        <ele>1832.798661</ele>
        <time>2022-09-04T15:33:15+0200</time>
      </trkpt>
      <trkpt lat="44.96596" lon="6.65321">
        <ele>1833.247334</ele>
        <time>2022-09-04T15:33:17+0200</time>
      </trkpt>
      <trkpt lat="44.96592" lon="6.65324">
        <ele>1832.795855</ele>
        <time>2022-09-04T15:33:19+0200</time>
      </trkpt>
      <trkpt lat="44.96587" lon="6.65327">
        <ele>1832.339923</ele>
        <time>2022-09-04T15:33:21+0200</time>
      </trkpt>
      <trkpt lat="44.96582" lon="6.65329">
        <ele>1832.066393</ele>
        <time>2022-09-04T15:33:23+0200</time>
      </trkpt>
      <trkpt lat="44.96577" lon="6.65331">
        <ele>1832.867556</ele>
        <time>2022-09-04T15:33:25+0200</time>
      </trkpt>
      <trkpt lat="44.96571" lon="6.65333">
        <ele>1833.462117</ele>
        <time>2022-09-04T15:33:27+0200</time>
      </trkpt>
      <trkpt lat="44.96566" lon="6.65334">
        <ele>1834.661421</ele>
        <time>2022-09-04T15:33:29+0200</time>
      </trkpt>
      <trkpt lat="44.9656" lon="6.65336">
        <ele>1837.162419</ele>
        <time>2022-09-04T15:33:32+0200</time>
      </trkpt>
      <trkpt lat="44.96555" lon="6.65337">
        <ele>1838.202947</ele>
        <time>2022-09-04T15:33:34+0200</time>
      </trkpt>
      <trkpt lat="44.96551" lon="6.65338">
        <ele>1839.570915</ele>
        <time>2022-09-04T15:33:36+0200</time>
      </trkpt>
      <trkpt lat="44.96545" lon="6.6534">
        <ele>1840.861429</ele>
        <time>2022-09-04T15:33:38+0200</time>
      </trkpt>
      <trkpt lat="44.96541" lon="6.65344">
        <ele>1841.694849</ele>
        <time>2022-09-04T15:33:40+0200</time>
      </trkpt>
      <trkpt lat="44.96536" lon="6.65348">
        <ele>1842.483923</ele>
        <time>2022-09-04T15:33:42+0200</time>
      </trkpt>
      <trkpt lat="44.96532" lon="6.65352">
        <ele>1843.090183</ele>
        <time>2022-09-04T15:33:44+0200</time>
      </trkpt>
      <trkpt lat="44.96528" lon="6.65356">
        <ele>1843.33751</ele>
        <time>2022-09-04T15:33:46+0200</time>
      </trkpt>
      <trkpt lat="44.96524" lon="6.65361">
        <ele>1844.133259</ele>
        <time>2022-09-04T15:33:48+0200</time>
      </trkpt>
      <trkpt lat="44.9652" lon="6.65364">
        <ele>1843.892698</ele>
        <time>2022-09-04T15:33:50+0200</time>
      </trkpt>
      <trkpt lat="44.96516" lon="6.65368">
        <ele>1844.249067</ele>
        <time>2022-09-04T15:33:52+0200</time>
      </trkpt>
      <trkpt lat="44.96511" lon="6.65373">
        <ele>1844.478207</ele>
        <time>2022-09-04T15:33:55+0200</time>
      </trkpt>
      <trkpt lat="44.96506" lon="6.65378">
        <ele>1844.525809</ele>
        <time>2022-09-04T15:33:57+0200</time>
      </trkpt>
      <trkpt lat="44.96502" lon="6.65382">
        <ele>1845.663451</ele>
        <time>2022-09-04T15:33:59+0200</time>
      </trkpt>
      <trkpt lat="44.96497" lon="6.65388">
        <ele>1846.860504</ele>
        <time>2022-09-04T15:34:01+0200</time>
      </trkpt>
      <trkpt lat="44.96493" lon="6.65393">
        <ele>1847.505707</ele>
        <time>2022-09-04T15:34:03+0200</time>
      </trkpt>
      <trkpt lat="44.9649" lon="6.65398">
        <ele>1848.244064</ele>
        <time>2022-09-04T15:34:05+0200</time>
      </trkpt>
      <trkpt lat="44.96486" lon="6.65403">
        <ele>1849.048925</ele>
        <time>2022-09-04T15:34:07+0200</time>
      </trkpt>
      <trkpt lat="44.96482" lon="6.65407">
        <ele>1849.096362</ele>
        <time>2022-09-04T15:34:09+0200</time>
      </trkpt>
      <trkpt lat="44.96479" lon="6.65413">
        <ele>1849.797262</ele>
        <time>2022-09-04T15:34:11+0200</time>
      </trkpt>
      <trkpt lat="44.96475" lon="6.6542">
        <ele>1850.523394</ele>
        <time>2022-09-04T15:34:13+0200</time>
      </trkpt>
      <trkpt lat="44.96475" lon="6.65427">
        <ele>1851.367788</ele>
        <time>2022-09-04T15:34:15+0200</time>
      </trkpt>
      <trkpt lat="44.96473" lon="6.65433">
        <ele>1851.743243</ele>
        <time>2022-09-04T15:34:17+0200</time>
      </trkpt>
      <trkpt lat="44.96471" lon="6.6544">
        <ele>1852.812588</ele>
        <time>2022-09-04T15:34:19+0200</time>
      </trkpt>
      <trkpt lat="44.96468" lon="6.65447">
        <ele>1853.648241</ele>
        <time>2022-09-04T15:34:21+0200</time>
      </trkpt>
      <trkpt lat="44.96466" lon="6.65453">
        <ele>1854.57643</ele>
        <time>2022-09-04T15:34:23+0200</time>
      </trkpt>
      <trkpt lat="44.96466" lon="6.6546">
        <ele>1855.931493</ele>
        <time>2022-09-04T15:34:25+0200</time>
      </trkpt>
      <trkpt lat="44.96467" lon="6.65469">
        <ele>1856.507481</ele>
        <time>2022-09-04T15:34:28+0200</time>
      </trkpt>
      <trkpt lat="44.96466" lon="6.65477">
        <ele>1856.463133</ele>
        <time>2022-09-04T15:34:30+0200</time>
      </trkpt>
      <trkpt lat="44.96469" lon="6.65482">
        <ele>1856.90703</ele>
        <time>2022-09-04T15:34:32+0200</time>
      </trkpt>
      <trkpt lat="44.9647" lon="6.65489">
        <ele>1856.525093</ele>
        <time>2022-09-04T15:34:35+0200</time>
      </trkpt>
      <trkpt lat="44.96471" lon="6.65496">
        <ele>1855.925825</ele>
        <time>2022-09-04T15:34:38+0200</time>
      </trkpt>
      <trkpt lat="44.96473" lon="6.65503">
        <ele>1855.764525</ele>
        <time>2022-09-04T15:34:41+0200</time>
      </trkpt>
      <trkpt lat="44.96467" lon="6.65507">
        <ele>1854.179564</ele>
        <time>2022-09-04T15:34:44+0200</time>
      </trkpt>
      <trkpt lat="44.9646" lon="6.65507">
        <ele>1854.744162</ele>
        <time>2022-09-04T15:34:46+0200</time>
      </trkpt>
      <trkpt lat="44.96455" lon="6.65504">
        <ele>1856.664111</ele>
        <time>2022-09-04T15:34:48+0200</time>
      </trkpt>
      <trkpt lat="44.96453" lon="6.65496">
        <ele>1859.387259</ele>
        <time>2022-09-04T15:34:51+0200</time>
      </trkpt>
      <trkpt lat="44.96452" lon="6.65488">
        <ele>1860.787929</ele>
        <time>2022-09-04T15:34:53+0200</time>
      </trkpt>
      <trkpt lat="44.96449" lon="6.65481">
        <ele>1862.621669</ele>
        <time>2022-09-04T15:34:55+0200</time>
      </trkpt>
      <trkpt lat="44.96447" lon="6.65472">
        <ele>1864.684471</ele>
        <time>2022-09-04T15:34:58+0200</time>
      </trkpt>
      <trkpt lat="44.96444" lon="6.65464">
        <ele>1866.284184</ele>
        <time>2022-09-04T15:35:00+0200</time>
      </trkpt>
      <trkpt lat="44.96442" lon="6.65457">
        <ele>1867.46199</ele>
        <time>2022-09-04T15:35:02+0200</time>
      </trkpt>
      <trkpt lat="44.9644" lon="6.6545">
        <ele>1869.168411</ele>
        <time>2022-09-04T15:35:04+0200</time>
      </trkpt>
      <trkpt lat="44.96437" lon="6.65443">
        <ele>1870.937155</ele>
        <time>2022-09-04T15:35:06+0200</time>
      </trkpt>
      <trkpt lat="44.96438" lon="6.65433">
        <ele>1872.152076</ele>
        <time>2022-09-04T15:35:08+0200</time>
      </trkpt>
      <trkpt lat="44.96439" lon="6.65425">
        <ele>1872.948991</ele>
        <time>2022-09-04T15:35:10+0200</time>
      </trkpt>
      <trkpt lat="44.96441" lon="6.65416">
        <ele>1873.191489</ele>
        <time>2022-09-04T15:35:12+0200</time>
      </trkpt>
      <trkpt lat="44.96443" lon="6.65408">
        <ele>1873.412411</ele>
        <time>2022-09-04T15:35:14+0200</time>
      </trkpt>
      <trkpt lat="44.96444" lon="6.65401">
        <ele>1873.056467</ele>
        <time>2022-09-04T15:35:16+0200</time>
      </trkpt>
      <trkpt lat="44.96446" lon="6.65395">
        <ele>1872.941023</ele>
        <time>2022-09-04T15:35:18+0200</time>
      </trkpt>
      <trkpt lat="44.96449" lon="6.65388">
        <ele>1872.001311</ele>
        <time>2022-09-04T15:35:20+0200</time>
      </trkpt>
      <trkpt lat="44.96451" lon="6.6538">
        <ele>1871.412191</ele>
        <time>2022-09-04T15:35:22+0200</time>
      </trkpt>
      <trkpt lat="44.96455" lon="6.65372">
        <ele>1871.806292</ele>
        <time>2022-09-04T15:35:24+0200</time>
      </trkpt>
      <trkpt lat="44.9646" lon="6.65365">
        <ele>1872.044893</ele>
        <time>2022-09-04T15:35:26+0200</time>
      </trkpt>
      <trkpt lat="44.96464" lon="6.65358">
        <ele>1871.85339</ele>
        <time>2022-09-04T15:35:28+0200</time>
      </trkpt>
      <trkpt lat="44.96469" lon="6.65354">
        <ele>1871.80272</ele>
        <time>2022-09-04T15:35:30+0200</time>
      </trkpt>
      <trkpt lat="44.96472" lon="6.65348">
        <ele>1871.777244</ele>
        <time>2022-09-04T15:35:32+0200</time>
      </trkpt>
      <trkpt lat="44.96476" lon="6.65342">
        <ele>1872.005945</ele>
        <time>2022-09-04T15:35:34+0200</time>
      </trkpt>
      <trkpt lat="44.96478" lon="6.65335">
        <ele>1872.613673</ele>
        <time>2022-09-04T15:35:36+0200</time>
      </trkpt>
      <trkpt lat="44.96484" lon="6.65329">
        <ele>1873.397264</ele>
        <time>2022-09-04T15:35:38+0200</time>
      </trkpt>
      <trkpt lat="44.96487" lon="6.65323">
        <ele>1874.631187</ele>
        <time>2022-09-04T15:35:40+0200</time>
      </trkpt>
      <trkpt lat="44.96493" lon="6.65318">
        <ele>1875.124092</ele>
        <time>2022-09-04T15:35:42+0200</time>
      </trkpt>
      <trkpt lat="44.96496" lon="6.65313">
        <ele>1875.344396</ele>
        <time>2022-09-04T15:35:44+0200</time>
      </trkpt>
      <trkpt lat="44.96501" lon="6.65309">
        <ele>1875.68396</ele>
        <time>2022-09-04T15:35:46+0200</time>
      </trkpt>
      <trkpt lat="44.96504" lon="6.65301">
        <ele>1875.761292</ele>
        <time>2022-09-04T15:35:50+0200</time>
      </trkpt>
      <trkpt lat="44.96507" lon="6.65296">
        <ele>1876.539845</ele>
        <time>2022-09-04T15:35:52+0200</time>
      </trkpt>
      <trkpt lat="44.9651" lon="6.6529">
        <ele>1877.31769</ele>
        <time>2022-09-04T15:35:55+0200</time>
      </trkpt>
      <trkpt lat="44.96513" lon="6.65284">
        <ele>1877.624283</ele>
        <time>2022-09-04T15:35:57+0200</time>
      </trkpt>
      <trkpt lat="44.96517" lon="6.65277">
        <ele>1878.217849</ele>
        <time>2022-09-04T15:36:00+0200</time>
      </trkpt>
      <trkpt lat="44.96521" lon="6.65269">
        <ele>1878.688313</ele>
        <time>2022-09-04T15:36:03+0200</time>
      </trkpt>
      <trkpt lat="44.96524" lon="6.65264">
        <ele>1879.040041</ele>
        <time>2022-09-04T15:36:05+0200</time>
      </trkpt>
      <trkpt lat="44.96528" lon="6.65259">
        <ele>1879.572208</ele>
        <time>2022-09-04T15:36:07+0200</time>
      </trkpt>
      <trkpt lat="44.96532" lon="6.65254">
        <ele>1880.328794</ele>
        <time>2022-09-04T15:36:10+0200</time>
      </trkpt>
      <trkpt lat="44.96536" lon="6.65248">
        <ele>1880.349785</ele>
        <time>2022-09-04T15:36:13+0200</time>
      </trkpt>
      <trkpt lat="44.96541" lon="6.65241">
        <ele>1879.801289</ele>
        <time>2022-09-04T15:36:16+0200</time>
      </trkpt>
      <trkpt lat="44.96545" lon="6.65236">
        <ele>1879.167453</ele>
        <time>2022-09-04T15:36:18+0200</time>
      </trkpt>
      <trkpt lat="44.9655" lon="6.65229">
        <ele>1878.654174</ele>
        <time>2022-09-04T15:36:21+0200</time>
      </trkpt>
      <trkpt lat="44.96554" lon="6.65225">
        <ele>1878.423073</ele>
        <time>2022-09-04T15:36:23+0200</time>
      </trkpt>
      <trkpt lat="44.96558" lon="6.65221">
        <ele>1878.794863</ele>
        <time>2022-09-04T15:36:25+0200</time>
      </trkpt>
      <trkpt lat="44.96561" lon="6.65216">
        <ele>1878.143774</ele>
        <time>2022-09-04T15:36:27+0200</time>
      </trkpt>
      <trkpt lat="44.96563" lon="6.65208">
        <ele>1877.375618</ele>
        <time>2022-09-04T15:36:30+0200</time>
      </trkpt>
      <trkpt lat="44.96564" lon="6.652">
        <ele>1877.681929</ele>
        <time>2022-09-04T15:36:33+0200</time>
      </trkpt>
      <trkpt lat="44.96564" lon="6.6519">
        <ele>1878.822911</ele>
        <time>2022-09-04T15:36:36+0200</time>
      </trkpt>
      <trkpt lat="44.96563" lon="6.65183">
        <ele>1880.888542</ele>
        <time>2022-09-04T15:36:39+0200</time>
      </trkpt>
      <trkpt lat="44.96563" lon="6.65176">
        <ele>1883.280967</ele>
        <time>2022-09-04T15:36:42+0200</time>
      </trkpt>
      <trkpt lat="44.96563" lon="6.65169">
        <ele>1885.525767</ele>
        <time>2022-09-04T15:36:44+0200</time>
      </trkpt>
      <trkpt lat="44.96564" lon="6.65162">
        <ele>1886.459193</ele>
        <time>2022-09-04T15:36:46+0200</time>
      </trkpt>
      <trkpt lat="44.96566" lon="6.65155">
        <ele>1886.916492</ele>
        <time>2022-09-04T15:36:48+0200</time>
      </trkpt>
      <trkpt lat="44.96569" lon="6.65149">
        <ele>1886.871338</ele>
        <time>2022-09-04T15:36:50+0200</time>
      </trkpt>
      <trkpt lat="44.96572" lon="6.65143">
        <ele>1887.161429</ele>
        <time>2022-09-04T15:36:52+0200</time>
      </trkpt>
      <trkpt lat="44.96575" lon="6.65137">
        <ele>1886.639481</ele>
        <time>2022-09-04T15:36:54+0200</time>
      </trkpt>
      <trkpt lat="44.96577" lon="6.65128">
        <ele>1885.392519</ele>
        <time>2022-09-04T15:36:57+0200</time>
      </trkpt>
      <trkpt lat="44.96576" lon="6.65122">
        <ele>1885.530049</ele>
        <time>2022-09-04T15:36:59+0200</time>
      </trkpt>
      <trkpt lat="44.96573" lon="6.65118">
        <ele>1885.638781</ele>
        <time>2022-09-04T15:37:01+0200</time>
      </trkpt>
      <trkpt lat="44.96569" lon="6.65113">
        <ele>1887.043695</ele>
        <time>2022-09-04T15:37:03+0200</time>
      </trkpt>
      <trkpt lat="44.96565" lon="6.65108">
        <ele>1889.275578</ele>
        <time>2022-09-04T15:37:05+0200</time>
      </trkpt>
      <trkpt lat="44.96562" lon="6.65104">
        <ele>1890.249412</ele>
        <time>2022-09-04T15:37:07+0200</time>
      </trkpt>
      <trkpt lat="44.96559" lon="6.65098">
        <ele>1892.144081</ele>
        <time>2022-09-04T15:37:09+0200</time>
      </trkpt>
      <trkpt lat="44.96554" lon="6.6509">
        <ele>1894.231734</ele>
        <time>2022-09-04T15:37:12+0200</time>
      </trkpt>
      <trkpt lat="44.96551" lon="6.65084">
        <ele>1896.281344</ele>
        <time>2022-09-04T15:37:14+0200</time>
      </trkpt>
      <trkpt lat="44.96548" lon="6.65079">
        <ele>1898.472277</ele>
        <time>2022-09-04T15:37:16+0200</time>
      </trkpt>
      <trkpt lat="44.96545" lon="6.65072">
        <ele>1900.724589</ele>
        <time>2022-09-04T15:37:18+0200</time>
      </trkpt>
      <trkpt lat="44.96544" lon="6.65065">
        <ele>1902.068972</ele>
        <time>2022-09-04T15:37:20+0200</time>
      </trkpt>
      <trkpt lat="44.96542" lon="6.65058">
        <ele>1903.851389</ele>
        <time>2022-09-04T15:37:22+0200</time>
      </trkpt>
      <trkpt lat="44.9654" lon="6.65051">
        <ele>1905.635121</ele>
        <time>2022-09-04T15:37:24+0200</time>
      </trkpt>
      <trkpt lat="44.96538" lon="6.65044">
        <ele>1906.905753</ele>
        <time>2022-09-04T15:37:26+0200</time>
      </trkpt>
      <trkpt lat="44.96538" lon="6.65035">
        <ele>1907.724697</ele>
        <time>2022-09-04T15:37:28+0200</time>
      </trkpt>
      <trkpt lat="44.96536" lon="6.65028">
        <ele>1908.005174</ele>
        <time>2022-09-04T15:37:30+0200</time>
      </trkpt>
      <trkpt lat="44.96536" lon="6.65021">
        <ele>1907.789986</ele>
        <time>2022-09-04T15:37:32+0200</time>
      </trkpt>
      <trkpt lat="44.96536" lon="6.65012">
        <ele>1906.809026</ele>
        <time>2022-09-04T15:37:34+0200</time>
      </trkpt>
      <trkpt lat="44.96537" lon="6.65002">
        <ele>1906.184438</ele>
        <time>2022-09-04T15:37:36+0200</time>
      </trkpt>
      <trkpt lat="44.96541" lon="6.64995">
        <ele>1905.161299</ele>
        <time>2022-09-04T15:37:38+0200</time>
      </trkpt>
      <trkpt lat="44.96545" lon="6.64991">
        <ele>1904.849681</ele>
        <time>2022-09-04T15:37:39+0200</time>
      </trkpt>
      <trkpt lat="44.96551" lon="6.64984">
        <ele>1903.919517</ele>
        <time>2022-09-04T15:37:41+0200</time>
      </trkpt>
      <trkpt lat="44.96557" lon="6.64983">
        <ele>1902.207347</ele>
        <time>2022-09-04T15:37:43+0200</time>
      </trkpt>
      <trkpt lat="44.96562" lon="6.64982">
        <ele>1900.8711</ele>
        <time>2022-09-04T15:37:45+0200</time>
      </trkpt>
      <trkpt lat="44.96567" lon="6.64981">
        <ele>1899.013527</ele>
        <time>2022-09-04T15:37:47+0200</time>
      </trkpt>
      <trkpt lat="44.96574" lon="6.6498">
        <ele>1897.079582</ele>
        <time>2022-09-04T15:37:49+0200</time>
      </trkpt>
      <trkpt lat="44.9658" lon="6.64977">
        <ele>1895.10649</ele>
        <time>2022-09-04T15:37:51+0200</time>
      </trkpt>
      <trkpt lat="44.96584" lon="6.64973">
        <ele>1893.423786</ele>
        <time>2022-09-04T15:37:53+0200</time>
      </trkpt>
      <trkpt lat="44.96586" lon="6.64964">
        <ele>1891.085888</ele>
        <time>2022-09-04T15:37:56+0200</time>
      </trkpt>
      <trkpt lat="44.96584" lon="6.64956">
        <ele>1890.898016</ele>
        <time>2022-09-04T15:37:59+0200</time>
      </trkpt>
      <trkpt lat="44.96582" lon="6.64948">
        <ele>1893.15089</ele>
        <time>2022-09-04T15:38:02+0200</time>
      </trkpt>
      <trkpt lat="44.96579" lon="6.64941">
        <ele>1896.745117</ele>
        <time>2022-09-04T15:38:05+0200</time>
      </trkpt>
      <trkpt lat="44.96578" lon="6.64935">
        <ele>1899.548334</ele>
        <time>2022-09-04T15:38:07+0200</time>
      </trkpt>
      <trkpt lat="44.96577" lon="6.64928">
        <ele>1900.986348</ele>
        <time>2022-09-04T15:38:09+0200</time>
      </trkpt>
      <trkpt lat="44.96574" lon="6.64922">
        <ele>1903.893813</ele>
        <time>2022-09-04T15:38:12+0200</time>
      </trkpt>
      <trkpt lat="44.96573" lon="6.64916">
        <ele>1905.426155</ele>
        <time>2022-09-04T15:38:14+0200</time>
      </trkpt>
      <trkpt lat="44.96572" lon="6.64908">
        <ele>1906.295819</ele>
        <time>2022-09-04T15:38:17+0200</time>
      </trkpt>
      <trkpt lat="44.96571" lon="6.64901">
        <ele>1906.806498</ele>
        <time>2022-09-04T15:38:19+0200</time>
      </trkpt>
      <trkpt lat="44.96571" lon="6.64892">
        <ele>1907.438316</ele>
        <time>2022-09-04T15:38:21+0200</time>
      </trkpt>
      <trkpt lat="44.96571" lon="6.64885">
        <ele>1908.368019</ele>
        <time>2022-09-04T15:38:23+0200</time>
      </trkpt>
      <trkpt lat="44.96572" lon="6.64877">
        <ele>1909.034761</ele>
        <time>2022-09-04T15:38:25+0200</time>
      </trkpt>
      <trkpt lat="44.96573" lon="6.6487">
        <ele>1909.689313</ele>
        <time>2022-09-04T15:38:27+0200</time>
      </trkpt>
      <trkpt lat="44.96571" lon="6.64863">
        <ele>1910.631083</ele>
        <time>2022-09-04T15:38:29+0200</time>
      </trkpt>
      <trkpt lat="44.96571" lon="6.64855">
        <ele>1911.610656</ele>
        <time>2022-09-04T15:38:31+0200</time>
      </trkpt>
      <trkpt lat="44.96568" lon="6.64848">
        <ele>1913.135942</ele>
        <time>2022-09-04T15:38:33+0200</time>
      </trkpt>
      <trkpt lat="44.96566" lon="6.64843">
        <ele>1914.232389</ele>
        <time>2022-09-04T15:38:35+0200</time>
      </trkpt>
      <trkpt lat="44.96562" lon="6.64839">
        <ele>1916.22212</ele>
        <time>2022-09-04T15:38:37+0200</time>
      </trkpt>
      <trkpt lat="44.96563" lon="6.64832">
        <ele>1917.625428</ele>
        <time>2022-09-04T15:38:39+0200</time>
      </trkpt>
      <trkpt lat="44.96565" lon="6.64823">
        <ele>1918.253046</ele>
        <time>2022-09-04T15:38:42+0200</time>
      </trkpt>
      <trkpt lat="44.96568" lon="6.64817">
        <ele>1918.321271</ele>
        <time>2022-09-04T15:38:44+0200</time>
      </trkpt>
      <trkpt lat="44.96572" lon="6.64809">
        <ele>1917.414962</ele>
        <time>2022-09-04T15:38:46+0200</time>
      </trkpt>
      <trkpt lat="44.96575" lon="6.64801">
        <ele>1916.494632</ele>
        <time>2022-09-04T15:38:48+0200</time>
      </trkpt>
      <trkpt lat="44.96578" lon="6.64794">
        <ele>1916.307679</ele>
        <time>2022-09-04T15:38:50+0200</time>
      </trkpt>
      <trkpt lat="44.96581" lon="6.64785">
        <ele>1915.320041</ele>
        <time>2022-09-04T15:38:53+0200</time>
      </trkpt>
      <trkpt lat="44.96582" lon="6.64778">
        <ele>1915.442394</ele>
        <time>2022-09-04T15:38:55+0200</time>
      </trkpt>
      <trkpt lat="44.96581" lon="6.64772">
        <ele>1915.586251</ele>
        <time>2022-09-04T15:38:57+0200</time>
      </trkpt>
      <trkpt lat="44.9658" lon="6.64763">
        <ele>1917.680411</ele>
        <time>2022-09-04T15:39:00+0200</time>
      </trkpt>
      <trkpt lat="44.96577" lon="6.64758">
        <ele>1919.435776</ele>
        <time>2022-09-04T15:39:02+0200</time>
      </trkpt>
      <trkpt lat="44.96574" lon="6.6475">
        <ele>1921.540491</ele>
        <time>2022-09-04T15:39:05+0200</time>
      </trkpt>
      <trkpt lat="44.96574" lon="6.64742">
        <ele>1922.56132</ele>
        <time>2022-09-04T15:39:07+0200</time>
      </trkpt>
      <trkpt lat="44.96575" lon="6.64733">
        <ele>1923.214387</ele>
        <time>2022-09-04T15:39:10+0200</time>
      </trkpt>
      <trkpt lat="44.96577" lon="6.64726">
        <ele>1923.136889</ele>
        <time>2022-09-04T15:39:12+0200</time>
      </trkpt>
      <trkpt lat="44.96578" lon="6.64718">
        <ele>1923.32058</ele>
        <time>2022-09-04T15:39:14+0200</time>
      </trkpt>
      <trkpt lat="44.9658" lon="6.64709">
        <ele>1922.983613</ele>
        <time>2022-09-04T15:39:16+0200</time>
      </trkpt>
      <trkpt lat="44.96582" lon="6.64701">
        <ele>1922.935325</ele>
        <time>2022-09-04T15:39:18+0200</time>
      </trkpt>
      <trkpt lat="44.96584" lon="6.64691">
        <ele>1922.876936</ele>
        <time>2022-09-04T15:39:21+0200</time>
      </trkpt>
      <trkpt lat="44.96584" lon="6.64684">
        <ele>1922.691437</ele>
        <time>2022-09-04T15:39:23+0200</time>
      </trkpt>
      <trkpt lat="44.96583" lon="6.64678">
        <ele>1922.353345</ele>
        <time>2022-09-04T15:39:25+0200</time>
      </trkpt>
      <trkpt lat="44.96582" lon="6.64669">
        <ele>1922.384643</ele>
        <time>2022-09-04T15:39:28+0200</time>
      </trkpt>
      <trkpt lat="44.96579" lon="6.64661">
        <ele>1923.256455</ele>
        <time>2022-09-04T15:39:31+0200</time>
      </trkpt>
      <trkpt lat="44.96577" lon="6.64652">
        <ele>1924.501925</ele>
        <time>2022-09-04T15:39:34+0200</time>
      </trkpt>
      <trkpt lat="44.96577" lon="6.64645">
        <ele>1924.576479</ele>
        <time>2022-09-04T15:39:36+0200</time>
      </trkpt>
      <trkpt lat="44.96575" lon="6.64637">
        <ele>1925.075625</ele>
        <time>2022-09-04T15:39:38+0200</time>
      </trkpt>
      <trkpt lat="44.96572" lon="6.64629">
        <ele>1926.218814</ele>
        <time>2022-09-04T15:39:40+0200</time>
      </trkpt>
      <trkpt lat="44.96571" lon="6.64621">
        <ele>1928.716819</ele>
        <time>2022-09-04T15:39:42+0200</time>
      </trkpt>
      <trkpt lat="44.9657" lon="6.64611">
        <ele>1930.182559</ele>
        <time>2022-09-04T15:39:45+0200</time>
      </trkpt>
      <trkpt lat="44.96573" lon="6.64606">
        <ele>1930.629786</ele>
        <time>2022-09-04T15:39:46+0200</time>
      </trkpt>
      <trkpt lat="44.96576" lon="6.64599">
        <ele>1930.746464</ele>
        <time>2022-09-04T15:39:48+0200</time>
      </trkpt>
      <trkpt lat="44.9658" lon="6.64591">
        <ele>1930.275005</ele>
        <time>2022-09-04T15:39:50+0200</time>
      </trkpt>
      <trkpt lat="44.96584" lon="6.64585">
        <ele>1929.54077</ele>
        <time>2022-09-04T15:39:52+0200</time>
      </trkpt>
      <trkpt lat="44.9659" lon="6.64578">
        <ele>1928.748132</ele>
        <time>2022-09-04T15:39:54+0200</time>
      </trkpt>
      <trkpt lat="44.96594" lon="6.64572">
        <ele>1927.918382</ele>
        <time>2022-09-04T15:39:56+0200</time>
      </trkpt>
      <trkpt lat="44.96598" lon="6.64567">
        <ele>1927.795334</ele>
        <time>2022-09-04T15:39:57+0200</time>
      </trkpt>
      <trkpt lat="44.96601" lon="6.6456">
        <ele>1927.009295</ele>
        <time>2022-09-04T15:39:59+0200</time>
      </trkpt>
      <trkpt lat="44.96604" lon="6.64553">
        <ele>1927.115764</ele>
        <time>2022-09-04T15:40:01+0200</time>
      </trkpt>
      <trkpt lat="44.96607" lon="6.64547">
        <ele>1927.690745</ele>
        <time>2022-09-04T15:40:03+0200</time>
      </trkpt>
      <trkpt lat="44.96609" lon="6.6454">
        <ele>1928.732741</ele>
        <time>2022-09-04T15:40:05+0200</time>
      </trkpt>
      <trkpt lat="44.96614" lon="6.64532">
        <ele>1929.114783</ele>
        <time>2022-09-04T15:40:07+0200</time>
      </trkpt>
      <trkpt lat="44.96618" lon="6.64526">
        <ele>1930.088169</ele>
        <time>2022-09-04T15:40:09+0200</time>
      </trkpt>
      <trkpt lat="44.9662" lon="6.6452">
        <ele>1930.312167</ele>
        <time>2022-09-04T15:40:11+0200</time>
      </trkpt>
      <trkpt lat="44.9662" lon="6.64513">
        <ele>1930.226949</ele>
        <time>2022-09-04T15:40:13+0200</time>
      </trkpt>
      <trkpt lat="44.96622" lon="6.64505">
        <ele>1929.974999</ele>
        <time>2022-09-04T15:40:15+0200</time>
      </trkpt>
      <trkpt lat="44.96623" lon="6.64498">
        <ele>1930.128351</ele>
        <time>2022-09-04T15:40:17+0200</time>
      </trkpt>
      <trkpt lat="44.96623" lon="6.64489">
        <ele>1932.125316</ele>
        <time>2022-09-04T15:40:20+0200</time>
      </trkpt>
      <trkpt lat="44.96623" lon="6.64482">
        <ele>1933.581011</ele>
        <time>2022-09-04T15:40:22+0200</time>
      </trkpt>
      <trkpt lat="44.96623" lon="6.64476">
        <ele>1934.330883</ele>
        <time>2022-09-04T15:40:24+0200</time>
      </trkpt>
      <trkpt lat="44.96625" lon="6.64468">
        <ele>1935.795866</ele>
        <time>2022-09-04T15:40:27+0200</time>
      </trkpt>
      <trkpt lat="44.96624" lon="6.64459">
        <ele>1936.890766</ele>
        <time>2022-09-04T15:40:30+0200</time>
      </trkpt>
      <trkpt lat="44.96622" lon="6.6445">
        <ele>1939.031696</ele>
        <time>2022-09-04T15:40:33+0200</time>
      </trkpt>
      <trkpt lat="44.96623" lon="6.64443">
        <ele>1939.31074</ele>
        <time>2022-09-04T15:40:35+0200</time>
      </trkpt>
      <trkpt lat="44.96623" lon="6.64437">
        <ele>1939.647169</ele>
        <time>2022-09-04T15:40:37+0200</time>
      </trkpt>
      <trkpt lat="44.96624" lon="6.64429">
        <ele>1940.304851</ele>
        <time>2022-09-04T15:40:39+0200</time>
      </trkpt>
      <trkpt lat="44.96625" lon="6.64422">
        <ele>1941.387453</ele>
        <time>2022-09-04T15:40:41+0200</time>
      </trkpt>
      <trkpt lat="44.96627" lon="6.64414">
        <ele>1941.274153</ele>
        <time>2022-09-04T15:40:43+0200</time>
      </trkpt>
      <trkpt lat="44.96629" lon="6.64407">
        <ele>1940.840328</ele>
        <time>2022-09-04T15:40:45+0200</time>
      </trkpt>
      <trkpt lat="44.96631" lon="6.644">
        <ele>1940.590734</ele>
        <time>2022-09-04T15:40:47+0200</time>
      </trkpt>
      <trkpt lat="44.96634" lon="6.64392">
        <ele>1940.101127</ele>
        <time>2022-09-04T15:40:50+0200</time>
      </trkpt>
      <trkpt lat="44.96639" lon="6.64385">
        <ele>1938.440004</ele>
        <time>2022-09-04T15:40:52+0200</time>
      </trkpt>
      <trkpt lat="44.96641" lon="6.64379">
        <ele>1938.350557</ele>
        <time>2022-09-04T15:40:54+0200</time>
      </trkpt>
      <trkpt lat="44.96641" lon="6.64373">
        <ele>1938.718008</ele>
        <time>2022-09-04T15:40:56+0200</time>
      </trkpt>
      <trkpt lat="44.96641" lon="6.64365">
        <ele>1939.514019</ele>
        <time>2022-09-04T15:40:59+0200</time>
      </trkpt>
      <trkpt lat="44.9664" lon="6.64357">
        <ele>1942.210587</ele>
        <time>2022-09-04T15:41:02+0200</time>
      </trkpt>
      <trkpt lat="44.96638" lon="6.6435">
        <ele>1944.701196</ele>
        <time>2022-09-04T15:41:05+0200</time>
      </trkpt>
      <trkpt lat="44.96637" lon="6.64343">
        <ele>1945.806627</ele>
        <time>2022-09-04T15:41:08+0200</time>
      </trkpt>
      <trkpt lat="44.96633" lon="6.64336">
        <ele>1946.561497</ele>
        <time>2022-09-04T15:41:12+0200</time>
      </trkpt>
      <trkpt lat="44.9663" lon="6.64331">
        <ele>1947.270875</ele>
        <time>2022-09-04T15:41:16+0200</time>
      </trkpt>
      <trkpt lat="44.96629" lon="6.64322">
        <ele>1947.480205</ele>
        <time>2022-09-04T15:41:19+0200</time>
      </trkpt>
      <trkpt lat="44.96628" lon="6.64316">
        <ele>1948.429324</ele>
        <time>2022-09-04T15:41:22+0200</time>
      </trkpt>
      <trkpt lat="44.96626" lon="6.64308">
        <ele>1948.953945</ele>
        <time>2022-09-04T15:41:25+0200</time>
      </trkpt>
      <trkpt lat="44.96624" lon="6.64301">
        <ele>1950.664193</ele>
        <time>2022-09-04T15:41:29+0200</time>
      </trkpt>
      <trkpt lat="44.96619" lon="6.64295">
        <ele>1951.388657</ele>
        <time>2022-09-04T15:41:33+0200</time>
      </trkpt>
      <trkpt lat="44.96615" lon="6.6429">
        <ele>1951.853431</ele>
        <time>2022-09-04T15:41:37+0200</time>
      </trkpt>
      <trkpt lat="44.96609" lon="6.64285">
        <ele>1952.769364</ele>
        <time>2022-09-04T15:41:41+0200</time>
      </trkpt>
      <trkpt lat="44.96605" lon="6.6428">
        <ele>1953.453367</ele>
        <time>2022-09-04T15:41:45+0200</time>
      </trkpt>
      <trkpt lat="44.96603" lon="6.64273">
        <ele>1954.608281</ele>
        <time>2022-09-04T15:41:48+0200</time>
      </trkpt>
      <trkpt lat="44.96601" lon="6.64267">
        <ele>1956.416827</ele>
        <time>2022-09-04T15:41:51+0200</time>
      </trkpt>
      <trkpt lat="44.966" lon="6.64259">
        <ele>1958.273295</ele>
        <time>2022-09-04T15:41:54+0200</time>
      </trkpt>
      <trkpt lat="44.96601" lon="6.64251">
        <ele>1958.147871</ele>
        <time>2022-09-04T15:41:57+0200</time>
      </trkpt>
      <trkpt lat="44.96601" lon="6.64243">
        <ele>1958.99515</ele>
        <time>2022-09-04T15:42:00+0200</time>
      </trkpt>
      <trkpt lat="44.96601" lon="6.64236">
        <ele>1959.002928</ele>
        <time>2022-09-04T15:42:02+0200</time>
      </trkpt>
      <trkpt lat="44.96603" lon="6.6423">
        <ele>1958.958584</ele>
        <time>2022-09-04T15:42:04+0200</time>
      </trkpt>
      <trkpt lat="44.96605" lon="6.64222">
        <ele>1958.721839</ele>
        <time>2022-09-04T15:42:07+0200</time>
      </trkpt>
      <trkpt lat="44.96607" lon="6.64215">
        <ele>1958.39735</ele>
        <time>2022-09-04T15:42:09+0200</time>
      </trkpt>
      <trkpt lat="44.96611" lon="6.64209">
        <ele>1958.274772</ele>
        <time>2022-09-04T15:42:11+0200</time>
      </trkpt>
      <trkpt lat="44.96613" lon="6.64204">
        <ele>1957.759553</ele>
        <time>2022-09-04T15:42:13+0200</time>
      </trkpt>
      <trkpt lat="44.96617" lon="6.64197">
        <ele>1957.139745</ele>
        <time>2022-09-04T15:42:16+0200</time>
      </trkpt>
      <trkpt lat="44.96619" lon="6.64189">
        <ele>1956.881112</ele>
        <time>2022-09-04T15:42:19+0200</time>
      </trkpt>
      <trkpt lat="44.96619" lon="6.6418">
        <ele>1957.138246</ele>
        <time>2022-09-04T15:42:22+0200</time>
      </trkpt>
      <trkpt lat="44.96617" lon="6.64171">
        <ele>1957.818488</ele>
        <time>2022-09-04T15:42:25+0200</time>
      </trkpt>
      <trkpt lat="44.96615" lon="6.64165">
        <ele>1958.671357</ele>
        <time>2022-09-04T15:42:27+0200</time>
      </trkpt>
      <trkpt lat="44.96613" lon="6.64159">
        <ele>1959.908589</ele>
        <time>2022-09-04T15:42:29+0200</time>
      </trkpt>
      <trkpt lat="44.96608" lon="6.64151">
        <ele>1962.420292</ele>
        <time>2022-09-04T15:42:32+0200</time>
      </trkpt>
      <trkpt lat="44.96604" lon="6.64144">
        <ele>1964.015324</ele>
        <time>2022-09-04T15:42:34+0200</time>
      </trkpt>
      <trkpt lat="44.96604" lon="6.64135">
        <ele>1965.443743</ele>
        <time>2022-09-04T15:42:36+0200</time>
      </trkpt>
      <trkpt lat="44.96604" lon="6.64126">
        <ele>1965.808259</ele>
        <time>2022-09-04T15:42:38+0200</time>
      </trkpt>
      <trkpt lat="44.96606" lon="6.64118">
        <ele>1965.558282</ele>
        <time>2022-09-04T15:42:40+0200</time>
      </trkpt>
      <trkpt lat="44.96606" lon="6.64108">
        <ele>1965.670063</ele>
        <time>2022-09-04T15:42:42+0200</time>
      </trkpt>
      <trkpt lat="44.96606" lon="6.64098">
        <ele>1965.383417</ele>
        <time>2022-09-04T15:42:44+0200</time>
      </trkpt>
      <trkpt lat="44.96607" lon="6.6409">
        <ele>1964.908656</ele>
        <time>2022-09-04T15:42:46+0200</time>
      </trkpt>
      <trkpt lat="44.96607" lon="6.6408">
        <ele>1964.84564</ele>
        <time>2022-09-04T15:42:48+0200</time>
      </trkpt>
      <trkpt lat="44.96608" lon="6.64069">
        <ele>1964.638211</ele>
        <time>2022-09-04T15:42:50+0200</time>
      </trkpt>
      <trkpt lat="44.96608" lon="6.6406">
        <ele>1964.920363</ele>
        <time>2022-09-04T15:42:52+0200</time>
      </trkpt>
      <trkpt lat="44.96607" lon="6.64052">
        <ele>1964.765645</ele>
        <time>2022-09-04T15:42:54+0200</time>
      </trkpt>
      <trkpt lat="44.96605" lon="6.64043">
        <ele>1965.267605</ele>
        <time>2022-09-04T15:42:56+0200</time>
      </trkpt>
      <trkpt lat="44.96603" lon="6.64034">
        <ele>1965.692581</ele>
        <time>2022-09-04T15:42:58+0200</time>
      </trkpt>
      <trkpt lat="44.96598" lon="6.64024">
        <ele>1965.939586</ele>
        <time>2022-09-04T15:43:00+0200</time>
      </trkpt>
      <trkpt lat="44.96596" lon="6.64012">
        <ele>1966.472932</ele>
        <time>2022-09-04T15:43:02+0200</time>
      </trkpt>
      <trkpt lat="44.96595" lon="6.64">
        <ele>1967.006685</ele>
        <time>2022-09-04T15:43:04+0200</time>
      </trkpt>
      <trkpt lat="44.96598" lon="6.63988">
        <ele>1966.529939</ele>
        <time>2022-09-04T15:43:06+0200</time>
      </trkpt>
      <trkpt lat="44.96603" lon="6.63983">
        <ele>1965.998846</ele>
        <time>2022-09-04T15:43:07+0200</time>
      </trkpt>
      <trkpt lat="44.96608" lon="6.63981">
        <ele>1965.071014</ele>
        <time>2022-09-04T15:43:08+0200</time>
      </trkpt>
      <trkpt lat="44.96613" lon="6.6398">
        <ele>1964.951666</ele>
        <time>2022-09-04T15:43:09+0200</time>
      </trkpt>
      <trkpt lat="44.9662" lon="6.63973">
        <ele>1963.84011</ele>
        <time>2022-09-04T15:43:11+0200</time>
      </trkpt>
      <trkpt lat="44.96622" lon="6.63963">
        <ele>1962.582182</ele>
        <time>2022-09-04T15:43:13+0200</time>
      </trkpt>
      <trkpt lat="44.96621" lon="6.63957">
        <ele>1962.5664</ele>
        <time>2022-09-04T15:43:14+0200</time>
      </trkpt>
      <trkpt lat="44.96621" lon="6.63945">
        <ele>1962.187678</ele>
        <time>2022-09-04T15:43:16+0200</time>
      </trkpt>
      <trkpt lat="44.96618" lon="6.63934">
        <ele>1962.318676</ele>
        <time>2022-09-04T15:43:18+0200</time>
      </trkpt>
      <trkpt lat="44.96616" lon="6.63922">
        <ele>1962.454045</ele>
        <time>2022-09-04T15:43:20+0200</time>
      </trkpt>
      <trkpt lat="44.96614" lon="6.63915">
        <ele>1962.618237</ele>
        <time>2022-09-04T15:43:21+0200</time>
      </trkpt>
      <trkpt lat="44.96612" lon="6.63904">
        <ele>1962.748187</ele>
        <time>2022-09-04T15:43:23+0200</time>
      </trkpt>
      <trkpt lat="44.96609" lon="6.63895">
        <ele>1962.7655</ele>
        <time>2022-09-04T15:43:25+0200</time>
      </trkpt>
      <trkpt lat="44.96604" lon="6.63885">
        <ele>1963.51255</ele>
        <time>2022-09-04T15:43:27+0200</time>
      </trkpt>
      <trkpt lat="44.96601" lon="6.63875">
        <ele>1964.303703</ele>
        <time>2022-09-04T15:43:29+0200</time>
      </trkpt>
      <trkpt lat="44.96597" lon="6.63866">
        <ele>1965.01318</ele>
        <time>2022-09-04T15:43:31+0200</time>
      </trkpt>
      <trkpt lat="44.96593" lon="6.63858">
        <ele>1965.869725</ele>
        <time>2022-09-04T15:43:33+0200</time>
      </trkpt>
      <trkpt lat="44.96589" lon="6.6385">
        <ele>1966.551825</ele>
        <time>2022-09-04T15:43:35+0200</time>
      </trkpt>
      <trkpt lat="44.96585" lon="6.63841">
        <ele>1967.086116</ele>
        <time>2022-09-04T15:43:37+0200</time>
      </trkpt>
      <trkpt lat="44.9658" lon="6.63833">
        <ele>1967.68636</ele>
        <time>2022-09-04T15:43:39+0200</time>
      </trkpt>
      <trkpt lat="44.96575" lon="6.63828">
        <ele>1968.222024</ele>
        <time>2022-09-04T15:43:41+0200</time>
      </trkpt>
      <trkpt lat="44.96569" lon="6.6382">
        <ele>1968.996193</ele>
        <time>2022-09-04T15:43:43+0200</time>
      </trkpt>
      <trkpt lat="44.96566" lon="6.63811">
        <ele>1970.574299</ele>
        <time>2022-09-04T15:43:45+0200</time>
      </trkpt>
      <trkpt lat="44.96566" lon="6.63802">
        <ele>1972.347146</ele>
        <time>2022-09-04T15:43:47+0200</time>
      </trkpt>
      <trkpt lat="44.96567" lon="6.63795">
        <ele>1972.994077</ele>
        <time>2022-09-04T15:43:49+0200</time>
      </trkpt>
      <trkpt lat="44.96567" lon="6.63788">
        <ele>1973.085129</ele>
        <time>2022-09-04T15:43:51+0200</time>
      </trkpt>
      <trkpt lat="44.96566" lon="6.63782">
        <ele>1973.592076</ele>
        <time>2022-09-04T15:43:53+0200</time>
      </trkpt>
      <trkpt lat="44.96563" lon="6.63775">
        <ele>1975.095545</ele>
        <time>2022-09-04T15:43:56+0200</time>
      </trkpt>
      <trkpt lat="44.96562" lon="6.63766">
        <ele>1976.142912</ele>
        <time>2022-09-04T15:43:59+0200</time>
      </trkpt>
      <trkpt lat="44.96563" lon="6.63758">
        <ele>1975.679335</ele>
        <time>2022-09-04T15:44:02+0200</time>
      </trkpt>
      <trkpt lat="44.96564" lon="6.6375">
        <ele>1975.501337</ele>
        <time>2022-09-04T15:44:04+0200</time>
      </trkpt>
      <trkpt lat="44.96563" lon="6.63742">
        <ele>1974.931299</ele>
        <time>2022-09-04T15:44:07+0200</time>
      </trkpt>
      <trkpt lat="44.96565" lon="6.63735">
        <ele>1974.768995</ele>
        <time>2022-09-04T15:44:09+0200</time>
      </trkpt>
      <trkpt lat="44.96566" lon="6.63728">
        <ele>1974.866148</ele>
        <time>2022-09-04T15:44:11+0200</time>
      </trkpt>
      <trkpt lat="44.96568" lon="6.63722">
        <ele>1975.284623</ele>
        <time>2022-09-04T15:44:13+0200</time>
      </trkpt>
      <trkpt lat="44.96572" lon="6.63715">
        <ele>1975.461443</ele>
        <time>2022-09-04T15:44:15+0200</time>
      </trkpt>
      <trkpt lat="44.96573" lon="6.63708">
        <ele>1976.24624</ele>
        <time>2022-09-04T15:44:17+0200</time>
      </trkpt>
      <trkpt lat="44.96576" lon="6.63703">
        <ele>1976.871317</ele>
        <time>2022-09-04T15:44:19+0200</time>
      </trkpt>
      <trkpt lat="44.96579" lon="6.63695">
        <ele>1976.91635</ele>
        <time>2022-09-04T15:44:21+0200</time>
      </trkpt>
      <trkpt lat="44.96581" lon="6.63689">
        <ele>1976.532891</ele>
        <time>2022-09-04T15:44:23+0200</time>
      </trkpt>
      <trkpt lat="44.96583" lon="6.63683">
        <ele>1975.7258</ele>
        <time>2022-09-04T15:44:25+0200</time>
      </trkpt>
      <trkpt lat="44.96585" lon="6.63675">
        <ele>1975.111599</ele>
        <time>2022-09-04T15:44:27+0200</time>
      </trkpt>
      <trkpt lat="44.96586" lon="6.63667">
        <ele>1974.908183</ele>
        <time>2022-09-04T15:44:29+0200</time>
      </trkpt>
      <trkpt lat="44.96585" lon="6.63659">
        <ele>1975.029019</ele>
        <time>2022-09-04T15:44:32+0200</time>
      </trkpt>
      <trkpt lat="44.96587" lon="6.63652">
        <ele>1975.701419</ele>
        <time>2022-09-04T15:44:34+0200</time>
      </trkpt>
      <trkpt lat="44.96587" lon="6.63644">
        <ele>1977.401825</ele>
        <time>2022-09-04T15:44:37+0200</time>
      </trkpt>
      <trkpt lat="44.96592" lon="6.63638">
        <ele>1978.713256</ele>
        <time>2022-09-04T15:44:40+0200</time>
      </trkpt>
      <trkpt lat="44.96596" lon="6.63635">
        <ele>1978.987559</ele>
        <time>2022-09-04T15:44:41+0200</time>
      </trkpt>
      <trkpt lat="44.966" lon="6.63632">
        <ele>1979.410442</ele>
        <time>2022-09-04T15:44:42+0200</time>
      </trkpt>
      <trkpt lat="44.96603" lon="6.63624">
        <ele>1979.231709</ele>
        <time>2022-09-04T15:44:45+0200</time>
      </trkpt>
      <trkpt lat="44.96606" lon="6.63616">
        <ele>1979.8676</ele>
        <time>2022-09-04T15:44:48+0200</time>
      </trkpt>
      <trkpt lat="44.9661" lon="6.63607">
        <ele>1979.068405</ele>
        <time>2022-09-04T15:44:51+0200</time>
      </trkpt>
      <trkpt lat="44.96614" lon="6.63599">
        <ele>1978.329637</ele>
        <time>2022-09-04T15:44:53+0200</time>
      </trkpt>
      <trkpt lat="44.96616" lon="6.63593">
        <ele>1978.101776</ele>
        <time>2022-09-04T15:44:55+0200</time>
      </trkpt>
      <trkpt lat="44.96617" lon="6.63587">
        <ele>1978.451191</ele>
        <time>2022-09-04T15:44:57+0200</time>
      </trkpt>
      <trkpt lat="44.96618" lon="6.63578">
        <ele>1980.061067</ele>
        <time>2022-09-04T15:45:00+0200</time>
      </trkpt>
      <trkpt lat="44.96619" lon="6.6357">
        <ele>1981.838076</ele>
        <time>2022-09-04T15:45:03+0200</time>
      </trkpt>
      <trkpt lat="44.96618" lon="6.63562">
        <ele>1982.610926</ele>
        <time>2022-09-04T15:45:05+0200</time>
      </trkpt>
      <trkpt lat="44.96617" lon="6.63553">
        <ele>1984.235671</ele>
        <time>2022-09-04T15:45:08+0200</time>
      </trkpt>
      <trkpt lat="44.96619" lon="6.63547">
        <ele>1985.504674</ele>
        <time>2022-09-04T15:45:10+0200</time>
      </trkpt>
      <trkpt lat="44.96623" lon="6.6354">
        <ele>1985.528367</ele>
        <time>2022-09-04T15:45:12+0200</time>
      </trkpt>
      <trkpt lat="44.96625" lon="6.63533">
        <ele>1984.969821</ele>
        <time>2022-09-04T15:45:14+0200</time>
      </trkpt>
      <trkpt lat="44.96629" lon="6.63525">
        <ele>1984.548564</ele>
        <time>2022-09-04T15:45:16+0200</time>
      </trkpt>
      <trkpt lat="44.96633" lon="6.63521">
        <ele>1984.320052</ele>
        <time>2022-09-04T15:45:18+0200</time>
      </trkpt>
      <trkpt lat="44.96636" lon="6.63515">
        <ele>1983.571643</ele>
        <time>2022-09-04T15:45:20+0200</time>
      </trkpt>
      <trkpt lat="44.96639" lon="6.63509">
        <ele>1983.839526</ele>
        <time>2022-09-04T15:45:22+0200</time>
      </trkpt>
      <trkpt lat="44.96642" lon="6.63503">
        <ele>1984.335845</ele>
        <time>2022-09-04T15:45:24+0200</time>
      </trkpt>
      <trkpt lat="44.96643" lon="6.63495">
        <ele>1984.847305</ele>
        <time>2022-09-04T15:45:27+0200</time>
      </trkpt>
      <trkpt lat="44.96646" lon="6.63487">
        <ele>1985.273039</ele>
        <time>2022-09-04T15:45:30+0200</time>
      </trkpt>
      <trkpt lat="44.96648" lon="6.63481">
        <ele>1985.103221</ele>
        <time>2022-09-04T15:45:32+0200</time>
      </trkpt>
      <trkpt lat="44.96649" lon="6.63473">
        <ele>1985.54954</ele>
        <time>2022-09-04T15:45:35+0200</time>
      </trkpt>
      <trkpt lat="44.96651" lon="6.63466">
        <ele>1984.709226</ele>
        <time>2022-09-04T15:45:38+0200</time>
      </trkpt>
      <trkpt lat="44.96652" lon="6.63458">
        <ele>1985.907916</ele>
        <time>2022-09-04T15:45:41+0200</time>
      </trkpt>
      <trkpt lat="44.96652" lon="6.6345">
        <ele>1987.144543</ele>
        <time>2022-09-04T15:45:44+0200</time>
      </trkpt>
      <trkpt lat="44.96653" lon="6.63441">
        <ele>1989.04591</ele>
        <time>2022-09-04T15:45:47+0200</time>
      </trkpt>
      <trkpt lat="44.96656" lon="6.63433">
        <ele>1989.149633</ele>
        <time>2022-09-04T15:45:50+0200</time>
      </trkpt>
      <trkpt lat="44.9666" lon="6.63427">
        <ele>1989.186504</ele>
        <time>2022-09-04T15:45:52+0200</time>
      </trkpt>
      <trkpt lat="44.96665" lon="6.63423">
        <ele>1989.650899</ele>
        <time>2022-09-04T15:45:54+0200</time>
      </trkpt>
      <trkpt lat="44.9667" lon="6.63421">
        <ele>1989.131438</ele>
        <time>2022-09-04T15:45:56+0200</time>
      </trkpt>
      <trkpt lat="44.96674" lon="6.63416">
        <ele>1988.979039</ele>
        <time>2022-09-04T15:45:58+0200</time>
      </trkpt>
      <trkpt lat="44.96676" lon="6.63409">
        <ele>1988.769892</ele>
        <time>2022-09-04T15:46:00+0200</time>
      </trkpt>
      <trkpt lat="44.96677" lon="6.63401">
        <ele>1989.546976</ele>
        <time>2022-09-04T15:46:03+0200</time>
      </trkpt>
      <trkpt lat="44.96678" lon="6.63392">
        <ele>1990.880086</ele>
        <time>2022-09-04T15:46:06+0200</time>
      </trkpt>
      <trkpt lat="44.96681" lon="6.63384">
        <ele>1992.165303</ele>
        <time>2022-09-04T15:46:08+0200</time>
      </trkpt>
      <trkpt lat="44.96683" lon="6.63379">
        <ele>1992.31316</ele>
        <time>2022-09-04T15:46:10+0200</time>
      </trkpt>
      <trkpt lat="44.96687" lon="6.63373">
        <ele>1993.334665</ele>
        <time>2022-09-04T15:46:13+0200</time>
      </trkpt>
      <trkpt lat="44.96689" lon="6.63367">
        <ele>1993.814605</ele>
        <time>2022-09-04T15:46:15+0200</time>
      </trkpt>
      <trkpt lat="44.96691" lon="6.63361">
        <ele>1994.097015</ele>
        <time>2022-09-04T15:46:17+0200</time>
      </trkpt>
      <trkpt lat="44.96694" lon="6.63355">
        <ele>1994.42006</ele>
        <time>2022-09-04T15:46:19+0200</time>
      </trkpt>
      <trkpt lat="44.96697" lon="6.63348">
        <ele>1993.876043</ele>
        <time>2022-09-04T15:46:21+0200</time>
      </trkpt>
      <trkpt lat="44.967" lon="6.63343">
        <ele>1994.829237</ele>
        <time>2022-09-04T15:46:23+0200</time>
      </trkpt>
      <trkpt lat="44.96703" lon="6.63339">
        <ele>1996.230856</ele>
        <time>2022-09-04T15:46:25+0200</time>
      </trkpt>
      <trkpt lat="44.96708" lon="6.63333">
        <ele>1997.047824</ele>
        <time>2022-09-04T15:46:27+0200</time>
      </trkpt>
      <trkpt lat="44.96712" lon="6.63329">
        <ele>1998.274025</ele>
        <time>2022-09-04T15:46:29+0200</time>
      </trkpt>
      <trkpt lat="44.96719" lon="6.6333">
        <ele>1998.467505</ele>
        <time>2022-09-04T15:46:31+0200</time>
      </trkpt>
      <trkpt lat="44.96726" lon="6.63333">
        <ele>1999.957938</ele>
        <time>2022-09-04T15:46:33+0200</time>
      </trkpt>
      <trkpt lat="44.96728" lon="6.63342">
        <ele>2001.866358</ele>
        <time>2022-09-04T15:46:35+0200</time>
      </trkpt>
      <trkpt lat="44.96728" lon="6.63353">
        <ele>2003.126225</ele>
        <time>2022-09-04T15:46:37+0200</time>
      </trkpt>
      <trkpt lat="44.96727" lon="6.63361">
        <ele>2003.158651</ele>
        <time>2022-09-04T15:46:39+0200</time>
      </trkpt>
      <trkpt lat="44.96727" lon="6.6337">
        <ele>2002.541623</ele>
        <time>2022-09-04T15:46:41+0200</time>
      </trkpt>
      <trkpt lat="44.96727" lon="6.63376">
        <ele>2002.872086</ele>
        <time>2022-09-04T15:46:43+0200</time>
      </trkpt>
      <trkpt lat="44.96728" lon="6.63384">
        <ele>2003.149694</ele>
        <time>2022-09-04T15:46:45+0200</time>
      </trkpt>
      <trkpt lat="44.96728" lon="6.6339">
        <ele>2003.601241</ele>
        <time>2022-09-04T15:46:47+0200</time>
      </trkpt>
      <trkpt lat="44.9673" lon="6.63399">
        <ele>2004.1411</ele>
        <time>2022-09-04T15:46:50+0200</time>
      </trkpt>
      <trkpt lat="44.9673" lon="6.63406">
        <ele>2005.072758</ele>
        <time>2022-09-04T15:46:52+0200</time>
      </trkpt>
      <trkpt lat="44.96731" lon="6.63415">
        <ele>2006.414655</ele>
        <time>2022-09-04T15:46:55+0200</time>
      </trkpt>
      <trkpt lat="44.96731" lon="6.63424">
        <ele>2007.93521</ele>
        <time>2022-09-04T15:46:58+0200</time>
      </trkpt>
      <trkpt lat="44.96729" lon="6.63432">
        <ele>2008.590032</ele>
        <time>2022-09-04T15:47:01+0200</time>
      </trkpt>
      <trkpt lat="44.9673" lon="6.63439">
        <ele>2008.278635</ele>
        <time>2022-09-04T15:47:04+0200</time>
      </trkpt>
      <trkpt lat="44.96731" lon="6.63447">
        <ele>2008.142362</ele>
        <time>2022-09-04T15:47:07+0200</time>
      </trkpt>
      <trkpt lat="44.96734" lon="6.63454">
        <ele>2009.210764</ele>
        <time>2022-09-04T15:47:10+0200</time>
      </trkpt>
      <trkpt lat="44.96736" lon="6.63461">
        <ele>2009.369744</ele>
        <time>2022-09-04T15:47:13+0200</time>
      </trkpt>
      <trkpt lat="44.96738" lon="6.63468">
        <ele>2008.290213</ele>
        <time>2022-09-04T15:47:16+0200</time>
      </trkpt>
      <trkpt lat="44.96739" lon="6.63475">
        <ele>2007.379317</ele>
        <time>2022-09-04T15:47:19+0200</time>
      </trkpt>
      <trkpt lat="44.96741" lon="6.63481">
        <ele>2006.99059</ele>
        <time>2022-09-04T15:47:22+0200</time>
      </trkpt>
      <trkpt lat="44.96742" lon="6.6349">
        <ele>2006.544694</ele>
        <time>2022-09-04T15:47:25+0200</time>
      </trkpt>
      <trkpt lat="44.96747" lon="6.63496">
        <ele>2006.248698</ele>
        <time>2022-09-04T15:47:28+0200</time>
      </trkpt>
      <trkpt lat="44.96749" lon="6.63502">
        <ele>2006.910506</ele>
        <time>2022-09-04T15:47:30+0200</time>
      </trkpt>
      <trkpt lat="44.96752" lon="6.6351">
        <ele>2008.625504</ele>
        <time>2022-09-04T15:47:33+0200</time>
      </trkpt>
      <trkpt lat="44.96756" lon="6.63517">
        <ele>2010.790866</ele>
        <time>2022-09-04T15:47:36+0200</time>
      </trkpt>
      <trkpt lat="44.9676" lon="6.63524">
        <ele>2013.618187</ele>
        <time>2022-09-04T15:47:39+0200</time>
      </trkpt>
      <trkpt lat="44.96763" lon="6.63532">
        <ele>2014.931909</ele>
        <time>2022-09-04T15:47:42+0200</time>
      </trkpt>
      <trkpt lat="44.96766" lon="6.63538">
        <ele>2015.401368</ele>
        <time>2022-09-04T15:47:45+0200</time>
      </trkpt>
      <trkpt lat="44.96769" lon="6.63546">
        <ele>2016.656696</ele>
        <time>2022-09-04T15:47:48+0200</time>
      </trkpt>
      <trkpt lat="44.9677" lon="6.63552">
        <ele>2016.811807</ele>
        <time>2022-09-04T15:47:51+0200</time>
      </trkpt>
      <trkpt lat="44.9677" lon="6.63559">
        <ele>2015.419149</ele>
        <time>2022-09-04T15:47:55+0200</time>
      </trkpt>
      <trkpt lat="44.96772" lon="6.63566">
        <ele>2014.4371</ele>
        <time>2022-09-04T15:47:58+0200</time>
      </trkpt>
      <trkpt lat="44.96774" lon="6.63572">
        <ele>2014.635555</ele>
        <time>2022-09-04T15:48:00+0200</time>
      </trkpt>
      <trkpt lat="44.96778" lon="6.6358">
        <ele>2015.647199</ele>
        <time>2022-09-04T15:48:03+0200</time>
      </trkpt>
      <trkpt lat="44.9678" lon="6.63585">
        <ele>2017.299338</ele>
        <time>2022-09-04T15:48:06+0200</time>
      </trkpt>
      <trkpt lat="44.96783" lon="6.63592">
        <ele>2018.474773</ele>
        <time>2022-09-04T15:48:08+0200</time>
      </trkpt>
      <trkpt lat="44.96785" lon="6.63597">
        <ele>2019.209704</ele>
        <time>2022-09-04T15:48:10+0200</time>
      </trkpt>
      <trkpt lat="44.96786" lon="6.63605">
        <ele>2020.017342</ele>
        <time>2022-09-04T15:48:13+0200</time>
      </trkpt>
      <trkpt lat="44.96788" lon="6.63613">
        <ele>2021.721447</ele>
        <time>2022-09-04T15:48:17+0200</time>
      </trkpt>
      <trkpt lat="44.96791" lon="6.63621">
        <ele>2022.801883</ele>
        <time>2022-09-04T15:48:20+0200</time>
      </trkpt>
      <trkpt lat="44.96794" lon="6.6363">
        <ele>2023.76179</ele>
        <time>2022-09-04T15:48:23+0200</time>
      </trkpt>
      <trkpt lat="44.96792" lon="6.63638">
        <ele>2023.881536</ele>
        <time>2022-09-04T15:48:25+0200</time>
      </trkpt>
      <trkpt lat="44.96792" lon="6.63647">
        <ele>2024.366347</ele>
        <time>2022-09-04T15:48:28+0200</time>
      </trkpt>
      <trkpt lat="44.96792" lon="6.63655">
        <ele>2023.908041</ele>
        <time>2022-09-04T15:48:31+0200</time>
      </trkpt>
      <trkpt lat="44.96792" lon="6.63661">
        <ele>2024.126585</ele>
        <time>2022-09-04T15:48:34+0200</time>
      </trkpt>
      <trkpt lat="44.96794" lon="6.63667">
        <ele>2024.217992</ele>
        <time>2022-09-04T15:48:36+0200</time>
      </trkpt>
      <trkpt lat="44.96796" lon="6.63676">
        <ele>2024.219205</ele>
        <time>2022-09-04T15:48:39+0200</time>
      </trkpt>
      <trkpt lat="44.96799" lon="6.63683">
        <ele>2025.077434</ele>
        <time>2022-09-04T15:48:42+0200</time>
      </trkpt>
      <trkpt lat="44.968" lon="6.63691">
        <ele>2026.082406</ele>
        <time>2022-09-04T15:48:45+0200</time>
      </trkpt>
      <trkpt lat="44.96801" lon="6.63698">
        <ele>2027.127282</ele>
        <time>2022-09-04T15:48:48+0200</time>
      </trkpt>
      <trkpt lat="44.96801" lon="6.63705">
        <ele>2028.318403</ele>
        <time>2022-09-04T15:48:51+0200</time>
      </trkpt>
      <trkpt lat="44.968" lon="6.63712">
        <ele>2029.078452</ele>
        <time>2022-09-04T15:48:54+0200</time>
      </trkpt>
      <trkpt lat="44.96801" lon="6.63721">
        <ele>2030.395457</ele>
        <time>2022-09-04T15:48:58+0200</time>
      </trkpt>
      <trkpt lat="44.96806" lon="6.63723">
        <ele>2032.85446</ele>
        <time>2022-09-04T15:49:02+0200</time>
      </trkpt>
      <trkpt lat="44.9681" lon="6.63721">
        <ele>2033.701632</ele>
        <time>2022-09-04T15:49:06+0200</time>
      </trkpt>
      <trkpt lat="44.96811" lon="6.63714">
        <ele>2034.350802</ele>
        <time>2022-09-04T15:49:09+0200</time>
      </trkpt>
      <trkpt lat="44.96813" lon="6.63706">
        <ele>2034.852219</ele>
        <time>2022-09-04T15:49:12+0200</time>
      </trkpt>
      <trkpt lat="44.96814" lon="6.63698">
        <ele>2035.081778</ele>
        <time>2022-09-04T15:49:15+0200</time>
      </trkpt>
      <trkpt lat="44.96816" lon="6.6369">
        <ele>2034.91751</ele>
        <time>2022-09-04T15:49:19+0200</time>
      </trkpt>
      <trkpt lat="44.96819" lon="6.63684">
        <ele>2034.890831</ele>
        <time>2022-09-04T15:49:22+0200</time>
      </trkpt>
      <trkpt lat="44.96821" lon="6.63676">
        <ele>2035.548416</ele>
        <time>2022-09-04T15:49:25+0200</time>
      </trkpt>
      <trkpt lat="44.96823" lon="6.63668">
        <ele>2036.38576</ele>
        <time>2022-09-04T15:49:28+0200</time>
      </trkpt>
      <trkpt lat="44.96826" lon="6.63661">
        <ele>2036.596164</ele>
        <time>2022-09-04T15:49:31+0200</time>
      </trkpt>
      <trkpt lat="44.96828" lon="6.63653">
        <ele>2037.728618</ele>
        <time>2022-09-04T15:49:34+0200</time>
      </trkpt>
      <trkpt lat="44.9683" lon="6.63647">
        <ele>2038.094337</ele>
        <time>2022-09-04T15:49:37+0200</time>
      </trkpt>
      <trkpt lat="44.96832" lon="6.63638">
        <ele>2039.024631</ele>
        <time>2022-09-04T15:49:40+0200</time>
      </trkpt>
      <trkpt lat="44.96833" lon="6.6363">
        <ele>2040.112898</ele>
        <time>2022-09-04T15:49:43+0200</time>
      </trkpt>
      <trkpt lat="44.96834" lon="6.63621">
        <ele>2041.110593</ele>
        <time>2022-09-04T15:49:46+0200</time>
      </trkpt>
      <trkpt lat="44.96835" lon="6.63613">
        <ele>2041.743677</ele>
        <time>2022-09-04T15:49:49+0200</time>
      </trkpt>
      <trkpt lat="44.96835" lon="6.63605">
        <ele>2041.902562</ele>
        <time>2022-09-04T15:49:53+0200</time>
      </trkpt>
      <trkpt lat="44.96835" lon="6.63596">
        <ele>2043.079606</ele>
        <time>2022-09-04T15:49:56+0200</time>
      </trkpt>
      <trkpt lat="44.96835" lon="6.63589">
        <ele>2043.628347</ele>
        <time>2022-09-04T15:49:59+0200</time>
      </trkpt>
      <trkpt lat="44.96836" lon="6.63582">
        <ele>2043.251734</ele>
        <time>2022-09-04T15:50:02+0200</time>
      </trkpt>
      <trkpt lat="44.96835" lon="6.63574">
        <ele>2043.402441</ele>
        <time>2022-09-04T15:50:05+0200</time>
      </trkpt>
      <trkpt lat="44.96834" lon="6.63568">
        <ele>2043.254358</ele>
        <time>2022-09-04T15:50:08+0200</time>
      </trkpt>
      <trkpt lat="44.96833" lon="6.63561">
        <ele>2042.723737</ele>
        <time>2022-09-04T15:50:11+0200</time>
      </trkpt>
      <trkpt lat="44.96831" lon="6.63553">
        <ele>2042.428999</ele>
        <time>2022-09-04T15:50:14+0200</time>
      </trkpt>
      <trkpt lat="44.96829" lon="6.63545">
        <ele>2042.429496</ele>
        <time>2022-09-04T15:50:17+0200</time>
      </trkpt>
      <trkpt lat="44.96828" lon="6.63538">
        <ele>2043.334982</ele>
        <time>2022-09-04T15:50:20+0200</time>
      </trkpt>
      <trkpt lat="44.96828" lon="6.63531">
        <ele>2044.252559</ele>
        <time>2022-09-04T15:50:23+0200</time>
      </trkpt>
      <trkpt lat="44.96828" lon="6.63524">
        <ele>2045.164566</ele>
        <time>2022-09-04T15:50:25+0200</time>
      </trkpt>
      <trkpt lat="44.96827" lon="6.63517">
        <ele>2045.785206</ele>
        <time>2022-09-04T15:50:28+0200</time>
      </trkpt>
      <trkpt lat="44.96826" lon="6.63509">
        <ele>2046.616045</ele>
        <time>2022-09-04T15:50:31+0200</time>
      </trkpt>
      <trkpt lat="44.96825" lon="6.63501">
        <ele>2047.068945</ele>
        <time>2022-09-04T15:50:34+0200</time>
      </trkpt>
      <trkpt lat="44.96825" lon="6.63495">
        <ele>2047.541853</ele>
        <time>2022-09-04T15:50:36+0200</time>
      </trkpt>
      <trkpt lat="44.96826" lon="6.63487">
        <ele>2047.179959</ele>
        <time>2022-09-04T15:50:39+0200</time>
      </trkpt>
      <trkpt lat="44.96828" lon="6.63481">
        <ele>2047.162484</ele>
        <time>2022-09-04T15:50:41+0200</time>
      </trkpt>
      <trkpt lat="44.9683" lon="6.63475">
        <ele>2048.254932</ele>
        <time>2022-09-04T15:50:44+0200</time>
      </trkpt>
      <trkpt lat="44.9683" lon="6.63467">
        <ele>2049.978401</ele>
        <time>2022-09-04T15:50:47+0200</time>
      </trkpt>
      <trkpt lat="44.96831" lon="6.63459">
        <ele>2051.261443</ele>
        <time>2022-09-04T15:50:50+0200</time>
      </trkpt>
      <trkpt lat="44.96832" lon="6.63451">
        <ele>2052.237393</ele>
        <time>2022-09-04T15:50:53+0200</time>
      </trkpt>
      <trkpt lat="44.96834" lon="6.63443">
        <ele>2053.610497</ele>
        <time>2022-09-04T15:50:57+0200</time>
      </trkpt>
      <trkpt lat="44.96837" lon="6.63436">
        <ele>2053.72481</ele>
        <time>2022-09-04T15:51:01+0200</time>
      </trkpt>
      <trkpt lat="44.96838" lon="6.6343">
        <ele>2054.900408</ele>
        <time>2022-09-04T15:51:04+0200</time>
      </trkpt>
      <trkpt lat="44.9684" lon="6.63423">
        <ele>2055.4965</ele>
        <time>2022-09-04T15:51:07+0200</time>
      </trkpt>
      <trkpt lat="44.96842" lon="6.63415">
        <ele>2055.503462</ele>
        <time>2022-09-04T15:51:10+0200</time>
      </trkpt>
      <trkpt lat="44.96844" lon="6.63408">
        <ele>2055.62194</ele>
        <time>2022-09-04T15:51:13+0200</time>
      </trkpt>
      <trkpt lat="44.96846" lon="6.634">
        <ele>2055.834857</ele>
        <time>2022-09-04T15:51:16+0200</time>
      </trkpt>
      <trkpt lat="44.96848" lon="6.63394">
        <ele>2056.487743</ele>
        <time>2022-09-04T15:51:18+0200</time>
      </trkpt>
      <trkpt lat="44.96848" lon="6.63387">
        <ele>2057.365669</ele>
        <time>2022-09-04T15:51:21+0200</time>
      </trkpt>
      <trkpt lat="44.9685" lon="6.63381">
        <ele>2057.576341</ele>
        <time>2022-09-04T15:51:23+0200</time>
      </trkpt>
      <trkpt lat="44.9685" lon="6.63372">
        <ele>2058.54045</ele>
        <time>2022-09-04T15:51:26+0200</time>
      </trkpt>
      <trkpt lat="44.9685" lon="6.63366">
        <ele>2059.043608</ele>
        <time>2022-09-04T15:51:29+0200</time>
      </trkpt>
      <trkpt lat="44.9685" lon="6.63359">
        <ele>2059.299881</ele>
        <time>2022-09-04T15:51:31+0200</time>
      </trkpt>
      <trkpt lat="44.96851" lon="6.63352">
        <ele>2060.613492</ele>
        <time>2022-09-04T15:51:34+0200</time>
      </trkpt>
      <trkpt lat="44.96853" lon="6.63345">
        <ele>2060.347488</ele>
        <time>2022-09-04T15:51:36+0200</time>
      </trkpt>
      <trkpt lat="44.96854" lon="6.63338">
        <ele>2059.696066</ele>
        <time>2022-09-04T15:51:39+0200</time>
      </trkpt>
      <trkpt lat="44.96855" lon="6.6333">
        <ele>2059.583677</ele>
        <time>2022-09-04T15:51:42+0200</time>
      </trkpt>
      <trkpt lat="44.96858" lon="6.63324">
        <ele>2059.194294</ele>
        <time>2022-09-04T15:51:45+0200</time>
      </trkpt>
      <trkpt lat="44.96861" lon="6.63316">
        <ele>2059.260379</ele>
        <time>2022-09-04T15:51:48+0200</time>
      </trkpt>
      <trkpt lat="44.96863" lon="6.63309">
        <ele>2060.908946</ele>
        <time>2022-09-04T15:51:51+0200</time>
      </trkpt>
      <trkpt lat="44.96866" lon="6.63301">
        <ele>2061.607918</ele>
        <time>2022-09-04T15:51:54+0200</time>
      </trkpt>
      <trkpt lat="44.96867" lon="6.63294">
        <ele>2063.240401</ele>
        <time>2022-09-04T15:51:57+0200</time>
      </trkpt>
      <trkpt lat="44.96869" lon="6.63286">
        <ele>2064.315991</ele>
        <time>2022-09-04T15:52:00+0200</time>
      </trkpt>
      <trkpt lat="44.96871" lon="6.63279">
        <ele>2064.216498</ele>
        <time>2022-09-04T15:52:03+0200</time>
      </trkpt>
      <trkpt lat="44.96873" lon="6.63272">
        <ele>2063.422369</ele>
        <time>2022-09-04T15:52:06+0200</time>
      </trkpt>
      <trkpt lat="44.96876" lon="6.63265">
        <ele>2063.034337</ele>
        <time>2022-09-04T15:52:09+0200</time>
      </trkpt>
      <trkpt lat="44.96879" lon="6.63257">
        <ele>2063.615901</ele>
        <time>2022-09-04T15:52:12+0200</time>
      </trkpt>
      <trkpt lat="44.96883" lon="6.6325">
        <ele>2062.989833</ele>
        <time>2022-09-04T15:52:15+0200</time>
      </trkpt>
      <trkpt lat="44.96888" lon="6.63246">
        <ele>2063.736666</ele>
        <time>2022-09-04T15:52:18+0200</time>
      </trkpt>
      <trkpt lat="44.9689" lon="6.6324">
        <ele>2065.256532</ele>
        <time>2022-09-04T15:52:21+0200</time>
      </trkpt>
      <trkpt lat="44.96894" lon="6.63234">
        <ele>2066.574755</ele>
        <time>2022-09-04T15:52:25+0200</time>
      </trkpt>
      <trkpt lat="44.96896" lon="6.63227">
        <ele>2067.91749</ele>
        <time>2022-09-04T15:52:28+0200</time>
      </trkpt>
      <trkpt lat="44.969" lon="6.63223">
        <ele>2068.573104</ele>
        <time>2022-09-04T15:52:30+0200</time>
      </trkpt>
      <trkpt lat="44.96902" lon="6.63216">
        <ele>2069.034091</ele>
        <time>2022-09-04T15:52:34+0200</time>
      </trkpt>
      <trkpt lat="44.96907" lon="6.63214">
        <ele>2069.14285</ele>
        <time>2022-09-04T15:52:36+0200</time>
      </trkpt>
      <trkpt lat="44.96911" lon="6.63209">
        <ele>2068.938278</ele>
        <time>2022-09-04T15:52:38+0200</time>
      </trkpt>
      <trkpt lat="44.96915" lon="6.63204">
        <ele>2068.277307</ele>
        <time>2022-09-04T15:52:41+0200</time>
      </trkpt>
      <trkpt lat="44.96919" lon="6.63198">
        <ele>2069.783194</ele>
        <time>2022-09-04T15:52:44+0200</time>
      </trkpt>
      <trkpt lat="44.96922" lon="6.63191">
        <ele>2071.444418</ele>
        <time>2022-09-04T15:52:47+0200</time>
      </trkpt>
      <trkpt lat="44.96925" lon="6.63186">
        <ele>2072.97383</ele>
        <time>2022-09-04T15:52:50+0200</time>
      </trkpt>
      <trkpt lat="44.96928" lon="6.63179">
        <ele>2074.746502</ele>
        <time>2022-09-04T15:52:53+0200</time>
      </trkpt>
      <trkpt lat="44.96933" lon="6.63174">
        <ele>2075.149325</ele>
        <time>2022-09-04T15:52:56+0200</time>
      </trkpt>
      <trkpt lat="44.96934" lon="6.63166">
        <ele>2076.218133</ele>
        <time>2022-09-04T15:52:59+0200</time>
      </trkpt>
      <trkpt lat="44.96936" lon="6.63161">
        <ele>2076.911451</ele>
        <time>2022-09-04T15:53:02+0200</time>
      </trkpt>
      <trkpt lat="44.96942" lon="6.63158">
        <ele>2077.808897</ele>
        <time>2022-09-04T15:53:06+0200</time>
      </trkpt>
      <trkpt lat="44.96948" lon="6.63161">
        <ele>2078.796217</ele>
        <time>2022-09-04T15:53:09+0200</time>
      </trkpt>
      <trkpt lat="44.9695" lon="6.63169">
        <ele>2081.159394</ele>
        <time>2022-09-04T15:53:12+0200</time>
      </trkpt>
      <trkpt lat="44.9695" lon="6.63179">
        <ele>2082.105611</ele>
        <time>2022-09-04T15:53:15+0200</time>
      </trkpt>
      <trkpt lat="44.96949" lon="6.63188">
        <ele>2082.736435</ele>
        <time>2022-09-04T15:53:18+0200</time>
      </trkpt>
      <trkpt lat="44.96947" lon="6.63195">
        <ele>2083.311098</ele>
        <time>2022-09-04T15:53:21+0200</time>
      </trkpt>
      <trkpt lat="44.96946" lon="6.63204">
        <ele>2084.418015</ele>
        <time>2022-09-04T15:53:24+0200</time>
      </trkpt>
      <trkpt lat="44.96945" lon="6.63213">
        <ele>2084.959215</ele>
        <time>2022-09-04T15:53:27+0200</time>
      </trkpt>
      <trkpt lat="44.96945" lon="6.63219">
        <ele>2085.339295</ele>
        <time>2022-09-04T15:53:30+0200</time>
      </trkpt>
      <trkpt lat="44.96947" lon="6.63227">
        <ele>2085.024163</ele>
        <time>2022-09-04T15:53:34+0200</time>
      </trkpt>
      <trkpt lat="44.96948" lon="6.63233">
        <ele>2085.145592</ele>
        <time>2022-09-04T15:53:37+0200</time>
      </trkpt>
      <trkpt lat="44.9695" lon="6.63241">
        <ele>2087.050098</ele>
        <time>2022-09-04T15:53:41+0200</time>
      </trkpt>
      <trkpt lat="44.9695" lon="6.63248">
        <ele>2086.644425</ele>
        <time>2022-09-04T15:53:44+0200</time>
      </trkpt>
      <trkpt lat="44.96951" lon="6.63254">
        <ele>2086.761349</ele>
        <time>2022-09-04T15:53:47+0200</time>
      </trkpt>
      <trkpt lat="44.96953" lon="6.63263">
        <ele>2087.392119</ele>
        <time>2022-09-04T15:53:51+0200</time>
      </trkpt>
      <trkpt lat="44.96953" lon="6.63271">
        <ele>2087.600622</ele>
        <time>2022-09-04T15:53:54+0200</time>
      </trkpt>
      <trkpt lat="44.96955" lon="6.63277">
        <ele>2088.547972</ele>
        <time>2022-09-04T15:53:57+0200</time>
      </trkpt>
      <trkpt lat="44.96958" lon="6.63286">
        <ele>2090.237281</ele>
        <time>2022-09-04T15:54:01+0200</time>
      </trkpt>
      <trkpt lat="44.96961" lon="6.63293">
        <ele>2089.524136</ele>
        <time>2022-09-04T15:54:03+0200</time>
      </trkpt>
      <trkpt lat="44.96963" lon="6.63302">
        <ele>2089.496366</ele>
        <time>2022-09-04T15:54:06+0200</time>
      </trkpt>
      <trkpt lat="44.96965" lon="6.63309">
        <ele>2091.102212</ele>
        <time>2022-09-04T15:54:09+0200</time>
      </trkpt>
      <trkpt lat="44.96968" lon="6.63316">
        <ele>2092.186952</ele>
        <time>2022-09-04T15:54:12+0200</time>
      </trkpt>
      <trkpt lat="44.96972" lon="6.63323">
        <ele>2092.594284</ele>
        <time>2022-09-04T15:54:15+0200</time>
      </trkpt>
      <trkpt lat="44.96975" lon="6.63331">
        <ele>2092.535493</ele>
        <time>2022-09-04T15:54:18+0200</time>
      </trkpt>
      <trkpt lat="44.96979" lon="6.63337">
        <ele>2092.531175</ele>
        <time>2022-09-04T15:54:21+0200</time>
      </trkpt>
      <trkpt lat="44.96984" lon="6.63339">
        <ele>2093.686495</ele>
        <time>2022-09-04T15:54:25+0200</time>
      </trkpt>
      <trkpt lat="44.96988" lon="6.6334">
        <ele>2095.857992</ele>
        <time>2022-09-04T15:54:28+0200</time>
      </trkpt>
      <trkpt lat="44.96994" lon="6.63338">
        <ele>2096.461953</ele>
        <time>2022-09-04T15:54:31+0200</time>
      </trkpt>
      <trkpt lat="44.96998" lon="6.63335">
        <ele>2098.143915</ele>
        <time>2022-09-04T15:54:34+0200</time>
      </trkpt>
      <trkpt lat="44.97004" lon="6.63336">
        <ele>2100.837949</ele>
        <time>2022-09-04T15:54:38+0200</time>
      </trkpt>
      <trkpt lat="44.97007" lon="6.63332">
        <ele>2101.875855</ele>
        <time>2022-09-04T15:54:41+0200</time>
      </trkpt>
      <trkpt lat="44.97008" lon="6.63324">
        <ele>2103.209757</ele>
        <time>2022-09-04T15:54:46+0200</time>
      </trkpt>
      <trkpt lat="44.97005" lon="6.63319">
        <ele>2103.714332</ele>
        <time>2022-09-04T15:54:49+0200</time>
      </trkpt>
      <trkpt lat="44.97003" lon="6.63312">
        <ele>2104.166678</ele>
        <time>2022-09-04T15:54:52+0200</time>
      </trkpt>
      <trkpt lat="44.97002" lon="6.63305">
        <ele>2104.303355</ele>
        <time>2022-09-04T15:54:56+0200</time>
      </trkpt>
      <trkpt lat="44.97004" lon="6.63297">
        <ele>2103.987753</ele>
        <time>2022-09-04T15:54:59+0200</time>
      </trkpt>
      <trkpt lat="44.97006" lon="6.63289">
        <ele>2103.371638</ele>
        <time>2022-09-04T15:55:03+0200</time>
      </trkpt>
      <trkpt lat="44.97009" lon="6.63285">
        <ele>2102.79958</ele>
        <time>2022-09-04T15:55:05+0200</time>
      </trkpt>
      <trkpt lat="44.97013" lon="6.63277">
        <ele>2103.375058</ele>
        <time>2022-09-04T15:55:08+0200</time>
      </trkpt>
      <trkpt lat="44.97017" lon="6.63271">
        <ele>2104.28354</ele>
        <time>2022-09-04T15:55:12+0200</time>
      </trkpt>
      <trkpt lat="44.97022" lon="6.63266">
        <ele>2105.014185</ele>
        <time>2022-09-04T15:55:15+0200</time>
      </trkpt>
      <trkpt lat="44.97027" lon="6.6326">
        <ele>2106.151532</ele>
        <time>2022-09-04T15:55:18+0200</time>
      </trkpt>
      <trkpt lat="44.97031" lon="6.63256">
        <ele>2106.925505</ele>
        <time>2022-09-04T15:55:21+0200</time>
      </trkpt>
      <trkpt lat="44.97034" lon="6.63251">
        <ele>2108.217533</ele>
        <time>2022-09-04T15:55:24+0200</time>
      </trkpt>
      <trkpt lat="44.97038" lon="6.63247">
        <ele>2109.10668</ele>
        <time>2022-09-04T15:55:27+0200</time>
      </trkpt>
      <trkpt lat="44.97041" lon="6.63241">
        <ele>2109.795658</ele>
        <time>2022-09-04T15:55:30+0200</time>
      </trkpt>
      <trkpt lat="44.97045" lon="6.63236">
        <ele>2111.02222</ele>
        <time>2022-09-04T15:55:33+0200</time>
      </trkpt>
      <trkpt lat="44.97049" lon="6.63231">
        <ele>2112.071203</ele>
        <time>2022-09-04T15:55:37+0200</time>
      </trkpt>
      <trkpt lat="44.97053" lon="6.63225">
        <ele>2112.691917</ele>
        <time>2022-09-04T15:55:41+0200</time>
      </trkpt>
      <trkpt lat="44.97056" lon="6.6322">
        <ele>2113.316089</ele>
        <time>2022-09-04T15:55:44+0200</time>
      </trkpt>
      <trkpt lat="44.9706" lon="6.63215">
        <ele>2113.627842</ele>
        <time>2022-09-04T15:55:47+0200</time>
      </trkpt>
      <trkpt lat="44.97063" lon="6.63209">
        <ele>2114.535076</ele>
        <time>2022-09-04T15:55:50+0200</time>
      </trkpt>
      <trkpt lat="44.97066" lon="6.63202">
        <ele>2115.532874</ele>
        <time>2022-09-04T15:55:53+0200</time>
      </trkpt>
      <trkpt lat="44.97069" lon="6.63196">
        <ele>2116.745331</ele>
        <time>2022-09-04T15:55:57+0200</time>
      </trkpt>
      <trkpt lat="44.97074" lon="6.63193">
        <ele>2116.724373</ele>
        <time>2022-09-04T15:56:00+0200</time>
      </trkpt>
      <trkpt lat="44.97079" lon="6.6319">
        <ele>2116.94158</ele>
        <time>2022-09-04T15:56:03+0200</time>
      </trkpt>
      <trkpt lat="44.97075" lon="6.63192">
        <ele>2118.870217</ele>
        <time>2022-09-04T15:56:16+0200</time>
      </trkpt>
      <trkpt lat="44.97077" lon="6.63198">
        <ele>2119.039251</ele>
        <time>2022-09-04T15:56:47+0200</time>
      </trkpt>
      <trkpt lat="44.97082" lon="6.63194">
        <ele>2118.51183</ele>
        <time>2022-09-04T15:56:56+0200</time>
      </trkpt>
      <trkpt lat="44.97084" lon="6.63186">
        <ele>2119.315109</ele>
        <time>2022-09-04T15:56:59+0200</time>
      </trkpt>
      <trkpt lat="44.97088" lon="6.63178">
        <ele>2119.828943</ele>
        <time>2022-09-04T15:57:02+0200</time>
      </trkpt>
      <trkpt lat="44.97089" lon="6.63172">
        <ele>2120.782157</ele>
        <time>2022-09-04T15:57:04+0200</time>
      </trkpt>
      <trkpt lat="44.97091" lon="6.63165">
        <ele>2122.073661</ele>
        <time>2022-09-04T15:57:07+0200</time>
      </trkpt>
      <trkpt lat="44.97093" lon="6.63158">
        <ele>2122.839827</ele>
        <time>2022-09-04T15:57:10+0200</time>
      </trkpt>
      <trkpt lat="44.97096" lon="6.63151">
        <ele>2123.642493</ele>
        <time>2022-09-04T15:57:13+0200</time>
      </trkpt>
      <trkpt lat="44.971" lon="6.63145">
        <ele>2123.525343</ele>
        <time>2022-09-04T15:57:16+0200</time>
      </trkpt>
      <trkpt lat="44.97103" lon="6.63139">
        <ele>2123.51804</ele>
        <time>2022-09-04T15:57:19+0200</time>
      </trkpt>
      <trkpt lat="44.97105" lon="6.63131">
        <ele>2123.806214</ele>
        <time>2022-09-04T15:57:22+0200</time>
      </trkpt>
      <trkpt lat="44.97107" lon="6.63124">
        <ele>2124.322991</ele>
        <time>2022-09-04T15:57:25+0200</time>
      </trkpt>
      <trkpt lat="44.97108" lon="6.63115">
        <ele>2124.882338</ele>
        <time>2022-09-04T15:57:28+0200</time>
      </trkpt>
      <trkpt lat="44.97111" lon="6.63109">
        <ele>2125.206477</ele>
        <time>2022-09-04T15:57:31+0200</time>
      </trkpt>
      <trkpt lat="44.97116" lon="6.63103">
        <ele>2125.901498</ele>
        <time>2022-09-04T15:57:34+0200</time>
      </trkpt>
      <trkpt lat="44.9712" lon="6.63097">
        <ele>2126.66891</ele>
        <time>2022-09-04T15:57:37+0200</time>
      </trkpt>
      <trkpt lat="44.97125" lon="6.63091">
        <ele>2127.618238</ele>
        <time>2022-09-04T15:57:40+0200</time>
      </trkpt>
      <trkpt lat="44.97129" lon="6.63086">
        <ele>2128.369093</ele>
        <time>2022-09-04T15:57:43+0200</time>
      </trkpt>
      <trkpt lat="44.97133" lon="6.6308">
        <ele>2128.935634</ele>
        <time>2022-09-04T15:57:46+0200</time>
      </trkpt>
      <trkpt lat="44.97136" lon="6.63076">
        <ele>2128.73282</ele>
        <time>2022-09-04T15:57:48+0200</time>
      </trkpt>
      <trkpt lat="44.97141" lon="6.63072">
        <ele>2128.851027</ele>
        <time>2022-09-04T15:57:51+0200</time>
      </trkpt>
      <trkpt lat="44.97145" lon="6.63067">
        <ele>2129.577122</ele>
        <time>2022-09-04T15:57:54+0200</time>
      </trkpt>
      <trkpt lat="44.97149" lon="6.63062">
        <ele>2130.974299</ele>
        <time>2022-09-04T15:57:57+0200</time>
      </trkpt>
      <trkpt lat="44.97152" lon="6.63056">
        <ele>2132.342704</ele>
        <time>2022-09-04T15:58:00+0200</time>
      </trkpt>
      <trkpt lat="44.97156" lon="6.6305">
        <ele>2132.839074</ele>
        <time>2022-09-04T15:58:03+0200</time>
      </trkpt>
      <trkpt lat="44.97158" lon="6.63045">
        <ele>2133.022515</ele>
        <time>2022-09-04T15:58:05+0200</time>
      </trkpt>
      <trkpt lat="44.97161" lon="6.63038">
        <ele>2134.070057</ele>
        <time>2022-09-04T15:58:08+0200</time>
      </trkpt>
      <trkpt lat="44.97164" lon="6.63031">
        <ele>2134.891117</ele>
        <time>2022-09-04T15:58:11+0200</time>
      </trkpt>
      <trkpt lat="44.97168" lon="6.63027">
        <ele>2135.488672</ele>
        <time>2022-09-04T15:58:13+0200</time>
      </trkpt>
      <trkpt lat="44.9717" lon="6.6302">
        <ele>2136.809442</ele>
        <time>2022-09-04T15:58:16+0200</time>
      </trkpt>
      <trkpt lat="44.97174" lon="6.63014">
        <ele>2137.468667</ele>
        <time>2022-09-04T15:58:19+0200</time>
      </trkpt>
      <trkpt lat="44.97177" lon="6.63007">
        <ele>2138.751658</ele>
        <time>2022-09-04T15:58:22+0200</time>
      </trkpt>
      <trkpt lat="44.97179" lon="6.63001">
        <ele>2139.52296</ele>
        <time>2022-09-04T15:58:25+0200</time>
      </trkpt>
      <trkpt lat="44.97181" lon="6.62994">
        <ele>2139.759991</ele>
        <time>2022-09-04T15:58:28+0200</time>
      </trkpt>
      <trkpt lat="44.97183" lon="6.62987">
        <ele>2140.517691</ele>
        <time>2022-09-04T15:58:31+0200</time>
      </trkpt>
      <trkpt lat="44.97183" lon="6.62981">
        <ele>2140.705675</ele>
        <time>2022-09-04T15:58:34+0200</time>
      </trkpt>
      <trkpt lat="44.97183" lon="6.62973">
        <ele>2140.877063</ele>
        <time>2022-09-04T15:58:37+0200</time>
      </trkpt>
      <trkpt lat="44.97183" lon="6.62966">
        <ele>2141.230328</ele>
        <time>2022-09-04T15:58:40+0200</time>
      </trkpt>
      <trkpt lat="44.97184" lon="6.62958">
        <ele>2140.993002</ele>
        <time>2022-09-04T15:58:43+0200</time>
      </trkpt>
      <trkpt lat="44.97186" lon="6.62951">
        <ele>2141.145642</ele>
        <time>2022-09-04T15:58:46+0200</time>
      </trkpt>
      <trkpt lat="44.97188" lon="6.62943">
        <ele>2141.238427</ele>
        <time>2022-09-04T15:58:49+0200</time>
      </trkpt>
      <trkpt lat="44.97192" lon="6.62936">
        <ele>2141.106498</ele>
        <time>2022-09-04T15:58:52+0200</time>
      </trkpt>
      <trkpt lat="44.97195" lon="6.62932">
        <ele>2141.846636</ele>
        <time>2022-09-04T15:58:54+0200</time>
      </trkpt>
      <trkpt lat="44.97196" lon="6.62924">
        <ele>2142.890822</ele>
        <time>2022-09-04T15:58:57+0200</time>
      </trkpt>
      <trkpt lat="44.97198" lon="6.62918">
        <ele>2143.490541</ele>
        <time>2022-09-04T15:59:00+0200</time>
      </trkpt>
      <trkpt lat="44.972" lon="6.62911">
        <ele>2145.00491</ele>
        <time>2022-09-04T15:59:03+0200</time>
      </trkpt>
      <trkpt lat="44.97201" lon="6.62903">
        <ele>2146.15423</ele>
        <time>2022-09-04T15:59:06+0200</time>
      </trkpt>
      <trkpt lat="44.97203" lon="6.62895">
        <ele>2146.835952</ele>
        <time>2022-09-04T15:59:09+0200</time>
      </trkpt>
      <trkpt lat="44.97204" lon="6.62887">
        <ele>2147.537418</ele>
        <time>2022-09-04T15:59:12+0200</time>
      </trkpt>
      <trkpt lat="44.97203" lon="6.6288">
        <ele>2148.454171</ele>
        <time>2022-09-04T15:59:15+0200</time>
      </trkpt>
      <trkpt lat="44.97201" lon="6.62872">
        <ele>2149.626709</ele>
        <time>2022-09-04T15:59:18+0200</time>
      </trkpt>
      <trkpt lat="44.97204" lon="6.62864">
        <ele>2149.947217</ele>
        <time>2022-09-04T15:59:21+0200</time>
      </trkpt>
      <trkpt lat="44.97206" lon="6.62857">
        <ele>2150.043786</ele>
        <time>2022-09-04T15:59:24+0200</time>
      </trkpt>
      <trkpt lat="44.97211" lon="6.62851">
        <ele>2150.572685</ele>
        <time>2022-09-04T15:59:27+0200</time>
      </trkpt>
      <trkpt lat="44.97215" lon="6.62846">
        <ele>2151.409438</ele>
        <time>2022-09-04T15:59:30+0200</time>
      </trkpt>
      <trkpt lat="44.97217" lon="6.62839">
        <ele>2152.439669</ele>
        <time>2022-09-04T15:59:33+0200</time>
      </trkpt>
      <trkpt lat="44.97217" lon="6.62832">
        <ele>2153.789872</ele>
        <time>2022-09-04T15:59:36+0200</time>
      </trkpt>
      <trkpt lat="44.97216" lon="6.62826">
        <ele>2154.658873</ele>
        <time>2022-09-04T15:59:39+0200</time>
      </trkpt>
      <trkpt lat="44.97216" lon="6.62818">
        <ele>2155.296383</ele>
        <time>2022-09-04T15:59:43+0200</time>
      </trkpt>
      <trkpt lat="44.97218" lon="6.6281">
        <ele>2155.369224</ele>
        <time>2022-09-04T15:59:46+0200</time>
      </trkpt>
      <trkpt lat="44.97221" lon="6.62803">
        <ele>2156.19855</ele>
        <time>2022-09-04T15:59:49+0200</time>
      </trkpt>
      <trkpt lat="44.97224" lon="6.62796">
        <ele>2156.866781</ele>
        <time>2022-09-04T15:59:52+0200</time>
      </trkpt>
      <trkpt lat="44.97224" lon="6.62787">
        <ele>2157.690686</ele>
        <time>2022-09-04T15:59:55+0200</time>
      </trkpt>
      <trkpt lat="44.97225" lon="6.62779">
        <ele>2159.048697</ele>
        <time>2022-09-04T15:59:58+0200</time>
      </trkpt>
      <trkpt lat="44.97225" lon="6.62771">
        <ele>2160.433366</ele>
        <time>2022-09-04T16:00:01+0200</time>
      </trkpt>
      <trkpt lat="44.97226" lon="6.62762">
        <ele>2161.28737</ele>
        <time>2022-09-04T16:00:04+0200</time>
      </trkpt>
      <trkpt lat="44.97225" lon="6.62755">
        <ele>2161.867444</ele>
        <time>2022-09-04T16:00:07+0200</time>
      </trkpt>
      <trkpt lat="44.97226" lon="6.62748">
        <ele>2161.913305</ele>
        <time>2022-09-04T16:00:10+0200</time>
      </trkpt>
      <trkpt lat="44.97226" lon="6.62741">
        <ele>2162.325557</ele>
        <time>2022-09-04T16:00:13+0200</time>
      </trkpt>
      <trkpt lat="44.97226" lon="6.62732">
        <ele>2162.655087</ele>
        <time>2022-09-04T16:00:17+0200</time>
      </trkpt>
      <trkpt lat="44.97227" lon="6.62723">
        <ele>2162.861208</ele>
        <time>2022-09-04T16:00:20+0200</time>
      </trkpt>
      <trkpt lat="44.97227" lon="6.62714">
        <ele>2163.35534</ele>
        <time>2022-09-04T16:00:23+0200</time>
      </trkpt>
      <trkpt lat="44.97228" lon="6.62706">
        <ele>2163.155176</ele>
        <time>2022-09-04T16:00:26+0200</time>
      </trkpt>
      <trkpt lat="44.97229" lon="6.627">
        <ele>2163.582939</ele>
        <time>2022-09-04T16:00:29+0200</time>
      </trkpt>
      <trkpt lat="44.97229" lon="6.62692">
        <ele>2163.914155</ele>
        <time>2022-09-04T16:00:32+0200</time>
      </trkpt>
      <trkpt lat="44.97228" lon="6.62685">
        <ele>2164.534849</ele>
        <time>2022-09-04T16:00:35+0200</time>
      </trkpt>
      <trkpt lat="44.9723" lon="6.62679">
        <ele>2165.033408</ele>
        <time>2022-09-04T16:00:38+0200</time>
      </trkpt>
      <trkpt lat="44.97235" lon="6.62678">
        <ele>2165.180175</ele>
        <time>2022-09-04T16:00:40+0200</time>
      </trkpt>
      <trkpt lat="44.9724" lon="6.62677">
        <ele>2165.029054</ele>
        <time>2022-09-04T16:00:42+0200</time>
      </trkpt>
      <trkpt lat="44.97245" lon="6.62683">
        <ele>2166.11217</ele>
        <time>2022-09-04T16:00:45+0200</time>
      </trkpt>
      <trkpt lat="44.97246" lon="6.62691">
        <ele>2167.094179</ele>
        <time>2022-09-04T16:00:47+0200</time>
      </trkpt>
      <trkpt lat="44.97248" lon="6.62699">
        <ele>2167.279594</ele>
        <time>2022-09-04T16:00:49+0200</time>
      </trkpt>
      <trkpt lat="44.97247" lon="6.62705">
        <ele>2166.771434</ele>
        <time>2022-09-04T16:00:51+0200</time>
      </trkpt>
      <trkpt lat="44.97246" lon="6.62712">
        <ele>2166.909756</ele>
        <time>2022-09-04T16:00:53+0200</time>
      </trkpt>
      <trkpt lat="44.97246" lon="6.62719">
        <ele>2166.655418</ele>
        <time>2022-09-04T16:00:55+0200</time>
      </trkpt>
      <trkpt lat="44.9725" lon="6.62726">
        <ele>2168.104933</ele>
        <time>2022-09-04T16:00:58+0200</time>
      </trkpt>
      <trkpt lat="44.97254" lon="6.62732">
        <ele>2169.182285</ele>
        <time>2022-09-04T16:01:01+0200</time>
      </trkpt>
      <trkpt lat="44.97257" lon="6.62739">
        <ele>2171.306587</ele>
        <time>2022-09-04T16:01:04+0200</time>
      </trkpt>
      <trkpt lat="44.97259" lon="6.62746">
        <ele>2173.019407</ele>
        <time>2022-09-04T16:01:07+0200</time>
      </trkpt>
      <trkpt lat="44.97259" lon="6.62753">
        <ele>2172.962812</ele>
        <time>2022-09-04T16:01:09+0200</time>
      </trkpt>
      <trkpt lat="44.9726" lon="6.62759">
        <ele>2173.605394</ele>
        <time>2022-09-04T16:01:11+0200</time>
      </trkpt>
      <trkpt lat="44.97262" lon="6.62768">
        <ele>2172.978076</ele>
        <time>2022-09-04T16:01:14+0200</time>
      </trkpt>
      <trkpt lat="44.97263" lon="6.62777">
        <ele>2172.576557</ele>
        <time>2022-09-04T16:01:17+0200</time>
      </trkpt>
      <trkpt lat="44.97265" lon="6.62783">
        <ele>2173.10888</ele>
        <time>2022-09-04T16:01:19+0200</time>
      </trkpt>
      <trkpt lat="44.97266" lon="6.62791">
        <ele>2173.720361</ele>
        <time>2022-09-04T16:01:22+0200</time>
      </trkpt>
      <trkpt lat="44.9727" lon="6.62795">
        <ele>2175.121237</ele>
        <time>2022-09-04T16:01:25+0200</time>
      </trkpt>
      <trkpt lat="44.97275" lon="6.62797">
        <ele>2176.627181</ele>
        <time>2022-09-04T16:01:29+0200</time>
      </trkpt>
      <trkpt lat="44.9728" lon="6.62794">
        <ele>2178.882697</ele>
        <time>2022-09-04T16:01:32+0200</time>
      </trkpt>
      <trkpt lat="44.97286" lon="6.62796">
        <ele>2181.468837</ele>
        <time>2022-09-04T16:01:36+0200</time>
      </trkpt>
      <trkpt lat="44.97291" lon="6.628">
        <ele>2183.518954</ele>
        <time>2022-09-04T16:01:40+0200</time>
      </trkpt>
      <trkpt lat="44.97295" lon="6.62804">
        <ele>2184.503485</ele>
        <time>2022-09-04T16:01:43+0200</time>
      </trkpt>
      <trkpt lat="44.97299" lon="6.6281">
        <ele>2184.50347</ele>
        <time>2022-09-04T16:01:46+0200</time>
      </trkpt>
      <trkpt lat="44.97302" lon="6.6282">
        <ele>2184.829818</ele>
        <time>2022-09-04T16:01:49+0200</time>
      </trkpt>
      <trkpt lat="44.97302" lon="6.62827">
        <ele>2184.365826</ele>
        <time>2022-09-04T16:01:51+0200</time>
      </trkpt>
      <trkpt lat="44.97301" lon="6.62834">
        <ele>2184.644018</ele>
        <time>2022-09-04T16:01:54+0200</time>
      </trkpt>
      <trkpt lat="44.97299" lon="6.62842">
        <ele>2184.620682</ele>
        <time>2022-09-04T16:01:57+0200</time>
      </trkpt>
      <trkpt lat="44.973" lon="6.62849">
        <ele>2183.681064</ele>
        <time>2022-09-04T16:02:00+0200</time>
      </trkpt>
      <trkpt lat="44.97299" lon="6.62856">
        <ele>2183.604848</ele>
        <time>2022-09-04T16:02:03+0200</time>
      </trkpt>
      <trkpt lat="44.973" lon="6.62865">
        <ele>2183.833504</ele>
        <time>2022-09-04T16:02:07+0200</time>
      </trkpt>
      <trkpt lat="44.97303" lon="6.62871">
        <ele>2183.764465</ele>
        <time>2022-09-04T16:02:10+0200</time>
      </trkpt>
      <trkpt lat="44.97306" lon="6.62877">
        <ele>2185.099269</ele>
        <time>2022-09-04T16:02:14+0200</time>
      </trkpt>
      <trkpt lat="44.97309" lon="6.62883">
        <ele>2185.974468</ele>
        <time>2022-09-04T16:02:17+0200</time>
      </trkpt>
      <trkpt lat="44.97312" lon="6.62889">
        <ele>2187.693051</ele>
        <time>2022-09-04T16:02:20+0200</time>
      </trkpt>
      <trkpt lat="44.97313" lon="6.62896">
        <ele>2188.746451</ele>
        <time>2022-09-04T16:02:23+0200</time>
      </trkpt>
      <trkpt lat="44.97314" lon="6.62905">
        <ele>2189.515606</ele>
        <time>2022-09-04T16:02:26+0200</time>
      </trkpt>
      <trkpt lat="44.97313" lon="6.62915">
        <ele>2190.267138</ele>
        <time>2022-09-04T16:02:29+0200</time>
      </trkpt>
      <trkpt lat="44.97314" lon="6.62922">
        <ele>2190.102159</ele>
        <time>2022-09-04T16:02:32+0200</time>
      </trkpt>
      <trkpt lat="44.97314" lon="6.6293">
        <ele>2190.869358</ele>
        <time>2022-09-04T16:02:35+0200</time>
      </trkpt>
      <trkpt lat="44.97315" lon="6.62938">
        <ele>2192.957093</ele>
        <time>2022-09-04T16:02:39+0200</time>
      </trkpt>
      <trkpt lat="44.97315" lon="6.62945">
        <ele>2193.642854</ele>
        <time>2022-09-04T16:02:42+0200</time>
      </trkpt>
      <trkpt lat="44.97316" lon="6.62953">
        <ele>2194.903418</ele>
        <time>2022-09-04T16:02:45+0200</time>
      </trkpt>
      <trkpt lat="44.97317" lon="6.6296">
        <ele>2196.238626</ele>
        <time>2022-09-04T16:02:48+0200</time>
      </trkpt>
      <trkpt lat="44.97318" lon="6.62967">
        <ele>2197.154571</ele>
        <time>2022-09-04T16:02:51+0200</time>
      </trkpt>
      <trkpt lat="44.9732" lon="6.62973">
        <ele>2197.254409</ele>
        <time>2022-09-04T16:02:53+0200</time>
      </trkpt>
      <trkpt lat="44.9732" lon="6.62981">
        <ele>2196.538173</ele>
        <time>2022-09-04T16:02:56+0200</time>
      </trkpt>
      <trkpt lat="44.97319" lon="6.62988">
        <ele>2197.083308</ele>
        <time>2022-09-04T16:02:58+0200</time>
      </trkpt>
      <trkpt lat="44.97318" lon="6.62994">
        <ele>2197.223676</ele>
        <time>2022-09-04T16:03:00+0200</time>
      </trkpt>
      <trkpt lat="44.97317" lon="6.63001">
        <ele>2197.620059</ele>
        <time>2022-09-04T16:03:02+0200</time>
      </trkpt>
      <trkpt lat="44.97315" lon="6.63008">
        <ele>2197.488405</ele>
        <time>2022-09-04T16:03:05+0200</time>
      </trkpt>
      <trkpt lat="44.97314" lon="6.63015">
        <ele>2198.197747</ele>
        <time>2022-09-04T16:03:08+0200</time>
      </trkpt>
      <trkpt lat="44.97313" lon="6.63024">
        <ele>2198.712192</ele>
        <time>2022-09-04T16:03:11+0200</time>
      </trkpt>
      <trkpt lat="44.97312" lon="6.63032">
        <ele>2199.828913</ele>
        <time>2022-09-04T16:03:14+0200</time>
      </trkpt>
      <trkpt lat="44.97312" lon="6.63039">
        <ele>2199.99392</ele>
        <time>2022-09-04T16:03:17+0200</time>
      </trkpt>
      <trkpt lat="44.97311" lon="6.63046">
        <ele>2200.029698</ele>
        <time>2022-09-04T16:03:20+0200</time>
      </trkpt>
      <trkpt lat="44.97311" lon="6.63055">
        <ele>2200.125773</ele>
        <time>2022-09-04T16:03:23+0200</time>
      </trkpt>
      <trkpt lat="44.97311" lon="6.63063">
        <ele>2200.765808</ele>
        <time>2022-09-04T16:03:26+0200</time>
      </trkpt>
      <trkpt lat="44.9731" lon="6.63071">
        <ele>2201.449253</ele>
        <time>2022-09-04T16:03:29+0200</time>
      </trkpt>
      <trkpt lat="44.9731" lon="6.63079">
        <ele>2201.267909</ele>
        <time>2022-09-04T16:03:32+0200</time>
      </trkpt>
      <trkpt lat="44.97309" lon="6.63088">
        <ele>2202.709536</ele>
        <time>2022-09-04T16:03:35+0200</time>
      </trkpt>
      <trkpt lat="44.97307" lon="6.63095">
        <ele>2204.191125</ele>
        <time>2022-09-04T16:03:38+0200</time>
      </trkpt>
      <trkpt lat="44.97308" lon="6.63102">
        <ele>2204.715084</ele>
        <time>2022-09-04T16:03:41+0200</time>
      </trkpt>
      <trkpt lat="44.97308" lon="6.63111">
        <ele>2204.676225</ele>
        <time>2022-09-04T16:03:44+0200</time>
      </trkpt>
      <trkpt lat="44.97308" lon="6.63119">
        <ele>2205.242602</ele>
        <time>2022-09-04T16:03:47+0200</time>
      </trkpt>
      <trkpt lat="44.97308" lon="6.63128">
        <ele>2205.822677</ele>
        <time>2022-09-04T16:03:50+0200</time>
      </trkpt>
      <trkpt lat="44.97306" lon="6.63136">
        <ele>2207.558682</ele>
        <time>2022-09-04T16:03:53+0200</time>
      </trkpt>
      <trkpt lat="44.97304" lon="6.63144">
        <ele>2209.465412</ele>
        <time>2022-09-04T16:03:56+0200</time>
      </trkpt>
      <trkpt lat="44.97305" lon="6.63151">
        <ele>2209.918526</ele>
        <time>2022-09-04T16:03:59+0200</time>
      </trkpt>
      <trkpt lat="44.97304" lon="6.63159">
        <ele>2210.320844</ele>
        <time>2022-09-04T16:04:02+0200</time>
      </trkpt>
      <trkpt lat="44.97305" lon="6.63168">
        <ele>2210.549834</ele>
        <time>2022-09-04T16:04:05+0200</time>
      </trkpt>
      <trkpt lat="44.97304" lon="6.63175">
        <ele>2211.086802</ele>
        <time>2022-09-04T16:04:08+0200</time>
      </trkpt>
      <trkpt lat="44.97304" lon="6.63183">
        <ele>2212.011202</ele>
        <time>2022-09-04T16:04:12+0200</time>
      </trkpt>
      <trkpt lat="44.97306" lon="6.6319">
        <ele>2212.329456</ele>
        <time>2022-09-04T16:04:15+0200</time>
      </trkpt>
      <trkpt lat="44.97307" lon="6.63198">
        <ele>2214.165196</ele>
        <time>2022-09-04T16:04:18+0200</time>
      </trkpt>
      <trkpt lat="44.97306" lon="6.63205">
        <ele>2214.727024</ele>
        <time>2022-09-04T16:04:21+0200</time>
      </trkpt>
      <trkpt lat="44.97306" lon="6.63213">
        <ele>2215.306104</ele>
        <time>2022-09-04T16:04:24+0200</time>
      </trkpt>
      <trkpt lat="44.97306" lon="6.63221">
        <ele>2215.499892</ele>
        <time>2022-09-04T16:04:27+0200</time>
      </trkpt>
      <trkpt lat="44.97303" lon="6.63229">
        <ele>2215.42796</ele>
        <time>2022-09-04T16:04:30+0200</time>
      </trkpt>
      <trkpt lat="44.97301" lon="6.63236">
        <ele>2215.139927</ele>
        <time>2022-09-04T16:04:33+0200</time>
      </trkpt>
      <trkpt lat="44.97298" lon="6.63242">
        <ele>2215.074265</ele>
        <time>2022-09-04T16:04:35+0200</time>
      </trkpt>
      <trkpt lat="44.97295" lon="6.63248">
        <ele>2216.067224</ele>
        <time>2022-09-04T16:04:38+0200</time>
      </trkpt>
      <trkpt lat="44.97292" lon="6.63253">
        <ele>2217.246147</ele>
        <time>2022-09-04T16:04:43+0200</time>
      </trkpt>
      <trkpt lat="44.97289" lon="6.63258">
        <ele>2217.400369</ele>
        <time>2022-09-04T16:04:46+0200</time>
      </trkpt>
      <trkpt lat="44.97286" lon="6.63265">
        <ele>2217.352243</ele>
        <time>2022-09-04T16:04:49+0200</time>
      </trkpt>
      <trkpt lat="44.97286" lon="6.63274">
        <ele>2217.175807</ele>
        <time>2022-09-04T16:04:53+0200</time>
      </trkpt>
      <trkpt lat="44.97285" lon="6.63283">
        <ele>2217.400958</ele>
        <time>2022-09-04T16:04:57+0200</time>
      </trkpt>
      <trkpt lat="44.97283" lon="6.6329">
        <ele>2218.62933</ele>
        <time>2022-09-04T16:05:00+0200</time>
      </trkpt>
      <trkpt lat="44.97283" lon="6.63298">
        <ele>2220.635692</ele>
        <time>2022-09-04T16:05:03+0200</time>
      </trkpt>
      <trkpt lat="44.97281" lon="6.63304">
        <ele>2220.709283</ele>
        <time>2022-09-04T16:05:06+0200</time>
      </trkpt>
      <trkpt lat="44.9728" lon="6.63311">
        <ele>2220.944259</ele>
        <time>2022-09-04T16:05:09+0200</time>
      </trkpt>
      <trkpt lat="44.97279" lon="6.63318">
        <ele>2221.039828</ele>
        <time>2022-09-04T16:05:12+0200</time>
      </trkpt>
      <trkpt lat="44.97278" lon="6.63325">
        <ele>2221.050467</ele>
        <time>2022-09-04T16:05:15+0200</time>
      </trkpt>
      <trkpt lat="44.97276" lon="6.63332">
        <ele>2221.126447</ele>
        <time>2022-09-04T16:05:18+0200</time>
      </trkpt>
      <trkpt lat="44.97276" lon="6.63339">
        <ele>2221.174232</ele>
        <time>2022-09-04T16:05:21+0200</time>
      </trkpt>
      <trkpt lat="44.97275" lon="6.63346">
        <ele>2220.867337</ele>
        <time>2022-09-04T16:05:24+0200</time>
      </trkpt>
      <trkpt lat="44.97275" lon="6.63353">
        <ele>2222.115975</ele>
        <time>2022-09-04T16:05:27+0200</time>
      </trkpt>
      <trkpt lat="44.97274" lon="6.63359">
        <ele>2223.219335</ele>
        <time>2022-09-04T16:05:30+0200</time>
      </trkpt>
      <trkpt lat="44.97274" lon="6.63367">
        <ele>2224.313034</ele>
        <time>2022-09-04T16:05:33+0200</time>
      </trkpt>
      <trkpt lat="44.97273" lon="6.63375">
        <ele>2225.401189</ele>
        <time>2022-09-04T16:05:36+0200</time>
      </trkpt>
      <trkpt lat="44.97273" lon="6.63383">
        <ele>2225.946108</ele>
        <time>2022-09-04T16:05:39+0200</time>
      </trkpt>
      <trkpt lat="44.97275" lon="6.6339">
        <ele>2225.907521</ele>
        <time>2022-09-04T16:05:42+0200</time>
      </trkpt>
      <trkpt lat="44.97276" lon="6.63398">
        <ele>2226.039002</ele>
        <time>2022-09-04T16:05:45+0200</time>
      </trkpt>
      <trkpt lat="44.97278" lon="6.63407">
        <ele>2226.440251</ele>
        <time>2022-09-04T16:05:48+0200</time>
      </trkpt>
      <trkpt lat="44.97279" lon="6.63414">
        <ele>2226.986852</ele>
        <time>2022-09-04T16:05:51+0200</time>
      </trkpt>
      <trkpt lat="44.9728" lon="6.63423">
        <ele>2227.624176</ele>
        <time>2022-09-04T16:05:54+0200</time>
      </trkpt>
      <trkpt lat="44.9728" lon="6.63432">
        <ele>2227.8924</ele>
        <time>2022-09-04T16:05:57+0200</time>
      </trkpt>
      <trkpt lat="44.97281" lon="6.63439">
        <ele>2227.614147</ele>
        <time>2022-09-04T16:06:00+0200</time>
      </trkpt>
      <trkpt lat="44.97284" lon="6.63447">
        <ele>2228.433685</ele>
        <time>2022-09-04T16:06:03+0200</time>
      </trkpt>
      <trkpt lat="44.97286" lon="6.63456">
        <ele>2228.638722</ele>
        <time>2022-09-04T16:06:06+0200</time>
      </trkpt>
      <trkpt lat="44.97286" lon="6.63462">
        <ele>2228.422785</ele>
        <time>2022-09-04T16:06:08+0200</time>
      </trkpt>
      <trkpt lat="44.97288" lon="6.63469">
        <ele>2228.379363</ele>
        <time>2022-09-04T16:06:11+0200</time>
      </trkpt>
      <trkpt lat="44.97293" lon="6.63463">
        <ele>2228.374874</ele>
        <time>2022-09-04T16:06:15+0200</time>
      </trkpt>
      <trkpt lat="44.97294" lon="6.63455">
        <ele>2228.782965</ele>
        <time>2022-09-04T16:06:18+0200</time>
      </trkpt>
      <trkpt lat="44.97292" lon="6.63446">
        <ele>2230.394624</ele>
        <time>2022-09-04T16:06:21+0200</time>
      </trkpt>
      <trkpt lat="44.97289" lon="6.63438">
        <ele>2232.060562</ele>
        <time>2022-09-04T16:06:24+0200</time>
      </trkpt>
      <trkpt lat="44.97288" lon="6.63432">
        <ele>2233.239205</ele>
        <time>2022-09-04T16:06:26+0200</time>
      </trkpt>
      <trkpt lat="44.97289" lon="6.63423">
        <ele>2232.851044</ele>
        <time>2022-09-04T16:06:29+0200</time>
      </trkpt>
      <trkpt lat="44.9729" lon="6.63414">
        <ele>2233.139152</ele>
        <time>2022-09-04T16:06:32+0200</time>
      </trkpt>
      <trkpt lat="44.97292" lon="6.63407">
        <ele>2233.62555</ele>
        <time>2022-09-04T16:06:35+0200</time>
      </trkpt>
      <trkpt lat="44.97294" lon="6.63399">
        <ele>2234.846798</ele>
        <time>2022-09-04T16:06:38+0200</time>
      </trkpt>
      <trkpt lat="44.97296" lon="6.63392">
        <ele>2235.262703</ele>
        <time>2022-09-04T16:06:41+0200</time>
      </trkpt>
      <trkpt lat="44.97298" lon="6.63383">
        <ele>2236.334501</ele>
        <time>2022-09-04T16:06:44+0200</time>
      </trkpt>
      <trkpt lat="44.973" lon="6.63375">
        <ele>2236.319686</ele>
        <time>2022-09-04T16:06:47+0200</time>
      </trkpt>
      <trkpt lat="44.97302" lon="6.63367">
        <ele>2236.77282</ele>
        <time>2022-09-04T16:06:50+0200</time>
      </trkpt>
      <trkpt lat="44.97303" lon="6.6336">
        <ele>2237.424683</ele>
        <time>2022-09-04T16:06:53+0200</time>
      </trkpt>
      <trkpt lat="44.97304" lon="6.63353">
        <ele>2238.350076</ele>
        <time>2022-09-04T16:06:56+0200</time>
      </trkpt>
      <trkpt lat="44.97307" lon="6.63346">
        <ele>2238.403765</ele>
        <time>2022-09-04T16:06:59+0200</time>
      </trkpt>
      <trkpt lat="44.97307" lon="6.63339">
        <ele>2238.476461</ele>
        <time>2022-09-04T16:07:02+0200</time>
      </trkpt>
      <trkpt lat="44.97312" lon="6.63334">
        <ele>2237.312803</ele>
        <time>2022-09-04T16:07:05+0200</time>
      </trkpt>
      <trkpt lat="44.97317" lon="6.63337">
        <ele>2238.054569</ele>
        <time>2022-09-04T16:07:08+0200</time>
      </trkpt>
      <trkpt lat="44.9732" lon="6.63343">
        <ele>2239.035988</ele>
        <time>2022-09-04T16:07:10+0200</time>
      </trkpt>
      <trkpt lat="44.97319" lon="6.63352">
        <ele>2240.211858</ele>
        <time>2022-09-04T16:07:12+0200</time>
      </trkpt>
      <trkpt lat="44.97318" lon="6.63358">
        <ele>2241.589639</ele>
        <time>2022-09-04T16:07:14+0200</time>
      </trkpt>
      <trkpt lat="44.97318" lon="6.63365">
        <ele>2242.380056</ele>
        <time>2022-09-04T16:07:16+0200</time>
      </trkpt>
      <trkpt lat="44.97318" lon="6.63371">
        <ele>2243.232861</ele>
        <time>2022-09-04T16:07:18+0200</time>
      </trkpt>
      <trkpt lat="44.97319" lon="6.63378">
        <ele>2243.818666</ele>
        <time>2022-09-04T16:07:21+0200</time>
      </trkpt>
      <trkpt lat="44.97319" lon="6.63387">
        <ele>2243.428691</ele>
        <time>2022-09-04T16:07:25+0200</time>
      </trkpt>
      <trkpt lat="44.9732" lon="6.63396">
        <ele>2243.804707</ele>
        <time>2022-09-04T16:07:28+0200</time>
      </trkpt>
      <trkpt lat="44.97323" lon="6.63404">
        <ele>2244.154984</ele>
        <time>2022-09-04T16:07:31+0200</time>
      </trkpt>
      <trkpt lat="44.97327" lon="6.6341">
        <ele>2245.020952</ele>
        <time>2022-09-04T16:07:34+0200</time>
      </trkpt>
      <trkpt lat="44.97331" lon="6.63416">
        <ele>2246.380208</ele>
        <time>2022-09-04T16:07:37+0200</time>
      </trkpt>
      <trkpt lat="44.97333" lon="6.63423">
        <ele>2247.782717</ele>
        <time>2022-09-04T16:07:40+0200</time>
      </trkpt>
      <trkpt lat="44.97336" lon="6.6343">
        <ele>2248.005819</ele>
        <time>2022-09-04T16:07:43+0200</time>
      </trkpt>
      <trkpt lat="44.97339" lon="6.63436">
        <ele>2249.155681</ele>
        <time>2022-09-04T16:07:46+0200</time>
      </trkpt>
      <trkpt lat="44.97342" lon="6.63442">
        <ele>2249.896751</ele>
        <time>2022-09-04T16:07:49+0200</time>
      </trkpt>
      <trkpt lat="44.97344" lon="6.6345">
        <ele>2250.802026</ele>
        <time>2022-09-04T16:07:52+0200</time>
      </trkpt>
      <trkpt lat="44.97346" lon="6.63457">
        <ele>2250.722854</ele>
        <time>2022-09-04T16:07:55+0200</time>
      </trkpt>
      <trkpt lat="44.97349" lon="6.63463">
        <ele>2250.793407</ele>
        <time>2022-09-04T16:07:59+0200</time>
      </trkpt>
      <trkpt lat="44.97352" lon="6.63458">
        <ele>2250.842568</ele>
        <time>2022-09-04T16:08:02+0200</time>
      </trkpt>
      <trkpt lat="44.97352" lon="6.63449">
        <ele>2251.776371</ele>
        <time>2022-09-04T16:08:05+0200</time>
      </trkpt>
      <trkpt lat="44.97353" lon="6.6344">
        <ele>2253.260538</ele>
        <time>2022-09-04T16:08:08+0200</time>
      </trkpt>
      <trkpt lat="44.97354" lon="6.63432">
        <ele>2254.092411</ele>
        <time>2022-09-04T16:08:11+0200</time>
      </trkpt>
      <trkpt lat="44.97356" lon="6.63424">
        <ele>2253.993655</ele>
        <time>2022-09-04T16:08:14+0200</time>
      </trkpt>
      <trkpt lat="44.97358" lon="6.63416">
        <ele>2254.511298</ele>
        <time>2022-09-04T16:08:17+0200</time>
      </trkpt>
      <trkpt lat="44.9736" lon="6.63408">
        <ele>2254.974858</ele>
        <time>2022-09-04T16:08:20+0200</time>
      </trkpt>
      <trkpt lat="44.97364" lon="6.63401">
        <ele>2255.443364</ele>
        <time>2022-09-04T16:08:23+0200</time>
      </trkpt>
      <trkpt lat="44.97368" lon="6.63395">
        <ele>2255.966204</ele>
        <time>2022-09-04T16:08:26+0200</time>
      </trkpt>
      <trkpt lat="44.97371" lon="6.63388">
        <ele>2256.227886</ele>
        <time>2022-09-04T16:08:29+0200</time>
      </trkpt>
      <trkpt lat="44.97373" lon="6.63381">
        <ele>2256.751126</ele>
        <time>2022-09-04T16:08:32+0200</time>
      </trkpt>
      <trkpt lat="44.97376" lon="6.63374">
        <ele>2257.459258</ele>
        <time>2022-09-04T16:08:35+0200</time>
      </trkpt>
      <trkpt lat="44.97379" lon="6.63367">
        <ele>2257.904551</ele>
        <time>2022-09-04T16:08:38+0200</time>
      </trkpt>
      <trkpt lat="44.97383" lon="6.6336">
        <ele>2258.119967</ele>
        <time>2022-09-04T16:08:41+0200</time>
      </trkpt>
      <trkpt lat="44.97387" lon="6.63354">
        <ele>2258.922747</ele>
        <time>2022-09-04T16:08:44+0200</time>
      </trkpt>
      <trkpt lat="44.9739" lon="6.63349">
        <ele>2259.949148</ele>
        <time>2022-09-04T16:08:47+0200</time>
      </trkpt>
      <trkpt lat="44.97394" lon="6.63343">
        <ele>2260.153573</ele>
        <time>2022-09-04T16:08:50+0200</time>
      </trkpt>
      <trkpt lat="44.97397" lon="6.63337">
        <ele>2260.366505</ele>
        <time>2022-09-04T16:08:53+0200</time>
      </trkpt>
      <trkpt lat="44.974" lon="6.6333">
        <ele>2261.073674</ele>
        <time>2022-09-04T16:08:56+0200</time>
      </trkpt>
      <trkpt lat="44.97402" lon="6.63323">
        <ele>2261.606782</ele>
        <time>2022-09-04T16:08:59+0200</time>
      </trkpt>
      <trkpt lat="44.97405" lon="6.63316">
        <ele>2262.365492</ele>
        <time>2022-09-04T16:09:02+0200</time>
      </trkpt>
      <trkpt lat="44.97409" lon="6.6331">
        <ele>2262.483021</ele>
        <time>2022-09-04T16:09:05+0200</time>
      </trkpt>
      <trkpt lat="44.97411" lon="6.63304">
        <ele>2262.732911</ele>
        <time>2022-09-04T16:09:08+0200</time>
      </trkpt>
      <trkpt lat="44.97413" lon="6.63298">
        <ele>2263.837052</ele>
        <time>2022-09-04T16:09:11+0200</time>
      </trkpt>
      <trkpt lat="44.97415" lon="6.63291">
        <ele>2264.841793</ele>
        <time>2022-09-04T16:09:14+0200</time>
      </trkpt>
      <trkpt lat="44.97416" lon="6.63284">
        <ele>2265.667842</ele>
        <time>2022-09-04T16:09:17+0200</time>
      </trkpt>
      <trkpt lat="44.97418" lon="6.63277">
        <ele>2266.441115</ele>
        <time>2022-09-04T16:09:20+0200</time>
      </trkpt>
      <trkpt lat="44.97421" lon="6.6327">
        <ele>2266.67132</ele>
        <time>2022-09-04T16:09:23+0200</time>
      </trkpt>
      <trkpt lat="44.97424" lon="6.63263">
        <ele>2267.211528</ele>
        <time>2022-09-04T16:09:26+0200</time>
      </trkpt>
      <trkpt lat="44.97426" lon="6.63256">
        <ele>2267.481</ele>
        <time>2022-09-04T16:09:29+0200</time>
      </trkpt>
      <trkpt lat="44.97428" lon="6.63249">
        <ele>2268.230006</ele>
        <time>2022-09-04T16:09:32+0200</time>
      </trkpt>
      <trkpt lat="44.97429" lon="6.63242">
        <ele>2268.737623</ele>
        <time>2022-09-04T16:09:36+0200</time>
      </trkpt>
      <trkpt lat="44.97432" lon="6.63236">
        <ele>2269.220411</ele>
        <time>2022-09-04T16:09:39+0200</time>
      </trkpt>
      <trkpt lat="44.97436" lon="6.63232">
        <ele>2269.732841</ele>
        <time>2022-09-04T16:09:43+0200</time>
      </trkpt>
      <trkpt lat="44.97441" lon="6.63234">
        <ele>2269.933548</ele>
        <time>2022-09-04T16:09:46+0200</time>
      </trkpt>
      <trkpt lat="44.97445" lon="6.63239">
        <ele>2271.113773</ele>
        <time>2022-09-04T16:09:49+0200</time>
      </trkpt>
      <trkpt lat="44.97449" lon="6.63246">
        <ele>2271.998536</ele>
        <time>2022-09-04T16:09:52+0200</time>
      </trkpt>
      <trkpt lat="44.97452" lon="6.63253">
        <ele>2273.016118</ele>
        <time>2022-09-04T16:09:55+0200</time>
      </trkpt>
      <trkpt lat="44.97455" lon="6.6326">
        <ele>2273.478375</ele>
        <time>2022-09-04T16:09:58+0200</time>
      </trkpt>
      <trkpt lat="44.97457" lon="6.63267">
        <ele>2274.200208</ele>
        <time>2022-09-04T16:10:01+0200</time>
      </trkpt>
      <trkpt lat="44.9746" lon="6.63274">
        <ele>2275.493336</ele>
        <time>2022-09-04T16:10:04+0200</time>
      </trkpt>
      <trkpt lat="44.97463" lon="6.6328">
        <ele>2276.669046</ele>
        <time>2022-09-04T16:10:07+0200</time>
      </trkpt>
      <trkpt lat="44.97466" lon="6.63287">
        <ele>2277.416541</ele>
        <time>2022-09-04T16:10:10+0200</time>
      </trkpt>
      <trkpt lat="44.97469" lon="6.63293">
        <ele>2278.386149</ele>
        <time>2022-09-04T16:10:13+0200</time>
      </trkpt>
      <trkpt lat="44.97473" lon="6.63299">
        <ele>2279.340951</ele>
        <time>2022-09-04T16:10:16+0200</time>
      </trkpt>
      <trkpt lat="44.97476" lon="6.63306">
        <ele>2280.056691</ele>
        <time>2022-09-04T16:10:19+0200</time>
      </trkpt>
      <trkpt lat="44.97479" lon="6.63312">
        <ele>2280.734</ele>
        <time>2022-09-04T16:10:22+0200</time>
      </trkpt>
      <trkpt lat="44.97483" lon="6.63319">
        <ele>2281.747624</ele>
        <time>2022-09-04T16:10:25+0200</time>
      </trkpt>
      <trkpt lat="44.97486" lon="6.63327">
        <ele>2281.987829</ele>
        <time>2022-09-04T16:10:28+0200</time>
      </trkpt>
      <trkpt lat="44.9749" lon="6.63334">
        <ele>2282.449313</ele>
        <time>2022-09-04T16:10:31+0200</time>
      </trkpt>
      <trkpt lat="44.97493" lon="6.63341">
        <ele>2282.72837</ele>
        <time>2022-09-04T16:10:34+0200</time>
      </trkpt>
      <trkpt lat="44.97495" lon="6.63349">
        <ele>2283.160855</ele>
        <time>2022-09-04T16:10:37+0200</time>
      </trkpt>
      <trkpt lat="44.97499" lon="6.63355">
        <ele>2283.65011</ele>
        <time>2022-09-04T16:10:40+0200</time>
      </trkpt>
      <trkpt lat="44.97502" lon="6.63361">
        <ele>2283.780589</ele>
        <time>2022-09-04T16:10:43+0200</time>
      </trkpt>
      <trkpt lat="44.97506" lon="6.63368">
        <ele>2284.171171</ele>
        <time>2022-09-04T16:10:46+0200</time>
      </trkpt>
      <trkpt lat="44.9751" lon="6.63373">
        <ele>2285.356831</ele>
        <time>2022-09-04T16:10:49+0200</time>
      </trkpt>
      <trkpt lat="44.97514" lon="6.63379">
        <ele>2285.711651</ele>
        <time>2022-09-04T16:10:52+0200</time>
      </trkpt>
      <trkpt lat="44.97515" lon="6.63387">
        <ele>2285.9119</ele>
        <time>2022-09-04T16:10:55+0200</time>
      </trkpt>
      <trkpt lat="44.97519" lon="6.63393">
        <ele>2286.617284</ele>
        <time>2022-09-04T16:10:58+0200</time>
      </trkpt>
      <trkpt lat="44.97521" lon="6.63399">
        <ele>2287.689502</ele>
        <time>2022-09-04T16:11:00+0200</time>
      </trkpt>
      <trkpt lat="44.97525" lon="6.63406">
        <ele>2288.677347</ele>
        <time>2022-09-04T16:11:03+0200</time>
      </trkpt>
      <trkpt lat="44.97528" lon="6.63414">
        <ele>2289.390658</ele>
        <time>2022-09-04T16:11:06+0200</time>
      </trkpt>
      <trkpt lat="44.97531" lon="6.63419">
        <ele>2290.230329</ele>
        <time>2022-09-04T16:11:08+0200</time>
      </trkpt>
      <trkpt lat="44.97533" lon="6.63427">
        <ele>2291.134344</ele>
        <time>2022-09-04T16:11:11+0200</time>
      </trkpt>
      <trkpt lat="44.97535" lon="6.63435">
        <ele>2291.834551</ele>
        <time>2022-09-04T16:11:14+0200</time>
      </trkpt>
      <trkpt lat="44.97537" lon="6.63444">
        <ele>2292.456648</ele>
        <time>2022-09-04T16:11:17+0200</time>
      </trkpt>
      <trkpt lat="44.97537" lon="6.6345">
        <ele>2293.301168</ele>
        <time>2022-09-04T16:11:19+0200</time>
      </trkpt>
      <trkpt lat="44.97539" lon="6.63458">
        <ele>2293.738375</ele>
        <time>2022-09-04T16:11:22+0200</time>
      </trkpt>
      <trkpt lat="44.97541" lon="6.63466">
        <ele>2293.918947</ele>
        <time>2022-09-04T16:11:25+0200</time>
      </trkpt>
      <trkpt lat="44.97544" lon="6.63473">
        <ele>2294.131561</ele>
        <time>2022-09-04T16:11:28+0200</time>
      </trkpt>
      <trkpt lat="44.97547" lon="6.63481">
        <ele>2294.573612</ele>
        <time>2022-09-04T16:11:31+0200</time>
      </trkpt>
      <trkpt lat="44.97551" lon="6.63487">
        <ele>2295.164577</ele>
        <time>2022-09-04T16:11:34+0200</time>
      </trkpt>
      <trkpt lat="44.97553" lon="6.63495">
        <ele>2296.866165</ele>
        <time>2022-09-04T16:11:37+0200</time>
      </trkpt>
      <trkpt lat="44.97556" lon="6.63501">
        <ele>2297.608447</ele>
        <time>2022-09-04T16:11:40+0200</time>
      </trkpt>
      <trkpt lat="44.97558" lon="6.63508">
        <ele>2298.524622</ele>
        <time>2022-09-04T16:11:43+0200</time>
      </trkpt>
      <trkpt lat="44.97561" lon="6.63515">
        <ele>2298.274091</ele>
        <time>2022-09-04T16:11:46+0200</time>
      </trkpt>
      <trkpt lat="44.97564" lon="6.63522">
        <ele>2298.097924</ele>
        <time>2022-09-04T16:11:49+0200</time>
      </trkpt>
      <trkpt lat="44.97566" lon="6.6353">
        <ele>2298.12958</ele>
        <time>2022-09-04T16:11:52+0200</time>
      </trkpt>
      <trkpt lat="44.97569" lon="6.63537">
        <ele>2298.268865</ele>
        <time>2022-09-04T16:11:55+0200</time>
      </trkpt>
      <trkpt lat="44.97571" lon="6.63545">
        <ele>2298.953789</ele>
        <time>2022-09-04T16:11:58+0200</time>
      </trkpt>
      <trkpt lat="44.97573" lon="6.63552">
        <ele>2299.182429</ele>
        <time>2022-09-04T16:12:01+0200</time>
      </trkpt>
      <trkpt lat="44.97575" lon="6.63561">
        <ele>2300.396278</ele>
        <time>2022-09-04T16:12:04+0200</time>
      </trkpt>
      <trkpt lat="44.97578" lon="6.63569">
        <ele>2301.73052</ele>
        <time>2022-09-04T16:12:07+0200</time>
      </trkpt>
      <trkpt lat="44.97579" lon="6.63578">
        <ele>2302.076517</ele>
        <time>2022-09-04T16:12:10+0200</time>
      </trkpt>
      <trkpt lat="44.9758" lon="6.63585">
        <ele>2302.770684</ele>
        <time>2022-09-04T16:12:13+0200</time>
      </trkpt>
      <trkpt lat="44.97583" lon="6.63592">
        <ele>2303.512826</ele>
        <time>2022-09-04T16:12:16+0200</time>
      </trkpt>
      <trkpt lat="44.97584" lon="6.63599">
        <ele>2302.955703</ele>
        <time>2022-09-04T16:12:20+0200</time>
      </trkpt>
      <trkpt lat="44.97589" lon="6.63603">
        <ele>2302.862104</ele>
        <time>2022-09-04T16:12:24+0200</time>
      </trkpt>
      <trkpt lat="44.97591" lon="6.63608">
        <ele>2302.717804</ele>
        <time>2022-09-04T16:12:28+0200</time>
      </trkpt>
      <trkpt lat="44.97597" lon="6.63608">
        <ele>2302.902698</ele>
        <time>2022-09-04T16:12:32+0200</time>
      </trkpt>
      <trkpt lat="44.97598" lon="6.63601">
        <ele>2303.097939</ele>
        <time>2022-09-04T16:12:35+0200</time>
      </trkpt>
      <trkpt lat="44.97597" lon="6.63593">
        <ele>2303.798821</ele>
        <time>2022-09-04T16:12:37+0200</time>
      </trkpt>
      <trkpt lat="44.97596" lon="6.63586">
        <ele>2304.716574</ele>
        <time>2022-09-04T16:12:39+0200</time>
      </trkpt>
      <trkpt lat="44.97595" lon="6.63579">
        <ele>2305.327691</ele>
        <time>2022-09-04T16:12:41+0200</time>
      </trkpt>
      <trkpt lat="44.97594" lon="6.6357">
        <ele>2305.806527</ele>
        <time>2022-09-04T16:12:43+0200</time>
      </trkpt>
      <trkpt lat="44.97592" lon="6.63561">
        <ele>2306.329327</ele>
        <time>2022-09-04T16:12:45+0200</time>
      </trkpt>
      <trkpt lat="44.97591" lon="6.63552">
        <ele>2306.44581</ele>
        <time>2022-09-04T16:12:47+0200</time>
      </trkpt>
      <trkpt lat="44.9759" lon="6.63542">
        <ele>2306.941667</ele>
        <time>2022-09-04T16:12:49+0200</time>
      </trkpt>
      <trkpt lat="44.97589" lon="6.63532">
        <ele>2307.139467</ele>
        <time>2022-09-04T16:12:51+0200</time>
      </trkpt>
      <trkpt lat="44.97588" lon="6.63523">
        <ele>2307.486355</ele>
        <time>2022-09-04T16:12:53+0200</time>
      </trkpt>
      <trkpt lat="44.97587" lon="6.63512">
        <ele>2307.265534</ele>
        <time>2022-09-04T16:12:55+0200</time>
      </trkpt>
      <trkpt lat="44.97586" lon="6.63502">
        <ele>2307.2491</ele>
        <time>2022-09-04T16:12:57+0200</time>
      </trkpt>
      <trkpt lat="44.97586" lon="6.63492">
        <ele>2307.291101</ele>
        <time>2022-09-04T16:12:59+0200</time>
      </trkpt>
      <trkpt lat="44.97586" lon="6.63481">
        <ele>2307.254719</ele>
        <time>2022-09-04T16:13:01+0200</time>
      </trkpt>
      <trkpt lat="44.97586" lon="6.63471">
        <ele>2307.449143</ele>
        <time>2022-09-04T16:13:03+0200</time>
      </trkpt>
      <trkpt lat="44.97588" lon="6.6346">
        <ele>2307.34441</ele>
        <time>2022-09-04T16:13:05+0200</time>
      </trkpt>
      <trkpt lat="44.97591" lon="6.6345">
        <ele>2307.192766</ele>
        <time>2022-09-04T16:13:07+0200</time>
      </trkpt>
      <trkpt lat="44.97594" lon="6.63439">
        <ele>2307.448976</ele>
        <time>2022-09-04T16:13:09+0200</time>
      </trkpt>
      <trkpt lat="44.97599" lon="6.63429">
        <ele>2307.404834</ele>
        <time>2022-09-04T16:13:11+0200</time>
      </trkpt>
      <trkpt lat="44.97603" lon="6.63421">
        <ele>2307.217563</ele>
        <time>2022-09-04T16:13:13+0200</time>
      </trkpt>
      <trkpt lat="44.97609" lon="6.63413">
        <ele>2307.715561</ele>
        <time>2022-09-04T16:13:15+0200</time>
      </trkpt>
      <trkpt lat="44.97614" lon="6.63406">
        <ele>2308.26172</ele>
        <time>2022-09-04T16:13:17+0200</time>
      </trkpt>
      <trkpt lat="44.97621" lon="6.63399">
        <ele>2308.79777</ele>
        <time>2022-09-04T16:13:19+0200</time>
      </trkpt>
      <trkpt lat="44.97627" lon="6.63392">
        <ele>2309.028743</ele>
        <time>2022-09-04T16:13:21+0200</time>
      </trkpt>
      <trkpt lat="44.97633" lon="6.63386">
        <ele>2309.26777</ele>
        <time>2022-09-04T16:13:23+0200</time>
      </trkpt>
      <trkpt lat="44.9764" lon="6.6338">
        <ele>2309.255284</ele>
        <time>2022-09-04T16:13:25+0200</time>
      </trkpt>
      <trkpt lat="44.97646" lon="6.63372">
        <ele>2309.1663</ele>
        <time>2022-09-04T16:13:27+0200</time>
      </trkpt>
      <trkpt lat="44.97653" lon="6.63364">
        <ele>2308.540977</ele>
        <time>2022-09-04T16:13:29+0200</time>
      </trkpt>
      <trkpt lat="44.97658" lon="6.63355">
        <ele>2308.660261</ele>
        <time>2022-09-04T16:13:31+0200</time>
      </trkpt>
      <trkpt lat="44.97663" lon="6.63346">
        <ele>2308.561904</ele>
        <time>2022-09-04T16:13:33+0200</time>
      </trkpt>
      <trkpt lat="44.97665" lon="6.6334">
        <ele>2308.753204</ele>
        <time>2022-09-04T16:13:34+0200</time>
      </trkpt>
      <trkpt lat="44.97666" lon="6.63334">
        <ele>2308.965097</ele>
        <time>2022-09-04T16:13:35+0200</time>
      </trkpt>
      <trkpt lat="44.97666" lon="6.63322">
        <ele>2309.701639</ele>
        <time>2022-09-04T16:13:37+0200</time>
      </trkpt>
      <trkpt lat="44.97664" lon="6.6331">
        <ele>2310.145678</ele>
        <time>2022-09-04T16:13:39+0200</time>
      </trkpt>
      <trkpt lat="44.97662" lon="6.63299">
        <ele>2311.507928</ele>
        <time>2022-09-04T16:13:41+0200</time>
      </trkpt>
      <trkpt lat="44.97659" lon="6.63288">
        <ele>2311.582842</ele>
        <time>2022-09-04T16:13:43+0200</time>
      </trkpt>
      <trkpt lat="44.97657" lon="6.63278">
        <ele>2311.609973</ele>
        <time>2022-09-04T16:13:45+0200</time>
      </trkpt>
      <trkpt lat="44.97655" lon="6.63272">
        <ele>2311.612061</ele>
        <time>2022-09-04T16:13:46+0200</time>
      </trkpt>
      <trkpt lat="44.97652" lon="6.63262">
        <ele>2311.445935</ele>
        <time>2022-09-04T16:13:48+0200</time>
      </trkpt>
      <trkpt lat="44.97648" lon="6.63252">
        <ele>2311.456114</ele>
        <time>2022-09-04T16:13:50+0200</time>
      </trkpt>
      <trkpt lat="44.97644" lon="6.63248">
        <ele>2311.593883</ele>
        <time>2022-09-04T16:13:51+0200</time>
      </trkpt>
      <trkpt lat="44.9764" lon="6.63245">
        <ele>2311.594054</ele>
        <time>2022-09-04T16:13:52+0200</time>
      </trkpt>
      <trkpt lat="44.97633" lon="6.6324">
        <ele>2311.686921</ele>
        <time>2022-09-04T16:13:54+0200</time>
      </trkpt>
      <trkpt lat="44.97626" lon="6.63236">
        <ele>2311.614743</ele>
        <time>2022-09-04T16:13:56+0200</time>
      </trkpt>
      <trkpt lat="44.97619" lon="6.63232">
        <ele>2311.656035</ele>
        <time>2022-09-04T16:13:58+0200</time>
      </trkpt>
      <trkpt lat="44.97612" lon="6.63229">
        <ele>2311.582508</ele>
        <time>2022-09-04T16:14:00+0200</time>
      </trkpt>
      <trkpt lat="44.97604" lon="6.63227">
        <ele>2311.686987</ele>
        <time>2022-09-04T16:14:02+0200</time>
      </trkpt>
      <trkpt lat="44.97597" lon="6.63224">
        <ele>2311.924171</ele>
        <time>2022-09-04T16:14:04+0200</time>
      </trkpt>
      <trkpt lat="44.97589" lon="6.6322">
        <ele>2311.766394</ele>
        <time>2022-09-04T16:14:06+0200</time>
      </trkpt>
      <trkpt lat="44.97582" lon="6.63214">
        <ele>2311.624346</ele>
        <time>2022-09-04T16:14:08+0200</time>
      </trkpt>
      <trkpt lat="44.97576" lon="6.63207">
        <ele>2311.739158</ele>
        <time>2022-09-04T16:14:10+0200</time>
      </trkpt>
      <trkpt lat="44.97571" lon="6.63198">
        <ele>2311.992464</ele>
        <time>2022-09-04T16:14:12+0200</time>
      </trkpt>
      <trkpt lat="44.97566" lon="6.63188">
        <ele>2312.742783</ele>
        <time>2022-09-04T16:14:14+0200</time>
      </trkpt>
      <trkpt lat="44.97562" lon="6.63178">
        <ele>2312.662793</ele>
        <time>2022-09-04T16:14:16+0200</time>
      </trkpt>
      <trkpt lat="44.97557" lon="6.63169">
        <ele>2312.989158</ele>
        <time>2022-09-04T16:14:18+0200</time>
      </trkpt>
      <trkpt lat="44.97554" lon="6.63158">
        <ele>2313.233236</ele>
        <time>2022-09-04T16:14:20+0200</time>
      </trkpt>
      <trkpt lat="44.97549" lon="6.63148">
        <ele>2313.785802</ele>
        <time>2022-09-04T16:14:22+0200</time>
      </trkpt>
      <trkpt lat="44.97544" lon="6.63139">
        <ele>2313.950685</ele>
        <time>2022-09-04T16:14:24+0200</time>
      </trkpt>
      <trkpt lat="44.9754" lon="6.63129">
        <ele>2314.239807</ele>
        <time>2022-09-04T16:14:26+0200</time>
      </trkpt>
      <trkpt lat="44.97537" lon="6.63119">
        <ele>2314.332364</ele>
        <time>2022-09-04T16:14:28+0200</time>
      </trkpt>
      <trkpt lat="44.97535" lon="6.63107">
        <ele>2314.600077</ele>
        <time>2022-09-04T16:14:30+0200</time>
      </trkpt>
      <trkpt lat="44.97538" lon="6.63097">
        <ele>2313.983904</ele>
        <time>2022-09-04T16:14:32+0200</time>
      </trkpt>
      <trkpt lat="44.97544" lon="6.63089">
        <ele>2313.940534</ele>
        <time>2022-09-04T16:14:34+0200</time>
      </trkpt>
      <trkpt lat="44.97552" lon="6.63086">
        <ele>2314.050955</ele>
        <time>2022-09-04T16:14:36+0200</time>
      </trkpt>
      <trkpt lat="44.97556" lon="6.63084">
        <ele>2314.307556</ele>
        <time>2022-09-04T16:14:37+0200</time>
      </trkpt>
      <trkpt lat="44.97561" lon="6.63082">
        <ele>2314.390775</ele>
        <time>2022-09-04T16:14:38+0200</time>
      </trkpt>
      <trkpt lat="44.97569" lon="6.63079">
        <ele>2315.122296</ele>
        <time>2022-09-04T16:14:40+0200</time>
      </trkpt>
      <trkpt lat="44.97573" lon="6.63076">
        <ele>2315.44097</ele>
        <time>2022-09-04T16:14:41+0200</time>
      </trkpt>
      <trkpt lat="44.97582" lon="6.63072">
        <ele>2315.99194</ele>
        <time>2022-09-04T16:14:43+0200</time>
      </trkpt>
      <trkpt lat="44.97589" lon="6.63069">
        <ele>2316.778203</ele>
        <time>2022-09-04T16:14:45+0200</time>
      </trkpt>
      <trkpt lat="44.97597" lon="6.63065">
        <ele>2317.22008</ele>
        <time>2022-09-04T16:14:47+0200</time>
      </trkpt>
      <trkpt lat="44.97604" lon="6.63061">
        <ele>2317.443846</ele>
        <time>2022-09-04T16:14:49+0200</time>
      </trkpt>
      <trkpt lat="44.97613" lon="6.63059">
        <ele>2316.91587</ele>
        <time>2022-09-04T16:14:51+0200</time>
      </trkpt>
      <trkpt lat="44.9762" lon="6.63056">
        <ele>2317.027483</ele>
        <time>2022-09-04T16:14:53+0200</time>
      </trkpt>
      <trkpt lat="44.97627" lon="6.63052">
        <ele>2317.332577</ele>
        <time>2022-09-04T16:14:55+0200</time>
      </trkpt>
      <trkpt lat="44.97635" lon="6.6305">
        <ele>2317.513702</ele>
        <time>2022-09-04T16:14:57+0200</time>
      </trkpt>
      <trkpt lat="44.97643" lon="6.63046">
        <ele>2318.250369</ele>
        <time>2022-09-04T16:14:59+0200</time>
      </trkpt>
      <trkpt lat="44.97647" lon="6.63044">
        <ele>2317.71781</ele>
        <time>2022-09-04T16:15:00+0200</time>
      </trkpt>
      <trkpt lat="44.97655" lon="6.6304">
        <ele>2318.33577</ele>
        <time>2022-09-04T16:15:02+0200</time>
      </trkpt>
      <trkpt lat="44.97662" lon="6.63035">
        <ele>2319.24062</ele>
        <time>2022-09-04T16:15:04+0200</time>
      </trkpt>
      <trkpt lat="44.97668" lon="6.63028">
        <ele>2318.925797</ele>
        <time>2022-09-04T16:15:06+0200</time>
      </trkpt>
      <trkpt lat="44.97674" lon="6.63021">
        <ele>2318.709316</ele>
        <time>2022-09-04T16:15:08+0200</time>
      </trkpt>
      <trkpt lat="44.97678" lon="6.63011">
        <ele>2318.995899</ele>
        <time>2022-09-04T16:15:10+0200</time>
      </trkpt>
      <trkpt lat="44.97679" lon="6.63002">
        <ele>2318.860501</ele>
        <time>2022-09-04T16:15:12+0200</time>
      </trkpt>
      <trkpt lat="44.97681" lon="6.62992">
        <ele>2319.138409</ele>
        <time>2022-09-04T16:15:14+0200</time>
      </trkpt>
      <trkpt lat="44.97683" lon="6.62982">
        <ele>2319.40241</ele>
        <time>2022-09-04T16:15:16+0200</time>
      </trkpt>
      <trkpt lat="44.97686" lon="6.62972">
        <ele>2318.963409</ele>
        <time>2022-09-04T16:15:18+0200</time>
      </trkpt>
      <trkpt lat="44.97687" lon="6.62963">
        <ele>2319.309974</ele>
        <time>2022-09-04T16:15:20+0200</time>
      </trkpt>
      <trkpt lat="44.97689" lon="6.62953">
        <ele>2319.99819</ele>
        <time>2022-09-04T16:15:22+0200</time>
      </trkpt>
      <trkpt lat="44.97692" lon="6.62943">
        <ele>2320.423844</ele>
        <time>2022-09-04T16:15:24+0200</time>
      </trkpt>
      <trkpt lat="44.97693" lon="6.62933">
        <ele>2320.934132</ele>
        <time>2022-09-04T16:15:26+0200</time>
      </trkpt>
      <trkpt lat="44.97694" lon="6.62922">
        <ele>2321.521171</ele>
        <time>2022-09-04T16:15:28+0200</time>
      </trkpt>
      <trkpt lat="44.97695" lon="6.62912">
        <ele>2321.77236</ele>
        <time>2022-09-04T16:15:30+0200</time>
      </trkpt>
      <trkpt lat="44.97693" lon="6.62902">
        <ele>2322.026506</ele>
        <time>2022-09-04T16:15:32+0200</time>
      </trkpt>
      <trkpt lat="44.9769" lon="6.62893">
        <ele>2321.991484</ele>
        <time>2022-09-04T16:15:34+0200</time>
      </trkpt>
      <trkpt lat="44.97684" lon="6.62886">
        <ele>2322.075461</ele>
        <time>2022-09-04T16:15:36+0200</time>
      </trkpt>
      <trkpt lat="44.97679" lon="6.62879">
        <ele>2321.775848</ele>
        <time>2022-09-04T16:15:38+0200</time>
      </trkpt>
      <trkpt lat="44.97673" lon="6.62871">
        <ele>2321.691091</ele>
        <time>2022-09-04T16:15:40+0200</time>
      </trkpt>
      <trkpt lat="44.97668" lon="6.62863">
        <ele>2322.082461</ele>
        <time>2022-09-04T16:15:42+0200</time>
      </trkpt>
      <trkpt lat="44.97663" lon="6.62855">
        <ele>2321.990135</ele>
        <time>2022-09-04T16:15:44+0200</time>
      </trkpt>
      <trkpt lat="44.97658" lon="6.62848">
        <ele>2322.365776</ele>
        <time>2022-09-04T16:15:46+0200</time>
      </trkpt>
      <trkpt lat="44.97654" lon="6.6284">
        <ele>2322.459608</ele>
        <time>2022-09-04T16:15:48+0200</time>
      </trkpt>
      <trkpt lat="44.9765" lon="6.62833">
        <ele>2322.923825</ele>
        <time>2022-09-04T16:15:50+0200</time>
      </trkpt>
      <trkpt lat="44.97646" lon="6.62826">
        <ele>2322.782045</ele>
        <time>2022-09-04T16:15:52+0200</time>
      </trkpt>
      <trkpt lat="44.97643" lon="6.62818">
        <ele>2322.643743</ele>
        <time>2022-09-04T16:15:54+0200</time>
      </trkpt>
      <trkpt lat="44.97639" lon="6.62811">
        <ele>2322.993471</ele>
        <time>2022-09-04T16:15:56+0200</time>
      </trkpt>
      <trkpt lat="44.97636" lon="6.62805">
        <ele>2322.273981</ele>
        <time>2022-09-04T16:15:58+0200</time>
      </trkpt>
      <trkpt lat="44.97631" lon="6.62798">
        <ele>2322.207042</ele>
        <time>2022-09-04T16:16:00+0200</time>
      </trkpt>
      <trkpt lat="44.97625" lon="6.62792">
        <ele>2322.08746</ele>
        <time>2022-09-04T16:16:02+0200</time>
      </trkpt>
      <trkpt lat="44.97621" lon="6.62784">
        <ele>2322.271091</ele>
        <time>2022-09-04T16:16:04+0200</time>
      </trkpt>
      <trkpt lat="44.97616" lon="6.62776">
        <ele>2322.763613</ele>
        <time>2022-09-04T16:16:06+0200</time>
      </trkpt>
      <trkpt lat="44.97612" lon="6.62768">
        <ele>2323.506675</ele>
        <time>2022-09-04T16:16:08+0200</time>
      </trkpt>
      <trkpt lat="44.97606" lon="6.62761">
        <ele>2324.428027</ele>
        <time>2022-09-04T16:16:10+0200</time>
      </trkpt>
      <trkpt lat="44.976" lon="6.62756">
        <ele>2325.068595</ele>
        <time>2022-09-04T16:16:12+0200</time>
      </trkpt>
      <trkpt lat="44.97593" lon="6.62753">
        <ele>2325.277409</ele>
        <time>2022-09-04T16:16:14+0200</time>
      </trkpt>
      <trkpt lat="44.97587" lon="6.62749">
        <ele>2325.339892</ele>
        <time>2022-09-04T16:16:16+0200</time>
      </trkpt>
      <trkpt lat="44.9758" lon="6.62746">
        <ele>2325.408808</ele>
        <time>2022-09-04T16:16:18+0200</time>
      </trkpt>
      <trkpt lat="44.97574" lon="6.62742">
        <ele>2325.426132</ele>
        <time>2022-09-04T16:16:20+0200</time>
      </trkpt>
      <trkpt lat="44.97567" lon="6.62737">
        <ele>2325.171523</ele>
        <time>2022-09-04T16:16:22+0200</time>
      </trkpt>
      <trkpt lat="44.97561" lon="6.62733">
        <ele>2325.276366</ele>
        <time>2022-09-04T16:16:24+0200</time>
      </trkpt>
      <trkpt lat="44.97554" lon="6.62727">
        <ele>2325.676454</ele>
        <time>2022-09-04T16:16:26+0200</time>
      </trkpt>
      <trkpt lat="44.97548" lon="6.62719">
        <ele>2325.458338</ele>
        <time>2022-09-04T16:16:28+0200</time>
      </trkpt>
      <trkpt lat="44.97546" lon="6.62714">
        <ele>2325.760054</ele>
        <time>2022-09-04T16:16:29+0200</time>
      </trkpt>
      <trkpt lat="44.97542" lon="6.62705">
        <ele>2326.047916</ele>
        <time>2022-09-04T16:16:31+0200</time>
      </trkpt>
      <trkpt lat="44.97538" lon="6.62695">
        <ele>2326.616237</ele>
        <time>2022-09-04T16:16:33+0200</time>
      </trkpt>
      <trkpt lat="44.97537" lon="6.62686">
        <ele>2327.141503</ele>
        <time>2022-09-04T16:16:35+0200</time>
      </trkpt>
      <trkpt lat="44.97537" lon="6.62676">
        <ele>2327.47494</ele>
        <time>2022-09-04T16:16:37+0200</time>
      </trkpt>
      <trkpt lat="44.97538" lon="6.62666">
        <ele>2328.577929</ele>
        <time>2022-09-04T16:16:39+0200</time>
      </trkpt>
      <trkpt lat="44.97539" lon="6.62656">
        <ele>2329.659732</ele>
        <time>2022-09-04T16:16:41+0200</time>
      </trkpt>
      <trkpt lat="44.97539" lon="6.62645">
        <ele>2331.080751</ele>
        <time>2022-09-04T16:16:43+0200</time>
      </trkpt>
      <trkpt lat="44.9754" lon="6.62635">
        <ele>2332.103072</ele>
        <time>2022-09-04T16:16:45+0200</time>
      </trkpt>
      <trkpt lat="44.97541" lon="6.62626">
        <ele>2332.716657</ele>
        <time>2022-09-04T16:16:47+0200</time>
      </trkpt>
      <trkpt lat="44.97542" lon="6.62615">
        <ele>2332.414871</ele>
        <time>2022-09-04T16:16:49+0200</time>
      </trkpt>
      <trkpt lat="44.97544" lon="6.62605">
        <ele>2332.307349</ele>
        <time>2022-09-04T16:16:51+0200</time>
      </trkpt>
      <trkpt lat="44.97545" lon="6.62595">
        <ele>2331.974898</ele>
        <time>2022-09-04T16:16:53+0200</time>
      </trkpt>
      <trkpt lat="44.97548" lon="6.62584">
        <ele>2331.628109</ele>
        <time>2022-09-04T16:16:55+0200</time>
      </trkpt>
      <trkpt lat="44.9755" lon="6.62573">
        <ele>2331.423611</ele>
        <time>2022-09-04T16:16:57+0200</time>
      </trkpt>
      <trkpt lat="44.97553" lon="6.62563">
        <ele>2331.454889</ele>
        <time>2022-09-04T16:16:59+0200</time>
      </trkpt>
      <trkpt lat="44.97557" lon="6.62553">
        <ele>2331.284857</ele>
        <time>2022-09-04T16:17:01+0200</time>
      </trkpt>
      <trkpt lat="44.97559" lon="6.62543">
        <ele>2331.620912</ele>
        <time>2022-09-04T16:17:03+0200</time>
      </trkpt>
      <trkpt lat="44.97563" lon="6.62533">
        <ele>2331.784638</ele>
        <time>2022-09-04T16:17:05+0200</time>
      </trkpt>
      <trkpt lat="44.97566" lon="6.62522">
        <ele>2331.655554</ele>
        <time>2022-09-04T16:17:07+0200</time>
      </trkpt>
      <trkpt lat="44.97569" lon="6.62512">
        <ele>2331.896124</ele>
        <time>2022-09-04T16:17:09+0200</time>
      </trkpt>
      <trkpt lat="44.97573" lon="6.62501">
        <ele>2331.848268</ele>
        <time>2022-09-04T16:17:11+0200</time>
      </trkpt>
      <trkpt lat="44.97577" lon="6.62491">
        <ele>2332.108474</ele>
        <time>2022-09-04T16:17:13+0200</time>
      </trkpt>
      <trkpt lat="44.9758" lon="6.62482">
        <ele>2332.284928</ele>
        <time>2022-09-04T16:17:15+0200</time>
      </trkpt>
      <trkpt lat="44.97582" lon="6.62472">
        <ele>2332.710974</ele>
        <time>2022-09-04T16:17:17+0200</time>
      </trkpt>
      <trkpt lat="44.97582" lon="6.62462">
        <ele>2333.145307</ele>
        <time>2022-09-04T16:17:19+0200</time>
      </trkpt>
      <trkpt lat="44.97581" lon="6.62452">
        <ele>2333.556717</ele>
        <time>2022-09-04T16:17:21+0200</time>
      </trkpt>
      <trkpt lat="44.97578" lon="6.62443">
        <ele>2334.122675</ele>
        <time>2022-09-04T16:17:23+0200</time>
      </trkpt>
      <trkpt lat="44.97576" lon="6.62435">
        <ele>2334.555144</ele>
        <time>2022-09-04T16:17:25+0200</time>
      </trkpt>
      <trkpt lat="44.97576" lon="6.62425">
        <ele>2334.468849</ele>
        <time>2022-09-04T16:17:27+0200</time>
      </trkpt>
      <trkpt lat="44.97578" lon="6.62415">
        <ele>2334.611861</ele>
        <time>2022-09-04T16:17:29+0200</time>
      </trkpt>
      <trkpt lat="44.97582" lon="6.62407">
        <ele>2334.528198</ele>
        <time>2022-09-04T16:17:31+0200</time>
      </trkpt>
      <trkpt lat="44.97588" lon="6.624">
        <ele>2334.046105</ele>
        <time>2022-09-04T16:17:33+0200</time>
      </trkpt>
      <trkpt lat="44.97596" lon="6.62394">
        <ele>2334.161134</ele>
        <time>2022-09-04T16:17:35+0200</time>
      </trkpt>
      <trkpt lat="44.97603" lon="6.62388">
        <ele>2334.075619</ele>
        <time>2022-09-04T16:17:37+0200</time>
      </trkpt>
      <trkpt lat="44.97609" lon="6.62382">
        <ele>2334.768605</ele>
        <time>2022-09-04T16:17:39+0200</time>
      </trkpt>
      <trkpt lat="44.97614" lon="6.62374">
        <ele>2334.856394</ele>
        <time>2022-09-04T16:17:41+0200</time>
      </trkpt>
      <trkpt lat="44.97618" lon="6.62365">
        <ele>2335.617225</ele>
        <time>2022-09-04T16:17:43+0200</time>
      </trkpt>
      <trkpt lat="44.9762" lon="6.62356">
        <ele>2337.04571</ele>
        <time>2022-09-04T16:17:45+0200</time>
      </trkpt>
      <trkpt lat="44.97621" lon="6.62345">
        <ele>2337.933468</ele>
        <time>2022-09-04T16:17:47+0200</time>
      </trkpt>
      <trkpt lat="44.97619" lon="6.62334">
        <ele>2338.742808</ele>
        <time>2022-09-04T16:17:49+0200</time>
      </trkpt>
      <trkpt lat="44.97616" lon="6.62323">
        <ele>2339.575632</ele>
        <time>2022-09-04T16:17:51+0200</time>
      </trkpt>
      <trkpt lat="44.97614" lon="6.62313">
        <ele>2339.770905</ele>
        <time>2022-09-04T16:17:53+0200</time>
      </trkpt>
      <trkpt lat="44.97614" lon="6.62303">
        <ele>2339.5353</ele>
        <time>2022-09-04T16:17:55+0200</time>
      </trkpt>
      <trkpt lat="44.97617" lon="6.62294">
        <ele>2338.569269</ele>
        <time>2022-09-04T16:17:57+0200</time>
      </trkpt>
      <trkpt lat="44.97622" lon="6.62286">
        <ele>2338.18063</ele>
        <time>2022-09-04T16:17:59+0200</time>
      </trkpt>
      <trkpt lat="44.97629" lon="6.62279">
        <ele>2337.805801</ele>
        <time>2022-09-04T16:18:01+0200</time>
      </trkpt>
      <trkpt lat="44.97636" lon="6.62273">
        <ele>2337.742142</ele>
        <time>2022-09-04T16:18:03+0200</time>
      </trkpt>
      <trkpt lat="44.97641" lon="6.62267">
        <ele>2338.36905</ele>
        <time>2022-09-04T16:18:05+0200</time>
      </trkpt>
      <trkpt lat="44.97648" lon="6.62261">
        <ele>2338.677531</ele>
        <time>2022-09-04T16:18:07+0200</time>
      </trkpt>
      <trkpt lat="44.97655" lon="6.62257">
        <ele>2338.909676</ele>
        <time>2022-09-04T16:18:09+0200</time>
      </trkpt>
      <trkpt lat="44.97661" lon="6.62252">
        <ele>2339.025258</ele>
        <time>2022-09-04T16:18:11+0200</time>
      </trkpt>
      <trkpt lat="44.97668" lon="6.62248">
        <ele>2338.917689</ele>
        <time>2022-09-04T16:18:13+0200</time>
      </trkpt>
      <trkpt lat="44.97674" lon="6.62243">
        <ele>2339.044735</ele>
        <time>2022-09-04T16:18:15+0200</time>
      </trkpt>
      <trkpt lat="44.97681" lon="6.62238">
        <ele>2339.274917</ele>
        <time>2022-09-04T16:18:17+0200</time>
      </trkpt>
      <trkpt lat="44.97687" lon="6.62232">
        <ele>2339.572588</ele>
        <time>2022-09-04T16:18:19+0200</time>
      </trkpt>
      <trkpt lat="44.97691" lon="6.62223">
        <ele>2340.048896</ele>
        <time>2022-09-04T16:18:21+0200</time>
      </trkpt>
      <trkpt lat="44.97693" lon="6.62214">
        <ele>2341.005482</ele>
        <time>2022-09-04T16:18:23+0200</time>
      </trkpt>
      <trkpt lat="44.97693" lon="6.62203">
        <ele>2342.602318</ele>
        <time>2022-09-04T16:18:25+0200</time>
      </trkpt>
      <trkpt lat="44.97691" lon="6.62193">
        <ele>2344.115895</ele>
        <time>2022-09-04T16:18:27+0200</time>
      </trkpt>
      <trkpt lat="44.97688" lon="6.62183">
        <ele>2345.110162</ele>
        <time>2022-09-04T16:18:29+0200</time>
      </trkpt>
      <trkpt lat="44.97683" lon="6.62175">
        <ele>2345.387307</ele>
        <time>2022-09-04T16:18:31+0200</time>
      </trkpt>
      <trkpt lat="44.97677" lon="6.62167">
        <ele>2345.848183</ele>
        <time>2022-09-04T16:18:33+0200</time>
      </trkpt>
      <trkpt lat="44.97671" lon="6.62161">
        <ele>2345.771912</ele>
        <time>2022-09-04T16:18:35+0200</time>
      </trkpt>
      <trkpt lat="44.97666" lon="6.62156">
        <ele>2345.943926</ele>
        <time>2022-09-04T16:18:37+0200</time>
      </trkpt>
      <trkpt lat="44.97662" lon="6.62148">
        <ele>2345.584577</ele>
        <time>2022-09-04T16:18:39+0200</time>
      </trkpt>
      <trkpt lat="44.97659" lon="6.62139">
        <ele>2345.618183</ele>
        <time>2022-09-04T16:18:41+0200</time>
      </trkpt>
      <trkpt lat="44.97657" lon="6.62129">
        <ele>2346.115649</ele>
        <time>2022-09-04T16:18:43+0200</time>
      </trkpt>
      <trkpt lat="44.97658" lon="6.62119">
        <ele>2346.270463</ele>
        <time>2022-09-04T16:18:45+0200</time>
      </trkpt>
      <trkpt lat="44.9766" lon="6.62108">
        <ele>2346.47417</ele>
        <time>2022-09-04T16:18:47+0200</time>
      </trkpt>
      <trkpt lat="44.97663" lon="6.62098">
        <ele>2346.090609</ele>
        <time>2022-09-04T16:18:49+0200</time>
      </trkpt>
      <trkpt lat="44.97667" lon="6.62089">
        <ele>2345.88173</ele>
        <time>2022-09-04T16:18:51+0200</time>
      </trkpt>
      <trkpt lat="44.97672" lon="6.62079">
        <ele>2346.309369</ele>
        <time>2022-09-04T16:18:53+0200</time>
      </trkpt>
      <trkpt lat="44.97676" lon="6.6207">
        <ele>2346.374144</ele>
        <time>2022-09-04T16:18:55+0200</time>
      </trkpt>
      <trkpt lat="44.97681" lon="6.62061">
        <ele>2346.431907</ele>
        <time>2022-09-04T16:18:57+0200</time>
      </trkpt>
      <trkpt lat="44.97687" lon="6.62054">
        <ele>2346.44373</ele>
        <time>2022-09-04T16:18:59+0200</time>
      </trkpt>
      <trkpt lat="44.97692" lon="6.62045">
        <ele>2347.010756</ele>
        <time>2022-09-04T16:19:01+0200</time>
      </trkpt>
      <trkpt lat="44.97697" lon="6.62037">
        <ele>2347.474729</ele>
        <time>2022-09-04T16:19:03+0200</time>
      </trkpt>
      <trkpt lat="44.97701" lon="6.62028">
        <ele>2347.786041</ele>
        <time>2022-09-04T16:19:05+0200</time>
      </trkpt>
      <trkpt lat="44.97706" lon="6.6202">
        <ele>2347.973384</ele>
        <time>2022-09-04T16:19:07+0200</time>
      </trkpt>
      <trkpt lat="44.97709" lon="6.6201">
        <ele>2348.33706</ele>
        <time>2022-09-04T16:19:09+0200</time>
      </trkpt>
      <trkpt lat="44.97711" lon="6.62">
        <ele>2348.992351</ele>
        <time>2022-09-04T16:19:11+0200</time>
      </trkpt>
      <trkpt lat="44.97709" lon="6.61988">
        <ele>2348.968718</ele>
        <time>2022-09-04T16:19:13+0200</time>
      </trkpt>
      <trkpt lat="44.97705" lon="6.61978">
        <ele>2350.082556</ele>
        <time>2022-09-04T16:19:15+0200</time>
      </trkpt>
      <trkpt lat="44.97701" lon="6.61971">
        <ele>2350.669129</ele>
        <time>2022-09-04T16:19:17+0200</time>
      </trkpt>
      <trkpt lat="44.97694" lon="6.61965">
        <ele>2351.022153</ele>
        <time>2022-09-04T16:19:19+0200</time>
      </trkpt>
      <trkpt lat="44.97689" lon="6.61958">
        <ele>2350.615545</ele>
        <time>2022-09-04T16:19:21+0200</time>
      </trkpt>
      <trkpt lat="44.97683" lon="6.6195">
        <ele>2351.885745</ele>
        <time>2022-09-04T16:19:23+0200</time>
      </trkpt>
      <trkpt lat="44.97678" lon="6.61943">
        <ele>2352.061609</ele>
        <time>2022-09-04T16:19:25+0200</time>
      </trkpt>
      <trkpt lat="44.97672" lon="6.61937">
        <ele>2352.573975</ele>
        <time>2022-09-04T16:19:27+0200</time>
      </trkpt>
      <trkpt lat="44.97666" lon="6.61932">
        <ele>2352.562646</ele>
        <time>2022-09-04T16:19:29+0200</time>
      </trkpt>
      <trkpt lat="44.97659" lon="6.61929">
        <ele>2352.325639</ele>
        <time>2022-09-04T16:19:31+0200</time>
      </trkpt>
      <trkpt lat="44.97652" lon="6.61927">
        <ele>2352.246398</ele>
        <time>2022-09-04T16:19:33+0200</time>
      </trkpt>
      <trkpt lat="44.97645" lon="6.6193">
        <ele>2351.987471</ele>
        <time>2022-09-04T16:19:35+0200</time>
      </trkpt>
      <trkpt lat="44.97638" lon="6.61935">
        <ele>2352.755178</ele>
        <time>2022-09-04T16:19:37+0200</time>
      </trkpt>
      <trkpt lat="44.97632" lon="6.6194">
        <ele>2353.545792</ele>
        <time>2022-09-04T16:19:39+0200</time>
      </trkpt>
      <trkpt lat="44.97627" lon="6.61945">
        <ele>2354.513754</ele>
        <time>2022-09-04T16:19:41+0200</time>
      </trkpt>
      <trkpt lat="44.97621" lon="6.61948">
        <ele>2354.589182</ele>
        <time>2022-09-04T16:19:43+0200</time>
      </trkpt>
      <trkpt lat="44.97614" lon="6.61949">
        <ele>2355.186857</ele>
        <time>2022-09-04T16:19:45+0200</time>
      </trkpt>
      <trkpt lat="44.97607" lon="6.61946">
        <ele>2355.106311</ele>
        <time>2022-09-04T16:19:47+0200</time>
      </trkpt>
      <trkpt lat="44.97603" lon="6.61938">
        <ele>2354.241525</ele>
        <time>2022-09-04T16:19:49+0200</time>
      </trkpt>
      <trkpt lat="44.97599" lon="6.61931">
        <ele>2353.561777</ele>
        <time>2022-09-04T16:19:51+0200</time>
      </trkpt>
      <trkpt lat="44.97595" lon="6.61922">
        <ele>2353.824388</ele>
        <time>2022-09-04T16:19:53+0200</time>
      </trkpt>
      <trkpt lat="44.97592" lon="6.61913">
        <ele>2354.088955</ele>
        <time>2022-09-04T16:19:55+0200</time>
      </trkpt>
      <trkpt lat="44.97587" lon="6.61905">
        <ele>2354.443711</ele>
        <time>2022-09-04T16:19:57+0200</time>
      </trkpt>
      <trkpt lat="44.97583" lon="6.61896">
        <ele>2354.562512</ele>
        <time>2022-09-04T16:19:59+0200</time>
      </trkpt>
      <trkpt lat="44.97579" lon="6.61888">
        <ele>2355.084193</ele>
        <time>2022-09-04T16:20:01+0200</time>
      </trkpt>
      <trkpt lat="44.97576" lon="6.61879">
        <ele>2355.340737</ele>
        <time>2022-09-04T16:20:03+0200</time>
      </trkpt>
      <trkpt lat="44.97571" lon="6.61871">
        <ele>2355.384632</ele>
        <time>2022-09-04T16:20:05+0200</time>
      </trkpt>
      <trkpt lat="44.97567" lon="6.61863">
        <ele>2355.786427</ele>
        <time>2022-09-04T16:20:07+0200</time>
      </trkpt>
      <trkpt lat="44.97562" lon="6.61855">
        <ele>2356.406073</ele>
        <time>2022-09-04T16:20:09+0200</time>
      </trkpt>
      <trkpt lat="44.97558" lon="6.61849">
        <ele>2356.452584</ele>
        <time>2022-09-04T16:20:11+0200</time>
      </trkpt>
      <trkpt lat="44.97553" lon="6.61841">
        <ele>2357.1877</ele>
        <time>2022-09-04T16:20:13+0200</time>
      </trkpt>
      <trkpt lat="44.97546" lon="6.61835">
        <ele>2357.560036</ele>
        <time>2022-09-04T16:20:15+0200</time>
      </trkpt>
      <trkpt lat="44.97541" lon="6.61829">
        <ele>2358.059701</ele>
        <time>2022-09-04T16:20:17+0200</time>
      </trkpt>
      <trkpt lat="44.97534" lon="6.61826">
        <ele>2358.111802</ele>
        <time>2022-09-04T16:20:19+0200</time>
      </trkpt>
      <trkpt lat="44.97529" lon="6.6182">
        <ele>2357.920952</ele>
        <time>2022-09-04T16:20:21+0200</time>
      </trkpt>
      <trkpt lat="44.97521" lon="6.61818">
        <ele>2358.430655</ele>
        <time>2022-09-04T16:20:23+0200</time>
      </trkpt>
      <trkpt lat="44.97513" lon="6.61816">
        <ele>2358.790958</ele>
        <time>2022-09-04T16:20:25+0200</time>
      </trkpt>
      <trkpt lat="44.97506" lon="6.61814">
        <ele>2359.515572</ele>
        <time>2022-09-04T16:20:27+0200</time>
      </trkpt>
      <trkpt lat="44.97499" lon="6.61811">
        <ele>2359.915015</ele>
        <time>2022-09-04T16:20:29+0200</time>
      </trkpt>
      <trkpt lat="44.97492" lon="6.61808">
        <ele>2359.871784</ele>
        <time>2022-09-04T16:20:31+0200</time>
      </trkpt>
      <trkpt lat="44.97484" lon="6.61805">
        <ele>2360.126104</ele>
        <time>2022-09-04T16:20:33+0200</time>
      </trkpt>
      <trkpt lat="44.97477" lon="6.61802">
        <ele>2360.544316</ele>
        <time>2022-09-04T16:20:35+0200</time>
      </trkpt>
      <trkpt lat="44.97471" lon="6.61797">
        <ele>2361.288066</ele>
        <time>2022-09-04T16:20:37+0200</time>
      </trkpt>
      <trkpt lat="44.97465" lon="6.61793">
        <ele>2361.771899</ele>
        <time>2022-09-04T16:20:39+0200</time>
      </trkpt>
      <trkpt lat="44.97459" lon="6.61788">
        <ele>2361.683525</ele>
        <time>2022-09-04T16:20:41+0200</time>
      </trkpt>
      <trkpt lat="44.97453" lon="6.61784">
        <ele>2361.597729</ele>
        <time>2022-09-04T16:20:43+0200</time>
      </trkpt>
      <trkpt lat="44.97447" lon="6.61779">
        <ele>2361.561553</ele>
        <time>2022-09-04T16:20:45+0200</time>
      </trkpt>
      <trkpt lat="44.97441" lon="6.61774">
        <ele>2361.372024</ele>
        <time>2022-09-04T16:20:47+0200</time>
      </trkpt>
      <trkpt lat="44.97436" lon="6.61767">
        <ele>2361.611804</ele>
        <time>2022-09-04T16:20:49+0200</time>
      </trkpt>
      <trkpt lat="44.97432" lon="6.6176">
        <ele>2361.622778</ele>
        <time>2022-09-04T16:20:51+0200</time>
      </trkpt>
      <trkpt lat="44.97428" lon="6.61753">
        <ele>2361.338796</ele>
        <time>2022-09-04T16:20:53+0200</time>
      </trkpt>
      <trkpt lat="44.97424" lon="6.61745">
        <ele>2361.033847</ele>
        <time>2022-09-04T16:20:55+0200</time>
      </trkpt>
      <trkpt lat="44.97421" lon="6.61736">
        <ele>2360.56754</ele>
        <time>2022-09-04T16:20:57+0200</time>
      </trkpt>
      <trkpt lat="44.97419" lon="6.61726">
        <ele>2360.934323</ele>
        <time>2022-09-04T16:20:59+0200</time>
      </trkpt>
      <trkpt lat="44.97417" lon="6.61716">
        <ele>2360.823543</ele>
        <time>2022-09-04T16:21:01+0200</time>
      </trkpt>
      <trkpt lat="44.97416" lon="6.61706">
        <ele>2361.197955</ele>
        <time>2022-09-04T16:21:03+0200</time>
      </trkpt>
      <trkpt lat="44.97415" lon="6.61695">
        <ele>2361.624523</ele>
        <time>2022-09-04T16:21:05+0200</time>
      </trkpt>
      <trkpt lat="44.97415" lon="6.61685">
        <ele>2362.162837</ele>
        <time>2022-09-04T16:21:07+0200</time>
      </trkpt>
      <trkpt lat="44.97415" lon="6.61674">
        <ele>2362.775551</ele>
        <time>2022-09-04T16:21:09+0200</time>
      </trkpt>
      <trkpt lat="44.97415" lon="6.61664">
        <ele>2363.331603</ele>
        <time>2022-09-04T16:21:11+0200</time>
      </trkpt>
      <trkpt lat="44.97416" lon="6.61652">
        <ele>2363.601577</ele>
        <time>2022-09-04T16:21:13+0200</time>
      </trkpt>
      <trkpt lat="44.97417" lon="6.61641">
        <ele>2363.809279</ele>
        <time>2022-09-04T16:21:15+0200</time>
      </trkpt>
      <trkpt lat="44.97419" lon="6.6163">
        <ele>2363.950413</ele>
        <time>2022-09-04T16:21:17+0200</time>
      </trkpt>
      <trkpt lat="44.9742" lon="6.6162">
        <ele>2364.355269</ele>
        <time>2022-09-04T16:21:19+0200</time>
      </trkpt>
      <trkpt lat="44.97421" lon="6.61609">
        <ele>2365.222325</ele>
        <time>2022-09-04T16:21:21+0200</time>
      </trkpt>
      <trkpt lat="44.97421" lon="6.61598">
        <ele>2365.451247</ele>
        <time>2022-09-04T16:21:23+0200</time>
      </trkpt>
      <trkpt lat="44.97422" lon="6.61586">
        <ele>2365.60212</ele>
        <time>2022-09-04T16:21:25+0200</time>
      </trkpt>
      <trkpt lat="44.97421" lon="6.61574">
        <ele>2365.633325</ele>
        <time>2022-09-04T16:21:27+0200</time>
      </trkpt>
      <trkpt lat="44.9742" lon="6.61563">
        <ele>2365.709007</ele>
        <time>2022-09-04T16:21:29+0200</time>
      </trkpt>
      <trkpt lat="44.97419" lon="6.61552">
        <ele>2365.777263</ele>
        <time>2022-09-04T16:21:31+0200</time>
      </trkpt>
      <trkpt lat="44.97418" lon="6.61541">
        <ele>2366.090202</ele>
        <time>2022-09-04T16:21:33+0200</time>
      </trkpt>
      <trkpt lat="44.97416" lon="6.61531">
        <ele>2366.400438</ele>
        <time>2022-09-04T16:21:35+0200</time>
      </trkpt>
      <trkpt lat="44.97415" lon="6.6152">
        <ele>2366.405339</ele>
        <time>2022-09-04T16:21:37+0200</time>
      </trkpt>
      <trkpt lat="44.97413" lon="6.6151">
        <ele>2366.818819</ele>
        <time>2022-09-04T16:21:39+0200</time>
      </trkpt>
      <trkpt lat="44.97413" lon="6.615">
        <ele>2367.465058</ele>
        <time>2022-09-04T16:21:41+0200</time>
      </trkpt>
      <trkpt lat="44.97411" lon="6.6149">
        <ele>2367.804045</ele>
        <time>2022-09-04T16:21:43+0200</time>
      </trkpt>
      <trkpt lat="44.9741" lon="6.61479">
        <ele>2368.307156</ele>
        <time>2022-09-04T16:21:45+0200</time>
      </trkpt>
      <trkpt lat="44.97407" lon="6.61468">
        <ele>2368.852686</ele>
        <time>2022-09-04T16:21:47+0200</time>
      </trkpt>
      <trkpt lat="44.97405" lon="6.61458">
        <ele>2368.881542</ele>
        <time>2022-09-04T16:21:49+0200</time>
      </trkpt>
      <trkpt lat="44.97402" lon="6.61448">
        <ele>2369.050566</ele>
        <time>2022-09-04T16:21:51+0200</time>
      </trkpt>
      <trkpt lat="44.97399" lon="6.61438">
        <ele>2369.127306</ele>
        <time>2022-09-04T16:21:53+0200</time>
      </trkpt>
      <trkpt lat="44.97395" lon="6.61428">
        <ele>2369.007471</ele>
        <time>2022-09-04T16:21:55+0200</time>
      </trkpt>
      <trkpt lat="44.97393" lon="6.61418">
        <ele>2368.966907</ele>
        <time>2022-09-04T16:21:57+0200</time>
      </trkpt>
      <trkpt lat="44.97389" lon="6.61409">
        <ele>2368.497575</ele>
        <time>2022-09-04T16:21:59+0200</time>
      </trkpt>
      <trkpt lat="44.97386" lon="6.61399">
        <ele>2368.5005</ele>
        <time>2022-09-04T16:22:01+0200</time>
      </trkpt>
      <trkpt lat="44.97384" lon="6.61389">
        <ele>2368.725188</ele>
        <time>2022-09-04T16:22:03+0200</time>
      </trkpt>
      <trkpt lat="44.97381" lon="6.61379">
        <ele>2368.626582</ele>
        <time>2022-09-04T16:22:05+0200</time>
      </trkpt>
      <trkpt lat="44.97382" lon="6.61369">
        <ele>2368.363248</ele>
        <time>2022-09-04T16:22:07+0200</time>
      </trkpt>
      <trkpt lat="44.97382" lon="6.61358">
        <ele>2368.176438</ele>
        <time>2022-09-04T16:22:09+0200</time>
      </trkpt>
      <trkpt lat="44.97384" lon="6.61347">
        <ele>2367.972266</ele>
        <time>2022-09-04T16:22:11+0200</time>
      </trkpt>
      <trkpt lat="44.97386" lon="6.61335">
        <ele>2368.048844</ele>
        <time>2022-09-04T16:22:13+0200</time>
      </trkpt>
      <trkpt lat="44.97389" lon="6.61324">
        <ele>2368.595012</ele>
        <time>2022-09-04T16:22:15+0200</time>
      </trkpt>
      <trkpt lat="44.97392" lon="6.61313">
        <ele>2368.687172</ele>
        <time>2022-09-04T16:22:17+0200</time>
      </trkpt>
      <trkpt lat="44.97395" lon="6.61302">
        <ele>2368.856494</ele>
        <time>2022-09-04T16:22:19+0200</time>
      </trkpt>
      <trkpt lat="44.97398" lon="6.61291">
        <ele>2369.256904</ele>
        <time>2022-09-04T16:22:21+0200</time>
      </trkpt>
      <trkpt lat="44.974" lon="6.6128">
        <ele>2369.437928</ele>
        <time>2022-09-04T16:22:23+0200</time>
      </trkpt>
      <trkpt lat="44.97404" lon="6.61269">
        <ele>2369.617158</ele>
        <time>2022-09-04T16:22:25+0200</time>
      </trkpt>
      <trkpt lat="44.97406" lon="6.61259">
        <ele>2370.133897</ele>
        <time>2022-09-04T16:22:27+0200</time>
      </trkpt>
      <trkpt lat="44.97409" lon="6.61249">
        <ele>2370.300451</ele>
        <time>2022-09-04T16:22:29+0200</time>
      </trkpt>
      <trkpt lat="44.97411" lon="6.61239">
        <ele>2370.445103</ele>
        <time>2022-09-04T16:22:31+0200</time>
      </trkpt>
      <trkpt lat="44.97414" lon="6.61234">
        <ele>2370.352145</ele>
        <time>2022-09-04T16:22:32+0200</time>
      </trkpt>
      <trkpt lat="44.97418" lon="6.61223">
        <ele>2370.317064</ele>
        <time>2022-09-04T16:22:34+0200</time>
      </trkpt>
      <trkpt lat="44.9742" lon="6.61213">
        <ele>2370.61135</ele>
        <time>2022-09-04T16:22:36+0200</time>
      </trkpt>
      <trkpt lat="44.97424" lon="6.61204">
        <ele>2370.490555</ele>
        <time>2022-09-04T16:22:38+0200</time>
      </trkpt>
      <trkpt lat="44.97429" lon="6.61196">
        <ele>2370.491071</ele>
        <time>2022-09-04T16:22:40+0200</time>
      </trkpt>
      <trkpt lat="44.97433" lon="6.61192">
        <ele>2370.500366</ele>
        <time>2022-09-04T16:22:41+0200</time>
      </trkpt>
      <trkpt lat="44.97437" lon="6.61184">
        <ele>2370.581748</ele>
        <time>2022-09-04T16:22:43+0200</time>
      </trkpt>
      <trkpt lat="44.97441" lon="6.61174">
        <ele>2371.053084</ele>
        <time>2022-09-04T16:22:45+0200</time>
      </trkpt>
      <trkpt lat="44.97443" lon="6.61164">
        <ele>2371.290841</ele>
        <time>2022-09-04T16:22:47+0200</time>
      </trkpt>
      <trkpt lat="44.97444" lon="6.61154">
        <ele>2371.498139</ele>
        <time>2022-09-04T16:22:49+0200</time>
      </trkpt>
      <trkpt lat="44.97443" lon="6.61145">
        <ele>2372.033971</ele>
        <time>2022-09-04T16:22:51+0200</time>
      </trkpt>
      <trkpt lat="44.97441" lon="6.61135">
        <ele>2372.636617</ele>
        <time>2022-09-04T16:22:53+0200</time>
      </trkpt>
      <trkpt lat="44.9744" lon="6.61125">
        <ele>2373.125297</ele>
        <time>2022-09-04T16:22:55+0200</time>
      </trkpt>
      <trkpt lat="44.97437" lon="6.61115">
        <ele>2373.341558</ele>
        <time>2022-09-04T16:22:57+0200</time>
      </trkpt>
      <trkpt lat="44.97434" lon="6.61105">
        <ele>2373.742576</ele>
        <time>2022-09-04T16:22:59+0200</time>
      </trkpt>
      <trkpt lat="44.97431" lon="6.61095">
        <ele>2374.313276</ele>
        <time>2022-09-04T16:23:01+0200</time>
      </trkpt>
      <trkpt lat="44.97427" lon="6.61084">
        <ele>2374.507394</ele>
        <time>2022-09-04T16:23:03+0200</time>
      </trkpt>
      <trkpt lat="44.97422" lon="6.61075">
        <ele>2375.288858</ele>
        <time>2022-09-04T16:23:05+0200</time>
      </trkpt>
      <trkpt lat="44.97416" lon="6.61068">
        <ele>2376.211386</ele>
        <time>2022-09-04T16:23:07+0200</time>
      </trkpt>
      <trkpt lat="44.9741" lon="6.61062">
        <ele>2377.335535</ele>
        <time>2022-09-04T16:23:09+0200</time>
      </trkpt>
      <trkpt lat="44.97405" lon="6.61056">
        <ele>2377.306783</ele>
        <time>2022-09-04T16:23:11+0200</time>
      </trkpt>
      <trkpt lat="44.97399" lon="6.61052">
        <ele>2377.55702</ele>
        <time>2022-09-04T16:23:13+0200</time>
      </trkpt>
      <trkpt lat="44.97392" lon="6.61046">
        <ele>2378.208425</ele>
        <time>2022-09-04T16:23:15+0200</time>
      </trkpt>
      <trkpt lat="44.97386" lon="6.61041">
        <ele>2377.884238</ele>
        <time>2022-09-04T16:23:17+0200</time>
      </trkpt>
      <trkpt lat="44.97379" lon="6.61036">
        <ele>2378.08437</ele>
        <time>2022-09-04T16:23:19+0200</time>
      </trkpt>
      <trkpt lat="44.97371" lon="6.61032">
        <ele>2377.978611</ele>
        <time>2022-09-04T16:23:21+0200</time>
      </trkpt>
      <trkpt lat="44.97364" lon="6.61027">
        <ele>2377.935088</ele>
        <time>2022-09-04T16:23:23+0200</time>
      </trkpt>
      <trkpt lat="44.97356" lon="6.61022">
        <ele>2377.641383</ele>
        <time>2022-09-04T16:23:25+0200</time>
      </trkpt>
      <trkpt lat="44.97349" lon="6.61017">
        <ele>2377.898468</ele>
        <time>2022-09-04T16:23:27+0200</time>
      </trkpt>
      <trkpt lat="44.97342" lon="6.61012">
        <ele>2377.195596</ele>
        <time>2022-09-04T16:23:29+0200</time>
      </trkpt>
      <trkpt lat="44.97335" lon="6.61009">
        <ele>2376.868516</ele>
        <time>2022-09-04T16:23:31+0200</time>
      </trkpt>
      <trkpt lat="44.97331" lon="6.61009">
        <ele>2376.611406</ele>
        <time>2022-09-04T16:23:32+0200</time>
      </trkpt>
      <trkpt lat="44.97323" lon="6.61006">
        <ele>2376.578541</ele>
        <time>2022-09-04T16:23:34+0200</time>
      </trkpt>
      <trkpt lat="44.97315" lon="6.61005">
        <ele>2376.823577</ele>
        <time>2022-09-04T16:23:36+0200</time>
      </trkpt>
      <trkpt lat="44.97307" lon="6.61005">
        <ele>2377.231198</ele>
        <time>2022-09-04T16:23:38+0200</time>
      </trkpt>
      <trkpt lat="44.97299" lon="6.61007">
        <ele>2378.040272</ele>
        <time>2022-09-04T16:23:40+0200</time>
      </trkpt>
      <trkpt lat="44.97293" lon="6.61008">
        <ele>2377.680827</ele>
        <time>2022-09-04T16:23:42+0200</time>
      </trkpt>
      <trkpt lat="44.97286" lon="6.61005">
        <ele>2376.563574</ele>
        <time>2022-09-04T16:23:44+0200</time>
      </trkpt>
      <trkpt lat="44.97281" lon="6.60999">
        <ele>2376.361612</ele>
        <time>2022-09-04T16:23:46+0200</time>
      </trkpt>
      <trkpt lat="44.97277" lon="6.6099">
        <ele>2376.642032</ele>
        <time>2022-09-04T16:23:48+0200</time>
      </trkpt>
      <trkpt lat="44.97273" lon="6.60981">
        <ele>2377.290125</ele>
        <time>2022-09-04T16:23:50+0200</time>
      </trkpt>
      <trkpt lat="44.9727" lon="6.60974">
        <ele>2377.680095</ele>
        <time>2022-09-04T16:23:52+0200</time>
      </trkpt>
      <trkpt lat="44.97265" lon="6.6097">
        <ele>2378.393064</ele>
        <time>2022-09-04T16:23:54+0200</time>
      </trkpt>
      <trkpt lat="44.97259" lon="6.60966">
        <ele>2378.627231</ele>
        <time>2022-09-04T16:23:56+0200</time>
      </trkpt>
      <trkpt lat="44.97252" lon="6.60961">
        <ele>2378.845262</ele>
        <time>2022-09-04T16:23:58+0200</time>
      </trkpt>
      <trkpt lat="44.97245" lon="6.60955">
        <ele>2379.310054</ele>
        <time>2022-09-04T16:24:00+0200</time>
      </trkpt>
      <trkpt lat="44.97238" lon="6.60952">
        <ele>2379.307475</ele>
        <time>2022-09-04T16:24:02+0200</time>
      </trkpt>
      <trkpt lat="44.9723" lon="6.60951">
        <ele>2379.367153</ele>
        <time>2022-09-04T16:24:04+0200</time>
      </trkpt>
      <trkpt lat="44.97222" lon="6.60949">
        <ele>2379.133265</ele>
        <time>2022-09-04T16:24:06+0200</time>
      </trkpt>
      <trkpt lat="44.97214" lon="6.60948">
        <ele>2379.462429</ele>
        <time>2022-09-04T16:24:08+0200</time>
      </trkpt>
      <trkpt lat="44.97206" lon="6.60949">
        <ele>2380.16394</ele>
        <time>2022-09-04T16:24:10+0200</time>
      </trkpt>
      <trkpt lat="44.97198" lon="6.6095">
        <ele>2381.12443</ele>
        <time>2022-09-04T16:24:12+0200</time>
      </trkpt>
      <trkpt lat="44.9719" lon="6.6095">
        <ele>2381.533133</ele>
        <time>2022-09-04T16:24:14+0200</time>
      </trkpt>
      <trkpt lat="44.97181" lon="6.60952">
        <ele>2381.687982</ele>
        <time>2022-09-04T16:24:16+0200</time>
      </trkpt>
      <trkpt lat="44.97173" lon="6.60953">
        <ele>2381.758564</ele>
        <time>2022-09-04T16:24:18+0200</time>
      </trkpt>
      <trkpt lat="44.97165" lon="6.60955">
        <ele>2381.417789</ele>
        <time>2022-09-04T16:24:20+0200</time>
      </trkpt>
      <trkpt lat="44.97157" lon="6.60956">
        <ele>2382.084326</ele>
        <time>2022-09-04T16:24:22+0200</time>
      </trkpt>
      <trkpt lat="44.97148" lon="6.60958">
        <ele>2382.035397</ele>
        <time>2022-09-04T16:24:24+0200</time>
      </trkpt>
      <trkpt lat="44.97143" lon="6.60959">
        <ele>2382.12262</ele>
        <time>2022-09-04T16:24:25+0200</time>
      </trkpt>
      <trkpt lat="44.97138" lon="6.60961">
        <ele>2382.480072</ele>
        <time>2022-09-04T16:24:26+0200</time>
      </trkpt>
      <trkpt lat="44.97133" lon="6.60962">
        <ele>2382.689179</ele>
        <time>2022-09-04T16:24:27+0200</time>
      </trkpt>
      <trkpt lat="44.97129" lon="6.60963">
        <ele>2382.937137</ele>
        <time>2022-09-04T16:24:28+0200</time>
      </trkpt>
      <trkpt lat="44.9712" lon="6.60966">
        <ele>2383.100034</ele>
        <time>2022-09-04T16:24:30+0200</time>
      </trkpt>
      <trkpt lat="44.97112" lon="6.6097">
        <ele>2383.307222</ele>
        <time>2022-09-04T16:24:32+0200</time>
      </trkpt>
      <trkpt lat="44.97104" lon="6.60973">
        <ele>2382.791241</ele>
        <time>2022-09-04T16:24:34+0200</time>
      </trkpt>
      <trkpt lat="44.97097" lon="6.60977">
        <ele>2382.071108</ele>
        <time>2022-09-04T16:24:36+0200</time>
      </trkpt>
      <trkpt lat="44.97089" lon="6.6098">
        <ele>2381.907925</ele>
        <time>2022-09-04T16:24:38+0200</time>
      </trkpt>
      <trkpt lat="44.97082" lon="6.60982">
        <ele>2381.243549</ele>
        <time>2022-09-04T16:24:40+0200</time>
      </trkpt>
      <trkpt lat="44.97074" lon="6.60982">
        <ele>2381.180348</ele>
        <time>2022-09-04T16:24:42+0200</time>
      </trkpt>
      <trkpt lat="44.97065" lon="6.60983">
        <ele>2380.880761</ele>
        <time>2022-09-04T16:24:44+0200</time>
      </trkpt>
      <trkpt lat="44.97057" lon="6.60983">
        <ele>2380.710231</ele>
        <time>2022-09-04T16:24:46+0200</time>
      </trkpt>
      <trkpt lat="44.97049" lon="6.60981">
        <ele>2380.517867</ele>
        <time>2022-09-04T16:24:48+0200</time>
      </trkpt>
      <trkpt lat="44.97041" lon="6.60978">
        <ele>2380.759888</ele>
        <time>2022-09-04T16:24:50+0200</time>
      </trkpt>
      <trkpt lat="44.97034" lon="6.60971">
        <ele>2381.651374</ele>
        <time>2022-09-04T16:24:52+0200</time>
      </trkpt>
      <trkpt lat="44.97028" lon="6.60964">
        <ele>2382.316389</ele>
        <time>2022-09-04T16:24:54+0200</time>
      </trkpt>
      <trkpt lat="44.97022" lon="6.60956">
        <ele>2383.167078</ele>
        <time>2022-09-04T16:24:56+0200</time>
      </trkpt>
      <trkpt lat="44.97017" lon="6.60946">
        <ele>2383.813931</ele>
        <time>2022-09-04T16:24:58+0200</time>
      </trkpt>
      <trkpt lat="44.97013" lon="6.60935">
        <ele>2384.511565</ele>
        <time>2022-09-04T16:25:00+0200</time>
      </trkpt>
      <trkpt lat="44.9701" lon="6.60925">
        <ele>2385.081239</ele>
        <time>2022-09-04T16:25:02+0200</time>
      </trkpt>
      <trkpt lat="44.97009" lon="6.60914">
        <ele>2384.899515</ele>
        <time>2022-09-04T16:25:04+0200</time>
      </trkpt>
      <trkpt lat="44.97007" lon="6.60904">
        <ele>2384.647372</ele>
        <time>2022-09-04T16:25:06+0200</time>
      </trkpt>
      <trkpt lat="44.97007" lon="6.60893">
        <ele>2384.380243</ele>
        <time>2022-09-04T16:25:08+0200</time>
      </trkpt>
      <trkpt lat="44.97007" lon="6.60883">
        <ele>2384.105496</ele>
        <time>2022-09-04T16:25:10+0200</time>
      </trkpt>
      <trkpt lat="44.97005" lon="6.60871">
        <ele>2384.450871</ele>
        <time>2022-09-04T16:25:12+0200</time>
      </trkpt>
      <trkpt lat="44.97002" lon="6.6086">
        <ele>2384.4202</ele>
        <time>2022-09-04T16:25:14+0200</time>
      </trkpt>
      <trkpt lat="44.96999" lon="6.60852">
        <ele>2384.016794</ele>
        <time>2022-09-04T16:25:16+0200</time>
      </trkpt>
      <trkpt lat="44.96995" lon="6.60843">
        <ele>2384.42103</ele>
        <time>2022-09-04T16:25:18+0200</time>
      </trkpt>
      <trkpt lat="44.96989" lon="6.60835">
        <ele>2384.73127</ele>
        <time>2022-09-04T16:25:20+0200</time>
      </trkpt>
      <trkpt lat="44.96984" lon="6.60828">
        <ele>2385.218625</ele>
        <time>2022-09-04T16:25:22+0200</time>
      </trkpt>
      <trkpt lat="44.96978" lon="6.60821">
        <ele>2385.55945</ele>
        <time>2022-09-04T16:25:24+0200</time>
      </trkpt>
      <trkpt lat="44.96974" lon="6.60813">
        <ele>2386.003019</ele>
        <time>2022-09-04T16:25:26+0200</time>
      </trkpt>
      <trkpt lat="44.96968" lon="6.60806">
        <ele>2386.384968</ele>
        <time>2022-09-04T16:25:28+0200</time>
      </trkpt>
      <trkpt lat="44.96962" lon="6.60801">
        <ele>2386.49349</ele>
        <time>2022-09-04T16:25:30+0200</time>
      </trkpt>
      <trkpt lat="44.96956" lon="6.60795">
        <ele>2386.947238</ele>
        <time>2022-09-04T16:25:32+0200</time>
      </trkpt>
      <trkpt lat="44.96949" lon="6.6079">
        <ele>2386.500944</ele>
        <time>2022-09-04T16:25:34+0200</time>
      </trkpt>
      <trkpt lat="44.96942" lon="6.60787">
        <ele>2386.335138</ele>
        <time>2022-09-04T16:25:36+0200</time>
      </trkpt>
      <trkpt lat="44.96935" lon="6.60784">
        <ele>2386.162883</ele>
        <time>2022-09-04T16:25:38+0200</time>
      </trkpt>
      <trkpt lat="44.96928" lon="6.60781">
        <ele>2386.75004</ele>
        <time>2022-09-04T16:25:40+0200</time>
      </trkpt>
      <trkpt lat="44.9692" lon="6.60778">
        <ele>2387.09094</ele>
        <time>2022-09-04T16:25:42+0200</time>
      </trkpt>
      <trkpt lat="44.96913" lon="6.60775">
        <ele>2387.515111</ele>
        <time>2022-09-04T16:25:44+0200</time>
      </trkpt>
      <trkpt lat="44.96906" lon="6.60773">
        <ele>2388.031284</ele>
        <time>2022-09-04T16:25:46+0200</time>
      </trkpt>
      <trkpt lat="44.96898" lon="6.60771">
        <ele>2388.446003</ele>
        <time>2022-09-04T16:25:48+0200</time>
      </trkpt>
      <trkpt lat="44.9689" lon="6.60771">
        <ele>2388.79796</ele>
        <time>2022-09-04T16:25:50+0200</time>
      </trkpt>
      <trkpt lat="44.96883" lon="6.60769">
        <ele>2388.725265</ele>
        <time>2022-09-04T16:25:52+0200</time>
      </trkpt>
      <trkpt lat="44.96875" lon="6.60767">
        <ele>2388.880614</ele>
        <time>2022-09-04T16:25:54+0200</time>
      </trkpt>
      <trkpt lat="44.96868" lon="6.60766">
        <ele>2389.097229</ele>
        <time>2022-09-04T16:25:56+0200</time>
      </trkpt>
      <trkpt lat="44.9686" lon="6.60765">
        <ele>2389.54688</ele>
        <time>2022-09-04T16:25:58+0200</time>
      </trkpt>
      <trkpt lat="44.96853" lon="6.60763">
        <ele>2389.465009</ele>
        <time>2022-09-04T16:26:00+0200</time>
      </trkpt>
      <trkpt lat="44.96844" lon="6.60762">
        <ele>2389.494619</ele>
        <time>2022-09-04T16:26:02+0200</time>
      </trkpt>
      <trkpt lat="44.96836" lon="6.6076">
        <ele>2389.813609</ele>
        <time>2022-09-04T16:26:04+0200</time>
      </trkpt>
      <trkpt lat="44.96828" lon="6.60758">
        <ele>2389.771873</ele>
        <time>2022-09-04T16:26:06+0200</time>
      </trkpt>
      <trkpt lat="44.9682" lon="6.60757">
        <ele>2389.293594</ele>
        <time>2022-09-04T16:26:08+0200</time>
      </trkpt>
      <trkpt lat="44.96812" lon="6.60757">
        <ele>2389.047817</ele>
        <time>2022-09-04T16:26:10+0200</time>
      </trkpt>
      <trkpt lat="44.96803" lon="6.60754">
        <ele>2388.961969</ele>
        <time>2022-09-04T16:26:12+0200</time>
      </trkpt>
      <trkpt lat="44.96794" lon="6.60754">
        <ele>2389.344465</ele>
        <time>2022-09-04T16:26:14+0200</time>
      </trkpt>
      <trkpt lat="44.96785" lon="6.60756">
        <ele>2389.93726</ele>
        <time>2022-09-04T16:26:16+0200</time>
      </trkpt>
      <trkpt lat="44.96777" lon="6.60759">
        <ele>2390.71859</ele>
        <time>2022-09-04T16:26:18+0200</time>
      </trkpt>
      <trkpt lat="44.9677" lon="6.60765">
        <ele>2391.302752</ele>
        <time>2022-09-04T16:26:20+0200</time>
      </trkpt>
      <trkpt lat="44.96763" lon="6.60771">
        <ele>2392.087585</ele>
        <time>2022-09-04T16:26:22+0200</time>
      </trkpt>
      <trkpt lat="44.96757" lon="6.60779">
        <ele>2392.515352</ele>
        <time>2022-09-04T16:26:24+0200</time>
      </trkpt>
      <trkpt lat="44.96751" lon="6.60788">
        <ele>2393.292235</ele>
        <time>2022-09-04T16:26:26+0200</time>
      </trkpt>
      <trkpt lat="44.96744" lon="6.60795">
        <ele>2393.014119</ele>
        <time>2022-09-04T16:26:28+0200</time>
      </trkpt>
      <trkpt lat="44.96738" lon="6.60802">
        <ele>2392.95583</ele>
        <time>2022-09-04T16:26:30+0200</time>
      </trkpt>
      <trkpt lat="44.96733" lon="6.60812">
        <ele>2392.802408</ele>
        <time>2022-09-04T16:26:32+0200</time>
      </trkpt>
      <trkpt lat="44.96726" lon="6.60818">
        <ele>2392.578204</ele>
        <time>2022-09-04T16:26:34+0200</time>
      </trkpt>
      <trkpt lat="44.96721" lon="6.60821">
        <ele>2392.595998</ele>
        <time>2022-09-04T16:26:35+0200</time>
      </trkpt>
      <trkpt lat="44.96713" lon="6.60826">
        <ele>2392.678948</ele>
        <time>2022-09-04T16:26:37+0200</time>
      </trkpt>
      <trkpt lat="44.96707" lon="6.60832">
        <ele>2392.68557</ele>
        <time>2022-09-04T16:26:39+0200</time>
      </trkpt>
      <trkpt lat="44.96703" lon="6.60836">
        <ele>2392.656237</ele>
        <time>2022-09-04T16:26:40+0200</time>
      </trkpt>
      <trkpt lat="44.96697" lon="6.60845">
        <ele>2392.885427</ele>
        <time>2022-09-04T16:26:42+0200</time>
      </trkpt>
      <trkpt lat="44.96692" lon="6.60854">
        <ele>2392.95012</ele>
        <time>2022-09-04T16:26:44+0200</time>
      </trkpt>
      <trkpt lat="44.96688" lon="6.60865">
        <ele>2393.459984</ele>
        <time>2022-09-04T16:26:46+0200</time>
      </trkpt>
      <trkpt lat="44.96684" lon="6.60875">
        <ele>2393.723305</ele>
        <time>2022-09-04T16:26:48+0200</time>
      </trkpt>
      <trkpt lat="44.96678" lon="6.60884">
        <ele>2393.762821</ele>
        <time>2022-09-04T16:26:50+0200</time>
      </trkpt>
      <trkpt lat="44.96673" lon="6.60893">
        <ele>2394.00859</ele>
        <time>2022-09-04T16:26:52+0200</time>
      </trkpt>
      <trkpt lat="44.96667" lon="6.60902">
        <ele>2394.079229</ele>
        <time>2022-09-04T16:26:54+0200</time>
      </trkpt>
      <trkpt lat="44.96663" lon="6.60907">
        <ele>2393.911769</ele>
        <time>2022-09-04T16:26:55+0200</time>
      </trkpt>
      <trkpt lat="44.96657" lon="6.60915">
        <ele>2394.070232</ele>
        <time>2022-09-04T16:26:57+0200</time>
      </trkpt>
      <trkpt lat="44.96651" lon="6.60923">
        <ele>2394.012281</ele>
        <time>2022-09-04T16:26:59+0200</time>
      </trkpt>
      <trkpt lat="44.96646" lon="6.60931">
        <ele>2394.130878</ele>
        <time>2022-09-04T16:27:01+0200</time>
      </trkpt>
      <trkpt lat="44.9664" lon="6.60937">
        <ele>2394.353916</ele>
        <time>2022-09-04T16:27:03+0200</time>
      </trkpt>
      <trkpt lat="44.96634" lon="6.60945">
        <ele>2394.322175</ele>
        <time>2022-09-04T16:27:05+0200</time>
      </trkpt>
      <trkpt lat="44.96629" lon="6.60953">
        <ele>2394.02849</ele>
        <time>2022-09-04T16:27:07+0200</time>
      </trkpt>
      <trkpt lat="44.96625" lon="6.60957">
        <ele>2393.896546</ele>
        <time>2022-09-04T16:27:08+0200</time>
      </trkpt>
      <trkpt lat="44.96619" lon="6.60964">
        <ele>2393.86839</ele>
        <time>2022-09-04T16:27:10+0200</time>
      </trkpt>
      <trkpt lat="44.96613" lon="6.60972">
        <ele>2393.88065</ele>
        <time>2022-09-04T16:27:12+0200</time>
      </trkpt>
      <trkpt lat="44.96606" lon="6.6098">
        <ele>2393.892634</ele>
        <time>2022-09-04T16:27:14+0200</time>
      </trkpt>
      <trkpt lat="44.96601" lon="6.60988">
        <ele>2394.171576</ele>
        <time>2022-09-04T16:27:16+0200</time>
      </trkpt>
      <trkpt lat="44.96595" lon="6.60994">
        <ele>2394.735486</ele>
        <time>2022-09-04T16:27:18+0200</time>
      </trkpt>
      <trkpt lat="44.96589" lon="6.61001">
        <ele>2394.88896</ele>
        <time>2022-09-04T16:27:20+0200</time>
      </trkpt>
      <trkpt lat="44.96583" lon="6.61008">
        <ele>2394.767024</ele>
        <time>2022-09-04T16:27:22+0200</time>
      </trkpt>
      <trkpt lat="44.96575" lon="6.61012">
        <ele>2395.100332</ele>
        <time>2022-09-04T16:27:24+0200</time>
      </trkpt>
      <trkpt lat="44.96567" lon="6.61015">
        <ele>2395.207041</ele>
        <time>2022-09-04T16:27:26+0200</time>
      </trkpt>
      <trkpt lat="44.96559" lon="6.61016">
        <ele>2395.571496</ele>
        <time>2022-09-04T16:27:28+0200</time>
      </trkpt>
      <trkpt lat="44.96551" lon="6.61018">
        <ele>2395.743394</ele>
        <time>2022-09-04T16:27:30+0200</time>
      </trkpt>
      <trkpt lat="44.96543" lon="6.61019">
        <ele>2396.396671</ele>
        <time>2022-09-04T16:27:32+0200</time>
      </trkpt>
      <trkpt lat="44.96535" lon="6.61021">
        <ele>2396.668653</ele>
        <time>2022-09-04T16:27:34+0200</time>
      </trkpt>
      <trkpt lat="44.96526" lon="6.61022">
        <ele>2397.384521</ele>
        <time>2022-09-04T16:27:36+0200</time>
      </trkpt>
      <trkpt lat="44.96519" lon="6.61025">
        <ele>2397.402472</ele>
        <time>2022-09-04T16:27:38+0200</time>
      </trkpt>
      <trkpt lat="44.9651" lon="6.61027">
        <ele>2397.746154</ele>
        <time>2022-09-04T16:27:40+0200</time>
      </trkpt>
      <trkpt lat="44.96503" lon="6.61029">
        <ele>2398.359207</ele>
        <time>2022-09-04T16:27:42+0200</time>
      </trkpt>
      <trkpt lat="44.96496" lon="6.61032">
        <ele>2398.370187</ele>
        <time>2022-09-04T16:27:44+0200</time>
      </trkpt>
      <trkpt lat="44.96488" lon="6.61035">
        <ele>2398.533626</ele>
        <time>2022-09-04T16:27:46+0200</time>
      </trkpt>
      <trkpt lat="44.96481" lon="6.61038">
        <ele>2398.966107</ele>
        <time>2022-09-04T16:27:48+0200</time>
      </trkpt>
      <trkpt lat="44.96473" lon="6.61041">
        <ele>2399.523131</ele>
        <time>2022-09-04T16:27:50+0200</time>
      </trkpt>
      <trkpt lat="44.96467" lon="6.61047">
        <ele>2400.208205</ele>
        <time>2022-09-04T16:27:52+0200</time>
      </trkpt>
      <trkpt lat="44.96459" lon="6.61052">
        <ele>2400.522955</ele>
        <time>2022-09-04T16:27:54+0200</time>
      </trkpt>
      <trkpt lat="44.96452" lon="6.61056">
        <ele>2400.514271</ele>
        <time>2022-09-04T16:27:56+0200</time>
      </trkpt>
      <trkpt lat="44.96446" lon="6.61062">
        <ele>2400.217429</ele>
        <time>2022-09-04T16:27:58+0200</time>
      </trkpt>
      <trkpt lat="44.96439" lon="6.61068">
        <ele>2400.334097</ele>
        <time>2022-09-04T16:28:00+0200</time>
      </trkpt>
      <trkpt lat="44.96433" lon="6.61073">
        <ele>2400.04782</ele>
        <time>2022-09-04T16:28:02+0200</time>
      </trkpt>
      <trkpt lat="44.96427" lon="6.6108">
        <ele>2400.165431</ele>
        <time>2022-09-04T16:28:04+0200</time>
      </trkpt>
      <trkpt lat="44.96421" lon="6.61087">
        <ele>2399.986323</ele>
        <time>2022-09-04T16:28:06+0200</time>
      </trkpt>
      <trkpt lat="44.96414" lon="6.61092">
        <ele>2399.935296</ele>
        <time>2022-09-04T16:28:08+0200</time>
      </trkpt>
      <trkpt lat="44.96408" lon="6.61099">
        <ele>2400.161885</ele>
        <time>2022-09-04T16:28:10+0200</time>
      </trkpt>
      <trkpt lat="44.96402" lon="6.61106">
        <ele>2399.515961</ele>
        <time>2022-09-04T16:28:12+0200</time>
      </trkpt>
      <trkpt lat="44.96396" lon="6.61111">
        <ele>2399.858728</ele>
        <time>2022-09-04T16:28:14+0200</time>
      </trkpt>
      <trkpt lat="44.96389" lon="6.61114">
        <ele>2399.829797</ele>
        <time>2022-09-04T16:28:16+0200</time>
      </trkpt>
      <trkpt lat="44.96381" lon="6.61117">
        <ele>2400.173145</ele>
        <time>2022-09-04T16:28:18+0200</time>
      </trkpt>
      <trkpt lat="44.96374" lon="6.61119">
        <ele>2400.237591</ele>
        <time>2022-09-04T16:28:20+0200</time>
      </trkpt>
      <trkpt lat="44.96368" lon="6.61119">
        <ele>2400.434233</ele>
        <time>2022-09-04T16:28:22+0200</time>
      </trkpt>
      <trkpt lat="44.96361" lon="6.61119">
        <ele>2400.654066</ele>
        <time>2022-09-04T16:28:24+0200</time>
      </trkpt>
      <trkpt lat="44.96355" lon="6.61121">
        <ele>2400.938798</ele>
        <time>2022-09-04T16:28:26+0200</time>
      </trkpt>
      <trkpt lat="44.96348" lon="6.61122">
        <ele>2401.107188</ele>
        <time>2022-09-04T16:28:28+0200</time>
      </trkpt>
      <trkpt lat="44.96341" lon="6.61123">
        <ele>2401.510703</ele>
        <time>2022-09-04T16:28:30+0200</time>
      </trkpt>
      <trkpt lat="44.96334" lon="6.61121">
        <ele>2401.696804</ele>
        <time>2022-09-04T16:28:32+0200</time>
      </trkpt>
      <trkpt lat="44.96327" lon="6.61118">
        <ele>2402.125515</ele>
        <time>2022-09-04T16:28:34+0200</time>
      </trkpt>
      <trkpt lat="44.96319" lon="6.61114">
        <ele>2402.375231</ele>
        <time>2022-09-04T16:28:36+0200</time>
      </trkpt>
      <trkpt lat="44.96312" lon="6.61108">
        <ele>2402.136081</ele>
        <time>2022-09-04T16:28:38+0200</time>
      </trkpt>
      <trkpt lat="44.96304" lon="6.61105">
        <ele>2402.403384</ele>
        <time>2022-09-04T16:28:40+0200</time>
      </trkpt>
      <trkpt lat="44.96298" lon="6.61099">
        <ele>2403.000678</ele>
        <time>2022-09-04T16:28:42+0200</time>
      </trkpt>
      <trkpt lat="44.96291" lon="6.61095">
        <ele>2403.326543</ele>
        <time>2022-09-04T16:28:44+0200</time>
      </trkpt>
      <trkpt lat="44.96285" lon="6.61094">
        <ele>2403.515061</ele>
        <time>2022-09-04T16:28:46+0200</time>
      </trkpt>
      <trkpt lat="44.96279" lon="6.61092">
        <ele>2404.075827</ele>
        <time>2022-09-04T16:28:48+0200</time>
      </trkpt>
      <trkpt lat="44.96274" lon="6.6109">
        <ele>2404.102788</ele>
        <time>2022-09-04T16:28:50+0200</time>
      </trkpt>
      <trkpt lat="44.96268" lon="6.6109">
        <ele>2403.910976</ele>
        <time>2022-09-04T16:28:52+0200</time>
      </trkpt>
      <trkpt lat="44.96261" lon="6.61087">
        <ele>2403.541376</ele>
        <time>2022-09-04T16:28:54+0200</time>
      </trkpt>
      <trkpt lat="44.96253" lon="6.61084">
        <ele>2403.294172</ele>
        <time>2022-09-04T16:28:56+0200</time>
      </trkpt>
      <trkpt lat="44.96248" lon="6.61081">
        <ele>2402.50542</ele>
        <time>2022-09-04T16:28:57+0200</time>
      </trkpt>
      <trkpt lat="44.96244" lon="6.61079">
        <ele>2402.037623</ele>
        <time>2022-09-04T16:28:58+0200</time>
      </trkpt>
      <trkpt lat="44.96239" lon="6.61077">
        <ele>2401.751174</ele>
        <time>2022-09-04T16:28:59+0200</time>
      </trkpt>
      <trkpt lat="44.96234" lon="6.61076">
        <ele>2401.93553</ele>
        <time>2022-09-04T16:29:00+0200</time>
      </trkpt>
      <trkpt lat="44.96227" lon="6.61072">
        <ele>2402.351611</ele>
        <time>2022-09-04T16:29:02+0200</time>
      </trkpt>
      <trkpt lat="44.96219" lon="6.6107">
        <ele>2402.191216</ele>
        <time>2022-09-04T16:29:04+0200</time>
      </trkpt>
      <trkpt lat="44.96212" lon="6.61073">
        <ele>2402.046381</ele>
        <time>2022-09-04T16:29:06+0200</time>
      </trkpt>
      <trkpt lat="44.96205" lon="6.61071">
        <ele>2402.206982</ele>
        <time>2022-09-04T16:29:08+0200</time>
      </trkpt>
      <trkpt lat="44.96198" lon="6.61069">
        <ele>2402.061377</ele>
        <time>2022-09-04T16:29:10+0200</time>
      </trkpt>
      <trkpt lat="44.9619" lon="6.61068">
        <ele>2402.215552</ele>
        <time>2022-09-04T16:29:12+0200</time>
      </trkpt>
      <trkpt lat="44.96182" lon="6.61068">
        <ele>2402.34002</ele>
        <time>2022-09-04T16:29:14+0200</time>
      </trkpt>
      <trkpt lat="44.96174" lon="6.61062">
        <ele>2402.075285</ele>
        <time>2022-09-04T16:29:16+0200</time>
      </trkpt>
      <trkpt lat="44.9617" lon="6.61057">
        <ele>2401.622829</ele>
        <time>2022-09-04T16:29:17+0200</time>
      </trkpt>
      <trkpt lat="44.96164" lon="6.61057">
        <ele>2400.837315</ele>
        <time>2022-09-04T16:30:52+0200</time>
      </trkpt>
      <trkpt lat="44.96158" lon="6.61061">
        <ele>2401.567921</ele>
        <time>2022-09-04T16:30:54+0200</time>
      </trkpt>
      <trkpt lat="44.96152" lon="6.61062">
        <ele>2401.73856</ele>
        <time>2022-09-04T16:30:56+0200</time>
      </trkpt>
      <trkpt lat="44.96145" lon="6.61064">
        <ele>2402.161361</ele>
        <time>2022-09-04T16:30:58+0200</time>
      </trkpt>
      <trkpt lat="44.96139" lon="6.61067">
        <ele>2401.909928</ele>
        <time>2022-09-04T16:31:00+0200</time>
      </trkpt>
      <trkpt lat="44.96133" lon="6.61075">
        <ele>2401.641381</ele>
        <time>2022-09-04T16:31:02+0200</time>
      </trkpt>
      <trkpt lat="44.9613" lon="6.61084">
        <ele>2401.04506</ele>
        <time>2022-09-04T16:31:04+0200</time>
      </trkpt>
      <trkpt lat="44.96128" lon="6.61094">
        <ele>2401.774433</ele>
        <time>2022-09-04T16:31:06+0200</time>
      </trkpt>
      <trkpt lat="44.96127" lon="6.611">
        <ele>2401.653778</ele>
        <time>2022-09-04T16:31:07+0200</time>
      </trkpt>
      <trkpt lat="44.96126" lon="6.6111">
        <ele>2401.883046</ele>
        <time>2022-09-04T16:31:09+0200</time>
      </trkpt>
      <trkpt lat="44.96125" lon="6.61119">
        <ele>2401.565333</ele>
        <time>2022-09-04T16:31:11+0200</time>
      </trkpt>
      <trkpt lat="44.96124" lon="6.61126">
        <ele>2401.896452</ele>
        <time>2022-09-04T16:31:13+0200</time>
      </trkpt>
      <trkpt lat="44.96124" lon="6.61136">
        <ele>2402.753585</ele>
        <time>2022-09-04T16:31:16+0200</time>
      </trkpt>
      <trkpt lat="44.96124" lon="6.61143">
        <ele>2403.570966</ele>
        <time>2022-09-04T16:31:18+0200</time>
      </trkpt>
      <trkpt lat="44.96125" lon="6.6115">
        <ele>2403.45687</ele>
        <time>2022-09-04T16:31:20+0200</time>
      </trkpt>
      <trkpt lat="44.96126" lon="6.61157">
        <ele>2403.621697</ele>
        <time>2022-09-04T16:31:22+0200</time>
      </trkpt>
      <trkpt lat="44.96125" lon="6.61166">
        <ele>2404.064289</ele>
        <time>2022-09-04T16:31:24+0200</time>
      </trkpt>
      <trkpt lat="44.96124" lon="6.61175">
        <ele>2404.045541</ele>
        <time>2022-09-04T16:31:26+0200</time>
      </trkpt>
      <trkpt lat="44.96123" lon="6.61185">
        <ele>2404.010847</ele>
        <time>2022-09-04T16:31:28+0200</time>
      </trkpt>
      <trkpt lat="44.96123" lon="6.61195">
        <ele>2404.102449</ele>
        <time>2022-09-04T16:31:30+0200</time>
      </trkpt>
      <trkpt lat="44.96122" lon="6.61204">
        <ele>2404.232876</ele>
        <time>2022-09-04T16:31:32+0200</time>
      </trkpt>
      <trkpt lat="44.96123" lon="6.61213">
        <ele>2404.350478</ele>
        <time>2022-09-04T16:31:34+0200</time>
      </trkpt>
      <trkpt lat="44.96122" lon="6.61221">
        <ele>2404.242251</ele>
        <time>2022-09-04T16:31:37+0200</time>
      </trkpt>
      <trkpt lat="44.96123" lon="6.61232">
        <ele>2401.923283</ele>
        <time>2022-09-04T16:31:39+0200</time>
      </trkpt>
      <trkpt lat="44.96121" lon="6.61238">
        <ele>2401.088147</ele>
        <time>2022-09-04T16:31:40+0200</time>
      </trkpt>
      <trkpt lat="44.96118" lon="6.61245">
        <ele>2400.218772</ele>
        <time>2022-09-04T16:31:41+0200</time>
      </trkpt>
      <trkpt lat="44.96116" lon="6.61253">
        <ele>2399.440376</ele>
        <time>2022-09-04T16:31:42+0200</time>
      </trkpt>
      <trkpt lat="44.96115" lon="6.61262">
        <ele>2398.569072</ele>
        <time>2022-09-04T16:31:43+0200</time>
      </trkpt>
      <trkpt lat="44.96114" lon="6.6127">
        <ele>2397.896851</ele>
        <time>2022-09-04T16:31:44+0200</time>
      </trkpt>
      <trkpt lat="44.96111" lon="6.61274">
        <ele>2398.354146</ele>
        <time>2022-09-04T16:31:45+0200</time>
      </trkpt>
      <trkpt lat="44.96107" lon="6.61279">
        <ele>2400.11788</ele>
        <time>2022-09-04T16:31:48+0200</time>
      </trkpt>
      <trkpt lat="44.96105" lon="6.61286">
        <ele>2401.39572</ele>
        <time>2022-09-04T16:31:51+0200</time>
      </trkpt>
      <trkpt lat="44.96102" lon="6.61291">
        <ele>2401.272434</ele>
        <time>2022-09-04T16:31:53+0200</time>
      </trkpt>
      <trkpt lat="44.96096" lon="6.61299">
        <ele>2400.475579</ele>
        <time>2022-09-04T16:31:55+0200</time>
      </trkpt>
      <trkpt lat="44.96093" lon="6.6131">
        <ele>2400.720939</ele>
        <time>2022-09-04T16:31:57+0200</time>
      </trkpt>
      <trkpt lat="44.96093" lon="6.61318">
        <ele>2401.257808</ele>
        <time>2022-09-04T16:31:59+0200</time>
      </trkpt>
      <trkpt lat="44.96093" lon="6.61324">
        <ele>2402.199978</ele>
        <time>2022-09-04T16:32:02+0200</time>
      </trkpt>
      <trkpt lat="44.9609" lon="6.61333">
        <ele>2403.047685</ele>
        <time>2022-09-04T16:32:05+0200</time>
      </trkpt>
      <trkpt lat="44.96087" lon="6.6134">
        <ele>2403.892931</ele>
        <time>2022-09-04T16:32:07+0200</time>
      </trkpt>
      <trkpt lat="44.96081" lon="6.61345">
        <ele>2404.465263</ele>
        <time>2022-09-04T16:32:09+0200</time>
      </trkpt>
      <trkpt lat="44.96075" lon="6.61351">
        <ele>2405.84088</ele>
        <time>2022-09-04T16:32:11+0200</time>
      </trkpt>
      <trkpt lat="44.96072" lon="6.61355">
        <ele>2407.402697</ele>
        <time>2022-09-04T16:32:13+0200</time>
      </trkpt>
      <trkpt lat="44.96067" lon="6.6136">
        <ele>2407.747663</ele>
        <time>2022-09-04T16:32:17+0200</time>
      </trkpt>
      <trkpt lat="44.96064" lon="6.61367">
        <ele>2409.225247</ele>
        <time>2022-09-04T16:32:21+0200</time>
      </trkpt>
      <trkpt lat="44.96059" lon="6.61371">
        <ele>2409.086239</ele>
        <time>2022-09-04T16:32:25+0200</time>
      </trkpt>
      <trkpt lat="44.96055" lon="6.61375">
        <ele>2409.686953</ele>
        <time>2022-09-04T16:32:29+0200</time>
      </trkpt>
      <trkpt lat="44.96052" lon="6.6138">
        <ele>2410.249254</ele>
        <time>2022-09-04T16:32:32+0200</time>
      </trkpt>
      <trkpt lat="44.96049" lon="6.61387">
        <ele>2411.233872</ele>
        <time>2022-09-04T16:32:36+0200</time>
      </trkpt>
      <trkpt lat="44.96045" lon="6.61389">
        <ele>2412.600589</ele>
        <time>2022-09-04T16:32:39+0200</time>
      </trkpt>
      <trkpt lat="44.96039" lon="6.61389">
        <ele>2414.030613</ele>
        <time>2022-09-04T16:32:43+0200</time>
      </trkpt>
      <trkpt lat="44.96034" lon="6.61391">
        <ele>2415.412743</ele>
        <time>2022-09-04T16:32:47+0200</time>
      </trkpt>
      <trkpt lat="44.96029" lon="6.61393">
        <ele>2416.076758</ele>
        <time>2022-09-04T16:32:52+0200</time>
      </trkpt>
      <trkpt lat="44.96023" lon="6.61395">
        <ele>2416.686703</ele>
        <time>2022-09-04T16:32:56+0200</time>
      </trkpt>
      <trkpt lat="44.96017" lon="6.61397">
        <ele>2417.728466</ele>
        <time>2022-09-04T16:33:00+0200</time>
      </trkpt>
      <trkpt lat="44.96013" lon="6.61398">
        <ele>2417.927255</ele>
        <time>2022-09-04T16:33:03+0200</time>
      </trkpt>
      <trkpt lat="44.96008" lon="6.614">
        <ele>2418.16464</ele>
        <time>2022-09-04T16:33:07+0200</time>
      </trkpt>
      <trkpt lat="44.96003" lon="6.61403">
        <ele>2419.212441</ele>
        <time>2022-09-04T16:33:11+0200</time>
      </trkpt>
      <trkpt lat="44.95999" lon="6.61409">
        <ele>2421.289172</ele>
        <time>2022-09-04T16:33:15+0200</time>
      </trkpt>
      <trkpt lat="44.95996" lon="6.61415">
        <ele>2422.016531</ele>
        <time>2022-09-04T16:33:18+0200</time>
      </trkpt>
      <trkpt lat="44.95991" lon="6.61419">
        <ele>2422.180516</ele>
        <time>2022-09-04T16:33:22+0200</time>
      </trkpt>
      <trkpt lat="44.95986" lon="6.61424">
        <ele>2422.583753</ele>
        <time>2022-09-04T16:33:26+0200</time>
      </trkpt>
      <trkpt lat="44.95984" lon="6.6143">
        <ele>2422.910073</ele>
        <time>2022-09-04T16:33:28+0200</time>
      </trkpt>
      <trkpt lat="44.9598" lon="6.61434">
        <ele>2422.462093</ele>
        <time>2022-09-04T16:33:31+0200</time>
      </trkpt>
      <trkpt lat="44.95976" lon="6.61439">
        <ele>2421.830229</ele>
        <time>2022-09-04T16:33:34+0200</time>
      </trkpt>
      <trkpt lat="44.95976" lon="6.61447">
        <ele>2421.346923</ele>
        <time>2022-09-04T16:33:37+0200</time>
      </trkpt>
      <trkpt lat="44.95977" lon="6.61455">
        <ele>2420.581229</ele>
        <time>2022-09-04T16:33:39+0200</time>
      </trkpt>
      <trkpt lat="44.95979" lon="6.61464">
        <ele>2419.204387</ele>
        <time>2022-09-04T16:33:40+0200</time>
      </trkpt>
      <trkpt lat="44.95981" lon="6.61472">
        <ele>2418.909144</ele>
        <time>2022-09-04T16:33:41+0200</time>
      </trkpt>
      <trkpt lat="44.95983" lon="6.6148">
        <ele>2418.227485</ele>
        <time>2022-09-04T16:33:42+0200</time>
      </trkpt>
      <trkpt lat="44.95984" lon="6.6149">
        <ele>2417.466134</ele>
        <time>2022-09-04T16:33:43+0200</time>
      </trkpt>
      <trkpt lat="44.95984" lon="6.615">
        <ele>2415.47442</ele>
        <time>2022-09-04T16:33:44+0200</time>
      </trkpt>
      <trkpt lat="44.95984" lon="6.61512">
        <ele>2414.396357</ele>
        <time>2022-09-04T16:33:45+0200</time>
      </trkpt>
      <trkpt lat="44.95985" lon="6.61523">
        <ele>2414.608057</ele>
        <time>2022-09-04T16:33:46+0200</time>
      </trkpt>
      <trkpt lat="44.95985" lon="6.61534">
        <ele>2414.708589</ele>
        <time>2022-09-04T16:33:47+0200</time>
      </trkpt>
      <trkpt lat="44.95984" lon="6.61544">
        <ele>2414.687023</ele>
        <time>2022-09-04T16:33:48+0200</time>
      </trkpt>
      <trkpt lat="44.95986" lon="6.61551">
        <ele>2414.71449</ele>
        <time>2022-09-04T16:33:49+0200</time>
      </trkpt>
      <trkpt lat="44.95985" lon="6.61558">
        <ele>2413.20396</ele>
        <time>2022-09-04T16:33:51+0200</time>
      </trkpt>
      <trkpt lat="44.95986" lon="6.61565">
        <ele>2412.576596</ele>
        <time>2022-09-04T16:33:53+0200</time>
      </trkpt>
      <trkpt lat="44.95988" lon="6.61575">
        <ele>2411.305074</ele>
        <time>2022-09-04T16:33:55+0200</time>
      </trkpt>
      <trkpt lat="44.95988" lon="6.61582">
        <ele>2410.029903</ele>
        <time>2022-09-04T16:33:57+0200</time>
      </trkpt>
      <trkpt lat="44.95988" lon="6.6159">
        <ele>2408.820458</ele>
        <time>2022-09-04T16:33:59+0200</time>
      </trkpt>
      <trkpt lat="44.95986" lon="6.61596">
        <ele>2407.619849</ele>
        <time>2022-09-04T16:34:00+0200</time>
      </trkpt>
      <trkpt lat="44.95984" lon="6.61604">
        <ele>2407.308033</ele>
        <time>2022-09-04T16:34:01+0200</time>
      </trkpt>
      <trkpt lat="44.9598" lon="6.61609">
        <ele>2407.122383</ele>
        <time>2022-09-04T16:34:02+0200</time>
      </trkpt>
      <trkpt lat="44.95978" lon="6.61617">
        <ele>2407.437788</ele>
        <time>2022-09-04T16:34:03+0200</time>
      </trkpt>
      <trkpt lat="44.95977" lon="6.61623">
        <ele>2408.1694</ele>
        <time>2022-09-04T16:34:04+0200</time>
      </trkpt>
      <trkpt lat="44.95972" lon="6.61627">
        <ele>2407.579783</ele>
        <time>2022-09-04T16:34:07+0200</time>
      </trkpt>
      <trkpt lat="44.95965" lon="6.61623">
        <ele>2406.153788</ele>
        <time>2022-09-04T16:34:09+0200</time>
      </trkpt>
      <trkpt lat="44.95967" lon="6.61631">
        <ele>2401.199907</ele>
        <time>2022-09-04T16:34:38+0200</time>
      </trkpt>
      <trkpt lat="44.95968" lon="6.61638">
        <ele>2400.202389</ele>
        <time>2022-09-04T16:34:39+0200</time>
      </trkpt>
      <trkpt lat="44.9597" lon="6.61648">
        <ele>2398.476832</ele>
        <time>2022-09-04T16:34:41+0200</time>
      </trkpt>
      <trkpt lat="44.95972" lon="6.61657">
        <ele>2396.280042</ele>
        <time>2022-09-04T16:34:45+0200</time>
      </trkpt>
      <trkpt lat="44.95974" lon="6.61663">
        <ele>2394.757834</ele>
        <time>2022-09-04T16:34:46+0200</time>
      </trkpt>
      <trkpt lat="44.95974" lon="6.61671">
        <ele>2392.317326</ele>
        <time>2022-09-04T16:34:47+0200</time>
      </trkpt>
      <trkpt lat="44.95974" lon="6.6168">
        <ele>2390.63981</ele>
        <time>2022-09-04T16:34:48+0200</time>
      </trkpt>
      <trkpt lat="44.95973" lon="6.61688">
        <ele>2389.067028</ele>
        <time>2022-09-04T16:34:49+0200</time>
      </trkpt>
      <trkpt lat="44.95971" lon="6.61694">
        <ele>2388.42991</ele>
        <time>2022-09-04T16:34:50+0200</time>
      </trkpt>
      <trkpt lat="44.95971" lon="6.617">
        <ele>2387.64578</ele>
        <time>2022-09-04T16:34:51+0200</time>
      </trkpt>
      <trkpt lat="44.9597" lon="6.61707">
        <ele>2386.200223</ele>
        <time>2022-09-04T16:34:52+0200</time>
      </trkpt>
      <trkpt lat="44.95971" lon="6.61714">
        <ele>2385.310565</ele>
        <time>2022-09-04T16:34:53+0200</time>
      </trkpt>
      <trkpt lat="44.95971" lon="6.61723">
        <ele>2383.622525</ele>
        <time>2022-09-04T16:34:54+0200</time>
      </trkpt>
      <trkpt lat="44.95973" lon="6.61735">
        <ele>2381.592235</ele>
        <time>2022-09-04T16:34:55+0200</time>
      </trkpt>
      <trkpt lat="44.95974" lon="6.61745">
        <ele>2379.941457</ele>
        <time>2022-09-04T16:34:56+0200</time>
      </trkpt>
      <trkpt lat="44.95974" lon="6.61755">
        <ele>2378.769348</ele>
        <time>2022-09-04T16:34:57+0200</time>
      </trkpt>
      <trkpt lat="44.95973" lon="6.61763">
        <ele>2378.153687</ele>
        <time>2022-09-04T16:34:58+0200</time>
      </trkpt>
      <trkpt lat="44.95972" lon="6.6177">
        <ele>2377.60162</ele>
        <time>2022-09-04T16:34:59+0200</time>
      </trkpt>
      <trkpt lat="44.9597" lon="6.6178">
        <ele>2376.81235</ele>
        <time>2022-09-04T16:35:01+0200</time>
      </trkpt>
      <trkpt lat="44.95972" lon="6.61789">
        <ele>2376.174736</ele>
        <time>2022-09-04T16:35:03+0200</time>
      </trkpt>
      <trkpt lat="44.95974" lon="6.61799">
        <ele>2375.379406</ele>
        <time>2022-09-04T16:35:05+0200</time>
      </trkpt>
      <trkpt lat="44.95971" lon="6.61806">
        <ele>2374.267166</ele>
        <time>2022-09-04T16:35:08+0200</time>
      </trkpt>
      <trkpt lat="44.95969" lon="6.61815">
        <ele>2373.050263</ele>
        <time>2022-09-04T16:35:11+0200</time>
      </trkpt>
      <trkpt lat="44.95971" lon="6.61821">
        <ele>2373.511996</ele>
        <time>2022-09-04T16:35:13+0200</time>
      </trkpt>
      <trkpt lat="44.95968" lon="6.61829">
        <ele>2374.391077</ele>
        <time>2022-09-04T16:35:17+0200</time>
      </trkpt>
      <trkpt lat="44.95966" lon="6.61835">
        <ele>2374.874943</ele>
        <time>2022-09-04T16:35:19+0200</time>
      </trkpt>
      <trkpt lat="44.95964" lon="6.61842">
        <ele>2374.868113</ele>
        <time>2022-09-04T16:35:21+0200</time>
      </trkpt>
      <trkpt lat="44.95963" lon="6.6185">
        <ele>2373.490312</ele>
        <time>2022-09-04T16:35:24+0200</time>
      </trkpt>
      <trkpt lat="44.95959" lon="6.61858">
        <ele>2372.206453</ele>
        <time>2022-09-04T16:35:27+0200</time>
      </trkpt>
      <trkpt lat="44.95957" lon="6.61864">
        <ele>2371.439084</ele>
        <time>2022-09-04T16:35:29+0200</time>
      </trkpt>
      <trkpt lat="44.95955" lon="6.61873">
        <ele>2370.769819</ele>
        <time>2022-09-04T16:35:32+0200</time>
      </trkpt>
      <trkpt lat="44.95955" lon="6.6188">
        <ele>2370.303189</ele>
        <time>2022-09-04T16:35:34+0200</time>
      </trkpt>
      <trkpt lat="44.95954" lon="6.61887">
        <ele>2370.273334</ele>
        <time>2022-09-04T16:35:37+0200</time>
      </trkpt>
      <trkpt lat="44.95952" lon="6.61894">
        <ele>2369.191191</ele>
        <time>2022-09-04T16:35:39+0200</time>
      </trkpt>
      <trkpt lat="44.95949" lon="6.61899">
        <ele>2369.01813</ele>
        <time>2022-09-04T16:35:41+0200</time>
      </trkpt>
      <trkpt lat="44.95943" lon="6.61902">
        <ele>2369.216731</ele>
        <time>2022-09-04T16:35:43+0200</time>
      </trkpt>
      <trkpt lat="44.9594" lon="6.61908">
        <ele>2369.201778</ele>
        <time>2022-09-04T16:35:45+0200</time>
      </trkpt>
      <trkpt lat="44.95937" lon="6.61917">
        <ele>2369.803449</ele>
        <time>2022-09-04T16:35:47+0200</time>
      </trkpt>
      <trkpt lat="44.95931" lon="6.61926">
        <ele>2370.127161</ele>
        <time>2022-09-04T16:35:49+0200</time>
      </trkpt>
      <trkpt lat="44.95926" lon="6.61932">
        <ele>2370.087035</ele>
        <time>2022-09-04T16:35:51+0200</time>
      </trkpt>
      <trkpt lat="44.95921" lon="6.61942">
        <ele>2368.651273</ele>
        <time>2022-09-04T16:35:53+0200</time>
      </trkpt>
      <trkpt lat="44.9592" lon="6.61949">
        <ele>2368.234251</ele>
        <time>2022-09-04T16:35:54+0200</time>
      </trkpt>
      <trkpt lat="44.95919" lon="6.61958">
        <ele>2367.662708</ele>
        <time>2022-09-04T16:35:55+0200</time>
      </trkpt>
      <trkpt lat="44.95918" lon="6.61968">
        <ele>2366.644761</ele>
        <time>2022-09-04T16:35:56+0200</time>
      </trkpt>
      <trkpt lat="44.95919" lon="6.61979">
        <ele>2365.677395</ele>
        <time>2022-09-04T16:35:57+0200</time>
      </trkpt>
      <trkpt lat="44.95917" lon="6.6199">
        <ele>2365.272029</ele>
        <time>2022-09-04T16:35:58+0200</time>
      </trkpt>
      <trkpt lat="44.95913" lon="6.61998">
        <ele>2365.088612</ele>
        <time>2022-09-04T16:35:59+0200</time>
      </trkpt>
      <trkpt lat="44.95908" lon="6.62005">
        <ele>2364.799754</ele>
        <time>2022-09-04T16:36:00+0200</time>
      </trkpt>
      <trkpt lat="44.95904" lon="6.62012">
        <ele>2364.833581</ele>
        <time>2022-09-04T16:36:01+0200</time>
      </trkpt>
      <trkpt lat="44.95903" lon="6.6202">
        <ele>2365.292355</ele>
        <time>2022-09-04T16:36:02+0200</time>
      </trkpt>
      <trkpt lat="44.95902" lon="6.62028">
        <ele>2364.681884</ele>
        <time>2022-09-04T16:36:03+0200</time>
      </trkpt>
      <trkpt lat="44.95902" lon="6.62038">
        <ele>2364.162331</ele>
        <time>2022-09-04T16:36:04+0200</time>
      </trkpt>
      <trkpt lat="44.95902" lon="6.62046">
        <ele>2363.677678</ele>
        <time>2022-09-04T16:36:05+0200</time>
      </trkpt>
      <trkpt lat="44.95904" lon="6.62055">
        <ele>2361.161832</ele>
        <time>2022-09-04T16:36:06+0200</time>
      </trkpt>
      <trkpt lat="44.95904" lon="6.62066">
        <ele>2360.196847</ele>
        <time>2022-09-04T16:36:07+0200</time>
      </trkpt>
      <trkpt lat="44.95904" lon="6.62076">
        <ele>2360.116095</ele>
        <time>2022-09-04T16:36:08+0200</time>
      </trkpt>
      <trkpt lat="44.959" lon="6.62083">
        <ele>2360.226813</ele>
        <time>2022-09-04T16:36:09+0200</time>
      </trkpt>
      <trkpt lat="44.95896" lon="6.62089">
        <ele>2361.120671</ele>
        <time>2022-09-04T16:36:10+0200</time>
      </trkpt>
      <trkpt lat="44.9589" lon="6.62093">
        <ele>2361.817776</ele>
        <time>2022-09-04T16:36:11+0200</time>
      </trkpt>
      <trkpt lat="44.95887" lon="6.621">
        <ele>2361.997779</ele>
        <time>2022-09-04T16:36:12+0200</time>
      </trkpt>
      <trkpt lat="44.95886" lon="6.62106">
        <ele>2362.675969</ele>
        <time>2022-09-04T16:36:13+0200</time>
      </trkpt>
      <trkpt lat="44.95883" lon="6.62112">
        <ele>2362.878928</ele>
        <time>2022-09-04T16:36:14+0200</time>
      </trkpt>
      <trkpt lat="44.95879" lon="6.62117">
        <ele>2362.566569</ele>
        <time>2022-09-04T16:36:15+0200</time>
      </trkpt>
      <trkpt lat="44.95877" lon="6.62122">
        <ele>2362.142534</ele>
        <time>2022-09-04T16:36:16+0200</time>
      </trkpt>
      <trkpt lat="44.95875" lon="6.62128">
        <ele>2362.1006</ele>
        <time>2022-09-04T16:36:17+0200</time>
      </trkpt>
      <trkpt lat="44.9587" lon="6.62139">
        <ele>2362.342225</ele>
        <time>2022-09-04T16:36:19+0200</time>
      </trkpt>
      <trkpt lat="44.95867" lon="6.62145">
        <ele>2361.9074</ele>
        <time>2022-09-04T16:36:20+0200</time>
      </trkpt>
      <trkpt lat="44.95865" lon="6.62152">
        <ele>2361.21665</ele>
        <time>2022-09-04T16:36:21+0200</time>
      </trkpt>
      <trkpt lat="44.95861" lon="6.62158">
        <ele>2360.936232</ele>
        <time>2022-09-04T16:36:22+0200</time>
      </trkpt>
      <trkpt lat="44.95857" lon="6.62164">
        <ele>2361.150216</ele>
        <time>2022-09-04T16:36:23+0200</time>
      </trkpt>
      <trkpt lat="44.95853" lon="6.6217">
        <ele>2360.803406</ele>
        <time>2022-09-04T16:36:24+0200</time>
      </trkpt>
      <trkpt lat="44.9585" lon="6.62176">
        <ele>2360.643899</ele>
        <time>2022-09-04T16:36:25+0200</time>
      </trkpt>
      <trkpt lat="44.95846" lon="6.6218">
        <ele>2360.32349</ele>
        <time>2022-09-04T16:36:26+0200</time>
      </trkpt>
      <trkpt lat="44.95843" lon="6.62189">
        <ele>2359.658746</ele>
        <time>2022-09-04T16:36:28+0200</time>
      </trkpt>
      <trkpt lat="44.95839" lon="6.62195">
        <ele>2358.450693</ele>
        <time>2022-09-04T16:36:32+0200</time>
      </trkpt>
      <trkpt lat="44.95836" lon="6.62203">
        <ele>2359.47531</ele>
        <time>2022-09-04T16:36:35+0200</time>
      </trkpt>
      <trkpt lat="44.95832" lon="6.62209">
        <ele>2360.435185</ele>
        <time>2022-09-04T16:36:37+0200</time>
      </trkpt>
      <trkpt lat="44.95827" lon="6.62215">
        <ele>2361.535643</ele>
        <time>2022-09-04T16:36:39+0200</time>
      </trkpt>
      <trkpt lat="44.95824" lon="6.6222">
        <ele>2361.15717</ele>
        <time>2022-09-04T16:36:41+0200</time>
      </trkpt>
      <trkpt lat="44.9582" lon="6.62228">
        <ele>2361.776662</ele>
        <time>2022-09-04T16:36:43+0200</time>
      </trkpt>
      <trkpt lat="44.95816" lon="6.62233">
        <ele>2361.739139</ele>
        <time>2022-09-04T16:36:45+0200</time>
      </trkpt>
      <trkpt lat="44.95812" lon="6.6224">
        <ele>2361.298167</ele>
        <time>2022-09-04T16:36:47+0200</time>
      </trkpt>
      <trkpt lat="44.95807" lon="6.62245">
        <ele>2361.872783</ele>
        <time>2022-09-04T16:36:49+0200</time>
      </trkpt>
      <trkpt lat="44.95804" lon="6.62253">
        <ele>2361.859093</ele>
        <time>2022-09-04T16:36:51+0200</time>
      </trkpt>
      <trkpt lat="44.95797" lon="6.62259">
        <ele>2362.173275</ele>
        <time>2022-09-04T16:36:53+0200</time>
      </trkpt>
      <trkpt lat="44.95793" lon="6.62266">
        <ele>2362.824228</ele>
        <time>2022-09-04T16:36:55+0200</time>
      </trkpt>
      <trkpt lat="44.95789" lon="6.62272">
        <ele>2362.798573</ele>
        <time>2022-09-04T16:36:57+0200</time>
      </trkpt>
      <trkpt lat="44.95784" lon="6.62281">
        <ele>2363.027371</ele>
        <time>2022-09-04T16:36:59+0200</time>
      </trkpt>
      <trkpt lat="44.95781" lon="6.62286">
        <ele>2362.7201</ele>
        <time>2022-09-04T16:37:00+0200</time>
      </trkpt>
      <trkpt lat="44.95778" lon="6.62292">
        <ele>2362.804091</ele>
        <time>2022-09-04T16:37:01+0200</time>
      </trkpt>
      <trkpt lat="44.95774" lon="6.62297">
        <ele>2363.15784</ele>
        <time>2022-09-04T16:37:02+0200</time>
      </trkpt>
      <trkpt lat="44.95769" lon="6.62305">
        <ele>2363.233361</ele>
        <time>2022-09-04T16:37:04+0200</time>
      </trkpt>
      <trkpt lat="44.95765" lon="6.6231">
        <ele>2363.15346</ele>
        <time>2022-09-04T16:37:05+0200</time>
      </trkpt>
      <trkpt lat="44.95763" lon="6.62316">
        <ele>2363.038164</ele>
        <time>2022-09-04T16:37:06+0200</time>
      </trkpt>
      <trkpt lat="44.9576" lon="6.62321">
        <ele>2362.252772</ele>
        <time>2022-09-04T16:37:07+0200</time>
      </trkpt>
      <trkpt lat="44.95757" lon="6.62326">
        <ele>2361.891668</ele>
        <time>2022-09-04T16:37:08+0200</time>
      </trkpt>
      <trkpt lat="44.95754" lon="6.62331">
        <ele>2362.700269</ele>
        <time>2022-09-04T16:37:09+0200</time>
      </trkpt>
      <trkpt lat="44.95752" lon="6.62342">
        <ele>2363.207058</ele>
        <time>2022-09-04T16:37:11+0200</time>
      </trkpt>
      <trkpt lat="44.95752" lon="6.62352">
        <ele>2362.841409</ele>
        <time>2022-09-04T16:37:13+0200</time>
      </trkpt>
      <trkpt lat="44.95751" lon="6.62359">
        <ele>2362.829599</ele>
        <time>2022-09-04T16:37:15+0200</time>
      </trkpt>
      <trkpt lat="44.95751" lon="6.62367">
        <ele>2363.102212</ele>
        <time>2022-09-04T16:37:17+0200</time>
      </trkpt>
      <trkpt lat="44.9575" lon="6.62376">
        <ele>2363.103323</ele>
        <time>2022-09-04T16:37:19+0200</time>
      </trkpt>
      <trkpt lat="44.9575" lon="6.62384">
        <ele>2362.961389</ele>
        <time>2022-09-04T16:37:21+0200</time>
      </trkpt>
      <trkpt lat="44.9575" lon="6.62392">
        <ele>2362.35109</ele>
        <time>2022-09-04T16:37:23+0200</time>
      </trkpt>
      <trkpt lat="44.95748" lon="6.624">
        <ele>2362.52255</ele>
        <time>2022-09-04T16:37:25+0200</time>
      </trkpt>
      <trkpt lat="44.95745" lon="6.62406">
        <ele>2362.676362</ele>
        <time>2022-09-04T16:37:27+0200</time>
      </trkpt>
      <trkpt lat="44.95742" lon="6.62413">
        <ele>2363.011652</ele>
        <time>2022-09-04T16:37:29+0200</time>
      </trkpt>
      <trkpt lat="44.95737" lon="6.62422">
        <ele>2362.770324</ele>
        <time>2022-09-04T16:37:31+0200</time>
      </trkpt>
      <trkpt lat="44.95733" lon="6.62426">
        <ele>2362.620012</ele>
        <time>2022-09-04T16:37:32+0200</time>
      </trkpt>
      <trkpt lat="44.95728" lon="6.62428">
        <ele>2362.632382</ele>
        <time>2022-09-04T16:37:33+0200</time>
      </trkpt>
      <trkpt lat="44.95722" lon="6.6243">
        <ele>2361.600651</ele>
        <time>2022-09-04T16:37:34+0200</time>
      </trkpt>
      <trkpt lat="44.95716" lon="6.62433">
        <ele>2361.175897</ele>
        <time>2022-09-04T16:37:35+0200</time>
      </trkpt>
      <trkpt lat="44.9571" lon="6.62439">
        <ele>2360.357506</ele>
        <time>2022-09-04T16:37:36+0200</time>
      </trkpt>
      <trkpt lat="44.95705" lon="6.62446">
        <ele>2359.191911</ele>
        <time>2022-09-04T16:37:37+0200</time>
      </trkpt>
      <trkpt lat="44.957" lon="6.62455">
        <ele>2358.736696</ele>
        <time>2022-09-04T16:37:38+0200</time>
      </trkpt>
      <trkpt lat="44.95695" lon="6.62463">
        <ele>2359.133532</ele>
        <time>2022-09-04T16:37:39+0200</time>
      </trkpt>
      <trkpt lat="44.95692" lon="6.62468">
        <ele>2359.867746</ele>
        <time>2022-09-04T16:37:40+0200</time>
      </trkpt>
      <trkpt lat="44.9569" lon="6.62474">
        <ele>2359.766103</ele>
        <time>2022-09-04T16:37:41+0200</time>
      </trkpt>
      <trkpt lat="44.95687" lon="6.6248">
        <ele>2359.445736</ele>
        <time>2022-09-04T16:37:42+0200</time>
      </trkpt>
      <trkpt lat="44.95684" lon="6.62487">
        <ele>2360.878456</ele>
        <time>2022-09-04T16:37:44+0200</time>
      </trkpt>
      <trkpt lat="44.95685" lon="6.62495">
        <ele>2360.98398</ele>
        <time>2022-09-04T16:37:46+0200</time>
      </trkpt>
      <trkpt lat="44.95685" lon="6.62502">
        <ele>2360.759693</ele>
        <time>2022-09-04T16:37:47+0200</time>
      </trkpt>
      <trkpt lat="44.95687" lon="6.62509">
        <ele>2360.719395</ele>
        <time>2022-09-04T16:37:48+0200</time>
      </trkpt>
      <trkpt lat="44.95688" lon="6.62515">
        <ele>2360.631512</ele>
        <time>2022-09-04T16:37:49+0200</time>
      </trkpt>
      <trkpt lat="44.95689" lon="6.62521">
        <ele>2360.482633</ele>
        <time>2022-09-04T16:37:50+0200</time>
      </trkpt>
      <trkpt lat="44.95689" lon="6.62528">
        <ele>2360.015591</ele>
        <time>2022-09-04T16:37:51+0200</time>
      </trkpt>
      <trkpt lat="44.9569" lon="6.62535">
        <ele>2359.95829</ele>
        <time>2022-09-04T16:37:52+0200</time>
      </trkpt>
      <trkpt lat="44.9569" lon="6.62543">
        <ele>2359.846457</ele>
        <time>2022-09-04T16:37:53+0200</time>
      </trkpt>
      <trkpt lat="44.95688" lon="6.62549">
        <ele>2359.915181</ele>
        <time>2022-09-04T16:37:54+0200</time>
      </trkpt>
      <trkpt lat="44.95684" lon="6.62553">
        <ele>2360.069081</ele>
        <time>2022-09-04T16:37:55+0200</time>
      </trkpt>
      <trkpt lat="44.9568" lon="6.62556">
        <ele>2360.315155</ele>
        <time>2022-09-04T16:37:56+0200</time>
      </trkpt>
      <trkpt lat="44.95675" lon="6.62558">
        <ele>2360.425419</ele>
        <time>2022-09-04T16:37:57+0200</time>
      </trkpt>
      <trkpt lat="44.95667" lon="6.62562">
        <ele>2360.271185</ele>
        <time>2022-09-04T16:37:59+0200</time>
      </trkpt>
      <trkpt lat="44.95661" lon="6.62563">
        <ele>2359.957439</ele>
        <time>2022-09-04T16:38:00+0200</time>
      </trkpt>
      <trkpt lat="44.95656" lon="6.62563">
        <ele>2359.034247</ele>
        <time>2022-09-04T16:38:01+0200</time>
      </trkpt>
      <trkpt lat="44.9565" lon="6.62563">
        <ele>2357.673689</ele>
        <time>2022-09-04T16:38:02+0200</time>
      </trkpt>
      <trkpt lat="44.95645" lon="6.62564">
        <ele>2357.349555</ele>
        <time>2022-09-04T16:38:03+0200</time>
      </trkpt>
      <trkpt lat="44.9564" lon="6.62567">
        <ele>2357.062725</ele>
        <time>2022-09-04T16:38:04+0200</time>
      </trkpt>
      <trkpt lat="44.95634" lon="6.62575">
        <ele>2355.760256</ele>
        <time>2022-09-04T16:38:06+0200</time>
      </trkpt>
      <trkpt lat="44.95631" lon="6.62582">
        <ele>2355.181636</ele>
        <time>2022-09-04T16:38:07+0200</time>
      </trkpt>
      <trkpt lat="44.95628" lon="6.62589">
        <ele>2354.704626</ele>
        <time>2022-09-04T16:38:08+0200</time>
      </trkpt>
      <trkpt lat="44.95625" lon="6.62595">
        <ele>2353.971895</ele>
        <time>2022-09-04T16:38:09+0200</time>
      </trkpt>
      <trkpt lat="44.9562" lon="6.62601">
        <ele>2353.413074</ele>
        <time>2022-09-04T16:38:10+0200</time>
      </trkpt>
      <trkpt lat="44.95616" lon="6.62609">
        <ele>2352.487231</ele>
        <time>2022-09-04T16:38:11+0200</time>
      </trkpt>
      <trkpt lat="44.95613" lon="6.62619">
        <ele>2351.719715</ele>
        <time>2022-09-04T16:38:12+0200</time>
      </trkpt>
      <trkpt lat="44.95608" lon="6.62627">
        <ele>2351.288279</ele>
        <time>2022-09-04T16:38:13+0200</time>
      </trkpt>
      <trkpt lat="44.95603" lon="6.62629">
        <ele>2351.948416</ele>
        <time>2022-09-04T16:38:14+0200</time>
      </trkpt>
      <trkpt lat="44.95594" lon="6.62631">
        <ele>2351.746892</ele>
        <time>2022-09-04T16:38:16+0200</time>
      </trkpt>
      <trkpt lat="44.95589" lon="6.62633">
        <ele>2351.739367</ele>
        <time>2022-09-04T16:38:17+0200</time>
      </trkpt>
      <trkpt lat="44.95584" lon="6.62635">
        <ele>2351.942684</ele>
        <time>2022-09-04T16:38:18+0200</time>
      </trkpt>
      <trkpt lat="44.95579" lon="6.62635">
        <ele>2351.985051</ele>
        <time>2022-09-04T16:38:19+0200</time>
      </trkpt>
      <trkpt lat="44.95575" lon="6.62636">
        <ele>2351.6284</ele>
        <time>2022-09-04T16:38:20+0200</time>
      </trkpt>
      <trkpt lat="44.9557" lon="6.62637">
        <ele>2351.985026</ele>
        <time>2022-09-04T16:38:21+0200</time>
      </trkpt>
      <trkpt lat="44.95562" lon="6.62639">
        <ele>2352.15815</ele>
        <time>2022-09-04T16:38:23+0200</time>
      </trkpt>
      <trkpt lat="44.95554" lon="6.6264">
        <ele>2352.321522</ele>
        <time>2022-09-04T16:38:25+0200</time>
      </trkpt>
      <trkpt lat="44.95549" lon="6.62641">
        <ele>2352.973765</ele>
        <time>2022-09-04T16:38:26+0200</time>
      </trkpt>
      <trkpt lat="44.95541" lon="6.62643">
        <ele>2352.994608</ele>
        <time>2022-09-04T16:38:28+0200</time>
      </trkpt>
      <trkpt lat="44.95534" lon="6.62646">
        <ele>2353.306915</ele>
        <time>2022-09-04T16:38:30+0200</time>
      </trkpt>
      <trkpt lat="44.95526" lon="6.62648">
        <ele>2352.984519</ele>
        <time>2022-09-04T16:38:32+0200</time>
      </trkpt>
      <trkpt lat="44.9552" lon="6.62653">
        <ele>2353.725761</ele>
        <time>2022-09-04T16:38:34+0200</time>
      </trkpt>
      <trkpt lat="44.95515" lon="6.62658">
        <ele>2354.110675</ele>
        <time>2022-09-04T16:38:36+0200</time>
      </trkpt>
      <trkpt lat="44.9551" lon="6.62662">
        <ele>2353.535075</ele>
        <time>2022-09-04T16:38:39+0200</time>
      </trkpt>
      <trkpt lat="44.95505" lon="6.62667">
        <ele>2353.694616</ele>
        <time>2022-09-04T16:38:41+0200</time>
      </trkpt>
      <trkpt lat="44.955" lon="6.62673">
        <ele>2353.672634</ele>
        <time>2022-09-04T16:38:43+0200</time>
      </trkpt>
      <trkpt lat="44.95494" lon="6.62677">
        <ele>2353.808605</ele>
        <time>2022-09-04T16:38:45+0200</time>
      </trkpt>
      <trkpt lat="44.95488" lon="6.62681">
        <ele>2353.116583</ele>
        <time>2022-09-04T16:38:47+0200</time>
      </trkpt>
      <trkpt lat="44.95481" lon="6.62686">
        <ele>2352.076362</ele>
        <time>2022-09-04T16:38:49+0200</time>
      </trkpt>
      <trkpt lat="44.95476" lon="6.62688">
        <ele>2351.490395</ele>
        <time>2022-09-04T16:38:50+0200</time>
      </trkpt>
      <trkpt lat="44.95472" lon="6.62692">
        <ele>2351.146861</ele>
        <time>2022-09-04T16:38:51+0200</time>
      </trkpt>
      <trkpt lat="44.95469" lon="6.62704">
        <ele>2350.568392</ele>
        <time>2022-09-04T16:38:53+0200</time>
      </trkpt>
      <trkpt lat="44.95467" lon="6.62714">
        <ele>2350.543292</ele>
        <time>2022-09-04T16:38:55+0200</time>
      </trkpt>
      <trkpt lat="44.95466" lon="6.62721">
        <ele>2350.706421</ele>
        <time>2022-09-04T16:38:56+0200</time>
      </trkpt>
      <trkpt lat="44.95464" lon="6.62728">
        <ele>2350.88034</ele>
        <time>2022-09-04T16:38:57+0200</time>
      </trkpt>
      <trkpt lat="44.95463" lon="6.62736">
        <ele>2349.945242</ele>
        <time>2022-09-04T16:38:58+0200</time>
      </trkpt>
      <trkpt lat="44.95463" lon="6.62745">
        <ele>2348.530256</ele>
        <time>2022-09-04T16:38:59+0200</time>
      </trkpt>
      <trkpt lat="44.9546" lon="6.62752">
        <ele>2348.160139</ele>
        <time>2022-09-04T16:39:00+0200</time>
      </trkpt>
      <trkpt lat="44.95455" lon="6.62753">
        <ele>2348.157513</ele>
        <time>2022-09-04T16:39:01+0200</time>
      </trkpt>
      <trkpt lat="44.9545" lon="6.62753">
        <ele>2348.102877</ele>
        <time>2022-09-04T16:39:02+0200</time>
      </trkpt>
      <trkpt lat="44.95446" lon="6.62754">
        <ele>2348.13175</ele>
        <time>2022-09-04T16:39:03+0200</time>
      </trkpt>
      <trkpt lat="44.95436" lon="6.62755">
        <ele>2347.417397</ele>
        <time>2022-09-04T16:39:05+0200</time>
      </trkpt>
      <trkpt lat="44.95431" lon="6.62754">
        <ele>2347.374463</ele>
        <time>2022-09-04T16:39:06+0200</time>
      </trkpt>
      <trkpt lat="44.95426" lon="6.62753">
        <ele>2347.332424</ele>
        <time>2022-09-04T16:39:07+0200</time>
      </trkpt>
      <trkpt lat="44.95419" lon="6.62752">
        <ele>2346.352829</ele>
        <time>2022-09-04T16:39:09+0200</time>
      </trkpt>
      <trkpt lat="44.95417" lon="6.62759">
        <ele>2344.854422</ele>
        <time>2022-09-04T16:39:11+0200</time>
      </trkpt>
      <trkpt lat="44.95416" lon="6.62771">
        <ele>2343.69099</ele>
        <time>2022-09-04T16:39:13+0200</time>
      </trkpt>
      <trkpt lat="44.95415" lon="6.62778">
        <ele>2343.359893</ele>
        <time>2022-09-04T16:39:14+0200</time>
      </trkpt>
      <trkpt lat="44.95415" lon="6.62785">
        <ele>2343.852416</ele>
        <time>2022-09-04T16:39:15+0200</time>
      </trkpt>
      <trkpt lat="44.95411" lon="6.6279">
        <ele>2343.820143</ele>
        <time>2022-09-04T16:39:17+0200</time>
      </trkpt>
      <trkpt lat="44.95403" lon="6.62791">
        <ele>2344.08911</ele>
        <time>2022-09-04T16:39:19+0200</time>
      </trkpt>
      <trkpt lat="44.95395" lon="6.62792">
        <ele>2343.306244</ele>
        <time>2022-09-04T16:39:21+0200</time>
      </trkpt>
      <trkpt lat="44.95388" lon="6.62792">
        <ele>2343.069567</ele>
        <time>2022-09-04T16:39:23+0200</time>
      </trkpt>
      <trkpt lat="44.9538" lon="6.62792">
        <ele>2342.781577</ele>
        <time>2022-09-04T16:39:25+0200</time>
      </trkpt>
      <trkpt lat="44.95375" lon="6.62791">
        <ele>2342.591934</ele>
        <time>2022-09-04T16:39:26+0200</time>
      </trkpt>
      <trkpt lat="44.95366" lon="6.6279">
        <ele>2341.662617</ele>
        <time>2022-09-04T16:39:28+0200</time>
      </trkpt>
      <trkpt lat="44.9536" lon="6.62789">
        <ele>2341.84576</ele>
        <time>2022-09-04T16:39:29+0200</time>
      </trkpt>
      <trkpt lat="44.95355" lon="6.62789">
        <ele>2341.078829</ele>
        <time>2022-09-04T16:39:30+0200</time>
      </trkpt>
      <trkpt lat="44.95344" lon="6.62791">
        <ele>2339.937538</ele>
        <time>2022-09-04T16:39:32+0200</time>
      </trkpt>
      <trkpt lat="44.95338" lon="6.62792">
        <ele>2339.07193</ele>
        <time>2022-09-04T16:39:33+0200</time>
      </trkpt>
      <trkpt lat="44.95331" lon="6.6279">
        <ele>2338.933512</ele>
        <time>2022-09-04T16:39:34+0200</time>
      </trkpt>
      <trkpt lat="44.95325" lon="6.62787">
        <ele>2338.749219</ele>
        <time>2022-09-04T16:39:35+0200</time>
      </trkpt>
      <trkpt lat="44.95315" lon="6.62791">
        <ele>2337.122726</ele>
        <time>2022-09-04T16:39:37+0200</time>
      </trkpt>
      <trkpt lat="44.9531" lon="6.62789">
        <ele>2336.94955</ele>
        <time>2022-09-04T16:39:38+0200</time>
      </trkpt>
      <trkpt lat="44.95301" lon="6.62793">
        <ele>2335.804797</ele>
        <time>2022-09-04T16:39:40+0200</time>
      </trkpt>
      <trkpt lat="44.95295" lon="6.62798">
        <ele>2334.96201</ele>
        <time>2022-09-04T16:39:41+0200</time>
      </trkpt>
      <trkpt lat="44.95289" lon="6.62804">
        <ele>2334.089871</ele>
        <time>2022-09-04T16:39:42+0200</time>
      </trkpt>
      <trkpt lat="44.95283" lon="6.62807">
        <ele>2333.200653</ele>
        <time>2022-09-04T16:39:43+0200</time>
      </trkpt>
      <trkpt lat="44.95275" lon="6.6281">
        <ele>2332.018641</ele>
        <time>2022-09-04T16:39:44+0200</time>
      </trkpt>
      <trkpt lat="44.95267" lon="6.62812">
        <ele>2331.50763</ele>
        <time>2022-09-04T16:39:45+0200</time>
      </trkpt>
      <trkpt lat="44.95261" lon="6.62811">
        <ele>2330.808988</ele>
        <time>2022-09-04T16:39:46+0200</time>
      </trkpt>
      <trkpt lat="44.95256" lon="6.62803">
        <ele>2330.745148</ele>
        <time>2022-09-04T16:39:47+0200</time>
      </trkpt>
      <trkpt lat="44.95251" lon="6.62799">
        <ele>2330.667768</ele>
        <time>2022-09-04T16:39:48+0200</time>
      </trkpt>
      <trkpt lat="44.95247" lon="6.62797">
        <ele>2329.947176</ele>
        <time>2022-09-04T16:39:49+0200</time>
      </trkpt>
      <trkpt lat="44.95242" lon="6.62795">
        <ele>2329.367467</ele>
        <time>2022-09-04T16:39:50+0200</time>
      </trkpt>
      <trkpt lat="44.95236" lon="6.62794">
        <ele>2328.355891</ele>
        <time>2022-09-04T16:39:51+0200</time>
      </trkpt>
      <trkpt lat="44.95231" lon="6.6279">
        <ele>2328.257022</ele>
        <time>2022-09-04T16:39:52+0200</time>
      </trkpt>
      <trkpt lat="44.95225" lon="6.62788">
        <ele>2327.417377</ele>
        <time>2022-09-04T16:39:53+0200</time>
      </trkpt>
      <trkpt lat="44.9522" lon="6.62783">
        <ele>2326.947717</ele>
        <time>2022-09-04T16:39:54+0200</time>
      </trkpt>
      <trkpt lat="44.95215" lon="6.62779">
        <ele>2326.635508</ele>
        <time>2022-09-04T16:39:55+0200</time>
      </trkpt>
      <trkpt lat="44.95209" lon="6.62776">
        <ele>2326.107118</ele>
        <time>2022-09-04T16:39:56+0200</time>
      </trkpt>
      <trkpt lat="44.95202" lon="6.62772">
        <ele>2325.349261</ele>
        <time>2022-09-04T16:39:57+0200</time>
      </trkpt>
      <trkpt lat="44.95195" lon="6.62765">
        <ele>2324.481467</ele>
        <time>2022-09-04T16:39:58+0200</time>
      </trkpt>
      <trkpt lat="44.95188" lon="6.6276">
        <ele>2323.103349</ele>
        <time>2022-09-04T16:39:59+0200</time>
      </trkpt>
      <trkpt lat="44.9518" lon="6.62754">
        <ele>2322.382222</ele>
        <time>2022-09-04T16:40:00+0200</time>
      </trkpt>
      <trkpt lat="44.95175" lon="6.62749">
        <ele>2323.854007</ele>
        <time>2022-09-04T16:40:01+0200</time>
      </trkpt>
      <trkpt lat="44.95171" lon="6.62745">
        <ele>2324.529342</ele>
        <time>2022-09-04T16:40:02+0200</time>
      </trkpt>
      <trkpt lat="44.95166" lon="6.62742">
        <ele>2324.617479</ele>
        <time>2022-09-04T16:40:03+0200</time>
      </trkpt>
      <trkpt lat="44.95162" lon="6.62738">
        <ele>2324.304163</ele>
        <time>2022-09-04T16:40:04+0200</time>
      </trkpt>
      <trkpt lat="44.95158" lon="6.62733">
        <ele>2323.944752</ele>
        <time>2022-09-04T16:40:05+0200</time>
      </trkpt>
      <trkpt lat="44.95152" lon="6.6273">
        <ele>2322.736347</ele>
        <time>2022-09-04T16:40:06+0200</time>
      </trkpt>
      <trkpt lat="44.95146" lon="6.62727">
        <ele>2322.505548</ele>
        <time>2022-09-04T16:40:07+0200</time>
      </trkpt>
      <trkpt lat="44.9514" lon="6.62727">
        <ele>2321.867</ele>
        <time>2022-09-04T16:40:08+0200</time>
      </trkpt>
      <trkpt lat="44.95133" lon="6.62726">
        <ele>2321.511984</ele>
        <time>2022-09-04T16:40:09+0200</time>
      </trkpt>
      <trkpt lat="44.95127" lon="6.62725">
        <ele>2320.911131</ele>
        <time>2022-09-04T16:40:10+0200</time>
      </trkpt>
      <trkpt lat="44.95121" lon="6.62723">
        <ele>2321.290558</ele>
        <time>2022-09-04T16:40:11+0200</time>
      </trkpt>
      <trkpt lat="44.95116" lon="6.62722">
        <ele>2321.309328</ele>
        <time>2022-09-04T16:40:12+0200</time>
      </trkpt>
      <trkpt lat="44.9511" lon="6.62721">
        <ele>2321.959638</ele>
        <time>2022-09-04T16:40:13+0200</time>
      </trkpt>
      <trkpt lat="44.95105" lon="6.62719">
        <ele>2321.881522</ele>
        <time>2022-09-04T16:40:14+0200</time>
      </trkpt>
      <trkpt lat="44.95099" lon="6.62719">
        <ele>2321.8605</ele>
        <time>2022-09-04T16:40:15+0200</time>
      </trkpt>
      <trkpt lat="44.95094" lon="6.62719">
        <ele>2321.958739</ele>
        <time>2022-09-04T16:40:16+0200</time>
      </trkpt>
      <trkpt lat="44.9509" lon="6.62719">
        <ele>2322.042395</ele>
        <time>2022-09-04T16:40:17+0200</time>
      </trkpt>
      <trkpt lat="44.95085" lon="6.6272">
        <ele>2321.571385</ele>
        <time>2022-09-04T16:40:18+0200</time>
      </trkpt>
      <trkpt lat="44.9508" lon="6.62721">
        <ele>2321.624756</ele>
        <time>2022-09-04T16:40:19+0200</time>
      </trkpt>
      <trkpt lat="44.95074" lon="6.6272">
        <ele>2322.612878</ele>
        <time>2022-09-04T16:40:20+0200</time>
      </trkpt>
      <trkpt lat="44.95067" lon="6.62716">
        <ele>2323.139152</ele>
        <time>2022-09-04T16:40:22+0200</time>
      </trkpt>
      <trkpt lat="44.95063" lon="6.62714">
        <ele>2323.986821</ele>
        <time>2022-09-04T16:40:24+0200</time>
      </trkpt>
      <trkpt lat="44.95058" lon="6.62712">
        <ele>2324.16782</ele>
        <time>2022-09-04T16:40:26+0200</time>
      </trkpt>
      <trkpt lat="44.95053" lon="6.62712">
        <ele>2324.392207</ele>
        <time>2022-09-04T16:40:28+0200</time>
      </trkpt>
      <trkpt lat="44.95046" lon="6.62717">
        <ele>2324.307091</ele>
        <time>2022-09-04T16:40:31+0200</time>
      </trkpt>
      <trkpt lat="44.95042" lon="6.62723">
        <ele>2323.847458</ele>
        <time>2022-09-04T16:40:32+0200</time>
      </trkpt>
      <trkpt lat="44.95038" lon="6.62728">
        <ele>2324.644973</ele>
        <time>2022-09-04T16:40:33+0200</time>
      </trkpt>
      <trkpt lat="44.95033" lon="6.62737">
        <ele>2325.324515</ele>
        <time>2022-09-04T16:40:35+0200</time>
      </trkpt>
      <trkpt lat="44.95029" lon="6.62745">
        <ele>2325.224511</ele>
        <time>2022-09-04T16:40:37+0200</time>
      </trkpt>
      <trkpt lat="44.95027" lon="6.62751">
        <ele>2325.116035</ele>
        <time>2022-09-04T16:40:38+0200</time>
      </trkpt>
      <trkpt lat="44.95024" lon="6.62756">
        <ele>2324.235613</ele>
        <time>2022-09-04T16:40:39+0200</time>
      </trkpt>
      <trkpt lat="44.9502" lon="6.6276">
        <ele>2324.847454</ele>
        <time>2022-09-04T16:40:40+0200</time>
      </trkpt>
      <trkpt lat="44.95015" lon="6.6276">
        <ele>2324.168102</ele>
        <time>2022-09-04T16:40:42+0200</time>
      </trkpt>
      <trkpt lat="44.95009" lon="6.62759">
        <ele>2323.516251</ele>
        <time>2022-09-04T16:40:43+0200</time>
      </trkpt>
      <trkpt lat="44.95005" lon="6.62754">
        <ele>2322.886452</ele>
        <time>2022-09-04T16:40:44+0200</time>
      </trkpt>
      <trkpt lat="44.95001" lon="6.62748">
        <ele>2321.951627</ele>
        <time>2022-09-04T16:40:45+0200</time>
      </trkpt>
      <trkpt lat="44.94997" lon="6.62743">
        <ele>2321.515537</ele>
        <time>2022-09-04T16:40:46+0200</time>
      </trkpt>
      <trkpt lat="44.94994" lon="6.62738">
        <ele>2321.229137</ele>
        <time>2022-09-04T16:40:47+0200</time>
      </trkpt>
      <trkpt lat="44.94984" lon="6.62733">
        <ele>2319.405429</ele>
        <time>2022-09-04T16:40:49+0200</time>
      </trkpt>
      <trkpt lat="44.94979" lon="6.62728">
        <ele>2319.222876</ele>
        <time>2022-09-04T16:40:50+0200</time>
      </trkpt>
      <trkpt lat="44.94974" lon="6.62724">
        <ele>2317.873381</ele>
        <time>2022-09-04T16:40:52+0200</time>
      </trkpt>
      <trkpt lat="44.94967" lon="6.62721">
        <ele>2316.23808</ele>
        <time>2022-09-04T16:40:55+0200</time>
      </trkpt>
      <trkpt lat="44.9496" lon="6.62724">
        <ele>2314.32544</ele>
        <time>2022-09-04T16:40:57+0200</time>
      </trkpt>
      <trkpt lat="44.94954" lon="6.62725">
        <ele>2313.478393</ele>
        <time>2022-09-04T16:40:58+0200</time>
      </trkpt>
      <trkpt lat="44.94949" lon="6.62724">
        <ele>2312.274912</ele>
        <time>2022-09-04T16:40:59+0200</time>
      </trkpt>
      <trkpt lat="44.94942" lon="6.62727">
        <ele>2310.59913</ele>
        <time>2022-09-04T16:41:01+0200</time>
      </trkpt>
      <trkpt lat="44.94937" lon="6.62729">
        <ele>2310.252558</ele>
        <time>2022-09-04T16:41:02+0200</time>
      </trkpt>
      <trkpt lat="44.94931" lon="6.62729">
        <ele>2309.4627</ele>
        <time>2022-09-04T16:41:03+0200</time>
      </trkpt>
      <trkpt lat="44.94923" lon="6.62728">
        <ele>2308.443239</ele>
        <time>2022-09-04T16:41:04+0200</time>
      </trkpt>
      <trkpt lat="44.94915" lon="6.62728">
        <ele>2307.313942</ele>
        <time>2022-09-04T16:41:05+0200</time>
      </trkpt>
      <trkpt lat="44.94907" lon="6.62728">
        <ele>2307.342169</ele>
        <time>2022-09-04T16:41:06+0200</time>
      </trkpt>
      <trkpt lat="44.949" lon="6.62723">
        <ele>2306.875756</ele>
        <time>2022-09-04T16:41:07+0200</time>
      </trkpt>
      <trkpt lat="44.94895" lon="6.62716">
        <ele>2307.257486</ele>
        <time>2022-09-04T16:41:08+0200</time>
      </trkpt>
      <trkpt lat="44.94889" lon="6.62715">
        <ele>2306.194865</ele>
        <time>2022-09-04T16:41:09+0200</time>
      </trkpt>
      <trkpt lat="44.94884" lon="6.62713">
        <ele>2305.279253</ele>
        <time>2022-09-04T16:41:10+0200</time>
      </trkpt>
      <trkpt lat="44.94874" lon="6.62714">
        <ele>2302.68001</ele>
        <time>2022-09-04T16:41:12+0200</time>
      </trkpt>
      <trkpt lat="44.94869" lon="6.62716">
        <ele>2302.223086</ele>
        <time>2022-09-04T16:41:13+0200</time>
      </trkpt>
      <trkpt lat="44.94863" lon="6.62717">
        <ele>2301.691835</ele>
        <time>2022-09-04T16:41:14+0200</time>
      </trkpt>
      <trkpt lat="44.94858" lon="6.62719">
        <ele>2301.570452</ele>
        <time>2022-09-04T16:41:15+0200</time>
      </trkpt>
      <trkpt lat="44.94853" lon="6.62722">
        <ele>2301.579047</ele>
        <time>2022-09-04T16:41:16+0200</time>
      </trkpt>
      <trkpt lat="44.94848" lon="6.62727">
        <ele>2301.253426</ele>
        <time>2022-09-04T16:41:17+0200</time>
      </trkpt>
      <trkpt lat="44.94845" lon="6.62734">
        <ele>2301.66998</ele>
        <time>2022-09-04T16:41:18+0200</time>
      </trkpt>
      <trkpt lat="44.9484" lon="6.62741">
        <ele>2302.666482</ele>
        <time>2022-09-04T16:41:20+0200</time>
      </trkpt>
      <trkpt lat="44.94838" lon="6.62748">
        <ele>2303.503162</ele>
        <time>2022-09-04T16:41:23+0200</time>
      </trkpt>
      <trkpt lat="44.94835" lon="6.62753">
        <ele>2304.095829</ele>
        <time>2022-09-04T16:41:25+0200</time>
      </trkpt>
      <trkpt lat="44.94832" lon="6.62759">
        <ele>2304.425382</ele>
        <time>2022-09-04T16:41:27+0200</time>
      </trkpt>
      <trkpt lat="44.94828" lon="6.62764">
        <ele>2305.282512</ele>
        <time>2022-09-04T16:41:29+0200</time>
      </trkpt>
      <trkpt lat="44.94824" lon="6.62769">
        <ele>2305.508637</ele>
        <time>2022-09-04T16:41:31+0200</time>
      </trkpt>
      <trkpt lat="44.94821" lon="6.62773">
        <ele>2305.629237</ele>
        <time>2022-09-04T16:41:33+0200</time>
      </trkpt>
      <trkpt lat="44.94815" lon="6.62778">
        <ele>2305.959557</ele>
        <time>2022-09-04T16:41:36+0200</time>
      </trkpt>
      <trkpt lat="44.94811" lon="6.62782">
        <ele>2306.364996</ele>
        <time>2022-09-04T16:41:38+0200</time>
      </trkpt>
      <trkpt lat="44.94806" lon="6.62787">
        <ele>2307.038391</ele>
        <time>2022-09-04T16:41:41+0200</time>
      </trkpt>
      <trkpt lat="44.94803" lon="6.62794">
        <ele>2307.364121</ele>
        <time>2022-09-04T16:41:44+0200</time>
      </trkpt>
      <trkpt lat="44.948" lon="6.62798">
        <ele>2308.660281</ele>
        <time>2022-09-04T16:41:47+0200</time>
      </trkpt>
      <trkpt lat="44.94794" lon="6.62802">
        <ele>2310.86606</ele>
        <time>2022-09-04T16:41:50+0200</time>
      </trkpt>
      <trkpt lat="44.94789" lon="6.62804">
        <ele>2312.247857</ele>
        <time>2022-09-04T16:41:54+0200</time>
      </trkpt>
      <trkpt lat="44.94787" lon="6.62811">
        <ele>2312.410382</ele>
        <time>2022-09-04T16:41:59+0200</time>
      </trkpt>
      <trkpt lat="44.94782" lon="6.62814">
        <ele>2313.959462</ele>
        <time>2022-09-04T16:42:03+0200</time>
      </trkpt>
      <trkpt lat="44.94777" lon="6.62817">
        <ele>2315.287577</ele>
        <time>2022-09-04T16:42:07+0200</time>
      </trkpt>
      <trkpt lat="44.94771" lon="6.6282">
        <ele>2316.506304</ele>
        <time>2022-09-04T16:42:11+0200</time>
      </trkpt>
      <trkpt lat="44.94766" lon="6.62821">
        <ele>2317.179374</ele>
        <time>2022-09-04T16:42:15+0200</time>
      </trkpt>
      <trkpt lat="44.9476" lon="6.62821">
        <ele>2317.884492</ele>
        <time>2022-09-04T16:42:19+0200</time>
      </trkpt>
      <trkpt lat="44.94755" lon="6.6282">
        <ele>2318.441533</ele>
        <time>2022-09-04T16:42:23+0200</time>
      </trkpt>
      <trkpt lat="44.9475" lon="6.62821">
        <ele>2319.100007</ele>
        <time>2022-09-04T16:42:26+0200</time>
      </trkpt>
      <trkpt lat="44.94746" lon="6.62821">
        <ele>2319.601315</ele>
        <time>2022-09-04T16:42:29+0200</time>
      </trkpt>
      <trkpt lat="44.9474" lon="6.62823">
        <ele>2320.099814</ele>
        <time>2022-09-04T16:42:33+0200</time>
      </trkpt>
      <trkpt lat="44.94735" lon="6.62824">
        <ele>2320.827681</ele>
        <time>2022-09-04T16:42:37+0200</time>
      </trkpt>
      <trkpt lat="44.9473" lon="6.62826">
        <ele>2322.090781</ele>
        <time>2022-09-04T16:42:41+0200</time>
      </trkpt>
      <trkpt lat="44.94724" lon="6.62826">
        <ele>2322.5026</ele>
        <time>2022-09-04T16:42:45+0200</time>
      </trkpt>
      <trkpt lat="44.9472" lon="6.62829">
        <ele>2323.313636</ele>
        <time>2022-09-04T16:42:49+0200</time>
      </trkpt>
      <trkpt lat="44.94718" lon="6.62835">
        <ele>2323.172879</ele>
        <time>2022-09-04T16:42:53+0200</time>
      </trkpt>
      <trkpt lat="44.94719" lon="6.62842">
        <ele>2323.21412</ele>
        <time>2022-09-04T16:42:56+0200</time>
      </trkpt>
      <trkpt lat="44.9472" lon="6.6285">
        <ele>2323.955173</ele>
        <time>2022-09-04T16:43:00+0200</time>
      </trkpt>
      <trkpt lat="44.9472" lon="6.62856">
        <ele>2324.817335</ele>
        <time>2022-09-04T16:43:03+0200</time>
      </trkpt>
      <trkpt lat="44.9472" lon="6.62864">
        <ele>2325.620389</ele>
        <time>2022-09-04T16:43:06+0200</time>
      </trkpt>
      <trkpt lat="44.9472" lon="6.6287">
        <ele>2327.161254</ele>
        <time>2022-09-04T16:43:09+0200</time>
      </trkpt>
      <trkpt lat="44.94719" lon="6.62878">
        <ele>2327.313928</ele>
        <time>2022-09-04T16:43:13+0200</time>
      </trkpt>
      <trkpt lat="44.94719" lon="6.62886">
        <ele>2328.720212</ele>
        <time>2022-09-04T16:43:17+0200</time>
      </trkpt>
      <trkpt lat="44.94718" lon="6.62893">
        <ele>2329.127217</ele>
        <time>2022-09-04T16:43:21+0200</time>
      </trkpt>
      <trkpt lat="44.94717" lon="6.629">
        <ele>2329.397066</ele>
        <time>2022-09-04T16:43:24+0200</time>
      </trkpt>
      <trkpt lat="44.94717" lon="6.62908">
        <ele>2329.367645</ele>
        <time>2022-09-04T16:43:28+0200</time>
      </trkpt>
      <trkpt lat="44.94717" lon="6.62915">
        <ele>2330.186373</ele>
        <time>2022-09-04T16:43:31+0200</time>
      </trkpt>
      <trkpt lat="44.94716" lon="6.62923">
        <ele>2332.066103</ele>
        <time>2022-09-04T16:43:35+0200</time>
      </trkpt>
      <trkpt lat="44.94716" lon="6.6293">
        <ele>2332.555994</ele>
        <time>2022-09-04T16:43:38+0200</time>
      </trkpt>
      <trkpt lat="44.94715" lon="6.62937">
        <ele>2333.150434</ele>
        <time>2022-09-04T16:43:42+0200</time>
      </trkpt>
      <trkpt lat="44.94717" lon="6.62943">
        <ele>2333.119762</ele>
        <time>2022-09-04T16:43:46+0200</time>
      </trkpt>
      <trkpt lat="44.9472" lon="6.62948">
        <ele>2333.812836</ele>
        <time>2022-09-04T16:43:48+0200</time>
      </trkpt>
      <trkpt lat="44.94724" lon="6.62955">
        <ele>2335.322244</ele>
        <time>2022-09-04T16:43:50+0200</time>
      </trkpt>
      <trkpt lat="44.94723" lon="6.62965">
        <ele>2336.272994</ele>
        <time>2022-09-04T16:43:52+0200</time>
      </trkpt>
      <trkpt lat="44.94719" lon="6.62971">
        <ele>2336.39745</ele>
        <time>2022-09-04T16:43:54+0200</time>
      </trkpt>
      <trkpt lat="44.94717" lon="6.62977">
        <ele>2335.768417</ele>
        <time>2022-09-04T16:43:56+0200</time>
      </trkpt>
      <trkpt lat="44.94713" lon="6.62983">
        <ele>2334.97084</ele>
        <time>2022-09-04T16:43:58+0200</time>
      </trkpt>
      <trkpt lat="44.94709" lon="6.62989">
        <ele>2334.575419</ele>
        <time>2022-09-04T16:44:00+0200</time>
      </trkpt>
      <trkpt lat="44.94704" lon="6.62993">
        <ele>2334.870959</ele>
        <time>2022-09-04T16:44:02+0200</time>
      </trkpt>
      <trkpt lat="44.94698" lon="6.62999">
        <ele>2334.335036</ele>
        <time>2022-09-04T16:44:04+0200</time>
      </trkpt>
      <trkpt lat="44.94688" lon="6.63003">
        <ele>2334.31082</ele>
        <time>2022-09-04T16:44:06+0200</time>
      </trkpt>
      <trkpt lat="44.94683" lon="6.63006">
        <ele>2334.405159</ele>
        <time>2022-09-04T16:44:07+0200</time>
      </trkpt>
      <trkpt lat="44.94678" lon="6.63009">
        <ele>2334.007404</ele>
        <time>2022-09-04T16:44:08+0200</time>
      </trkpt>
      <trkpt lat="44.94674" lon="6.63011">
        <ele>2333.010869</ele>
        <time>2022-09-04T16:44:09+0200</time>
      </trkpt>
      <trkpt lat="44.94666" lon="6.6301">
        <ele>2330.551826</ele>
        <time>2022-09-04T16:44:11+0200</time>
      </trkpt>
      <trkpt lat="44.94662" lon="6.63013">
        <ele>2328.267054</ele>
        <time>2022-09-04T16:44:13+0200</time>
      </trkpt>
      <trkpt lat="44.9466" lon="6.63019">
        <ele>2327.583077</ele>
        <time>2022-09-04T16:44:15+0200</time>
      </trkpt>
      <trkpt lat="44.94659" lon="6.63027">
        <ele>2327.299675</ele>
        <time>2022-09-04T16:44:17+0200</time>
      </trkpt>
      <trkpt lat="44.94655" lon="6.63037">
        <ele>2327.866621</ele>
        <time>2022-09-04T16:44:19+0200</time>
      </trkpt>
      <trkpt lat="44.94651" lon="6.63042">
        <ele>2327.76178</ele>
        <time>2022-09-04T16:44:20+0200</time>
      </trkpt>
      <trkpt lat="44.94645" lon="6.63043">
        <ele>2327.836892</ele>
        <time>2022-09-04T16:44:21+0200</time>
      </trkpt>
      <trkpt lat="44.9464" lon="6.6304">
        <ele>2328.019086</ele>
        <time>2022-09-04T16:44:22+0200</time>
      </trkpt>
      <trkpt lat="44.94637" lon="6.63037">
        <ele>2327.912259</ele>
        <time>2022-09-04T16:44:23+0200</time>
      </trkpt>
      <trkpt lat="44.94632" lon="6.63037">
        <ele>2327.401267</ele>
        <time>2022-09-04T16:44:24+0200</time>
      </trkpt>
      <trkpt lat="44.94624" lon="6.63043">
        <ele>2326.855323</ele>
        <time>2022-09-04T16:44:26+0200</time>
      </trkpt>
      <trkpt lat="44.94617" lon="6.63037">
        <ele>2326.079269</ele>
        <time>2022-09-04T16:44:28+0200</time>
      </trkpt>
      <trkpt lat="44.94613" lon="6.63033">
        <ele>2325.233677</ele>
        <time>2022-09-04T16:44:30+0200</time>
      </trkpt>
      <trkpt lat="44.94607" lon="6.63035">
        <ele>2324.352919</ele>
        <time>2022-09-04T16:44:32+0200</time>
      </trkpt>
      <trkpt lat="44.94601" lon="6.63035">
        <ele>2324.001861</ele>
        <time>2022-09-04T16:44:33+0200</time>
      </trkpt>
      <trkpt lat="44.94596" lon="6.63033">
        <ele>2323.498489</ele>
        <time>2022-09-04T16:44:34+0200</time>
      </trkpt>
      <trkpt lat="44.94591" lon="6.63032">
        <ele>2323.06066</ele>
        <time>2022-09-04T16:44:35+0200</time>
      </trkpt>
      <trkpt lat="44.94586" lon="6.63033">
        <ele>2322.483048</ele>
        <time>2022-09-04T16:44:36+0200</time>
      </trkpt>
      <trkpt lat="44.94579" lon="6.63035">
        <ele>2322.903907</ele>
        <time>2022-09-04T16:44:38+0200</time>
      </trkpt>
      <trkpt lat="44.94574" lon="6.63035">
        <ele>2323.29654</ele>
        <time>2022-09-04T16:44:39+0200</time>
      </trkpt>
      <trkpt lat="44.94567" lon="6.63035">
        <ele>2323.347734</ele>
        <time>2022-09-04T16:44:41+0200</time>
      </trkpt>
      <trkpt lat="44.94561" lon="6.63036">
        <ele>2323.486226</ele>
        <time>2022-09-04T16:44:42+0200</time>
      </trkpt>
      <trkpt lat="44.94555" lon="6.63038">
        <ele>2323.347513</ele>
        <time>2022-09-04T16:44:44+0200</time>
      </trkpt>
      <trkpt lat="44.94549" lon="6.63039">
        <ele>2323.580679</ele>
        <time>2022-09-04T16:44:46+0200</time>
      </trkpt>
      <trkpt lat="44.94542" lon="6.63041">
        <ele>2323.115872</ele>
        <time>2022-09-04T16:44:48+0200</time>
      </trkpt>
      <trkpt lat="44.94533" lon="6.63043">
        <ele>2322.324133</ele>
        <time>2022-09-04T16:44:50+0200</time>
      </trkpt>
      <trkpt lat="44.94527" lon="6.63043">
        <ele>2321.987629</ele>
        <time>2022-09-04T16:44:51+0200</time>
      </trkpt>
      <trkpt lat="44.94521" lon="6.63043">
        <ele>2321.94841</ele>
        <time>2022-09-04T16:44:52+0200</time>
      </trkpt>
      <trkpt lat="44.94515" lon="6.63046">
        <ele>2321.449884</ele>
        <time>2022-09-04T16:44:53+0200</time>
      </trkpt>
      <trkpt lat="44.9451" lon="6.63051">
        <ele>2320.718742</ele>
        <time>2022-09-04T16:44:54+0200</time>
      </trkpt>
      <trkpt lat="44.94504" lon="6.63057">
        <ele>2319.787142</ele>
        <time>2022-09-04T16:44:55+0200</time>
      </trkpt>
      <trkpt lat="44.94498" lon="6.63062">
        <ele>2319.185655</ele>
        <time>2022-09-04T16:44:56+0200</time>
      </trkpt>
      <trkpt lat="44.94492" lon="6.63067">
        <ele>2318.714222</ele>
        <time>2022-09-04T16:44:57+0200</time>
      </trkpt>
      <trkpt lat="44.94486" lon="6.63073">
        <ele>2318.098522</ele>
        <time>2022-09-04T16:44:58+0200</time>
      </trkpt>
      <trkpt lat="44.94478" lon="6.63078">
        <ele>2318.571515</ele>
        <time>2022-09-04T16:44:59+0200</time>
      </trkpt>
      <trkpt lat="44.94471" lon="6.63079">
        <ele>2318.855526</ele>
        <time>2022-09-04T16:45:00+0200</time>
      </trkpt>
      <trkpt lat="44.94465" lon="6.6308">
        <ele>2318.774019</ele>
        <time>2022-09-04T16:45:01+0200</time>
      </trkpt>
      <trkpt lat="44.94459" lon="6.6308">
        <ele>2318.335605</ele>
        <time>2022-09-04T16:45:02+0200</time>
      </trkpt>
      <trkpt lat="44.9445" lon="6.63086">
        <ele>2316.147999</ele>
        <time>2022-09-04T16:45:04+0200</time>
      </trkpt>
      <trkpt lat="44.94444" lon="6.63088">
        <ele>2315.72574</ele>
        <time>2022-09-04T16:45:05+0200</time>
      </trkpt>
      <trkpt lat="44.94437" lon="6.63089">
        <ele>2315.85805</ele>
        <time>2022-09-04T16:45:06+0200</time>
      </trkpt>
      <trkpt lat="44.94433" lon="6.63091">
        <ele>2315.906311</ele>
        <time>2022-09-04T16:45:07+0200</time>
      </trkpt>
      <trkpt lat="44.94425" lon="6.63089">
        <ele>2315.62276</ele>
        <time>2022-09-04T16:45:09+0200</time>
      </trkpt>
      <trkpt lat="44.94417" lon="6.63087">
        <ele>2314.655143</ele>
        <time>2022-09-04T16:45:11+0200</time>
      </trkpt>
      <trkpt lat="44.94411" lon="6.63087">
        <ele>2313.58455</ele>
        <time>2022-09-04T16:45:12+0200</time>
      </trkpt>
      <trkpt lat="44.94404" lon="6.63087">
        <ele>2312.746845</ele>
        <time>2022-09-04T16:45:13+0200</time>
      </trkpt>
      <trkpt lat="44.94397" lon="6.6309">
        <ele>2312.429882</ele>
        <time>2022-09-04T16:45:14+0200</time>
      </trkpt>
      <trkpt lat="44.94392" lon="6.63092">
        <ele>2312.186763</ele>
        <time>2022-09-04T16:45:15+0200</time>
      </trkpt>
      <trkpt lat="44.94384" lon="6.63091">
        <ele>2312.036469</ele>
        <time>2022-09-04T16:45:16+0200</time>
      </trkpt>
      <trkpt lat="44.94377" lon="6.63091">
        <ele>2311.385111</ele>
        <time>2022-09-04T16:45:17+0200</time>
      </trkpt>
      <trkpt lat="44.94371" lon="6.63091">
        <ele>2310.918117</ele>
        <time>2022-09-04T16:45:18+0200</time>
      </trkpt>
      <trkpt lat="44.94366" lon="6.63093">
        <ele>2309.901158</ele>
        <time>2022-09-04T16:45:19+0200</time>
      </trkpt>
      <trkpt lat="44.94361" lon="6.63094">
        <ele>2309.006566</ele>
        <time>2022-09-04T16:45:20+0200</time>
      </trkpt>
      <trkpt lat="44.94356" lon="6.63096">
        <ele>2308.798153</ele>
        <time>2022-09-04T16:45:21+0200</time>
      </trkpt>
      <trkpt lat="44.94352" lon="6.63099">
        <ele>2308.22828</ele>
        <time>2022-09-04T16:45:22+0200</time>
      </trkpt>
      <trkpt lat="44.94348" lon="6.63102">
        <ele>2307.921549</ele>
        <time>2022-09-04T16:45:23+0200</time>
      </trkpt>
      <trkpt lat="44.94343" lon="6.63103">
        <ele>2307.862782</ele>
        <time>2022-09-04T16:45:24+0200</time>
      </trkpt>
      <trkpt lat="44.94337" lon="6.63106">
        <ele>2308.425604</ele>
        <time>2022-09-04T16:45:25+0200</time>
      </trkpt>
      <trkpt lat="44.94331" lon="6.6311">
        <ele>2308.699676</ele>
        <time>2022-09-04T16:45:26+0200</time>
      </trkpt>
      <trkpt lat="44.94325" lon="6.63111">
        <ele>2308.749772</ele>
        <time>2022-09-04T16:45:27+0200</time>
      </trkpt>
      <trkpt lat="44.94318" lon="6.63112">
        <ele>2309.205373</ele>
        <time>2022-09-04T16:45:29+0200</time>
      </trkpt>
      <trkpt lat="44.9431" lon="6.63114">
        <ele>2309.6935</ele>
        <time>2022-09-04T16:45:31+0200</time>
      </trkpt>
      <trkpt lat="44.94305" lon="6.63116">
        <ele>2309.469783</ele>
        <time>2022-09-04T16:45:32+0200</time>
      </trkpt>
      <trkpt lat="44.943" lon="6.63115">
        <ele>2308.971765</ele>
        <time>2022-09-04T16:45:34+0200</time>
      </trkpt>
      <trkpt lat="44.94293" lon="6.63113">
        <ele>2308.366501</ele>
        <time>2022-09-04T16:45:36+0200</time>
      </trkpt>
      <trkpt lat="44.94288" lon="6.63112">
        <ele>2307.896379</ele>
        <time>2022-09-04T16:45:37+0200</time>
      </trkpt>
      <trkpt lat="44.94283" lon="6.63111">
        <ele>2306.637521</ele>
        <time>2022-09-04T16:45:39+0200</time>
      </trkpt>
      <trkpt lat="44.94275" lon="6.63107">
        <ele>2305.183806</ele>
        <time>2022-09-04T16:45:41+0200</time>
      </trkpt>
      <trkpt lat="44.94267" lon="6.63105">
        <ele>2303.884059</ele>
        <time>2022-09-04T16:45:43+0200</time>
      </trkpt>
      <trkpt lat="44.94258" lon="6.63104">
        <ele>2303.254144</ele>
        <time>2022-09-04T16:45:45+0200</time>
      </trkpt>
      <trkpt lat="44.94253" lon="6.63104">
        <ele>2302.867731</ele>
        <time>2022-09-04T16:45:46+0200</time>
      </trkpt>
      <trkpt lat="44.94245" lon="6.63106">
        <ele>2301.433957</ele>
        <time>2022-09-04T16:45:48+0200</time>
      </trkpt>
      <trkpt lat="44.9424" lon="6.63104">
        <ele>2298.983525</ele>
        <time>2022-09-04T16:45:50+0200</time>
      </trkpt>
      <trkpt lat="44.94245" lon="6.63109">
        <ele>2296.203428</ele>
        <time>2022-09-04T16:45:54+0200</time>
      </trkpt>
      <trkpt lat="44.9425" lon="6.63115">
        <ele>2295.543445</ele>
        <time>2022-09-04T16:45:56+0200</time>
      </trkpt>
      <trkpt lat="44.94258" lon="6.63123">
        <ele>2294.508504</ele>
        <time>2022-09-04T16:45:58+0200</time>
      </trkpt>
      <trkpt lat="44.94261" lon="6.63127">
        <ele>2294.29437</ele>
        <time>2022-09-04T16:45:59+0200</time>
      </trkpt>
      <trkpt lat="44.94267" lon="6.63135">
        <ele>2294.367895</ele>
        <time>2022-09-04T16:46:01+0200</time>
      </trkpt>
      <trkpt lat="44.94271" lon="6.63146">
        <ele>2295.474194</ele>
        <time>2022-09-04T16:46:03+0200</time>
      </trkpt>
      <trkpt lat="44.94273" lon="6.63155">
        <ele>2295.284699</ele>
        <time>2022-09-04T16:46:04+0200</time>
      </trkpt>
      <trkpt lat="44.94274" lon="6.63163">
        <ele>2294.084511</ele>
        <time>2022-09-04T16:46:06+0200</time>
      </trkpt>
      <trkpt lat="44.94269" lon="6.63162">
        <ele>2291.247202</ele>
        <time>2022-09-04T16:46:09+0200</time>
      </trkpt>
      <trkpt lat="44.94265" lon="6.63158">
        <ele>2290.68126</ele>
        <time>2022-09-04T16:46:10+0200</time>
      </trkpt>
      <trkpt lat="44.94262" lon="6.63152">
        <ele>2290.204219</ele>
        <time>2022-09-04T16:46:11+0200</time>
      </trkpt>
      <trkpt lat="44.94256" lon="6.63151">
        <ele>2288.361255</ele>
        <time>2022-09-04T16:46:13+0200</time>
      </trkpt>
      <trkpt lat="44.94251" lon="6.63149">
        <ele>2287.542683</ele>
        <time>2022-09-04T16:46:14+0200</time>
      </trkpt>
      <trkpt lat="44.94245" lon="6.63141">
        <ele>2286.155662</ele>
        <time>2022-09-04T16:46:16+0200</time>
      </trkpt>
      <trkpt lat="44.94238" lon="6.63134">
        <ele>2284.344981</ele>
        <time>2022-09-04T16:46:18+0200</time>
      </trkpt>
      <trkpt lat="44.94232" lon="6.63131">
        <ele>2283.714392</ele>
        <time>2022-09-04T16:46:19+0200</time>
      </trkpt>
      <trkpt lat="44.94226" lon="6.63126">
        <ele>2282.996774</ele>
        <time>2022-09-04T16:46:20+0200</time>
      </trkpt>
      <trkpt lat="44.94221" lon="6.6312">
        <ele>2282.474806</ele>
        <time>2022-09-04T16:46:21+0200</time>
      </trkpt>
      <trkpt lat="44.94213" lon="6.63118">
        <ele>2280.731945</ele>
        <time>2022-09-04T16:46:24+0200</time>
      </trkpt>
      <trkpt lat="44.94209" lon="6.63115">
        <ele>2279.631438</ele>
        <time>2022-09-04T16:46:25+0200</time>
      </trkpt>
      <trkpt lat="44.94205" lon="6.63112">
        <ele>2277.811835</ele>
        <time>2022-09-04T16:46:27+0200</time>
      </trkpt>
      <trkpt lat="44.942" lon="6.6311">
        <ele>2277.0291</ele>
        <time>2022-09-04T16:46:29+0200</time>
      </trkpt>
      <trkpt lat="44.94193" lon="6.63107">
        <ele>2276.449702</ele>
        <time>2022-09-04T16:46:31+0200</time>
      </trkpt>
      <trkpt lat="44.94189" lon="6.63102">
        <ele>2274.92136</ele>
        <time>2022-09-04T16:46:33+0200</time>
      </trkpt>
      <trkpt lat="44.94186" lon="6.63097">
        <ele>2272.868764</ele>
        <time>2022-09-04T16:46:35+0200</time>
      </trkpt>
      <trkpt lat="44.94179" lon="6.63091">
        <ele>2271.432854</ele>
        <time>2022-09-04T16:46:37+0200</time>
      </trkpt>
      <trkpt lat="44.94173" lon="6.63085">
        <ele>2269.726042</ele>
        <time>2022-09-04T16:46:39+0200</time>
      </trkpt>
      <trkpt lat="44.94173" lon="6.63075">
        <ele>2267.031321</ele>
        <time>2022-09-04T16:46:42+0200</time>
      </trkpt>
      <trkpt lat="44.94172" lon="6.63065">
        <ele>2267.637197</ele>
        <time>2022-09-04T16:46:44+0200</time>
      </trkpt>
      <trkpt lat="44.94164" lon="6.63058">
        <ele>2267.094961</ele>
        <time>2022-09-04T16:46:46+0200</time>
      </trkpt>
      <trkpt lat="44.9416" lon="6.63055">
        <ele>2265.956246</ele>
        <time>2022-09-04T16:46:47+0200</time>
      </trkpt>
      <trkpt lat="44.94154" lon="6.63048">
        <ele>2263.004197</ele>
        <time>2022-09-04T16:46:49+0200</time>
      </trkpt>
      <trkpt lat="44.94145" lon="6.6305">
        <ele>2261.229022</ele>
        <time>2022-09-04T16:46:51+0200</time>
      </trkpt>
      <trkpt lat="44.94139" lon="6.63055">
        <ele>2258.004465</ele>
        <time>2022-09-04T16:46:53+0200</time>
      </trkpt>
      <trkpt lat="44.94134" lon="6.63057">
        <ele>2255.761011</ele>
        <time>2022-09-04T16:46:54+0200</time>
      </trkpt>
      <trkpt lat="44.94132" lon="6.63064">
        <ele>2254.757404</ele>
        <time>2022-09-04T16:46:56+0200</time>
      </trkpt>
      <trkpt lat="44.94131" lon="6.63071">
        <ele>2254.015515</ele>
        <time>2022-09-04T16:46:59+0200</time>
      </trkpt>
      <trkpt lat="44.94125" lon="6.6307">
        <ele>2254.207719</ele>
        <time>2022-09-04T16:47:01+0200</time>
      </trkpt>
      <trkpt lat="44.9412" lon="6.6307">
        <ele>2253.136339</ele>
        <time>2022-09-04T16:47:03+0200</time>
      </trkpt>
      <trkpt lat="44.94114" lon="6.63068">
        <ele>2251.95261</ele>
        <time>2022-09-04T16:47:05+0200</time>
      </trkpt>
      <trkpt lat="44.94107" lon="6.63068">
        <ele>2250.697657</ele>
        <time>2022-09-04T16:47:07+0200</time>
      </trkpt>
      <trkpt lat="44.94101" lon="6.63068">
        <ele>2248.501911</ele>
        <time>2022-09-04T16:47:09+0200</time>
      </trkpt>
      <trkpt lat="44.94096" lon="6.63068">
        <ele>2247.257952</ele>
        <time>2022-09-04T16:47:11+0200</time>
      </trkpt>
      <trkpt lat="44.94088" lon="6.63063">
        <ele>2245.591936</ele>
        <time>2022-09-04T16:47:13+0200</time>
      </trkpt>
      <trkpt lat="44.94084" lon="6.6306">
        <ele>2244.032335</ele>
        <time>2022-09-04T16:47:14+0200</time>
      </trkpt>
      <trkpt lat="44.9408" lon="6.63057">
        <ele>2243.056222</ele>
        <time>2022-09-04T16:47:15+0200</time>
      </trkpt>
      <trkpt lat="44.94075" lon="6.63057">
        <ele>2242.570436</ele>
        <time>2022-09-04T16:47:16+0200</time>
      </trkpt>
      <trkpt lat="44.94068" lon="6.63057">
        <ele>2241.269355</ele>
        <time>2022-09-04T16:47:18+0200</time>
      </trkpt>
      <trkpt lat="44.94061" lon="6.63054">
        <ele>2239.891277</ele>
        <time>2022-09-04T16:47:20+0200</time>
      </trkpt>
      <trkpt lat="44.94056" lon="6.63047">
        <ele>2238.03716</ele>
        <time>2022-09-04T16:47:22+0200</time>
      </trkpt>
      <trkpt lat="44.94051" lon="6.63045">
        <ele>2235.979247</ele>
        <time>2022-09-04T16:47:24+0200</time>
      </trkpt>
      <trkpt lat="44.94047" lon="6.63053">
        <ele>2235.140142</ele>
        <time>2022-09-04T16:47:26+0200</time>
      </trkpt>
      <trkpt lat="44.94041" lon="6.63055">
        <ele>2234.845881</ele>
        <time>2022-09-04T16:47:28+0200</time>
      </trkpt>
      <trkpt lat="44.94034" lon="6.63052">
        <ele>2232.936772</ele>
        <time>2022-09-04T16:47:30+0200</time>
      </trkpt>
      <trkpt lat="44.94028" lon="6.63053">
        <ele>2232.105035</ele>
        <time>2022-09-04T16:47:32+0200</time>
      </trkpt>
      <trkpt lat="44.94026" lon="6.6306">
        <ele>2231.409578</ele>
        <time>2022-09-04T16:47:36+0200</time>
      </trkpt>
      <trkpt lat="44.94025" lon="6.63068">
        <ele>2230.564473</ele>
        <time>2022-09-04T16:47:38+0200</time>
      </trkpt>
      <trkpt lat="44.94029" lon="6.63075">
        <ele>2229.207551</ele>
        <time>2022-09-04T16:47:40+0200</time>
      </trkpt>
      <trkpt lat="44.94035" lon="6.63081">
        <ele>2228.514483</ele>
        <time>2022-09-04T16:47:42+0200</time>
      </trkpt>
      <trkpt lat="44.94042" lon="6.6309">
        <ele>2228.254959</ele>
        <time>2022-09-04T16:47:44+0200</time>
      </trkpt>
      <trkpt lat="44.94046" lon="6.63093">
        <ele>2228.564919</ele>
        <time>2022-09-04T16:47:45+0200</time>
      </trkpt>
      <trkpt lat="44.94053" lon="6.63101">
        <ele>2227.180876</ele>
        <time>2022-09-04T16:47:47+0200</time>
      </trkpt>
      <trkpt lat="44.94058" lon="6.63104">
        <ele>2226.316778</ele>
        <time>2022-09-04T16:47:48+0200</time>
      </trkpt>
      <trkpt lat="44.94062" lon="6.63109">
        <ele>2225.777059</ele>
        <time>2022-09-04T16:47:49+0200</time>
      </trkpt>
      <trkpt lat="44.94068" lon="6.63115">
        <ele>2225.544406</ele>
        <time>2022-09-04T16:47:50+0200</time>
      </trkpt>
      <trkpt lat="44.94073" lon="6.63121">
        <ele>2225.315861</ele>
        <time>2022-09-04T16:47:51+0200</time>
      </trkpt>
      <trkpt lat="44.94076" lon="6.63125">
        <ele>2225.152727</ele>
        <time>2022-09-04T16:47:52+0200</time>
      </trkpt>
      <trkpt lat="44.94082" lon="6.63134">
        <ele>2224.81774</ele>
        <time>2022-09-04T16:47:54+0200</time>
      </trkpt>
      <trkpt lat="44.94089" lon="6.63137">
        <ele>2224.810376</ele>
        <time>2022-09-04T16:47:56+0200</time>
      </trkpt>
      <trkpt lat="44.94094" lon="6.63141">
        <ele>2224.552941</ele>
        <time>2022-09-04T16:47:58+0200</time>
      </trkpt>
      <trkpt lat="44.941" lon="6.63144">
        <ele>2224.300094</ele>
        <time>2022-09-04T16:48:01+0200</time>
      </trkpt>
      <trkpt lat="44.94105" lon="6.63147">
        <ele>2223.917847</ele>
        <time>2022-09-04T16:48:03+0200</time>
      </trkpt>
      <trkpt lat="44.9411" lon="6.63151">
        <ele>2223.660213</ele>
        <time>2022-09-04T16:48:05+0200</time>
      </trkpt>
      <trkpt lat="44.94114" lon="6.63154">
        <ele>2223.251316</ele>
        <time>2022-09-04T16:48:06+0200</time>
      </trkpt>
      <trkpt lat="44.94119" lon="6.63158">
        <ele>2223.161079</ele>
        <time>2022-09-04T16:48:07+0200</time>
      </trkpt>
      <trkpt lat="44.94118" lon="6.63165">
        <ele>2223.854512</ele>
        <time>2022-09-04T16:48:09+0200</time>
      </trkpt>
      <trkpt lat="44.94114" lon="6.63169">
        <ele>2218.661024</ele>
        <time>2022-09-04T16:48:24+0200</time>
      </trkpt>
      <trkpt lat="44.94114" lon="6.63176">
        <ele>2217.813871</ele>
        <time>2022-09-04T16:48:56+0200</time>
      </trkpt>
      <trkpt lat="44.94117" lon="6.63181">
        <ele>2218.967398</ele>
        <time>2022-09-04T16:48:58+0200</time>
      </trkpt>
      <trkpt lat="44.94119" lon="6.6319">
        <ele>2219.689068</ele>
        <time>2022-09-04T16:49:00+0200</time>
      </trkpt>
      <trkpt lat="44.94115" lon="6.63195">
        <ele>2221.203435</ele>
        <time>2022-09-04T16:49:02+0200</time>
      </trkpt>
      <trkpt lat="44.94111" lon="6.63194">
        <ele>2221.797572</ele>
        <time>2022-09-04T16:49:04+0200</time>
      </trkpt>
      <trkpt lat="44.94106" lon="6.63195">
        <ele>2221.906025</ele>
        <time>2022-09-04T16:49:06+0200</time>
      </trkpt>
      <trkpt lat="44.94099" lon="6.63191">
        <ele>2220.603107</ele>
        <time>2022-09-04T16:49:09+0200</time>
      </trkpt>
      <trkpt lat="44.94094" lon="6.63191">
        <ele>2219.290309</ele>
        <time>2022-09-04T16:49:11+0200</time>
      </trkpt>
      <trkpt lat="44.94089" lon="6.63192">
        <ele>2216.199717</ele>
        <time>2022-09-04T16:49:14+0200</time>
      </trkpt>
      <trkpt lat="44.94086" lon="6.63197">
        <ele>2214.303348</ele>
        <time>2022-09-04T16:49:16+0200</time>
      </trkpt>
      <trkpt lat="44.94082" lon="6.63203">
        <ele>2213.252053</ele>
        <time>2022-09-04T16:49:19+0200</time>
      </trkpt>
      <trkpt lat="44.94077" lon="6.63207">
        <ele>2212.962498</ele>
        <time>2022-09-04T16:49:21+0200</time>
      </trkpt>
      <trkpt lat="44.9407" lon="6.63211">
        <ele>2211.432432</ele>
        <time>2022-09-04T16:49:23+0200</time>
      </trkpt>
      <trkpt lat="44.94066" lon="6.63212">
        <ele>2211.170704</ele>
        <time>2022-09-04T16:49:24+0200</time>
      </trkpt>
      <trkpt lat="44.9406" lon="6.63214">
        <ele>2210.81651</ele>
        <time>2022-09-04T16:49:25+0200</time>
      </trkpt>
      <trkpt lat="44.94056" lon="6.63218">
        <ele>2210.64575</ele>
        <time>2022-09-04T16:49:26+0200</time>
      </trkpt>
      <trkpt lat="44.94051" lon="6.6322">
        <ele>2210.163501</ele>
        <time>2022-09-04T16:49:27+0200</time>
      </trkpt>
      <trkpt lat="44.94045" lon="6.63222">
        <ele>2209.858277</ele>
        <time>2022-09-04T16:49:29+0200</time>
      </trkpt>
      <trkpt lat="44.94038" lon="6.63225">
        <ele>2209.971499</ele>
        <time>2022-09-04T16:49:31+0200</time>
      </trkpt>
      <trkpt lat="44.94032" lon="6.63229">
        <ele>2209.943843</ele>
        <time>2022-09-04T16:49:32+0200</time>
      </trkpt>
      <trkpt lat="44.94028" lon="6.63232">
        <ele>2210.163876</ele>
        <time>2022-09-04T16:49:33+0200</time>
      </trkpt>
      <trkpt lat="44.94021" lon="6.63235">
        <ele>2210.493523</ele>
        <time>2022-09-04T16:49:35+0200</time>
      </trkpt>
      <trkpt lat="44.94016" lon="6.63239">
        <ele>2208.954594</ele>
        <time>2022-09-04T16:49:36+0200</time>
      </trkpt>
      <trkpt lat="44.9401" lon="6.63243">
        <ele>2207.471435</ele>
        <time>2022-09-04T16:49:38+0200</time>
      </trkpt>
      <trkpt lat="44.94006" lon="6.63247">
        <ele>2207.161775</ele>
        <time>2022-09-04T16:49:39+0200</time>
      </trkpt>
      <trkpt lat="44.94001" lon="6.6325">
        <ele>2206.444191</ele>
        <time>2022-09-04T16:49:40+0200</time>
      </trkpt>
      <trkpt lat="44.93996" lon="6.6326">
        <ele>2205.746235</ele>
        <time>2022-09-04T16:49:42+0200</time>
      </trkpt>
      <trkpt lat="44.93993" lon="6.63266">
        <ele>2205.481524</ele>
        <time>2022-09-04T16:49:43+0200</time>
      </trkpt>
      <trkpt lat="44.93993" lon="6.63274">
        <ele>2205.342914</ele>
        <time>2022-09-04T16:49:44+0200</time>
      </trkpt>
      <trkpt lat="44.9399" lon="6.6328">
        <ele>2205.418807</ele>
        <time>2022-09-04T16:49:45+0200</time>
      </trkpt>
      <trkpt lat="44.93988" lon="6.63293">
        <ele>2205.187231</ele>
        <time>2022-09-04T16:49:47+0200</time>
      </trkpt>
      <trkpt lat="44.93987" lon="6.63301">
        <ele>2205.090635</ele>
        <time>2022-09-04T16:49:48+0200</time>
      </trkpt>
      <trkpt lat="44.93986" lon="6.63308">
        <ele>2205.257335</ele>
        <time>2022-09-04T16:49:49+0200</time>
      </trkpt>
      <trkpt lat="44.93987" lon="6.63316">
        <ele>2205.685197</ele>
        <time>2022-09-04T16:49:51+0200</time>
      </trkpt>
      <trkpt lat="44.93985" lon="6.63327">
        <ele>2206.655131</ele>
        <time>2022-09-04T16:49:53+0200</time>
      </trkpt>
      <trkpt lat="44.93977" lon="6.6333">
        <ele>2207.039748</ele>
        <time>2022-09-04T16:49:55+0200</time>
      </trkpt>
      <trkpt lat="44.93969" lon="6.63334">
        <ele>2205.75495</ele>
        <time>2022-09-04T16:49:57+0200</time>
      </trkpt>
      <trkpt lat="44.93964" lon="6.63337">
        <ele>2204.887391</ele>
        <time>2022-09-04T16:49:58+0200</time>
      </trkpt>
      <trkpt lat="44.93959" lon="6.6334">
        <ele>2203.765323</ele>
        <time>2022-09-04T16:49:59+0200</time>
      </trkpt>
      <trkpt lat="44.93954" lon="6.63344">
        <ele>2202.79133</ele>
        <time>2022-09-04T16:50:00+0200</time>
      </trkpt>
      <trkpt lat="44.93949" lon="6.63349">
        <ele>2200.070347</ele>
        <time>2022-09-04T16:50:02+0200</time>
      </trkpt>
      <trkpt lat="44.93944" lon="6.63353">
        <ele>2198.288908</ele>
        <time>2022-09-04T16:50:05+0200</time>
      </trkpt>
      <trkpt lat="44.93948" lon="6.63344">
        <ele>2195.959205</ele>
        <time>2022-09-04T16:50:11+0200</time>
      </trkpt>
      <trkpt lat="44.93953" lon="6.63338">
        <ele>2194.380406</ele>
        <time>2022-09-04T16:50:13+0200</time>
      </trkpt>
      <trkpt lat="44.93957" lon="6.63331">
        <ele>2193.623023</ele>
        <time>2022-09-04T16:50:15+0200</time>
      </trkpt>
      <trkpt lat="44.93959" lon="6.63324">
        <ele>2192.344182</ele>
        <time>2022-09-04T16:50:18+0200</time>
      </trkpt>
      <trkpt lat="44.93952" lon="6.63325">
        <ele>2190.385383</ele>
        <time>2022-09-04T16:50:20+0200</time>
      </trkpt>
      <trkpt lat="44.93947" lon="6.63325">
        <ele>2189.12284</ele>
        <time>2022-09-04T16:50:21+0200</time>
      </trkpt>
      <trkpt lat="44.93943" lon="6.63327">
        <ele>2188.202067</ele>
        <time>2022-09-04T16:50:22+0200</time>
      </trkpt>
      <trkpt lat="44.93938" lon="6.6333">
        <ele>2187.611138</ele>
        <time>2022-09-04T16:50:23+0200</time>
      </trkpt>
      <trkpt lat="44.93931" lon="6.63336">
        <ele>2185.723904</ele>
        <time>2022-09-04T16:50:25+0200</time>
      </trkpt>
      <trkpt lat="44.93927" lon="6.63342">
        <ele>2184.798419</ele>
        <time>2022-09-04T16:50:26+0200</time>
      </trkpt>
      <trkpt lat="44.93922" lon="6.63346">
        <ele>2184.691141</ele>
        <time>2022-09-04T16:50:27+0200</time>
      </trkpt>
      <trkpt lat="44.93918" lon="6.63349">
        <ele>2184.922312</ele>
        <time>2022-09-04T16:50:28+0200</time>
      </trkpt>
      <trkpt lat="44.93911" lon="6.63353">
        <ele>2184.933948</ele>
        <time>2022-09-04T16:50:30+0200</time>
      </trkpt>
      <trkpt lat="44.93903" lon="6.63359">
        <ele>2182.674539</ele>
        <time>2022-09-04T16:50:32+0200</time>
      </trkpt>
      <trkpt lat="44.93899" lon="6.63363">
        <ele>2182.158082</ele>
        <time>2022-09-04T16:50:33+0200</time>
      </trkpt>
      <trkpt lat="44.93889" lon="6.63368">
        <ele>2181.649208</ele>
        <time>2022-09-04T16:50:35+0200</time>
      </trkpt>
      <trkpt lat="44.93883" lon="6.63373">
        <ele>2181.478742</ele>
        <time>2022-09-04T16:50:36+0200</time>
      </trkpt>
      <trkpt lat="44.93876" lon="6.63376">
        <ele>2181.222482</ele>
        <time>2022-09-04T16:50:37+0200</time>
      </trkpt>
      <trkpt lat="44.93871" lon="6.63379">
        <ele>2180.42893</ele>
        <time>2022-09-04T16:50:38+0200</time>
      </trkpt>
      <trkpt lat="44.93865" lon="6.63381">
        <ele>2178.039274</ele>
        <time>2022-09-04T16:50:40+0200</time>
      </trkpt>
      <trkpt lat="44.9386" lon="6.63389">
        <ele>2176.316066</ele>
        <time>2022-09-04T16:50:42+0200</time>
      </trkpt>
      <trkpt lat="44.93858" lon="6.63395">
        <ele>2175.485779</ele>
        <time>2022-09-04T16:50:43+0200</time>
      </trkpt>
      <trkpt lat="44.93856" lon="6.63402">
        <ele>2174.62486</ele>
        <time>2022-09-04T16:50:44+0200</time>
      </trkpt>
      <trkpt lat="44.93854" lon="6.6341">
        <ele>2173.671952</ele>
        <time>2022-09-04T16:50:45+0200</time>
      </trkpt>
      <trkpt lat="44.93854" lon="6.63418">
        <ele>2173.146828</ele>
        <time>2022-09-04T16:50:46+0200</time>
      </trkpt>
      <trkpt lat="44.93853" lon="6.63426">
        <ele>2172.769554</ele>
        <time>2022-09-04T16:50:47+0200</time>
      </trkpt>
      <trkpt lat="44.93854" lon="6.63433">
        <ele>2172.637616</ele>
        <time>2022-09-04T16:50:48+0200</time>
      </trkpt>
      <trkpt lat="44.93853" lon="6.63443">
        <ele>2172.433464</ele>
        <time>2022-09-04T16:50:49+0200</time>
      </trkpt>
      <trkpt lat="44.93853" lon="6.63452">
        <ele>2172.425665</ele>
        <time>2022-09-04T16:50:50+0200</time>
      </trkpt>
      <trkpt lat="44.93853" lon="6.63463">
        <ele>2171.908223</ele>
        <time>2022-09-04T16:50:51+0200</time>
      </trkpt>
      <trkpt lat="44.93851" lon="6.63472">
        <ele>2171.797908</ele>
        <time>2022-09-04T16:50:52+0200</time>
      </trkpt>
      <trkpt lat="44.93848" lon="6.63479">
        <ele>2171.87505</ele>
        <time>2022-09-04T16:50:53+0200</time>
      </trkpt>
      <trkpt lat="44.93848" lon="6.63489">
        <ele>2171.505506</ele>
        <time>2022-09-04T16:50:55+0200</time>
      </trkpt>
      <trkpt lat="44.93842" lon="6.63489">
        <ele>2170.247495</ele>
        <time>2022-09-04T16:50:58+0200</time>
      </trkpt>
      <trkpt lat="44.93837" lon="6.63487">
        <ele>2169.526863</ele>
        <time>2022-09-04T16:51:00+0200</time>
      </trkpt>
      <trkpt lat="44.9383" lon="6.63486">
        <ele>2167.79775</ele>
        <time>2022-09-04T16:51:02+0200</time>
      </trkpt>
      <trkpt lat="44.93824" lon="6.63484">
        <ele>2165.870207</ele>
        <time>2022-09-04T16:51:04+0200</time>
      </trkpt>
      <trkpt lat="44.93818" lon="6.63485">
        <ele>2164.08478</ele>
        <time>2022-09-04T16:51:06+0200</time>
      </trkpt>
      <trkpt lat="44.9381" lon="6.63485">
        <ele>2162.864601</ele>
        <time>2022-09-04T16:51:08+0200</time>
      </trkpt>
      <trkpt lat="44.93804" lon="6.63481">
        <ele>2161.911243</ele>
        <time>2022-09-04T16:51:10+0200</time>
      </trkpt>
      <trkpt lat="44.93795" lon="6.63477">
        <ele>2160.592864</ele>
        <time>2022-09-04T16:51:12+0200</time>
      </trkpt>
      <trkpt lat="44.93788" lon="6.63477">
        <ele>2159.888738</ele>
        <time>2022-09-04T16:51:13+0200</time>
      </trkpt>
      <trkpt lat="44.9378" lon="6.63474">
        <ele>2159.202872</ele>
        <time>2022-09-04T16:51:14+0200</time>
      </trkpt>
      <trkpt lat="44.93773" lon="6.63475">
        <ele>2158.76763</ele>
        <time>2022-09-04T16:51:15+0200</time>
      </trkpt>
      <trkpt lat="44.93767" lon="6.63475">
        <ele>2158.413716</ele>
        <time>2022-09-04T16:51:16+0200</time>
      </trkpt>
      <trkpt lat="44.93759" lon="6.63474">
        <ele>2158.013464</ele>
        <time>2022-09-04T16:51:17+0200</time>
      </trkpt>
      <trkpt lat="44.93751" lon="6.63475">
        <ele>2158.094491</ele>
        <time>2022-09-04T16:51:18+0200</time>
      </trkpt>
      <trkpt lat="44.93746" lon="6.63474">
        <ele>2157.945223</ele>
        <time>2022-09-04T16:51:19+0200</time>
      </trkpt>
      <trkpt lat="44.93739" lon="6.63475">
        <ele>2157.380804</ele>
        <time>2022-09-04T16:51:20+0200</time>
      </trkpt>
      <trkpt lat="44.93731" lon="6.63476">
        <ele>2156.411995</ele>
        <time>2022-09-04T16:51:21+0200</time>
      </trkpt>
      <trkpt lat="44.93726" lon="6.63476">
        <ele>2155.823173</ele>
        <time>2022-09-04T16:51:22+0200</time>
      </trkpt>
      <trkpt lat="44.93718" lon="6.63474">
        <ele>2153.640456</ele>
        <time>2022-09-04T16:51:24+0200</time>
      </trkpt>
      <trkpt lat="44.93714" lon="6.63474">
        <ele>2152.850651</ele>
        <time>2022-09-04T16:51:25+0200</time>
      </trkpt>
      <trkpt lat="44.93702" lon="6.63474">
        <ele>2149.665555</ele>
        <time>2022-09-04T16:51:27+0200</time>
      </trkpt>
      <trkpt lat="44.93694" lon="6.63475">
        <ele>2147.929857</ele>
        <time>2022-09-04T16:51:28+0200</time>
      </trkpt>
      <trkpt lat="44.93688" lon="6.63477">
        <ele>2146.479296</ele>
        <time>2022-09-04T16:51:29+0200</time>
      </trkpt>
      <trkpt lat="44.9368" lon="6.63478">
        <ele>2145.189107</ele>
        <time>2022-09-04T16:51:30+0200</time>
      </trkpt>
      <trkpt lat="44.93673" lon="6.6348">
        <ele>2144.494596</ele>
        <time>2022-09-04T16:51:31+0200</time>
      </trkpt>
      <trkpt lat="44.93667" lon="6.63481">
        <ele>2143.774182</ele>
        <time>2022-09-04T16:51:32+0200</time>
      </trkpt>
      <trkpt lat="44.93662" lon="6.63485">
        <ele>2142.20748</ele>
        <time>2022-09-04T16:51:34+0200</time>
      </trkpt>
      <trkpt lat="44.93664" lon="6.63476">
        <ele>2138.639996</ele>
        <time>2022-09-04T16:51:39+0200</time>
      </trkpt>
      <trkpt lat="44.93669" lon="6.63468">
        <ele>2137.455759</ele>
        <time>2022-09-04T16:51:41+0200</time>
      </trkpt>
      <trkpt lat="44.93675" lon="6.63461">
        <ele>2134.605029</ele>
        <time>2022-09-04T16:51:43+0200</time>
      </trkpt>
      <trkpt lat="44.93679" lon="6.63455">
        <ele>2134.621987</ele>
        <time>2022-09-04T16:51:45+0200</time>
      </trkpt>
      <trkpt lat="44.93684" lon="6.63449">
        <ele>2135.033994</ele>
        <time>2022-09-04T16:51:47+0200</time>
      </trkpt>
      <trkpt lat="44.93686" lon="6.63441">
        <ele>2134.6578</ele>
        <time>2022-09-04T16:51:49+0200</time>
      </trkpt>
      <trkpt lat="44.93692" lon="6.63428">
        <ele>2134.111722</ele>
        <time>2022-09-04T16:51:51+0200</time>
      </trkpt>
      <trkpt lat="44.93696" lon="6.6342">
        <ele>2132.637711</ele>
        <time>2022-09-04T16:51:52+0200</time>
      </trkpt>
      <trkpt lat="44.937" lon="6.63415">
        <ele>2131.690848</ele>
        <time>2022-09-04T16:51:53+0200</time>
      </trkpt>
      <trkpt lat="44.93705" lon="6.63409">
        <ele>2129.228692</ele>
        <time>2022-09-04T16:51:55+0200</time>
      </trkpt>
      <trkpt lat="44.93697" lon="6.63404">
        <ele>2124.593119</ele>
        <time>2022-09-04T16:52:00+0200</time>
      </trkpt>
      <trkpt lat="44.93691" lon="6.63404">
        <ele>2122.976108</ele>
        <time>2022-09-04T16:52:02+0200</time>
      </trkpt>
      <trkpt lat="44.93686" lon="6.63404">
        <ele>2118.391971</ele>
        <time>2022-09-04T16:52:05+0200</time>
      </trkpt>
      <trkpt lat="44.9368" lon="6.63408">
        <ele>2118.357447</ele>
        <time>2022-09-04T16:52:07+0200</time>
      </trkpt>
      <trkpt lat="44.93676" lon="6.63411">
        <ele>2118.279232</ele>
        <time>2022-09-04T16:52:09+0200</time>
      </trkpt>
      <trkpt lat="44.93667" lon="6.63413">
        <ele>2117.072723</ele>
        <time>2022-09-04T16:52:11+0200</time>
      </trkpt>
      <trkpt lat="44.9366" lon="6.63411">
        <ele>2116.791011</ele>
        <time>2022-09-04T16:52:12+0200</time>
      </trkpt>
      <trkpt lat="44.93655" lon="6.63411">
        <ele>2116.368235</ele>
        <time>2022-09-04T16:52:13+0200</time>
      </trkpt>
      <trkpt lat="44.93645" lon="6.63413">
        <ele>2113.305422</ele>
        <time>2022-09-04T16:52:15+0200</time>
      </trkpt>
      <trkpt lat="44.93639" lon="6.6341">
        <ele>2112.295856</ele>
        <time>2022-09-04T16:52:16+0200</time>
      </trkpt>
      <trkpt lat="44.93634" lon="6.63408">
        <ele>2110.968806</ele>
        <time>2022-09-04T16:52:17+0200</time>
      </trkpt>
      <trkpt lat="44.93627" lon="6.63403">
        <ele>2108.369154</ele>
        <time>2022-09-04T16:52:19+0200</time>
      </trkpt>
      <trkpt lat="44.93621" lon="6.63401">
        <ele>2106.9605</ele>
        <time>2022-09-04T16:52:20+0200</time>
      </trkpt>
      <trkpt lat="44.93615" lon="6.63401">
        <ele>2105.709287</ele>
        <time>2022-09-04T16:52:21+0200</time>
      </trkpt>
      <trkpt lat="44.93609" lon="6.63401">
        <ele>2104.156734</ele>
        <time>2022-09-04T16:52:22+0200</time>
      </trkpt>
      <trkpt lat="44.93604" lon="6.63401">
        <ele>2102.453001</ele>
        <time>2022-09-04T16:52:23+0200</time>
      </trkpt>
      <trkpt lat="44.93598" lon="6.63404">
        <ele>2100.474246</ele>
        <time>2022-09-04T16:52:25+0200</time>
      </trkpt>
      <trkpt lat="44.93598" lon="6.63397">
        <ele>2098.015595</ele>
        <time>2022-09-04T16:52:28+0200</time>
      </trkpt>
      <trkpt lat="44.93603" lon="6.63393">
        <ele>2097.363356</ele>
        <time>2022-09-04T16:52:30+0200</time>
      </trkpt>
      <trkpt lat="44.93609" lon="6.63391">
        <ele>2097.068581</ele>
        <time>2022-09-04T16:52:31+0200</time>
      </trkpt>
      <trkpt lat="44.93614" lon="6.6339">
        <ele>2097.07825</ele>
        <time>2022-09-04T16:52:32+0200</time>
      </trkpt>
      <trkpt lat="44.9362" lon="6.63386">
        <ele>2096.895646</ele>
        <time>2022-09-04T16:52:35+0200</time>
      </trkpt>
      <trkpt lat="44.93627" lon="6.63382">
        <ele>2095.905686</ele>
        <time>2022-09-04T16:52:37+0200</time>
      </trkpt>
      <trkpt lat="44.93632" lon="6.63378">
        <ele>2095.919485</ele>
        <time>2022-09-04T16:52:39+0200</time>
      </trkpt>
      <trkpt lat="44.93637" lon="6.63373">
        <ele>2096.227692</ele>
        <time>2022-09-04T16:52:41+0200</time>
      </trkpt>
      <trkpt lat="44.93645" lon="6.63369">
        <ele>2096.28658</ele>
        <time>2022-09-04T16:52:43+0200</time>
      </trkpt>
      <trkpt lat="44.9364" lon="6.63366">
        <ele>2095.834361</ele>
        <time>2022-09-04T16:52:46+0200</time>
      </trkpt>
      <trkpt lat="44.93632" lon="6.63362">
        <ele>2094.399722</ele>
        <time>2022-09-04T16:52:48+0200</time>
      </trkpt>
      <trkpt lat="44.93626" lon="6.63361">
        <ele>2093.128546</ele>
        <time>2022-09-04T16:52:49+0200</time>
      </trkpt>
      <trkpt lat="44.93619" lon="6.63361">
        <ele>2091.807849</ele>
        <time>2022-09-04T16:52:50+0200</time>
      </trkpt>
      <trkpt lat="44.93611" lon="6.63356">
        <ele>2090.313484</ele>
        <time>2022-09-04T16:52:51+0200</time>
      </trkpt>
      <trkpt lat="44.93606" lon="6.63352">
        <ele>2088.659441</ele>
        <time>2022-09-04T16:52:52+0200</time>
      </trkpt>
      <trkpt lat="44.93599" lon="6.6335">
        <ele>2084.722875</ele>
        <time>2022-09-04T16:52:54+0200</time>
      </trkpt>
      <trkpt lat="44.93593" lon="6.63346">
        <ele>2080.849519</ele>
        <time>2022-09-04T16:52:56+0200</time>
      </trkpt>
      <trkpt lat="44.93585" lon="6.63341">
        <ele>2076.929103</ele>
        <time>2022-09-04T16:52:58+0200</time>
      </trkpt>
      <trkpt lat="44.93581" lon="6.63342">
        <ele>2075.338306</ele>
        <time>2022-09-04T16:52:59+0200</time>
      </trkpt>
      <trkpt lat="44.93575" lon="6.6334">
        <ele>2073.382638</ele>
        <time>2022-09-04T16:53:01+0200</time>
      </trkpt>
      <trkpt lat="44.93569" lon="6.6334">
        <ele>2068.992955</ele>
        <time>2022-09-04T16:53:03+0200</time>
      </trkpt>
      <trkpt lat="44.93564" lon="6.6334">
        <ele>2066.807738</ele>
        <time>2022-09-04T16:53:06+0200</time>
      </trkpt>
      <trkpt lat="44.93559" lon="6.63341">
        <ele>2066.3921</ele>
        <time>2022-09-04T16:53:08+0200</time>
      </trkpt>
      <trkpt lat="44.93562" lon="6.63335">
        <ele>2065.738722</ele>
        <time>2022-09-04T16:53:12+0200</time>
      </trkpt>
      <trkpt lat="44.93563" lon="6.6333">
        <ele>2064.487911</ele>
        <time>2022-09-04T16:53:15+0200</time>
      </trkpt>
      <trkpt lat="44.93559" lon="6.6333">
        <ele>2063.209702</ele>
        <time>2022-09-04T16:53:18+0200</time>
      </trkpt>
      <trkpt lat="44.93552" lon="6.63331">
        <ele>2061.945891</ele>
        <time>2022-09-04T16:53:21+0200</time>
      </trkpt>
      <trkpt lat="44.93543" lon="6.63333">
        <ele>2060.510198</ele>
        <time>2022-09-04T16:53:23+0200</time>
      </trkpt>
      <trkpt lat="44.93538" lon="6.63335">
        <ele>2058.793545</ele>
        <time>2022-09-04T16:53:25+0200</time>
      </trkpt>
      <trkpt lat="44.93533" lon="6.63342">
        <ele>2057.369693</ele>
        <time>2022-09-04T16:53:28+0200</time>
      </trkpt>
      <trkpt lat="44.93532" lon="6.63353">
        <ele>2057.483969</ele>
        <time>2022-09-04T16:53:30+0200</time>
      </trkpt>
      <trkpt lat="44.93532" lon="6.63359">
        <ele>2057.501962</ele>
        <time>2022-09-04T16:53:31+0200</time>
      </trkpt>
      <trkpt lat="44.93531" lon="6.63369">
        <ele>2058.048741</ele>
        <time>2022-09-04T16:53:32+0200</time>
      </trkpt>
      <trkpt lat="44.93529" lon="6.63377">
        <ele>2058.96421</ele>
        <time>2022-09-04T16:53:33+0200</time>
      </trkpt>
      <trkpt lat="44.93527" lon="6.63384">
        <ele>2060.491393</ele>
        <time>2022-09-04T16:53:34+0200</time>
      </trkpt>
      <trkpt lat="44.93524" lon="6.63391">
        <ele>2063.231488</ele>
        <time>2022-09-04T16:53:36+0200</time>
      </trkpt>
      <trkpt lat="44.93516" lon="6.63395">
        <ele>2063.567396</ele>
        <time>2022-09-04T16:53:38+0200</time>
      </trkpt>
      <trkpt lat="44.93515" lon="6.63384">
        <ele>2061.411307</ele>
        <time>2022-09-04T16:53:43+0200</time>
      </trkpt>
      <trkpt lat="44.93513" lon="6.63377">
        <ele>2060.191459</ele>
        <time>2022-09-04T16:53:44+0200</time>
      </trkpt>
      <trkpt lat="44.93513" lon="6.63369">
        <ele>2058.146742</ele>
        <time>2022-09-04T16:53:45+0200</time>
      </trkpt>
      <trkpt lat="44.93512" lon="6.63361">
        <ele>2057.32775</ele>
        <time>2022-09-04T16:53:46+0200</time>
      </trkpt>
      <trkpt lat="44.93512" lon="6.63353">
        <ele>2056.420527</ele>
        <time>2022-09-04T16:53:47+0200</time>
      </trkpt>
      <trkpt lat="44.9351" lon="6.63345">
        <ele>2054.860132</ele>
        <time>2022-09-04T16:53:48+0200</time>
      </trkpt>
      <trkpt lat="44.93506" lon="6.63339">
        <ele>2052.948194</ele>
        <time>2022-09-04T16:53:49+0200</time>
      </trkpt>
      <trkpt lat="44.93503" lon="6.63332">
        <ele>2050.592906</ele>
        <time>2022-09-04T16:53:51+0200</time>
      </trkpt>
      <trkpt lat="44.93507" lon="6.63322">
        <ele>2045.583836</ele>
        <time>2022-09-04T16:53:53+0200</time>
      </trkpt>
      <trkpt lat="44.93514" lon="6.63314">
        <ele>2043.387308</ele>
        <time>2022-09-04T16:53:55+0200</time>
      </trkpt>
      <trkpt lat="44.93518" lon="6.63306">
        <ele>2041.946702</ele>
        <time>2022-09-04T16:53:57+0200</time>
      </trkpt>
      <trkpt lat="44.93522" lon="6.63299">
        <ele>2040.804</ele>
        <time>2022-09-04T16:53:59+0200</time>
      </trkpt>
      <trkpt lat="44.93525" lon="6.63293">
        <ele>2038.021106</ele>
        <time>2022-09-04T16:54:01+0200</time>
      </trkpt>
      <trkpt lat="44.9352" lon="6.63292">
        <ele>2033.894425</ele>
        <time>2022-09-04T16:54:06+0200</time>
      </trkpt>
      <trkpt lat="44.93513" lon="6.63297">
        <ele>2032.790553</ele>
        <time>2022-09-04T16:54:08+0200</time>
      </trkpt>
      <trkpt lat="44.93508" lon="6.63297">
        <ele>2032.376243</ele>
        <time>2022-09-04T16:54:09+0200</time>
      </trkpt>
      <trkpt lat="44.935" lon="6.63299">
        <ele>2030.635841</ele>
        <time>2022-09-04T16:54:11+0200</time>
      </trkpt>
      <trkpt lat="44.93493" lon="6.63305">
        <ele>2029.403493</ele>
        <time>2022-09-04T16:54:13+0200</time>
      </trkpt>
      <trkpt lat="44.93489" lon="6.6331">
        <ele>2028.593738</ele>
        <time>2022-09-04T16:54:14+0200</time>
      </trkpt>
      <trkpt lat="44.93486" lon="6.63318">
        <ele>2026.770618</ele>
        <time>2022-09-04T16:54:16+0200</time>
      </trkpt>
      <trkpt lat="44.93486" lon="6.63324">
        <ele>2026.171323</ele>
        <time>2022-09-04T16:54:18+0200</time>
      </trkpt>
      <trkpt lat="44.93485" lon="6.63334">
        <ele>2025.920201</ele>
        <time>2022-09-04T16:54:20+0200</time>
      </trkpt>
      <trkpt lat="44.93482" lon="6.6334">
        <ele>2025.811652</ele>
        <time>2022-09-04T16:54:21+0200</time>
      </trkpt>
      <trkpt lat="44.9348" lon="6.63347">
        <ele>2025.626172</ele>
        <time>2022-09-04T16:54:22+0200</time>
      </trkpt>
      <trkpt lat="44.93478" lon="6.63359">
        <ele>2024.821891</ele>
        <time>2022-09-04T16:54:24+0200</time>
      </trkpt>
      <trkpt lat="44.93475" lon="6.63369">
        <ele>2024.337385</ele>
        <time>2022-09-04T16:54:26+0200</time>
      </trkpt>
      <trkpt lat="44.93473" lon="6.63378">
        <ele>2024.16206</ele>
        <time>2022-09-04T16:54:28+0200</time>
      </trkpt>
      <trkpt lat="44.93472" lon="6.63385">
        <ele>2024.214297</ele>
        <time>2022-09-04T16:54:29+0200</time>
      </trkpt>
      <trkpt lat="44.93469" lon="6.63392">
        <ele>2023.818507</ele>
        <time>2022-09-04T16:54:31+0200</time>
      </trkpt>
      <trkpt lat="44.93467" lon="6.63399">
        <ele>2022.765281</ele>
        <time>2022-09-04T16:54:33+0200</time>
      </trkpt>
      <trkpt lat="44.93468" lon="6.63406">
        <ele>2021.698652</ele>
        <time>2022-09-04T16:54:35+0200</time>
      </trkpt>
      <trkpt lat="44.93465" lon="6.6342">
        <ele>2020.25286</ele>
        <time>2022-09-04T16:54:37+0200</time>
      </trkpt>
      <trkpt lat="44.93465" lon="6.63427">
        <ele>2019.24472</ele>
        <time>2022-09-04T16:54:38+0200</time>
      </trkpt>
      <trkpt lat="44.93463" lon="6.63434">
        <ele>2018.692212</ele>
        <time>2022-09-04T16:54:39+0200</time>
      </trkpt>
      <trkpt lat="44.93464" lon="6.63441">
        <ele>2018.110823</ele>
        <time>2022-09-04T16:54:40+0200</time>
      </trkpt>
      <trkpt lat="44.93464" lon="6.63449">
        <ele>2018.147545</ele>
        <time>2022-09-04T16:54:41+0200</time>
      </trkpt>
      <trkpt lat="44.93463" lon="6.63455">
        <ele>2017.967952</ele>
        <time>2022-09-04T16:54:42+0200</time>
      </trkpt>
      <trkpt lat="44.93459" lon="6.63465">
        <ele>2017.660558</ele>
        <time>2022-09-04T16:54:44+0200</time>
      </trkpt>
      <trkpt lat="44.93455" lon="6.63469">
        <ele>2017.531549</ele>
        <time>2022-09-04T16:54:46+0200</time>
      </trkpt>
      <trkpt lat="44.93449" lon="6.63469">
        <ele>2017.597686</ele>
        <time>2022-09-04T16:54:49+0200</time>
      </trkpt>
      <trkpt lat="44.93443" lon="6.6347">
        <ele>2016.484208</ele>
        <time>2022-09-04T16:54:51+0200</time>
      </trkpt>
      <trkpt lat="44.93436" lon="6.63466">
        <ele>2015.426784</ele>
        <time>2022-09-04T16:54:53+0200</time>
      </trkpt>
      <trkpt lat="44.93428" lon="6.63462">
        <ele>2015.311554</ele>
        <time>2022-09-04T16:54:55+0200</time>
      </trkpt>
      <trkpt lat="44.93423" lon="6.63458">
        <ele>2015.032739</ele>
        <time>2022-09-04T16:54:57+0200</time>
      </trkpt>
      <trkpt lat="44.93419" lon="6.63457">
        <ele>2014.487096</ele>
        <time>2022-09-04T16:54:59+0200</time>
      </trkpt>
      <trkpt lat="44.93413" lon="6.63455">
        <ele>2012.955516</ele>
        <time>2022-09-04T16:55:01+0200</time>
      </trkpt>
      <trkpt lat="44.93409" lon="6.63454">
        <ele>2013.152636</ele>
        <time>2022-09-04T16:55:02+0200</time>
      </trkpt>
      <trkpt lat="44.93403" lon="6.63453">
        <ele>2012.42576</ele>
        <time>2022-09-04T16:55:04+0200</time>
      </trkpt>
      <trkpt lat="44.93397" lon="6.6345">
        <ele>2012.469695</ele>
        <time>2022-09-04T16:55:06+0200</time>
      </trkpt>
      <trkpt lat="44.93389" lon="6.63445">
        <ele>2013.012553</ele>
        <time>2022-09-04T16:55:08+0200</time>
      </trkpt>
      <trkpt lat="44.93384" lon="6.63443">
        <ele>2012.447671</ele>
        <time>2022-09-04T16:55:09+0200</time>
      </trkpt>
      <trkpt lat="44.9338" lon="6.63438">
        <ele>2012.611581</ele>
        <time>2022-09-04T16:55:11+0200</time>
      </trkpt>
      <trkpt lat="44.93373" lon="6.63434">
        <ele>2013.630011</ele>
        <time>2022-09-04T16:55:13+0200</time>
      </trkpt>
      <trkpt lat="44.93368" lon="6.63428">
        <ele>2014.153175</ele>
        <time>2022-09-04T16:55:15+0200</time>
      </trkpt>
      <trkpt lat="44.93365" lon="6.63422">
        <ele>2014.367588</ele>
        <time>2022-09-04T16:55:17+0200</time>
      </trkpt>
      <trkpt lat="44.93362" lon="6.63413">
        <ele>2015.000643</ele>
        <time>2022-09-04T16:55:19+0200</time>
      </trkpt>
      <trkpt lat="44.9336" lon="6.63406">
        <ele>2012.986449</ele>
        <time>2022-09-04T16:55:21+0200</time>
      </trkpt>
      <trkpt lat="44.93358" lon="6.63399">
        <ele>2011.878639</ele>
        <time>2022-09-04T16:55:23+0200</time>
      </trkpt>
      <trkpt lat="44.93355" lon="6.63393">
        <ele>2011.577361</ele>
        <time>2022-09-04T16:55:25+0200</time>
      </trkpt>
      <trkpt lat="44.93354" lon="6.63385">
        <ele>2010.575594</ele>
        <time>2022-09-04T16:55:28+0200</time>
      </trkpt>
      <trkpt lat="44.93349" lon="6.63377">
        <ele>2009.206461</ele>
        <time>2022-09-04T16:55:31+0200</time>
      </trkpt>
      <trkpt lat="44.93347" lon="6.6337">
        <ele>2007.500302</ele>
        <time>2022-09-04T16:55:33+0200</time>
      </trkpt>
      <trkpt lat="44.93343" lon="6.63365">
        <ele>2006.854528</ele>
        <time>2022-09-04T16:55:35+0200</time>
      </trkpt>
      <trkpt lat="44.93337" lon="6.63358">
        <ele>2006.274942</ele>
        <time>2022-09-04T16:55:37+0200</time>
      </trkpt>
      <trkpt lat="44.93331" lon="6.63352">
        <ele>2006.528089</ele>
        <time>2022-09-04T16:55:39+0200</time>
      </trkpt>
      <trkpt lat="44.93325" lon="6.6335">
        <ele>2007.104908</ele>
        <time>2022-09-04T16:55:41+0200</time>
      </trkpt>
      <trkpt lat="44.9332" lon="6.63349">
        <ele>2007.786759</ele>
        <time>2022-09-04T16:55:42+0200</time>
      </trkpt>
      <trkpt lat="44.93315" lon="6.6335">
        <ele>2007.649689</ele>
        <time>2022-09-04T16:55:43+0200</time>
      </trkpt>
      <trkpt lat="44.9331" lon="6.63351">
        <ele>2007.50711</ele>
        <time>2022-09-04T16:55:44+0200</time>
      </trkpt>
      <trkpt lat="44.93303" lon="6.63355">
        <ele>2009.308634</ele>
        <time>2022-09-04T16:55:46+0200</time>
      </trkpt>
      <trkpt lat="44.93297" lon="6.63349">
        <ele>2010.197007</ele>
        <time>2022-09-04T16:55:48+0200</time>
      </trkpt>
      <trkpt lat="44.93292" lon="6.6334">
        <ele>2009.839412</ele>
        <time>2022-09-04T16:55:50+0200</time>
      </trkpt>
      <trkpt lat="44.93287" lon="6.63338">
        <ele>2008.330921</ele>
        <time>2022-09-04T16:55:52+0200</time>
      </trkpt>
      <trkpt lat="44.93284" lon="6.63344">
        <ele>2007.783619</ele>
        <time>2022-09-04T16:55:54+0200</time>
      </trkpt>
      <trkpt lat="44.93285" lon="6.63353">
        <ele>2008.044322</ele>
        <time>2022-09-04T16:55:57+0200</time>
      </trkpt>
      <trkpt lat="44.93283" lon="6.63361">
        <ele>2008.213259</ele>
        <time>2022-09-04T16:55:59+0200</time>
      </trkpt>
      <trkpt lat="44.93282" lon="6.63374">
        <ele>2008.309244</ele>
        <time>2022-09-04T16:56:01+0200</time>
      </trkpt>
      <trkpt lat="44.93277" lon="6.63382">
        <ele>2008.148577</ele>
        <time>2022-09-04T16:56:03+0200</time>
      </trkpt>
      <trkpt lat="44.93276" lon="6.63388">
        <ele>2008.446976</ele>
        <time>2022-09-04T16:56:05+0200</time>
      </trkpt>
      <trkpt lat="44.93273" lon="6.63395">
        <ele>2008.576004</ele>
        <time>2022-09-04T16:56:07+0200</time>
      </trkpt>
      <trkpt lat="44.93271" lon="6.63405">
        <ele>2008.026879</ele>
        <time>2022-09-04T16:56:09+0200</time>
      </trkpt>
      <trkpt lat="44.93269" lon="6.63415">
        <ele>2009.165634</ele>
        <time>2022-09-04T16:56:11+0200</time>
      </trkpt>
      <trkpt lat="44.93263" lon="6.63424">
        <ele>2009.342347</ele>
        <time>2022-09-04T16:56:13+0200</time>
      </trkpt>
      <trkpt lat="44.93262" lon="6.63431">
        <ele>2009.503872</ele>
        <time>2022-09-04T16:56:14+0200</time>
      </trkpt>
      <trkpt lat="44.93261" lon="6.6344">
        <ele>2009.663969</ele>
        <time>2022-09-04T16:56:16+0200</time>
      </trkpt>
      <trkpt lat="44.93256" lon="6.63446">
        <ele>2010.515156</ele>
        <time>2022-09-04T16:56:18+0200</time>
      </trkpt>
      <trkpt lat="44.93254" lon="6.63453">
        <ele>2011.561788</ele>
        <time>2022-09-04T16:56:20+0200</time>
      </trkpt>
      <trkpt lat="44.93252" lon="6.63461">
        <ele>2012.967459</ele>
        <time>2022-09-04T16:56:23+0200</time>
      </trkpt>
      <trkpt lat="44.93251" lon="6.63468">
        <ele>2013.059922</ele>
        <time>2022-09-04T16:56:25+0200</time>
      </trkpt>
      <trkpt lat="44.9325" lon="6.63475">
        <ele>2014.085936</ele>
        <time>2022-09-04T16:56:27+0200</time>
      </trkpt>
      <trkpt lat="44.93248" lon="6.63483">
        <ele>2015.234482</ele>
        <time>2022-09-04T16:56:30+0200</time>
      </trkpt>
      <trkpt lat="44.93246" lon="6.63489">
        <ele>2016.553195</ele>
        <time>2022-09-04T16:56:33+0200</time>
      </trkpt>
      <trkpt lat="44.93244" lon="6.63496">
        <ele>2018.44781</ele>
        <time>2022-09-04T16:56:37+0200</time>
      </trkpt>
      <trkpt lat="44.93242" lon="6.63503">
        <ele>2018.402315</ele>
        <time>2022-09-04T16:56:41+0200</time>
      </trkpt>
      <trkpt lat="44.93243" lon="6.63512">
        <ele>2017.485726</ele>
        <time>2022-09-04T16:56:44+0200</time>
      </trkpt>
      <trkpt lat="44.93243" lon="6.6352">
        <ele>2017.517464</ele>
        <time>2022-09-04T16:56:46+0200</time>
      </trkpt>
      <trkpt lat="44.93244" lon="6.63529">
        <ele>2017.614883</ele>
        <time>2022-09-04T16:56:49+0200</time>
      </trkpt>
      <trkpt lat="44.93245" lon="6.63537">
        <ele>2018.398381</ele>
        <time>2022-09-04T16:56:52+0200</time>
      </trkpt>
      <trkpt lat="44.93246" lon="6.63545">
        <ele>2019.001064</ele>
        <time>2022-09-04T16:56:55+0200</time>
      </trkpt>
      <trkpt lat="44.93248" lon="6.63553">
        <ele>2020.411229</ele>
        <time>2022-09-04T16:56:58+0200</time>
      </trkpt>
      <trkpt lat="44.93248" lon="6.63561">
        <ele>2021.862528</ele>
        <time>2022-09-04T16:57:01+0200</time>
      </trkpt>
      <trkpt lat="44.93246" lon="6.63568">
        <ele>2022.381517</ele>
        <time>2022-09-04T16:57:04+0200</time>
      </trkpt>
      <trkpt lat="44.93242" lon="6.63574">
        <ele>2023.461557</ele>
        <time>2022-09-04T16:57:07+0200</time>
      </trkpt>
      <trkpt lat="44.93239" lon="6.6358">
        <ele>2024.323353</ele>
        <time>2022-09-04T16:57:11+0200</time>
      </trkpt>
      <trkpt lat="44.93235" lon="6.63583">
        <ele>2024.805196</ele>
        <time>2022-09-04T16:57:14+0200</time>
      </trkpt>
      <trkpt lat="44.93229" lon="6.63583">
        <ele>2023.985396</ele>
        <time>2022-09-04T16:57:18+0200</time>
      </trkpt>
      <trkpt lat="44.93223" lon="6.63583">
        <ele>2023.255748</ele>
        <time>2022-09-04T16:57:20+0200</time>
      </trkpt>
      <trkpt lat="44.93218" lon="6.63581">
        <ele>2022.087662</ele>
        <time>2022-09-04T16:57:22+0200</time>
      </trkpt>
      <trkpt lat="44.93212" lon="6.6358">
        <ele>2021.620942</ele>
        <time>2022-09-04T16:57:25+0200</time>
      </trkpt>
      <trkpt lat="44.93206" lon="6.63577">
        <ele>2020.909265</ele>
        <time>2022-09-04T16:57:28+0200</time>
      </trkpt>
      <trkpt lat="44.93201" lon="6.63573">
        <ele>2020.464834</ele>
        <time>2022-09-04T16:57:32+0200</time>
      </trkpt>
      <trkpt lat="44.93195" lon="6.63572">
        <ele>2018.734729</ele>
        <time>2022-09-04T16:57:35+0200</time>
      </trkpt>
      <trkpt lat="44.93189" lon="6.63572">
        <ele>2018.119116</ele>
        <time>2022-09-04T16:57:37+0200</time>
      </trkpt>
      <trkpt lat="44.93184" lon="6.63572">
        <ele>2017.717312</ele>
        <time>2022-09-04T16:57:39+0200</time>
      </trkpt>
      <trkpt lat="44.93177" lon="6.63572">
        <ele>2017.720814</ele>
        <time>2022-09-04T16:57:41+0200</time>
      </trkpt>
      <trkpt lat="44.93171" lon="6.6357">
        <ele>2018.567925</ele>
        <time>2022-09-04T16:57:43+0200</time>
      </trkpt>
      <trkpt lat="44.93165" lon="6.63574">
        <ele>2018.728871</ele>
        <time>2022-09-04T16:57:45+0200</time>
      </trkpt>
      <trkpt lat="44.93159" lon="6.63575">
        <ele>2019.918887</ele>
        <time>2022-09-04T16:57:47+0200</time>
      </trkpt>
      <trkpt lat="44.93151" lon="6.63573">
        <ele>2019.985382</ele>
        <time>2022-09-04T16:57:49+0200</time>
      </trkpt>
      <trkpt lat="44.93145" lon="6.63569">
        <ele>2020.306185</ele>
        <time>2022-09-04T16:57:51+0200</time>
      </trkpt>
      <trkpt lat="44.93139" lon="6.63565">
        <ele>2020.268551</ele>
        <time>2022-09-04T16:57:53+0200</time>
      </trkpt>
      <trkpt lat="44.93134" lon="6.63562">
        <ele>2019.898895</ele>
        <time>2022-09-04T16:57:54+0200</time>
      </trkpt>
      <trkpt lat="44.93129" lon="6.63558">
        <ele>2020.409835</ele>
        <time>2022-09-04T16:57:55+0200</time>
      </trkpt>
      <trkpt lat="44.93124" lon="6.63554">
        <ele>2020.210974</ele>
        <time>2022-09-04T16:57:56+0200</time>
      </trkpt>
      <trkpt lat="44.93119" lon="6.63552">
        <ele>2019.219312</ele>
        <time>2022-09-04T16:57:57+0200</time>
      </trkpt>
      <trkpt lat="44.93114" lon="6.63549">
        <ele>2018.771115</ele>
        <time>2022-09-04T16:57:58+0200</time>
      </trkpt>
      <trkpt lat="44.93109" lon="6.63545">
        <ele>2017.990671</ele>
        <time>2022-09-04T16:57:59+0200</time>
      </trkpt>
      <trkpt lat="44.93105" lon="6.6354">
        <ele>2016.967746</ele>
        <time>2022-09-04T16:58:00+0200</time>
      </trkpt>
      <trkpt lat="44.931" lon="6.63536">
        <ele>2015.577955</ele>
        <time>2022-09-04T16:58:01+0200</time>
      </trkpt>
      <trkpt lat="44.93095" lon="6.63534">
        <ele>2014.747154</ele>
        <time>2022-09-04T16:58:02+0200</time>
      </trkpt>
      <trkpt lat="44.93087" lon="6.63532">
        <ele>2014.351731</ele>
        <time>2022-09-04T16:58:04+0200</time>
      </trkpt>
      <trkpt lat="44.9308" lon="6.63533">
        <ele>2013.801228</ele>
        <time>2022-09-04T16:58:06+0200</time>
      </trkpt>
      <trkpt lat="44.93073" lon="6.63533">
        <ele>2013.049228</ele>
        <time>2022-09-04T16:58:08+0200</time>
      </trkpt>
      <trkpt lat="44.93066" lon="6.63535">
        <ele>2012.473364</ele>
        <time>2022-09-04T16:58:10+0200</time>
      </trkpt>
      <trkpt lat="44.93061" lon="6.63537">
        <ele>2012.394011</ele>
        <time>2022-09-04T16:58:11+0200</time>
      </trkpt>
      <trkpt lat="44.93052" lon="6.6354">
        <ele>2010.942738</ele>
        <time>2022-09-04T16:58:13+0200</time>
      </trkpt>
      <trkpt lat="44.93047" lon="6.63542">
        <ele>2011.127117</ele>
        <time>2022-09-04T16:58:14+0200</time>
      </trkpt>
      <trkpt lat="44.93042" lon="6.63543">
        <ele>2011.328174</ele>
        <time>2022-09-04T16:58:15+0200</time>
      </trkpt>
      <trkpt lat="44.93037" lon="6.63539">
        <ele>2011.643241</ele>
        <time>2022-09-04T16:58:16+0200</time>
      </trkpt>
      <trkpt lat="44.93032" lon="6.63538">
        <ele>2011.392835</ele>
        <time>2022-09-04T16:58:17+0200</time>
      </trkpt>
      <trkpt lat="44.93027" lon="6.6354">
        <ele>2011.241363</ele>
        <time>2022-09-04T16:58:18+0200</time>
      </trkpt>
      <trkpt lat="44.93021" lon="6.6354">
        <ele>2010.940635</ele>
        <time>2022-09-04T16:58:19+0200</time>
      </trkpt>
      <trkpt lat="44.93016" lon="6.63537">
        <ele>2010.841378</ele>
        <time>2022-09-04T16:58:20+0200</time>
      </trkpt>
      <trkpt lat="44.93015" lon="6.63531">
        <ele>2011.23297</ele>
        <time>2022-09-04T16:58:21+0200</time>
      </trkpt>
      <trkpt lat="44.93012" lon="6.63522">
        <ele>2010.578403</ele>
        <time>2022-09-04T16:58:23+0200</time>
      </trkpt>
      <trkpt lat="44.93008" lon="6.63519">
        <ele>2008.553487</ele>
        <time>2022-09-04T16:58:25+0200</time>
      </trkpt>
      <trkpt lat="44.93001" lon="6.63516">
        <ele>2007.702136</ele>
        <time>2022-09-04T16:58:27+0200</time>
      </trkpt>
      <trkpt lat="44.92997" lon="6.63513">
        <ele>2006.913147</ele>
        <time>2022-09-04T16:58:28+0200</time>
      </trkpt>
      <trkpt lat="44.92994" lon="6.63509">
        <ele>2007.249181</ele>
        <time>2022-09-04T16:58:29+0200</time>
      </trkpt>
      <trkpt lat="44.92988" lon="6.63507">
        <ele>2006.822696</ele>
        <time>2022-09-04T16:58:30+0200</time>
      </trkpt>
      <trkpt lat="44.92982" lon="6.63505">
        <ele>2007.081401</ele>
        <time>2022-09-04T16:58:31+0200</time>
      </trkpt>
      <trkpt lat="44.92977" lon="6.63502">
        <ele>2007.105664</ele>
        <time>2022-09-04T16:58:32+0200</time>
      </trkpt>
      <trkpt lat="44.92971" lon="6.63496">
        <ele>2006.525324</ele>
        <time>2022-09-04T16:58:33+0200</time>
      </trkpt>
      <trkpt lat="44.92967" lon="6.63494">
        <ele>2005.242343</ele>
        <time>2022-09-04T16:58:34+0200</time>
      </trkpt>
      <trkpt lat="44.92961" lon="6.63492">
        <ele>2003.639292</ele>
        <time>2022-09-04T16:58:35+0200</time>
      </trkpt>
      <trkpt lat="44.92954" lon="6.6349">
        <ele>2002.96359</ele>
        <time>2022-09-04T16:58:36+0200</time>
      </trkpt>
      <trkpt lat="44.92948" lon="6.63488">
        <ele>2002.963209</ele>
        <time>2022-09-04T16:58:37+0200</time>
      </trkpt>
      <trkpt lat="44.92942" lon="6.63486">
        <ele>2003.113096</ele>
        <time>2022-09-04T16:58:38+0200</time>
      </trkpt>
      <trkpt lat="44.92935" lon="6.63484">
        <ele>2002.912448</ele>
        <time>2022-09-04T16:58:39+0200</time>
      </trkpt>
      <trkpt lat="44.9293" lon="6.63482">
        <ele>2002.595286</ele>
        <time>2022-09-04T16:58:40+0200</time>
      </trkpt>
      <trkpt lat="44.92925" lon="6.63482">
        <ele>2002.255383</ele>
        <time>2022-09-04T16:58:41+0200</time>
      </trkpt>
      <trkpt lat="44.9292" lon="6.63481">
        <ele>2001.04086</ele>
        <time>2022-09-04T16:58:42+0200</time>
      </trkpt>
      <trkpt lat="44.92914" lon="6.63481">
        <ele>2000.897898</ele>
        <time>2022-09-04T16:58:43+0200</time>
      </trkpt>
      <trkpt lat="44.92908" lon="6.63479">
        <ele>2000.530862</ele>
        <time>2022-09-04T16:58:44+0200</time>
      </trkpt>
      <trkpt lat="44.92903" lon="6.63476">
        <ele>2000.590077</ele>
        <time>2022-09-04T16:58:45+0200</time>
      </trkpt>
      <trkpt lat="44.92897" lon="6.6347">
        <ele>1999.932261</ele>
        <time>2022-09-04T16:58:47+0200</time>
      </trkpt>
      <trkpt lat="44.92892" lon="6.63469">
        <ele>1998.89485</ele>
        <time>2022-09-04T16:58:48+0200</time>
      </trkpt>
      <trkpt lat="44.92887" lon="6.63468">
        <ele>1998.590827</ele>
        <time>2022-09-04T16:58:49+0200</time>
      </trkpt>
      <trkpt lat="44.92877" lon="6.63464">
        <ele>1997.954732</ele>
        <time>2022-09-04T16:58:51+0200</time>
      </trkpt>
      <trkpt lat="44.92868" lon="6.63459">
        <ele>1997.499186</ele>
        <time>2022-09-04T16:58:52+0200</time>
      </trkpt>
      <trkpt lat="44.92858" lon="6.63455">
        <ele>1995.605702</ele>
        <time>2022-09-04T16:58:53+0200</time>
      </trkpt>
      <trkpt lat="44.9285" lon="6.63448">
        <ele>1994.056941</ele>
        <time>2022-09-04T16:58:54+0200</time>
      </trkpt>
      <trkpt lat="44.92841" lon="6.6344">
        <ele>1992.622496</ele>
        <time>2022-09-04T16:58:55+0200</time>
      </trkpt>
      <trkpt lat="44.92832" lon="6.63431">
        <ele>1991.191712</ele>
        <time>2022-09-04T16:58:56+0200</time>
      </trkpt>
      <trkpt lat="44.92824" lon="6.63421">
        <ele>1989.483002</ele>
        <time>2022-09-04T16:58:57+0200</time>
      </trkpt>
      <trkpt lat="44.92816" lon="6.63414">
        <ele>1987.544194</ele>
        <time>2022-09-04T16:58:58+0200</time>
      </trkpt>
      <trkpt lat="44.92806" lon="6.63411">
        <ele>1985.26123</ele>
        <time>2022-09-04T16:58:59+0200</time>
      </trkpt>
      <trkpt lat="44.92795" lon="6.63409">
        <ele>1983.713511</ele>
        <time>2022-09-04T16:59:00+0200</time>
      </trkpt>
      <trkpt lat="44.92785" lon="6.63408">
        <ele>1982.396416</ele>
        <time>2022-09-04T16:59:01+0200</time>
      </trkpt>
      <trkpt lat="44.92777" lon="6.63409">
        <ele>1981.803027</ele>
        <time>2022-09-04T16:59:02+0200</time>
      </trkpt>
      <trkpt lat="44.92769" lon="6.6341">
        <ele>1981.295939</ele>
        <time>2022-09-04T16:59:03+0200</time>
      </trkpt>
      <trkpt lat="44.9276" lon="6.63409">
        <ele>1980.653069</ele>
        <time>2022-09-04T16:59:04+0200</time>
      </trkpt>
      <trkpt lat="44.92752" lon="6.63405">
        <ele>1979.568146</ele>
        <time>2022-09-04T16:59:05+0200</time>
      </trkpt>
      <trkpt lat="44.92743" lon="6.63401">
        <ele>1978.79555</ele>
        <time>2022-09-04T16:59:06+0200</time>
      </trkpt>
      <trkpt lat="44.92733" lon="6.63397">
        <ele>1977.842727</ele>
        <time>2022-09-04T16:59:07+0200</time>
      </trkpt>
      <trkpt lat="44.92723" lon="6.63394">
        <ele>1977.112852</ele>
        <time>2022-09-04T16:59:08+0200</time>
      </trkpt>
      <trkpt lat="44.92714" lon="6.63392">
        <ele>1976.3872</ele>
        <time>2022-09-04T16:59:09+0200</time>
      </trkpt>
      <trkpt lat="44.92705" lon="6.63392">
        <ele>1975.576494</ele>
        <time>2022-09-04T16:59:10+0200</time>
      </trkpt>
      <trkpt lat="44.92697" lon="6.63389">
        <ele>1975.317053</ele>
        <time>2022-09-04T16:59:11+0200</time>
      </trkpt>
      <trkpt lat="44.92687" lon="6.63386">
        <ele>1975.670897</ele>
        <time>2022-09-04T16:59:12+0200</time>
      </trkpt>
      <trkpt lat="44.92676" lon="6.63385">
        <ele>1976.213597</ele>
        <time>2022-09-04T16:59:13+0200</time>
      </trkpt>
      <trkpt lat="44.92668" lon="6.63386">
        <ele>1976.536069</ele>
        <time>2022-09-04T16:59:14+0200</time>
      </trkpt>
      <trkpt lat="44.9266" lon="6.63389">
        <ele>1976.854737</ele>
        <time>2022-09-04T16:59:15+0200</time>
      </trkpt>
      <trkpt lat="44.92654" lon="6.63395">
        <ele>1977.337789</ele>
        <time>2022-09-04T16:59:16+0200</time>
      </trkpt>
      <trkpt lat="44.92649" lon="6.63402">
        <ele>1977.30319</ele>
        <time>2022-09-04T16:59:17+0200</time>
      </trkpt>
      <trkpt lat="44.92646" lon="6.63406">
        <ele>1977.369233</ele>
        <time>2022-09-04T16:59:18+0200</time>
      </trkpt>
      <trkpt lat="44.92641" lon="6.63411">
        <ele>1977.420401</ele>
        <time>2022-09-04T16:59:19+0200</time>
      </trkpt>
      <trkpt lat="44.92634" lon="6.63419">
        <ele>1976.873879</ele>
        <time>2022-09-04T16:59:21+0200</time>
      </trkpt>
      <trkpt lat="44.9263" lon="6.63425">
        <ele>1976.493534</ele>
        <time>2022-09-04T16:59:22+0200</time>
      </trkpt>
      <trkpt lat="44.92627" lon="6.63433">
        <ele>1976.316372</ele>
        <time>2022-09-04T16:59:23+0200</time>
      </trkpt>
      <trkpt lat="44.92624" lon="6.63441">
        <ele>1976.611892</ele>
        <time>2022-09-04T16:59:24+0200</time>
      </trkpt>
      <trkpt lat="44.92619" lon="6.63451">
        <ele>1976.627503</ele>
        <time>2022-09-04T16:59:25+0200</time>
      </trkpt>
      <trkpt lat="44.92617" lon="6.63461">
        <ele>1977.222772</ele>
        <time>2022-09-04T16:59:26+0200</time>
      </trkpt>
      <trkpt lat="44.9261" lon="6.63464">
        <ele>1978.710901</ele>
        <time>2022-09-04T16:59:27+0200</time>
      </trkpt>
      <trkpt lat="44.92606" lon="6.63461">
        <ele>1979.783491</ele>
        <time>2022-09-04T16:59:28+0200</time>
      </trkpt>
      <trkpt lat="44.92602" lon="6.63457">
        <ele>1980.472566</ele>
        <time>2022-09-04T16:59:30+0200</time>
      </trkpt>
      <trkpt lat="44.92595" lon="6.63453">
        <ele>1981.011779</ele>
        <time>2022-09-04T16:59:32+0200</time>
      </trkpt>
      <trkpt lat="44.92588" lon="6.63449">
        <ele>1979.920484</ele>
        <time>2022-09-04T16:59:34+0200</time>
      </trkpt>
      <trkpt lat="44.9258" lon="6.63445">
        <ele>1977.750317</ele>
        <time>2022-09-04T16:59:36+0200</time>
      </trkpt>
      <trkpt lat="44.92575" lon="6.63443">
        <ele>1976.872546</ele>
        <time>2022-09-04T16:59:37+0200</time>
      </trkpt>
      <trkpt lat="44.92569" lon="6.63439">
        <ele>1974.131909</ele>
        <time>2022-09-04T16:59:39+0200</time>
      </trkpt>
      <trkpt lat="44.92564" lon="6.63437">
        <ele>1972.562477</ele>
        <time>2022-09-04T16:59:40+0200</time>
      </trkpt>
      <trkpt lat="44.92559" lon="6.63434">
        <ele>1969.762119</ele>
        <time>2022-09-04T16:59:42+0200</time>
      </trkpt>
      <trkpt lat="44.92551" lon="6.63428">
        <ele>1966.819738</ele>
        <time>2022-09-04T16:59:44+0200</time>
      </trkpt>
      <trkpt lat="44.92547" lon="6.63423">
        <ele>1965.468852</ele>
        <time>2022-09-04T16:59:46+0200</time>
      </trkpt>
      <trkpt lat="44.92542" lon="6.63416">
        <ele>1963.928602</ele>
        <time>2022-09-04T16:59:48+0200</time>
      </trkpt>
      <trkpt lat="44.92537" lon="6.63409">
        <ele>1962.9895</ele>
        <time>2022-09-04T16:59:50+0200</time>
      </trkpt>
      <trkpt lat="44.92533" lon="6.63404">
        <ele>1961.197199</ele>
        <time>2022-09-04T16:59:52+0200</time>
      </trkpt>
      <trkpt lat="44.92528" lon="6.634">
        <ele>1960.460691</ele>
        <time>2022-09-04T16:59:53+0200</time>
      </trkpt>
      <trkpt lat="44.92524" lon="6.63393">
        <ele>1958.829133</ele>
        <time>2022-09-04T16:59:55+0200</time>
      </trkpt>
      <trkpt lat="44.92518" lon="6.63399">
        <ele>1956.018802</ele>
        <time>2022-09-04T16:59:58+0200</time>
      </trkpt>
      <trkpt lat="44.92515" lon="6.63406">
        <ele>1953.909116</ele>
        <time>2022-09-04T17:00:00+0200</time>
      </trkpt>
      <trkpt lat="44.92515" lon="6.63416">
        <ele>1952.75506</ele>
        <time>2022-09-04T17:00:02+0200</time>
      </trkpt>
      <trkpt lat="44.92512" lon="6.63426">
        <ele>1951.331675</ele>
        <time>2022-09-04T17:00:04+0200</time>
      </trkpt>
      <trkpt lat="44.92507" lon="6.63433">
        <ele>1950.02709</ele>
        <time>2022-09-04T17:00:06+0200</time>
      </trkpt>
      <trkpt lat="44.92501" lon="6.63442">
        <ele>1948.692905</ele>
        <time>2022-09-04T17:00:08+0200</time>
      </trkpt>
      <trkpt lat="44.92499" lon="6.6345">
        <ele>1947.270681</ele>
        <time>2022-09-04T17:00:09+0200</time>
      </trkpt>
      <trkpt lat="44.92495" lon="6.63459">
        <ele>1945.309735</ele>
        <time>2022-09-04T17:00:11+0200</time>
      </trkpt>
      <trkpt lat="44.92491" lon="6.63471">
        <ele>1943.251432</ele>
        <time>2022-09-04T17:00:13+0200</time>
      </trkpt>
      <trkpt lat="44.92488" lon="6.6348">
        <ele>1942.675639</ele>
        <time>2022-09-04T17:00:14+0200</time>
      </trkpt>
      <trkpt lat="44.92483" lon="6.63487">
        <ele>1941.608539</ele>
        <time>2022-09-04T17:00:16+0200</time>
      </trkpt>
      <trkpt lat="44.92479" lon="6.63494">
        <ele>1940.833022</ele>
        <time>2022-09-04T17:00:17+0200</time>
      </trkpt>
      <trkpt lat="44.92477" lon="6.635">
        <ele>1939.506714</ele>
        <time>2022-09-04T17:00:18+0200</time>
      </trkpt>
      <trkpt lat="44.92473" lon="6.63505">
        <ele>1938.456539</ele>
        <time>2022-09-04T17:00:19+0200</time>
      </trkpt>
      <trkpt lat="44.92469" lon="6.63511">
        <ele>1937.54019</ele>
        <time>2022-09-04T17:00:20+0200</time>
      </trkpt>
      <trkpt lat="44.92466" lon="6.63518">
        <ele>1936.442412</ele>
        <time>2022-09-04T17:00:21+0200</time>
      </trkpt>
      <trkpt lat="44.92461" lon="6.63523">
        <ele>1935.480412</ele>
        <time>2022-09-04T17:00:22+0200</time>
      </trkpt>
      <trkpt lat="44.92457" lon="6.63531">
        <ele>1932.933666</ele>
        <time>2022-09-04T17:00:24+0200</time>
      </trkpt>
      <trkpt lat="44.92452" lon="6.63539">
        <ele>1930.620381</ele>
        <time>2022-09-04T17:00:26+0200</time>
      </trkpt>
      <trkpt lat="44.9245" lon="6.63545">
        <ele>1930.304672</ele>
        <time>2022-09-04T17:00:27+0200</time>
      </trkpt>
      <trkpt lat="44.92451" lon="6.63552">
        <ele>1929.646236</ele>
        <time>2022-09-04T17:00:28+0200</time>
      </trkpt>
      <trkpt lat="44.92452" lon="6.63558">
        <ele>1929.040973</ele>
        <time>2022-09-04T17:00:29+0200</time>
      </trkpt>
      <trkpt lat="44.92447" lon="6.63566">
        <ele>1928.272077</ele>
        <time>2022-09-04T17:00:31+0200</time>
      </trkpt>
      <trkpt lat="44.92442" lon="6.63567">
        <ele>1927.636637</ele>
        <time>2022-09-04T17:00:33+0200</time>
      </trkpt>
      <trkpt lat="44.92434" lon="6.63572">
        <ele>1926.186044</ele>
        <time>2022-09-04T17:00:35+0200</time>
      </trkpt>
      <trkpt lat="44.9243" lon="6.63574">
        <ele>1924.313978</ele>
        <time>2022-09-04T17:00:38+0200</time>
      </trkpt>
      <trkpt lat="44.92424" lon="6.63573">
        <ele>1922.630998</ele>
        <time>2022-09-04T17:00:41+0200</time>
      </trkpt>
      <trkpt lat="44.92418" lon="6.63573">
        <ele>1919.707105</ele>
        <time>2022-09-04T17:00:45+0200</time>
      </trkpt>
      <trkpt lat="44.92413" lon="6.63575">
        <ele>1916.283644</ele>
        <time>2022-09-04T17:00:48+0200</time>
      </trkpt>
      <trkpt lat="44.92409" lon="6.63579">
        <ele>1914.66028</ele>
        <time>2022-09-04T17:00:50+0200</time>
      </trkpt>
      <trkpt lat="44.92405" lon="6.63587">
        <ele>1912.831995</ele>
        <time>2022-09-04T17:00:53+0200</time>
      </trkpt>
      <trkpt lat="44.92404" lon="6.63594">
        <ele>1910.922569</ele>
        <time>2022-09-04T17:00:55+0200</time>
      </trkpt>
      <trkpt lat="44.92403" lon="6.63604">
        <ele>1910.062631</ele>
        <time>2022-09-04T17:00:57+0200</time>
      </trkpt>
      <trkpt lat="44.92403" lon="6.63614">
        <ele>1908.770933</ele>
        <time>2022-09-04T17:00:59+0200</time>
      </trkpt>
      <trkpt lat="44.92403" lon="6.63623">
        <ele>1907.288908</ele>
        <time>2022-09-04T17:01:01+0200</time>
      </trkpt>
      <trkpt lat="44.92403" lon="6.63632">
        <ele>1907.43243</ele>
        <time>2022-09-04T17:01:03+0200</time>
      </trkpt>
      <trkpt lat="44.92404" lon="6.63646">
        <ele>1907.417593</ele>
        <time>2022-09-04T17:01:05+0200</time>
      </trkpt>
      <trkpt lat="44.92406" lon="6.63657">
        <ele>1906.765851</ele>
        <time>2022-09-04T17:01:07+0200</time>
      </trkpt>
      <trkpt lat="44.92406" lon="6.63665">
        <ele>1905.847325</ele>
        <time>2022-09-04T17:01:08+0200</time>
      </trkpt>
      <trkpt lat="44.92405" lon="6.63675">
        <ele>1905.129415</ele>
        <time>2022-09-04T17:01:09+0200</time>
      </trkpt>
      <trkpt lat="44.92407" lon="6.63681">
        <ele>1904.279538</ele>
        <time>2022-09-04T17:01:10+0200</time>
      </trkpt>
      <trkpt lat="44.92407" lon="6.63694">
        <ele>1904.488674</ele>
        <time>2022-09-04T17:01:12+0200</time>
      </trkpt>
      <trkpt lat="44.92406" lon="6.63703">
        <ele>1904.306078</ele>
        <time>2022-09-04T17:01:13+0200</time>
      </trkpt>
      <trkpt lat="44.92405" lon="6.63709">
        <ele>1904.521878</ele>
        <time>2022-09-04T17:01:14+0200</time>
      </trkpt>
      <trkpt lat="44.924" lon="6.63717">
        <ele>1904.621742</ele>
        <time>2022-09-04T17:01:16+0200</time>
      </trkpt>
      <trkpt lat="44.92393" lon="6.6372">
        <ele>1904.187123</ele>
        <time>2022-09-04T17:01:18+0200</time>
      </trkpt>
      <trkpt lat="44.9239" lon="6.63725">
        <ele>1903.724262</ele>
        <time>2022-09-04T17:01:20+0200</time>
      </trkpt>
      <trkpt lat="44.92387" lon="6.63719">
        <ele>1902.039761</ele>
        <time>2022-09-04T17:01:23+0200</time>
      </trkpt>
      <trkpt lat="44.92387" lon="6.63709">
        <ele>1899.504149</ele>
        <time>2022-09-04T17:01:25+0200</time>
      </trkpt>
      <trkpt lat="44.92384" lon="6.63702">
        <ele>1897.292831</ele>
        <time>2022-09-04T17:01:27+0200</time>
      </trkpt>
      <trkpt lat="44.92381" lon="6.63696">
        <ele>1895.369317</ele>
        <time>2022-09-04T17:01:29+0200</time>
      </trkpt>
      <trkpt lat="44.92379" lon="6.63689">
        <ele>1892.781852</ele>
        <time>2022-09-04T17:01:32+0200</time>
      </trkpt>
      <trkpt lat="44.92377" lon="6.63683">
        <ele>1891.862386</ele>
        <time>2022-09-04T17:01:34+0200</time>
      </trkpt>
      <trkpt lat="44.92376" lon="6.63672">
        <ele>1889.999549</ele>
        <time>2022-09-04T17:01:37+0200</time>
      </trkpt>
      <trkpt lat="44.92375" lon="6.63666">
        <ele>1888.978522</ele>
        <time>2022-09-04T17:01:38+0200</time>
      </trkpt>
      <trkpt lat="44.92373" lon="6.63654">
        <ele>1888.117873</ele>
        <time>2022-09-04T17:01:40+0200</time>
      </trkpt>
      <trkpt lat="44.9237" lon="6.63643">
        <ele>1886.517356</ele>
        <time>2022-09-04T17:01:42+0200</time>
      </trkpt>
      <trkpt lat="44.92366" lon="6.63638">
        <ele>1886.158895</ele>
        <time>2022-09-04T17:01:43+0200</time>
      </trkpt>
      <trkpt lat="44.92363" lon="6.63632">
        <ele>1885.577459</ele>
        <time>2022-09-04T17:01:44+0200</time>
      </trkpt>
      <trkpt lat="44.92359" lon="6.63625">
        <ele>1885.160094</ele>
        <time>2022-09-04T17:01:45+0200</time>
      </trkpt>
      <trkpt lat="44.92356" lon="6.63617">
        <ele>1884.880254</ele>
        <time>2022-09-04T17:01:46+0200</time>
      </trkpt>
      <trkpt lat="44.9235" lon="6.63613">
        <ele>1884.321529</ele>
        <time>2022-09-04T17:01:47+0200</time>
      </trkpt>
      <trkpt lat="44.92346" lon="6.6361">
        <ele>1883.585397</ele>
        <time>2022-09-04T17:01:48+0200</time>
      </trkpt>
      <trkpt lat="44.92342" lon="6.63604">
        <ele>1881.984703</ele>
        <time>2022-09-04T17:01:49+0200</time>
      </trkpt>
      <trkpt lat="44.92337" lon="6.63597">
        <ele>1880.64362</ele>
        <time>2022-09-04T17:01:50+0200</time>
      </trkpt>
      <trkpt lat="44.92337" lon="6.63588">
        <ele>1879.188064</ele>
        <time>2022-09-04T17:01:52+0200</time>
      </trkpt>
      <trkpt lat="44.92335" lon="6.63582">
        <ele>1880.614721</ele>
        <time>2022-09-04T17:02:13+0200</time>
      </trkpt>
      <trkpt lat="44.9234" lon="6.63582">
        <ele>1881.713226</ele>
        <time>2022-09-04T17:02:33+0200</time>
      </trkpt>
      <trkpt lat="44.92339" lon="6.63589">
        <ele>1878.851098</ele>
        <time>2022-09-04T17:02:50+0200</time>
      </trkpt>
      <trkpt lat="44.92341" lon="6.63596">
        <ele>1877.66093</ele>
        <time>2022-09-04T17:02:52+0200</time>
      </trkpt>
      <trkpt lat="44.92343" lon="6.63606">
        <ele>1876.235167</ele>
        <time>2022-09-04T17:02:54+0200</time>
      </trkpt>
      <trkpt lat="44.92346" lon="6.63612">
        <ele>1876.714691</ele>
        <time>2022-09-04T17:02:55+0200</time>
      </trkpt>
      <trkpt lat="44.92349" lon="6.63618">
        <ele>1876.406531</ele>
        <time>2022-09-04T17:02:56+0200</time>
      </trkpt>
      <trkpt lat="44.92352" lon="6.63625">
        <ele>1876.703855</ele>
        <time>2022-09-04T17:02:57+0200</time>
      </trkpt>
      <trkpt lat="44.92353" lon="6.63638">
        <ele>1877.760945</ele>
        <time>2022-09-04T17:02:58+0200</time>
      </trkpt>
      <trkpt lat="44.92351" lon="6.63647">
        <ele>1877.974648</ele>
        <time>2022-09-04T17:02:59+0200</time>
      </trkpt>
      <trkpt lat="44.92346" lon="6.63654">
        <ele>1878.387891</ele>
        <time>2022-09-04T17:03:00+0200</time>
      </trkpt>
      <trkpt lat="44.9234" lon="6.63659">
        <ele>1878.241759</ele>
        <time>2022-09-04T17:03:01+0200</time>
      </trkpt>
      <trkpt lat="44.92333" lon="6.63664">
        <ele>1878.34442</ele>
        <time>2022-09-04T17:03:02+0200</time>
      </trkpt>
      <trkpt lat="44.92326" lon="6.63668">
        <ele>1877.913424</ele>
        <time>2022-09-04T17:03:03+0200</time>
      </trkpt>
      <trkpt lat="44.92317" lon="6.63671">
        <ele>1877.527101</ele>
        <time>2022-09-04T17:03:04+0200</time>
      </trkpt>
      <trkpt lat="44.92307" lon="6.6367">
        <ele>1877.024673</ele>
        <time>2022-09-04T17:03:05+0200</time>
      </trkpt>
      <trkpt lat="44.92298" lon="6.63668">
        <ele>1875.262684</ele>
        <time>2022-09-04T17:03:06+0200</time>
      </trkpt>
      <trkpt lat="44.92288" lon="6.63666">
        <ele>1874.333144</ele>
        <time>2022-09-04T17:03:07+0200</time>
      </trkpt>
      <trkpt lat="44.92278" lon="6.6366">
        <ele>1873.205796</ele>
        <time>2022-09-04T17:03:08+0200</time>
      </trkpt>
      <trkpt lat="44.92267" lon="6.63653">
        <ele>1871.54282</ele>
        <time>2022-09-04T17:03:09+0200</time>
      </trkpt>
      <trkpt lat="44.92258" lon="6.63645">
        <ele>1869.997829</ele>
        <time>2022-09-04T17:03:10+0200</time>
      </trkpt>
      <trkpt lat="44.9225" lon="6.63636">
        <ele>1867.798494</ele>
        <time>2022-09-04T17:03:11+0200</time>
      </trkpt>
      <trkpt lat="44.92243" lon="6.6363">
        <ele>1864.983234</ele>
        <time>2022-09-04T17:03:12+0200</time>
      </trkpt>
      <trkpt lat="44.92237" lon="6.63626">
        <ele>1862.700133</ele>
        <time>2022-09-04T17:03:13+0200</time>
      </trkpt>
      <trkpt lat="44.9223" lon="6.63625">
        <ele>1861.113683</ele>
        <time>2022-09-04T17:03:14+0200</time>
      </trkpt>
      <trkpt lat="44.92221" lon="6.63625">
        <ele>1859.590773</ele>
        <time>2022-09-04T17:03:15+0200</time>
      </trkpt>
      <trkpt lat="44.92213" lon="6.63625">
        <ele>1858.115312</ele>
        <time>2022-09-04T17:03:16+0200</time>
      </trkpt>
      <trkpt lat="44.92204" lon="6.63622">
        <ele>1856.496628</ele>
        <time>2022-09-04T17:03:17+0200</time>
      </trkpt>
      <trkpt lat="44.92193" lon="6.6362">
        <ele>1854.182858</ele>
        <time>2022-09-04T17:03:18+0200</time>
      </trkpt>
      <trkpt lat="44.92183" lon="6.63618">
        <ele>1853.180691</ele>
        <time>2022-09-04T17:03:19+0200</time>
      </trkpt>
      <trkpt lat="44.92175" lon="6.6362">
        <ele>1852.448704</ele>
        <time>2022-09-04T17:03:20+0200</time>
      </trkpt>
      <trkpt lat="44.92168" lon="6.6362">
        <ele>1851.47368</ele>
        <time>2022-09-04T17:03:21+0200</time>
      </trkpt>
      <trkpt lat="44.92162" lon="6.63623">
        <ele>1848.327555</ele>
        <time>2022-09-04T17:03:23+0200</time>
      </trkpt>
      <trkpt lat="44.92161" lon="6.63632">
        <ele>1845.170877</ele>
        <time>2022-09-04T17:03:25+0200</time>
      </trkpt>
      <trkpt lat="44.92163" lon="6.63643">
        <ele>1844.443903</ele>
        <time>2022-09-04T17:03:27+0200</time>
      </trkpt>
      <trkpt lat="44.92165" lon="6.6365">
        <ele>1843.744187</ele>
        <time>2022-09-04T17:03:28+0200</time>
      </trkpt>
      <trkpt lat="44.92166" lon="6.63658">
        <ele>1842.727685</ele>
        <time>2022-09-04T17:03:29+0200</time>
      </trkpt>
      <trkpt lat="44.92168" lon="6.63667">
        <ele>1842.13648</ele>
        <time>2022-09-04T17:03:30+0200</time>
      </trkpt>
      <trkpt lat="44.92171" lon="6.63678">
        <ele>1841.523096</ele>
        <time>2022-09-04T17:03:31+0200</time>
      </trkpt>
      <trkpt lat="44.92174" lon="6.63691">
        <ele>1841.03307</ele>
        <time>2022-09-04T17:03:32+0200</time>
      </trkpt>
      <trkpt lat="44.92176" lon="6.63704">
        <ele>1840.952695</ele>
        <time>2022-09-04T17:03:33+0200</time>
      </trkpt>
      <trkpt lat="44.92179" lon="6.63718">
        <ele>1840.333623</ele>
        <time>2022-09-04T17:03:34+0200</time>
      </trkpt>
      <trkpt lat="44.9218" lon="6.6373">
        <ele>1840.083483</ele>
        <time>2022-09-04T17:03:35+0200</time>
      </trkpt>
      <trkpt lat="44.92181" lon="6.63738">
        <ele>1839.722399</ele>
        <time>2022-09-04T17:03:36+0200</time>
      </trkpt>
      <trkpt lat="44.9218" lon="6.63745">
        <ele>1839.120918</ele>
        <time>2022-09-04T17:03:37+0200</time>
      </trkpt>
      <trkpt lat="44.92176" lon="6.63751">
        <ele>1838.699101</ele>
        <time>2022-09-04T17:03:38+0200</time>
      </trkpt>
      <trkpt lat="44.92172" lon="6.63758">
        <ele>1838.205016</ele>
        <time>2022-09-04T17:03:39+0200</time>
      </trkpt>
      <trkpt lat="44.92169" lon="6.63766">
        <ele>1837.082054</ele>
        <time>2022-09-04T17:03:40+0200</time>
      </trkpt>
      <trkpt lat="44.92167" lon="6.63774">
        <ele>1836.297283</ele>
        <time>2022-09-04T17:03:41+0200</time>
      </trkpt>
      <trkpt lat="44.92165" lon="6.63781">
        <ele>1835.532565</ele>
        <time>2022-09-04T17:03:42+0200</time>
      </trkpt>
      <trkpt lat="44.92162" lon="6.63792">
        <ele>1834.567348</ele>
        <time>2022-09-04T17:03:43+0200</time>
      </trkpt>
      <trkpt lat="44.92158" lon="6.63805">
        <ele>1834.138245</ele>
        <time>2022-09-04T17:03:44+0200</time>
      </trkpt>
      <trkpt lat="44.92153" lon="6.63814">
        <ele>1834.18716</ele>
        <time>2022-09-04T17:03:45+0200</time>
      </trkpt>
      <trkpt lat="44.92147" lon="6.63821">
        <ele>1834.015215</ele>
        <time>2022-09-04T17:03:46+0200</time>
      </trkpt>
      <trkpt lat="44.92145" lon="6.63826">
        <ele>1833.493418</ele>
        <time>2022-09-04T17:03:47+0200</time>
      </trkpt>
      <trkpt lat="44.9214" lon="6.63832">
        <ele>1833.216114</ele>
        <time>2022-09-04T17:03:51+0200</time>
      </trkpt>
      <trkpt lat="44.92137" lon="6.63839">
        <ele>1833.555319</ele>
        <time>2022-09-04T17:03:53+0200</time>
      </trkpt>
      <trkpt lat="44.92134" lon="6.63844">
        <ele>1833.87586</ele>
        <time>2022-09-04T17:03:55+0200</time>
      </trkpt>
      <trkpt lat="44.92128" lon="6.63848">
        <ele>1833.571395</ele>
        <time>2022-09-04T17:03:57+0200</time>
      </trkpt>
      <trkpt lat="44.92121" lon="6.63851">
        <ele>1832.388062</ele>
        <time>2022-09-04T17:03:59+0200</time>
      </trkpt>
      <trkpt lat="44.92113" lon="6.63854">
        <ele>1831.607703</ele>
        <time>2022-09-04T17:04:01+0200</time>
      </trkpt>
      <trkpt lat="44.92109" lon="6.63854">
        <ele>1831.808781</ele>
        <time>2022-09-04T17:04:02+0200</time>
      </trkpt>
      <trkpt lat="44.92104" lon="6.63852">
        <ele>1831.790448</ele>
        <time>2022-09-04T17:04:03+0200</time>
      </trkpt>
      <trkpt lat="44.92096" lon="6.63851">
        <ele>1831.128617</ele>
        <time>2022-09-04T17:04:05+0200</time>
      </trkpt>
      <trkpt lat="44.92087" lon="6.63851">
        <ele>1830.814815</ele>
        <time>2022-09-04T17:04:07+0200</time>
      </trkpt>
      <trkpt lat="44.92081" lon="6.6385">
        <ele>1830.916571</ele>
        <time>2022-09-04T17:04:08+0200</time>
      </trkpt>
      <trkpt lat="44.92076" lon="6.63851">
        <ele>1831.006648</ele>
        <time>2022-09-04T17:04:09+0200</time>
      </trkpt>
      <trkpt lat="44.92067" lon="6.63849">
        <ele>1831.205991</ele>
        <time>2022-09-04T17:04:11+0200</time>
      </trkpt>
      <trkpt lat="44.92063" lon="6.63848">
        <ele>1831.725206</ele>
        <time>2022-09-04T17:04:12+0200</time>
      </trkpt>
      <trkpt lat="44.92056" lon="6.63846">
        <ele>1832.352868</ele>
        <time>2022-09-04T17:04:14+0200</time>
      </trkpt>
      <trkpt lat="44.92049" lon="6.63846">
        <ele>1832.285504</ele>
        <time>2022-09-04T17:04:16+0200</time>
      </trkpt>
      <trkpt lat="44.92044" lon="6.63847">
        <ele>1832.516821</ele>
        <time>2022-09-04T17:04:17+0200</time>
      </trkpt>
      <trkpt lat="44.92037" lon="6.63846">
        <ele>1833.213698</ele>
        <time>2022-09-04T17:04:19+0200</time>
      </trkpt>
      <trkpt lat="44.92032" lon="6.63845">
        <ele>1833.352126</ele>
        <time>2022-09-04T17:04:20+0200</time>
      </trkpt>
      <trkpt lat="44.92026" lon="6.63843">
        <ele>1832.566623</ele>
        <time>2022-09-04T17:04:22+0200</time>
      </trkpt>
      <trkpt lat="44.92018" lon="6.63841">
        <ele>1833.61531</ele>
        <time>2022-09-04T17:04:24+0200</time>
      </trkpt>
      <trkpt lat="44.92011" lon="6.6384">
        <ele>1833.173193</ele>
        <time>2022-09-04T17:04:26+0200</time>
      </trkpt>
      <trkpt lat="44.92003" lon="6.63841">
        <ele>1833.550077</ele>
        <time>2022-09-04T17:04:28+0200</time>
      </trkpt>
      <trkpt lat="44.91997" lon="6.63841">
        <ele>1833.700771</ele>
        <time>2022-09-04T17:04:30+0200</time>
      </trkpt>
      <trkpt lat="44.9199" lon="6.6384">
        <ele>1834.216551</ele>
        <time>2022-09-04T17:04:32+0200</time>
      </trkpt>
      <trkpt lat="44.91985" lon="6.63842">
        <ele>1833.470141</ele>
        <time>2022-09-04T17:04:35+0200</time>
      </trkpt>
      <trkpt lat="44.91978" lon="6.63842">
        <ele>1833.264068</ele>
        <time>2022-09-04T17:04:37+0200</time>
      </trkpt>
      <trkpt lat="44.91971" lon="6.63844">
        <ele>1833.065821</ele>
        <time>2022-09-04T17:04:39+0200</time>
      </trkpt>
      <trkpt lat="44.91965" lon="6.63847">
        <ele>1833.522435</ele>
        <time>2022-09-04T17:04:41+0200</time>
      </trkpt>
      <trkpt lat="44.91959" lon="6.6385">
        <ele>1834.953491</ele>
        <time>2022-09-04T17:04:43+0200</time>
      </trkpt>
      <trkpt lat="44.91953" lon="6.63851">
        <ele>1835.880403</ele>
        <time>2022-09-04T17:04:46+0200</time>
      </trkpt>
      <trkpt lat="44.91947" lon="6.63854">
        <ele>1836.369719</ele>
        <time>2022-09-04T17:04:48+0200</time>
      </trkpt>
      <trkpt lat="44.91943" lon="6.63858">
        <ele>1836.67426</ele>
        <time>2022-09-04T17:04:50+0200</time>
      </trkpt>
      <trkpt lat="44.91939" lon="6.63863">
        <ele>1837.285449</ele>
        <time>2022-09-04T17:04:52+0200</time>
      </trkpt>
      <trkpt lat="44.91934" lon="6.63866">
        <ele>1838.848402</ele>
        <time>2022-09-04T17:04:54+0200</time>
      </trkpt>
      <trkpt lat="44.91929" lon="6.63869">
        <ele>1840.704801</ele>
        <time>2022-09-04T17:04:56+0200</time>
      </trkpt>
      <trkpt lat="44.91923" lon="6.6387">
        <ele>1842.571259</ele>
        <time>2022-09-04T17:04:58+0200</time>
      </trkpt>
      <trkpt lat="44.91917" lon="6.6387">
        <ele>1844.027501</ele>
        <time>2022-09-04T17:05:00+0200</time>
      </trkpt>
      <trkpt lat="44.91912" lon="6.63869">
        <ele>1845.476291</ele>
        <time>2022-09-04T17:05:02+0200</time>
      </trkpt>
      <trkpt lat="44.91907" lon="6.63869">
        <ele>1846.402671</ele>
        <time>2022-09-04T17:05:04+0200</time>
      </trkpt>
      <trkpt lat="44.91902" lon="6.63868">
        <ele>1847.600481</ele>
        <time>2022-09-04T17:05:06+0200</time>
      </trkpt>
      <trkpt lat="44.91896" lon="6.63866">
        <ele>1849.898907</ele>
        <time>2022-09-04T17:05:09+0200</time>
      </trkpt>
      <trkpt lat="44.91893" lon="6.63861">
        <ele>1850.691113</ele>
        <time>2022-09-04T17:05:11+0200</time>
      </trkpt>
      <trkpt lat="44.91891" lon="6.63852">
        <ele>1851.555984</ele>
        <time>2022-09-04T17:05:13+0200</time>
      </trkpt>
      <trkpt lat="44.9189" lon="6.63844">
        <ele>1850.653225</ele>
        <time>2022-09-04T17:05:15+0200</time>
      </trkpt>
      <trkpt lat="44.91888" lon="6.63837">
        <ele>1849.011816</ele>
        <time>2022-09-04T17:05:17+0200</time>
      </trkpt>
      <trkpt lat="44.91886" lon="6.63831">
        <ele>1847.832197</ele>
        <time>2022-09-04T17:05:19+0200</time>
      </trkpt>
      <trkpt lat="44.91883" lon="6.63824">
        <ele>1846.461736</ele>
        <time>2022-09-04T17:05:21+0200</time>
      </trkpt>
      <trkpt lat="44.9188" lon="6.63819">
        <ele>1846.166543</ele>
        <time>2022-09-04T17:05:23+0200</time>
      </trkpt>
      <trkpt lat="44.91877" lon="6.63812">
        <ele>1845.84354</ele>
        <time>2022-09-04T17:05:25+0200</time>
      </trkpt>
      <trkpt lat="44.91874" lon="6.63806">
        <ele>1844.805454</ele>
        <time>2022-09-04T17:05:27+0200</time>
      </trkpt>
      <trkpt lat="44.91871" lon="6.638">
        <ele>1844.748785</ele>
        <time>2022-09-04T17:05:29+0200</time>
      </trkpt>
      <trkpt lat="44.91866" lon="6.63802">
        <ele>1845.436591</ele>
        <time>2022-09-04T17:05:32+0200</time>
      </trkpt>
      <trkpt lat="44.91867" lon="6.63809">
        <ele>1845.941845</ele>
        <time>2022-09-04T17:05:35+0200</time>
      </trkpt>
      <trkpt lat="44.91868" lon="6.63815">
        <ele>1845.651044</ele>
        <time>2022-09-04T17:05:37+0200</time>
      </trkpt>
      <trkpt lat="44.91871" lon="6.63821">
        <ele>1845.777181</ele>
        <time>2022-09-04T17:05:39+0200</time>
      </trkpt>
      <trkpt lat="44.91872" lon="6.63827">
        <ele>1846.315385</ele>
        <time>2022-09-04T17:05:41+0200</time>
      </trkpt>
      <trkpt lat="44.91873" lon="6.63834">
        <ele>1846.739458</ele>
        <time>2022-09-04T17:05:43+0200</time>
      </trkpt>
      <trkpt lat="44.91873" lon="6.63842">
        <ele>1847.47924</ele>
        <time>2022-09-04T17:05:46+0200</time>
      </trkpt>
      <trkpt lat="44.91874" lon="6.63849">
        <ele>1847.804638</ele>
        <time>2022-09-04T17:05:49+0200</time>
      </trkpt>
      <trkpt lat="44.91875" lon="6.63857">
        <ele>1848.724197</ele>
        <time>2022-09-04T17:05:52+0200</time>
      </trkpt>
      <trkpt lat="44.91873" lon="6.63863">
        <ele>1849.112526</ele>
        <time>2022-09-04T17:05:54+0200</time>
      </trkpt>
      <trkpt lat="44.91872" lon="6.6387">
        <ele>1850.581916</ele>
        <time>2022-09-04T17:05:57+0200</time>
      </trkpt>
      <trkpt lat="44.91873" lon="6.63879">
        <ele>1853.031813</ele>
        <time>2022-09-04T17:06:00+0200</time>
      </trkpt>
      <trkpt lat="44.91873" lon="6.63887">
        <ele>1852.806028</ele>
        <time>2022-09-04T17:06:03+0200</time>
      </trkpt>
      <trkpt lat="44.91877" lon="6.63893">
        <ele>1855.460809</ele>
        <time>2022-09-04T17:06:06+0200</time>
      </trkpt>
      <trkpt lat="44.91883" lon="6.63896">
        <ele>1856.996102</ele>
        <time>2022-09-04T17:06:09+0200</time>
      </trkpt>
      <trkpt lat="44.91889" lon="6.63896">
        <ele>1858.269336</ele>
        <time>2022-09-04T17:06:12+0200</time>
      </trkpt>
      <trkpt lat="44.91894" lon="6.63897">
        <ele>1858.812399</ele>
        <time>2022-09-04T17:06:15+0200</time>
      </trkpt>
      <trkpt lat="44.91899" lon="6.63902">
        <ele>1859.035412</ele>
        <time>2022-09-04T17:06:18+0200</time>
      </trkpt>
      <trkpt lat="44.919" lon="6.63908">
        <ele>1858.665638</ele>
        <time>2022-09-04T17:06:20+0200</time>
      </trkpt>
      <trkpt lat="44.91899" lon="6.63916">
        <ele>1859.333656</ele>
        <time>2022-09-04T17:06:23+0200</time>
      </trkpt>
      <trkpt lat="44.91893" lon="6.63918">
        <ele>1860.707854</ele>
        <time>2022-09-04T17:06:26+0200</time>
      </trkpt>
      <trkpt lat="44.91888" lon="6.63918">
        <ele>1862.964193</ele>
        <time>2022-09-04T17:06:29+0200</time>
      </trkpt>
      <trkpt lat="44.91882" lon="6.63917">
        <ele>1862.757784</ele>
        <time>2022-09-04T17:06:32+0200</time>
      </trkpt>
      <trkpt lat="44.91878" lon="6.63914">
        <ele>1863.150153</ele>
        <time>2022-09-04T17:06:34+0200</time>
      </trkpt>
      <trkpt lat="44.91871" lon="6.6391">
        <ele>1862.649835</ele>
        <time>2022-09-04T17:06:37+0200</time>
      </trkpt>
      <trkpt lat="44.91866" lon="6.6391">
        <ele>1862.957183</ele>
        <time>2022-09-04T17:06:39+0200</time>
      </trkpt>
      <trkpt lat="44.91861" lon="6.63908">
        <ele>1863.201661</ele>
        <time>2022-09-04T17:06:41+0200</time>
      </trkpt>
      <trkpt lat="44.91856" lon="6.63907">
        <ele>1862.856439</ele>
        <time>2022-09-04T17:06:44+0200</time>
      </trkpt>
      <trkpt lat="44.91849" lon="6.63908">
        <ele>1862.554529</ele>
        <time>2022-09-04T17:06:47+0200</time>
      </trkpt>
      <trkpt lat="44.91845" lon="6.63911">
        <ele>1862.351356</ele>
        <time>2022-09-04T17:06:50+0200</time>
      </trkpt>
      <trkpt lat="44.91839" lon="6.63914">
        <ele>1862.718765</ele>
        <time>2022-09-04T17:06:53+0200</time>
      </trkpt>
      <trkpt lat="44.91836" lon="6.63919">
        <ele>1863.668978</ele>
        <time>2022-09-04T17:06:56+0200</time>
      </trkpt>
      <trkpt lat="44.91833" lon="6.63927">
        <ele>1863.848012</ele>
        <time>2022-09-04T17:06:59+0200</time>
      </trkpt>
      <trkpt lat="44.91834" lon="6.63935">
        <ele>1863.534996</ele>
        <time>2022-09-04T17:07:03+0200</time>
      </trkpt>
      <trkpt lat="44.91835" lon="6.63941">
        <ele>1864.112217</ele>
        <time>2022-09-04T17:07:06+0200</time>
      </trkpt>
      <trkpt lat="44.91835" lon="6.6395">
        <ele>1864.793097</ele>
        <time>2022-09-04T17:07:09+0200</time>
      </trkpt>
      <trkpt lat="44.91833" lon="6.63956">
        <ele>1865.477912</ele>
        <time>2022-09-04T17:07:12+0200</time>
      </trkpt>
      <trkpt lat="44.91831" lon="6.63963">
        <ele>1865.485427</ele>
        <time>2022-09-04T17:07:15+0200</time>
      </trkpt>
      <trkpt lat="44.9183" lon="6.6397">
        <ele>1867.418586</ele>
        <time>2022-09-04T17:07:18+0200</time>
      </trkpt>
      <trkpt lat="44.91827" lon="6.63977">
        <ele>1868.438835</ele>
        <time>2022-09-04T17:07:21+0200</time>
      </trkpt>
      <trkpt lat="44.91823" lon="6.63981">
        <ele>1869.874281</ele>
        <time>2022-09-04T17:07:24+0200</time>
      </trkpt>
      <trkpt lat="44.91817" lon="6.63985">
        <ele>1870.534664</ele>
        <time>2022-09-04T17:07:27+0200</time>
      </trkpt>
      <trkpt lat="44.91812" lon="6.63983">
        <ele>1870.887377</ele>
        <time>2022-09-04T17:07:30+0200</time>
      </trkpt>
      <trkpt lat="44.91808" lon="6.6398">
        <ele>1871.538388</ele>
        <time>2022-09-04T17:07:33+0200</time>
      </trkpt>
      <trkpt lat="44.91804" lon="6.63978">
        <ele>1872.464969</ele>
        <time>2022-09-04T17:07:35+0200</time>
      </trkpt>
      <trkpt lat="44.91799" lon="6.63975">
        <ele>1872.252985</ele>
        <time>2022-09-04T17:07:37+0200</time>
      </trkpt>
      <trkpt lat="44.91794" lon="6.63973">
        <ele>1872.686619</ele>
        <time>2022-09-04T17:07:40+0200</time>
      </trkpt>
      <trkpt lat="44.91788" lon="6.63973">
        <ele>1873.828742</ele>
        <time>2022-09-04T17:07:43+0200</time>
      </trkpt>
      <trkpt lat="44.91782" lon="6.63975">
        <ele>1873.286419</ele>
        <time>2022-09-04T17:07:46+0200</time>
      </trkpt>
      <trkpt lat="44.91776" lon="6.63977">
        <ele>1874.154911</ele>
        <time>2022-09-04T17:07:49+0200</time>
      </trkpt>
      <trkpt lat="44.9177" lon="6.63979">
        <ele>1875.746626</ele>
        <time>2022-09-04T17:07:52+0200</time>
      </trkpt>
      <trkpt lat="44.91763" lon="6.63981">
        <ele>1876.682743</ele>
        <time>2022-09-04T17:07:55+0200</time>
      </trkpt>
      <trkpt lat="44.91758" lon="6.63983">
        <ele>1876.910503</ele>
        <time>2022-09-04T17:07:58+0200</time>
      </trkpt>
      <trkpt lat="44.91754" lon="6.63985">
        <ele>1876.960163</ele>
        <time>2022-09-04T17:08:01+0200</time>
      </trkpt>
      <trkpt lat="44.91749" lon="6.63987">
        <ele>1877.537827</ele>
        <time>2022-09-04T17:08:04+0200</time>
      </trkpt>
      <trkpt lat="44.91745" lon="6.6399">
        <ele>1877.474257</ele>
        <time>2022-09-04T17:08:07+0200</time>
      </trkpt>
      <trkpt lat="44.9174" lon="6.63993">
        <ele>1877.169974</ele>
        <time>2022-09-04T17:08:10+0200</time>
      </trkpt>
      <trkpt lat="44.91737" lon="6.63998">
        <ele>1877.000131</ele>
        <time>2022-09-04T17:08:13+0200</time>
      </trkpt>
      <trkpt lat="44.91734" lon="6.64003">
        <ele>1876.600562</ele>
        <time>2022-09-04T17:08:16+0200</time>
      </trkpt>
      <trkpt lat="44.9173" lon="6.64007">
        <ele>1876.82361</ele>
        <time>2022-09-04T17:08:19+0200</time>
      </trkpt>
      <trkpt lat="44.91726" lon="6.64011">
        <ele>1878.39009</ele>
        <time>2022-09-04T17:08:22+0200</time>
      </trkpt>
      <trkpt lat="44.91722" lon="6.64015">
        <ele>1878.80738</ele>
        <time>2022-09-04T17:08:25+0200</time>
      </trkpt>
      <trkpt lat="44.91717" lon="6.64019">
        <ele>1879.422005</ele>
        <time>2022-09-04T17:08:28+0200</time>
      </trkpt>
      <trkpt lat="44.91712" lon="6.64025">
        <ele>1880.151568</ele>
        <time>2022-09-04T17:08:31+0200</time>
      </trkpt>
      <trkpt lat="44.91708" lon="6.64029">
        <ele>1881.413071</ele>
        <time>2022-09-04T17:08:34+0200</time>
      </trkpt>
      <trkpt lat="44.91703" lon="6.64032">
        <ele>1882.724302</ele>
        <time>2022-09-04T17:08:37+0200</time>
      </trkpt>
      <trkpt lat="44.91699" lon="6.64038">
        <ele>1883.483338</ele>
        <time>2022-09-04T17:08:40+0200</time>
      </trkpt>
      <trkpt lat="44.91696" lon="6.64043">
        <ele>1884.731337</ele>
        <time>2022-09-04T17:08:43+0200</time>
      </trkpt>
      <trkpt lat="44.91693" lon="6.64049">
        <ele>1884.611192</ele>
        <time>2022-09-04T17:08:46+0200</time>
      </trkpt>
      <trkpt lat="44.9169" lon="6.64054">
        <ele>1885.570621</ele>
        <time>2022-09-04T17:08:49+0200</time>
      </trkpt>
      <trkpt lat="44.91685" lon="6.64057">
        <ele>1887.075113</ele>
        <time>2022-09-04T17:08:52+0200</time>
      </trkpt>
      <trkpt lat="44.91679" lon="6.64059">
        <ele>1887.672604</ele>
        <time>2022-09-04T17:08:55+0200</time>
      </trkpt>
      <trkpt lat="44.91674" lon="6.64061">
        <ele>1889.486331</ele>
        <time>2022-09-04T17:08:58+0200</time>
      </trkpt>
      <trkpt lat="44.91668" lon="6.64064">
        <ele>1890.042625</ele>
        <time>2022-09-04T17:09:01+0200</time>
      </trkpt>
      <trkpt lat="44.91664" lon="6.64068">
        <ele>1891.068331</ele>
        <time>2022-09-04T17:09:04+0200</time>
      </trkpt>
      <trkpt lat="44.91659" lon="6.64073">
        <ele>1891.816215</ele>
        <time>2022-09-04T17:09:07+0200</time>
      </trkpt>
      <trkpt lat="44.91654" lon="6.64076">
        <ele>1892.145267</ele>
        <time>2022-09-04T17:09:10+0200</time>
      </trkpt>
      <trkpt lat="44.91649" lon="6.64079">
        <ele>1893.090966</ele>
        <time>2022-09-04T17:09:13+0200</time>
      </trkpt>
      <trkpt lat="44.91644" lon="6.64083">
        <ele>1893.895228</ele>
        <time>2022-09-04T17:09:16+0200</time>
      </trkpt>
      <trkpt lat="44.91641" lon="6.64086">
        <ele>1893.819835</ele>
        <time>2022-09-04T17:09:18+0200</time>
      </trkpt>
      <trkpt lat="44.91636" lon="6.64089">
        <ele>1895.050328</ele>
        <time>2022-09-04T17:09:21+0200</time>
      </trkpt>
      <trkpt lat="44.91631" lon="6.64092">
        <ele>1894.799363</ele>
        <time>2022-09-04T17:09:24+0200</time>
      </trkpt>
      <trkpt lat="44.91625" lon="6.64097">
        <ele>1894.931821</ele>
        <time>2022-09-04T17:09:27+0200</time>
      </trkpt>
      <trkpt lat="44.91619" lon="6.64098">
        <ele>1895.252458</ele>
        <time>2022-09-04T17:09:30+0200</time>
      </trkpt>
      <trkpt lat="44.91615" lon="6.64102">
        <ele>1895.460712</ele>
        <time>2022-09-04T17:09:33+0200</time>
      </trkpt>
      <trkpt lat="44.91611" lon="6.64106">
        <ele>1895.515106</ele>
        <time>2022-09-04T17:09:36+0200</time>
      </trkpt>
      <trkpt lat="44.91606" lon="6.64111">
        <ele>1896.894393</ele>
        <time>2022-09-04T17:09:39+0200</time>
      </trkpt>
      <trkpt lat="44.91603" lon="6.64119">
        <ele>1896.418188</ele>
        <time>2022-09-04T17:09:42+0200</time>
      </trkpt>
      <trkpt lat="44.916" lon="6.64126">
        <ele>1896.398086</ele>
        <time>2022-09-04T17:09:45+0200</time>
      </trkpt>
      <trkpt lat="44.91597" lon="6.64131">
        <ele>1897.627544</ele>
        <time>2022-09-04T17:09:48+0200</time>
      </trkpt>
      <trkpt lat="44.91593" lon="6.64136">
        <ele>1899.242143</ele>
        <time>2022-09-04T17:09:51+0200</time>
      </trkpt>
      <trkpt lat="44.9159" lon="6.64143">
        <ele>1898.635827</ele>
        <time>2022-09-04T17:09:54+0200</time>
      </trkpt>
      <trkpt lat="44.91586" lon="6.64147">
        <ele>1899.272353</ele>
        <time>2022-09-04T17:09:57+0200</time>
      </trkpt>
      <trkpt lat="44.91581" lon="6.64149">
        <ele>1900.094334</ele>
        <time>2022-09-04T17:10:00+0200</time>
      </trkpt>
      <trkpt lat="44.91576" lon="6.64154">
        <ele>1900.31995</ele>
        <time>2022-09-04T17:10:03+0200</time>
      </trkpt>
      <trkpt lat="44.91572" lon="6.64159">
        <ele>1901.023587</ele>
        <time>2022-09-04T17:10:06+0200</time>
      </trkpt>
      <trkpt lat="44.91568" lon="6.64164">
        <ele>1901.404978</ele>
        <time>2022-09-04T17:10:09+0200</time>
      </trkpt>
      <trkpt lat="44.91563" lon="6.64169">
        <ele>1901.841456</ele>
        <time>2022-09-04T17:10:12+0200</time>
      </trkpt>
      <trkpt lat="44.91559" lon="6.64173">
        <ele>1902.639178</ele>
        <time>2022-09-04T17:10:15+0200</time>
      </trkpt>
      <trkpt lat="44.91555" lon="6.64177">
        <ele>1903.468233</ele>
        <time>2022-09-04T17:10:18+0200</time>
      </trkpt>
      <trkpt lat="44.9155" lon="6.64182">
        <ele>1903.087458</ele>
        <time>2022-09-04T17:10:21+0200</time>
      </trkpt>
      <trkpt lat="44.91544" lon="6.64186">
        <ele>1903.57093</ele>
        <time>2022-09-04T17:10:24+0200</time>
      </trkpt>
      <trkpt lat="44.91541" lon="6.64192">
        <ele>1902.278144</ele>
        <time>2022-09-04T17:10:27+0200</time>
      </trkpt>
      <trkpt lat="44.91538" lon="6.642">
        <ele>1903.90056</ele>
        <time>2022-09-04T17:10:30+0200</time>
      </trkpt>
      <trkpt lat="44.91533" lon="6.64204">
        <ele>1904.448196</ele>
        <time>2022-09-04T17:10:33+0200</time>
      </trkpt>
      <trkpt lat="44.91528" lon="6.6421">
        <ele>1904.16173</ele>
        <time>2022-09-04T17:10:37+0200</time>
      </trkpt>
      <trkpt lat="44.91523" lon="6.64215">
        <ele>1904.780387</ele>
        <time>2022-09-04T17:10:40+0200</time>
      </trkpt>
      <trkpt lat="44.91519" lon="6.64219">
        <ele>1905.027879</ele>
        <time>2022-09-04T17:10:43+0200</time>
      </trkpt>
      <trkpt lat="44.91515" lon="6.64224">
        <ele>1906.551267</ele>
        <time>2022-09-04T17:10:46+0200</time>
      </trkpt>
      <trkpt lat="44.91511" lon="6.64229">
        <ele>1908.00959</ele>
        <time>2022-09-04T17:10:49+0200</time>
      </trkpt>
      <trkpt lat="44.91507" lon="6.64235">
        <ele>1908.325212</ele>
        <time>2022-09-04T17:10:52+0200</time>
      </trkpt>
      <trkpt lat="44.91503" lon="6.64241">
        <ele>1909.30575</ele>
        <time>2022-09-04T17:10:55+0200</time>
      </trkpt>
      <trkpt lat="44.915" lon="6.64248">
        <ele>1910.164043</ele>
        <time>2022-09-04T17:10:58+0200</time>
      </trkpt>
      <trkpt lat="44.91495" lon="6.64252">
        <ele>1911.164187</ele>
        <time>2022-09-04T17:11:01+0200</time>
      </trkpt>
      <trkpt lat="44.9149" lon="6.64257">
        <ele>1912.885641</ele>
        <time>2022-09-04T17:11:04+0200</time>
      </trkpt>
      <trkpt lat="44.91486" lon="6.64262">
        <ele>1913.749674</ele>
        <time>2022-09-04T17:11:07+0200</time>
      </trkpt>
      <trkpt lat="44.9148" lon="6.64265">
        <ele>1915.064866</ele>
        <time>2022-09-04T17:11:10+0200</time>
      </trkpt>
      <trkpt lat="44.91476" lon="6.64269">
        <ele>1916.057461</ele>
        <time>2022-09-04T17:11:13+0200</time>
      </trkpt>
      <trkpt lat="44.91472" lon="6.64273">
        <ele>1916.69946</ele>
        <time>2022-09-04T17:11:15+0200</time>
      </trkpt>
      <trkpt lat="44.91467" lon="6.64279">
        <ele>1917.075481</ele>
        <time>2022-09-04T17:11:18+0200</time>
      </trkpt>
      <trkpt lat="44.91463" lon="6.64283">
        <ele>1917.886976</ele>
        <time>2022-09-04T17:11:21+0200</time>
      </trkpt>
      <trkpt lat="44.91458" lon="6.64288">
        <ele>1919.07633</ele>
        <time>2022-09-04T17:11:24+0200</time>
      </trkpt>
      <trkpt lat="44.91455" lon="6.64291">
        <ele>1919.76919</ele>
        <time>2022-09-04T17:11:27+0200</time>
      </trkpt>
      <trkpt lat="44.9145" lon="6.64295">
        <ele>1920.973653</ele>
        <time>2022-09-04T17:11:30+0200</time>
      </trkpt>
      <trkpt lat="44.91445" lon="6.64297">
        <ele>1921.161709</ele>
        <time>2022-09-04T17:11:32+0200</time>
      </trkpt>
      <trkpt lat="44.91439" lon="6.64301">
        <ele>1921.254932</ele>
        <time>2022-09-04T17:11:35+0200</time>
      </trkpt>
      <trkpt lat="44.91433" lon="6.64303">
        <ele>1921.460528</ele>
        <time>2022-09-04T17:11:38+0200</time>
      </trkpt>
      <trkpt lat="44.91428" lon="6.64306">
        <ele>1920.956492</ele>
        <time>2022-09-04T17:11:41+0200</time>
      </trkpt>
      <trkpt lat="44.91424" lon="6.6431">
        <ele>1921.066291</ele>
        <time>2022-09-04T17:11:44+0200</time>
      </trkpt>
      <trkpt lat="44.91418" lon="6.64311">
        <ele>1922.297064</ele>
        <time>2022-09-04T17:11:48+0200</time>
      </trkpt>
      <trkpt lat="44.91413" lon="6.64314">
        <ele>1922.353402</ele>
        <time>2022-09-04T17:11:51+0200</time>
      </trkpt>
      <trkpt lat="44.91407" lon="6.64317">
        <ele>1922.610101</ele>
        <time>2022-09-04T17:11:54+0200</time>
      </trkpt>
      <trkpt lat="44.91403" lon="6.64322">
        <ele>1921.954575</ele>
        <time>2022-09-04T17:11:57+0200</time>
      </trkpt>
      <trkpt lat="44.914" lon="6.64329">
        <ele>1922.818316</ele>
        <time>2022-09-04T17:12:00+0200</time>
      </trkpt>
      <trkpt lat="44.91397" lon="6.64336">
        <ele>1924.561209</ele>
        <time>2022-09-04T17:12:04+0200</time>
      </trkpt>
      <trkpt lat="44.91393" lon="6.64344">
        <ele>1925.16103</ele>
        <time>2022-09-04T17:12:07+0200</time>
      </trkpt>
      <trkpt lat="44.91389" lon="6.6435">
        <ele>1925.993463</ele>
        <time>2022-09-04T17:12:10+0200</time>
      </trkpt>
      <trkpt lat="44.91386" lon="6.64357">
        <ele>1927.734799</ele>
        <time>2022-09-04T17:12:13+0200</time>
      </trkpt>
      <trkpt lat="44.91382" lon="6.64361">
        <ele>1927.569792</ele>
        <time>2022-09-04T17:12:15+0200</time>
      </trkpt>
      <trkpt lat="44.9138" lon="6.64369">
        <ele>1927.837154</ele>
        <time>2022-09-04T17:12:18+0200</time>
      </trkpt>
      <trkpt lat="44.91376" lon="6.64374">
        <ele>1928.621592</ele>
        <time>2022-09-04T17:12:21+0200</time>
      </trkpt>
      <trkpt lat="44.91372" lon="6.64379">
        <ele>1928.968489</ele>
        <time>2022-09-04T17:12:24+0200</time>
      </trkpt>
      <trkpt lat="44.91368" lon="6.64384">
        <ele>1929.363465</ele>
        <time>2022-09-04T17:12:27+0200</time>
      </trkpt>
      <trkpt lat="44.91364" lon="6.6439">
        <ele>1930.433047</ele>
        <time>2022-09-04T17:12:30+0200</time>
      </trkpt>
      <trkpt lat="44.9136" lon="6.64395">
        <ele>1930.943539</ele>
        <time>2022-09-04T17:12:33+0200</time>
      </trkpt>
      <trkpt lat="44.91356" lon="6.64402">
        <ele>1931.889666</ele>
        <time>2022-09-04T17:12:36+0200</time>
      </trkpt>
      <trkpt lat="44.91353" lon="6.64408">
        <ele>1933.603643</ele>
        <time>2022-09-04T17:12:39+0200</time>
      </trkpt>
      <trkpt lat="44.9135" lon="6.64413">
        <ele>1935.322519</ele>
        <time>2022-09-04T17:12:42+0200</time>
      </trkpt>
      <trkpt lat="44.91346" lon="6.64419">
        <ele>1935.850373</ele>
        <time>2022-09-04T17:12:45+0200</time>
      </trkpt>
      <trkpt lat="44.91343" lon="6.64424">
        <ele>1936.178567</ele>
        <time>2022-09-04T17:12:48+0200</time>
      </trkpt>
      <trkpt lat="44.9134" lon="6.64431">
        <ele>1936.344113</ele>
        <time>2022-09-04T17:12:51+0200</time>
      </trkpt>
      <trkpt lat="44.91335" lon="6.64436">
        <ele>1936.864737</ele>
        <time>2022-09-04T17:12:54+0200</time>
      </trkpt>
      <trkpt lat="44.9133" lon="6.6444">
        <ele>1936.933781</ele>
        <time>2022-09-04T17:12:57+0200</time>
      </trkpt>
      <trkpt lat="44.91325" lon="6.64448">
        <ele>1936.372221</ele>
        <time>2022-09-04T17:13:00+0200</time>
      </trkpt>
      <trkpt lat="44.91321" lon="6.64451">
        <ele>1937.049504</ele>
        <time>2022-09-04T17:13:04+0200</time>
      </trkpt>
      <trkpt lat="44.91316" lon="6.64455">
        <ele>1937.41875</ele>
        <time>2022-09-04T17:13:07+0200</time>
      </trkpt>
      <trkpt lat="44.91312" lon="6.64459">
        <ele>1938.835838</ele>
        <time>2022-09-04T17:13:10+0200</time>
      </trkpt>
      <trkpt lat="44.91307" lon="6.64462">
        <ele>1940.195347</ele>
        <time>2022-09-04T17:13:13+0200</time>
      </trkpt>
      <trkpt lat="44.91303" lon="6.64469">
        <ele>1940.544674</ele>
        <time>2022-09-04T17:13:16+0200</time>
      </trkpt>
      <trkpt lat="44.913" lon="6.64475">
        <ele>1941.193769</ele>
        <time>2022-09-04T17:13:19+0200</time>
      </trkpt>
      <trkpt lat="44.91297" lon="6.64481">
        <ele>1942.274746</ele>
        <time>2022-09-04T17:13:22+0200</time>
      </trkpt>
      <trkpt lat="44.91294" lon="6.64487">
        <ele>1942.519304</ele>
        <time>2022-09-04T17:13:25+0200</time>
      </trkpt>
      <trkpt lat="44.91291" lon="6.64493">
        <ele>1942.758806</ele>
        <time>2022-09-04T17:13:28+0200</time>
      </trkpt>
      <trkpt lat="44.91286" lon="6.64497">
        <ele>1943.897922</ele>
        <time>2022-09-04T17:13:31+0200</time>
      </trkpt>
      <trkpt lat="44.91282" lon="6.64501">
        <ele>1945.20785</ele>
        <time>2022-09-04T17:13:34+0200</time>
      </trkpt>
      <trkpt lat="44.91277" lon="6.64503">
        <ele>1944.475885</ele>
        <time>2022-09-04T17:13:37+0200</time>
      </trkpt>
      <trkpt lat="44.91272" lon="6.64507">
        <ele>1944.643366</ele>
        <time>2022-09-04T17:13:40+0200</time>
      </trkpt>
      <trkpt lat="44.91267" lon="6.64511">
        <ele>1945.183159</ele>
        <time>2022-09-04T17:13:43+0200</time>
      </trkpt>
      <trkpt lat="44.91265" lon="6.64517">
        <ele>1946.212268</ele>
        <time>2022-09-04T17:13:46+0200</time>
      </trkpt>
      <trkpt lat="44.91262" lon="6.64524">
        <ele>1947.957641</ele>
        <time>2022-09-04T17:13:49+0200</time>
      </trkpt>
      <trkpt lat="44.9126" lon="6.64531">
        <ele>1949.674801</ele>
        <time>2022-09-04T17:13:52+0200</time>
      </trkpt>
      <trkpt lat="44.91256" lon="6.64538">
        <ele>1949.790483</ele>
        <time>2022-09-04T17:13:55+0200</time>
      </trkpt>
      <trkpt lat="44.91251" lon="6.64544">
        <ele>1951.024418</ele>
        <time>2022-09-04T17:13:58+0200</time>
      </trkpt>
      <trkpt lat="44.91248" lon="6.64548">
        <ele>1950.965427</ele>
        <time>2022-09-04T17:14:01+0200</time>
      </trkpt>
      <trkpt lat="44.91244" lon="6.64554">
        <ele>1950.821005</ele>
        <time>2022-09-04T17:14:04+0200</time>
      </trkpt>
      <trkpt lat="44.91239" lon="6.64556">
        <ele>1951.063184</ele>
        <time>2022-09-04T17:14:07+0200</time>
      </trkpt>
      <trkpt lat="44.91234" lon="6.6456">
        <ele>1952.457106</ele>
        <time>2022-09-04T17:14:10+0200</time>
      </trkpt>
      <trkpt lat="44.91229" lon="6.64562">
        <ele>1954.218667</ele>
        <time>2022-09-04T17:14:13+0200</time>
      </trkpt>
      <trkpt lat="44.91224" lon="6.64564">
        <ele>1955.899337</ele>
        <time>2022-09-04T17:14:16+0200</time>
      </trkpt>
      <trkpt lat="44.91219" lon="6.64562">
        <ele>1956.44886</ele>
        <time>2022-09-04T17:14:18+0200</time>
      </trkpt>
      <trkpt lat="44.91214" lon="6.64563">
        <ele>1956.165353</ele>
        <time>2022-09-04T17:14:21+0200</time>
      </trkpt>
      <trkpt lat="44.91209" lon="6.64566">
        <ele>1955.360677</ele>
        <time>2022-09-04T17:14:23+0200</time>
      </trkpt>
      <trkpt lat="44.91205" lon="6.64567">
        <ele>1955.572546</ele>
        <time>2022-09-04T17:14:25+0200</time>
      </trkpt>
      <trkpt lat="44.912" lon="6.64568">
        <ele>1955.525518</ele>
        <time>2022-09-04T17:14:28+0200</time>
      </trkpt>
      <trkpt lat="44.91195" lon="6.64571">
        <ele>1956.14912</ele>
        <time>2022-09-04T17:14:31+0200</time>
      </trkpt>
      <trkpt lat="44.9119" lon="6.64575">
        <ele>1955.503341</ele>
        <time>2022-09-04T17:14:34+0200</time>
      </trkpt>
      <trkpt lat="44.91185" lon="6.64579">
        <ele>1956.757108</ele>
        <time>2022-09-04T17:14:37+0200</time>
      </trkpt>
      <trkpt lat="44.91181" lon="6.64585">
        <ele>1956.842045</ele>
        <time>2022-09-04T17:14:40+0200</time>
      </trkpt>
      <trkpt lat="44.91177" lon="6.6459">
        <ele>1956.757399</ele>
        <time>2022-09-04T17:14:43+0200</time>
      </trkpt>
      <trkpt lat="44.91172" lon="6.64594">
        <ele>1957.64482</ele>
        <time>2022-09-04T17:14:46+0200</time>
      </trkpt>
      <trkpt lat="44.91168" lon="6.64599">
        <ele>1957.807296</ele>
        <time>2022-09-04T17:14:49+0200</time>
      </trkpt>
      <trkpt lat="44.91163" lon="6.64603">
        <ele>1958.196627</ele>
        <time>2022-09-04T17:14:52+0200</time>
      </trkpt>
      <trkpt lat="44.9116" lon="6.64609">
        <ele>1958.291884</ele>
        <time>2022-09-04T17:14:55+0200</time>
      </trkpt>
      <trkpt lat="44.91156" lon="6.64614">
        <ele>1959.430655</ele>
        <time>2022-09-04T17:14:58+0200</time>
      </trkpt>
      <trkpt lat="44.9115" lon="6.64617">
        <ele>1961.054524</ele>
        <time>2022-09-04T17:15:01+0200</time>
      </trkpt>
      <trkpt lat="44.91145" lon="6.6462">
        <ele>1962.116689</ele>
        <time>2022-09-04T17:15:04+0200</time>
      </trkpt>
      <trkpt lat="44.9114" lon="6.64625">
        <ele>1963.23837</ele>
        <time>2022-09-04T17:15:07+0200</time>
      </trkpt>
      <trkpt lat="44.91135" lon="6.64628">
        <ele>1963.745791</ele>
        <time>2022-09-04T17:15:10+0200</time>
      </trkpt>
      <trkpt lat="44.9113" lon="6.64631">
        <ele>1963.456549</ele>
        <time>2022-09-04T17:15:13+0200</time>
      </trkpt>
      <trkpt lat="44.91124" lon="6.64633">
        <ele>1964.365584</ele>
        <time>2022-09-04T17:15:16+0200</time>
      </trkpt>
      <trkpt lat="44.91119" lon="6.64637">
        <ele>1964.776838</ele>
        <time>2022-09-04T17:15:19+0200</time>
      </trkpt>
      <trkpt lat="44.91115" lon="6.64641">
        <ele>1965.25825</ele>
        <time>2022-09-04T17:15:22+0200</time>
      </trkpt>
      <trkpt lat="44.91109" lon="6.64645">
        <ele>1967.476333</ele>
        <time>2022-09-04T17:15:25+0200</time>
      </trkpt>
      <trkpt lat="44.91104" lon="6.64648">
        <ele>1968.306124</ele>
        <time>2022-09-04T17:15:29+0200</time>
      </trkpt>
      <trkpt lat="44.911" lon="6.64652">
        <ele>1967.960808</ele>
        <time>2022-09-04T17:15:33+0200</time>
      </trkpt>
      <trkpt lat="44.91094" lon="6.64653">
        <ele>1967.588476</ele>
        <time>2022-09-04T17:15:36+0200</time>
      </trkpt>
      <trkpt lat="44.91088" lon="6.64655">
        <ele>1968.638584</ele>
        <time>2022-09-04T17:15:39+0200</time>
      </trkpt>
      <trkpt lat="44.91082" lon="6.64655">
        <ele>1969.130325</ele>
        <time>2022-09-04T17:15:42+0200</time>
      </trkpt>
      <trkpt lat="44.91078" lon="6.64656">
        <ele>1968.451074</ele>
        <time>2022-09-04T17:15:46+0200</time>
      </trkpt>
      <trkpt lat="44.91074" lon="6.6466">
        <ele>1968.228884</ele>
        <time>2022-09-04T17:15:51+0200</time>
      </trkpt>
      <trkpt lat="44.91071" lon="6.64666">
        <ele>1967.571103</ele>
        <time>2022-09-04T17:16:40+0200</time>
      </trkpt>
      <trkpt lat="44.91071" lon="6.64675">
        <ele>1967.326027</ele>
        <time>2022-09-04T17:16:43+0200</time>
      </trkpt>
      <trkpt lat="44.91072" lon="6.64684">
        <ele>1967.025015</ele>
        <time>2022-09-04T17:16:45+0200</time>
      </trkpt>
      <trkpt lat="44.91071" lon="6.64691">
        <ele>1966.104598</ele>
        <time>2022-09-04T17:16:46+0200</time>
      </trkpt>
      <trkpt lat="44.91071" lon="6.647">
        <ele>1965.015212</ele>
        <time>2022-09-04T17:16:47+0200</time>
      </trkpt>
      <trkpt lat="44.91069" lon="6.64706">
        <ele>1963.88331</ele>
        <time>2022-09-04T17:16:48+0200</time>
      </trkpt>
      <trkpt lat="44.9107" lon="6.64717">
        <ele>1961.83834</ele>
        <time>2022-09-04T17:16:50+0200</time>
      </trkpt>
      <trkpt lat="44.91074" lon="6.64724">
        <ele>1960.514131</ele>
        <time>2022-09-04T17:16:51+0200</time>
      </trkpt>
      <trkpt lat="44.91077" lon="6.64732">
        <ele>1959.123127</ele>
        <time>2022-09-04T17:16:52+0200</time>
      </trkpt>
      <trkpt lat="44.91077" lon="6.6474">
        <ele>1958.019477</ele>
        <time>2022-09-04T17:16:53+0200</time>
      </trkpt>
      <trkpt lat="44.91081" lon="6.64751">
        <ele>1956.465743</ele>
        <time>2022-09-04T17:16:55+0200</time>
      </trkpt>
      <trkpt lat="44.91084" lon="6.64759">
        <ele>1956.316966</ele>
        <time>2022-09-04T17:16:56+0200</time>
      </trkpt>
      <trkpt lat="44.91088" lon="6.64767">
        <ele>1956.474937</ele>
        <time>2022-09-04T17:16:57+0200</time>
      </trkpt>
      <trkpt lat="44.9109" lon="6.64773">
        <ele>1956.130821</ele>
        <time>2022-09-04T17:16:58+0200</time>
      </trkpt>
      <trkpt lat="44.91092" lon="6.6478">
        <ele>1955.400339</ele>
        <time>2022-09-04T17:16:59+0200</time>
      </trkpt>
      <trkpt lat="44.91097" lon="6.64792">
        <ele>1953.927421</ele>
        <time>2022-09-04T17:17:01+0200</time>
      </trkpt>
      <trkpt lat="44.91101" lon="6.64799">
        <ele>1953.385429</ele>
        <time>2022-09-04T17:17:02+0200</time>
      </trkpt>
      <trkpt lat="44.91106" lon="6.64807">
        <ele>1953.910412</ele>
        <time>2022-09-04T17:17:03+0200</time>
      </trkpt>
      <trkpt lat="44.91109" lon="6.64816">
        <ele>1953.60336</ele>
        <time>2022-09-04T17:17:04+0200</time>
      </trkpt>
      <trkpt lat="44.91115" lon="6.64823">
        <ele>1952.021835</ele>
        <time>2022-09-04T17:17:06+0200</time>
      </trkpt>
      <trkpt lat="44.9112" lon="6.64831">
        <ele>1951.590467</ele>
        <time>2022-09-04T17:17:08+0200</time>
      </trkpt>
      <trkpt lat="44.91124" lon="6.64836">
        <ele>1951.928377</ele>
        <time>2022-09-04T17:17:09+0200</time>
      </trkpt>
      <trkpt lat="44.91123" lon="6.64842">
        <ele>1952.13169</ele>
        <time>2022-09-04T17:17:10+0200</time>
      </trkpt>
      <trkpt lat="44.91123" lon="6.64853">
        <ele>1950.323027</ele>
        <time>2022-09-04T17:17:12+0200</time>
      </trkpt>
      <trkpt lat="44.91125" lon="6.64863">
        <ele>1949.376786</ele>
        <time>2022-09-04T17:17:14+0200</time>
      </trkpt>
      <trkpt lat="44.91125" lon="6.64872">
        <ele>1947.222473</ele>
        <time>2022-09-04T17:17:16+0200</time>
      </trkpt>
      <trkpt lat="44.91124" lon="6.64883">
        <ele>1944.826073</ele>
        <time>2022-09-04T17:17:18+0200</time>
      </trkpt>
      <trkpt lat="44.91128" lon="6.64892">
        <ele>1942.853787</ele>
        <time>2022-09-04T17:17:20+0200</time>
      </trkpt>
      <trkpt lat="44.91129" lon="6.64903">
        <ele>1941.667769</ele>
        <time>2022-09-04T17:17:22+0200</time>
      </trkpt>
      <trkpt lat="44.91129" lon="6.64913">
        <ele>1939.403352</ele>
        <time>2022-09-04T17:17:24+0200</time>
      </trkpt>
      <trkpt lat="44.91131" lon="6.64919">
        <ele>1938.137567</ele>
        <time>2022-09-04T17:17:25+0200</time>
      </trkpt>
      <trkpt lat="44.91133" lon="6.64926">
        <ele>1936.824328</ele>
        <time>2022-09-04T17:17:26+0200</time>
      </trkpt>
      <trkpt lat="44.91135" lon="6.64934">
        <ele>1935.998425</ele>
        <time>2022-09-04T17:17:27+0200</time>
      </trkpt>
      <trkpt lat="44.91136" lon="6.6494">
        <ele>1935.421642</ele>
        <time>2022-09-04T17:17:28+0200</time>
      </trkpt>
      <trkpt lat="44.91138" lon="6.64949">
        <ele>1934.241567</ele>
        <time>2022-09-04T17:17:29+0200</time>
      </trkpt>
      <trkpt lat="44.9114" lon="6.64955">
        <ele>1933.22903</ele>
        <time>2022-09-04T17:17:30+0200</time>
      </trkpt>
      <trkpt lat="44.91142" lon="6.64961">
        <ele>1932.964957</ele>
        <time>2022-09-04T17:17:31+0200</time>
      </trkpt>
      <trkpt lat="44.91144" lon="6.64972">
        <ele>1930.294781</ele>
        <time>2022-09-04T17:17:33+0200</time>
      </trkpt>
      <trkpt lat="44.91148" lon="6.64979">
        <ele>1928.389042</ele>
        <time>2022-09-04T17:17:34+0200</time>
      </trkpt>
      <trkpt lat="44.91152" lon="6.64989">
        <ele>1926.256377</ele>
        <time>2022-09-04T17:17:35+0200</time>
      </trkpt>
      <trkpt lat="44.91155" lon="6.64998">
        <ele>1924.979607</ele>
        <time>2022-09-04T17:17:36+0200</time>
      </trkpt>
      <trkpt lat="44.91158" lon="6.65006">
        <ele>1923.409404</ele>
        <time>2022-09-04T17:17:37+0200</time>
      </trkpt>
      <trkpt lat="44.9116" lon="6.65012">
        <ele>1921.368785</ele>
        <time>2022-09-04T17:17:38+0200</time>
      </trkpt>
      <trkpt lat="44.91164" lon="6.65019">
        <ele>1917.437464</ele>
        <time>2022-09-04T17:17:40+0200</time>
      </trkpt>
      <trkpt lat="44.91171" lon="6.65017">
        <ele>1916.743374</ele>
        <time>2022-09-04T17:17:42+0200</time>
      </trkpt>
      <trkpt lat="44.91176" lon="6.65016">
        <ele>1916.469642</ele>
        <time>2022-09-04T17:17:43+0200</time>
      </trkpt>
      <trkpt lat="44.91181" lon="6.65015">
        <ele>1916.034718</ele>
        <time>2022-09-04T17:17:45+0200</time>
      </trkpt>
      <trkpt lat="44.91185" lon="6.65019">
        <ele>1916.16698</ele>
        <time>2022-09-04T17:17:47+0200</time>
      </trkpt>
      <trkpt lat="44.9119" lon="6.65025">
        <ele>1914.907111</ele>
        <time>2022-09-04T17:17:49+0200</time>
      </trkpt>
      <trkpt lat="44.91194" lon="6.6503">
        <ele>1914.211301</ele>
        <time>2022-09-04T17:17:50+0200</time>
      </trkpt>
      <trkpt lat="44.91199" lon="6.65033">
        <ele>1913.071886</ele>
        <time>2022-09-04T17:17:51+0200</time>
      </trkpt>
      <trkpt lat="44.91205" lon="6.6504">
        <ele>1910.445194</ele>
        <time>2022-09-04T17:17:53+0200</time>
      </trkpt>
      <trkpt lat="44.91212" lon="6.65045">
        <ele>1907.87268</ele>
        <time>2022-09-04T17:17:55+0200</time>
      </trkpt>
      <trkpt lat="44.91218" lon="6.65048">
        <ele>1906.973235</ele>
        <time>2022-09-04T17:17:56+0200</time>
      </trkpt>
      <trkpt lat="44.91224" lon="6.65052">
        <ele>1905.434227</ele>
        <time>2022-09-04T17:17:57+0200</time>
      </trkpt>
      <trkpt lat="44.9123" lon="6.65057">
        <ele>1904.739213</ele>
        <time>2022-09-04T17:17:58+0200</time>
      </trkpt>
      <trkpt lat="44.91237" lon="6.65062">
        <ele>1903.023505</ele>
        <time>2022-09-04T17:17:59+0200</time>
      </trkpt>
      <trkpt lat="44.9124" lon="6.65069">
        <ele>1901.601125</ele>
        <time>2022-09-04T17:18:00+0200</time>
      </trkpt>
      <trkpt lat="44.91246" lon="6.65075">
        <ele>1898.53377</ele>
        <time>2022-09-04T17:18:02+0200</time>
      </trkpt>
      <trkpt lat="44.91251" lon="6.65081">
        <ele>1897.178062</ele>
        <time>2022-09-04T17:18:04+0200</time>
      </trkpt>
      <trkpt lat="44.91257" lon="6.6509">
        <ele>1894.627926</ele>
        <time>2022-09-04T17:18:06+0200</time>
      </trkpt>
      <trkpt lat="44.91262" lon="6.65101">
        <ele>1891.630568</ele>
        <time>2022-09-04T17:18:08+0200</time>
      </trkpt>
      <trkpt lat="44.91266" lon="6.65107">
        <ele>1889.158988</ele>
        <time>2022-09-04T17:18:09+0200</time>
      </trkpt>
      <trkpt lat="44.9127" lon="6.65115">
        <ele>1887.28569</ele>
        <time>2022-09-04T17:18:10+0200</time>
      </trkpt>
      <trkpt lat="44.91273" lon="6.65123">
        <ele>1885.624394</ele>
        <time>2022-09-04T17:18:11+0200</time>
      </trkpt>
      <trkpt lat="44.91274" lon="6.6513">
        <ele>1883.838518</ele>
        <time>2022-09-04T17:18:12+0200</time>
      </trkpt>
      <trkpt lat="44.91281" lon="6.65138">
        <ele>1880.99073</ele>
        <time>2022-09-04T17:18:14+0200</time>
      </trkpt>
      <trkpt lat="44.91286" lon="6.65144">
        <ele>1879.942858</ele>
        <time>2022-09-04T17:18:15+0200</time>
      </trkpt>
      <trkpt lat="44.91289" lon="6.65148">
        <ele>1879.191651</ele>
        <time>2022-09-04T17:18:16+0200</time>
      </trkpt>
      <trkpt lat="44.91293" lon="6.65156">
        <ele>1878.035888</ele>
        <time>2022-09-04T17:18:17+0200</time>
      </trkpt>
      <trkpt lat="44.91298" lon="6.65163">
        <ele>1876.890507</ele>
        <time>2022-09-04T17:18:18+0200</time>
      </trkpt>
      <trkpt lat="44.91303" lon="6.6517">
        <ele>1875.969164</ele>
        <time>2022-09-04T17:18:19+0200</time>
      </trkpt>
      <trkpt lat="44.91306" lon="6.65176">
        <ele>1875.183931</ele>
        <time>2022-09-04T17:18:20+0200</time>
      </trkpt>
      <trkpt lat="44.91312" lon="6.65185">
        <ele>1873.588641</ele>
        <time>2022-09-04T17:18:22+0200</time>
      </trkpt>
      <trkpt lat="44.91315" lon="6.65193">
        <ele>1873.202803</ele>
        <time>2022-09-04T17:18:23+0200</time>
      </trkpt>
      <trkpt lat="44.91319" lon="6.652">
        <ele>1872.259769</ele>
        <time>2022-09-04T17:18:24+0200</time>
      </trkpt>
      <trkpt lat="44.91322" lon="6.65207">
        <ele>1871.306642</ele>
        <time>2022-09-04T17:18:25+0200</time>
      </trkpt>
      <trkpt lat="44.91326" lon="6.65215">
        <ele>1870.620309</ele>
        <time>2022-09-04T17:18:26+0200</time>
      </trkpt>
      <trkpt lat="44.91329" lon="6.65221">
        <ele>1870.326251</ele>
        <time>2022-09-04T17:18:27+0200</time>
      </trkpt>
      <trkpt lat="44.91331" lon="6.65228">
        <ele>1869.602362</ele>
        <time>2022-09-04T17:18:28+0200</time>
      </trkpt>
      <trkpt lat="44.91333" lon="6.65236">
        <ele>1868.72351</ele>
        <time>2022-09-04T17:18:29+0200</time>
      </trkpt>
      <trkpt lat="44.91335" lon="6.65243">
        <ele>1867.59079</ele>
        <time>2022-09-04T17:18:30+0200</time>
      </trkpt>
      <trkpt lat="44.91337" lon="6.6525">
        <ele>1866.727285</ele>
        <time>2022-09-04T17:18:31+0200</time>
      </trkpt>
      <trkpt lat="44.91342" lon="6.65257">
        <ele>1864.119857</ele>
        <time>2022-09-04T17:18:33+0200</time>
      </trkpt>
      <trkpt lat="44.91343" lon="6.65264">
        <ele>1862.939769</ele>
        <time>2022-09-04T17:18:34+0200</time>
      </trkpt>
      <trkpt lat="44.91343" lon="6.65276">
        <ele>1860.98253</ele>
        <time>2022-09-04T17:18:36+0200</time>
      </trkpt>
      <trkpt lat="44.91344" lon="6.65283">
        <ele>1859.970349</ele>
        <time>2022-09-04T17:18:37+0200</time>
      </trkpt>
      <trkpt lat="44.91345" lon="6.65291">
        <ele>1859.373744</ele>
        <time>2022-09-04T17:18:38+0200</time>
      </trkpt>
      <trkpt lat="44.91346" lon="6.65297">
        <ele>1857.708732</ele>
        <time>2022-09-04T17:18:39+0200</time>
      </trkpt>
      <trkpt lat="44.91348" lon="6.65304">
        <ele>1856.103959</ele>
        <time>2022-09-04T17:18:41+0200</time>
      </trkpt>
      <trkpt lat="44.91349" lon="6.6531">
        <ele>1855.074114</ele>
        <time>2022-09-04T17:18:43+0200</time>
      </trkpt>
      <trkpt lat="44.91353" lon="6.65318">
        <ele>1854.683585</ele>
        <time>2022-09-04T17:18:45+0200</time>
      </trkpt>
      <trkpt lat="44.91348" lon="6.6532">
        <ele>1853.037052</ele>
        <time>2022-09-04T17:18:48+0200</time>
      </trkpt>
      <trkpt lat="44.91341" lon="6.65314">
        <ele>1851.333335</ele>
        <time>2022-09-04T17:18:50+0200</time>
      </trkpt>
      <trkpt lat="44.91335" lon="6.65311">
        <ele>1850.708674</ele>
        <time>2022-09-04T17:18:51+0200</time>
      </trkpt>
      <trkpt lat="44.91329" lon="6.65312">
        <ele>1850.504934</ele>
        <time>2022-09-04T17:18:52+0200</time>
      </trkpt>
      <trkpt lat="44.91322" lon="6.6531">
        <ele>1849.874545</ele>
        <time>2022-09-04T17:18:54+0200</time>
      </trkpt>
      <trkpt lat="44.91317" lon="6.65303">
        <ele>1848.31813</ele>
        <time>2022-09-04T17:18:56+0200</time>
      </trkpt>
      <trkpt lat="44.91312" lon="6.65298">
        <ele>1846.932473</ele>
        <time>2022-09-04T17:18:58+0200</time>
      </trkpt>
      <trkpt lat="44.91306" lon="6.65297">
        <ele>1845.94571</ele>
        <time>2022-09-04T17:19:00+0200</time>
      </trkpt>
      <trkpt lat="44.913" lon="6.65296">
        <ele>1845.463511</ele>
        <time>2022-09-04T17:19:02+0200</time>
      </trkpt>
      <trkpt lat="44.91295" lon="6.65296">
        <ele>1843.423527</ele>
        <time>2022-09-04T17:19:04+0200</time>
      </trkpt>
      <trkpt lat="44.91291" lon="6.65295">
        <ele>1842.442503</ele>
        <time>2022-09-04T17:19:06+0200</time>
      </trkpt>
      <trkpt lat="44.91285" lon="6.65292">
        <ele>1841.739332</ele>
        <time>2022-09-04T17:19:08+0200</time>
      </trkpt>
      <trkpt lat="44.91277" lon="6.6529">
        <ele>1840.096637</ele>
        <time>2022-09-04T17:19:10+0200</time>
      </trkpt>
      <trkpt lat="44.91272" lon="6.65285">
        <ele>1838.449668</ele>
        <time>2022-09-04T17:19:12+0200</time>
      </trkpt>
      <trkpt lat="44.91268" lon="6.65282">
        <ele>1837.984016</ele>
        <time>2022-09-04T17:19:13+0200</time>
      </trkpt>
      <trkpt lat="44.9126" lon="6.65279">
        <ele>1835.797624</ele>
        <time>2022-09-04T17:19:15+0200</time>
      </trkpt>
      <trkpt lat="44.91253" lon="6.65276">
        <ele>1833.6561</ele>
        <time>2022-09-04T17:19:17+0200</time>
      </trkpt>
      <trkpt lat="44.91246" lon="6.65273">
        <ele>1831.044277</ele>
        <time>2022-09-04T17:19:19+0200</time>
      </trkpt>
      <trkpt lat="44.91238" lon="6.65272">
        <ele>1829.011166</ele>
        <time>2022-09-04T17:19:21+0200</time>
      </trkpt>
      <trkpt lat="44.91233" lon="6.65269">
        <ele>1827.79874</ele>
        <time>2022-09-04T17:19:22+0200</time>
      </trkpt>
      <trkpt lat="44.91227" lon="6.65267">
        <ele>1826.873269</ele>
        <time>2022-09-04T17:19:23+0200</time>
      </trkpt>
      <trkpt lat="44.91222" lon="6.65267">
        <ele>1825.488714</ele>
        <time>2022-09-04T17:19:24+0200</time>
      </trkpt>
      <trkpt lat="44.91216" lon="6.65267">
        <ele>1823.759603</ele>
        <time>2022-09-04T17:19:25+0200</time>
      </trkpt>
      <trkpt lat="44.91207" lon="6.65266">
        <ele>1822.369775</ele>
        <time>2022-09-04T17:19:27+0200</time>
      </trkpt>
      <trkpt lat="44.91202" lon="6.65266">
        <ele>1820.433742</ele>
        <time>2022-09-04T17:19:28+0200</time>
      </trkpt>
      <trkpt lat="44.91195" lon="6.65265">
        <ele>1818.738199</ele>
        <time>2022-09-04T17:19:30+0200</time>
      </trkpt>
      <trkpt lat="44.9119" lon="6.65268">
        <ele>1817.673169</ele>
        <time>2022-09-04T17:19:32+0200</time>
      </trkpt>
      <trkpt lat="44.91183" lon="6.65271">
        <ele>1816.158869</ele>
        <time>2022-09-04T17:19:34+0200</time>
      </trkpt>
      <trkpt lat="44.91178" lon="6.6527">
        <ele>1815.603507</ele>
        <time>2022-09-04T17:19:35+0200</time>
      </trkpt>
      <trkpt lat="44.91171" lon="6.65269">
        <ele>1813.662462</ele>
        <time>2022-09-04T17:19:37+0200</time>
      </trkpt>
      <trkpt lat="44.91164" lon="6.65273">
        <ele>1812.156084</ele>
        <time>2022-09-04T17:19:39+0200</time>
      </trkpt>
      <trkpt lat="44.91157" lon="6.65272">
        <ele>1810.083797</ele>
        <time>2022-09-04T17:19:41+0200</time>
      </trkpt>
      <trkpt lat="44.91152" lon="6.65271">
        <ele>1809.346218</ele>
        <time>2022-09-04T17:19:42+0200</time>
      </trkpt>
      <trkpt lat="44.91148" lon="6.65273">
        <ele>1808.551488</ele>
        <time>2022-09-04T17:19:43+0200</time>
      </trkpt>
      <trkpt lat="44.91143" lon="6.65276">
        <ele>1806.949892</ele>
        <time>2022-09-04T17:19:44+0200</time>
      </trkpt>
      <trkpt lat="44.91136" lon="6.65279">
        <ele>1803.477168</ele>
        <time>2022-09-04T17:19:46+0200</time>
      </trkpt>
      <trkpt lat="44.91131" lon="6.6528">
        <ele>1802.632996</ele>
        <time>2022-09-04T17:19:47+0200</time>
      </trkpt>
      <trkpt lat="44.91125" lon="6.65277">
        <ele>1801.645466</ele>
        <time>2022-09-04T17:19:48+0200</time>
      </trkpt>
      <trkpt lat="44.9112" lon="6.65275">
        <ele>1800.377195</ele>
        <time>2022-09-04T17:19:49+0200</time>
      </trkpt>
      <trkpt lat="44.91111" lon="6.6527">
        <ele>1798.167799</ele>
        <time>2022-09-04T17:19:51+0200</time>
      </trkpt>
      <trkpt lat="44.91106" lon="6.65266">
        <ele>1797.125574</ele>
        <time>2022-09-04T17:19:52+0200</time>
      </trkpt>
      <trkpt lat="44.911" lon="6.65263">
        <ele>1796.024465</ele>
        <time>2022-09-04T17:19:53+0200</time>
      </trkpt>
      <trkpt lat="44.91094" lon="6.6526">
        <ele>1795.207893</ele>
        <time>2022-09-04T17:19:54+0200</time>
      </trkpt>
      <trkpt lat="44.91089" lon="6.65257">
        <ele>1793.98775</ele>
        <time>2022-09-04T17:19:55+0200</time>
      </trkpt>
      <trkpt lat="44.91084" lon="6.65255">
        <ele>1793.189723</ele>
        <time>2022-09-04T17:19:56+0200</time>
      </trkpt>
      <trkpt lat="44.91078" lon="6.65253">
        <ele>1791.565037</ele>
        <time>2022-09-04T17:19:58+0200</time>
      </trkpt>
      <trkpt lat="44.91071" lon="6.65248">
        <ele>1789.332392</ele>
        <time>2022-09-04T17:20:00+0200</time>
      </trkpt>
      <trkpt lat="44.91066" lon="6.65241">
        <ele>1786.848641</ele>
        <time>2022-09-04T17:20:02+0200</time>
      </trkpt>
      <trkpt lat="44.9106" lon="6.65234">
        <ele>1786.388493</ele>
        <time>2022-09-04T17:20:04+0200</time>
      </trkpt>
      <trkpt lat="44.91056" lon="6.65228">
        <ele>1785.830529</ele>
        <time>2022-09-04T17:20:05+0200</time>
      </trkpt>
      <trkpt lat="44.91051" lon="6.65223">
        <ele>1784.680456</ele>
        <time>2022-09-04T17:20:06+0200</time>
      </trkpt>
      <trkpt lat="44.91044" lon="6.65218">
        <ele>1782.81184</ele>
        <time>2022-09-04T17:20:08+0200</time>
      </trkpt>
      <trkpt lat="44.9104" lon="6.65214">
        <ele>1780.169746</ele>
        <time>2022-09-04T17:20:11+0200</time>
      </trkpt>
      <trkpt lat="44.91036" lon="6.65204">
        <ele>1777.927624</ele>
        <time>2022-09-04T17:20:13+0200</time>
      </trkpt>
      <trkpt lat="44.91032" lon="6.65199">
        <ele>1777.108218</ele>
        <time>2022-09-04T17:20:14+0200</time>
      </trkpt>
      <trkpt lat="44.9103" lon="6.65188">
        <ele>1775.279304</ele>
        <time>2022-09-04T17:20:16+0200</time>
      </trkpt>
      <trkpt lat="44.91026" lon="6.65195">
        <ele>1774.181662</ele>
        <time>2022-09-04T17:20:19+0200</time>
      </trkpt>
      <trkpt lat="44.91027" lon="6.65202">
        <ele>1773.271556</ele>
        <time>2022-09-04T17:20:20+0200</time>
      </trkpt>
      <trkpt lat="44.91027" lon="6.65209">
        <ele>1772.257829</ele>
        <time>2022-09-04T17:20:21+0200</time>
      </trkpt>
      <trkpt lat="44.91025" lon="6.6522">
        <ele>1771.366102</ele>
        <time>2022-09-04T17:20:23+0200</time>
      </trkpt>
      <trkpt lat="44.91023" lon="6.65231">
        <ele>1769.817751</ele>
        <time>2022-09-04T17:20:25+0200</time>
      </trkpt>
      <trkpt lat="44.91022" lon="6.65238">
        <ele>1767.732314</ele>
        <time>2022-09-04T17:20:27+0200</time>
      </trkpt>
      <trkpt lat="44.91023" lon="6.65246">
        <ele>1766.051602</ele>
        <time>2022-09-04T17:20:29+0200</time>
      </trkpt>
      <trkpt lat="44.91023" lon="6.65257">
        <ele>1763.361429</ele>
        <time>2022-09-04T17:20:31+0200</time>
      </trkpt>
      <trkpt lat="44.91024" lon="6.65267">
        <ele>1760.365262</ele>
        <time>2022-09-04T17:20:33+0200</time>
      </trkpt>
      <trkpt lat="44.91026" lon="6.65274">
        <ele>1759.235155</ele>
        <time>2022-09-04T17:20:34+0200</time>
      </trkpt>
      <trkpt lat="44.91026" lon="6.65282">
        <ele>1756.808707</ele>
        <time>2022-09-04T17:20:35+0200</time>
      </trkpt>
      <trkpt lat="44.91028" lon="6.65295">
        <ele>1754.593145</ele>
        <time>2022-09-04T17:20:36+0200</time>
      </trkpt>
      <trkpt lat="44.91031" lon="6.65306">
        <ele>1752.649524</ele>
        <time>2022-09-04T17:20:37+0200</time>
      </trkpt>
      <trkpt lat="44.91034" lon="6.65315">
        <ele>1751.081354</ele>
        <time>2022-09-04T17:20:38+0200</time>
      </trkpt>
      <trkpt lat="44.91037" lon="6.65323">
        <ele>1749.872081</ele>
        <time>2022-09-04T17:20:39+0200</time>
      </trkpt>
      <trkpt lat="44.9104" lon="6.65335">
        <ele>1748.197853</ele>
        <time>2022-09-04T17:20:40+0200</time>
      </trkpt>
      <trkpt lat="44.91043" lon="6.65344">
        <ele>1747.128619</ele>
        <time>2022-09-04T17:20:41+0200</time>
      </trkpt>
      <trkpt lat="44.91045" lon="6.65352">
        <ele>1746.096833</ele>
        <time>2022-09-04T17:20:42+0200</time>
      </trkpt>
      <trkpt lat="44.91045" lon="6.65362">
        <ele>1744.836335</ele>
        <time>2022-09-04T17:20:43+0200</time>
      </trkpt>
      <trkpt lat="44.91046" lon="6.65373">
        <ele>1742.978006</ele>
        <time>2022-09-04T17:20:44+0200</time>
      </trkpt>
      <trkpt lat="44.91049" lon="6.65383">
        <ele>1741.16791</ele>
        <time>2022-09-04T17:20:45+0200</time>
      </trkpt>
      <trkpt lat="44.91051" lon="6.6539">
        <ele>1739.572649</ele>
        <time>2022-09-04T17:20:46+0200</time>
      </trkpt>
      <trkpt lat="44.91053" lon="6.65398">
        <ele>1738.454869</ele>
        <time>2022-09-04T17:20:47+0200</time>
      </trkpt>
      <trkpt lat="44.91054" lon="6.65405">
        <ele>1737.09442</ele>
        <time>2022-09-04T17:20:48+0200</time>
      </trkpt>
      <trkpt lat="44.91056" lon="6.65414">
        <ele>1733.277475</ele>
        <time>2022-09-04T17:20:50+0200</time>
      </trkpt>
      <trkpt lat="44.9106" lon="6.65424">
        <ele>1730.059294</ele>
        <time>2022-09-04T17:20:52+0200</time>
      </trkpt>
      <trkpt lat="44.91064" lon="6.65427">
        <ele>1729.256336</ele>
        <time>2022-09-04T17:20:53+0200</time>
      </trkpt>
      <trkpt lat="44.91067" lon="6.65436">
        <ele>1729.089245</ele>
        <time>2022-09-04T17:20:54+0200</time>
      </trkpt>
      <trkpt lat="44.91067" lon="6.65447">
        <ele>1728.304111</ele>
        <time>2022-09-04T17:20:55+0200</time>
      </trkpt>
      <trkpt lat="44.91066" lon="6.6546">
        <ele>1727.431312</ele>
        <time>2022-09-04T17:20:56+0200</time>
      </trkpt>
      <trkpt lat="44.91064" lon="6.65469">
        <ele>1725.765041</ele>
        <time>2022-09-04T17:20:57+0200</time>
      </trkpt>
      <trkpt lat="44.91061" lon="6.65476">
        <ele>1724.268277</ele>
        <time>2022-09-04T17:20:58+0200</time>
      </trkpt>
      <trkpt lat="44.9106" lon="6.65485">
        <ele>1720.146545</ele>
        <time>2022-09-04T17:21:01+0200</time>
      </trkpt>
      <trkpt lat="44.91063" lon="6.65492">
        <ele>1718.151237</ele>
        <time>2022-09-04T17:21:03+0200</time>
      </trkpt>
      <trkpt lat="44.91058" lon="6.65495">
        <ele>1714.908084</ele>
        <time>2022-09-04T17:21:07+0200</time>
      </trkpt>
      <trkpt lat="44.91053" lon="6.65492">
        <ele>1714.255083</ele>
        <time>2022-09-04T17:21:09+0200</time>
      </trkpt>
      <trkpt lat="44.91047" lon="6.65485">
        <ele>1713.65579</ele>
        <time>2022-09-04T17:21:11+0200</time>
      </trkpt>
      <trkpt lat="44.91045" lon="6.65478">
        <ele>1712.858655</ele>
        <time>2022-09-04T17:21:12+0200</time>
      </trkpt>
      <trkpt lat="44.91042" lon="6.65473">
        <ele>1711.983024</ele>
        <time>2022-09-04T17:21:13+0200</time>
      </trkpt>
      <trkpt lat="44.9104" lon="6.65463">
        <ele>1711.589608</ele>
        <time>2022-09-04T17:21:15+0200</time>
      </trkpt>
      <trkpt lat="44.91036" lon="6.65457">
        <ele>1711.744765</ele>
        <time>2022-09-04T17:21:16+0200</time>
      </trkpt>
      <trkpt lat="44.91031" lon="6.65453">
        <ele>1712.068184</ele>
        <time>2022-09-04T17:21:17+0200</time>
      </trkpt>
      <trkpt lat="44.91025" lon="6.65449">
        <ele>1711.842978</ele>
        <time>2022-09-04T17:21:19+0200</time>
      </trkpt>
      <trkpt lat="44.91018" lon="6.65443">
        <ele>1711.051796</ele>
        <time>2022-09-04T17:21:21+0200</time>
      </trkpt>
      <trkpt lat="44.91013" lon="6.65436">
        <ele>1709.824205</ele>
        <time>2022-09-04T17:21:23+0200</time>
      </trkpt>
      <trkpt lat="44.91009" lon="6.65432">
        <ele>1709.78719</ele>
        <time>2022-09-04T17:21:24+0200</time>
      </trkpt>
      <trkpt lat="44.91002" lon="6.65428">
        <ele>1707.420938</ele>
        <time>2022-09-04T17:21:27+0200</time>
      </trkpt>
      <trkpt lat="44.90997" lon="6.65426">
        <ele>1707.189702</ele>
        <time>2022-09-04T17:21:28+0200</time>
      </trkpt>
      <trkpt lat="44.90992" lon="6.65417">
        <ele>1705.895343</ele>
        <time>2022-09-04T17:21:30+0200</time>
      </trkpt>
      <trkpt lat="44.90989" lon="6.65411">
        <ele>1705.214007</ele>
        <time>2022-09-04T17:21:31+0200</time>
      </trkpt>
      <trkpt lat="44.90984" lon="6.65404">
        <ele>1704.554197</ele>
        <time>2022-09-04T17:21:32+0200</time>
      </trkpt>
      <trkpt lat="44.90978" lon="6.65395">
        <ele>1703.963439</ele>
        <time>2022-09-04T17:21:33+0200</time>
      </trkpt>
      <trkpt lat="44.90975" lon="6.65389">
        <ele>1702.958516</ele>
        <time>2022-09-04T17:21:34+0200</time>
      </trkpt>
      <trkpt lat="44.90971" lon="6.65382">
        <ele>1701.886554</ele>
        <time>2022-09-04T17:21:35+0200</time>
      </trkpt>
      <trkpt lat="44.90966" lon="6.65374">
        <ele>1701.056103</ele>
        <time>2022-09-04T17:21:36+0200</time>
      </trkpt>
      <trkpt lat="44.90959" lon="6.65366">
        <ele>1698.734597</ele>
        <time>2022-09-04T17:21:37+0200</time>
      </trkpt>
      <trkpt lat="44.90953" lon="6.65361">
        <ele>1696.946462</ele>
        <time>2022-09-04T17:21:38+0200</time>
      </trkpt>
      <trkpt lat="44.90947" lon="6.65356">
        <ele>1694.393732</ele>
        <time>2022-09-04T17:21:39+0200</time>
      </trkpt>
      <trkpt lat="44.90942" lon="6.6535">
        <ele>1692.572968</ele>
        <time>2022-09-04T17:21:40+0200</time>
      </trkpt>
      <trkpt lat="44.90937" lon="6.65344">
        <ele>1691.154166</ele>
        <time>2022-09-04T17:21:41+0200</time>
      </trkpt>
      <trkpt lat="44.90932" lon="6.65336">
        <ele>1687.134037</ele>
        <time>2022-09-04T17:21:43+0200</time>
      </trkpt>
      <trkpt lat="44.90929" lon="6.6533">
        <ele>1683.08026</ele>
        <time>2022-09-04T17:21:46+0200</time>
      </trkpt>
      <trkpt lat="44.90925" lon="6.65326">
        <ele>1680.051567</ele>
        <time>2022-09-04T17:21:51+0200</time>
      </trkpt>
      <trkpt lat="44.90925" lon="6.65336">
        <ele>1678.749083</ele>
        <time>2022-09-04T17:21:59+0200</time>
      </trkpt>
      <trkpt lat="44.90925" lon="6.65347">
        <ele>1677.887792</ele>
        <time>2022-09-04T17:22:01+0200</time>
      </trkpt>
      <trkpt lat="44.90926" lon="6.65356">
        <ele>1677.359964</ele>
        <time>2022-09-04T17:22:02+0200</time>
      </trkpt>
      <trkpt lat="44.90928" lon="6.65362">
        <ele>1676.448301</ele>
        <time>2022-09-04T17:22:03+0200</time>
      </trkpt>
      <trkpt lat="44.9093" lon="6.65374">
        <ele>1675.742181</ele>
        <time>2022-09-04T17:22:05+0200</time>
      </trkpt>
      <trkpt lat="44.90927" lon="6.6538">
        <ele>1675.172285</ele>
        <time>2022-09-04T17:22:08+0200</time>
      </trkpt>
      <trkpt lat="44.90925" lon="6.65372">
        <ele>1672.434043</ele>
        <time>2022-09-04T17:22:11+0200</time>
      </trkpt>
      <trkpt lat="44.9092" lon="6.65367">
        <ele>1670.450406</ele>
        <time>2022-09-04T17:22:13+0200</time>
      </trkpt>
      <trkpt lat="44.90915" lon="6.65363">
        <ele>1668.754456</ele>
        <time>2022-09-04T17:22:15+0200</time>
      </trkpt>
      <trkpt lat="44.9091" lon="6.65355">
        <ele>1664.924733</ele>
        <time>2022-09-04T17:22:18+0200</time>
      </trkpt>
      <trkpt lat="44.90904" lon="6.65347">
        <ele>1661.767866</ele>
        <time>2022-09-04T17:22:20+0200</time>
      </trkpt>
      <trkpt lat="44.90901" lon="6.6534">
        <ele>1659.890556</ele>
        <time>2022-09-04T17:22:21+0200</time>
      </trkpt>
      <trkpt lat="44.90897" lon="6.6533">
        <ele>1657.361803</ele>
        <time>2022-09-04T17:22:23+0200</time>
      </trkpt>
      <trkpt lat="44.90894" lon="6.65324">
        <ele>1656.665078</ele>
        <time>2022-09-04T17:22:24+0200</time>
      </trkpt>
      <trkpt lat="44.9089" lon="6.65315">
        <ele>1655.75631</ele>
        <time>2022-09-04T17:22:26+0200</time>
      </trkpt>
      <trkpt lat="44.90884" lon="6.65308">
        <ele>1654.80992</ele>
        <time>2022-09-04T17:22:27+0200</time>
      </trkpt>
      <trkpt lat="44.9088" lon="6.65301">
        <ele>1653.732888</ele>
        <time>2022-09-04T17:22:28+0200</time>
      </trkpt>
      <trkpt lat="44.90877" lon="6.65294">
        <ele>1652.602578</ele>
        <time>2022-09-04T17:22:29+0200</time>
      </trkpt>
      <trkpt lat="44.90875" lon="6.65302">
        <ele>1648.21799</ele>
        <time>2022-09-04T17:22:35+0200</time>
      </trkpt>
      <trkpt lat="44.90874" lon="6.65308">
        <ele>1646.739904</ele>
        <time>2022-09-04T17:22:37+0200</time>
      </trkpt>
      <trkpt lat="44.90877" lon="6.65316">
        <ele>1645.667958</ele>
        <time>2022-09-04T17:22:43+0200</time>
      </trkpt>
      <trkpt lat="44.90877" lon="6.65324">
        <ele>1644.436434</ele>
        <time>2022-09-04T17:22:45+0200</time>
      </trkpt>
      <trkpt lat="44.90877" lon="6.65335">
        <ele>1643.001413</ele>
        <time>2022-09-04T17:22:47+0200</time>
      </trkpt>
      <trkpt lat="44.90878" lon="6.65348">
        <ele>1641.575876</ele>
        <time>2022-09-04T17:22:49+0200</time>
      </trkpt>
      <trkpt lat="44.90876" lon="6.65354">
        <ele>1639.402844</ele>
        <time>2022-09-04T17:22:51+0200</time>
      </trkpt>
      <trkpt lat="44.90871" lon="6.65347">
        <ele>1638.327925</ele>
        <time>2022-09-04T17:22:53+0200</time>
      </trkpt>
      <trkpt lat="44.90868" lon="6.65336">
        <ele>1635.591728</ele>
        <time>2022-09-04T17:22:55+0200</time>
      </trkpt>
      <trkpt lat="44.90863" lon="6.65331">
        <ele>1633.472366</ele>
        <time>2022-09-04T17:22:57+0200</time>
      </trkpt>
      <trkpt lat="44.90859" lon="6.65324">
        <ele>1631.984391</ele>
        <time>2022-09-04T17:22:59+0200</time>
      </trkpt>
      <trkpt lat="44.90855" lon="6.65315">
        <ele>1630.902307</ele>
        <time>2022-09-04T17:23:01+0200</time>
      </trkpt>
      <trkpt lat="44.90851" lon="6.65309">
        <ele>1630.714722</ele>
        <time>2022-09-04T17:23:02+0200</time>
      </trkpt>
      <trkpt lat="44.90845" lon="6.65302">
        <ele>1627.955184</ele>
        <time>2022-09-04T17:23:04+0200</time>
      </trkpt>
      <trkpt lat="44.90842" lon="6.65296">
        <ele>1625.06112</ele>
        <time>2022-09-04T17:23:07+0200</time>
      </trkpt>
      <trkpt lat="44.90838" lon="6.65303">
        <ele>1622.003703</ele>
        <time>2022-09-04T17:23:12+0200</time>
      </trkpt>
      <trkpt lat="44.90841" lon="6.65308">
        <ele>1621.242602</ele>
        <time>2022-09-04T17:23:13+0200</time>
      </trkpt>
      <trkpt lat="44.90843" lon="6.65314">
        <ele>1620.866751</ele>
        <time>2022-09-04T17:23:14+0200</time>
      </trkpt>
      <trkpt lat="44.90845" lon="6.65321">
        <ele>1620.158536</ele>
        <time>2022-09-04T17:23:15+0200</time>
      </trkpt>
      <trkpt lat="44.90845" lon="6.6533">
        <ele>1620.177881</ele>
        <time>2022-09-04T17:23:16+0200</time>
      </trkpt>
      <trkpt lat="44.90845" lon="6.65337">
        <ele>1619.161301</ele>
        <time>2022-09-04T17:23:17+0200</time>
      </trkpt>
      <trkpt lat="44.90841" lon="6.65349">
        <ele>1614.633994</ele>
        <time>2022-09-04T17:23:20+0200</time>
      </trkpt>
      <trkpt lat="44.90843" lon="6.65361">
        <ele>1608.742207</ele>
        <time>2022-09-04T17:23:22+0200</time>
      </trkpt>
      <trkpt lat="44.90848" lon="6.65369">
        <ele>1605.58256</ele>
        <time>2022-09-04T17:23:24+0200</time>
      </trkpt>
      <trkpt lat="44.90851" lon="6.65375">
        <ele>1605.24695</ele>
        <time>2022-09-04T17:23:26+0200</time>
      </trkpt>
      <trkpt lat="44.90855" lon="6.65383">
        <ele>1605.573324</ele>
        <time>2022-09-04T17:23:28+0200</time>
      </trkpt>
      <trkpt lat="44.90853" lon="6.65397">
        <ele>1605.586777</ele>
        <time>2022-09-04T17:23:30+0200</time>
      </trkpt>
      <trkpt lat="44.90852" lon="6.65404">
        <ele>1604.975918</ele>
        <time>2022-09-04T17:23:31+0200</time>
      </trkpt>
      <trkpt lat="44.90852" lon="6.65411">
        <ele>1604.230125</ele>
        <time>2022-09-04T17:23:32+0200</time>
      </trkpt>
      <trkpt lat="44.90852" lon="6.65423">
        <ele>1601.581045</ele>
        <time>2022-09-04T17:23:34+0200</time>
      </trkpt>
      <trkpt lat="44.90852" lon="6.65431">
        <ele>1599.66909</ele>
        <time>2022-09-04T17:23:35+0200</time>
      </trkpt>
      <trkpt lat="44.90851" lon="6.65441">
        <ele>1597.862984</ele>
        <time>2022-09-04T17:23:36+0200</time>
      </trkpt>
      <trkpt lat="44.90851" lon="6.65453">
        <ele>1595.012533</ele>
        <time>2022-09-04T17:23:38+0200</time>
      </trkpt>
      <trkpt lat="44.90851" lon="6.65464">
        <ele>1591.190414</ele>
        <time>2022-09-04T17:23:40+0200</time>
      </trkpt>
      <trkpt lat="44.90853" lon="6.65472">
        <ele>1589.36216</ele>
        <time>2022-09-04T17:23:41+0200</time>
      </trkpt>
      <trkpt lat="44.90855" lon="6.65482">
        <ele>1587.45045</ele>
        <time>2022-09-04T17:23:42+0200</time>
      </trkpt>
      <trkpt lat="44.90858" lon="6.65493">
        <ele>1585.429342</ele>
        <time>2022-09-04T17:23:43+0200</time>
      </trkpt>
      <trkpt lat="44.90861" lon="6.655">
        <ele>1584.255362</ele>
        <time>2022-09-04T17:23:44+0200</time>
      </trkpt>
      <trkpt lat="44.90864" lon="6.65506">
        <ele>1582.728491</ele>
        <time>2022-09-04T17:23:46+0200</time>
      </trkpt>
      <trkpt lat="44.90857" lon="6.65504">
        <ele>1580.664704</ele>
        <time>2022-09-04T17:23:49+0200</time>
      </trkpt>
      <trkpt lat="44.90853" lon="6.65499">
        <ele>1580.023233</ele>
        <time>2022-09-04T17:23:50+0200</time>
      </trkpt>
      <trkpt lat="44.90849" lon="6.65494">
        <ele>1579.703104</ele>
        <time>2022-09-04T17:23:51+0200</time>
      </trkpt>
      <trkpt lat="44.90845" lon="6.65488">
        <ele>1579.533251</ele>
        <time>2022-09-04T17:23:52+0200</time>
      </trkpt>
      <trkpt lat="44.9084" lon="6.65482">
        <ele>1578.998995</ele>
        <time>2022-09-04T17:23:53+0200</time>
      </trkpt>
      <trkpt lat="44.90837" lon="6.65477">
        <ele>1578.640033</ele>
        <time>2022-09-04T17:23:54+0200</time>
      </trkpt>
      <trkpt lat="44.90829" lon="6.65467">
        <ele>1575.810586</ele>
        <time>2022-09-04T17:23:56+0200</time>
      </trkpt>
      <trkpt lat="44.90823" lon="6.65456">
        <ele>1574.278048</ele>
        <time>2022-09-04T17:23:58+0200</time>
      </trkpt>
      <trkpt lat="44.90821" lon="6.65448">
        <ele>1573.202652</ele>
        <time>2022-09-04T17:23:59+0200</time>
      </trkpt>
      <trkpt lat="44.90818" lon="6.65438">
        <ele>1572.91959</ele>
        <time>2022-09-04T17:24:00+0200</time>
      </trkpt>
      <trkpt lat="44.90818" lon="6.65431">
        <ele>1572.328069</ele>
        <time>2022-09-04T17:24:01+0200</time>
      </trkpt>
      <trkpt lat="44.90818" lon="6.65423">
        <ele>1571.955078</ele>
        <time>2022-09-04T17:24:02+0200</time>
      </trkpt>
      <trkpt lat="44.90811" lon="6.65425">
        <ele>1572.069634</ele>
        <time>2022-09-04T17:24:04+0200</time>
      </trkpt>
      <trkpt lat="44.90804" lon="6.65422">
        <ele>1570.783808</ele>
        <time>2022-09-04T17:24:06+0200</time>
      </trkpt>
      <trkpt lat="44.90799" lon="6.65419">
        <ele>1569.808185</ele>
        <time>2022-09-04T17:24:07+0200</time>
      </trkpt>
      <trkpt lat="44.90793" lon="6.65416">
        <ele>1568.902725</ele>
        <time>2022-09-04T17:24:08+0200</time>
      </trkpt>
      <trkpt lat="44.90788" lon="6.65412">
        <ele>1568.049561</ele>
        <time>2022-09-04T17:24:09+0200</time>
      </trkpt>
      <trkpt lat="44.90779" lon="6.65406">
        <ele>1565.007618</ele>
        <time>2022-09-04T17:24:11+0200</time>
      </trkpt>
      <trkpt lat="44.90777" lon="6.65398">
        <ele>1563.063531</ele>
        <time>2022-09-04T17:24:13+0200</time>
      </trkpt>
      <trkpt lat="44.90775" lon="6.6539">
        <ele>1560.724172</ele>
        <time>2022-09-04T17:24:15+0200</time>
      </trkpt>
      <trkpt lat="44.90773" lon="6.65384">
        <ele>1559.713886</ele>
        <time>2022-09-04T17:24:16+0200</time>
      </trkpt>
      <trkpt lat="44.90773" lon="6.65377">
        <ele>1559.038938</ele>
        <time>2022-09-04T17:24:17+0200</time>
      </trkpt>
      <trkpt lat="44.90774" lon="6.65367">
        <ele>1558.171444</ele>
        <time>2022-09-04T17:24:19+0200</time>
      </trkpt>
      <trkpt lat="44.90775" lon="6.65358">
        <ele>1558.064752</ele>
        <time>2022-09-04T17:24:21+0200</time>
      </trkpt>
      <trkpt lat="44.90773" lon="6.65351">
        <ele>1557.818925</ele>
        <time>2022-09-04T17:24:22+0200</time>
      </trkpt>
      <trkpt lat="44.90771" lon="6.65344">
        <ele>1558.209435</ele>
        <time>2022-09-04T17:24:23+0200</time>
      </trkpt>
      <trkpt lat="44.90767" lon="6.65337">
        <ele>1558.831858</ele>
        <time>2022-09-04T17:24:24+0200</time>
      </trkpt>
      <trkpt lat="44.90765" lon="6.65329">
        <ele>1558.838907</ele>
        <time>2022-09-04T17:24:25+0200</time>
      </trkpt>
      <trkpt lat="44.9076" lon="6.65321">
        <ele>1559.187105</ele>
        <time>2022-09-04T17:24:26+0200</time>
      </trkpt>
      <trkpt lat="44.90757" lon="6.65315">
        <ele>1558.913258</ele>
        <time>2022-09-04T17:24:27+0200</time>
      </trkpt>
      <trkpt lat="44.90757" lon="6.65308">
        <ele>1558.395786</ele>
        <time>2022-09-04T17:24:28+0200</time>
      </trkpt>
      <trkpt lat="44.90755" lon="6.65299">
        <ele>1557.863486</ele>
        <time>2022-09-04T17:24:29+0200</time>
      </trkpt>
      <trkpt lat="44.90756" lon="6.65289">
        <ele>1557.373931</ele>
        <time>2022-09-04T17:24:30+0200</time>
      </trkpt>
      <trkpt lat="44.90757" lon="6.6528">
        <ele>1557.380289</ele>
        <time>2022-09-04T17:24:31+0200</time>
      </trkpt>
      <trkpt lat="44.90752" lon="6.65275">
        <ele>1555.817499</ele>
        <time>2022-09-04T17:24:33+0200</time>
      </trkpt>
      <trkpt lat="44.90747" lon="6.65277">
        <ele>1555.635676</ele>
        <time>2022-09-04T17:24:34+0200</time>
      </trkpt>
      <trkpt lat="44.90742" lon="6.65277">
        <ele>1554.982797</ele>
        <time>2022-09-04T17:24:35+0200</time>
      </trkpt>
      <trkpt lat="44.90735" lon="6.65274">
        <ele>1553.105392</ele>
        <time>2022-09-04T17:24:36+0200</time>
      </trkpt>
      <trkpt lat="44.90731" lon="6.65273">
        <ele>1549.253158</ele>
        <time>2022-09-04T17:24:37+0200</time>
      </trkpt>
      <trkpt lat="44.90724" lon="6.65276">
        <ele>1546.677294</ele>
        <time>2022-09-04T17:24:38+0200</time>
      </trkpt>
      <trkpt lat="44.90717" lon="6.65277">
        <ele>1545.164185</ele>
        <time>2022-09-04T17:24:39+0200</time>
      </trkpt>
      <trkpt lat="44.90712" lon="6.65275">
        <ele>1540.395113</ele>
        <time>2022-09-04T17:24:40+0200</time>
      </trkpt>
      <trkpt lat="44.90706" lon="6.65271">
        <ele>1537.510676</ele>
        <time>2022-09-04T17:24:41+0200</time>
      </trkpt>
      <trkpt lat="44.907" lon="6.65267">
        <ele>1535.769545</ele>
        <time>2022-09-04T17:24:42+0200</time>
      </trkpt>
      <trkpt lat="44.90695" lon="6.65259">
        <ele>1533.608124</ele>
        <time>2022-09-04T17:24:44+0200</time>
      </trkpt>
      <trkpt lat="44.90689" lon="6.65254">
        <ele>1532.551023</ele>
        <time>2022-09-04T17:24:47+0200</time>
      </trkpt>
      <trkpt lat="44.90685" lon="6.65251">
        <ele>1532.237451</ele>
        <time>2022-09-04T17:24:49+0200</time>
      </trkpt>
      <trkpt lat="44.90678" lon="6.65248">
        <ele>1531.356867</ele>
        <time>2022-09-04T17:24:51+0200</time>
      </trkpt>
      <trkpt lat="44.90671" lon="6.65247">
        <ele>1530.072627</ele>
        <time>2022-09-04T17:24:53+0200</time>
      </trkpt>
      <trkpt lat="44.90664" lon="6.65245">
        <ele>1528.180675</ele>
        <time>2022-09-04T17:24:55+0200</time>
      </trkpt>
      <trkpt lat="44.90656" lon="6.65242">
        <ele>1526.121771</ele>
        <time>2022-09-04T17:24:57+0200</time>
      </trkpt>
      <trkpt lat="44.9065" lon="6.6524">
        <ele>1523.732422</ele>
        <time>2022-09-04T17:24:59+0200</time>
      </trkpt>
      <trkpt lat="44.90645" lon="6.65236">
        <ele>1522.174272</ele>
        <time>2022-09-04T17:25:00+0200</time>
      </trkpt>
      <trkpt lat="44.90641" lon="6.65233">
        <ele>1520.77802</ele>
        <time>2022-09-04T17:25:01+0200</time>
      </trkpt>
      <trkpt lat="44.90637" lon="6.65226">
        <ele>1518.883218</ele>
        <time>2022-09-04T17:25:03+0200</time>
      </trkpt>
      <trkpt lat="44.90633" lon="6.65224">
        <ele>1518.815339</ele>
        <time>2022-09-04T17:25:04+0200</time>
      </trkpt>
      <trkpt lat="44.90625" lon="6.6522">
        <ele>1516.955002</ele>
        <time>2022-09-04T17:25:06+0200</time>
      </trkpt>
      <trkpt lat="44.90621" lon="6.65216">
        <ele>1515.516721</ele>
        <time>2022-09-04T17:25:07+0200</time>
      </trkpt>
      <trkpt lat="44.90614" lon="6.65211">
        <ele>1513.111514</ele>
        <time>2022-09-04T17:25:09+0200</time>
      </trkpt>
      <trkpt lat="44.90609" lon="6.65209">
        <ele>1511.991832</ele>
        <time>2022-09-04T17:25:12+0200</time>
      </trkpt>
      <trkpt lat="44.90601" lon="6.65205">
        <ele>1510.528335</ele>
        <time>2022-09-04T17:25:15+0200</time>
      </trkpt>
      <trkpt lat="44.90595" lon="6.65199">
        <ele>1508.99925</ele>
        <time>2022-09-04T17:25:18+0200</time>
      </trkpt>
      <trkpt lat="44.90591" lon="6.65194">
        <ele>1507.843231</ele>
        <time>2022-09-04T17:25:20+0200</time>
      </trkpt>
      <trkpt lat="44.90587" lon="6.65189">
        <ele>1507.007779</ele>
        <time>2022-09-04T17:25:22+0200</time>
      </trkpt>
      <trkpt lat="44.90586" lon="6.65183">
        <ele>1505.190269</ele>
        <time>2022-09-04T17:25:24+0200</time>
      </trkpt>
      <trkpt lat="44.9058" lon="6.65179">
        <ele>1503.786453</ele>
        <time>2022-09-04T17:25:27+0200</time>
      </trkpt>
      <trkpt lat="44.90576" lon="6.65173">
        <ele>1501.416639</ele>
        <time>2022-09-04T17:25:30+0200</time>
      </trkpt>
      <trkpt lat="44.90573" lon="6.65167">
        <ele>1500.329105</ele>
        <time>2022-09-04T17:25:32+0200</time>
      </trkpt>
      <trkpt lat="44.9057" lon="6.65162">
        <ele>1499.816292</ele>
        <time>2022-09-04T17:25:34+0200</time>
      </trkpt>
      <trkpt lat="44.90566" lon="6.65157">
        <ele>1498.287702</ele>
        <time>2022-09-04T17:25:36+0200</time>
      </trkpt>
      <trkpt lat="44.90562" lon="6.65153">
        <ele>1497.351898</ele>
        <time>2022-09-04T17:25:38+0200</time>
      </trkpt>
      <trkpt lat="44.9056" lon="6.65146">
        <ele>1495.694455</ele>
        <time>2022-09-04T17:25:40+0200</time>
      </trkpt>
      <trkpt lat="44.90556" lon="6.65139">
        <ele>1493.766445</ele>
        <time>2022-09-04T17:25:42+0200</time>
      </trkpt>
      <trkpt lat="44.90555" lon="6.65132">
        <ele>1491.823959</ele>
        <time>2022-09-04T17:25:44+0200</time>
      </trkpt>
      <trkpt lat="44.90554" lon="6.65123">
        <ele>1489.911772</ele>
        <time>2022-09-04T17:25:47+0200</time>
      </trkpt>
      <trkpt lat="44.90551" lon="6.65114">
        <ele>1489.359501</ele>
        <time>2022-09-04T17:25:49+0200</time>
      </trkpt>
      <trkpt lat="44.9055" lon="6.65105">
        <ele>1487.001412</ele>
        <time>2022-09-04T17:25:51+0200</time>
      </trkpt>
      <trkpt lat="44.90551" lon="6.65094">
        <ele>1484.773661</ele>
        <time>2022-09-04T17:25:54+0200</time>
      </trkpt>
      <trkpt lat="44.90552" lon="6.65086">
        <ele>1483.91501</ele>
        <time>2022-09-04T17:25:56+0200</time>
      </trkpt>
      <trkpt lat="44.90549" lon="6.65076">
        <ele>1484.013572</ele>
        <time>2022-09-04T17:25:58+0200</time>
      </trkpt>
      <trkpt lat="44.90549" lon="6.65063">
        <ele>1482.837107</ele>
        <time>2022-09-04T17:26:00+0200</time>
      </trkpt>
      <trkpt lat="44.90549" lon="6.65056">
        <ele>1480.559817</ele>
        <time>2022-09-04T17:26:02+0200</time>
      </trkpt>
      <trkpt lat="44.90548" lon="6.65049">
        <ele>1477.383917</ele>
        <time>2022-09-04T17:26:05+0200</time>
      </trkpt>
      <trkpt lat="44.90544" lon="6.65052">
        <ele>1473.394372</ele>
        <time>2022-09-04T17:26:18+0200</time>
      </trkpt>
      <trkpt lat="44.9054" lon="6.65061">
        <ele>1471.922336</ele>
        <time>2022-09-04T17:26:22+0200</time>
      </trkpt>
      <trkpt lat="44.90536" lon="6.65068">
        <ele>1471.648854</ele>
        <time>2022-09-04T17:26:25+0200</time>
      </trkpt>
      <trkpt lat="44.90534" lon="6.65075">
        <ele>1471.071835</ele>
        <time>2022-09-04T17:26:27+0200</time>
      </trkpt>
      <trkpt lat="44.90529" lon="6.65081">
        <ele>1468.855936</ele>
        <time>2022-09-04T17:26:30+0200</time>
      </trkpt>
      <trkpt lat="44.90524" lon="6.65086">
        <ele>1467.524171</ele>
        <time>2022-09-04T17:26:33+0200</time>
      </trkpt>
      <trkpt lat="44.90518" lon="6.65089">
        <ele>1466.247317</ele>
        <time>2022-09-04T17:26:35+0200</time>
      </trkpt>
      <trkpt lat="44.90513" lon="6.65091">
        <ele>1464.092178</ele>
        <time>2022-09-04T17:26:37+0200</time>
      </trkpt>
      <trkpt lat="44.90508" lon="6.65091">
        <ele>1463.290136</ele>
        <time>2022-09-04T17:26:38+0200</time>
      </trkpt>
      <trkpt lat="44.90501" lon="6.65094">
        <ele>1461.15048</ele>
        <time>2022-09-04T17:26:40+0200</time>
      </trkpt>
      <trkpt lat="44.90496" lon="6.65096">
        <ele>1459.660879</ele>
        <time>2022-09-04T17:26:41+0200</time>
      </trkpt>
      <trkpt lat="44.90491" lon="6.65094">
        <ele>1457.538694</ele>
        <time>2022-09-04T17:26:43+0200</time>
      </trkpt>
      <trkpt lat="44.90495" lon="6.65089">
        <ele>1453.619839</ele>
        <time>2022-09-04T17:26:47+0200</time>
      </trkpt>
      <trkpt lat="44.90503" lon="6.65084">
        <ele>1453.073511</ele>
        <time>2022-09-04T17:26:49+0200</time>
      </trkpt>
      <trkpt lat="44.90509" lon="6.65075">
        <ele>1450.438352</ele>
        <time>2022-09-04T17:26:51+0200</time>
      </trkpt>
      <trkpt lat="44.90513" lon="6.65068">
        <ele>1449.827309</ele>
        <time>2022-09-04T17:26:52+0200</time>
      </trkpt>
      <trkpt lat="44.90516" lon="6.65059">
        <ele>1449.874495</ele>
        <time>2022-09-04T17:26:53+0200</time>
      </trkpt>
      <trkpt lat="44.90519" lon="6.6505">
        <ele>1449.496062</ele>
        <time>2022-09-04T17:26:54+0200</time>
      </trkpt>
      <trkpt lat="44.90523" lon="6.6504">
        <ele>1449.772159</ele>
        <time>2022-09-04T17:26:55+0200</time>
      </trkpt>
      <trkpt lat="44.90526" lon="6.65029">
        <ele>1450.38343</ele>
        <time>2022-09-04T17:26:56+0200</time>
      </trkpt>
      <trkpt lat="44.9053" lon="6.65018">
        <ele>1450.972216</ele>
        <time>2022-09-04T17:26:57+0200</time>
      </trkpt>
      <trkpt lat="44.90535" lon="6.65006">
        <ele>1450.926565</ele>
        <time>2022-09-04T17:26:58+0200</time>
      </trkpt>
      <trkpt lat="44.90537" lon="6.64995">
        <ele>1451.82772</ele>
        <time>2022-09-04T17:26:59+0200</time>
      </trkpt>
      <trkpt lat="44.90539" lon="6.64985">
        <ele>1453.446945</ele>
        <time>2022-09-04T17:27:00+0200</time>
      </trkpt>
      <trkpt lat="44.90537" lon="6.64976">
        <ele>1454.760219</ele>
        <time>2022-09-04T17:27:01+0200</time>
      </trkpt>
      <trkpt lat="44.90533" lon="6.64967">
        <ele>1455.36669</ele>
        <time>2022-09-04T17:27:02+0200</time>
      </trkpt>
      <trkpt lat="44.90529" lon="6.64959">
        <ele>1455.072785</ele>
        <time>2022-09-04T17:27:03+0200</time>
      </trkpt>
      <trkpt lat="44.90522" lon="6.64951">
        <ele>1454.129528</ele>
        <time>2022-09-04T17:27:04+0200</time>
      </trkpt>
      <trkpt lat="44.90516" lon="6.64941">
        <ele>1451.692013</ele>
        <time>2022-09-04T17:27:05+0200</time>
      </trkpt>
      <trkpt lat="44.90513" lon="6.6493">
        <ele>1448.638089</ele>
        <time>2022-09-04T17:27:06+0200</time>
      </trkpt>
      <trkpt lat="44.90511" lon="6.6492">
        <ele>1445.774191</ele>
        <time>2022-09-04T17:27:07+0200</time>
      </trkpt>
      <trkpt lat="44.90509" lon="6.64912">
        <ele>1443.243093</ele>
        <time>2022-09-04T17:27:08+0200</time>
      </trkpt>
      <trkpt lat="44.90506" lon="6.64907">
        <ele>1440.885443</ele>
        <time>2022-09-04T17:27:09+0200</time>
      </trkpt>
      <trkpt lat="44.90504" lon="6.64899">
        <ele>1438.73953</ele>
        <time>2022-09-04T17:27:10+0200</time>
      </trkpt>
      <trkpt lat="44.90503" lon="6.64889">
        <ele>1437.295657</ele>
        <time>2022-09-04T17:27:11+0200</time>
      </trkpt>
      <trkpt lat="44.90498" lon="6.64876">
        <ele>1435.83895</ele>
        <time>2022-09-04T17:27:12+0200</time>
      </trkpt>
      <trkpt lat="44.90492" lon="6.64862">
        <ele>1434.515417</ele>
        <time>2022-09-04T17:27:13+0200</time>
      </trkpt>
      <trkpt lat="44.90489" lon="6.64849">
        <ele>1431.412258</ele>
        <time>2022-09-04T17:27:14+0200</time>
      </trkpt>
      <trkpt lat="44.90485" lon="6.64838">
        <ele>1429.437916</ele>
        <time>2022-09-04T17:27:15+0200</time>
      </trkpt>
      <trkpt lat="44.90481" lon="6.64828">
        <ele>1427.861588</ele>
        <time>2022-09-04T17:27:16+0200</time>
      </trkpt>
      <trkpt lat="44.90478" lon="6.64818">
        <ele>1425.408454</ele>
        <time>2022-09-04T17:27:17+0200</time>
      </trkpt>
      <trkpt lat="44.90476" lon="6.64805">
        <ele>1422.933611</ele>
        <time>2022-09-04T17:27:18+0200</time>
      </trkpt>
      <trkpt lat="44.90474" lon="6.6479">
        <ele>1421.354159</ele>
        <time>2022-09-04T17:27:19+0200</time>
      </trkpt>
      <trkpt lat="44.90473" lon="6.64779">
        <ele>1419.74225</ele>
        <time>2022-09-04T17:27:20+0200</time>
      </trkpt>
      <trkpt lat="44.90473" lon="6.64767">
        <ele>1418.262909</ele>
        <time>2022-09-04T17:27:21+0200</time>
      </trkpt>
      <trkpt lat="44.90473" lon="6.64758">
        <ele>1416.815635</ele>
        <time>2022-09-04T17:27:22+0200</time>
      </trkpt>
      <trkpt lat="44.90474" lon="6.64749">
        <ele>1415.763648</ele>
        <time>2022-09-04T17:27:23+0200</time>
      </trkpt>
      <trkpt lat="44.90474" lon="6.64741">
        <ele>1413.473492</ele>
        <time>2022-09-04T17:27:25+0200</time>
      </trkpt>
      <trkpt lat="44.9047" lon="6.64741">
        <ele>1411.658376</ele>
        <time>2022-09-04T17:27:28+0200</time>
      </trkpt>
      <trkpt lat="44.90469" lon="6.64749">
        <ele>1410.027957</ele>
        <time>2022-09-04T17:27:30+0200</time>
      </trkpt>
      <trkpt lat="44.90466" lon="6.6476">
        <ele>1408.991299</ele>
        <time>2022-09-04T17:27:32+0200</time>
      </trkpt>
      <trkpt lat="44.90464" lon="6.64766">
        <ele>1408.799893</ele>
        <time>2022-09-04T17:27:33+0200</time>
      </trkpt>
      <trkpt lat="44.90462" lon="6.64772">
        <ele>1408.908375</ele>
        <time>2022-09-04T17:27:34+0200</time>
      </trkpt>
      <trkpt lat="44.90462" lon="6.64779">
        <ele>1408.985118</ele>
        <time>2022-09-04T17:27:35+0200</time>
      </trkpt>
      <trkpt lat="44.90462" lon="6.64786">
        <ele>1408.467672</ele>
        <time>2022-09-04T17:27:36+0200</time>
      </trkpt>
      <trkpt lat="44.90458" lon="6.64794">
        <ele>1407.723133</ele>
        <time>2022-09-04T17:27:38+0200</time>
      </trkpt>
      <trkpt lat="44.90453" lon="6.64792">
        <ele>1406.805504</ele>
        <time>2022-09-04T17:27:40+0200</time>
      </trkpt>
      <trkpt lat="44.90451" lon="6.64783">
        <ele>1405.295444</ele>
        <time>2022-09-04T17:27:43+0200</time>
      </trkpt>
      <trkpt lat="44.90451" lon="6.64776">
        <ele>1404.872341</ele>
        <time>2022-09-04T17:27:45+0200</time>
      </trkpt>
      <trkpt lat="44.90447" lon="6.64768">
        <ele>1404.271194</ele>
        <time>2022-09-04T17:27:47+0200</time>
      </trkpt>
      <trkpt lat="44.90447" lon="6.64762">
        <ele>1404.220875</ele>
        <time>2022-09-04T17:27:48+0200</time>
      </trkpt>
      <trkpt lat="44.90447" lon="6.64755">
        <ele>1403.258235</ele>
        <time>2022-09-04T17:27:49+0200</time>
      </trkpt>
      <trkpt lat="44.90443" lon="6.64757">
        <ele>1399.650324</ele>
        <time>2022-09-04T17:27:55+0200</time>
      </trkpt>
      <trkpt lat="44.90442" lon="6.64765">
        <ele>1398.757602</ele>
        <time>2022-09-04T17:27:57+0200</time>
      </trkpt>
      <trkpt lat="44.90439" lon="6.64777">
        <ele>1395.960053</ele>
        <time>2022-09-04T17:27:59+0200</time>
      </trkpt>
      <trkpt lat="44.90437" lon="6.64785">
        <ele>1395.643843</ele>
        <time>2022-09-04T17:28:00+0200</time>
      </trkpt>
      <trkpt lat="44.90434" lon="6.64793">
        <ele>1395.541903</ele>
        <time>2022-09-04T17:28:01+0200</time>
      </trkpt>
      <trkpt lat="44.9043" lon="6.64799">
        <ele>1395.221028</ele>
        <time>2022-09-04T17:28:02+0200</time>
      </trkpt>
      <trkpt lat="44.90429" lon="6.64808">
        <ele>1393.975257</ele>
        <time>2022-09-04T17:28:04+0200</time>
      </trkpt>
      <trkpt lat="44.90426" lon="6.64816">
        <ele>1393.181008</ele>
        <time>2022-09-04T17:28:06+0200</time>
      </trkpt>
      <trkpt lat="44.90421" lon="6.64813">
        <ele>1392.489375</ele>
        <time>2022-09-04T17:28:08+0200</time>
      </trkpt>
      <trkpt lat="44.90421" lon="6.64806">
        <ele>1391.837899</ele>
        <time>2022-09-04T17:28:10+0200</time>
      </trkpt>
      <trkpt lat="44.9042" lon="6.64793">
        <ele>1390.836578</ele>
        <time>2022-09-04T17:28:12+0200</time>
      </trkpt>
      <trkpt lat="44.90418" lon="6.64783">
        <ele>1390.493406</ele>
        <time>2022-09-04T17:28:13+0200</time>
      </trkpt>
      <trkpt lat="44.90416" lon="6.64771">
        <ele>1389.58515</ele>
        <time>2022-09-04T17:28:14+0200</time>
      </trkpt>
      <trkpt lat="44.90415" lon="6.64761">
        <ele>1388.06081</ele>
        <time>2022-09-04T17:28:15+0200</time>
      </trkpt>
      <trkpt lat="44.90412" lon="6.64751">
        <ele>1386.27887</ele>
        <time>2022-09-04T17:28:16+0200</time>
      </trkpt>
      <trkpt lat="44.90409" lon="6.64742">
        <ele>1384.421695</ele>
        <time>2022-09-04T17:28:17+0200</time>
      </trkpt>
      <trkpt lat="44.90408" lon="6.64735">
        <ele>1382.548573</ele>
        <time>2022-09-04T17:28:18+0200</time>
      </trkpt>
      <trkpt lat="44.90407" lon="6.64725">
        <ele>1380.829973</ele>
        <time>2022-09-04T17:28:19+0200</time>
      </trkpt>
      <trkpt lat="44.90404" lon="6.64715">
        <ele>1379.509716</ele>
        <time>2022-09-04T17:28:20+0200</time>
      </trkpt>
      <trkpt lat="44.90401" lon="6.64704">
        <ele>1378.210178</ele>
        <time>2022-09-04T17:28:21+0200</time>
      </trkpt>
      <trkpt lat="44.90398" lon="6.64696">
        <ele>1377.188389</ele>
        <time>2022-09-04T17:28:22+0200</time>
      </trkpt>
      <trkpt lat="44.90396" lon="6.6469">
        <ele>1375.635085</ele>
        <time>2022-09-04T17:28:23+0200</time>
      </trkpt>
      <trkpt lat="44.90394" lon="6.64684">
        <ele>1374.252568</ele>
        <time>2022-09-04T17:28:24+0200</time>
      </trkpt>
      <trkpt lat="44.90389" lon="6.64675">
        <ele>1371.984246</ele>
        <time>2022-09-04T17:28:26+0200</time>
      </trkpt>
      <trkpt lat="44.90385" lon="6.64665">
        <ele>1369.894949</ele>
        <time>2022-09-04T17:28:28+0200</time>
      </trkpt>
      <trkpt lat="44.90383" lon="6.64658">
        <ele>1368.728803</ele>
        <time>2022-09-04T17:28:29+0200</time>
      </trkpt>
      <trkpt lat="44.90382" lon="6.64649">
        <ele>1368.41931</ele>
        <time>2022-09-04T17:28:30+0200</time>
      </trkpt>
      <trkpt lat="44.90379" lon="6.64639">
        <ele>1369.280602</ele>
        <time>2022-09-04T17:28:32+0200</time>
      </trkpt>
      <trkpt lat="44.90373" lon="6.64631">
        <ele>1370.324575</ele>
        <time>2022-09-04T17:28:34+0200</time>
      </trkpt>
      <trkpt lat="44.90371" lon="6.64622">
        <ele>1370.853361</ele>
        <time>2022-09-04T17:28:36+0200</time>
      </trkpt>
      <trkpt lat="44.9037" lon="6.64611">
        <ele>1370.951933</ele>
        <time>2022-09-04T17:28:38+0200</time>
      </trkpt>
      <trkpt lat="44.90367" lon="6.64604">
        <ele>1371.514923</ele>
        <time>2022-09-04T17:28:40+0200</time>
      </trkpt>
      <trkpt lat="44.90367" lon="6.64595">
        <ele>1371.932729</ele>
        <time>2022-09-04T17:28:42+0200</time>
      </trkpt>
      <trkpt lat="44.90363" lon="6.64587">
        <ele>1371.98187</ele>
        <time>2022-09-04T17:28:44+0200</time>
      </trkpt>
      <trkpt lat="44.90362" lon="6.64577">
        <ele>1371.849042</ele>
        <time>2022-09-04T17:28:46+0200</time>
      </trkpt>
      <trkpt lat="44.90361" lon="6.64567">
        <ele>1372.329701</ele>
        <time>2022-09-04T17:28:48+0200</time>
      </trkpt>
      <trkpt lat="44.90357" lon="6.64557">
        <ele>1373.676261</ele>
        <time>2022-09-04T17:28:50+0200</time>
      </trkpt>
      <trkpt lat="44.90355" lon="6.64551">
        <ele>1374.417016</ele>
        <time>2022-09-04T17:28:51+0200</time>
      </trkpt>
      <trkpt lat="44.90353" lon="6.64544">
        <ele>1374.894215</ele>
        <time>2022-09-04T17:28:52+0200</time>
      </trkpt>
      <trkpt lat="44.90352" lon="6.64535">
        <ele>1375.512063</ele>
        <time>2022-09-04T17:28:54+0200</time>
      </trkpt>
      <trkpt lat="44.90351" lon="6.64527">
        <ele>1375.45091</ele>
        <time>2022-09-04T17:28:56+0200</time>
      </trkpt>
      <trkpt lat="44.90349" lon="6.64519">
        <ele>1375.637961</ele>
        <time>2022-09-04T17:28:58+0200</time>
      </trkpt>
      <trkpt lat="44.90348" lon="6.6451">
        <ele>1375.114318</ele>
        <time>2022-09-04T17:29:00+0200</time>
      </trkpt>
      <trkpt lat="44.90347" lon="6.64503">
        <ele>1375.295623</ele>
        <time>2022-09-04T17:29:01+0200</time>
      </trkpt>
      <trkpt lat="44.90346" lon="6.64492">
        <ele>1374.493443</ele>
        <time>2022-09-04T17:29:03+0200</time>
      </trkpt>
      <trkpt lat="44.90346" lon="6.6448">
        <ele>1373.119868</ele>
        <time>2022-09-04T17:29:05+0200</time>
      </trkpt>
      <trkpt lat="44.90347" lon="6.64468">
        <ele>1373.30831</ele>
        <time>2022-09-04T17:29:07+0200</time>
      </trkpt>
      <trkpt lat="44.90348" lon="6.64458">
        <ele>1373.062295</ele>
        <time>2022-09-04T17:29:09+0200</time>
      </trkpt>
      <trkpt lat="44.9035" lon="6.64447">
        <ele>1373.270751</ele>
        <time>2022-09-04T17:29:11+0200</time>
      </trkpt>
      <trkpt lat="44.9035" lon="6.64437">
        <ele>1374.921129</ele>
        <time>2022-09-04T17:29:13+0200</time>
      </trkpt>
      <trkpt lat="44.90351" lon="6.64425">
        <ele>1375.613648</ele>
        <time>2022-09-04T17:29:15+0200</time>
      </trkpt>
      <trkpt lat="44.90354" lon="6.64415">
        <ele>1375.581223</ele>
        <time>2022-09-04T17:29:17+0200</time>
      </trkpt>
      <trkpt lat="44.90355" lon="6.64405">
        <ele>1376.2806</ele>
        <time>2022-09-04T17:29:19+0200</time>
      </trkpt>
      <trkpt lat="44.90357" lon="6.64395">
        <ele>1377.010999</ele>
        <time>2022-09-04T17:29:21+0200</time>
      </trkpt>
      <trkpt lat="44.90358" lon="6.64386">
        <ele>1377.463744</ele>
        <time>2022-09-04T17:29:23+0200</time>
      </trkpt>
      <trkpt lat="44.9036" lon="6.64378">
        <ele>1377.967284</ele>
        <time>2022-09-04T17:29:25+0200</time>
      </trkpt>
      <trkpt lat="44.90362" lon="6.6437">
        <ele>1378.327918</ele>
        <time>2022-09-04T17:29:27+0200</time>
      </trkpt>
      <trkpt lat="44.90365" lon="6.64362">
        <ele>1378.253837</ele>
        <time>2022-09-04T17:29:29+0200</time>
      </trkpt>
      <trkpt lat="44.90369" lon="6.64356">
        <ele>1378.997164</ele>
        <time>2022-09-04T17:29:31+0200</time>
      </trkpt>
      <trkpt lat="44.90372" lon="6.64349">
        <ele>1379.404122</ele>
        <time>2022-09-04T17:29:33+0200</time>
      </trkpt>
      <trkpt lat="44.90376" lon="6.64343">
        <ele>1379.473804</ele>
        <time>2022-09-04T17:29:35+0200</time>
      </trkpt>
      <trkpt lat="44.9038" lon="6.64336">
        <ele>1381.24741</ele>
        <time>2022-09-04T17:29:37+0200</time>
      </trkpt>
      <trkpt lat="44.90383" lon="6.6433">
        <ele>1382.36696</ele>
        <time>2022-09-04T17:29:39+0200</time>
      </trkpt>
      <trkpt lat="44.90387" lon="6.64321">
        <ele>1382.643189</ele>
        <time>2022-09-04T17:29:41+0200</time>
      </trkpt>
      <trkpt lat="44.90389" lon="6.64314">
        <ele>1383.100733</ele>
        <time>2022-09-04T17:29:43+0200</time>
      </trkpt>
      <trkpt lat="44.90392" lon="6.64307">
        <ele>1383.787596</ele>
        <time>2022-09-04T17:29:45+0200</time>
      </trkpt>
      <trkpt lat="44.90394" lon="6.64299">
        <ele>1383.676415</ele>
        <time>2022-09-04T17:29:47+0200</time>
      </trkpt>
      <trkpt lat="44.90396" lon="6.64291">
        <ele>1384.598396</ele>
        <time>2022-09-04T17:29:49+0200</time>
      </trkpt>
      <trkpt lat="44.90398" lon="6.64284">
        <ele>1384.729283</ele>
        <time>2022-09-04T17:29:51+0200</time>
      </trkpt>
      <trkpt lat="44.904" lon="6.64275">
        <ele>1385.433845</ele>
        <time>2022-09-04T17:29:53+0200</time>
      </trkpt>
      <trkpt lat="44.90401" lon="6.64266">
        <ele>1385.762637</ele>
        <time>2022-09-04T17:29:55+0200</time>
      </trkpt>
      <trkpt lat="44.90404" lon="6.64258">
        <ele>1386.719624</ele>
        <time>2022-09-04T17:29:57+0200</time>
      </trkpt>
      <trkpt lat="44.90406" lon="6.64249">
        <ele>1387.190218</ele>
        <time>2022-09-04T17:29:59+0200</time>
      </trkpt>
      <trkpt lat="44.90407" lon="6.64242">
        <ele>1386.445069</ele>
        <time>2022-09-04T17:30:01+0200</time>
      </trkpt>
      <trkpt lat="44.9041" lon="6.64234">
        <ele>1385.987115</ele>
        <time>2022-09-04T17:30:03+0200</time>
      </trkpt>
      <trkpt lat="44.90411" lon="6.64226">
        <ele>1386.006434</ele>
        <time>2022-09-04T17:30:05+0200</time>
      </trkpt>
      <trkpt lat="44.90413" lon="6.64217">
        <ele>1386.622464</ele>
        <time>2022-09-04T17:30:07+0200</time>
      </trkpt>
      <trkpt lat="44.90412" lon="6.64207">
        <ele>1386.674442</ele>
        <time>2022-09-04T17:30:09+0200</time>
      </trkpt>
      <trkpt lat="44.90411" lon="6.64199">
        <ele>1387.744553</ele>
        <time>2022-09-04T17:30:11+0200</time>
      </trkpt>
      <trkpt lat="44.9041" lon="6.64191">
        <ele>1389.392511</ele>
        <time>2022-09-04T17:30:13+0200</time>
      </trkpt>
      <trkpt lat="44.90409" lon="6.64183">
        <ele>1391.246894</ele>
        <time>2022-09-04T17:30:15+0200</time>
      </trkpt>
      <trkpt lat="44.90407" lon="6.64176">
        <ele>1392.466715</ele>
        <time>2022-09-04T17:30:17+0200</time>
      </trkpt>
      <trkpt lat="44.90402" lon="6.6417">
        <ele>1392.874621</ele>
        <time>2022-09-04T17:30:19+0200</time>
      </trkpt>
      <trkpt lat="44.90398" lon="6.64166">
        <ele>1392.510927</ele>
        <time>2022-09-04T17:30:21+0200</time>
      </trkpt>
      <trkpt lat="44.90395" lon="6.64159">
        <ele>1391.978388</ele>
        <time>2022-09-04T17:30:23+0200</time>
      </trkpt>
      <trkpt lat="44.90392" lon="6.6415">
        <ele>1391.32448</ele>
        <time>2022-09-04T17:30:25+0200</time>
      </trkpt>
      <trkpt lat="44.90392" lon="6.64142">
        <ele>1390.540871</ele>
        <time>2022-09-04T17:30:27+0200</time>
      </trkpt>
      <trkpt lat="44.90395" lon="6.64133">
        <ele>1390.221339</ele>
        <time>2022-09-04T17:30:29+0200</time>
      </trkpt>
      <trkpt lat="44.904" lon="6.64129">
        <ele>1390.178544</ele>
        <time>2022-09-04T17:30:31+0200</time>
      </trkpt>
      <trkpt lat="44.90406" lon="6.64125">
        <ele>1390.697871</ele>
        <time>2022-09-04T17:30:33+0200</time>
      </trkpt>
      <trkpt lat="44.9041" lon="6.64121">
        <ele>1392.008468</ele>
        <time>2022-09-04T17:30:35+0200</time>
      </trkpt>
      <trkpt lat="44.90415" lon="6.64116">
        <ele>1393.290705</ele>
        <time>2022-09-04T17:30:37+0200</time>
      </trkpt>
      <trkpt lat="44.90418" lon="6.64112">
        <ele>1393.474837</ele>
        <time>2022-09-04T17:30:40+0200</time>
      </trkpt>
      <trkpt lat="44.90423" lon="6.64105">
        <ele>1394.413532</ele>
        <time>2022-09-04T17:30:44+0200</time>
      </trkpt>
      <trkpt lat="44.90425" lon="6.64097">
        <ele>1395.6838</ele>
        <time>2022-09-04T17:30:47+0200</time>
      </trkpt>
      <trkpt lat="44.90427" lon="6.6409">
        <ele>1395.65059</ele>
        <time>2022-09-04T17:30:49+0200</time>
      </trkpt>
      <trkpt lat="44.90428" lon="6.64083">
        <ele>1395.648905</ele>
        <time>2022-09-04T17:30:51+0200</time>
      </trkpt>
      <trkpt lat="44.9043" lon="6.64073">
        <ele>1395.463779</ele>
        <time>2022-09-04T17:30:53+0200</time>
      </trkpt>
      <trkpt lat="44.9043" lon="6.64062">
        <ele>1396.274574</ele>
        <time>2022-09-04T17:30:55+0200</time>
      </trkpt>
      <trkpt lat="44.9043" lon="6.64054">
        <ele>1395.966009</ele>
        <time>2022-09-04T17:30:57+0200</time>
      </trkpt>
      <trkpt lat="44.90428" lon="6.64044">
        <ele>1394.678022</ele>
        <time>2022-09-04T17:30:59+0200</time>
      </trkpt>
      <trkpt lat="44.90427" lon="6.64033">
        <ele>1393.299356</ele>
        <time>2022-09-04T17:31:01+0200</time>
      </trkpt>
      <trkpt lat="44.9043" lon="6.64022">
        <ele>1392.496484</ele>
        <time>2022-09-04T17:31:03+0200</time>
      </trkpt>
      <trkpt lat="44.90435" lon="6.64012">
        <ele>1391.516058</ele>
        <time>2022-09-04T17:31:05+0200</time>
      </trkpt>
      <trkpt lat="44.9044" lon="6.64003">
        <ele>1389.650166</ele>
        <time>2022-09-04T17:31:07+0200</time>
      </trkpt>
      <trkpt lat="44.90442" lon="6.63997">
        <ele>1389.414239</ele>
        <time>2022-09-04T17:31:08+0200</time>
      </trkpt>
      <trkpt lat="44.90446" lon="6.63993">
        <ele>1388.713821</ele>
        <time>2022-09-04T17:31:09+0200</time>
      </trkpt>
      <trkpt lat="44.90455" lon="6.63989">
        <ele>1387.072801</ele>
        <time>2022-09-04T17:31:11+0200</time>
      </trkpt>
      <trkpt lat="44.90464" lon="6.6399">
        <ele>1387.580326</ele>
        <time>2022-09-04T17:31:13+0200</time>
      </trkpt>
      <trkpt lat="44.90471" lon="6.63991">
        <ele>1388.114628</ele>
        <time>2022-09-04T17:31:15+0200</time>
      </trkpt>
      <trkpt lat="44.90477" lon="6.6399">
        <ele>1390.156562</ele>
        <time>2022-09-04T17:31:17+0200</time>
      </trkpt>
      <trkpt lat="44.90482" lon="6.6398">
        <ele>1391.398921</ele>
        <time>2022-09-04T17:31:19+0200</time>
      </trkpt>
      <trkpt lat="44.90486" lon="6.63973">
        <ele>1391.395385</ele>
        <time>2022-09-04T17:31:20+0200</time>
      </trkpt>
      <trkpt lat="44.90489" lon="6.63966">
        <ele>1391.519968</ele>
        <time>2022-09-04T17:31:21+0200</time>
      </trkpt>
      <trkpt lat="44.90491" lon="6.63959">
        <ele>1392.356764</ele>
        <time>2022-09-04T17:31:22+0200</time>
      </trkpt>
      <trkpt lat="44.90492" lon="6.63952">
        <ele>1392.488534</ele>
        <time>2022-09-04T17:31:23+0200</time>
      </trkpt>
      <trkpt lat="44.90494" lon="6.63944">
        <ele>1392.355407</ele>
        <time>2022-09-04T17:31:24+0200</time>
      </trkpt>
      <trkpt lat="44.90495" lon="6.63937">
        <ele>1392.943896</ele>
        <time>2022-09-04T17:31:25+0200</time>
      </trkpt>
      <trkpt lat="44.90497" lon="6.6393">
        <ele>1392.950821</ele>
        <time>2022-09-04T17:31:26+0200</time>
      </trkpt>
      <trkpt lat="44.905" lon="6.63923">
        <ele>1392.449055</ele>
        <time>2022-09-04T17:31:27+0200</time>
      </trkpt>
      <trkpt lat="44.90503" lon="6.63916">
        <ele>1391.709404</ele>
        <time>2022-09-04T17:31:28+0200</time>
      </trkpt>
      <trkpt lat="44.90506" lon="6.63911">
        <ele>1391.780236</ele>
        <time>2022-09-04T17:31:29+0200</time>
      </trkpt>
      <trkpt lat="44.9051" lon="6.63904">
        <ele>1390.962701</ele>
        <time>2022-09-04T17:31:30+0200</time>
      </trkpt>
      <trkpt lat="44.90512" lon="6.63898">
        <ele>1390.780354</ele>
        <time>2022-09-04T17:31:31+0200</time>
      </trkpt>
      <trkpt lat="44.90515" lon="6.63891">
        <ele>1390.650521</ele>
        <time>2022-09-04T17:31:32+0200</time>
      </trkpt>
      <trkpt lat="44.90517" lon="6.63884">
        <ele>1390.92389</ele>
        <time>2022-09-04T17:31:33+0200</time>
      </trkpt>
      <trkpt lat="44.9052" lon="6.63878">
        <ele>1391.025928</ele>
        <time>2022-09-04T17:31:34+0200</time>
      </trkpt>
      <trkpt lat="44.90522" lon="6.63871">
        <ele>1391.132814</ele>
        <time>2022-09-04T17:31:35+0200</time>
      </trkpt>
      <trkpt lat="44.90526" lon="6.63866">
        <ele>1391.253581</ele>
        <time>2022-09-04T17:31:36+0200</time>
      </trkpt>
      <trkpt lat="44.90528" lon="6.63858">
        <ele>1391.462532</ele>
        <time>2022-09-04T17:31:37+0200</time>
      </trkpt>
      <trkpt lat="44.90529" lon="6.63852">
        <ele>1391.685583</ele>
        <time>2022-09-04T17:31:38+0200</time>
      </trkpt>
      <trkpt lat="44.9053" lon="6.63844">
        <ele>1392.129731</ele>
        <time>2022-09-04T17:31:39+0200</time>
      </trkpt>
      <trkpt lat="44.9053" lon="6.63835">
        <ele>1392.420141</ele>
        <time>2022-09-04T17:31:40+0200</time>
      </trkpt>
      <trkpt lat="44.90529" lon="6.63828">
        <ele>1393.071429</ele>
        <time>2022-09-04T17:31:41+0200</time>
      </trkpt>
      <trkpt lat="44.90529" lon="6.63821">
        <ele>1393.515441</ele>
        <time>2022-09-04T17:31:42+0200</time>
      </trkpt>
      <trkpt lat="44.90529" lon="6.63813">
        <ele>1393.326268</ele>
        <time>2022-09-04T17:31:43+0200</time>
      </trkpt>
      <trkpt lat="44.90531" lon="6.63806">
        <ele>1393.042169</ele>
        <time>2022-09-04T17:31:44+0200</time>
      </trkpt>
      <trkpt lat="44.90538" lon="6.63799">
        <ele>1391.510708</ele>
        <time>2022-09-04T17:31:46+0200</time>
      </trkpt>
      <trkpt lat="44.90545" lon="6.63798">
        <ele>1390.406209</ele>
        <time>2022-09-04T17:31:48+0200</time>
      </trkpt>
      <trkpt lat="44.90553" lon="6.63799">
        <ele>1391.037326</ele>
        <time>2022-09-04T17:31:50+0200</time>
      </trkpt>
      <trkpt lat="44.90559" lon="6.638">
        <ele>1391.198655</ele>
        <time>2022-09-04T17:31:52+0200</time>
      </trkpt>
      <trkpt lat="44.90566" lon="6.63799">
        <ele>1392.135933</ele>
        <time>2022-09-04T17:31:54+0200</time>
      </trkpt>
      <trkpt lat="44.90574" lon="6.63801">
        <ele>1393.803925</ele>
        <time>2022-09-04T17:31:56+0200</time>
      </trkpt>
      <trkpt lat="44.90581" lon="6.638">
        <ele>1395.84379</ele>
        <time>2022-09-04T17:31:58+0200</time>
      </trkpt>
      <trkpt lat="44.90585" lon="6.638">
        <ele>1397.876333</ele>
        <time>2022-09-04T17:32:00+0200</time>
      </trkpt>
      <trkpt lat="44.90593" lon="6.63795">
        <ele>1399.246635</ele>
        <time>2022-09-04T17:32:02+0200</time>
      </trkpt>
      <trkpt lat="44.90596" lon="6.6379">
        <ele>1399.591569</ele>
        <time>2022-09-04T17:32:03+0200</time>
      </trkpt>
      <trkpt lat="44.90601" lon="6.63783">
        <ele>1400.557201</ele>
        <time>2022-09-04T17:32:05+0200</time>
      </trkpt>
      <trkpt lat="44.90607" lon="6.63777">
        <ele>1400.24741</ele>
        <time>2022-09-04T17:32:07+0200</time>
      </trkpt>
      <trkpt lat="44.90613" lon="6.63769">
        <ele>1399.731462</ele>
        <time>2022-09-04T17:32:09+0200</time>
      </trkpt>
      <trkpt lat="44.90618" lon="6.63762">
        <ele>1399.118935</ele>
        <time>2022-09-04T17:32:11+0200</time>
      </trkpt>
      <trkpt lat="44.90625" lon="6.63757">
        <ele>1398.394399</ele>
        <time>2022-09-04T17:32:13+0200</time>
      </trkpt>
      <trkpt lat="44.90631" lon="6.6375">
        <ele>1398.285825</ele>
        <time>2022-09-04T17:32:15+0200</time>
      </trkpt>
      <trkpt lat="44.90636" lon="6.63742">
        <ele>1397.122422</ele>
        <time>2022-09-04T17:32:17+0200</time>
      </trkpt>
      <trkpt lat="44.90643" lon="6.63735">
        <ele>1396.250852</ele>
        <time>2022-09-04T17:32:19+0200</time>
      </trkpt>
      <trkpt lat="44.90648" lon="6.63728">
        <ele>1395.970965</ele>
        <time>2022-09-04T17:32:21+0200</time>
      </trkpt>
      <trkpt lat="44.90653" lon="6.63719">
        <ele>1397.228233</ele>
        <time>2022-09-04T17:32:23+0200</time>
      </trkpt>
      <trkpt lat="44.90658" lon="6.63712">
        <ele>1397.401157</ele>
        <time>2022-09-04T17:32:25+0200</time>
      </trkpt>
      <trkpt lat="44.90662" lon="6.63704">
        <ele>1398.088937</ele>
        <time>2022-09-04T17:32:27+0200</time>
      </trkpt>
      <trkpt lat="44.90666" lon="6.63698">
        <ele>1398.406328</ele>
        <time>2022-09-04T17:32:29+0200</time>
      </trkpt>
      <trkpt lat="44.90672" lon="6.63692">
        <ele>1399.365612</ele>
        <time>2022-09-04T17:32:31+0200</time>
      </trkpt>
      <trkpt lat="44.90678" lon="6.63686">
        <ele>1399.369939</ele>
        <time>2022-09-04T17:32:33+0200</time>
      </trkpt>
      <trkpt lat="44.90683" lon="6.63681">
        <ele>1399.400961</ele>
        <time>2022-09-04T17:32:35+0200</time>
      </trkpt>
      <trkpt lat="44.90688" lon="6.63675">
        <ele>1398.802181</ele>
        <time>2022-09-04T17:32:37+0200</time>
      </trkpt>
      <trkpt lat="44.90692" lon="6.63667">
        <ele>1398.514874</ele>
        <time>2022-09-04T17:32:39+0200</time>
      </trkpt>
      <trkpt lat="44.90696" lon="6.6366">
        <ele>1397.310253</ele>
        <time>2022-09-04T17:32:41+0200</time>
      </trkpt>
      <trkpt lat="44.90701" lon="6.63652">
        <ele>1397.862165</ele>
        <time>2022-09-04T17:32:43+0200</time>
      </trkpt>
      <trkpt lat="44.90706" lon="6.63644">
        <ele>1398.559299</ele>
        <time>2022-09-04T17:32:45+0200</time>
      </trkpt>
      <trkpt lat="44.90712" lon="6.6364">
        <ele>1398.409679</ele>
        <time>2022-09-04T17:32:47+0200</time>
      </trkpt>
      <trkpt lat="44.90716" lon="6.63636">
        <ele>1398.808573</ele>
        <time>2022-09-04T17:32:49+0200</time>
      </trkpt>
      <trkpt lat="44.90722" lon="6.63633">
        <ele>1399.892306</ele>
        <time>2022-09-04T17:32:51+0200</time>
      </trkpt>
      <trkpt lat="44.90728" lon="6.6363">
        <ele>1401.435382</ele>
        <time>2022-09-04T17:32:53+0200</time>
      </trkpt>
      <trkpt lat="44.90734" lon="6.63629">
        <ele>1403.256298</ele>
        <time>2022-09-04T17:32:55+0200</time>
      </trkpt>
      <trkpt lat="44.9074" lon="6.63625">
        <ele>1405.121959</ele>
        <time>2022-09-04T17:32:57+0200</time>
      </trkpt>
      <trkpt lat="44.90746" lon="6.63621">
        <ele>1406.215244</ele>
        <time>2022-09-04T17:32:59+0200</time>
      </trkpt>
      <trkpt lat="44.90751" lon="6.63616">
        <ele>1407.024074</ele>
        <time>2022-09-04T17:33:01+0200</time>
      </trkpt>
      <trkpt lat="44.90757" lon="6.63611">
        <ele>1407.694063</ele>
        <time>2022-09-04T17:33:03+0200</time>
      </trkpt>
      <trkpt lat="44.90766" lon="6.63607">
        <ele>1406.710577</ele>
        <time>2022-09-04T17:33:05+0200</time>
      </trkpt>
      <trkpt lat="44.90773" lon="6.63603">
        <ele>1407.443549</ele>
        <time>2022-09-04T17:33:07+0200</time>
      </trkpt>
      <trkpt lat="44.90778" lon="6.63602">
        <ele>1407.038814</ele>
        <time>2022-09-04T17:33:08+0200</time>
      </trkpt>
      <trkpt lat="44.90782" lon="6.63602">
        <ele>1406.399991</ele>
        <time>2022-09-04T17:33:09+0200</time>
      </trkpt>
      <trkpt lat="44.90788" lon="6.63597">
        <ele>1407.304952</ele>
        <time>2022-09-04T17:33:11+0200</time>
      </trkpt>
      <trkpt lat="44.90795" lon="6.63592">
        <ele>1408.863233</ele>
        <time>2022-09-04T17:33:13+0200</time>
      </trkpt>
      <trkpt lat="44.90802" lon="6.63586">
        <ele>1408.844067</ele>
        <time>2022-09-04T17:33:15+0200</time>
      </trkpt>
      <trkpt lat="44.90806" lon="6.6358">
        <ele>1409.424815</ele>
        <time>2022-09-04T17:33:17+0200</time>
      </trkpt>
      <trkpt lat="44.90813" lon="6.63575">
        <ele>1409.296728</ele>
        <time>2022-09-04T17:33:19+0200</time>
      </trkpt>
      <trkpt lat="44.90819" lon="6.63572">
        <ele>1408.470303</ele>
        <time>2022-09-04T17:33:21+0200</time>
      </trkpt>
      <trkpt lat="44.90826" lon="6.6357">
        <ele>1407.768865</ele>
        <time>2022-09-04T17:33:23+0200</time>
      </trkpt>
      <trkpt lat="44.90831" lon="6.63568">
        <ele>1408.06971</ele>
        <time>2022-09-04T17:33:25+0200</time>
      </trkpt>
      <trkpt lat="44.90837" lon="6.63566">
        <ele>1407.970727</ele>
        <time>2022-09-04T17:33:27+0200</time>
      </trkpt>
      <trkpt lat="44.90843" lon="6.63564">
        <ele>1407.514852</ele>
        <time>2022-09-04T17:33:29+0200</time>
      </trkpt>
      <trkpt lat="44.90851" lon="6.63561">
        <ele>1408.218928</ele>
        <time>2022-09-04T17:33:31+0200</time>
      </trkpt>
      <trkpt lat="44.90857" lon="6.63558">
        <ele>1408.663629</ele>
        <time>2022-09-04T17:33:33+0200</time>
      </trkpt>
      <trkpt lat="44.90865" lon="6.63554">
        <ele>1408.114713</ele>
        <time>2022-09-04T17:33:35+0200</time>
      </trkpt>
      <trkpt lat="44.90872" lon="6.63551">
        <ele>1408.1011</ele>
        <time>2022-09-04T17:33:37+0200</time>
      </trkpt>
      <trkpt lat="44.90878" lon="6.63543">
        <ele>1409.974538</ele>
        <time>2022-09-04T17:33:39+0200</time>
      </trkpt>
      <trkpt lat="44.90883" lon="6.63538">
        <ele>1409.766652</ele>
        <time>2022-09-04T17:33:41+0200</time>
      </trkpt>
      <trkpt lat="44.90889" lon="6.63534">
        <ele>1410.044881</ele>
        <time>2022-09-04T17:33:43+0200</time>
      </trkpt>
      <trkpt lat="44.90895" lon="6.63529">
        <ele>1411.135487</ele>
        <time>2022-09-04T17:33:45+0200</time>
      </trkpt>
      <trkpt lat="44.90903" lon="6.63527">
        <ele>1410.328134</ele>
        <time>2022-09-04T17:33:47+0200</time>
      </trkpt>
      <trkpt lat="44.9091" lon="6.63519">
        <ele>1409.720053</ele>
        <time>2022-09-04T17:33:49+0200</time>
      </trkpt>
      <trkpt lat="44.90917" lon="6.6351">
        <ele>1410.944341</ele>
        <time>2022-09-04T17:33:51+0200</time>
      </trkpt>
      <trkpt lat="44.9092" lon="6.63502">
        <ele>1412.866515</ele>
        <time>2022-09-04T17:33:53+0200</time>
      </trkpt>
      <trkpt lat="44.90923" lon="6.63492">
        <ele>1414.644823</ele>
        <time>2022-09-04T17:33:55+0200</time>
      </trkpt>
      <trkpt lat="44.90927" lon="6.63484">
        <ele>1415.44246</ele>
        <time>2022-09-04T17:33:57+0200</time>
      </trkpt>
      <trkpt lat="44.9093" lon="6.63475">
        <ele>1416.15278</ele>
        <time>2022-09-04T17:33:59+0200</time>
      </trkpt>
      <trkpt lat="44.90933" lon="6.63465">
        <ele>1416.335601</ele>
        <time>2022-09-04T17:34:01+0200</time>
      </trkpt>
      <trkpt lat="44.90936" lon="6.63458">
        <ele>1417.122523</ele>
        <time>2022-09-04T17:34:03+0200</time>
      </trkpt>
      <trkpt lat="44.90938" lon="6.6345">
        <ele>1416.688483</ele>
        <time>2022-09-04T17:34:05+0200</time>
      </trkpt>
      <trkpt lat="44.90941" lon="6.63443">
        <ele>1416.367179</ele>
        <time>2022-09-04T17:34:07+0200</time>
      </trkpt>
      <trkpt lat="44.90945" lon="6.63436">
        <ele>1415.757675</ele>
        <time>2022-09-04T17:34:09+0200</time>
      </trkpt>
      <trkpt lat="44.9095" lon="6.63431">
        <ele>1415.520526</ele>
        <time>2022-09-04T17:34:11+0200</time>
      </trkpt>
      <trkpt lat="44.90955" lon="6.63424">
        <ele>1416.245251</ele>
        <time>2022-09-04T17:34:13+0200</time>
      </trkpt>
      <trkpt lat="44.90963" lon="6.63419">
        <ele>1416.898107</ele>
        <time>2022-09-04T17:34:15+0200</time>
      </trkpt>
      <trkpt lat="44.9097" lon="6.63413">
        <ele>1417.243012</ele>
        <time>2022-09-04T17:34:17+0200</time>
      </trkpt>
      <trkpt lat="44.90976" lon="6.63408">
        <ele>1417.745287</ele>
        <time>2022-09-04T17:34:19+0200</time>
      </trkpt>
      <trkpt lat="44.90983" lon="6.63403">
        <ele>1418.248891</ele>
        <time>2022-09-04T17:34:21+0200</time>
      </trkpt>
      <trkpt lat="44.9099" lon="6.63397">
        <ele>1418.580508</ele>
        <time>2022-09-04T17:34:23+0200</time>
      </trkpt>
      <trkpt lat="44.90995" lon="6.63391">
        <ele>1419.150278</ele>
        <time>2022-09-04T17:34:25+0200</time>
      </trkpt>
      <trkpt lat="44.91001" lon="6.63385">
        <ele>1419.200474</ele>
        <time>2022-09-04T17:34:27+0200</time>
      </trkpt>
      <trkpt lat="44.91007" lon="6.63379">
        <ele>1420.172632</ele>
        <time>2022-09-04T17:34:29+0200</time>
      </trkpt>
      <trkpt lat="44.91013" lon="6.63373">
        <ele>1420.416924</ele>
        <time>2022-09-04T17:34:31+0200</time>
      </trkpt>
      <trkpt lat="44.91019" lon="6.63367">
        <ele>1420.665092</ele>
        <time>2022-09-04T17:34:33+0200</time>
      </trkpt>
      <trkpt lat="44.91024" lon="6.63361">
        <ele>1420.403705</ele>
        <time>2022-09-04T17:34:35+0200</time>
      </trkpt>
      <trkpt lat="44.91029" lon="6.63355">
        <ele>1420.302805</ele>
        <time>2022-09-04T17:34:37+0200</time>
      </trkpt>
      <trkpt lat="44.91036" lon="6.6335">
        <ele>1418.962356</ele>
        <time>2022-09-04T17:34:39+0200</time>
      </trkpt>
      <trkpt lat="44.91041" lon="6.63344">
        <ele>1419.518737</ele>
        <time>2022-09-04T17:34:41+0200</time>
      </trkpt>
      <trkpt lat="44.91048" lon="6.6334">
        <ele>1419.71353</ele>
        <time>2022-09-04T17:34:43+0200</time>
      </trkpt>
      <trkpt lat="44.91055" lon="6.63336">
        <ele>1420.774915</ele>
        <time>2022-09-04T17:34:45+0200</time>
      </trkpt>
      <trkpt lat="44.91063" lon="6.63332">
        <ele>1421.660884</ele>
        <time>2022-09-04T17:34:47+0200</time>
      </trkpt>
      <trkpt lat="44.91068" lon="6.63328">
        <ele>1422.503311</ele>
        <time>2022-09-04T17:34:49+0200</time>
      </trkpt>
      <trkpt lat="44.91074" lon="6.63323">
        <ele>1422.829802</ele>
        <time>2022-09-04T17:34:51+0200</time>
      </trkpt>
      <trkpt lat="44.9108" lon="6.63318">
        <ele>1422.225439</ele>
        <time>2022-09-04T17:34:53+0200</time>
      </trkpt>
      <trkpt lat="44.91086" lon="6.63312">
        <ele>1423.159081</ele>
        <time>2022-09-04T17:34:55+0200</time>
      </trkpt>
      <trkpt lat="44.91093" lon="6.63308">
        <ele>1423.844796</ele>
        <time>2022-09-04T17:34:57+0200</time>
      </trkpt>
      <trkpt lat="44.91099" lon="6.63303">
        <ele>1424.211698</ele>
        <time>2022-09-04T17:34:59+0200</time>
      </trkpt>
      <trkpt lat="44.91105" lon="6.633">
        <ele>1425.129808</ele>
        <time>2022-09-04T17:35:01+0200</time>
      </trkpt>
      <trkpt lat="44.91111" lon="6.63298">
        <ele>1425.699247</ele>
        <time>2022-09-04T17:35:03+0200</time>
      </trkpt>
      <trkpt lat="44.91119" lon="6.63295">
        <ele>1425.677529</ele>
        <time>2022-09-04T17:35:05+0200</time>
      </trkpt>
      <trkpt lat="44.91125" lon="6.63292">
        <ele>1425.966381</ele>
        <time>2022-09-04T17:35:07+0200</time>
      </trkpt>
      <trkpt lat="44.91131" lon="6.6329">
        <ele>1425.816198</ele>
        <time>2022-09-04T17:35:09+0200</time>
      </trkpt>
      <trkpt lat="44.91137" lon="6.63285">
        <ele>1425.383984</ele>
        <time>2022-09-04T17:35:11+0200</time>
      </trkpt>
      <trkpt lat="44.91143" lon="6.63281">
        <ele>1426.152263</ele>
        <time>2022-09-04T17:35:13+0200</time>
      </trkpt>
      <trkpt lat="44.91149" lon="6.63276">
        <ele>1426.83979</ele>
        <time>2022-09-04T17:35:15+0200</time>
      </trkpt>
      <trkpt lat="44.91155" lon="6.63272">
        <ele>1426.806738</ele>
        <time>2022-09-04T17:35:17+0200</time>
      </trkpt>
      <trkpt lat="44.91162" lon="6.63266">
        <ele>1426.158406</ele>
        <time>2022-09-04T17:35:19+0200</time>
      </trkpt>
      <trkpt lat="44.91168" lon="6.63261">
        <ele>1426.432809</ele>
        <time>2022-09-04T17:35:21+0200</time>
      </trkpt>
      <trkpt lat="44.91174" lon="6.63258">
        <ele>1427.458835</ele>
        <time>2022-09-04T17:35:23+0200</time>
      </trkpt>
      <trkpt lat="44.9118" lon="6.63257">
        <ele>1428.426877</ele>
        <time>2022-09-04T17:35:25+0200</time>
      </trkpt>
      <trkpt lat="44.91186" lon="6.63258">
        <ele>1428.516073</ele>
        <time>2022-09-04T17:35:27+0200</time>
      </trkpt>
      <trkpt lat="44.91192" lon="6.63258">
        <ele>1429.765278</ele>
        <time>2022-09-04T17:35:29+0200</time>
      </trkpt>
      <trkpt lat="44.91199" lon="6.63255">
        <ele>1430.136827</ele>
        <time>2022-09-04T17:35:31+0200</time>
      </trkpt>
      <trkpt lat="44.91205" lon="6.63251">
        <ele>1431.23545</ele>
        <time>2022-09-04T17:35:33+0200</time>
      </trkpt>
      <trkpt lat="44.91212" lon="6.63247">
        <ele>1431.288548</ele>
        <time>2022-09-04T17:35:35+0200</time>
      </trkpt>
      <trkpt lat="44.91218" lon="6.63241">
        <ele>1431.734662</ele>
        <time>2022-09-04T17:35:37+0200</time>
      </trkpt>
      <trkpt lat="44.91224" lon="6.63232">
        <ele>1432.893706</ele>
        <time>2022-09-04T17:35:39+0200</time>
      </trkpt>
      <trkpt lat="44.91229" lon="6.63228">
        <ele>1431.942997</ele>
        <time>2022-09-04T17:35:41+0200</time>
      </trkpt>
      <trkpt lat="44.91233" lon="6.63221">
        <ele>1431.831949</ele>
        <time>2022-09-04T17:35:43+0200</time>
      </trkpt>
      <trkpt lat="44.91238" lon="6.63214">
        <ele>1431.018439</ele>
        <time>2022-09-04T17:35:45+0200</time>
      </trkpt>
      <trkpt lat="44.91241" lon="6.63207">
        <ele>1430.817309</ele>
        <time>2022-09-04T17:35:47+0200</time>
      </trkpt>
      <trkpt lat="44.91247" lon="6.63201">
        <ele>1430.740418</ele>
        <time>2022-09-04T17:35:49+0200</time>
      </trkpt>
      <trkpt lat="44.91255" lon="6.63198">
        <ele>1430.959908</ele>
        <time>2022-09-04T17:35:51+0200</time>
      </trkpt>
      <trkpt lat="44.91263" lon="6.63196">
        <ele>1431.670629</ele>
        <time>2022-09-04T17:35:53+0200</time>
      </trkpt>
      <trkpt lat="44.9127" lon="6.63196">
        <ele>1431.647808</ele>
        <time>2022-09-04T17:35:55+0200</time>
      </trkpt>
      <trkpt lat="44.91277" lon="6.63196">
        <ele>1432.40567</ele>
        <time>2022-09-04T17:35:57+0200</time>
      </trkpt>
      <trkpt lat="44.91283" lon="6.63194">
        <ele>1433.794728</ele>
        <time>2022-09-04T17:35:59+0200</time>
      </trkpt>
      <trkpt lat="44.91288" lon="6.63191">
        <ele>1434.994661</ele>
        <time>2022-09-04T17:36:01+0200</time>
      </trkpt>
      <trkpt lat="44.91295" lon="6.6319">
        <ele>1436.169043</ele>
        <time>2022-09-04T17:36:03+0200</time>
      </trkpt>
      <trkpt lat="44.91301" lon="6.63187">
        <ele>1437.238697</ele>
        <time>2022-09-04T17:36:05+0200</time>
      </trkpt>
      <trkpt lat="44.91307" lon="6.63182">
        <ele>1438.26455</ele>
        <time>2022-09-04T17:36:07+0200</time>
      </trkpt>
      <trkpt lat="44.91312" lon="6.63176">
        <ele>1439.40804</ele>
        <time>2022-09-04T17:36:09+0200</time>
      </trkpt>
      <trkpt lat="44.91317" lon="6.63172">
        <ele>1440.076712</ele>
        <time>2022-09-04T17:36:11+0200</time>
      </trkpt>
      <trkpt lat="44.91321" lon="6.63168">
        <ele>1439.772634</ele>
        <time>2022-09-04T17:36:12+0200</time>
      </trkpt>
      <trkpt lat="44.91326" lon="6.63162">
        <ele>1439.01247</ele>
        <time>2022-09-04T17:36:14+0200</time>
      </trkpt>
      <trkpt lat="44.91332" lon="6.63157">
        <ele>1438.661706</ele>
        <time>2022-09-04T17:36:16+0200</time>
      </trkpt>
      <trkpt lat="44.91338" lon="6.63152">
        <ele>1439.729221</ele>
        <time>2022-09-04T17:36:18+0200</time>
      </trkpt>
      <trkpt lat="44.91343" lon="6.63146">
        <ele>1439.843452</ele>
        <time>2022-09-04T17:36:20+0200</time>
      </trkpt>
      <trkpt lat="44.91347" lon="6.63139">
        <ele>1440.300995</ele>
        <time>2022-09-04T17:36:22+0200</time>
      </trkpt>
      <trkpt lat="44.91354" lon="6.63133">
        <ele>1440.042305</ele>
        <time>2022-09-04T17:36:24+0200</time>
      </trkpt>
      <trkpt lat="44.91359" lon="6.63127">
        <ele>1438.263244</ele>
        <time>2022-09-04T17:36:26+0200</time>
      </trkpt>
      <trkpt lat="44.91365" lon="6.63121">
        <ele>1437.758083</ele>
        <time>2022-09-04T17:36:28+0200</time>
      </trkpt>
      <trkpt lat="44.91372" lon="6.63116">
        <ele>1438.249738</ele>
        <time>2022-09-04T17:36:30+0200</time>
      </trkpt>
      <trkpt lat="44.91378" lon="6.63111">
        <ele>1439.350586</ele>
        <time>2022-09-04T17:36:32+0200</time>
      </trkpt>
      <trkpt lat="44.91383" lon="6.63105">
        <ele>1440.806495</ele>
        <time>2022-09-04T17:36:34+0200</time>
      </trkpt>
      <trkpt lat="44.91387" lon="6.631">
        <ele>1442.566238</ele>
        <time>2022-09-04T17:36:36+0200</time>
      </trkpt>
      <trkpt lat="44.9139" lon="6.63094">
        <ele>1444.886569</ele>
        <time>2022-09-04T17:36:38+0200</time>
      </trkpt>
      <trkpt lat="44.91391" lon="6.63086">
        <ele>1446.689899</ele>
        <time>2022-09-04T17:36:40+0200</time>
      </trkpt>
      <trkpt lat="44.91389" lon="6.63077">
        <ele>1447.712344</ele>
        <time>2022-09-04T17:36:42+0200</time>
      </trkpt>
      <trkpt lat="44.91387" lon="6.63068">
        <ele>1449.527032</ele>
        <time>2022-09-04T17:36:44+0200</time>
      </trkpt>
      <trkpt lat="44.91384" lon="6.63058">
        <ele>1448.83857</ele>
        <time>2022-09-04T17:36:46+0200</time>
      </trkpt>
      <trkpt lat="44.91387" lon="6.63046">
        <ele>1445.641214</ele>
        <time>2022-09-04T17:36:48+0200</time>
      </trkpt>
      <trkpt lat="44.91392" lon="6.63038">
        <ele>1444.64667</ele>
        <time>2022-09-04T17:36:50+0200</time>
      </trkpt>
      <trkpt lat="44.91397" lon="6.63033">
        <ele>1444.80283</ele>
        <time>2022-09-04T17:36:52+0200</time>
      </trkpt>
      <trkpt lat="44.91402" lon="6.63027">
        <ele>1444.150963</ele>
        <time>2022-09-04T17:36:54+0200</time>
      </trkpt>
      <trkpt lat="44.91407" lon="6.63023">
        <ele>1444.417593</ele>
        <time>2022-09-04T17:36:56+0200</time>
      </trkpt>
      <trkpt lat="44.91414" lon="6.63017">
        <ele>1444.387778</ele>
        <time>2022-09-04T17:36:58+0200</time>
      </trkpt>
      <trkpt lat="44.9142" lon="6.63012">
        <ele>1443.485589</ele>
        <time>2022-09-04T17:37:00+0200</time>
      </trkpt>
      <trkpt lat="44.91424" lon="6.63009">
        <ele>1442.165756</ele>
        <time>2022-09-04T17:37:01+0200</time>
      </trkpt>
      <trkpt lat="44.91429" lon="6.63006">
        <ele>1442.054834</ele>
        <time>2022-09-04T17:37:02+0200</time>
      </trkpt>
      <trkpt lat="44.91437" lon="6.63002">
        <ele>1441.69583</ele>
        <time>2022-09-04T17:37:04+0200</time>
      </trkpt>
      <trkpt lat="44.91444" lon="6.62999">
        <ele>1441.749657</ele>
        <time>2022-09-04T17:37:06+0200</time>
      </trkpt>
      <trkpt lat="44.91451" lon="6.62998">
        <ele>1441.625721</ele>
        <time>2022-09-04T17:37:08+0200</time>
      </trkpt>
      <trkpt lat="44.91458" lon="6.62999">
        <ele>1441.175377</ele>
        <time>2022-09-04T17:37:10+0200</time>
      </trkpt>
      <trkpt lat="44.91462" lon="6.63003">
        <ele>1441.284179</ele>
        <time>2022-09-04T17:37:12+0200</time>
      </trkpt>
      <trkpt lat="44.91469" lon="6.63007">
        <ele>1441.398411</ele>
        <time>2022-09-04T17:37:14+0200</time>
      </trkpt>
      <trkpt lat="44.91474" lon="6.63012">
        <ele>1442.620409</ele>
        <time>2022-09-04T17:37:16+0200</time>
      </trkpt>
      <trkpt lat="44.91479" lon="6.63018">
        <ele>1443.252199</ele>
        <time>2022-09-04T17:37:18+0200</time>
      </trkpt>
      <trkpt lat="44.91484" lon="6.63021">
        <ele>1445.769099</ele>
        <time>2022-09-04T17:37:20+0200</time>
      </trkpt>
      <trkpt lat="44.91491" lon="6.63025">
        <ele>1447.80132</ele>
        <time>2022-09-04T17:37:22+0200</time>
      </trkpt>
      <trkpt lat="44.91497" lon="6.63028">
        <ele>1448.976157</ele>
        <time>2022-09-04T17:37:24+0200</time>
      </trkpt>
      <trkpt lat="44.91504" lon="6.63028">
        <ele>1450.605931</ele>
        <time>2022-09-04T17:37:26+0200</time>
      </trkpt>
      <trkpt lat="44.91512" lon="6.63026">
        <ele>1450.63933</ele>
        <time>2022-09-04T17:37:28+0200</time>
      </trkpt>
      <trkpt lat="44.91519" lon="6.63023">
        <ele>1450.983222</ele>
        <time>2022-09-04T17:37:30+0200</time>
      </trkpt>
      <trkpt lat="44.91526" lon="6.63017">
        <ele>1451.318458</ele>
        <time>2022-09-04T17:37:32+0200</time>
      </trkpt>
      <trkpt lat="44.91533" lon="6.63012">
        <ele>1450.371152</ele>
        <time>2022-09-04T17:37:34+0200</time>
      </trkpt>
      <trkpt lat="44.91539" lon="6.63005">
        <ele>1449.826811</ele>
        <time>2022-09-04T17:37:36+0200</time>
      </trkpt>
      <trkpt lat="44.91543" lon="6.62998">
        <ele>1448.214945</ele>
        <time>2022-09-04T17:37:38+0200</time>
      </trkpt>
      <trkpt lat="44.91547" lon="6.62989">
        <ele>1447.718593</ele>
        <time>2022-09-04T17:37:40+0200</time>
      </trkpt>
      <trkpt lat="44.91552" lon="6.62984">
        <ele>1446.105017</ele>
        <time>2022-09-04T17:37:42+0200</time>
      </trkpt>
      <trkpt lat="44.91559" lon="6.62983">
        <ele>1444.708765</ele>
        <time>2022-09-04T17:37:44+0200</time>
      </trkpt>
      <trkpt lat="44.91563" lon="6.62987">
        <ele>1444.066521</ele>
        <time>2022-09-04T17:37:46+0200</time>
      </trkpt>
      <trkpt lat="44.91569" lon="6.62991">
        <ele>1444.368548</ele>
        <time>2022-09-04T17:37:48+0200</time>
      </trkpt>
      <trkpt lat="44.91575" lon="6.62994">
        <ele>1445.574092</ele>
        <time>2022-09-04T17:37:50+0200</time>
      </trkpt>
      <trkpt lat="44.91583" lon="6.62995">
        <ele>1447.168217</ele>
        <time>2022-09-04T17:37:52+0200</time>
      </trkpt>
      <trkpt lat="44.91587" lon="6.62994">
        <ele>1448.582551</ele>
        <time>2022-09-04T17:37:53+0200</time>
      </trkpt>
      <trkpt lat="44.91594" lon="6.62992">
        <ele>1450.067652</ele>
        <time>2022-09-04T17:37:55+0200</time>
      </trkpt>
      <trkpt lat="44.91599" lon="6.6299">
        <ele>1450.946339</ele>
        <time>2022-09-04T17:37:57+0200</time>
      </trkpt>
      <trkpt lat="44.91605" lon="6.62987">
        <ele>1452.449378</ele>
        <time>2022-09-04T17:37:59+0200</time>
      </trkpt>
      <trkpt lat="44.9161" lon="6.62983">
        <ele>1454.704487</ele>
        <time>2022-09-04T17:38:01+0200</time>
      </trkpt>
      <trkpt lat="44.91614" lon="6.62978">
        <ele>1455.699763</ele>
        <time>2022-09-04T17:38:03+0200</time>
      </trkpt>
      <trkpt lat="44.91619" lon="6.62974">
        <ele>1456.52183</ele>
        <time>2022-09-04T17:38:06+0200</time>
      </trkpt>
      <trkpt lat="44.91626" lon="6.62969">
        <ele>1455.936069</ele>
        <time>2022-09-04T17:38:09+0200</time>
      </trkpt>
      <trkpt lat="44.9163" lon="6.62966">
        <ele>1455.973951</ele>
        <time>2022-09-04T17:38:10+0200</time>
      </trkpt>
      <trkpt lat="44.91633" lon="6.62962">
        <ele>1455.177506</ele>
        <time>2022-09-04T17:38:11+0200</time>
      </trkpt>
      <trkpt lat="44.91636" lon="6.62957">
        <ele>1454.771408</ele>
        <time>2022-09-04T17:38:12+0200</time>
      </trkpt>
      <trkpt lat="44.9164" lon="6.62948">
        <ele>1454.795527</ele>
        <time>2022-09-04T17:38:13+0200</time>
      </trkpt>
      <trkpt lat="44.91642" lon="6.6294">
        <ele>1454.59474</ele>
        <time>2022-09-04T17:38:14+0200</time>
      </trkpt>
      <trkpt lat="44.91643" lon="6.6293">
        <ele>1453.693893</ele>
        <time>2022-09-04T17:38:15+0200</time>
      </trkpt>
      <trkpt lat="44.91644" lon="6.62919">
        <ele>1452.638576</ele>
        <time>2022-09-04T17:38:16+0200</time>
      </trkpt>
      <trkpt lat="44.91648" lon="6.62908">
        <ele>1451.288758</ele>
        <time>2022-09-04T17:38:17+0200</time>
      </trkpt>
      <trkpt lat="44.91653" lon="6.62897">
        <ele>1449.298816</ele>
        <time>2022-09-04T17:38:18+0200</time>
      </trkpt>
      <trkpt lat="44.91659" lon="6.62886">
        <ele>1447.525064</ele>
        <time>2022-09-04T17:38:19+0200</time>
      </trkpt>
      <trkpt lat="44.91666" lon="6.62877">
        <ele>1445.730398</ele>
        <time>2022-09-04T17:38:20+0200</time>
      </trkpt>
      <trkpt lat="44.91673" lon="6.62867">
        <ele>1443.235072</ele>
        <time>2022-09-04T17:38:21+0200</time>
      </trkpt>
      <trkpt lat="44.91682" lon="6.62857">
        <ele>1441.221347</ele>
        <time>2022-09-04T17:38:22+0200</time>
      </trkpt>
      <trkpt lat="44.9169" lon="6.62845">
        <ele>1438.762368</ele>
        <time>2022-09-04T17:38:23+0200</time>
      </trkpt>
      <trkpt lat="44.91699" lon="6.62838">
        <ele>1436.572423</ele>
        <time>2022-09-04T17:38:24+0200</time>
      </trkpt>
      <trkpt lat="44.91708" lon="6.62834">
        <ele>1434.224659</ele>
        <time>2022-09-04T17:38:25+0200</time>
      </trkpt>
      <trkpt lat="44.91717" lon="6.62838">
        <ele>1432.875787</ele>
        <time>2022-09-04T17:38:26+0200</time>
      </trkpt>
      <trkpt lat="44.91727" lon="6.62845">
        <ele>1431.271034</ele>
        <time>2022-09-04T17:38:27+0200</time>
      </trkpt>
      <trkpt lat="44.91736" lon="6.6285">
        <ele>1430.183638</ele>
        <time>2022-09-04T17:38:28+0200</time>
      </trkpt>
      <trkpt lat="44.91747" lon="6.62852">
        <ele>1429.49033</ele>
        <time>2022-09-04T17:38:29+0200</time>
      </trkpt>
      <trkpt lat="44.91758" lon="6.62854">
        <ele>1429.087972</ele>
        <time>2022-09-04T17:38:30+0200</time>
      </trkpt>
      <trkpt lat="44.91769" lon="6.62854">
        <ele>1428.526312</ele>
        <time>2022-09-04T17:38:31+0200</time>
      </trkpt>
      <trkpt lat="44.91781" lon="6.62854">
        <ele>1428.69443</ele>
        <time>2022-09-04T17:38:32+0200</time>
      </trkpt>
      <trkpt lat="44.91793" lon="6.62848">
        <ele>1429.228315</ele>
        <time>2022-09-04T17:38:33+0200</time>
      </trkpt>
      <trkpt lat="44.91804" lon="6.62839">
        <ele>1428.663595</ele>
        <time>2022-09-04T17:38:34+0200</time>
      </trkpt>
      <trkpt lat="44.91814" lon="6.62825">
        <ele>1428.709095</ele>
        <time>2022-09-04T17:38:35+0200</time>
      </trkpt>
      <trkpt lat="44.9182" lon="6.62812">
        <ele>1428.285737</ele>
        <time>2022-09-04T17:38:36+0200</time>
      </trkpt>
      <trkpt lat="44.91824" lon="6.62801">
        <ele>1428.538846</ele>
        <time>2022-09-04T17:38:37+0200</time>
      </trkpt>
      <trkpt lat="44.91822" lon="6.62794">
        <ele>1428.352183</ele>
        <time>2022-09-04T17:38:38+0200</time>
      </trkpt>
      <trkpt lat="44.91816" lon="6.62791">
        <ele>1428.561603</ele>
        <time>2022-09-04T17:38:39+0200</time>
      </trkpt>
      <trkpt lat="44.91807" lon="6.62793">
        <ele>1429.500459</ele>
        <time>2022-09-04T17:38:40+0200</time>
      </trkpt>
      <trkpt lat="44.91801" lon="6.62802">
        <ele>1427.581175</ele>
        <time>2022-09-04T17:38:41+0200</time>
      </trkpt>
      <trkpt lat="44.91795" lon="6.62807">
        <ele>1426.422725</ele>
        <time>2022-09-04T17:38:42+0200</time>
      </trkpt>
      <trkpt lat="44.91789" lon="6.6281">
        <ele>1425.552621</ele>
        <time>2022-09-04T17:38:43+0200</time>
      </trkpt>
      <trkpt lat="44.91784" lon="6.62811">
        <ele>1424.865287</ele>
        <time>2022-09-04T17:38:44+0200</time>
      </trkpt>
      <trkpt lat="44.91778" lon="6.62811">
        <ele>1424.113354</ele>
        <time>2022-09-04T17:38:45+0200</time>
      </trkpt>
      <trkpt lat="44.91768" lon="6.62812">
        <ele>1423.074178</ele>
        <time>2022-09-04T17:38:46+0200</time>
      </trkpt>
      <trkpt lat="44.91758" lon="6.62812">
        <ele>1422.610607</ele>
        <time>2022-09-04T17:38:47+0200</time>
      </trkpt>
      <trkpt lat="44.91749" lon="6.62812">
        <ele>1422.495426</ele>
        <time>2022-09-04T17:38:48+0200</time>
      </trkpt>
      <trkpt lat="44.91745" lon="6.62808">
        <ele>1421.638664</ele>
        <time>2022-09-04T17:38:49+0200</time>
      </trkpt>
      <trkpt lat="44.91745" lon="6.62799">
        <ele>1420.331894</ele>
        <time>2022-09-04T17:38:50+0200</time>
      </trkpt>
      <trkpt lat="44.91751" lon="6.62795">
        <ele>1419.196823</ele>
        <time>2022-09-04T17:38:51+0200</time>
      </trkpt>
      <trkpt lat="44.91759" lon="6.62796">
        <ele>1417.391551</ele>
        <time>2022-09-04T17:38:53+0200</time>
      </trkpt>
      <trkpt lat="44.91764" lon="6.6279">
        <ele>1417.143744</ele>
        <time>2022-09-04T17:38:54+0200</time>
      </trkpt>
      <trkpt lat="44.91769" lon="6.62781">
        <ele>1415.41306</ele>
        <time>2022-09-04T17:38:55+0200</time>
      </trkpt>
      <trkpt lat="44.91771" lon="6.6277">
        <ele>1414.450468</ele>
        <time>2022-09-04T17:38:56+0200</time>
      </trkpt>
      <trkpt lat="44.91774" lon="6.62757">
        <ele>1413.874981</ele>
        <time>2022-09-04T17:38:57+0200</time>
      </trkpt>
      <trkpt lat="44.91778" lon="6.62747">
        <ele>1414.447466</ele>
        <time>2022-09-04T17:38:58+0200</time>
      </trkpt>
      <trkpt lat="44.91773" lon="6.62739">
        <ele>1414.573886</ele>
        <time>2022-09-04T17:38:59+0200</time>
      </trkpt>
      <trkpt lat="44.91767" lon="6.62739">
        <ele>1413.510456</ele>
        <time>2022-09-04T17:39:00+0200</time>
      </trkpt>
      <trkpt lat="44.91762" lon="6.62744">
        <ele>1411.354035</ele>
        <time>2022-09-04T17:39:01+0200</time>
      </trkpt>
      <trkpt lat="44.91758" lon="6.62752">
        <ele>1410.550045</ele>
        <time>2022-09-04T17:39:02+0200</time>
      </trkpt>
      <trkpt lat="44.91753" lon="6.6276">
        <ele>1410.775715</ele>
        <time>2022-09-04T17:39:03+0200</time>
      </trkpt>
      <trkpt lat="44.91746" lon="6.62766">
        <ele>1411.022912</ele>
        <time>2022-09-04T17:39:04+0200</time>
      </trkpt>
      <trkpt lat="44.91737" lon="6.62769">
        <ele>1410.614203</ele>
        <time>2022-09-04T17:39:05+0200</time>
      </trkpt>
      <trkpt lat="44.91729" lon="6.62767">
        <ele>1409.933296</ele>
        <time>2022-09-04T17:39:06+0200</time>
      </trkpt>
      <trkpt lat="44.91721" lon="6.62765">
        <ele>1409.421716</ele>
        <time>2022-09-04T17:39:07+0200</time>
      </trkpt>
      <trkpt lat="44.91717" lon="6.62759">
        <ele>1407.772793</ele>
        <time>2022-09-04T17:39:08+0200</time>
      </trkpt>
      <trkpt lat="44.91718" lon="6.62753">
        <ele>1406.727825</ele>
        <time>2022-09-04T17:39:09+0200</time>
      </trkpt>
      <trkpt lat="44.91726" lon="6.62748">
        <ele>1407.217417</ele>
        <time>2022-09-04T17:39:10+0200</time>
      </trkpt>
      <trkpt lat="44.91732" lon="6.62743">
        <ele>1405.387887</ele>
        <time>2022-09-04T17:39:11+0200</time>
      </trkpt>
      <trkpt lat="44.91735" lon="6.62733">
        <ele>1404.887942</ele>
        <time>2022-09-04T17:39:12+0200</time>
      </trkpt>
      <trkpt lat="44.91734" lon="6.62721">
        <ele>1404.579453</ele>
        <time>2022-09-04T17:39:13+0200</time>
      </trkpt>
      <trkpt lat="44.91735" lon="6.62709">
        <ele>1403.478691</ele>
        <time>2022-09-04T17:39:14+0200</time>
      </trkpt>
      <trkpt lat="44.91735" lon="6.62697">
        <ele>1402.712609</ele>
        <time>2022-09-04T17:39:15+0200</time>
      </trkpt>
      <trkpt lat="44.91733" lon="6.62685">
        <ele>1401.40287</ele>
        <time>2022-09-04T17:39:16+0200</time>
      </trkpt>
      <trkpt lat="44.91726" lon="6.62679">
        <ele>1398.46463</ele>
        <time>2022-09-04T17:39:17+0200</time>
      </trkpt>
      <trkpt lat="44.91716" lon="6.62682">
        <ele>1396.048467</ele>
        <time>2022-09-04T17:39:18+0200</time>
      </trkpt>
      <trkpt lat="44.91709" lon="6.62694">
        <ele>1394.736838</ele>
        <time>2022-09-04T17:39:19+0200</time>
      </trkpt>
      <trkpt lat="44.91705" lon="6.62708">
        <ele>1393.241393</ele>
        <time>2022-09-04T17:39:20+0200</time>
      </trkpt>
      <trkpt lat="44.91699" lon="6.62715">
        <ele>1392.492522</ele>
        <time>2022-09-04T17:39:21+0200</time>
      </trkpt>
      <trkpt lat="44.91692" lon="6.62712">
        <ele>1391.981921</ele>
        <time>2022-09-04T17:39:22+0200</time>
      </trkpt>
      <trkpt lat="44.91688" lon="6.62704">
        <ele>1391.900446</ele>
        <time>2022-09-04T17:39:23+0200</time>
      </trkpt>
      <trkpt lat="44.91689" lon="6.62692">
        <ele>1390.29063</ele>
        <time>2022-09-04T17:39:24+0200</time>
      </trkpt>
      <trkpt lat="44.91693" lon="6.6268">
        <ele>1388.491808</ele>
        <time>2022-09-04T17:39:25+0200</time>
      </trkpt>
      <trkpt lat="44.91695" lon="6.62668">
        <ele>1387.134234</ele>
        <time>2022-09-04T17:39:26+0200</time>
      </trkpt>
      <trkpt lat="44.91695" lon="6.62656">
        <ele>1386.3724</ele>
        <time>2022-09-04T17:39:27+0200</time>
      </trkpt>
      <trkpt lat="44.91691" lon="6.62647">
        <ele>1386.140386</ele>
        <time>2022-09-04T17:39:28+0200</time>
      </trkpt>
      <trkpt lat="44.91682" lon="6.62644">
        <ele>1385.865844</ele>
        <time>2022-09-04T17:39:29+0200</time>
      </trkpt>
      <trkpt lat="44.91675" lon="6.6265">
        <ele>1384.346264</ele>
        <time>2022-09-04T17:39:30+0200</time>
      </trkpt>
      <trkpt lat="44.91669" lon="6.62661">
        <ele>1382.78453</ele>
        <time>2022-09-04T17:39:31+0200</time>
      </trkpt>
      <trkpt lat="44.91661" lon="6.62669">
        <ele>1381.602849</ele>
        <time>2022-09-04T17:39:32+0200</time>
      </trkpt>
      <trkpt lat="44.91655" lon="6.6267">
        <ele>1380.754064</ele>
        <time>2022-09-04T17:39:33+0200</time>
      </trkpt>
      <trkpt lat="44.91649" lon="6.62661">
        <ele>1380.116641</ele>
        <time>2022-09-04T17:39:34+0200</time>
      </trkpt>
      <trkpt lat="44.91649" lon="6.62647">
        <ele>1379.120569</ele>
        <time>2022-09-04T17:39:35+0200</time>
      </trkpt>
      <trkpt lat="44.91653" lon="6.62635">
        <ele>1377.624505</ele>
        <time>2022-09-04T17:39:36+0200</time>
      </trkpt>
      <trkpt lat="44.91656" lon="6.62623">
        <ele>1376.4803</ele>
        <time>2022-09-04T17:39:37+0200</time>
      </trkpt>
      <trkpt lat="44.91661" lon="6.6261">
        <ele>1375.325973</ele>
        <time>2022-09-04T17:39:38+0200</time>
      </trkpt>
      <trkpt lat="44.91666" lon="6.62597">
        <ele>1374.3557</ele>
        <time>2022-09-04T17:39:39+0200</time>
      </trkpt>
      <trkpt lat="44.91664" lon="6.62586">
        <ele>1374.054907</ele>
        <time>2022-09-04T17:39:40+0200</time>
      </trkpt>
      <trkpt lat="44.91653" lon="6.6258">
        <ele>1373.868939</ele>
        <time>2022-09-04T17:39:41+0200</time>
      </trkpt>
      <trkpt lat="44.91641" lon="6.62584">
        <ele>1373.653962</ele>
        <time>2022-09-04T17:39:42+0200</time>
      </trkpt>
      <trkpt lat="44.91633" lon="6.62591">
        <ele>1372.489551</ele>
        <time>2022-09-04T17:39:43+0200</time>
      </trkpt>
      <trkpt lat="44.91624" lon="6.62596">
        <ele>1370.897075</ele>
        <time>2022-09-04T17:39:44+0200</time>
      </trkpt>
      <trkpt lat="44.91615" lon="6.62601">
        <ele>1369.384913</ele>
        <time>2022-09-04T17:39:45+0200</time>
      </trkpt>
      <trkpt lat="44.91605" lon="6.62607">
        <ele>1367.57238</ele>
        <time>2022-09-04T17:39:46+0200</time>
      </trkpt>
      <trkpt lat="44.91598" lon="6.62615">
        <ele>1366.05481</ele>
        <time>2022-09-04T17:39:47+0200</time>
      </trkpt>
      <trkpt lat="44.9159" lon="6.62611">
        <ele>1365.200444</ele>
        <time>2022-09-04T17:39:48+0200</time>
      </trkpt>
      <trkpt lat="44.91585" lon="6.626">
        <ele>1364.050768</ele>
        <time>2022-09-04T17:39:49+0200</time>
      </trkpt>
      <trkpt lat="44.91585" lon="6.62586">
        <ele>1363.286583</ele>
        <time>2022-09-04T17:39:50+0200</time>
      </trkpt>
      <trkpt lat="44.91592" lon="6.62575">
        <ele>1362.617282</ele>
        <time>2022-09-04T17:39:51+0200</time>
      </trkpt>
      <trkpt lat="44.91599" lon="6.62567">
        <ele>1361.547557</ele>
        <time>2022-09-04T17:39:52+0200</time>
      </trkpt>
      <trkpt lat="44.91602" lon="6.62556">
        <ele>1361.176509</ele>
        <time>2022-09-04T17:39:53+0200</time>
      </trkpt>
      <trkpt lat="44.91598" lon="6.62542">
        <ele>1360.613815</ele>
        <time>2022-09-04T17:39:54+0200</time>
      </trkpt>
      <trkpt lat="44.91588" lon="6.62532">
        <ele>1359.705418</ele>
        <time>2022-09-04T17:39:55+0200</time>
      </trkpt>
      <trkpt lat="44.91576" lon="6.62531">
        <ele>1358.291375</ele>
        <time>2022-09-04T17:39:56+0200</time>
      </trkpt>
      <trkpt lat="44.91567" lon="6.62531">
        <ele>1357.068216</ele>
        <time>2022-09-04T17:39:57+0200</time>
      </trkpt>
      <trkpt lat="44.91565" lon="6.62523">
        <ele>1355.207448</ele>
        <time>2022-09-04T17:39:59+0200</time>
      </trkpt>
      <trkpt lat="44.91569" lon="6.62515">
        <ele>1354.482093</ele>
        <time>2022-09-04T17:40:01+0200</time>
      </trkpt>
      <trkpt lat="44.91569" lon="6.62507">
        <ele>1353.087421</ele>
        <time>2022-09-04T17:40:04+0200</time>
      </trkpt>
      <trkpt lat="44.91573" lon="6.62503">
        <ele>1352.176448</ele>
        <time>2022-09-04T17:40:07+0200</time>
      </trkpt>
      <trkpt lat="44.91569" lon="6.625">
        <ele>1351.962557</ele>
        <time>2022-09-04T17:40:09+0200</time>
      </trkpt>
      <trkpt lat="44.91565" lon="6.62493">
        <ele>1351.511777</ele>
        <time>2022-09-04T17:40:11+0200</time>
      </trkpt>
      <trkpt lat="44.91563" lon="6.62485">
        <ele>1350.99899</ele>
        <time>2022-09-04T17:40:13+0200</time>
      </trkpt>
      <trkpt lat="44.91563" lon="6.62476">
        <ele>1348.963671</ele>
        <time>2022-09-04T17:40:16+0200</time>
      </trkpt>
      <trkpt lat="44.91568" lon="6.6247">
        <ele>1347.55114</ele>
        <time>2022-09-04T17:40:18+0200</time>
      </trkpt>
      <trkpt lat="44.91573" lon="6.62469">
        <ele>1347.370023</ele>
        <time>2022-09-04T17:40:20+0200</time>
      </trkpt>
      <trkpt lat="44.91578" lon="6.62466">
        <ele>1346.838678</ele>
        <time>2022-09-04T17:40:22+0200</time>
      </trkpt>
      <trkpt lat="44.91584" lon="6.62462">
        <ele>1346.51013</ele>
        <time>2022-09-04T17:40:24+0200</time>
      </trkpt>
      <trkpt lat="44.91588" lon="6.62456">
        <ele>1346.82228</ele>
        <time>2022-09-04T17:40:26+0200</time>
      </trkpt>
      <trkpt lat="44.91593" lon="6.62455">
        <ele>1348.126368</ele>
        <time>2022-09-04T17:40:29+0200</time>
      </trkpt>
      <trkpt lat="44.91597" lon="6.62451">
        <ele>1352.269486</ele>
        <time>2022-09-04T17:40:41+0200</time>
      </trkpt>
    </trkseg>
  </trk>
</gpx>